<?xml version="1.0" encoding="UTF-8" standalone="no" ?>
<gpx xmlns="http://www.topografix.com/GPX/1/1" xmlns:xsi="http://www.w3.org/2001/XMLSchema-instance" xsi:schemaLocation="http://www.topografix.com/GPX/1/1 http://www.topografix.com/GPX/1/1/gpx.xsd" version="1.1" creator="VisuGPX - https://www.visugpx.com">
  <metadata>
    <name>sortie au nord de Reims</name>
    <desc><![CDATA[2eme balade autour de Reims bonnes sensations]]></desc>
  </metadata>
  <wpt lat="49.34508" lon="4.07151">
    <ele>136</ele>
    <name><![CDATA[Vélo jfc]]></name>
  </wpt>
  <trk>
    <name><![CDATA[Tracé 20190407-113636]]></name>
    <trkseg>
      <trkpt lat="49.34508" lon="4.07151">
        <ele>136</ele>
        <time>2019-04-07T09:36:36Z</time>
      </trkpt>
      <trkpt lat="49.34508" lon="4.07151">
        <ele>136</ele>
        <time>2019-04-07T09:36:37Z</time>
      </trkpt>
      <trkpt lat="49.34508" lon="4.07151">
        <ele>136</ele>
        <time>2019-04-07T09:36:38Z</time>
      </trkpt>
      <trkpt lat="49.34508" lon="4.07151">
        <ele>136</ele>
        <time>2019-04-07T09:36:39Z</time>
      </trkpt>
      <trkpt lat="49.34508" lon="4.07151">
        <ele>136</ele>
        <time>2019-04-07T09:36:40Z</time>
      </trkpt>
      <trkpt lat="49.34508" lon="4.07151">
        <ele>136</ele>
        <time>2019-04-07T09:36:41Z</time>
      </trkpt>
      <trkpt lat="49.34508" lon="4.07151">
        <ele>136</ele>
        <time>2019-04-07T09:36:42Z</time>
      </trkpt>
      <trkpt lat="49.34508" lon="4.07151">
        <ele>136</ele>
        <time>2019-04-07T09:36:43Z</time>
      </trkpt>
      <trkpt lat="49.34508" lon="4.07151">
        <ele>136</ele>
        <time>2019-04-07T09:36:44Z</time>
      </trkpt>
      <trkpt lat="49.34508" lon="4.07151">
        <ele>136</ele>
        <time>2019-04-07T09:36:45Z</time>
      </trkpt>
      <trkpt lat="49.34508" lon="4.07151">
        <ele>136</ele>
        <time>2019-04-07T09:36:46Z</time>
      </trkpt>
      <trkpt lat="49.34508" lon="4.07151">
        <ele>136</ele>
        <time>2019-04-07T09:36:47Z</time>
      </trkpt>
      <trkpt lat="49.34508" lon="4.07151">
        <ele>136</ele>
        <time>2019-04-07T09:36:48Z</time>
      </trkpt>
      <trkpt lat="49.34508" lon="4.07151">
        <ele>136</ele>
        <time>2019-04-07T09:36:49Z</time>
      </trkpt>
      <trkpt lat="49.34508" lon="4.07151">
        <ele>136</ele>
        <time>2019-04-07T09:36:50Z</time>
      </trkpt>
      <trkpt lat="49.34508" lon="4.07151">
        <ele>136</ele>
        <time>2019-04-07T09:36:51Z</time>
      </trkpt>
      <trkpt lat="49.34509" lon="4.0715">
        <ele>136</ele>
        <time>2019-04-07T09:36:52Z</time>
      </trkpt>
      <trkpt lat="49.34508" lon="4.0715">
        <ele>135</ele>
        <time>2019-04-07T09:36:53Z</time>
      </trkpt>
      <trkpt lat="49.34508" lon="4.0715">
        <ele>135</ele>
        <time>2019-04-07T09:36:54Z</time>
      </trkpt>
      <trkpt lat="49.34508" lon="4.0715">
        <ele>135</ele>
        <time>2019-04-07T09:36:55Z</time>
      </trkpt>
      <trkpt lat="49.34508" lon="4.0715">
        <ele>135</ele>
        <time>2019-04-07T09:36:56Z</time>
      </trkpt>
      <trkpt lat="49.34508" lon="4.0715">
        <ele>135</ele>
        <time>2019-04-07T09:36:57Z</time>
      </trkpt>
      <trkpt lat="49.34508" lon="4.0715">
        <ele>135</ele>
        <time>2019-04-07T09:36:58Z</time>
      </trkpt>
      <trkpt lat="49.34508" lon="4.0715">
        <ele>135</ele>
        <time>2019-04-07T09:36:59Z</time>
      </trkpt>
      <trkpt lat="49.34508" lon="4.0715">
        <ele>135</ele>
        <time>2019-04-07T09:37:00Z</time>
      </trkpt>
      <trkpt lat="49.34508" lon="4.0715">
        <ele>135</ele>
        <time>2019-04-07T09:37:01Z</time>
      </trkpt>
      <trkpt lat="49.34508" lon="4.0715">
        <ele>135</ele>
        <time>2019-04-07T09:37:02Z</time>
      </trkpt>
      <trkpt lat="49.34508" lon="4.0715">
        <ele>135</ele>
        <time>2019-04-07T09:37:03Z</time>
      </trkpt>
      <trkpt lat="49.34508" lon="4.0715">
        <ele>135</ele>
        <time>2019-04-07T09:37:04Z</time>
      </trkpt>
      <trkpt lat="49.34508" lon="4.0715">
        <ele>135</ele>
        <time>2019-04-07T09:37:05Z</time>
      </trkpt>
      <trkpt lat="49.34508" lon="4.0715">
        <ele>135</ele>
        <time>2019-04-07T09:37:06Z</time>
      </trkpt>
      <trkpt lat="49.34508" lon="4.0715">
        <ele>135</ele>
        <time>2019-04-07T09:37:07Z</time>
      </trkpt>
      <trkpt lat="49.34508" lon="4.0715">
        <ele>135</ele>
        <time>2019-04-07T09:37:08Z</time>
      </trkpt>
      <trkpt lat="49.34508" lon="4.0715">
        <ele>135</ele>
        <time>2019-04-07T09:37:09Z</time>
      </trkpt>
      <trkpt lat="49.34508" lon="4.0715">
        <ele>135</ele>
        <time>2019-04-07T09:37:10Z</time>
      </trkpt>
      <trkpt lat="49.34508" lon="4.0715">
        <ele>135</ele>
        <time>2019-04-07T09:37:11Z</time>
      </trkpt>
      <trkpt lat="49.34508" lon="4.0715">
        <ele>135</ele>
        <time>2019-04-07T09:37:12Z</time>
      </trkpt>
      <trkpt lat="49.34508" lon="4.0715">
        <ele>135</ele>
        <time>2019-04-07T09:37:13Z</time>
      </trkpt>
      <trkpt lat="49.34508" lon="4.0715">
        <ele>135</ele>
        <time>2019-04-07T09:37:14Z</time>
      </trkpt>
      <trkpt lat="49.34508" lon="4.0715">
        <ele>135</ele>
        <time>2019-04-07T09:37:15Z</time>
      </trkpt>
      <trkpt lat="49.34508" lon="4.0715">
        <ele>135</ele>
        <time>2019-04-07T09:37:16Z</time>
      </trkpt>
      <trkpt lat="49.34508" lon="4.0715">
        <ele>135</ele>
        <time>2019-04-07T09:37:17Z</time>
      </trkpt>
      <trkpt lat="49.34508" lon="4.0715">
        <ele>135</ele>
        <time>2019-04-07T09:37:18Z</time>
      </trkpt>
      <trkpt lat="49.34508" lon="4.0715">
        <ele>135</ele>
        <time>2019-04-07T09:37:19Z</time>
      </trkpt>
      <trkpt lat="49.34508" lon="4.0715">
        <ele>135</ele>
        <time>2019-04-07T09:37:20Z</time>
      </trkpt>
      <trkpt lat="49.34508" lon="4.0715">
        <ele>135</ele>
        <time>2019-04-07T09:37:21Z</time>
      </trkpt>
      <trkpt lat="49.34508" lon="4.0715">
        <ele>135</ele>
        <time>2019-04-07T09:37:22Z</time>
      </trkpt>
      <trkpt lat="49.34508" lon="4.0715">
        <ele>135</ele>
        <time>2019-04-07T09:37:23Z</time>
      </trkpt>
      <trkpt lat="49.34508" lon="4.0715">
        <ele>135</ele>
        <time>2019-04-07T09:37:24Z</time>
      </trkpt>
      <trkpt lat="49.34508" lon="4.0715">
        <ele>135</ele>
        <time>2019-04-07T09:37:25Z</time>
      </trkpt>
      <trkpt lat="49.34508" lon="4.0715">
        <ele>135</ele>
        <time>2019-04-07T09:37:26Z</time>
      </trkpt>
      <trkpt lat="49.34508" lon="4.0715">
        <ele>135</ele>
        <time>2019-04-07T09:37:27Z</time>
      </trkpt>
      <trkpt lat="49.34508" lon="4.0715">
        <ele>135</ele>
        <time>2019-04-07T09:37:28Z</time>
      </trkpt>
      <trkpt lat="49.34508" lon="4.0715">
        <ele>135</ele>
        <time>2019-04-07T09:37:29Z</time>
      </trkpt>
      <trkpt lat="49.34508" lon="4.0715">
        <ele>135</ele>
        <time>2019-04-07T09:37:30Z</time>
      </trkpt>
      <trkpt lat="49.34508" lon="4.0715">
        <ele>135</ele>
        <time>2019-04-07T09:37:31Z</time>
      </trkpt>
      <trkpt lat="49.34508" lon="4.0715">
        <ele>135</ele>
        <time>2019-04-07T09:37:32Z</time>
      </trkpt>
      <trkpt lat="49.34508" lon="4.0715">
        <ele>135</ele>
        <time>2019-04-07T09:37:33Z</time>
      </trkpt>
      <trkpt lat="49.34508" lon="4.0715">
        <ele>135</ele>
        <time>2019-04-07T09:37:34Z</time>
      </trkpt>
      <trkpt lat="49.34508" lon="4.0715">
        <ele>135</ele>
        <time>2019-04-07T09:37:35Z</time>
      </trkpt>
      <trkpt lat="49.34508" lon="4.0715">
        <ele>135</ele>
        <time>2019-04-07T09:37:36Z</time>
      </trkpt>
      <trkpt lat="49.34508" lon="4.0715">
        <ele>135</ele>
        <time>2019-04-07T09:37:37Z</time>
      </trkpt>
      <trkpt lat="49.34508" lon="4.0715">
        <ele>135</ele>
        <time>2019-04-07T09:37:38Z</time>
      </trkpt>
      <trkpt lat="49.34508" lon="4.0715">
        <ele>135</ele>
        <time>2019-04-07T09:37:39Z</time>
      </trkpt>
      <trkpt lat="49.34508" lon="4.0715">
        <ele>135</ele>
        <time>2019-04-07T09:37:40Z</time>
      </trkpt>
      <trkpt lat="49.34508" lon="4.07149">
        <ele>136</ele>
        <time>2019-04-07T09:37:41Z</time>
      </trkpt>
      <trkpt lat="49.34508" lon="4.07149">
        <ele>136</ele>
        <time>2019-04-07T09:37:42Z</time>
      </trkpt>
      <trkpt lat="49.34508" lon="4.07149">
        <ele>135</ele>
        <time>2019-04-07T09:37:43Z</time>
      </trkpt>
      <trkpt lat="49.34508" lon="4.07149">
        <ele>135</ele>
        <time>2019-04-07T09:37:44Z</time>
      </trkpt>
      <trkpt lat="49.34508" lon="4.07149">
        <ele>135</ele>
        <time>2019-04-07T09:37:45Z</time>
      </trkpt>
      <trkpt lat="49.34508" lon="4.07149">
        <ele>135</ele>
        <time>2019-04-07T09:37:46Z</time>
      </trkpt>
      <trkpt lat="49.34508" lon="4.07149">
        <ele>135</ele>
        <time>2019-04-07T09:37:47Z</time>
      </trkpt>
      <trkpt lat="49.34508" lon="4.07149">
        <ele>135</ele>
        <time>2019-04-07T09:37:48Z</time>
      </trkpt>
      <trkpt lat="49.34508" lon="4.07149">
        <ele>135</ele>
        <time>2019-04-07T09:37:49Z</time>
      </trkpt>
      <trkpt lat="49.34508" lon="4.07149">
        <ele>135</ele>
        <time>2019-04-07T09:37:50Z</time>
      </trkpt>
      <trkpt lat="49.34508" lon="4.07149">
        <ele>135</ele>
        <time>2019-04-07T09:37:51Z</time>
      </trkpt>
      <trkpt lat="49.34508" lon="4.07149">
        <ele>135</ele>
        <time>2019-04-07T09:37:52Z</time>
      </trkpt>
      <trkpt lat="49.34508" lon="4.07149">
        <ele>135</ele>
        <time>2019-04-07T09:37:53Z</time>
      </trkpt>
      <trkpt lat="49.34508" lon="4.07149">
        <ele>135</ele>
        <time>2019-04-07T09:37:54Z</time>
      </trkpt>
      <trkpt lat="49.34508" lon="4.07149">
        <ele>135</ele>
        <time>2019-04-07T09:37:55Z</time>
      </trkpt>
      <trkpt lat="49.34508" lon="4.07149">
        <ele>135</ele>
        <time>2019-04-07T09:37:56Z</time>
      </trkpt>
      <trkpt lat="49.34508" lon="4.07149">
        <ele>135</ele>
        <time>2019-04-07T09:37:57Z</time>
      </trkpt>
      <trkpt lat="49.34508" lon="4.07151">
        <ele>134</ele>
        <time>2019-04-07T09:37:58Z</time>
      </trkpt>
      <trkpt lat="49.34507" lon="4.07152">
        <ele>135</ele>
        <time>2019-04-07T09:37:59Z</time>
      </trkpt>
      <trkpt lat="49.34506" lon="4.07152">
        <ele>134</ele>
        <time>2019-04-07T09:38:00Z</time>
      </trkpt>
      <trkpt lat="49.34505" lon="4.07152">
        <ele>134</ele>
        <time>2019-04-07T09:38:01Z</time>
      </trkpt>
      <trkpt lat="49.34503" lon="4.07151">
        <ele>134</ele>
        <time>2019-04-07T09:38:02Z</time>
      </trkpt>
      <trkpt lat="49.34503" lon="4.07151">
        <ele>134</ele>
        <time>2019-04-07T09:38:03Z</time>
      </trkpt>
      <trkpt lat="49.34503" lon="4.0715">
        <ele>135</ele>
        <time>2019-04-07T09:38:04Z</time>
      </trkpt>
      <trkpt lat="49.34503" lon="4.0715">
        <ele>136</ele>
        <time>2019-04-07T09:38:05Z</time>
      </trkpt>
      <trkpt lat="49.34503" lon="4.0715">
        <ele>136</ele>
        <time>2019-04-07T09:38:06Z</time>
      </trkpt>
      <trkpt lat="49.34503" lon="4.0715">
        <ele>136</ele>
        <time>2019-04-07T09:38:07Z</time>
      </trkpt>
      <trkpt lat="49.34503" lon="4.0715">
        <ele>136</ele>
        <time>2019-04-07T09:38:08Z</time>
      </trkpt>
      <trkpt lat="49.34503" lon="4.0715">
        <ele>136</ele>
        <time>2019-04-07T09:38:09Z</time>
      </trkpt>
      <trkpt lat="49.34503" lon="4.0715">
        <ele>136</ele>
        <time>2019-04-07T09:38:10Z</time>
      </trkpt>
      <trkpt lat="49.34503" lon="4.0715">
        <ele>136</ele>
        <time>2019-04-07T09:38:11Z</time>
      </trkpt>
      <trkpt lat="49.34503" lon="4.0715">
        <ele>136</ele>
        <time>2019-04-07T09:38:12Z</time>
      </trkpt>
      <trkpt lat="49.34503" lon="4.0715">
        <ele>136</ele>
        <time>2019-04-07T09:38:13Z</time>
      </trkpt>
      <trkpt lat="49.34502" lon="4.07151">
        <ele>135</ele>
        <time>2019-04-07T09:38:14Z</time>
      </trkpt>
      <trkpt lat="49.34502" lon="4.07151">
        <ele>135</ele>
        <time>2019-04-07T09:38:15Z</time>
      </trkpt>
      <trkpt lat="49.34502" lon="4.07151">
        <ele>135</ele>
        <time>2019-04-07T09:38:16Z</time>
      </trkpt>
      <trkpt lat="49.34502" lon="4.07151">
        <ele>135</ele>
        <time>2019-04-07T09:38:17Z</time>
      </trkpt>
      <trkpt lat="49.34502" lon="4.07151">
        <ele>135</ele>
        <time>2019-04-07T09:38:18Z</time>
      </trkpt>
      <trkpt lat="49.34502" lon="4.07151">
        <ele>135</ele>
        <time>2019-04-07T09:38:19Z</time>
      </trkpt>
      <trkpt lat="49.34502" lon="4.07151">
        <ele>135</ele>
        <time>2019-04-07T09:38:20Z</time>
      </trkpt>
      <trkpt lat="49.34502" lon="4.07151">
        <ele>135</ele>
        <time>2019-04-07T09:38:21Z</time>
      </trkpt>
      <trkpt lat="49.34502" lon="4.07151">
        <ele>135</ele>
        <time>2019-04-07T09:38:22Z</time>
      </trkpt>
      <trkpt lat="49.34502" lon="4.07151">
        <ele>135</ele>
        <time>2019-04-07T09:38:23Z</time>
      </trkpt>
      <trkpt lat="49.34502" lon="4.07151">
        <ele>135</ele>
        <time>2019-04-07T09:38:24Z</time>
      </trkpt>
      <trkpt lat="49.34502" lon="4.07151">
        <ele>135</ele>
        <time>2019-04-07T09:38:25Z</time>
      </trkpt>
      <trkpt lat="49.34502" lon="4.07151">
        <ele>135</ele>
        <time>2019-04-07T09:38:26Z</time>
      </trkpt>
      <trkpt lat="49.34502" lon="4.07151">
        <ele>135</ele>
        <time>2019-04-07T09:38:27Z</time>
      </trkpt>
      <trkpt lat="49.34502" lon="4.07151">
        <ele>135</ele>
        <time>2019-04-07T09:38:28Z</time>
      </trkpt>
      <trkpt lat="49.34502" lon="4.07151">
        <ele>135</ele>
        <time>2019-04-07T09:38:29Z</time>
      </trkpt>
      <trkpt lat="49.34502" lon="4.07151">
        <ele>135</ele>
        <time>2019-04-07T09:38:30Z</time>
      </trkpt>
      <trkpt lat="49.34502" lon="4.07151">
        <ele>135</ele>
        <time>2019-04-07T09:38:31Z</time>
      </trkpt>
      <trkpt lat="49.34502" lon="4.07151">
        <ele>135</ele>
        <time>2019-04-07T09:38:32Z</time>
      </trkpt>
      <trkpt lat="49.34502" lon="4.07151">
        <ele>135</ele>
        <time>2019-04-07T09:38:33Z</time>
      </trkpt>
      <trkpt lat="49.34502" lon="4.07151">
        <ele>135</ele>
        <time>2019-04-07T09:38:34Z</time>
      </trkpt>
      <trkpt lat="49.34502" lon="4.07151">
        <ele>135</ele>
        <time>2019-04-07T09:38:35Z</time>
      </trkpt>
      <trkpt lat="49.34502" lon="4.07151">
        <ele>135</ele>
        <time>2019-04-07T09:38:36Z</time>
      </trkpt>
      <trkpt lat="49.34502" lon="4.07151">
        <ele>135</ele>
        <time>2019-04-07T09:38:37Z</time>
      </trkpt>
      <trkpt lat="49.34502" lon="4.07152">
        <ele>135</ele>
        <time>2019-04-07T09:38:38Z</time>
      </trkpt>
      <trkpt lat="49.34502" lon="4.07153">
        <ele>135</ele>
        <time>2019-04-07T09:38:39Z</time>
      </trkpt>
      <trkpt lat="49.34502" lon="4.07154">
        <ele>135</ele>
        <time>2019-04-07T09:38:40Z</time>
      </trkpt>
      <trkpt lat="49.345" lon="4.07155">
        <ele>135</ele>
        <time>2019-04-07T09:38:41Z</time>
      </trkpt>
      <trkpt lat="49.34499" lon="4.07155">
        <ele>135</ele>
        <time>2019-04-07T09:38:42Z</time>
      </trkpt>
      <trkpt lat="49.34498" lon="4.07155">
        <ele>134</ele>
        <time>2019-04-07T09:38:43Z</time>
      </trkpt>
      <trkpt lat="49.34497" lon="4.07154">
        <ele>133</ele>
        <time>2019-04-07T09:38:44Z</time>
      </trkpt>
      <trkpt lat="49.34497" lon="4.07153">
        <ele>132</ele>
        <time>2019-04-07T09:38:45Z</time>
      </trkpt>
      <trkpt lat="49.34496" lon="4.07152">
        <ele>133</ele>
        <time>2019-04-07T09:38:46Z</time>
      </trkpt>
      <trkpt lat="49.34495" lon="4.07152">
        <ele>133</ele>
        <time>2019-04-07T09:38:47Z</time>
      </trkpt>
      <trkpt lat="49.34494" lon="4.07153">
        <ele>133</ele>
        <time>2019-04-07T09:38:48Z</time>
      </trkpt>
      <trkpt lat="49.34494" lon="4.07153">
        <ele>134</ele>
        <time>2019-04-07T09:38:49Z</time>
      </trkpt>
      <trkpt lat="49.34494" lon="4.07152">
        <ele>134</ele>
        <time>2019-04-07T09:38:50Z</time>
      </trkpt>
      <trkpt lat="49.34494" lon="4.07152">
        <ele>134</ele>
        <time>2019-04-07T09:38:51Z</time>
      </trkpt>
      <trkpt lat="49.34494" lon="4.07152">
        <ele>134</ele>
        <time>2019-04-07T09:38:52Z</time>
      </trkpt>
      <trkpt lat="49.34494" lon="4.07152">
        <ele>134</ele>
        <time>2019-04-07T09:38:53Z</time>
      </trkpt>
      <trkpt lat="49.34494" lon="4.07152">
        <ele>134</ele>
        <time>2019-04-07T09:38:54Z</time>
      </trkpt>
      <trkpt lat="49.34494" lon="4.07152">
        <ele>134</ele>
        <time>2019-04-07T09:38:55Z</time>
      </trkpt>
      <trkpt lat="49.34494" lon="4.07152">
        <ele>134</ele>
        <time>2019-04-07T09:38:56Z</time>
      </trkpt>
      <trkpt lat="49.34494" lon="4.07152">
        <ele>134</ele>
        <time>2019-04-07T09:38:57Z</time>
      </trkpt>
      <trkpt lat="49.34494" lon="4.07152">
        <ele>134</ele>
        <time>2019-04-07T09:38:58Z</time>
      </trkpt>
      <trkpt lat="49.34494" lon="4.07152">
        <ele>134</ele>
        <time>2019-04-07T09:38:59Z</time>
      </trkpt>
      <trkpt lat="49.34494" lon="4.07152">
        <ele>134</ele>
        <time>2019-04-07T09:39:00Z</time>
      </trkpt>
      <trkpt lat="49.34494" lon="4.07152">
        <ele>134</ele>
        <time>2019-04-07T09:39:01Z</time>
      </trkpt>
      <trkpt lat="49.34494" lon="4.07152">
        <ele>134</ele>
        <time>2019-04-07T09:39:02Z</time>
      </trkpt>
      <trkpt lat="49.34494" lon="4.07152">
        <ele>134</ele>
        <time>2019-04-07T09:39:03Z</time>
      </trkpt>
      <trkpt lat="49.34494" lon="4.07152">
        <ele>134</ele>
        <time>2019-04-07T09:39:04Z</time>
      </trkpt>
      <trkpt lat="49.34494" lon="4.07152">
        <ele>134</ele>
        <time>2019-04-07T09:39:05Z</time>
      </trkpt>
      <trkpt lat="49.34494" lon="4.07152">
        <ele>134</ele>
        <time>2019-04-07T09:39:06Z</time>
      </trkpt>
      <trkpt lat="49.34494" lon="4.07152">
        <ele>134</ele>
        <time>2019-04-07T09:39:07Z</time>
      </trkpt>
      <trkpt lat="49.34494" lon="4.07152">
        <ele>134</ele>
        <time>2019-04-07T09:39:08Z</time>
      </trkpt>
      <trkpt lat="49.34494" lon="4.07152">
        <ele>134</ele>
        <time>2019-04-07T09:39:09Z</time>
      </trkpt>
      <trkpt lat="49.34494" lon="4.07152">
        <ele>134</ele>
        <time>2019-04-07T09:39:10Z</time>
      </trkpt>
      <trkpt lat="49.34494" lon="4.07152">
        <ele>134</ele>
        <time>2019-04-07T09:39:11Z</time>
      </trkpt>
      <trkpt lat="49.34494" lon="4.07154">
        <ele>134</ele>
        <time>2019-04-07T09:39:12Z</time>
      </trkpt>
      <trkpt lat="49.34494" lon="4.07154">
        <ele>134</ele>
        <time>2019-04-07T09:39:13Z</time>
      </trkpt>
      <trkpt lat="49.34494" lon="4.07154">
        <ele>134</ele>
        <time>2019-04-07T09:39:14Z</time>
      </trkpt>
      <trkpt lat="49.34494" lon="4.07154">
        <ele>134</ele>
        <time>2019-04-07T09:39:15Z</time>
      </trkpt>
      <trkpt lat="49.34494" lon="4.07154">
        <ele>134</ele>
        <time>2019-04-07T09:39:16Z</time>
      </trkpt>
      <trkpt lat="49.34494" lon="4.07154">
        <ele>134</ele>
        <time>2019-04-07T09:39:17Z</time>
      </trkpt>
      <trkpt lat="49.34494" lon="4.07154">
        <ele>134</ele>
        <time>2019-04-07T09:39:18Z</time>
      </trkpt>
      <trkpt lat="49.34494" lon="4.07154">
        <ele>134</ele>
        <time>2019-04-07T09:39:19Z</time>
      </trkpt>
      <trkpt lat="49.34494" lon="4.07154">
        <ele>134</ele>
        <time>2019-04-07T09:39:20Z</time>
      </trkpt>
      <trkpt lat="49.34494" lon="4.07154">
        <ele>134</ele>
        <time>2019-04-07T09:39:21Z</time>
      </trkpt>
      <trkpt lat="49.34494" lon="4.07154">
        <ele>134</ele>
        <time>2019-04-07T09:39:22Z</time>
      </trkpt>
      <trkpt lat="49.34494" lon="4.07154">
        <ele>134</ele>
        <time>2019-04-07T09:39:23Z</time>
      </trkpt>
      <trkpt lat="49.34494" lon="4.07154">
        <ele>134</ele>
        <time>2019-04-07T09:39:24Z</time>
      </trkpt>
      <trkpt lat="49.34494" lon="4.07154">
        <ele>134</ele>
        <time>2019-04-07T09:39:25Z</time>
      </trkpt>
      <trkpt lat="49.34494" lon="4.07154">
        <ele>134</ele>
        <time>2019-04-07T09:39:26Z</time>
      </trkpt>
      <trkpt lat="49.34494" lon="4.07154">
        <ele>134</ele>
        <time>2019-04-07T09:39:27Z</time>
      </trkpt>
      <trkpt lat="49.34494" lon="4.07154">
        <ele>134</ele>
        <time>2019-04-07T09:39:28Z</time>
      </trkpt>
      <trkpt lat="49.34494" lon="4.07154">
        <ele>134</ele>
        <time>2019-04-07T09:39:29Z</time>
      </trkpt>
      <trkpt lat="49.34494" lon="4.07154">
        <ele>134</ele>
        <time>2019-04-07T09:39:30Z</time>
      </trkpt>
      <trkpt lat="49.34494" lon="4.07154">
        <ele>134</ele>
        <time>2019-04-07T09:39:31Z</time>
      </trkpt>
      <trkpt lat="49.34494" lon="4.07154">
        <ele>134</ele>
        <time>2019-04-07T09:39:32Z</time>
      </trkpt>
      <trkpt lat="49.34494" lon="4.07154">
        <ele>134</ele>
        <time>2019-04-07T09:39:33Z</time>
      </trkpt>
      <trkpt lat="49.34494" lon="4.07154">
        <ele>134</ele>
        <time>2019-04-07T09:39:34Z</time>
      </trkpt>
      <trkpt lat="49.34494" lon="4.07154">
        <ele>134</ele>
        <time>2019-04-07T09:39:35Z</time>
      </trkpt>
      <trkpt lat="49.34494" lon="4.07154">
        <ele>134</ele>
        <time>2019-04-07T09:39:36Z</time>
      </trkpt>
      <trkpt lat="49.34494" lon="4.07154">
        <ele>134</ele>
        <time>2019-04-07T09:39:37Z</time>
      </trkpt>
      <trkpt lat="49.34494" lon="4.07154">
        <ele>134</ele>
        <time>2019-04-07T09:39:38Z</time>
      </trkpt>
      <trkpt lat="49.34494" lon="4.07154">
        <ele>134</ele>
        <time>2019-04-07T09:39:39Z</time>
      </trkpt>
      <trkpt lat="49.34494" lon="4.07154">
        <ele>134</ele>
        <time>2019-04-07T09:39:40Z</time>
      </trkpt>
      <trkpt lat="49.34495" lon="4.07154">
        <ele>134</ele>
        <time>2019-04-07T09:39:41Z</time>
      </trkpt>
      <trkpt lat="49.34495" lon="4.07154">
        <ele>134</ele>
        <time>2019-04-07T09:39:42Z</time>
      </trkpt>
      <trkpt lat="49.34495" lon="4.07154">
        <ele>134</ele>
        <time>2019-04-07T09:39:43Z</time>
      </trkpt>
      <trkpt lat="49.34495" lon="4.07154">
        <ele>134</ele>
        <time>2019-04-07T09:39:44Z</time>
      </trkpt>
      <trkpt lat="49.34495" lon="4.07154">
        <ele>134</ele>
        <time>2019-04-07T09:39:45Z</time>
      </trkpt>
      <trkpt lat="49.34495" lon="4.07154">
        <ele>134</ele>
        <time>2019-04-07T09:39:46Z</time>
      </trkpt>
      <trkpt lat="49.34495" lon="4.07154">
        <ele>134</ele>
        <time>2019-04-07T09:39:47Z</time>
      </trkpt>
      <trkpt lat="49.34495" lon="4.07154">
        <ele>134</ele>
        <time>2019-04-07T09:39:48Z</time>
      </trkpt>
      <trkpt lat="49.34495" lon="4.07154">
        <ele>134</ele>
        <time>2019-04-07T09:39:49Z</time>
      </trkpt>
      <trkpt lat="49.34495" lon="4.07154">
        <ele>134</ele>
        <time>2019-04-07T09:39:50Z</time>
      </trkpt>
      <trkpt lat="49.34495" lon="4.07154">
        <ele>134</ele>
        <time>2019-04-07T09:39:51Z</time>
      </trkpt>
      <trkpt lat="49.34495" lon="4.07154">
        <ele>134</ele>
        <time>2019-04-07T09:39:52Z</time>
      </trkpt>
      <trkpt lat="49.34495" lon="4.07154">
        <ele>134</ele>
        <time>2019-04-07T09:39:53Z</time>
      </trkpt>
      <trkpt lat="49.34495" lon="4.07154">
        <ele>134</ele>
        <time>2019-04-07T09:39:54Z</time>
      </trkpt>
      <trkpt lat="49.34495" lon="4.07154">
        <ele>134</ele>
        <time>2019-04-07T09:39:55Z</time>
      </trkpt>
      <trkpt lat="49.34495" lon="4.07154">
        <ele>134</ele>
        <time>2019-04-07T09:39:56Z</time>
      </trkpt>
      <trkpt lat="49.34495" lon="4.07154">
        <ele>134</ele>
        <time>2019-04-07T09:39:57Z</time>
      </trkpt>
      <trkpt lat="49.34495" lon="4.07154">
        <ele>134</ele>
        <time>2019-04-07T09:39:58Z</time>
      </trkpt>
      <trkpt lat="49.34495" lon="4.07154">
        <ele>134</ele>
        <time>2019-04-07T09:39:59Z</time>
      </trkpt>
      <trkpt lat="49.34495" lon="4.07154">
        <ele>134</ele>
        <time>2019-04-07T09:40:00Z</time>
      </trkpt>
      <trkpt lat="49.34495" lon="4.07154">
        <ele>134</ele>
        <time>2019-04-07T09:40:01Z</time>
      </trkpt>
      <trkpt lat="49.34495" lon="4.07154">
        <ele>134</ele>
        <time>2019-04-07T09:40:02Z</time>
      </trkpt>
      <trkpt lat="49.34495" lon="4.07154">
        <ele>134</ele>
        <time>2019-04-07T09:40:03Z</time>
      </trkpt>
      <trkpt lat="49.34495" lon="4.07154">
        <ele>134</ele>
        <time>2019-04-07T09:40:04Z</time>
      </trkpt>
      <trkpt lat="49.34495" lon="4.07154">
        <ele>134</ele>
        <time>2019-04-07T09:40:05Z</time>
      </trkpt>
      <trkpt lat="49.34495" lon="4.07154">
        <ele>134</ele>
        <time>2019-04-07T09:40:06Z</time>
      </trkpt>
      <trkpt lat="49.34495" lon="4.07154">
        <ele>134</ele>
        <time>2019-04-07T09:40:07Z</time>
      </trkpt>
      <trkpt lat="49.34495" lon="4.07154">
        <ele>134</ele>
        <time>2019-04-07T09:40:08Z</time>
      </trkpt>
      <trkpt lat="49.34495" lon="4.07154">
        <ele>134</ele>
        <time>2019-04-07T09:40:09Z</time>
      </trkpt>
      <trkpt lat="49.34495" lon="4.07154">
        <ele>134</ele>
        <time>2019-04-07T09:40:10Z</time>
      </trkpt>
      <trkpt lat="49.34495" lon="4.07154">
        <ele>134</ele>
        <time>2019-04-07T09:40:11Z</time>
      </trkpt>
      <trkpt lat="49.34495" lon="4.07154">
        <ele>134</ele>
        <time>2019-04-07T09:40:12Z</time>
      </trkpt>
      <trkpt lat="49.34495" lon="4.07154">
        <ele>134</ele>
        <time>2019-04-07T09:40:13Z</time>
      </trkpt>
      <trkpt lat="49.34495" lon="4.07154">
        <ele>134</ele>
        <time>2019-04-07T09:40:14Z</time>
      </trkpt>
      <trkpt lat="49.34495" lon="4.07154">
        <ele>134</ele>
        <time>2019-04-07T09:40:15Z</time>
      </trkpt>
      <trkpt lat="49.34495" lon="4.07154">
        <ele>134</ele>
        <time>2019-04-07T09:40:16Z</time>
      </trkpt>
      <trkpt lat="49.34495" lon="4.07154">
        <ele>134</ele>
        <time>2019-04-07T09:40:17Z</time>
      </trkpt>
      <trkpt lat="49.34495" lon="4.07154">
        <ele>134</ele>
        <time>2019-04-07T09:40:18Z</time>
      </trkpt>
      <trkpt lat="49.34495" lon="4.07154">
        <ele>134</ele>
        <time>2019-04-07T09:40:19Z</time>
      </trkpt>
      <trkpt lat="49.34495" lon="4.07154">
        <ele>134</ele>
        <time>2019-04-07T09:40:20Z</time>
      </trkpt>
      <trkpt lat="49.34495" lon="4.07154">
        <ele>134</ele>
        <time>2019-04-07T09:40:21Z</time>
      </trkpt>
      <trkpt lat="49.34495" lon="4.07154">
        <ele>134</ele>
        <time>2019-04-07T09:40:22Z</time>
      </trkpt>
      <trkpt lat="49.34495" lon="4.07154">
        <ele>134</ele>
        <time>2019-04-07T09:40:23Z</time>
      </trkpt>
      <trkpt lat="49.34495" lon="4.07154">
        <ele>134</ele>
        <time>2019-04-07T09:40:24Z</time>
      </trkpt>
      <trkpt lat="49.34495" lon="4.07154">
        <ele>134</ele>
        <time>2019-04-07T09:40:25Z</time>
      </trkpt>
      <trkpt lat="49.34495" lon="4.07154">
        <ele>134</ele>
        <time>2019-04-07T09:40:26Z</time>
      </trkpt>
      <trkpt lat="49.34495" lon="4.07154">
        <ele>134</ele>
        <time>2019-04-07T09:40:27Z</time>
      </trkpt>
      <trkpt lat="49.34495" lon="4.07154">
        <ele>134</ele>
        <time>2019-04-07T09:40:28Z</time>
      </trkpt>
      <trkpt lat="49.34495" lon="4.07154">
        <ele>134</ele>
        <time>2019-04-07T09:40:29Z</time>
      </trkpt>
      <trkpt lat="49.34495" lon="4.07154">
        <ele>134</ele>
        <time>2019-04-07T09:40:30Z</time>
      </trkpt>
      <trkpt lat="49.34495" lon="4.07154">
        <ele>134</ele>
        <time>2019-04-07T09:40:31Z</time>
      </trkpt>
      <trkpt lat="49.34495" lon="4.07154">
        <ele>134</ele>
        <time>2019-04-07T09:40:32Z</time>
      </trkpt>
      <trkpt lat="49.34495" lon="4.07154">
        <ele>134</ele>
        <time>2019-04-07T09:40:33Z</time>
      </trkpt>
      <trkpt lat="49.34495" lon="4.07154">
        <ele>134</ele>
        <time>2019-04-07T09:40:34Z</time>
      </trkpt>
      <trkpt lat="49.34495" lon="4.07154">
        <ele>134</ele>
        <time>2019-04-07T09:40:35Z</time>
      </trkpt>
      <trkpt lat="49.34495" lon="4.07154">
        <ele>134</ele>
        <time>2019-04-07T09:40:36Z</time>
      </trkpt>
      <trkpt lat="49.34495" lon="4.07154">
        <ele>134</ele>
        <time>2019-04-07T09:40:37Z</time>
      </trkpt>
      <trkpt lat="49.34495" lon="4.07154">
        <ele>134</ele>
        <time>2019-04-07T09:40:38Z</time>
      </trkpt>
      <trkpt lat="49.34495" lon="4.07154">
        <ele>134</ele>
        <time>2019-04-07T09:40:39Z</time>
      </trkpt>
      <trkpt lat="49.34495" lon="4.07154">
        <ele>134</ele>
        <time>2019-04-07T09:40:40Z</time>
      </trkpt>
      <trkpt lat="49.34495" lon="4.07154">
        <ele>134</ele>
        <time>2019-04-07T09:40:41Z</time>
      </trkpt>
      <trkpt lat="49.34495" lon="4.07154">
        <ele>134</ele>
        <time>2019-04-07T09:40:42Z</time>
      </trkpt>
      <trkpt lat="49.34495" lon="4.07154">
        <ele>134</ele>
        <time>2019-04-07T09:40:43Z</time>
      </trkpt>
      <trkpt lat="49.34495" lon="4.07154">
        <ele>134</ele>
        <time>2019-04-07T09:40:44Z</time>
      </trkpt>
      <trkpt lat="49.34495" lon="4.07154">
        <ele>134</ele>
        <time>2019-04-07T09:40:45Z</time>
      </trkpt>
      <trkpt lat="49.34495" lon="4.07154">
        <ele>134</ele>
        <time>2019-04-07T09:40:46Z</time>
      </trkpt>
      <trkpt lat="49.34495" lon="4.07154">
        <ele>134</ele>
        <time>2019-04-07T09:40:47Z</time>
      </trkpt>
      <trkpt lat="49.34495" lon="4.07154">
        <ele>134</ele>
        <time>2019-04-07T09:40:48Z</time>
      </trkpt>
      <trkpt lat="49.34495" lon="4.07154">
        <ele>134</ele>
        <time>2019-04-07T09:40:49Z</time>
      </trkpt>
      <trkpt lat="49.34495" lon="4.07154">
        <ele>134</ele>
        <time>2019-04-07T09:40:50Z</time>
      </trkpt>
      <trkpt lat="49.34495" lon="4.07154">
        <ele>134</ele>
        <time>2019-04-07T09:40:51Z</time>
      </trkpt>
      <trkpt lat="49.34495" lon="4.07154">
        <ele>134</ele>
        <time>2019-04-07T09:40:52Z</time>
      </trkpt>
      <trkpt lat="49.34495" lon="4.07154">
        <ele>134</ele>
        <time>2019-04-07T09:40:53Z</time>
      </trkpt>
      <trkpt lat="49.34495" lon="4.07154">
        <ele>134</ele>
        <time>2019-04-07T09:40:54Z</time>
      </trkpt>
      <trkpt lat="49.34495" lon="4.07154">
        <ele>134</ele>
        <time>2019-04-07T09:40:55Z</time>
      </trkpt>
      <trkpt lat="49.34495" lon="4.07154">
        <ele>134</ele>
        <time>2019-04-07T09:40:56Z</time>
      </trkpt>
      <trkpt lat="49.34495" lon="4.07154">
        <ele>134</ele>
        <time>2019-04-07T09:40:57Z</time>
      </trkpt>
      <trkpt lat="49.34495" lon="4.07154">
        <ele>134</ele>
        <time>2019-04-07T09:40:58Z</time>
      </trkpt>
      <trkpt lat="49.34495" lon="4.07154">
        <ele>134</ele>
        <time>2019-04-07T09:40:59Z</time>
      </trkpt>
      <trkpt lat="49.34495" lon="4.07154">
        <ele>134</ele>
        <time>2019-04-07T09:41:00Z</time>
      </trkpt>
      <trkpt lat="49.34495" lon="4.07154">
        <ele>134</ele>
        <time>2019-04-07T09:41:01Z</time>
      </trkpt>
      <trkpt lat="49.34495" lon="4.07154">
        <ele>134</ele>
        <time>2019-04-07T09:41:02Z</time>
      </trkpt>
      <trkpt lat="49.34495" lon="4.07154">
        <ele>134</ele>
        <time>2019-04-07T09:41:03Z</time>
      </trkpt>
      <trkpt lat="49.34495" lon="4.07154">
        <ele>134</ele>
        <time>2019-04-07T09:41:04Z</time>
      </trkpt>
      <trkpt lat="49.34495" lon="4.07154">
        <ele>134</ele>
        <time>2019-04-07T09:41:05Z</time>
      </trkpt>
      <trkpt lat="49.34495" lon="4.07154">
        <ele>134</ele>
        <time>2019-04-07T09:41:06Z</time>
      </trkpt>
      <trkpt lat="49.34495" lon="4.07154">
        <ele>134</ele>
        <time>2019-04-07T09:41:07Z</time>
      </trkpt>
      <trkpt lat="49.34495" lon="4.07154">
        <ele>134</ele>
        <time>2019-04-07T09:41:08Z</time>
      </trkpt>
      <trkpt lat="49.34495" lon="4.07154">
        <ele>134</ele>
        <time>2019-04-07T09:41:09Z</time>
      </trkpt>
      <trkpt lat="49.34495" lon="4.07154">
        <ele>134</ele>
        <time>2019-04-07T09:41:10Z</time>
      </trkpt>
      <trkpt lat="49.34495" lon="4.07154">
        <ele>134</ele>
        <time>2019-04-07T09:41:11Z</time>
      </trkpt>
      <trkpt lat="49.34495" lon="4.07154">
        <ele>134</ele>
        <time>2019-04-07T09:41:12Z</time>
      </trkpt>
      <trkpt lat="49.34495" lon="4.07154">
        <ele>134</ele>
        <time>2019-04-07T09:41:13Z</time>
      </trkpt>
      <trkpt lat="49.34495" lon="4.07154">
        <ele>134</ele>
        <time>2019-04-07T09:41:14Z</time>
      </trkpt>
      <trkpt lat="49.34495" lon="4.07154">
        <ele>134</ele>
        <time>2019-04-07T09:41:15Z</time>
      </trkpt>
      <trkpt lat="49.34495" lon="4.07154">
        <ele>134</ele>
        <time>2019-04-07T09:41:16Z</time>
      </trkpt>
      <trkpt lat="49.34495" lon="4.07154">
        <ele>134</ele>
        <time>2019-04-07T09:41:17Z</time>
      </trkpt>
      <trkpt lat="49.34495" lon="4.07154">
        <ele>134</ele>
        <time>2019-04-07T09:41:18Z</time>
      </trkpt>
      <trkpt lat="49.34495" lon="4.07154">
        <ele>134</ele>
        <time>2019-04-07T09:41:19Z</time>
      </trkpt>
      <trkpt lat="49.34495" lon="4.07154">
        <ele>134</ele>
        <time>2019-04-07T09:41:20Z</time>
      </trkpt>
      <trkpt lat="49.34495" lon="4.07154">
        <ele>134</ele>
        <time>2019-04-07T09:41:21Z</time>
      </trkpt>
      <trkpt lat="49.34495" lon="4.07154">
        <ele>134</ele>
        <time>2019-04-07T09:41:22Z</time>
      </trkpt>
      <trkpt lat="49.34495" lon="4.07154">
        <ele>134</ele>
        <time>2019-04-07T09:41:23Z</time>
      </trkpt>
      <trkpt lat="49.34495" lon="4.07154">
        <ele>134</ele>
        <time>2019-04-07T09:41:24Z</time>
      </trkpt>
      <trkpt lat="49.34495" lon="4.07154">
        <ele>134</ele>
        <time>2019-04-07T09:41:25Z</time>
      </trkpt>
      <trkpt lat="49.34495" lon="4.07154">
        <ele>134</ele>
        <time>2019-04-07T09:41:26Z</time>
      </trkpt>
      <trkpt lat="49.34495" lon="4.07154">
        <ele>134</ele>
        <time>2019-04-07T09:41:27Z</time>
      </trkpt>
      <trkpt lat="49.34495" lon="4.07154">
        <ele>134</ele>
        <time>2019-04-07T09:41:28Z</time>
      </trkpt>
      <trkpt lat="49.34495" lon="4.07154">
        <ele>134</ele>
        <time>2019-04-07T09:41:29Z</time>
      </trkpt>
      <trkpt lat="49.34495" lon="4.07154">
        <ele>134</ele>
        <time>2019-04-07T09:41:30Z</time>
      </trkpt>
      <trkpt lat="49.34495" lon="4.07154">
        <ele>134</ele>
        <time>2019-04-07T09:41:31Z</time>
      </trkpt>
      <trkpt lat="49.34495" lon="4.07154">
        <ele>134</ele>
        <time>2019-04-07T09:41:32Z</time>
      </trkpt>
      <trkpt lat="49.34495" lon="4.07154">
        <ele>134</ele>
        <time>2019-04-07T09:41:33Z</time>
      </trkpt>
      <trkpt lat="49.34495" lon="4.07154">
        <ele>134</ele>
        <time>2019-04-07T09:41:34Z</time>
      </trkpt>
      <trkpt lat="49.34495" lon="4.07154">
        <ele>134</ele>
        <time>2019-04-07T09:41:35Z</time>
      </trkpt>
      <trkpt lat="49.34495" lon="4.07154">
        <ele>134</ele>
        <time>2019-04-07T09:41:36Z</time>
      </trkpt>
      <trkpt lat="49.34495" lon="4.07154">
        <ele>134</ele>
        <time>2019-04-07T09:41:37Z</time>
      </trkpt>
      <trkpt lat="49.34495" lon="4.07154">
        <ele>134</ele>
        <time>2019-04-07T09:41:38Z</time>
      </trkpt>
      <trkpt lat="49.34495" lon="4.07154">
        <ele>134</ele>
        <time>2019-04-07T09:41:39Z</time>
      </trkpt>
      <trkpt lat="49.34495" lon="4.07154">
        <ele>134</ele>
        <time>2019-04-07T09:41:40Z</time>
      </trkpt>
      <trkpt lat="49.34495" lon="4.07154">
        <ele>134</ele>
        <time>2019-04-07T09:41:41Z</time>
      </trkpt>
      <trkpt lat="49.34495" lon="4.07154">
        <ele>134</ele>
        <time>2019-04-07T09:41:42Z</time>
      </trkpt>
      <trkpt lat="49.34495" lon="4.07154">
        <ele>134</ele>
        <time>2019-04-07T09:41:43Z</time>
      </trkpt>
      <trkpt lat="49.34495" lon="4.07154">
        <ele>134</ele>
        <time>2019-04-07T09:41:44Z</time>
      </trkpt>
      <trkpt lat="49.34495" lon="4.07154">
        <ele>134</ele>
        <time>2019-04-07T09:41:45Z</time>
      </trkpt>
      <trkpt lat="49.34495" lon="4.07154">
        <ele>134</ele>
        <time>2019-04-07T09:41:46Z</time>
      </trkpt>
      <trkpt lat="49.34495" lon="4.07154">
        <ele>134</ele>
        <time>2019-04-07T09:41:47Z</time>
      </trkpt>
      <trkpt lat="49.34495" lon="4.07154">
        <ele>134</ele>
        <time>2019-04-07T09:41:48Z</time>
      </trkpt>
      <trkpt lat="49.34495" lon="4.07154">
        <ele>134</ele>
        <time>2019-04-07T09:41:49Z</time>
      </trkpt>
      <trkpt lat="49.34495" lon="4.07154">
        <ele>134</ele>
        <time>2019-04-07T09:41:50Z</time>
      </trkpt>
      <trkpt lat="49.34495" lon="4.07154">
        <ele>134</ele>
        <time>2019-04-07T09:41:51Z</time>
      </trkpt>
      <trkpt lat="49.34495" lon="4.07154">
        <ele>134</ele>
        <time>2019-04-07T09:41:52Z</time>
      </trkpt>
      <trkpt lat="49.34495" lon="4.07154">
        <ele>134</ele>
        <time>2019-04-07T09:41:53Z</time>
      </trkpt>
      <trkpt lat="49.34495" lon="4.07154">
        <ele>134</ele>
        <time>2019-04-07T09:41:54Z</time>
      </trkpt>
      <trkpt lat="49.34495" lon="4.07154">
        <ele>134</ele>
        <time>2019-04-07T09:41:55Z</time>
      </trkpt>
      <trkpt lat="49.34495" lon="4.07154">
        <ele>134</ele>
        <time>2019-04-07T09:41:56Z</time>
      </trkpt>
      <trkpt lat="49.34495" lon="4.07154">
        <ele>134</ele>
        <time>2019-04-07T09:41:57Z</time>
      </trkpt>
      <trkpt lat="49.34495" lon="4.07154">
        <ele>134</ele>
        <time>2019-04-07T09:41:58Z</time>
      </trkpt>
      <trkpt lat="49.34495" lon="4.07154">
        <ele>134</ele>
        <time>2019-04-07T09:41:59Z</time>
      </trkpt>
      <trkpt lat="49.34495" lon="4.07154">
        <ele>134</ele>
        <time>2019-04-07T09:42:00Z</time>
      </trkpt>
      <trkpt lat="49.34495" lon="4.07154">
        <ele>134</ele>
        <time>2019-04-07T09:42:01Z</time>
      </trkpt>
      <trkpt lat="49.34495" lon="4.07154">
        <ele>134</ele>
        <time>2019-04-07T09:42:02Z</time>
      </trkpt>
      <trkpt lat="49.34495" lon="4.07154">
        <ele>134</ele>
        <time>2019-04-07T09:42:03Z</time>
      </trkpt>
      <trkpt lat="49.34495" lon="4.07154">
        <ele>134</ele>
        <time>2019-04-07T09:42:04Z</time>
      </trkpt>
      <trkpt lat="49.34495" lon="4.07154">
        <ele>134</ele>
        <time>2019-04-07T09:42:05Z</time>
      </trkpt>
      <trkpt lat="49.34495" lon="4.07154">
        <ele>134</ele>
        <time>2019-04-07T09:42:06Z</time>
      </trkpt>
      <trkpt lat="49.34495" lon="4.07154">
        <ele>134</ele>
        <time>2019-04-07T09:42:07Z</time>
      </trkpt>
      <trkpt lat="49.34495" lon="4.07154">
        <ele>134</ele>
        <time>2019-04-07T09:42:08Z</time>
      </trkpt>
      <trkpt lat="49.34495" lon="4.07154">
        <ele>134</ele>
        <time>2019-04-07T09:42:09Z</time>
      </trkpt>
      <trkpt lat="49.34495" lon="4.07154">
        <ele>134</ele>
        <time>2019-04-07T09:42:10Z</time>
      </trkpt>
      <trkpt lat="49.34495" lon="4.07154">
        <ele>134</ele>
        <time>2019-04-07T09:42:11Z</time>
      </trkpt>
      <trkpt lat="49.34495" lon="4.07154">
        <ele>134</ele>
        <time>2019-04-07T09:42:12Z</time>
      </trkpt>
      <trkpt lat="49.34495" lon="4.07154">
        <ele>134</ele>
        <time>2019-04-07T09:42:13Z</time>
      </trkpt>
      <trkpt lat="49.34495" lon="4.07154">
        <ele>134</ele>
        <time>2019-04-07T09:42:14Z</time>
      </trkpt>
      <trkpt lat="49.34495" lon="4.07154">
        <ele>134</ele>
        <time>2019-04-07T09:42:15Z</time>
      </trkpt>
      <trkpt lat="49.34495" lon="4.07154">
        <ele>134</ele>
        <time>2019-04-07T09:42:16Z</time>
      </trkpt>
      <trkpt lat="49.34495" lon="4.07154">
        <ele>134</ele>
        <time>2019-04-07T09:42:17Z</time>
      </trkpt>
      <trkpt lat="49.34495" lon="4.07154">
        <ele>134</ele>
        <time>2019-04-07T09:42:18Z</time>
      </trkpt>
      <trkpt lat="49.34495" lon="4.07154">
        <ele>134</ele>
        <time>2019-04-07T09:42:19Z</time>
      </trkpt>
      <trkpt lat="49.34495" lon="4.07154">
        <ele>134</ele>
        <time>2019-04-07T09:42:20Z</time>
      </trkpt>
      <trkpt lat="49.34495" lon="4.07154">
        <ele>134</ele>
        <time>2019-04-07T09:42:21Z</time>
      </trkpt>
      <trkpt lat="49.34495" lon="4.07154">
        <ele>134</ele>
        <time>2019-04-07T09:42:22Z</time>
      </trkpt>
      <trkpt lat="49.34495" lon="4.07154">
        <ele>134</ele>
        <time>2019-04-07T09:42:23Z</time>
      </trkpt>
      <trkpt lat="49.34495" lon="4.07154">
        <ele>134</ele>
        <time>2019-04-07T09:42:24Z</time>
      </trkpt>
      <trkpt lat="49.34495" lon="4.07154">
        <ele>134</ele>
        <time>2019-04-07T09:42:25Z</time>
      </trkpt>
      <trkpt lat="49.34495" lon="4.07154">
        <ele>134</ele>
        <time>2019-04-07T09:42:26Z</time>
      </trkpt>
      <trkpt lat="49.34495" lon="4.07154">
        <ele>134</ele>
        <time>2019-04-07T09:42:27Z</time>
      </trkpt>
      <trkpt lat="49.34495" lon="4.07154">
        <ele>134</ele>
        <time>2019-04-07T09:42:28Z</time>
      </trkpt>
      <trkpt lat="49.34495" lon="4.07154">
        <ele>134</ele>
        <time>2019-04-07T09:42:29Z</time>
      </trkpt>
      <trkpt lat="49.34495" lon="4.07154">
        <ele>134</ele>
        <time>2019-04-07T09:42:30Z</time>
      </trkpt>
      <trkpt lat="49.34495" lon="4.07154">
        <ele>134</ele>
        <time>2019-04-07T09:42:31Z</time>
      </trkpt>
      <trkpt lat="49.34495" lon="4.07154">
        <ele>134</ele>
        <time>2019-04-07T09:42:32Z</time>
      </trkpt>
      <trkpt lat="49.34495" lon="4.07154">
        <ele>134</ele>
        <time>2019-04-07T09:42:33Z</time>
      </trkpt>
      <trkpt lat="49.34495" lon="4.07154">
        <ele>134</ele>
        <time>2019-04-07T09:42:34Z</time>
      </trkpt>
      <trkpt lat="49.34495" lon="4.07154">
        <ele>134</ele>
        <time>2019-04-07T09:42:35Z</time>
      </trkpt>
      <trkpt lat="49.34495" lon="4.07154">
        <ele>134</ele>
        <time>2019-04-07T09:42:36Z</time>
      </trkpt>
      <trkpt lat="49.34495" lon="4.07154">
        <ele>134</ele>
        <time>2019-04-07T09:42:37Z</time>
      </trkpt>
      <trkpt lat="49.34495" lon="4.07154">
        <ele>134</ele>
        <time>2019-04-07T09:42:38Z</time>
      </trkpt>
      <trkpt lat="49.34495" lon="4.07154">
        <ele>134</ele>
        <time>2019-04-07T09:42:39Z</time>
      </trkpt>
      <trkpt lat="49.34495" lon="4.07154">
        <ele>134</ele>
        <time>2019-04-07T09:42:40Z</time>
      </trkpt>
      <trkpt lat="49.34495" lon="4.07154">
        <ele>134</ele>
        <time>2019-04-07T09:42:41Z</time>
      </trkpt>
      <trkpt lat="49.34495" lon="4.07154">
        <ele>134</ele>
        <time>2019-04-07T09:42:42Z</time>
      </trkpt>
      <trkpt lat="49.34495" lon="4.07154">
        <ele>134</ele>
        <time>2019-04-07T09:42:43Z</time>
      </trkpt>
      <trkpt lat="49.34495" lon="4.07154">
        <ele>134</ele>
        <time>2019-04-07T09:42:44Z</time>
      </trkpt>
      <trkpt lat="49.34495" lon="4.07154">
        <ele>134</ele>
        <time>2019-04-07T09:42:45Z</time>
      </trkpt>
      <trkpt lat="49.34495" lon="4.07154">
        <ele>134</ele>
        <time>2019-04-07T09:42:46Z</time>
      </trkpt>
      <trkpt lat="49.34495" lon="4.07154">
        <ele>134</ele>
        <time>2019-04-07T09:42:47Z</time>
      </trkpt>
      <trkpt lat="49.34495" lon="4.07154">
        <ele>134</ele>
        <time>2019-04-07T09:42:48Z</time>
      </trkpt>
      <trkpt lat="49.34495" lon="4.07154">
        <ele>134</ele>
        <time>2019-04-07T09:42:49Z</time>
      </trkpt>
      <trkpt lat="49.34495" lon="4.07154">
        <ele>134</ele>
        <time>2019-04-07T09:42:50Z</time>
      </trkpt>
      <trkpt lat="49.34495" lon="4.07154">
        <ele>134</ele>
        <time>2019-04-07T09:42:51Z</time>
      </trkpt>
      <trkpt lat="49.34495" lon="4.07154">
        <ele>134</ele>
        <time>2019-04-07T09:42:52Z</time>
      </trkpt>
      <trkpt lat="49.34495" lon="4.07154">
        <ele>134</ele>
        <time>2019-04-07T09:42:53Z</time>
      </trkpt>
      <trkpt lat="49.34495" lon="4.07154">
        <ele>134</ele>
        <time>2019-04-07T09:42:54Z</time>
      </trkpt>
      <trkpt lat="49.34495" lon="4.07154">
        <ele>134</ele>
        <time>2019-04-07T09:42:55Z</time>
      </trkpt>
      <trkpt lat="49.34495" lon="4.07154">
        <ele>134</ele>
        <time>2019-04-07T09:42:56Z</time>
      </trkpt>
      <trkpt lat="49.34495" lon="4.07154">
        <ele>134</ele>
        <time>2019-04-07T09:42:57Z</time>
      </trkpt>
      <trkpt lat="49.34495" lon="4.07154">
        <ele>134</ele>
        <time>2019-04-07T09:42:58Z</time>
      </trkpt>
      <trkpt lat="49.34494" lon="4.07154">
        <ele>134</ele>
        <time>2019-04-07T09:42:59Z</time>
      </trkpt>
      <trkpt lat="49.34494" lon="4.07154">
        <ele>134</ele>
        <time>2019-04-07T09:43:00Z</time>
      </trkpt>
      <trkpt lat="49.34494" lon="4.07154">
        <ele>134</ele>
        <time>2019-04-07T09:43:01Z</time>
      </trkpt>
      <trkpt lat="49.34494" lon="4.07154">
        <ele>134</ele>
        <time>2019-04-07T09:43:02Z</time>
      </trkpt>
      <trkpt lat="49.34494" lon="4.07154">
        <ele>134</ele>
        <time>2019-04-07T09:43:03Z</time>
      </trkpt>
      <trkpt lat="49.34494" lon="4.07154">
        <ele>134</ele>
        <time>2019-04-07T09:43:04Z</time>
      </trkpt>
      <trkpt lat="49.34494" lon="4.07154">
        <ele>134</ele>
        <time>2019-04-07T09:43:05Z</time>
      </trkpt>
      <trkpt lat="49.34494" lon="4.07154">
        <ele>134</ele>
        <time>2019-04-07T09:43:06Z</time>
      </trkpt>
      <trkpt lat="49.34494" lon="4.07154">
        <ele>134</ele>
        <time>2019-04-07T09:43:07Z</time>
      </trkpt>
      <trkpt lat="49.34494" lon="4.07154">
        <ele>134</ele>
        <time>2019-04-07T09:43:08Z</time>
      </trkpt>
      <trkpt lat="49.34494" lon="4.07154">
        <ele>134</ele>
        <time>2019-04-07T09:43:09Z</time>
      </trkpt>
      <trkpt lat="49.34494" lon="4.07154">
        <ele>134</ele>
        <time>2019-04-07T09:43:10Z</time>
      </trkpt>
      <trkpt lat="49.34494" lon="4.07154">
        <ele>134</ele>
        <time>2019-04-07T09:43:11Z</time>
      </trkpt>
      <trkpt lat="49.34494" lon="4.07154">
        <ele>134</ele>
        <time>2019-04-07T09:43:12Z</time>
      </trkpt>
      <trkpt lat="49.34494" lon="4.07154">
        <ele>134</ele>
        <time>2019-04-07T09:43:13Z</time>
      </trkpt>
      <trkpt lat="49.34494" lon="4.07154">
        <ele>134</ele>
        <time>2019-04-07T09:43:14Z</time>
      </trkpt>
      <trkpt lat="49.34494" lon="4.07154">
        <ele>134</ele>
        <time>2019-04-07T09:43:15Z</time>
      </trkpt>
      <trkpt lat="49.34494" lon="4.07154">
        <ele>134</ele>
        <time>2019-04-07T09:43:16Z</time>
      </trkpt>
      <trkpt lat="49.34494" lon="4.07154">
        <ele>134</ele>
        <time>2019-04-07T09:43:17Z</time>
      </trkpt>
      <trkpt lat="49.34494" lon="4.07154">
        <ele>134</ele>
        <time>2019-04-07T09:43:18Z</time>
      </trkpt>
      <trkpt lat="49.34494" lon="4.07154">
        <ele>134</ele>
        <time>2019-04-07T09:43:19Z</time>
      </trkpt>
      <trkpt lat="49.34494" lon="4.07154">
        <ele>134</ele>
        <time>2019-04-07T09:43:20Z</time>
      </trkpt>
      <trkpt lat="49.34494" lon="4.07154">
        <ele>134</ele>
        <time>2019-04-07T09:43:21Z</time>
      </trkpt>
      <trkpt lat="49.34494" lon="4.07154">
        <ele>134</ele>
        <time>2019-04-07T09:43:22Z</time>
      </trkpt>
      <trkpt lat="49.34494" lon="4.07154">
        <ele>134</ele>
        <time>2019-04-07T09:43:23Z</time>
      </trkpt>
      <trkpt lat="49.34494" lon="4.07154">
        <ele>134</ele>
        <time>2019-04-07T09:43:24Z</time>
      </trkpt>
      <trkpt lat="49.34494" lon="4.07154">
        <ele>134</ele>
        <time>2019-04-07T09:43:25Z</time>
      </trkpt>
      <trkpt lat="49.34494" lon="4.07154">
        <ele>134</ele>
        <time>2019-04-07T09:43:26Z</time>
      </trkpt>
      <trkpt lat="49.34494" lon="4.07154">
        <ele>134</ele>
        <time>2019-04-07T09:43:27Z</time>
      </trkpt>
      <trkpt lat="49.34494" lon="4.07154">
        <ele>134</ele>
        <time>2019-04-07T09:43:28Z</time>
      </trkpt>
      <trkpt lat="49.34494" lon="4.07154">
        <ele>134</ele>
        <time>2019-04-07T09:43:29Z</time>
      </trkpt>
      <trkpt lat="49.34494" lon="4.07154">
        <ele>134</ele>
        <time>2019-04-07T09:43:30Z</time>
      </trkpt>
      <trkpt lat="49.34494" lon="4.07154">
        <ele>134</ele>
        <time>2019-04-07T09:43:31Z</time>
      </trkpt>
      <trkpt lat="49.34494" lon="4.07154">
        <ele>134</ele>
        <time>2019-04-07T09:43:32Z</time>
      </trkpt>
      <trkpt lat="49.34494" lon="4.07154">
        <ele>134</ele>
        <time>2019-04-07T09:43:33Z</time>
      </trkpt>
      <trkpt lat="49.34494" lon="4.07154">
        <ele>134</ele>
        <time>2019-04-07T09:43:34Z</time>
      </trkpt>
      <trkpt lat="49.34494" lon="4.07154">
        <ele>134</ele>
        <time>2019-04-07T09:43:35Z</time>
      </trkpt>
      <trkpt lat="49.34494" lon="4.07154">
        <ele>134</ele>
        <time>2019-04-07T09:43:36Z</time>
      </trkpt>
      <trkpt lat="49.34494" lon="4.07154">
        <ele>134</ele>
        <time>2019-04-07T09:43:37Z</time>
      </trkpt>
      <trkpt lat="49.34494" lon="4.07154">
        <ele>134</ele>
        <time>2019-04-07T09:43:38Z</time>
      </trkpt>
      <trkpt lat="49.34494" lon="4.07154">
        <ele>134</ele>
        <time>2019-04-07T09:43:39Z</time>
      </trkpt>
      <trkpt lat="49.34494" lon="4.07154">
        <ele>134</ele>
        <time>2019-04-07T09:43:40Z</time>
      </trkpt>
      <trkpt lat="49.34494" lon="4.07154">
        <ele>134</ele>
        <time>2019-04-07T09:43:41Z</time>
      </trkpt>
      <trkpt lat="49.34494" lon="4.07154">
        <ele>134</ele>
        <time>2019-04-07T09:43:42Z</time>
      </trkpt>
      <trkpt lat="49.34494" lon="4.07154">
        <ele>134</ele>
        <time>2019-04-07T09:43:43Z</time>
      </trkpt>
      <trkpt lat="49.34494" lon="4.07154">
        <ele>134</ele>
        <time>2019-04-07T09:43:44Z</time>
      </trkpt>
      <trkpt lat="49.34494" lon="4.07154">
        <ele>134</ele>
        <time>2019-04-07T09:43:45Z</time>
      </trkpt>
      <trkpt lat="49.34494" lon="4.07154">
        <ele>134</ele>
        <time>2019-04-07T09:43:46Z</time>
      </trkpt>
      <trkpt lat="49.34494" lon="4.07154">
        <ele>134</ele>
        <time>2019-04-07T09:43:47Z</time>
      </trkpt>
      <trkpt lat="49.34494" lon="4.07154">
        <ele>134</ele>
        <time>2019-04-07T09:43:48Z</time>
      </trkpt>
      <trkpt lat="49.34494" lon="4.07154">
        <ele>134</ele>
        <time>2019-04-07T09:43:49Z</time>
      </trkpt>
      <trkpt lat="49.34494" lon="4.07154">
        <ele>134</ele>
        <time>2019-04-07T09:43:50Z</time>
      </trkpt>
      <trkpt lat="49.34494" lon="4.07154">
        <ele>134</ele>
        <time>2019-04-07T09:43:51Z</time>
      </trkpt>
      <trkpt lat="49.34494" lon="4.07154">
        <ele>134</ele>
        <time>2019-04-07T09:43:52Z</time>
      </trkpt>
      <trkpt lat="49.34494" lon="4.07154">
        <ele>134</ele>
        <time>2019-04-07T09:43:53Z</time>
      </trkpt>
      <trkpt lat="49.34494" lon="4.07154">
        <ele>134</ele>
        <time>2019-04-07T09:43:54Z</time>
      </trkpt>
      <trkpt lat="49.34494" lon="4.07154">
        <ele>134</ele>
        <time>2019-04-07T09:43:55Z</time>
      </trkpt>
      <trkpt lat="49.34494" lon="4.07154">
        <ele>134</ele>
        <time>2019-04-07T09:43:56Z</time>
      </trkpt>
      <trkpt lat="49.34494" lon="4.07154">
        <ele>134</ele>
        <time>2019-04-07T09:43:57Z</time>
      </trkpt>
      <trkpt lat="49.34494" lon="4.07154">
        <ele>134</ele>
        <time>2019-04-07T09:43:58Z</time>
      </trkpt>
      <trkpt lat="49.34494" lon="4.07154">
        <ele>134</ele>
        <time>2019-04-07T09:43:59Z</time>
      </trkpt>
      <trkpt lat="49.34494" lon="4.07154">
        <ele>134</ele>
        <time>2019-04-07T09:44:00Z</time>
      </trkpt>
      <trkpt lat="49.34494" lon="4.07154">
        <ele>134</ele>
        <time>2019-04-07T09:44:01Z</time>
      </trkpt>
      <trkpt lat="49.34494" lon="4.07154">
        <ele>134</ele>
        <time>2019-04-07T09:44:02Z</time>
      </trkpt>
      <trkpt lat="49.34494" lon="4.07154">
        <ele>134</ele>
        <time>2019-04-07T09:44:03Z</time>
      </trkpt>
      <trkpt lat="49.34494" lon="4.07154">
        <ele>134</ele>
        <time>2019-04-07T09:44:04Z</time>
      </trkpt>
      <trkpt lat="49.34494" lon="4.07155">
        <ele>135</ele>
        <time>2019-04-07T09:44:05Z</time>
      </trkpt>
      <trkpt lat="49.34493" lon="4.07158">
        <ele>135</ele>
        <time>2019-04-07T09:44:06Z</time>
      </trkpt>
      <trkpt lat="49.34492" lon="4.0716">
        <ele>135</ele>
        <time>2019-04-07T09:44:07Z</time>
      </trkpt>
      <trkpt lat="49.3449" lon="4.07161">
        <ele>136</ele>
        <time>2019-04-07T09:44:08Z</time>
      </trkpt>
      <trkpt lat="49.34487" lon="4.07162">
        <ele>135</ele>
        <time>2019-04-07T09:44:09Z</time>
      </trkpt>
      <trkpt lat="49.34486" lon="4.07161">
        <ele>135</ele>
        <time>2019-04-07T09:44:10Z</time>
      </trkpt>
      <trkpt lat="49.34483" lon="4.07162">
        <ele>134</ele>
        <time>2019-04-07T09:44:11Z</time>
      </trkpt>
      <trkpt lat="49.3448" lon="4.07163">
        <ele>134</ele>
        <time>2019-04-07T09:44:12Z</time>
      </trkpt>
      <trkpt lat="49.34477" lon="4.07163">
        <ele>134</ele>
        <time>2019-04-07T09:44:13Z</time>
      </trkpt>
      <trkpt lat="49.34475" lon="4.07164">
        <ele>134</ele>
        <time>2019-04-07T09:44:14Z</time>
      </trkpt>
      <trkpt lat="49.34472" lon="4.07164">
        <ele>134</ele>
        <time>2019-04-07T09:44:15Z</time>
      </trkpt>
      <trkpt lat="49.34469" lon="4.07164">
        <ele>134</ele>
        <time>2019-04-07T09:44:16Z</time>
      </trkpt>
      <trkpt lat="49.34466" lon="4.07165">
        <ele>134</ele>
        <time>2019-04-07T09:44:17Z</time>
      </trkpt>
      <trkpt lat="49.34464" lon="4.07166">
        <ele>134</ele>
        <time>2019-04-07T09:44:18Z</time>
      </trkpt>
      <trkpt lat="49.34462" lon="4.07168">
        <ele>134</ele>
        <time>2019-04-07T09:44:19Z</time>
      </trkpt>
      <trkpt lat="49.3446" lon="4.07168">
        <ele>134</ele>
        <time>2019-04-07T09:44:20Z</time>
      </trkpt>
      <trkpt lat="49.34458" lon="4.07168">
        <ele>134</ele>
        <time>2019-04-07T09:44:21Z</time>
      </trkpt>
      <trkpt lat="49.34456" lon="4.07169">
        <ele>133</ele>
        <time>2019-04-07T09:44:22Z</time>
      </trkpt>
      <trkpt lat="49.34454" lon="4.0717">
        <ele>134</ele>
        <time>2019-04-07T09:44:23Z</time>
      </trkpt>
      <trkpt lat="49.34453" lon="4.0717">
        <ele>134</ele>
        <time>2019-04-07T09:44:24Z</time>
      </trkpt>
      <trkpt lat="49.34451" lon="4.07171">
        <ele>134</ele>
        <time>2019-04-07T09:44:25Z</time>
      </trkpt>
      <trkpt lat="49.3445" lon="4.07172">
        <ele>134</ele>
        <time>2019-04-07T09:44:26Z</time>
      </trkpt>
      <trkpt lat="49.34448" lon="4.07173">
        <ele>134</ele>
        <time>2019-04-07T09:44:27Z</time>
      </trkpt>
      <trkpt lat="49.34447" lon="4.07175">
        <ele>134</ele>
        <time>2019-04-07T09:44:28Z</time>
      </trkpt>
      <trkpt lat="49.34446" lon="4.07178">
        <ele>133</ele>
        <time>2019-04-07T09:44:29Z</time>
      </trkpt>
      <trkpt lat="49.34446" lon="4.07182">
        <ele>134</ele>
        <time>2019-04-07T09:44:30Z</time>
      </trkpt>
      <trkpt lat="49.34445" lon="4.07186">
        <ele>133</ele>
        <time>2019-04-07T09:44:31Z</time>
      </trkpt>
      <trkpt lat="49.34445" lon="4.07191">
        <ele>133</ele>
        <time>2019-04-07T09:44:32Z</time>
      </trkpt>
      <trkpt lat="49.34446" lon="4.07195">
        <ele>133</ele>
        <time>2019-04-07T09:44:33Z</time>
      </trkpt>
      <trkpt lat="49.34446" lon="4.07199">
        <ele>132</ele>
        <time>2019-04-07T09:44:34Z</time>
      </trkpt>
      <trkpt lat="49.34448" lon="4.07202">
        <ele>132</ele>
        <time>2019-04-07T09:44:35Z</time>
      </trkpt>
      <trkpt lat="49.3445" lon="4.07205">
        <ele>132</ele>
        <time>2019-04-07T09:44:36Z</time>
      </trkpt>
      <trkpt lat="49.34451" lon="4.07209">
        <ele>132</ele>
        <time>2019-04-07T09:44:37Z</time>
      </trkpt>
      <trkpt lat="49.34452" lon="4.07213">
        <ele>132</ele>
        <time>2019-04-07T09:44:38Z</time>
      </trkpt>
      <trkpt lat="49.34453" lon="4.07216">
        <ele>131</ele>
        <time>2019-04-07T09:44:39Z</time>
      </trkpt>
      <trkpt lat="49.34454" lon="4.0722">
        <ele>131</ele>
        <time>2019-04-07T09:44:40Z</time>
      </trkpt>
      <trkpt lat="49.34455" lon="4.07222">
        <ele>131</ele>
        <time>2019-04-07T09:44:41Z</time>
      </trkpt>
      <trkpt lat="49.34457" lon="4.07224">
        <ele>131</ele>
        <time>2019-04-07T09:44:42Z</time>
      </trkpt>
      <trkpt lat="49.34458" lon="4.07227">
        <ele>132</ele>
        <time>2019-04-07T09:44:43Z</time>
      </trkpt>
      <trkpt lat="49.34461" lon="4.07229">
        <ele>131</ele>
        <time>2019-04-07T09:44:44Z</time>
      </trkpt>
      <trkpt lat="49.34464" lon="4.07231">
        <ele>132</ele>
        <time>2019-04-07T09:44:45Z</time>
      </trkpt>
      <trkpt lat="49.34467" lon="4.0723">
        <ele>131</ele>
        <time>2019-04-07T09:44:46Z</time>
      </trkpt>
      <trkpt lat="49.34471" lon="4.07228">
        <ele>131</ele>
        <time>2019-04-07T09:44:47Z</time>
      </trkpt>
      <trkpt lat="49.34474" lon="4.07226">
        <ele>130</ele>
        <time>2019-04-07T09:44:48Z</time>
      </trkpt>
      <trkpt lat="49.34477" lon="4.07225">
        <ele>130</ele>
        <time>2019-04-07T09:44:49Z</time>
      </trkpt>
      <trkpt lat="49.34481" lon="4.07223">
        <ele>130</ele>
        <time>2019-04-07T09:44:50Z</time>
      </trkpt>
      <trkpt lat="49.34485" lon="4.07221">
        <ele>130</ele>
        <time>2019-04-07T09:44:51Z</time>
      </trkpt>
      <trkpt lat="49.34489" lon="4.07219">
        <ele>129</ele>
        <time>2019-04-07T09:44:52Z</time>
      </trkpt>
      <trkpt lat="49.34493" lon="4.07216">
        <ele>129</ele>
        <time>2019-04-07T09:44:53Z</time>
      </trkpt>
      <trkpt lat="49.34498" lon="4.07214">
        <ele>129</ele>
        <time>2019-04-07T09:44:54Z</time>
      </trkpt>
      <trkpt lat="49.34503" lon="4.07211">
        <ele>129</ele>
        <time>2019-04-07T09:44:55Z</time>
      </trkpt>
      <trkpt lat="49.34507" lon="4.07208">
        <ele>129</ele>
        <time>2019-04-07T09:44:56Z</time>
      </trkpt>
      <trkpt lat="49.34512" lon="4.07205">
        <ele>129</ele>
        <time>2019-04-07T09:44:57Z</time>
      </trkpt>
      <trkpt lat="49.34517" lon="4.07203">
        <ele>129</ele>
        <time>2019-04-07T09:44:58Z</time>
      </trkpt>
      <trkpt lat="49.34522" lon="4.072">
        <ele>129</ele>
        <time>2019-04-07T09:44:59Z</time>
      </trkpt>
      <trkpt lat="49.34527" lon="4.07198">
        <ele>129</ele>
        <time>2019-04-07T09:45:00Z</time>
      </trkpt>
      <trkpt lat="49.34531" lon="4.07196">
        <ele>129</ele>
        <time>2019-04-07T09:45:01Z</time>
      </trkpt>
      <trkpt lat="49.34536" lon="4.07192">
        <ele>129</ele>
        <time>2019-04-07T09:45:02Z</time>
      </trkpt>
      <trkpt lat="49.34541" lon="4.07189">
        <ele>129</ele>
        <time>2019-04-07T09:45:03Z</time>
      </trkpt>
      <trkpt lat="49.34546" lon="4.07186">
        <ele>129</ele>
        <time>2019-04-07T09:45:04Z</time>
      </trkpt>
      <trkpt lat="49.34551" lon="4.07183">
        <ele>129</ele>
        <time>2019-04-07T09:45:05Z</time>
      </trkpt>
      <trkpt lat="49.34556" lon="4.07181">
        <ele>129</ele>
        <time>2019-04-07T09:45:06Z</time>
      </trkpt>
      <trkpt lat="49.34561" lon="4.07178">
        <ele>129</ele>
        <time>2019-04-07T09:45:07Z</time>
      </trkpt>
      <trkpt lat="49.34566" lon="4.07177">
        <ele>129</ele>
        <time>2019-04-07T09:45:08Z</time>
      </trkpt>
      <trkpt lat="49.34571" lon="4.07174">
        <ele>129</ele>
        <time>2019-04-07T09:45:09Z</time>
      </trkpt>
      <trkpt lat="49.34576" lon="4.07171">
        <ele>129</ele>
        <time>2019-04-07T09:45:10Z</time>
      </trkpt>
      <trkpt lat="49.34582" lon="4.07168">
        <ele>129</ele>
        <time>2019-04-07T09:45:11Z</time>
      </trkpt>
      <trkpt lat="49.34587" lon="4.07165">
        <ele>130</ele>
        <time>2019-04-07T09:45:12Z</time>
      </trkpt>
      <trkpt lat="49.34592" lon="4.07163">
        <ele>130</ele>
        <time>2019-04-07T09:45:13Z</time>
      </trkpt>
      <trkpt lat="49.34597" lon="4.0716">
        <ele>130</ele>
        <time>2019-04-07T09:45:14Z</time>
      </trkpt>
      <trkpt lat="49.34602" lon="4.07158">
        <ele>131</ele>
        <time>2019-04-07T09:45:15Z</time>
      </trkpt>
      <trkpt lat="49.34606" lon="4.07156">
        <ele>131</ele>
        <time>2019-04-07T09:45:16Z</time>
      </trkpt>
      <trkpt lat="49.3461" lon="4.07155">
        <ele>132</ele>
        <time>2019-04-07T09:45:17Z</time>
      </trkpt>
      <trkpt lat="49.34614" lon="4.07152">
        <ele>132</ele>
        <time>2019-04-07T09:45:18Z</time>
      </trkpt>
      <trkpt lat="49.34618" lon="4.0715">
        <ele>132</ele>
        <time>2019-04-07T09:45:19Z</time>
      </trkpt>
      <trkpt lat="49.34622" lon="4.07148">
        <ele>132</ele>
        <time>2019-04-07T09:45:20Z</time>
      </trkpt>
      <trkpt lat="49.34626" lon="4.07145">
        <ele>132</ele>
        <time>2019-04-07T09:45:21Z</time>
      </trkpt>
      <trkpt lat="49.3463" lon="4.07142">
        <ele>132</ele>
        <time>2019-04-07T09:45:22Z</time>
      </trkpt>
      <trkpt lat="49.34634" lon="4.07138">
        <ele>132</ele>
        <time>2019-04-07T09:45:23Z</time>
      </trkpt>
      <trkpt lat="49.34638" lon="4.07136">
        <ele>132</ele>
        <time>2019-04-07T09:45:24Z</time>
      </trkpt>
      <trkpt lat="49.34641" lon="4.07133">
        <ele>132</ele>
        <time>2019-04-07T09:45:25Z</time>
      </trkpt>
      <trkpt lat="49.34645" lon="4.07133">
        <ele>132</ele>
        <time>2019-04-07T09:45:26Z</time>
      </trkpt>
      <trkpt lat="49.34649" lon="4.07132">
        <ele>132</ele>
        <time>2019-04-07T09:45:27Z</time>
      </trkpt>
      <trkpt lat="49.34653" lon="4.07131">
        <ele>131</ele>
        <time>2019-04-07T09:45:28Z</time>
      </trkpt>
      <trkpt lat="49.34656" lon="4.07129">
        <ele>131</ele>
        <time>2019-04-07T09:45:29Z</time>
      </trkpt>
      <trkpt lat="49.3466" lon="4.07128">
        <ele>132</ele>
        <time>2019-04-07T09:45:30Z</time>
      </trkpt>
      <trkpt lat="49.34664" lon="4.07126">
        <ele>132</ele>
        <time>2019-04-07T09:45:31Z</time>
      </trkpt>
      <trkpt lat="49.34667" lon="4.07123">
        <ele>131</ele>
        <time>2019-04-07T09:45:32Z</time>
      </trkpt>
      <trkpt lat="49.34671" lon="4.07122">
        <ele>132</ele>
        <time>2019-04-07T09:45:33Z</time>
      </trkpt>
      <trkpt lat="49.34675" lon="4.0712">
        <ele>131</ele>
        <time>2019-04-07T09:45:34Z</time>
      </trkpt>
      <trkpt lat="49.34679" lon="4.07117">
        <ele>132</ele>
        <time>2019-04-07T09:45:35Z</time>
      </trkpt>
      <trkpt lat="49.34683" lon="4.07115">
        <ele>132</ele>
        <time>2019-04-07T09:45:36Z</time>
      </trkpt>
      <trkpt lat="49.34686" lon="4.07112">
        <ele>132</ele>
        <time>2019-04-07T09:45:37Z</time>
      </trkpt>
      <trkpt lat="49.3469" lon="4.0711">
        <ele>132</ele>
        <time>2019-04-07T09:45:38Z</time>
      </trkpt>
      <trkpt lat="49.34694" lon="4.07107">
        <ele>132</ele>
        <time>2019-04-07T09:45:39Z</time>
      </trkpt>
      <trkpt lat="49.34698" lon="4.07106">
        <ele>132</ele>
        <time>2019-04-07T09:45:40Z</time>
      </trkpt>
      <trkpt lat="49.34702" lon="4.07103">
        <ele>133</ele>
        <time>2019-04-07T09:45:41Z</time>
      </trkpt>
      <trkpt lat="49.34706" lon="4.07103">
        <ele>133</ele>
        <time>2019-04-07T09:45:42Z</time>
      </trkpt>
      <trkpt lat="49.34709" lon="4.071">
        <ele>133</ele>
        <time>2019-04-07T09:45:43Z</time>
      </trkpt>
      <trkpt lat="49.34712" lon="4.07097">
        <ele>134</ele>
        <time>2019-04-07T09:45:44Z</time>
      </trkpt>
      <trkpt lat="49.34716" lon="4.07096">
        <ele>134</ele>
        <time>2019-04-07T09:45:45Z</time>
      </trkpt>
      <trkpt lat="49.3472" lon="4.07096">
        <ele>134</ele>
        <time>2019-04-07T09:45:46Z</time>
      </trkpt>
      <trkpt lat="49.34723" lon="4.07095">
        <ele>134</ele>
        <time>2019-04-07T09:45:47Z</time>
      </trkpt>
      <trkpt lat="49.34727" lon="4.07093">
        <ele>134</ele>
        <time>2019-04-07T09:45:48Z</time>
      </trkpt>
      <trkpt lat="49.3473" lon="4.07091">
        <ele>134</ele>
        <time>2019-04-07T09:45:49Z</time>
      </trkpt>
      <trkpt lat="49.34734" lon="4.0709">
        <ele>133</ele>
        <time>2019-04-07T09:45:50Z</time>
      </trkpt>
      <trkpt lat="49.34738" lon="4.07088">
        <ele>133</ele>
        <time>2019-04-07T09:45:51Z</time>
      </trkpt>
      <trkpt lat="49.34741" lon="4.07087">
        <ele>133</ele>
        <time>2019-04-07T09:45:52Z</time>
      </trkpt>
      <trkpt lat="49.34745" lon="4.07085">
        <ele>133</ele>
        <time>2019-04-07T09:45:53Z</time>
      </trkpt>
      <trkpt lat="49.34748" lon="4.07083">
        <ele>133</ele>
        <time>2019-04-07T09:45:54Z</time>
      </trkpt>
      <trkpt lat="49.34752" lon="4.07081">
        <ele>133</ele>
        <time>2019-04-07T09:45:55Z</time>
      </trkpt>
      <trkpt lat="49.34756" lon="4.07078">
        <ele>133</ele>
        <time>2019-04-07T09:45:56Z</time>
      </trkpt>
      <trkpt lat="49.34759" lon="4.07076">
        <ele>133</ele>
        <time>2019-04-07T09:45:57Z</time>
      </trkpt>
      <trkpt lat="49.34763" lon="4.07072">
        <ele>134</ele>
        <time>2019-04-07T09:45:58Z</time>
      </trkpt>
      <trkpt lat="49.34767" lon="4.0707">
        <ele>134</ele>
        <time>2019-04-07T09:45:59Z</time>
      </trkpt>
      <trkpt lat="49.34771" lon="4.07067">
        <ele>135</ele>
        <time>2019-04-07T09:46:00Z</time>
      </trkpt>
      <trkpt lat="49.34774" lon="4.07064">
        <ele>135</ele>
        <time>2019-04-07T09:46:01Z</time>
      </trkpt>
      <trkpt lat="49.34778" lon="4.07061">
        <ele>135</ele>
        <time>2019-04-07T09:46:02Z</time>
      </trkpt>
      <trkpt lat="49.34781" lon="4.07059">
        <ele>136</ele>
        <time>2019-04-07T09:46:03Z</time>
      </trkpt>
      <trkpt lat="49.34785" lon="4.07058">
        <ele>136</ele>
        <time>2019-04-07T09:46:04Z</time>
      </trkpt>
      <trkpt lat="49.34789" lon="4.07058">
        <ele>136</ele>
        <time>2019-04-07T09:46:05Z</time>
      </trkpt>
      <trkpt lat="49.34792" lon="4.07055">
        <ele>136</ele>
        <time>2019-04-07T09:46:06Z</time>
      </trkpt>
      <trkpt lat="49.34795" lon="4.07053">
        <ele>136</ele>
        <time>2019-04-07T09:46:07Z</time>
      </trkpt>
      <trkpt lat="49.348" lon="4.07052">
        <ele>135</ele>
        <time>2019-04-07T09:46:08Z</time>
      </trkpt>
      <trkpt lat="49.34803" lon="4.0705">
        <ele>135</ele>
        <time>2019-04-07T09:46:09Z</time>
      </trkpt>
      <trkpt lat="49.34807" lon="4.07048">
        <ele>136</ele>
        <time>2019-04-07T09:46:10Z</time>
      </trkpt>
      <trkpt lat="49.34811" lon="4.07046">
        <ele>136</ele>
        <time>2019-04-07T09:46:11Z</time>
      </trkpt>
      <trkpt lat="49.34815" lon="4.07044">
        <ele>136</ele>
        <time>2019-04-07T09:46:12Z</time>
      </trkpt>
      <trkpt lat="49.34818" lon="4.07042">
        <ele>136</ele>
        <time>2019-04-07T09:46:13Z</time>
      </trkpt>
      <trkpt lat="49.34822" lon="4.0704">
        <ele>135</ele>
        <time>2019-04-07T09:46:14Z</time>
      </trkpt>
      <trkpt lat="49.34826" lon="4.07038">
        <ele>135</ele>
        <time>2019-04-07T09:46:15Z</time>
      </trkpt>
      <trkpt lat="49.3483" lon="4.07036">
        <ele>135</ele>
        <time>2019-04-07T09:46:16Z</time>
      </trkpt>
      <trkpt lat="49.34834" lon="4.07034">
        <ele>135</ele>
        <time>2019-04-07T09:46:17Z</time>
      </trkpt>
      <trkpt lat="49.34837" lon="4.07033">
        <ele>135</ele>
        <time>2019-04-07T09:46:18Z</time>
      </trkpt>
      <trkpt lat="49.34841" lon="4.07031">
        <ele>136</ele>
        <time>2019-04-07T09:46:19Z</time>
      </trkpt>
      <trkpt lat="49.34845" lon="4.07029">
        <ele>136</ele>
        <time>2019-04-07T09:46:20Z</time>
      </trkpt>
      <trkpt lat="49.3485" lon="4.07027">
        <ele>136</ele>
        <time>2019-04-07T09:46:21Z</time>
      </trkpt>
      <trkpt lat="49.34853" lon="4.07025">
        <ele>136</ele>
        <time>2019-04-07T09:46:22Z</time>
      </trkpt>
      <trkpt lat="49.34857" lon="4.07022">
        <ele>136</ele>
        <time>2019-04-07T09:46:23Z</time>
      </trkpt>
      <trkpt lat="49.3486" lon="4.07019">
        <ele>136</ele>
        <time>2019-04-07T09:46:24Z</time>
      </trkpt>
      <trkpt lat="49.34864" lon="4.07018">
        <ele>136</ele>
        <time>2019-04-07T09:46:25Z</time>
      </trkpt>
      <trkpt lat="49.34868" lon="4.07015">
        <ele>136</ele>
        <time>2019-04-07T09:46:26Z</time>
      </trkpt>
      <trkpt lat="49.34872" lon="4.07013">
        <ele>136</ele>
        <time>2019-04-07T09:46:27Z</time>
      </trkpt>
      <trkpt lat="49.34875" lon="4.07011">
        <ele>136</ele>
        <time>2019-04-07T09:46:28Z</time>
      </trkpt>
      <trkpt lat="49.34879" lon="4.07009">
        <ele>136</ele>
        <time>2019-04-07T09:46:29Z</time>
      </trkpt>
      <trkpt lat="49.34882" lon="4.07007">
        <ele>136</ele>
        <time>2019-04-07T09:46:30Z</time>
      </trkpt>
      <trkpt lat="49.34886" lon="4.07005">
        <ele>136</ele>
        <time>2019-04-07T09:46:31Z</time>
      </trkpt>
      <trkpt lat="49.3489" lon="4.07003">
        <ele>137</ele>
        <time>2019-04-07T09:46:32Z</time>
      </trkpt>
      <trkpt lat="49.34893" lon="4.07001">
        <ele>137</ele>
        <time>2019-04-07T09:46:33Z</time>
      </trkpt>
      <trkpt lat="49.34896" lon="4.07">
        <ele>137</ele>
        <time>2019-04-07T09:46:34Z</time>
      </trkpt>
      <trkpt lat="49.34898" lon="4.06999">
        <ele>137</ele>
        <time>2019-04-07T09:46:35Z</time>
      </trkpt>
      <trkpt lat="49.349" lon="4.06999">
        <ele>137</ele>
        <time>2019-04-07T09:46:36Z</time>
      </trkpt>
      <trkpt lat="49.34901" lon="4.06999">
        <ele>137</ele>
        <time>2019-04-07T09:46:37Z</time>
      </trkpt>
      <trkpt lat="49.34902" lon="4.07001">
        <ele>137</ele>
        <time>2019-04-07T09:46:38Z</time>
      </trkpt>
      <trkpt lat="49.34903" lon="4.07001">
        <ele>137</ele>
        <time>2019-04-07T09:46:39Z</time>
      </trkpt>
      <trkpt lat="49.34904" lon="4.07001">
        <ele>137</ele>
        <time>2019-04-07T09:46:40Z</time>
      </trkpt>
      <trkpt lat="49.34905" lon="4.07001">
        <ele>137</ele>
        <time>2019-04-07T09:46:41Z</time>
      </trkpt>
      <trkpt lat="49.34905" lon="4.07001">
        <ele>137</ele>
        <time>2019-04-07T09:46:42Z</time>
      </trkpt>
      <trkpt lat="49.34906" lon="4.07">
        <ele>136</ele>
        <time>2019-04-07T09:46:43Z</time>
      </trkpt>
      <trkpt lat="49.34907" lon="4.07">
        <ele>136</ele>
        <time>2019-04-07T09:46:44Z</time>
      </trkpt>
      <trkpt lat="49.34907" lon="4.07">
        <ele>136</ele>
        <time>2019-04-07T09:46:45Z</time>
      </trkpt>
      <trkpt lat="49.34907" lon="4.07">
        <ele>136</ele>
        <time>2019-04-07T09:46:46Z</time>
      </trkpt>
      <trkpt lat="49.34907" lon="4.07">
        <ele>136</ele>
        <time>2019-04-07T09:46:47Z</time>
      </trkpt>
      <trkpt lat="49.34907" lon="4.07">
        <ele>136</ele>
        <time>2019-04-07T09:46:48Z</time>
      </trkpt>
      <trkpt lat="49.34907" lon="4.07">
        <ele>136</ele>
        <time>2019-04-07T09:46:49Z</time>
      </trkpt>
      <trkpt lat="49.34907" lon="4.07">
        <ele>136</ele>
        <time>2019-04-07T09:46:50Z</time>
      </trkpt>
      <trkpt lat="49.34908" lon="4.07002">
        <ele>136</ele>
        <time>2019-04-07T09:46:51Z</time>
      </trkpt>
      <trkpt lat="49.34908" lon="4.07004">
        <ele>135</ele>
        <time>2019-04-07T09:46:52Z</time>
      </trkpt>
      <trkpt lat="49.34909" lon="4.07006">
        <ele>135</ele>
        <time>2019-04-07T09:46:53Z</time>
      </trkpt>
      <trkpt lat="49.3491" lon="4.07008">
        <ele>135</ele>
        <time>2019-04-07T09:46:54Z</time>
      </trkpt>
      <trkpt lat="49.3491" lon="4.07011">
        <ele>135</ele>
        <time>2019-04-07T09:46:55Z</time>
      </trkpt>
      <trkpt lat="49.3491" lon="4.07014">
        <ele>135</ele>
        <time>2019-04-07T09:46:56Z</time>
      </trkpt>
      <trkpt lat="49.34911" lon="4.07016">
        <ele>135</ele>
        <time>2019-04-07T09:46:57Z</time>
      </trkpt>
      <trkpt lat="49.34911" lon="4.07019">
        <ele>135</ele>
        <time>2019-04-07T09:46:58Z</time>
      </trkpt>
      <trkpt lat="49.34911" lon="4.07022">
        <ele>135</ele>
        <time>2019-04-07T09:46:59Z</time>
      </trkpt>
      <trkpt lat="49.34911" lon="4.07026">
        <ele>135</ele>
        <time>2019-04-07T09:47:00Z</time>
      </trkpt>
      <trkpt lat="49.34911" lon="4.0703">
        <ele>135</ele>
        <time>2019-04-07T09:47:01Z</time>
      </trkpt>
      <trkpt lat="49.34911" lon="4.07034">
        <ele>135</ele>
        <time>2019-04-07T09:47:02Z</time>
      </trkpt>
      <trkpt lat="49.34911" lon="4.07038">
        <ele>135</ele>
        <time>2019-04-07T09:47:03Z</time>
      </trkpt>
      <trkpt lat="49.34911" lon="4.07043">
        <ele>136</ele>
        <time>2019-04-07T09:47:04Z</time>
      </trkpt>
      <trkpt lat="49.34911" lon="4.07047">
        <ele>136</ele>
        <time>2019-04-07T09:47:05Z</time>
      </trkpt>
      <trkpt lat="49.34911" lon="4.07052">
        <ele>136</ele>
        <time>2019-04-07T09:47:06Z</time>
      </trkpt>
      <trkpt lat="49.34911" lon="4.07057">
        <ele>136</ele>
        <time>2019-04-07T09:47:07Z</time>
      </trkpt>
      <trkpt lat="49.34911" lon="4.07062">
        <ele>136</ele>
        <time>2019-04-07T09:47:08Z</time>
      </trkpt>
      <trkpt lat="49.34911" lon="4.07067">
        <ele>136</ele>
        <time>2019-04-07T09:47:09Z</time>
      </trkpt>
      <trkpt lat="49.34911" lon="4.07072">
        <ele>136</ele>
        <time>2019-04-07T09:47:10Z</time>
      </trkpt>
      <trkpt lat="49.34911" lon="4.07077">
        <ele>137</ele>
        <time>2019-04-07T09:47:11Z</time>
      </trkpt>
      <trkpt lat="49.34911" lon="4.07083">
        <ele>137</ele>
        <time>2019-04-07T09:47:12Z</time>
      </trkpt>
      <trkpt lat="49.34911" lon="4.07089">
        <ele>137</ele>
        <time>2019-04-07T09:47:13Z</time>
      </trkpt>
      <trkpt lat="49.34911" lon="4.07094">
        <ele>136</ele>
        <time>2019-04-07T09:47:14Z</time>
      </trkpt>
      <trkpt lat="49.34912" lon="4.071">
        <ele>136</ele>
        <time>2019-04-07T09:47:15Z</time>
      </trkpt>
      <trkpt lat="49.34912" lon="4.07105">
        <ele>136</ele>
        <time>2019-04-07T09:47:16Z</time>
      </trkpt>
      <trkpt lat="49.34912" lon="4.07111">
        <ele>137</ele>
        <time>2019-04-07T09:47:17Z</time>
      </trkpt>
      <trkpt lat="49.34912" lon="4.07116">
        <ele>137</ele>
        <time>2019-04-07T09:47:18Z</time>
      </trkpt>
      <trkpt lat="49.34912" lon="4.07121">
        <ele>137</ele>
        <time>2019-04-07T09:47:19Z</time>
      </trkpt>
      <trkpt lat="49.34913" lon="4.07128">
        <ele>139</ele>
        <time>2019-04-07T09:47:20Z</time>
      </trkpt>
      <trkpt lat="49.34913" lon="4.07134">
        <ele>140</ele>
        <time>2019-04-07T09:47:21Z</time>
      </trkpt>
      <trkpt lat="49.34913" lon="4.0714">
        <ele>140</ele>
        <time>2019-04-07T09:47:22Z</time>
      </trkpt>
      <trkpt lat="49.34913" lon="4.07145">
        <ele>140</ele>
        <time>2019-04-07T09:47:23Z</time>
      </trkpt>
      <trkpt lat="49.34913" lon="4.07151">
        <ele>140</ele>
        <time>2019-04-07T09:47:24Z</time>
      </trkpt>
      <trkpt lat="49.34914" lon="4.07157">
        <ele>140</ele>
        <time>2019-04-07T09:47:25Z</time>
      </trkpt>
      <trkpt lat="49.34914" lon="4.07164">
        <ele>141</ele>
        <time>2019-04-07T09:47:26Z</time>
      </trkpt>
      <trkpt lat="49.34914" lon="4.07171">
        <ele>141</ele>
        <time>2019-04-07T09:47:27Z</time>
      </trkpt>
      <trkpt lat="49.34914" lon="4.07177">
        <ele>141</ele>
        <time>2019-04-07T09:47:28Z</time>
      </trkpt>
      <trkpt lat="49.34915" lon="4.07183">
        <ele>140</ele>
        <time>2019-04-07T09:47:29Z</time>
      </trkpt>
      <trkpt lat="49.34916" lon="4.07188">
        <ele>140</ele>
        <time>2019-04-07T09:47:30Z</time>
      </trkpt>
      <trkpt lat="49.34916" lon="4.07194">
        <ele>139</ele>
        <time>2019-04-07T09:47:31Z</time>
      </trkpt>
      <trkpt lat="49.34916" lon="4.07201">
        <ele>139</ele>
        <time>2019-04-07T09:47:32Z</time>
      </trkpt>
      <trkpt lat="49.34916" lon="4.07207">
        <ele>139</ele>
        <time>2019-04-07T09:47:33Z</time>
      </trkpt>
      <trkpt lat="49.34916" lon="4.07214">
        <ele>140</ele>
        <time>2019-04-07T09:47:34Z</time>
      </trkpt>
      <trkpt lat="49.34916" lon="4.07221">
        <ele>140</ele>
        <time>2019-04-07T09:47:35Z</time>
      </trkpt>
      <trkpt lat="49.34915" lon="4.07228">
        <ele>140</ele>
        <time>2019-04-07T09:47:36Z</time>
      </trkpt>
      <trkpt lat="49.34915" lon="4.07236">
        <ele>141</ele>
        <time>2019-04-07T09:47:37Z</time>
      </trkpt>
      <trkpt lat="49.34914" lon="4.07243">
        <ele>141</ele>
        <time>2019-04-07T09:47:38Z</time>
      </trkpt>
      <trkpt lat="49.34914" lon="4.07249">
        <ele>141</ele>
        <time>2019-04-07T09:47:39Z</time>
      </trkpt>
      <trkpt lat="49.34915" lon="4.07257">
        <ele>141</ele>
        <time>2019-04-07T09:47:40Z</time>
      </trkpt>
      <trkpt lat="49.34916" lon="4.07264">
        <ele>141</ele>
        <time>2019-04-07T09:47:41Z</time>
      </trkpt>
      <trkpt lat="49.34917" lon="4.07272">
        <ele>141</ele>
        <time>2019-04-07T09:47:42Z</time>
      </trkpt>
      <trkpt lat="49.34917" lon="4.07278">
        <ele>141</ele>
        <time>2019-04-07T09:47:43Z</time>
      </trkpt>
      <trkpt lat="49.34917" lon="4.07284">
        <ele>141</ele>
        <time>2019-04-07T09:47:44Z</time>
      </trkpt>
      <trkpt lat="49.34916" lon="4.0729">
        <ele>140</ele>
        <time>2019-04-07T09:47:45Z</time>
      </trkpt>
      <trkpt lat="49.34916" lon="4.07297">
        <ele>140</ele>
        <time>2019-04-07T09:47:46Z</time>
      </trkpt>
      <trkpt lat="49.34916" lon="4.07301">
        <ele>140</ele>
        <time>2019-04-07T09:47:47Z</time>
      </trkpt>
      <trkpt lat="49.34916" lon="4.07305">
        <ele>140</ele>
        <time>2019-04-07T09:47:48Z</time>
      </trkpt>
      <trkpt lat="49.34918" lon="4.07308">
        <ele>140</ele>
        <time>2019-04-07T09:47:49Z</time>
      </trkpt>
      <trkpt lat="49.3492" lon="4.0731">
        <ele>140</ele>
        <time>2019-04-07T09:47:50Z</time>
      </trkpt>
      <trkpt lat="49.34923" lon="4.0731">
        <ele>141</ele>
        <time>2019-04-07T09:47:51Z</time>
      </trkpt>
      <trkpt lat="49.34927" lon="4.07309">
        <ele>140</ele>
        <time>2019-04-07T09:47:52Z</time>
      </trkpt>
      <trkpt lat="49.3493" lon="4.0731">
        <ele>141</ele>
        <time>2019-04-07T09:47:53Z</time>
      </trkpt>
      <trkpt lat="49.34934" lon="4.07311">
        <ele>141</ele>
        <time>2019-04-07T09:47:54Z</time>
      </trkpt>
      <trkpt lat="49.34938" lon="4.07311">
        <ele>141</ele>
        <time>2019-04-07T09:47:55Z</time>
      </trkpt>
      <trkpt lat="49.34942" lon="4.0731">
        <ele>141</ele>
        <time>2019-04-07T09:47:56Z</time>
      </trkpt>
      <trkpt lat="49.34946" lon="4.07309">
        <ele>141</ele>
        <time>2019-04-07T09:47:57Z</time>
      </trkpt>
      <trkpt lat="49.3495" lon="4.07307">
        <ele>141</ele>
        <time>2019-04-07T09:47:58Z</time>
      </trkpt>
      <trkpt lat="49.34955" lon="4.07304">
        <ele>140</ele>
        <time>2019-04-07T09:47:59Z</time>
      </trkpt>
      <trkpt lat="49.34959" lon="4.07302">
        <ele>140</ele>
        <time>2019-04-07T09:48:00Z</time>
      </trkpt>
      <trkpt lat="49.34962" lon="4.073">
        <ele>140</ele>
        <time>2019-04-07T09:48:01Z</time>
      </trkpt>
      <trkpt lat="49.34966" lon="4.07298">
        <ele>140</ele>
        <time>2019-04-07T09:48:02Z</time>
      </trkpt>
      <trkpt lat="49.34969" lon="4.07296">
        <ele>140</ele>
        <time>2019-04-07T09:48:03Z</time>
      </trkpt>
      <trkpt lat="49.34973" lon="4.07295">
        <ele>140</ele>
        <time>2019-04-07T09:48:04Z</time>
      </trkpt>
      <trkpt lat="49.34978" lon="4.07293">
        <ele>140</ele>
        <time>2019-04-07T09:48:05Z</time>
      </trkpt>
      <trkpt lat="49.34982" lon="4.07293">
        <ele>141</ele>
        <time>2019-04-07T09:48:06Z</time>
      </trkpt>
      <trkpt lat="49.34986" lon="4.07293">
        <ele>141</ele>
        <time>2019-04-07T09:48:07Z</time>
      </trkpt>
      <trkpt lat="49.34989" lon="4.07293">
        <ele>142</ele>
        <time>2019-04-07T09:48:08Z</time>
      </trkpt>
      <trkpt lat="49.34992" lon="4.0729">
        <ele>142</ele>
        <time>2019-04-07T09:48:09Z</time>
      </trkpt>
      <trkpt lat="49.34996" lon="4.07289">
        <ele>141</ele>
        <time>2019-04-07T09:48:10Z</time>
      </trkpt>
      <trkpt lat="49.34999" lon="4.07288">
        <ele>141</ele>
        <time>2019-04-07T09:48:11Z</time>
      </trkpt>
      <trkpt lat="49.35003" lon="4.07286">
        <ele>141</ele>
        <time>2019-04-07T09:48:12Z</time>
      </trkpt>
      <trkpt lat="49.35007" lon="4.07283">
        <ele>141</ele>
        <time>2019-04-07T09:48:13Z</time>
      </trkpt>
      <trkpt lat="49.3501" lon="4.0728">
        <ele>141</ele>
        <time>2019-04-07T09:48:14Z</time>
      </trkpt>
      <trkpt lat="49.35015" lon="4.07278">
        <ele>141</ele>
        <time>2019-04-07T09:48:15Z</time>
      </trkpt>
      <trkpt lat="49.35019" lon="4.07275">
        <ele>141</ele>
        <time>2019-04-07T09:48:16Z</time>
      </trkpt>
      <trkpt lat="49.35023" lon="4.07273">
        <ele>141</ele>
        <time>2019-04-07T09:48:17Z</time>
      </trkpt>
      <trkpt lat="49.35026" lon="4.0727">
        <ele>141</ele>
        <time>2019-04-07T09:48:18Z</time>
      </trkpt>
      <trkpt lat="49.35029" lon="4.07267">
        <ele>141</ele>
        <time>2019-04-07T09:48:19Z</time>
      </trkpt>
      <trkpt lat="49.35033" lon="4.07266">
        <ele>140</ele>
        <time>2019-04-07T09:48:20Z</time>
      </trkpt>
      <trkpt lat="49.35037" lon="4.07265">
        <ele>140</ele>
        <time>2019-04-07T09:48:21Z</time>
      </trkpt>
      <trkpt lat="49.35041" lon="4.07263">
        <ele>141</ele>
        <time>2019-04-07T09:48:22Z</time>
      </trkpt>
      <trkpt lat="49.35045" lon="4.0726">
        <ele>141</ele>
        <time>2019-04-07T09:48:23Z</time>
      </trkpt>
      <trkpt lat="49.35048" lon="4.07259">
        <ele>142</ele>
        <time>2019-04-07T09:48:24Z</time>
      </trkpt>
      <trkpt lat="49.35052" lon="4.07257">
        <ele>142</ele>
        <time>2019-04-07T09:48:25Z</time>
      </trkpt>
      <trkpt lat="49.35057" lon="4.07255">
        <ele>143</ele>
        <time>2019-04-07T09:48:26Z</time>
      </trkpt>
      <trkpt lat="49.35061" lon="4.07252">
        <ele>143</ele>
        <time>2019-04-07T09:48:27Z</time>
      </trkpt>
      <trkpt lat="49.35066" lon="4.0725">
        <ele>143</ele>
        <time>2019-04-07T09:48:28Z</time>
      </trkpt>
      <trkpt lat="49.3507" lon="4.07247">
        <ele>143</ele>
        <time>2019-04-07T09:48:29Z</time>
      </trkpt>
      <trkpt lat="49.35073" lon="4.07246">
        <ele>143</ele>
        <time>2019-04-07T09:48:30Z</time>
      </trkpt>
      <trkpt lat="49.35078" lon="4.07248">
        <ele>142</ele>
        <time>2019-04-07T09:48:31Z</time>
      </trkpt>
      <trkpt lat="49.35083" lon="4.07248">
        <ele>142</ele>
        <time>2019-04-07T09:48:32Z</time>
      </trkpt>
      <trkpt lat="49.35088" lon="4.07247">
        <ele>142</ele>
        <time>2019-04-07T09:48:33Z</time>
      </trkpt>
      <trkpt lat="49.35091" lon="4.07243">
        <ele>142</ele>
        <time>2019-04-07T09:48:34Z</time>
      </trkpt>
      <trkpt lat="49.35096" lon="4.07242">
        <ele>142</ele>
        <time>2019-04-07T09:48:35Z</time>
      </trkpt>
      <trkpt lat="49.351" lon="4.07243">
        <ele>142</ele>
        <time>2019-04-07T09:48:36Z</time>
      </trkpt>
      <trkpt lat="49.35103" lon="4.07243">
        <ele>142</ele>
        <time>2019-04-07T09:48:37Z</time>
      </trkpt>
      <trkpt lat="49.35107" lon="4.07242">
        <ele>141</ele>
        <time>2019-04-07T09:48:38Z</time>
      </trkpt>
      <trkpt lat="49.35111" lon="4.07243">
        <ele>140</ele>
        <time>2019-04-07T09:48:39Z</time>
      </trkpt>
      <trkpt lat="49.35114" lon="4.07244">
        <ele>140</ele>
        <time>2019-04-07T09:48:40Z</time>
      </trkpt>
      <trkpt lat="49.35117" lon="4.07246">
        <ele>140</ele>
        <time>2019-04-07T09:48:41Z</time>
      </trkpt>
      <trkpt lat="49.3512" lon="4.07248">
        <ele>140</ele>
        <time>2019-04-07T09:48:42Z</time>
      </trkpt>
      <trkpt lat="49.35123" lon="4.07251">
        <ele>140</ele>
        <time>2019-04-07T09:48:43Z</time>
      </trkpt>
      <trkpt lat="49.35127" lon="4.07255">
        <ele>140</ele>
        <time>2019-04-07T09:48:44Z</time>
      </trkpt>
      <trkpt lat="49.3513" lon="4.07257">
        <ele>140</ele>
        <time>2019-04-07T09:48:45Z</time>
      </trkpt>
      <trkpt lat="49.35133" lon="4.07261">
        <ele>140</ele>
        <time>2019-04-07T09:48:46Z</time>
      </trkpt>
      <trkpt lat="49.35136" lon="4.07264">
        <ele>140</ele>
        <time>2019-04-07T09:48:47Z</time>
      </trkpt>
      <trkpt lat="49.35139" lon="4.07268">
        <ele>140</ele>
        <time>2019-04-07T09:48:48Z</time>
      </trkpt>
      <trkpt lat="49.35142" lon="4.07273">
        <ele>140</ele>
        <time>2019-04-07T09:48:49Z</time>
      </trkpt>
      <trkpt lat="49.35145" lon="4.07277">
        <ele>139</ele>
        <time>2019-04-07T09:48:50Z</time>
      </trkpt>
      <trkpt lat="49.35148" lon="4.07281">
        <ele>139</ele>
        <time>2019-04-07T09:48:51Z</time>
      </trkpt>
      <trkpt lat="49.35151" lon="4.07284">
        <ele>140</ele>
        <time>2019-04-07T09:48:52Z</time>
      </trkpt>
      <trkpt lat="49.35155" lon="4.07288">
        <ele>139</ele>
        <time>2019-04-07T09:48:53Z</time>
      </trkpt>
      <trkpt lat="49.35159" lon="4.07291">
        <ele>139</ele>
        <time>2019-04-07T09:48:54Z</time>
      </trkpt>
      <trkpt lat="49.35162" lon="4.07295">
        <ele>139</ele>
        <time>2019-04-07T09:48:55Z</time>
      </trkpt>
      <trkpt lat="49.35166" lon="4.07301">
        <ele>139</ele>
        <time>2019-04-07T09:48:56Z</time>
      </trkpt>
      <trkpt lat="49.35171" lon="4.07306">
        <ele>139</ele>
        <time>2019-04-07T09:48:57Z</time>
      </trkpt>
      <trkpt lat="49.35175" lon="4.07311">
        <ele>139</ele>
        <time>2019-04-07T09:48:58Z</time>
      </trkpt>
      <trkpt lat="49.3518" lon="4.07316">
        <ele>139</ele>
        <time>2019-04-07T09:48:59Z</time>
      </trkpt>
      <trkpt lat="49.35184" lon="4.07321">
        <ele>139</ele>
        <time>2019-04-07T09:49:00Z</time>
      </trkpt>
      <trkpt lat="49.35189" lon="4.07327">
        <ele>139</ele>
        <time>2019-04-07T09:49:01Z</time>
      </trkpt>
      <trkpt lat="49.35193" lon="4.07332">
        <ele>139</ele>
        <time>2019-04-07T09:49:02Z</time>
      </trkpt>
      <trkpt lat="49.35196" lon="4.07338">
        <ele>140</ele>
        <time>2019-04-07T09:49:03Z</time>
      </trkpt>
      <trkpt lat="49.352" lon="4.07343">
        <ele>140</ele>
        <time>2019-04-07T09:49:04Z</time>
      </trkpt>
      <trkpt lat="49.35204" lon="4.07348">
        <ele>140</ele>
        <time>2019-04-07T09:49:05Z</time>
      </trkpt>
      <trkpt lat="49.35209" lon="4.07354">
        <ele>140</ele>
        <time>2019-04-07T09:49:06Z</time>
      </trkpt>
      <trkpt lat="49.35213" lon="4.07358">
        <ele>140</ele>
        <time>2019-04-07T09:49:07Z</time>
      </trkpt>
      <trkpt lat="49.35217" lon="4.07363">
        <ele>139</ele>
        <time>2019-04-07T09:49:08Z</time>
      </trkpt>
      <trkpt lat="49.35222" lon="4.07368">
        <ele>139</ele>
        <time>2019-04-07T09:49:09Z</time>
      </trkpt>
      <trkpt lat="49.35226" lon="4.07374">
        <ele>139</ele>
        <time>2019-04-07T09:49:10Z</time>
      </trkpt>
      <trkpt lat="49.3523" lon="4.07379">
        <ele>139</ele>
        <time>2019-04-07T09:49:11Z</time>
      </trkpt>
      <trkpt lat="49.35234" lon="4.07385">
        <ele>139</ele>
        <time>2019-04-07T09:49:12Z</time>
      </trkpt>
      <trkpt lat="49.35239" lon="4.0739">
        <ele>139</ele>
        <time>2019-04-07T09:49:13Z</time>
      </trkpt>
      <trkpt lat="49.35243" lon="4.07395">
        <ele>139</ele>
        <time>2019-04-07T09:49:14Z</time>
      </trkpt>
      <trkpt lat="49.35247" lon="4.074">
        <ele>139</ele>
        <time>2019-04-07T09:49:15Z</time>
      </trkpt>
      <trkpt lat="49.35251" lon="4.07405">
        <ele>139</ele>
        <time>2019-04-07T09:49:16Z</time>
      </trkpt>
      <trkpt lat="49.35255" lon="4.0741">
        <ele>140</ele>
        <time>2019-04-07T09:49:17Z</time>
      </trkpt>
      <trkpt lat="49.3526" lon="4.07415">
        <ele>139</ele>
        <time>2019-04-07T09:49:18Z</time>
      </trkpt>
      <trkpt lat="49.35264" lon="4.07421">
        <ele>140</ele>
        <time>2019-04-07T09:49:19Z</time>
      </trkpt>
      <trkpt lat="49.35268" lon="4.07426">
        <ele>140</ele>
        <time>2019-04-07T09:49:20Z</time>
      </trkpt>
      <trkpt lat="49.35272" lon="4.07432">
        <ele>139</ele>
        <time>2019-04-07T09:49:21Z</time>
      </trkpt>
      <trkpt lat="49.35277" lon="4.07437">
        <ele>139</ele>
        <time>2019-04-07T09:49:22Z</time>
      </trkpt>
      <trkpt lat="49.35282" lon="4.07443">
        <ele>139</ele>
        <time>2019-04-07T09:49:23Z</time>
      </trkpt>
      <trkpt lat="49.35287" lon="4.07449">
        <ele>139</ele>
        <time>2019-04-07T09:49:24Z</time>
      </trkpt>
      <trkpt lat="49.35292" lon="4.07454">
        <ele>139</ele>
        <time>2019-04-07T09:49:25Z</time>
      </trkpt>
      <trkpt lat="49.35296" lon="4.0746">
        <ele>139</ele>
        <time>2019-04-07T09:49:26Z</time>
      </trkpt>
      <trkpt lat="49.353" lon="4.07466">
        <ele>139</ele>
        <time>2019-04-07T09:49:27Z</time>
      </trkpt>
      <trkpt lat="49.35305" lon="4.07471">
        <ele>139</ele>
        <time>2019-04-07T09:49:28Z</time>
      </trkpt>
      <trkpt lat="49.35309" lon="4.07477">
        <ele>139</ele>
        <time>2019-04-07T09:49:29Z</time>
      </trkpt>
      <trkpt lat="49.35314" lon="4.07483">
        <ele>139</ele>
        <time>2019-04-07T09:49:30Z</time>
      </trkpt>
      <trkpt lat="49.35318" lon="4.07488">
        <ele>139</ele>
        <time>2019-04-07T09:49:31Z</time>
      </trkpt>
      <trkpt lat="49.35323" lon="4.07493">
        <ele>139</ele>
        <time>2019-04-07T09:49:32Z</time>
      </trkpt>
      <trkpt lat="49.35328" lon="4.07499">
        <ele>139</ele>
        <time>2019-04-07T09:49:33Z</time>
      </trkpt>
      <trkpt lat="49.35332" lon="4.07505">
        <ele>139</ele>
        <time>2019-04-07T09:49:34Z</time>
      </trkpt>
      <trkpt lat="49.35336" lon="4.0751">
        <ele>139</ele>
        <time>2019-04-07T09:49:35Z</time>
      </trkpt>
      <trkpt lat="49.35341" lon="4.07515">
        <ele>139</ele>
        <time>2019-04-07T09:49:36Z</time>
      </trkpt>
      <trkpt lat="49.35345" lon="4.07521">
        <ele>139</ele>
        <time>2019-04-07T09:49:37Z</time>
      </trkpt>
      <trkpt lat="49.3535" lon="4.07525">
        <ele>139</ele>
        <time>2019-04-07T09:49:38Z</time>
      </trkpt>
      <trkpt lat="49.35354" lon="4.0753">
        <ele>139</ele>
        <time>2019-04-07T09:49:39Z</time>
      </trkpt>
      <trkpt lat="49.35358" lon="4.07535">
        <ele>139</ele>
        <time>2019-04-07T09:49:40Z</time>
      </trkpt>
      <trkpt lat="49.35363" lon="4.07539">
        <ele>139</ele>
        <time>2019-04-07T09:49:41Z</time>
      </trkpt>
      <trkpt lat="49.35368" lon="4.07544">
        <ele>139</ele>
        <time>2019-04-07T09:49:42Z</time>
      </trkpt>
      <trkpt lat="49.35373" lon="4.07548">
        <ele>138</ele>
        <time>2019-04-07T09:49:43Z</time>
      </trkpt>
      <trkpt lat="49.35377" lon="4.07551">
        <ele>138</ele>
        <time>2019-04-07T09:49:44Z</time>
      </trkpt>
      <trkpt lat="49.35382" lon="4.07555">
        <ele>138</ele>
        <time>2019-04-07T09:49:45Z</time>
      </trkpt>
      <trkpt lat="49.35386" lon="4.07559">
        <ele>139</ele>
        <time>2019-04-07T09:49:46Z</time>
      </trkpt>
      <trkpt lat="49.35391" lon="4.07563">
        <ele>139</ele>
        <time>2019-04-07T09:49:47Z</time>
      </trkpt>
      <trkpt lat="49.35395" lon="4.07567">
        <ele>139</ele>
        <time>2019-04-07T09:49:48Z</time>
      </trkpt>
      <trkpt lat="49.354" lon="4.0757">
        <ele>139</ele>
        <time>2019-04-07T09:49:49Z</time>
      </trkpt>
      <trkpt lat="49.35405" lon="4.07574">
        <ele>139</ele>
        <time>2019-04-07T09:49:50Z</time>
      </trkpt>
      <trkpt lat="49.35409" lon="4.07577">
        <ele>139</ele>
        <time>2019-04-07T09:49:51Z</time>
      </trkpt>
      <trkpt lat="49.35414" lon="4.0758">
        <ele>139</ele>
        <time>2019-04-07T09:49:52Z</time>
      </trkpt>
      <trkpt lat="49.35419" lon="4.07584">
        <ele>139</ele>
        <time>2019-04-07T09:49:53Z</time>
      </trkpt>
      <trkpt lat="49.35424" lon="4.07587">
        <ele>139</ele>
        <time>2019-04-07T09:49:54Z</time>
      </trkpt>
      <trkpt lat="49.35429" lon="4.0759">
        <ele>139</ele>
        <time>2019-04-07T09:49:55Z</time>
      </trkpt>
      <trkpt lat="49.35434" lon="4.07593">
        <ele>139</ele>
        <time>2019-04-07T09:49:56Z</time>
      </trkpt>
      <trkpt lat="49.35438" lon="4.07596">
        <ele>139</ele>
        <time>2019-04-07T09:49:57Z</time>
      </trkpt>
      <trkpt lat="49.35443" lon="4.076">
        <ele>138</ele>
        <time>2019-04-07T09:49:58Z</time>
      </trkpt>
      <trkpt lat="49.35448" lon="4.07603">
        <ele>138</ele>
        <time>2019-04-07T09:49:59Z</time>
      </trkpt>
      <trkpt lat="49.35452" lon="4.07606">
        <ele>138</ele>
        <time>2019-04-07T09:50:00Z</time>
      </trkpt>
      <trkpt lat="49.35457" lon="4.07609">
        <ele>138</ele>
        <time>2019-04-07T09:50:01Z</time>
      </trkpt>
      <trkpt lat="49.35462" lon="4.07612">
        <ele>138</ele>
        <time>2019-04-07T09:50:02Z</time>
      </trkpt>
      <trkpt lat="49.35466" lon="4.07615">
        <ele>138</ele>
        <time>2019-04-07T09:50:03Z</time>
      </trkpt>
      <trkpt lat="49.35471" lon="4.07618">
        <ele>138</ele>
        <time>2019-04-07T09:50:04Z</time>
      </trkpt>
      <trkpt lat="49.35475" lon="4.07621">
        <ele>138</ele>
        <time>2019-04-07T09:50:05Z</time>
      </trkpt>
      <trkpt lat="49.3548" lon="4.07625">
        <ele>138</ele>
        <time>2019-04-07T09:50:06Z</time>
      </trkpt>
      <trkpt lat="49.35485" lon="4.07628">
        <ele>138</ele>
        <time>2019-04-07T09:50:07Z</time>
      </trkpt>
      <trkpt lat="49.35489" lon="4.07631">
        <ele>138</ele>
        <time>2019-04-07T09:50:08Z</time>
      </trkpt>
      <trkpt lat="49.35494" lon="4.07634">
        <ele>138</ele>
        <time>2019-04-07T09:50:09Z</time>
      </trkpt>
      <trkpt lat="49.35498" lon="4.07637">
        <ele>138</ele>
        <time>2019-04-07T09:50:10Z</time>
      </trkpt>
      <trkpt lat="49.35503" lon="4.0764">
        <ele>138</ele>
        <time>2019-04-07T09:50:11Z</time>
      </trkpt>
      <trkpt lat="49.35507" lon="4.07643">
        <ele>138</ele>
        <time>2019-04-07T09:50:12Z</time>
      </trkpt>
      <trkpt lat="49.35511" lon="4.07646">
        <ele>138</ele>
        <time>2019-04-07T09:50:13Z</time>
      </trkpt>
      <trkpt lat="49.35516" lon="4.07649">
        <ele>138</ele>
        <time>2019-04-07T09:50:14Z</time>
      </trkpt>
      <trkpt lat="49.35521" lon="4.07653">
        <ele>138</ele>
        <time>2019-04-07T09:50:15Z</time>
      </trkpt>
      <trkpt lat="49.35525" lon="4.07656">
        <ele>138</ele>
        <time>2019-04-07T09:50:16Z</time>
      </trkpt>
      <trkpt lat="49.3553" lon="4.07659">
        <ele>137</ele>
        <time>2019-04-07T09:50:17Z</time>
      </trkpt>
      <trkpt lat="49.35535" lon="4.07662">
        <ele>137</ele>
        <time>2019-04-07T09:50:18Z</time>
      </trkpt>
      <trkpt lat="49.3554" lon="4.07666">
        <ele>137</ele>
        <time>2019-04-07T09:50:19Z</time>
      </trkpt>
      <trkpt lat="49.35545" lon="4.07669">
        <ele>138</ele>
        <time>2019-04-07T09:50:20Z</time>
      </trkpt>
      <trkpt lat="49.3555" lon="4.07672">
        <ele>137</ele>
        <time>2019-04-07T09:50:21Z</time>
      </trkpt>
      <trkpt lat="49.35554" lon="4.07675">
        <ele>137</ele>
        <time>2019-04-07T09:50:22Z</time>
      </trkpt>
      <trkpt lat="49.35559" lon="4.07678">
        <ele>137</ele>
        <time>2019-04-07T09:50:23Z</time>
      </trkpt>
      <trkpt lat="49.35564" lon="4.07681">
        <ele>137</ele>
        <time>2019-04-07T09:50:24Z</time>
      </trkpt>
      <trkpt lat="49.35569" lon="4.07684">
        <ele>137</ele>
        <time>2019-04-07T09:50:25Z</time>
      </trkpt>
      <trkpt lat="49.35574" lon="4.07688">
        <ele>137</ele>
        <time>2019-04-07T09:50:26Z</time>
      </trkpt>
      <trkpt lat="49.35578" lon="4.07691">
        <ele>137</ele>
        <time>2019-04-07T09:50:27Z</time>
      </trkpt>
      <trkpt lat="49.35583" lon="4.07694">
        <ele>137</ele>
        <time>2019-04-07T09:50:28Z</time>
      </trkpt>
      <trkpt lat="49.35587" lon="4.07697">
        <ele>136</ele>
        <time>2019-04-07T09:50:29Z</time>
      </trkpt>
      <trkpt lat="49.35592" lon="4.07701">
        <ele>136</ele>
        <time>2019-04-07T09:50:30Z</time>
      </trkpt>
      <trkpt lat="49.35597" lon="4.07704">
        <ele>136</ele>
        <time>2019-04-07T09:50:31Z</time>
      </trkpt>
      <trkpt lat="49.35602" lon="4.07708">
        <ele>136</ele>
        <time>2019-04-07T09:50:32Z</time>
      </trkpt>
      <trkpt lat="49.35607" lon="4.07711">
        <ele>136</ele>
        <time>2019-04-07T09:50:33Z</time>
      </trkpt>
      <trkpt lat="49.35611" lon="4.07714">
        <ele>136</ele>
        <time>2019-04-07T09:50:34Z</time>
      </trkpt>
      <trkpt lat="49.35616" lon="4.07718">
        <ele>136</ele>
        <time>2019-04-07T09:50:35Z</time>
      </trkpt>
      <trkpt lat="49.3562" lon="4.07721">
        <ele>136</ele>
        <time>2019-04-07T09:50:36Z</time>
      </trkpt>
      <trkpt lat="49.35625" lon="4.07724">
        <ele>136</ele>
        <time>2019-04-07T09:50:37Z</time>
      </trkpt>
      <trkpt lat="49.35629" lon="4.07727">
        <ele>136</ele>
        <time>2019-04-07T09:50:38Z</time>
      </trkpt>
      <trkpt lat="49.35634" lon="4.0773">
        <ele>136</ele>
        <time>2019-04-07T09:50:39Z</time>
      </trkpt>
      <trkpt lat="49.35639" lon="4.07733">
        <ele>136</ele>
        <time>2019-04-07T09:50:40Z</time>
      </trkpt>
      <trkpt lat="49.35643" lon="4.07736">
        <ele>136</ele>
        <time>2019-04-07T09:50:41Z</time>
      </trkpt>
      <trkpt lat="49.35648" lon="4.07739">
        <ele>136</ele>
        <time>2019-04-07T09:50:42Z</time>
      </trkpt>
      <trkpt lat="49.35652" lon="4.07743">
        <ele>136</ele>
        <time>2019-04-07T09:50:43Z</time>
      </trkpt>
      <trkpt lat="49.35657" lon="4.07746">
        <ele>136</ele>
        <time>2019-04-07T09:50:44Z</time>
      </trkpt>
      <trkpt lat="49.35661" lon="4.07749">
        <ele>136</ele>
        <time>2019-04-07T09:50:45Z</time>
      </trkpt>
      <trkpt lat="49.35666" lon="4.07752">
        <ele>136</ele>
        <time>2019-04-07T09:50:46Z</time>
      </trkpt>
      <trkpt lat="49.3567" lon="4.07755">
        <ele>136</ele>
        <time>2019-04-07T09:50:47Z</time>
      </trkpt>
      <trkpt lat="49.35674" lon="4.07758">
        <ele>136</ele>
        <time>2019-04-07T09:50:48Z</time>
      </trkpt>
      <trkpt lat="49.35679" lon="4.07761">
        <ele>136</ele>
        <time>2019-04-07T09:50:49Z</time>
      </trkpt>
      <trkpt lat="49.35684" lon="4.07764">
        <ele>136</ele>
        <time>2019-04-07T09:50:50Z</time>
      </trkpt>
      <trkpt lat="49.35689" lon="4.07768">
        <ele>136</ele>
        <time>2019-04-07T09:50:51Z</time>
      </trkpt>
      <trkpt lat="49.35693" lon="4.07771">
        <ele>136</ele>
        <time>2019-04-07T09:50:52Z</time>
      </trkpt>
      <trkpt lat="49.35698" lon="4.07774">
        <ele>135</ele>
        <time>2019-04-07T09:50:53Z</time>
      </trkpt>
      <trkpt lat="49.35704" lon="4.07778">
        <ele>135</ele>
        <time>2019-04-07T09:50:54Z</time>
      </trkpt>
      <trkpt lat="49.35709" lon="4.07782">
        <ele>135</ele>
        <time>2019-04-07T09:50:55Z</time>
      </trkpt>
      <trkpt lat="49.35714" lon="4.07785">
        <ele>135</ele>
        <time>2019-04-07T09:50:56Z</time>
      </trkpt>
      <trkpt lat="49.3572" lon="4.07789">
        <ele>135</ele>
        <time>2019-04-07T09:50:57Z</time>
      </trkpt>
      <trkpt lat="49.35725" lon="4.07793">
        <ele>134</ele>
        <time>2019-04-07T09:50:58Z</time>
      </trkpt>
      <trkpt lat="49.35731" lon="4.07797">
        <ele>134</ele>
        <time>2019-04-07T09:50:59Z</time>
      </trkpt>
      <trkpt lat="49.35737" lon="4.07801">
        <ele>134</ele>
        <time>2019-04-07T09:51:00Z</time>
      </trkpt>
      <trkpt lat="49.35743" lon="4.07805">
        <ele>134</ele>
        <time>2019-04-07T09:51:01Z</time>
      </trkpt>
      <trkpt lat="49.35749" lon="4.07809">
        <ele>134</ele>
        <time>2019-04-07T09:51:02Z</time>
      </trkpt>
      <trkpt lat="49.35755" lon="4.07813">
        <ele>134</ele>
        <time>2019-04-07T09:51:03Z</time>
      </trkpt>
      <trkpt lat="49.35761" lon="4.07817">
        <ele>134</ele>
        <time>2019-04-07T09:51:04Z</time>
      </trkpt>
      <trkpt lat="49.35767" lon="4.07821">
        <ele>134</ele>
        <time>2019-04-07T09:51:05Z</time>
      </trkpt>
      <trkpt lat="49.35773" lon="4.07826">
        <ele>134</ele>
        <time>2019-04-07T09:51:06Z</time>
      </trkpt>
      <trkpt lat="49.3578" lon="4.0783">
        <ele>133</ele>
        <time>2019-04-07T09:51:07Z</time>
      </trkpt>
      <trkpt lat="49.35786" lon="4.07835">
        <ele>134</ele>
        <time>2019-04-07T09:51:08Z</time>
      </trkpt>
      <trkpt lat="49.35792" lon="4.07839">
        <ele>133</ele>
        <time>2019-04-07T09:51:09Z</time>
      </trkpt>
      <trkpt lat="49.35797" lon="4.07843">
        <ele>133</ele>
        <time>2019-04-07T09:51:10Z</time>
      </trkpt>
      <trkpt lat="49.35803" lon="4.07847">
        <ele>133</ele>
        <time>2019-04-07T09:51:11Z</time>
      </trkpt>
      <trkpt lat="49.35809" lon="4.07851">
        <ele>133</ele>
        <time>2019-04-07T09:51:12Z</time>
      </trkpt>
      <trkpt lat="49.35816" lon="4.07855">
        <ele>133</ele>
        <time>2019-04-07T09:51:13Z</time>
      </trkpt>
      <trkpt lat="49.35822" lon="4.07859">
        <ele>133</ele>
        <time>2019-04-07T09:51:14Z</time>
      </trkpt>
      <trkpt lat="49.35828" lon="4.07864">
        <ele>133</ele>
        <time>2019-04-07T09:51:15Z</time>
      </trkpt>
      <trkpt lat="49.35835" lon="4.07868">
        <ele>133</ele>
        <time>2019-04-07T09:51:16Z</time>
      </trkpt>
      <trkpt lat="49.35841" lon="4.07873">
        <ele>132</ele>
        <time>2019-04-07T09:51:17Z</time>
      </trkpt>
      <trkpt lat="49.35847" lon="4.07877">
        <ele>132</ele>
        <time>2019-04-07T09:51:18Z</time>
      </trkpt>
      <trkpt lat="49.35854" lon="4.07882">
        <ele>132</ele>
        <time>2019-04-07T09:51:19Z</time>
      </trkpt>
      <trkpt lat="49.3586" lon="4.07886">
        <ele>132</ele>
        <time>2019-04-07T09:51:20Z</time>
      </trkpt>
      <trkpt lat="49.35866" lon="4.0789">
        <ele>132</ele>
        <time>2019-04-07T09:51:21Z</time>
      </trkpt>
      <trkpt lat="49.35873" lon="4.07894">
        <ele>132</ele>
        <time>2019-04-07T09:51:22Z</time>
      </trkpt>
      <trkpt lat="49.35879" lon="4.07898">
        <ele>132</ele>
        <time>2019-04-07T09:51:23Z</time>
      </trkpt>
      <trkpt lat="49.35885" lon="4.07902">
        <ele>132</ele>
        <time>2019-04-07T09:51:24Z</time>
      </trkpt>
      <trkpt lat="49.35891" lon="4.07907">
        <ele>131</ele>
        <time>2019-04-07T09:51:25Z</time>
      </trkpt>
      <trkpt lat="49.35898" lon="4.07911">
        <ele>131</ele>
        <time>2019-04-07T09:51:26Z</time>
      </trkpt>
      <trkpt lat="49.35904" lon="4.07916">
        <ele>130</ele>
        <time>2019-04-07T09:51:27Z</time>
      </trkpt>
      <trkpt lat="49.35911" lon="4.0792">
        <ele>130</ele>
        <time>2019-04-07T09:51:28Z</time>
      </trkpt>
      <trkpt lat="49.35917" lon="4.07924">
        <ele>130</ele>
        <time>2019-04-07T09:51:29Z</time>
      </trkpt>
      <trkpt lat="49.35924" lon="4.07929">
        <ele>129</ele>
        <time>2019-04-07T09:51:30Z</time>
      </trkpt>
      <trkpt lat="49.3593" lon="4.07934">
        <ele>129</ele>
        <time>2019-04-07T09:51:31Z</time>
      </trkpt>
      <trkpt lat="49.35936" lon="4.07938">
        <ele>129</ele>
        <time>2019-04-07T09:51:32Z</time>
      </trkpt>
      <trkpt lat="49.35942" lon="4.07942">
        <ele>129</ele>
        <time>2019-04-07T09:51:33Z</time>
      </trkpt>
      <trkpt lat="49.35948" lon="4.07946">
        <ele>129</ele>
        <time>2019-04-07T09:51:34Z</time>
      </trkpt>
      <trkpt lat="49.35954" lon="4.0795">
        <ele>129</ele>
        <time>2019-04-07T09:51:35Z</time>
      </trkpt>
      <trkpt lat="49.35959" lon="4.07954">
        <ele>128</ele>
        <time>2019-04-07T09:51:36Z</time>
      </trkpt>
      <trkpt lat="49.35965" lon="4.07958">
        <ele>128</ele>
        <time>2019-04-07T09:51:37Z</time>
      </trkpt>
      <trkpt lat="49.35971" lon="4.07962">
        <ele>128</ele>
        <time>2019-04-07T09:51:38Z</time>
      </trkpt>
      <trkpt lat="49.35977" lon="4.07967">
        <ele>128</ele>
        <time>2019-04-07T09:51:39Z</time>
      </trkpt>
      <trkpt lat="49.35983" lon="4.0797">
        <ele>128</ele>
        <time>2019-04-07T09:51:40Z</time>
      </trkpt>
      <trkpt lat="49.35989" lon="4.07974">
        <ele>127</ele>
        <time>2019-04-07T09:51:41Z</time>
      </trkpt>
      <trkpt lat="49.35995" lon="4.07978">
        <ele>127</ele>
        <time>2019-04-07T09:51:42Z</time>
      </trkpt>
      <trkpt lat="49.36001" lon="4.07982">
        <ele>127</ele>
        <time>2019-04-07T09:51:43Z</time>
      </trkpt>
      <trkpt lat="49.36007" lon="4.07986">
        <ele>127</ele>
        <time>2019-04-07T09:51:44Z</time>
      </trkpt>
      <trkpt lat="49.36013" lon="4.07989">
        <ele>127</ele>
        <time>2019-04-07T09:51:45Z</time>
      </trkpt>
      <trkpt lat="49.36018" lon="4.07994">
        <ele>127</ele>
        <time>2019-04-07T09:51:46Z</time>
      </trkpt>
      <trkpt lat="49.36024" lon="4.07997">
        <ele>127</ele>
        <time>2019-04-07T09:51:47Z</time>
      </trkpt>
      <trkpt lat="49.3603" lon="4.08001">
        <ele>127</ele>
        <time>2019-04-07T09:51:48Z</time>
      </trkpt>
      <trkpt lat="49.36036" lon="4.08006">
        <ele>127</ele>
        <time>2019-04-07T09:51:49Z</time>
      </trkpt>
      <trkpt lat="49.36042" lon="4.0801">
        <ele>126</ele>
        <time>2019-04-07T09:51:50Z</time>
      </trkpt>
      <trkpt lat="49.36047" lon="4.08014">
        <ele>127</ele>
        <time>2019-04-07T09:51:51Z</time>
      </trkpt>
      <trkpt lat="49.36053" lon="4.08017">
        <ele>126</ele>
        <time>2019-04-07T09:51:52Z</time>
      </trkpt>
      <trkpt lat="49.36058" lon="4.08021">
        <ele>126</ele>
        <time>2019-04-07T09:51:53Z</time>
      </trkpt>
      <trkpt lat="49.36064" lon="4.08025">
        <ele>126</ele>
        <time>2019-04-07T09:51:54Z</time>
      </trkpt>
      <trkpt lat="49.3607" lon="4.08029">
        <ele>126</ele>
        <time>2019-04-07T09:51:55Z</time>
      </trkpt>
      <trkpt lat="49.36075" lon="4.08033">
        <ele>126</ele>
        <time>2019-04-07T09:51:56Z</time>
      </trkpt>
      <trkpt lat="49.36081" lon="4.08036">
        <ele>126</ele>
        <time>2019-04-07T09:51:57Z</time>
      </trkpt>
      <trkpt lat="49.36086" lon="4.0804">
        <ele>126</ele>
        <time>2019-04-07T09:51:58Z</time>
      </trkpt>
      <trkpt lat="49.36092" lon="4.08045">
        <ele>126</ele>
        <time>2019-04-07T09:51:59Z</time>
      </trkpt>
      <trkpt lat="49.36097" lon="4.08048">
        <ele>126</ele>
        <time>2019-04-07T09:52:00Z</time>
      </trkpt>
      <trkpt lat="49.36103" lon="4.08052">
        <ele>126</ele>
        <time>2019-04-07T09:52:01Z</time>
      </trkpt>
      <trkpt lat="49.3611" lon="4.08056">
        <ele>126</ele>
        <time>2019-04-07T09:52:02Z</time>
      </trkpt>
      <trkpt lat="49.36116" lon="4.0806">
        <ele>126</ele>
        <time>2019-04-07T09:52:03Z</time>
      </trkpt>
      <trkpt lat="49.36122" lon="4.08064">
        <ele>125</ele>
        <time>2019-04-07T09:52:04Z</time>
      </trkpt>
      <trkpt lat="49.36128" lon="4.08069">
        <ele>125</ele>
        <time>2019-04-07T09:52:05Z</time>
      </trkpt>
      <trkpt lat="49.36134" lon="4.08073">
        <ele>125</ele>
        <time>2019-04-07T09:52:06Z</time>
      </trkpt>
      <trkpt lat="49.36139" lon="4.08077">
        <ele>125</ele>
        <time>2019-04-07T09:52:07Z</time>
      </trkpt>
      <trkpt lat="49.36145" lon="4.0808">
        <ele>125</ele>
        <time>2019-04-07T09:52:08Z</time>
      </trkpt>
      <trkpt lat="49.36151" lon="4.08085">
        <ele>125</ele>
        <time>2019-04-07T09:52:09Z</time>
      </trkpt>
      <trkpt lat="49.36157" lon="4.08089">
        <ele>125</ele>
        <time>2019-04-07T09:52:10Z</time>
      </trkpt>
      <trkpt lat="49.36163" lon="4.08093">
        <ele>125</ele>
        <time>2019-04-07T09:52:11Z</time>
      </trkpt>
      <trkpt lat="49.3617" lon="4.08097">
        <ele>124</ele>
        <time>2019-04-07T09:52:12Z</time>
      </trkpt>
      <trkpt lat="49.36177" lon="4.08102">
        <ele>124</ele>
        <time>2019-04-07T09:52:13Z</time>
      </trkpt>
      <trkpt lat="49.36183" lon="4.08106">
        <ele>124</ele>
        <time>2019-04-07T09:52:14Z</time>
      </trkpt>
      <trkpt lat="49.3619" lon="4.08111">
        <ele>124</ele>
        <time>2019-04-07T09:52:15Z</time>
      </trkpt>
      <trkpt lat="49.36196" lon="4.08116">
        <ele>124</ele>
        <time>2019-04-07T09:52:16Z</time>
      </trkpt>
      <trkpt lat="49.36203" lon="4.08121">
        <ele>124</ele>
        <time>2019-04-07T09:52:17Z</time>
      </trkpt>
      <trkpt lat="49.3621" lon="4.08125">
        <ele>124</ele>
        <time>2019-04-07T09:52:18Z</time>
      </trkpt>
      <trkpt lat="49.36217" lon="4.0813">
        <ele>124</ele>
        <time>2019-04-07T09:52:19Z</time>
      </trkpt>
      <trkpt lat="49.36223" lon="4.08135">
        <ele>124</ele>
        <time>2019-04-07T09:52:20Z</time>
      </trkpt>
      <trkpt lat="49.3623" lon="4.0814">
        <ele>124</ele>
        <time>2019-04-07T09:52:21Z</time>
      </trkpt>
      <trkpt lat="49.36237" lon="4.08144">
        <ele>123</ele>
        <time>2019-04-07T09:52:22Z</time>
      </trkpt>
      <trkpt lat="49.36244" lon="4.0815">
        <ele>123</ele>
        <time>2019-04-07T09:52:23Z</time>
      </trkpt>
      <trkpt lat="49.36252" lon="4.08155">
        <ele>123</ele>
        <time>2019-04-07T09:52:24Z</time>
      </trkpt>
      <trkpt lat="49.3626" lon="4.0816">
        <ele>123</ele>
        <time>2019-04-07T09:52:25Z</time>
      </trkpt>
      <trkpt lat="49.36267" lon="4.08166">
        <ele>122</ele>
        <time>2019-04-07T09:52:26Z</time>
      </trkpt>
      <trkpt lat="49.36275" lon="4.08171">
        <ele>122</ele>
        <time>2019-04-07T09:52:27Z</time>
      </trkpt>
      <trkpt lat="49.36283" lon="4.08176">
        <ele>121</ele>
        <time>2019-04-07T09:52:28Z</time>
      </trkpt>
      <trkpt lat="49.36291" lon="4.08182">
        <ele>121</ele>
        <time>2019-04-07T09:52:29Z</time>
      </trkpt>
      <trkpt lat="49.36299" lon="4.08187">
        <ele>121</ele>
        <time>2019-04-07T09:52:30Z</time>
      </trkpt>
      <trkpt lat="49.36307" lon="4.08192">
        <ele>121</ele>
        <time>2019-04-07T09:52:31Z</time>
      </trkpt>
      <trkpt lat="49.36315" lon="4.08198">
        <ele>120</ele>
        <time>2019-04-07T09:52:32Z</time>
      </trkpt>
      <trkpt lat="49.36323" lon="4.08204">
        <ele>120</ele>
        <time>2019-04-07T09:52:33Z</time>
      </trkpt>
      <trkpt lat="49.36331" lon="4.0821">
        <ele>120</ele>
        <time>2019-04-07T09:52:34Z</time>
      </trkpt>
      <trkpt lat="49.3634" lon="4.08216">
        <ele>119</ele>
        <time>2019-04-07T09:52:35Z</time>
      </trkpt>
      <trkpt lat="49.36348" lon="4.08223">
        <ele>119</ele>
        <time>2019-04-07T09:52:36Z</time>
      </trkpt>
      <trkpt lat="49.36356" lon="4.08228">
        <ele>119</ele>
        <time>2019-04-07T09:52:37Z</time>
      </trkpt>
      <trkpt lat="49.36365" lon="4.08234">
        <ele>118</ele>
        <time>2019-04-07T09:52:38Z</time>
      </trkpt>
      <trkpt lat="49.36373" lon="4.0824">
        <ele>118</ele>
        <time>2019-04-07T09:52:39Z</time>
      </trkpt>
      <trkpt lat="49.3638" lon="4.08245">
        <ele>118</ele>
        <time>2019-04-07T09:52:40Z</time>
      </trkpt>
      <trkpt lat="49.36388" lon="4.08251">
        <ele>117</ele>
        <time>2019-04-07T09:52:41Z</time>
      </trkpt>
      <trkpt lat="49.36396" lon="4.08256">
        <ele>117</ele>
        <time>2019-04-07T09:52:42Z</time>
      </trkpt>
      <trkpt lat="49.36404" lon="4.08262">
        <ele>117</ele>
        <time>2019-04-07T09:52:43Z</time>
      </trkpt>
      <trkpt lat="49.36412" lon="4.08267">
        <ele>117</ele>
        <time>2019-04-07T09:52:44Z</time>
      </trkpt>
      <trkpt lat="49.3642" lon="4.08272">
        <ele>117</ele>
        <time>2019-04-07T09:52:45Z</time>
      </trkpt>
      <trkpt lat="49.36427" lon="4.08276">
        <ele>117</ele>
        <time>2019-04-07T09:52:46Z</time>
      </trkpt>
      <trkpt lat="49.36434" lon="4.08281">
        <ele>117</ele>
        <time>2019-04-07T09:52:47Z</time>
      </trkpt>
      <trkpt lat="49.36441" lon="4.08286">
        <ele>117</ele>
        <time>2019-04-07T09:52:48Z</time>
      </trkpt>
      <trkpt lat="49.36447" lon="4.0829">
        <ele>117</ele>
        <time>2019-04-07T09:52:49Z</time>
      </trkpt>
      <trkpt lat="49.36453" lon="4.08294">
        <ele>116</ele>
        <time>2019-04-07T09:52:50Z</time>
      </trkpt>
      <trkpt lat="49.36459" lon="4.08299">
        <ele>117</ele>
        <time>2019-04-07T09:52:51Z</time>
      </trkpt>
      <trkpt lat="49.36465" lon="4.08303">
        <ele>117</ele>
        <time>2019-04-07T09:52:52Z</time>
      </trkpt>
      <trkpt lat="49.36471" lon="4.08307">
        <ele>117</ele>
        <time>2019-04-07T09:52:53Z</time>
      </trkpt>
      <trkpt lat="49.36476" lon="4.0831">
        <ele>118</ele>
        <time>2019-04-07T09:52:54Z</time>
      </trkpt>
      <trkpt lat="49.36482" lon="4.08313">
        <ele>118</ele>
        <time>2019-04-07T09:52:55Z</time>
      </trkpt>
      <trkpt lat="49.36487" lon="4.08317">
        <ele>118</ele>
        <time>2019-04-07T09:52:56Z</time>
      </trkpt>
      <trkpt lat="49.36492" lon="4.08321">
        <ele>118</ele>
        <time>2019-04-07T09:52:57Z</time>
      </trkpt>
      <trkpt lat="49.36497" lon="4.08324">
        <ele>118</ele>
        <time>2019-04-07T09:52:58Z</time>
      </trkpt>
      <trkpt lat="49.36502" lon="4.08328">
        <ele>119</ele>
        <time>2019-04-07T09:52:59Z</time>
      </trkpt>
      <trkpt lat="49.36507" lon="4.08331">
        <ele>119</ele>
        <time>2019-04-07T09:53:00Z</time>
      </trkpt>
      <trkpt lat="49.36511" lon="4.08334">
        <ele>119</ele>
        <time>2019-04-07T09:53:01Z</time>
      </trkpt>
      <trkpt lat="49.36516" lon="4.08337">
        <ele>119</ele>
        <time>2019-04-07T09:53:02Z</time>
      </trkpt>
      <trkpt lat="49.3652" lon="4.0834">
        <ele>118</ele>
        <time>2019-04-07T09:53:03Z</time>
      </trkpt>
      <trkpt lat="49.36524" lon="4.08343">
        <ele>118</ele>
        <time>2019-04-07T09:53:04Z</time>
      </trkpt>
      <trkpt lat="49.36529" lon="4.08345">
        <ele>118</ele>
        <time>2019-04-07T09:53:05Z</time>
      </trkpt>
      <trkpt lat="49.36534" lon="4.08349">
        <ele>118</ele>
        <time>2019-04-07T09:53:06Z</time>
      </trkpt>
      <trkpt lat="49.36538" lon="4.08352">
        <ele>118</ele>
        <time>2019-04-07T09:53:07Z</time>
      </trkpt>
      <trkpt lat="49.36542" lon="4.08354">
        <ele>118</ele>
        <time>2019-04-07T09:53:08Z</time>
      </trkpt>
      <trkpt lat="49.36546" lon="4.08356">
        <ele>119</ele>
        <time>2019-04-07T09:53:09Z</time>
      </trkpt>
      <trkpt lat="49.3655" lon="4.0836">
        <ele>119</ele>
        <time>2019-04-07T09:53:10Z</time>
      </trkpt>
      <trkpt lat="49.36554" lon="4.08362">
        <ele>119</ele>
        <time>2019-04-07T09:53:11Z</time>
      </trkpt>
      <trkpt lat="49.36558" lon="4.08365">
        <ele>119</ele>
        <time>2019-04-07T09:53:12Z</time>
      </trkpt>
      <trkpt lat="49.36562" lon="4.08368">
        <ele>119</ele>
        <time>2019-04-07T09:53:13Z</time>
      </trkpt>
      <trkpt lat="49.36566" lon="4.08371">
        <ele>119</ele>
        <time>2019-04-07T09:53:14Z</time>
      </trkpt>
      <trkpt lat="49.3657" lon="4.08373">
        <ele>119</ele>
        <time>2019-04-07T09:53:15Z</time>
      </trkpt>
      <trkpt lat="49.36574" lon="4.08376">
        <ele>119</ele>
        <time>2019-04-07T09:53:16Z</time>
      </trkpt>
      <trkpt lat="49.36578" lon="4.08379">
        <ele>119</ele>
        <time>2019-04-07T09:53:17Z</time>
      </trkpt>
      <trkpt lat="49.36582" lon="4.08382">
        <ele>119</ele>
        <time>2019-04-07T09:53:18Z</time>
      </trkpt>
      <trkpt lat="49.36586" lon="4.08385">
        <ele>119</ele>
        <time>2019-04-07T09:53:19Z</time>
      </trkpt>
      <trkpt lat="49.3659" lon="4.08388">
        <ele>119</ele>
        <time>2019-04-07T09:53:20Z</time>
      </trkpt>
      <trkpt lat="49.36594" lon="4.0839">
        <ele>119</ele>
        <time>2019-04-07T09:53:21Z</time>
      </trkpt>
      <trkpt lat="49.36598" lon="4.08393">
        <ele>119</ele>
        <time>2019-04-07T09:53:22Z</time>
      </trkpt>
      <trkpt lat="49.36602" lon="4.08395">
        <ele>119</ele>
        <time>2019-04-07T09:53:23Z</time>
      </trkpt>
      <trkpt lat="49.36606" lon="4.08398">
        <ele>119</ele>
        <time>2019-04-07T09:53:24Z</time>
      </trkpt>
      <trkpt lat="49.3661" lon="4.084">
        <ele>119</ele>
        <time>2019-04-07T09:53:25Z</time>
      </trkpt>
      <trkpt lat="49.36614" lon="4.08403">
        <ele>120</ele>
        <time>2019-04-07T09:53:26Z</time>
      </trkpt>
      <trkpt lat="49.36618" lon="4.08406">
        <ele>120</ele>
        <time>2019-04-07T09:53:27Z</time>
      </trkpt>
      <trkpt lat="49.36622" lon="4.08409">
        <ele>120</ele>
        <time>2019-04-07T09:53:28Z</time>
      </trkpt>
      <trkpt lat="49.36626" lon="4.08412">
        <ele>120</ele>
        <time>2019-04-07T09:53:29Z</time>
      </trkpt>
      <trkpt lat="49.3663" lon="4.08415">
        <ele>120</ele>
        <time>2019-04-07T09:53:30Z</time>
      </trkpt>
      <trkpt lat="49.36634" lon="4.08417">
        <ele>120</ele>
        <time>2019-04-07T09:53:31Z</time>
      </trkpt>
      <trkpt lat="49.36638" lon="4.0842">
        <ele>120</ele>
        <time>2019-04-07T09:53:32Z</time>
      </trkpt>
      <trkpt lat="49.36642" lon="4.08423">
        <ele>120</ele>
        <time>2019-04-07T09:53:33Z</time>
      </trkpt>
      <trkpt lat="49.36646" lon="4.08426">
        <ele>120</ele>
        <time>2019-04-07T09:53:34Z</time>
      </trkpt>
      <trkpt lat="49.3665" lon="4.08429">
        <ele>120</ele>
        <time>2019-04-07T09:53:35Z</time>
      </trkpt>
      <trkpt lat="49.36654" lon="4.08432">
        <ele>121</ele>
        <time>2019-04-07T09:53:36Z</time>
      </trkpt>
      <trkpt lat="49.36658" lon="4.08434">
        <ele>121</ele>
        <time>2019-04-07T09:53:37Z</time>
      </trkpt>
      <trkpt lat="49.36662" lon="4.08437">
        <ele>121</ele>
        <time>2019-04-07T09:53:38Z</time>
      </trkpt>
      <trkpt lat="49.36666" lon="4.0844">
        <ele>121</ele>
        <time>2019-04-07T09:53:39Z</time>
      </trkpt>
      <trkpt lat="49.36671" lon="4.08443">
        <ele>121</ele>
        <time>2019-04-07T09:53:40Z</time>
      </trkpt>
      <trkpt lat="49.36675" lon="4.08445">
        <ele>121</ele>
        <time>2019-04-07T09:53:41Z</time>
      </trkpt>
      <trkpt lat="49.36679" lon="4.08449">
        <ele>121</ele>
        <time>2019-04-07T09:53:42Z</time>
      </trkpt>
      <trkpt lat="49.36684" lon="4.08452">
        <ele>122</ele>
        <time>2019-04-07T09:53:43Z</time>
      </trkpt>
      <trkpt lat="49.36688" lon="4.08455">
        <ele>122</ele>
        <time>2019-04-07T09:53:44Z</time>
      </trkpt>
      <trkpt lat="49.36692" lon="4.08458">
        <ele>122</ele>
        <time>2019-04-07T09:53:45Z</time>
      </trkpt>
      <trkpt lat="49.36697" lon="4.08461">
        <ele>122</ele>
        <time>2019-04-07T09:53:46Z</time>
      </trkpt>
      <trkpt lat="49.36701" lon="4.08464">
        <ele>122</ele>
        <time>2019-04-07T09:53:47Z</time>
      </trkpt>
      <trkpt lat="49.36706" lon="4.08466">
        <ele>122</ele>
        <time>2019-04-07T09:53:48Z</time>
      </trkpt>
      <trkpt lat="49.3671" lon="4.0847">
        <ele>122</ele>
        <time>2019-04-07T09:53:49Z</time>
      </trkpt>
      <trkpt lat="49.36715" lon="4.08472">
        <ele>122</ele>
        <time>2019-04-07T09:53:50Z</time>
      </trkpt>
      <trkpt lat="49.36719" lon="4.08476">
        <ele>122</ele>
        <time>2019-04-07T09:53:51Z</time>
      </trkpt>
      <trkpt lat="49.36723" lon="4.08479">
        <ele>122</ele>
        <time>2019-04-07T09:53:52Z</time>
      </trkpt>
      <trkpt lat="49.36728" lon="4.08482">
        <ele>121</ele>
        <time>2019-04-07T09:53:53Z</time>
      </trkpt>
      <trkpt lat="49.36732" lon="4.08485">
        <ele>121</ele>
        <time>2019-04-07T09:53:54Z</time>
      </trkpt>
      <trkpt lat="49.36737" lon="4.08488">
        <ele>122</ele>
        <time>2019-04-07T09:53:55Z</time>
      </trkpt>
      <trkpt lat="49.36741" lon="4.08491">
        <ele>122</ele>
        <time>2019-04-07T09:53:56Z</time>
      </trkpt>
      <trkpt lat="49.36745" lon="4.08494">
        <ele>122</ele>
        <time>2019-04-07T09:53:57Z</time>
      </trkpt>
      <trkpt lat="49.3675" lon="4.08497">
        <ele>122</ele>
        <time>2019-04-07T09:53:58Z</time>
      </trkpt>
      <trkpt lat="49.36754" lon="4.085">
        <ele>122</ele>
        <time>2019-04-07T09:53:59Z</time>
      </trkpt>
      <trkpt lat="49.36758" lon="4.08503">
        <ele>122</ele>
        <time>2019-04-07T09:54:00Z</time>
      </trkpt>
      <trkpt lat="49.36762" lon="4.08506">
        <ele>122</ele>
        <time>2019-04-07T09:54:01Z</time>
      </trkpt>
      <trkpt lat="49.36766" lon="4.08509">
        <ele>123</ele>
        <time>2019-04-07T09:54:02Z</time>
      </trkpt>
      <trkpt lat="49.36771" lon="4.08512">
        <ele>123</ele>
        <time>2019-04-07T09:54:03Z</time>
      </trkpt>
      <trkpt lat="49.36775" lon="4.08515">
        <ele>123</ele>
        <time>2019-04-07T09:54:04Z</time>
      </trkpt>
      <trkpt lat="49.3678" lon="4.08518">
        <ele>123</ele>
        <time>2019-04-07T09:54:05Z</time>
      </trkpt>
      <trkpt lat="49.36784" lon="4.0852">
        <ele>124</ele>
        <time>2019-04-07T09:54:06Z</time>
      </trkpt>
      <trkpt lat="49.36788" lon="4.08523">
        <ele>124</ele>
        <time>2019-04-07T09:54:07Z</time>
      </trkpt>
      <trkpt lat="49.36792" lon="4.08526">
        <ele>124</ele>
        <time>2019-04-07T09:54:08Z</time>
      </trkpt>
      <trkpt lat="49.36796" lon="4.08528">
        <ele>124</ele>
        <time>2019-04-07T09:54:09Z</time>
      </trkpt>
      <trkpt lat="49.368" lon="4.08531">
        <ele>125</ele>
        <time>2019-04-07T09:54:10Z</time>
      </trkpt>
      <trkpt lat="49.36804" lon="4.08534">
        <ele>124</ele>
        <time>2019-04-07T09:54:11Z</time>
      </trkpt>
      <trkpt lat="49.36808" lon="4.08537">
        <ele>125</ele>
        <time>2019-04-07T09:54:12Z</time>
      </trkpt>
      <trkpt lat="49.36813" lon="4.0854">
        <ele>125</ele>
        <time>2019-04-07T09:54:13Z</time>
      </trkpt>
      <trkpt lat="49.36816" lon="4.08543">
        <ele>125</ele>
        <time>2019-04-07T09:54:14Z</time>
      </trkpt>
      <trkpt lat="49.36821" lon="4.08545">
        <ele>125</ele>
        <time>2019-04-07T09:54:15Z</time>
      </trkpt>
      <trkpt lat="49.36825" lon="4.08548">
        <ele>125</ele>
        <time>2019-04-07T09:54:16Z</time>
      </trkpt>
      <trkpt lat="49.36829" lon="4.08551">
        <ele>125</ele>
        <time>2019-04-07T09:54:17Z</time>
      </trkpt>
      <trkpt lat="49.36832" lon="4.08554">
        <ele>125</ele>
        <time>2019-04-07T09:54:18Z</time>
      </trkpt>
      <trkpt lat="49.36836" lon="4.08557">
        <ele>125</ele>
        <time>2019-04-07T09:54:19Z</time>
      </trkpt>
      <trkpt lat="49.3684" lon="4.0856">
        <ele>125</ele>
        <time>2019-04-07T09:54:20Z</time>
      </trkpt>
      <trkpt lat="49.36845" lon="4.08563">
        <ele>125</ele>
        <time>2019-04-07T09:54:21Z</time>
      </trkpt>
      <trkpt lat="49.36849" lon="4.08566">
        <ele>125</ele>
        <time>2019-04-07T09:54:22Z</time>
      </trkpt>
      <trkpt lat="49.36853" lon="4.08569">
        <ele>125</ele>
        <time>2019-04-07T09:54:23Z</time>
      </trkpt>
      <trkpt lat="49.36858" lon="4.08572">
        <ele>125</ele>
        <time>2019-04-07T09:54:24Z</time>
      </trkpt>
      <trkpt lat="49.36862" lon="4.08575">
        <ele>125</ele>
        <time>2019-04-07T09:54:25Z</time>
      </trkpt>
      <trkpt lat="49.36866" lon="4.08577">
        <ele>125</ele>
        <time>2019-04-07T09:54:26Z</time>
      </trkpt>
      <trkpt lat="49.36871" lon="4.0858">
        <ele>125</ele>
        <time>2019-04-07T09:54:27Z</time>
      </trkpt>
      <trkpt lat="49.36875" lon="4.08584">
        <ele>125</ele>
        <time>2019-04-07T09:54:28Z</time>
      </trkpt>
      <trkpt lat="49.36879" lon="4.08587">
        <ele>126</ele>
        <time>2019-04-07T09:54:29Z</time>
      </trkpt>
      <trkpt lat="49.36883" lon="4.0859">
        <ele>126</ele>
        <time>2019-04-07T09:54:30Z</time>
      </trkpt>
      <trkpt lat="49.36888" lon="4.08593">
        <ele>126</ele>
        <time>2019-04-07T09:54:31Z</time>
      </trkpt>
      <trkpt lat="49.36892" lon="4.08596">
        <ele>126</ele>
        <time>2019-04-07T09:54:32Z</time>
      </trkpt>
      <trkpt lat="49.36896" lon="4.08598">
        <ele>126</ele>
        <time>2019-04-07T09:54:33Z</time>
      </trkpt>
      <trkpt lat="49.369" lon="4.08601">
        <ele>126</ele>
        <time>2019-04-07T09:54:34Z</time>
      </trkpt>
      <trkpt lat="49.36905" lon="4.08604">
        <ele>126</ele>
        <time>2019-04-07T09:54:35Z</time>
      </trkpt>
      <trkpt lat="49.36909" lon="4.08607">
        <ele>127</ele>
        <time>2019-04-07T09:54:36Z</time>
      </trkpt>
      <trkpt lat="49.36913" lon="4.08609">
        <ele>127</ele>
        <time>2019-04-07T09:54:37Z</time>
      </trkpt>
      <trkpt lat="49.36917" lon="4.08612">
        <ele>127</ele>
        <time>2019-04-07T09:54:38Z</time>
      </trkpt>
      <trkpt lat="49.36921" lon="4.08615">
        <ele>127</ele>
        <time>2019-04-07T09:54:39Z</time>
      </trkpt>
      <trkpt lat="49.36925" lon="4.08618">
        <ele>127</ele>
        <time>2019-04-07T09:54:40Z</time>
      </trkpt>
      <trkpt lat="49.36929" lon="4.08621">
        <ele>127</ele>
        <time>2019-04-07T09:54:41Z</time>
      </trkpt>
      <trkpt lat="49.36934" lon="4.08624">
        <ele>127</ele>
        <time>2019-04-07T09:54:42Z</time>
      </trkpt>
      <trkpt lat="49.36938" lon="4.08627">
        <ele>127</ele>
        <time>2019-04-07T09:54:43Z</time>
      </trkpt>
      <trkpt lat="49.36943" lon="4.0863">
        <ele>127</ele>
        <time>2019-04-07T09:54:44Z</time>
      </trkpt>
      <trkpt lat="49.36947" lon="4.08633">
        <ele>128</ele>
        <time>2019-04-07T09:54:45Z</time>
      </trkpt>
      <trkpt lat="49.36951" lon="4.08636">
        <ele>128</ele>
        <time>2019-04-07T09:54:46Z</time>
      </trkpt>
      <trkpt lat="49.3696" lon="4.08642">
        <ele>128</ele>
        <time>2019-04-07T09:54:48Z</time>
      </trkpt>
      <trkpt lat="49.36964" lon="4.08645">
        <ele>128</ele>
        <time>2019-04-07T09:54:49Z</time>
      </trkpt>
      <trkpt lat="49.36969" lon="4.08648">
        <ele>129</ele>
        <time>2019-04-07T09:54:50Z</time>
      </trkpt>
      <trkpt lat="49.36974" lon="4.08651">
        <ele>129</ele>
        <time>2019-04-07T09:54:51Z</time>
      </trkpt>
      <trkpt lat="49.36978" lon="4.08654">
        <ele>129</ele>
        <time>2019-04-07T09:54:52Z</time>
      </trkpt>
      <trkpt lat="49.36983" lon="4.08657">
        <ele>129</ele>
        <time>2019-04-07T09:54:53Z</time>
      </trkpt>
      <trkpt lat="49.36992" lon="4.08663">
        <ele>129</ele>
        <time>2019-04-07T09:54:55Z</time>
      </trkpt>
      <trkpt lat="49.36996" lon="4.08666">
        <ele>129</ele>
        <time>2019-04-07T09:54:56Z</time>
      </trkpt>
      <trkpt lat="49.37001" lon="4.0867">
        <ele>130</ele>
        <time>2019-04-07T09:54:57Z</time>
      </trkpt>
      <trkpt lat="49.37005" lon="4.08673">
        <ele>129</ele>
        <time>2019-04-07T09:54:58Z</time>
      </trkpt>
      <trkpt lat="49.3701" lon="4.08677">
        <ele>129</ele>
        <time>2019-04-07T09:54:59Z</time>
      </trkpt>
      <trkpt lat="49.37014" lon="4.08681">
        <ele>129</ele>
        <time>2019-04-07T09:55:00Z</time>
      </trkpt>
      <trkpt lat="49.37019" lon="4.08685">
        <ele>129</ele>
        <time>2019-04-07T09:55:01Z</time>
      </trkpt>
      <trkpt lat="49.37024" lon="4.08689">
        <ele>129</ele>
        <time>2019-04-07T09:55:02Z</time>
      </trkpt>
      <trkpt lat="49.37028" lon="4.08693">
        <ele>129</ele>
        <time>2019-04-07T09:55:03Z</time>
      </trkpt>
      <trkpt lat="49.37033" lon="4.08697">
        <ele>128</ele>
        <time>2019-04-07T09:55:04Z</time>
      </trkpt>
      <trkpt lat="49.37037" lon="4.08701">
        <ele>129</ele>
        <time>2019-04-07T09:55:05Z</time>
      </trkpt>
      <trkpt lat="49.37041" lon="4.08706">
        <ele>128</ele>
        <time>2019-04-07T09:55:06Z</time>
      </trkpt>
      <trkpt lat="49.37046" lon="4.08711">
        <ele>128</ele>
        <time>2019-04-07T09:55:07Z</time>
      </trkpt>
      <trkpt lat="49.3705" lon="4.08716">
        <ele>129</ele>
        <time>2019-04-07T09:55:08Z</time>
      </trkpt>
      <trkpt lat="49.37055" lon="4.08721">
        <ele>129</ele>
        <time>2019-04-07T09:55:09Z</time>
      </trkpt>
      <trkpt lat="49.37059" lon="4.08727">
        <ele>129</ele>
        <time>2019-04-07T09:55:10Z</time>
      </trkpt>
      <trkpt lat="49.37064" lon="4.08732">
        <ele>129</ele>
        <time>2019-04-07T09:55:11Z</time>
      </trkpt>
      <trkpt lat="49.37069" lon="4.08738">
        <ele>129</ele>
        <time>2019-04-07T09:55:12Z</time>
      </trkpt>
      <trkpt lat="49.37074" lon="4.08744">
        <ele>129</ele>
        <time>2019-04-07T09:55:13Z</time>
      </trkpt>
      <trkpt lat="49.37079" lon="4.08749">
        <ele>129</ele>
        <time>2019-04-07T09:55:14Z</time>
      </trkpt>
      <trkpt lat="49.37084" lon="4.08755">
        <ele>129</ele>
        <time>2019-04-07T09:55:15Z</time>
      </trkpt>
      <trkpt lat="49.37089" lon="4.08761">
        <ele>130</ele>
        <time>2019-04-07T09:55:16Z</time>
      </trkpt>
      <trkpt lat="49.37094" lon="4.08766">
        <ele>130</ele>
        <time>2019-04-07T09:55:17Z</time>
      </trkpt>
      <trkpt lat="49.37099" lon="4.08772">
        <ele>130</ele>
        <time>2019-04-07T09:55:18Z</time>
      </trkpt>
      <trkpt lat="49.37104" lon="4.08778">
        <ele>129</ele>
        <time>2019-04-07T09:55:19Z</time>
      </trkpt>
      <trkpt lat="49.37109" lon="4.08784">
        <ele>129</ele>
        <time>2019-04-07T09:55:20Z</time>
      </trkpt>
      <trkpt lat="49.37114" lon="4.0879">
        <ele>129</ele>
        <time>2019-04-07T09:55:21Z</time>
      </trkpt>
      <trkpt lat="49.3712" lon="4.08795">
        <ele>130</ele>
        <time>2019-04-07T09:55:22Z</time>
      </trkpt>
      <trkpt lat="49.37124" lon="4.08801">
        <ele>130</ele>
        <time>2019-04-07T09:55:23Z</time>
      </trkpt>
      <trkpt lat="49.37129" lon="4.08807">
        <ele>130</ele>
        <time>2019-04-07T09:55:24Z</time>
      </trkpt>
      <trkpt lat="49.37134" lon="4.08813">
        <ele>130</ele>
        <time>2019-04-07T09:55:25Z</time>
      </trkpt>
      <trkpt lat="49.37139" lon="4.08818">
        <ele>130</ele>
        <time>2019-04-07T09:55:26Z</time>
      </trkpt>
      <trkpt lat="49.37144" lon="4.08824">
        <ele>130</ele>
        <time>2019-04-07T09:55:27Z</time>
      </trkpt>
      <trkpt lat="49.3715" lon="4.0883">
        <ele>130</ele>
        <time>2019-04-07T09:55:28Z</time>
      </trkpt>
      <trkpt lat="49.37155" lon="4.08836">
        <ele>130</ele>
        <time>2019-04-07T09:55:29Z</time>
      </trkpt>
      <trkpt lat="49.3716" lon="4.08842">
        <ele>130</ele>
        <time>2019-04-07T09:55:30Z</time>
      </trkpt>
      <trkpt lat="49.37164" lon="4.08847">
        <ele>130</ele>
        <time>2019-04-07T09:55:31Z</time>
      </trkpt>
      <trkpt lat="49.3717" lon="4.08853">
        <ele>130</ele>
        <time>2019-04-07T09:55:32Z</time>
      </trkpt>
      <trkpt lat="49.37175" lon="4.08859">
        <ele>129</ele>
        <time>2019-04-07T09:55:33Z</time>
      </trkpt>
      <trkpt lat="49.3718" lon="4.08864">
        <ele>129</ele>
        <time>2019-04-07T09:55:34Z</time>
      </trkpt>
      <trkpt lat="49.37185" lon="4.08869">
        <ele>129</ele>
        <time>2019-04-07T09:55:35Z</time>
      </trkpt>
      <trkpt lat="49.37191" lon="4.08875">
        <ele>129</ele>
        <time>2019-04-07T09:55:36Z</time>
      </trkpt>
      <trkpt lat="49.37196" lon="4.08881">
        <ele>129</ele>
        <time>2019-04-07T09:55:37Z</time>
      </trkpt>
      <trkpt lat="49.37201" lon="4.08887">
        <ele>129</ele>
        <time>2019-04-07T09:55:38Z</time>
      </trkpt>
      <trkpt lat="49.37206" lon="4.08893">
        <ele>129</ele>
        <time>2019-04-07T09:55:39Z</time>
      </trkpt>
      <trkpt lat="49.37211" lon="4.08899">
        <ele>129</ele>
        <time>2019-04-07T09:55:40Z</time>
      </trkpt>
      <trkpt lat="49.37216" lon="4.08905">
        <ele>129</ele>
        <time>2019-04-07T09:55:41Z</time>
      </trkpt>
      <trkpt lat="49.37222" lon="4.08911">
        <ele>129</ele>
        <time>2019-04-07T09:55:42Z</time>
      </trkpt>
      <trkpt lat="49.37227" lon="4.08917">
        <ele>129</ele>
        <time>2019-04-07T09:55:43Z</time>
      </trkpt>
      <trkpt lat="49.37233" lon="4.08924">
        <ele>129</ele>
        <time>2019-04-07T09:55:44Z</time>
      </trkpt>
      <trkpt lat="49.37238" lon="4.0893">
        <ele>129</ele>
        <time>2019-04-07T09:55:45Z</time>
      </trkpt>
      <trkpt lat="49.37244" lon="4.08936">
        <ele>129</ele>
        <time>2019-04-07T09:55:46Z</time>
      </trkpt>
      <trkpt lat="49.3725" lon="4.08943">
        <ele>129</ele>
        <time>2019-04-07T09:55:47Z</time>
      </trkpt>
      <trkpt lat="49.37255" lon="4.08949">
        <ele>129</ele>
        <time>2019-04-07T09:55:48Z</time>
      </trkpt>
      <trkpt lat="49.37261" lon="4.08956">
        <ele>129</ele>
        <time>2019-04-07T09:55:49Z</time>
      </trkpt>
      <trkpt lat="49.37267" lon="4.08963">
        <ele>129</ele>
        <time>2019-04-07T09:55:50Z</time>
      </trkpt>
      <trkpt lat="49.37273" lon="4.0897">
        <ele>129</ele>
        <time>2019-04-07T09:55:51Z</time>
      </trkpt>
      <trkpt lat="49.37279" lon="4.08976">
        <ele>128</ele>
        <time>2019-04-07T09:55:52Z</time>
      </trkpt>
      <trkpt lat="49.37285" lon="4.08984">
        <ele>128</ele>
        <time>2019-04-07T09:55:53Z</time>
      </trkpt>
      <trkpt lat="49.37291" lon="4.08992">
        <ele>128</ele>
        <time>2019-04-07T09:55:54Z</time>
      </trkpt>
      <trkpt lat="49.37298" lon="4.08999">
        <ele>128</ele>
        <time>2019-04-07T09:55:55Z</time>
      </trkpt>
      <trkpt lat="49.37305" lon="4.09007">
        <ele>128</ele>
        <time>2019-04-07T09:55:56Z</time>
      </trkpt>
      <trkpt lat="49.37311" lon="4.09014">
        <ele>128</ele>
        <time>2019-04-07T09:55:57Z</time>
      </trkpt>
      <trkpt lat="49.37318" lon="4.09022">
        <ele>127</ele>
        <time>2019-04-07T09:55:58Z</time>
      </trkpt>
      <trkpt lat="49.37324" lon="4.0903">
        <ele>127</ele>
        <time>2019-04-07T09:55:59Z</time>
      </trkpt>
      <trkpt lat="49.37331" lon="4.09037">
        <ele>127</ele>
        <time>2019-04-07T09:56:00Z</time>
      </trkpt>
      <trkpt lat="49.37338" lon="4.09044">
        <ele>126</ele>
        <time>2019-04-07T09:56:01Z</time>
      </trkpt>
      <trkpt lat="49.37344" lon="4.09052">
        <ele>126</ele>
        <time>2019-04-07T09:56:02Z</time>
      </trkpt>
      <trkpt lat="49.37351" lon="4.0906">
        <ele>126</ele>
        <time>2019-04-07T09:56:03Z</time>
      </trkpt>
      <trkpt lat="49.37358" lon="4.09068">
        <ele>126</ele>
        <time>2019-04-07T09:56:04Z</time>
      </trkpt>
      <trkpt lat="49.37365" lon="4.09076">
        <ele>126</ele>
        <time>2019-04-07T09:56:05Z</time>
      </trkpt>
      <trkpt lat="49.37372" lon="4.09084">
        <ele>125</ele>
        <time>2019-04-07T09:56:06Z</time>
      </trkpt>
      <trkpt lat="49.37379" lon="4.09093">
        <ele>125</ele>
        <time>2019-04-07T09:56:07Z</time>
      </trkpt>
      <trkpt lat="49.37386" lon="4.09101">
        <ele>125</ele>
        <time>2019-04-07T09:56:08Z</time>
      </trkpt>
      <trkpt lat="49.37393" lon="4.09109">
        <ele>125</ele>
        <time>2019-04-07T09:56:09Z</time>
      </trkpt>
      <trkpt lat="49.374" lon="4.09117">
        <ele>125</ele>
        <time>2019-04-07T09:56:10Z</time>
      </trkpt>
      <trkpt lat="49.37407" lon="4.09124">
        <ele>125</ele>
        <time>2019-04-07T09:56:11Z</time>
      </trkpt>
      <trkpt lat="49.37414" lon="4.09132">
        <ele>124</ele>
        <time>2019-04-07T09:56:12Z</time>
      </trkpt>
      <trkpt lat="49.37421" lon="4.09141">
        <ele>124</ele>
        <time>2019-04-07T09:56:13Z</time>
      </trkpt>
      <trkpt lat="49.37428" lon="4.09149">
        <ele>124</ele>
        <time>2019-04-07T09:56:14Z</time>
      </trkpt>
      <trkpt lat="49.37435" lon="4.09157">
        <ele>123</ele>
        <time>2019-04-07T09:56:15Z</time>
      </trkpt>
      <trkpt lat="49.37442" lon="4.09165">
        <ele>123</ele>
        <time>2019-04-07T09:56:16Z</time>
      </trkpt>
      <trkpt lat="49.37449" lon="4.09173">
        <ele>123</ele>
        <time>2019-04-07T09:56:17Z</time>
      </trkpt>
      <trkpt lat="49.37456" lon="4.09181">
        <ele>123</ele>
        <time>2019-04-07T09:56:18Z</time>
      </trkpt>
      <trkpt lat="49.37464" lon="4.0919">
        <ele>123</ele>
        <time>2019-04-07T09:56:19Z</time>
      </trkpt>
      <trkpt lat="49.37471" lon="4.09199">
        <ele>123</ele>
        <time>2019-04-07T09:56:20Z</time>
      </trkpt>
      <trkpt lat="49.37478" lon="4.09207">
        <ele>123</ele>
        <time>2019-04-07T09:56:21Z</time>
      </trkpt>
      <trkpt lat="49.37485" lon="4.09216">
        <ele>122</ele>
        <time>2019-04-07T09:56:22Z</time>
      </trkpt>
      <trkpt lat="49.37493" lon="4.09224">
        <ele>122</ele>
        <time>2019-04-07T09:56:23Z</time>
      </trkpt>
      <trkpt lat="49.375" lon="4.09233">
        <ele>122</ele>
        <time>2019-04-07T09:56:24Z</time>
      </trkpt>
      <trkpt lat="49.37508" lon="4.09242">
        <ele>122</ele>
        <time>2019-04-07T09:56:25Z</time>
      </trkpt>
      <trkpt lat="49.37515" lon="4.09251">
        <ele>122</ele>
        <time>2019-04-07T09:56:26Z</time>
      </trkpt>
      <trkpt lat="49.37523" lon="4.0926">
        <ele>121</ele>
        <time>2019-04-07T09:56:27Z</time>
      </trkpt>
      <trkpt lat="49.37531" lon="4.09268">
        <ele>121</ele>
        <time>2019-04-07T09:56:28Z</time>
      </trkpt>
      <trkpt lat="49.37538" lon="4.09276">
        <ele>121</ele>
        <time>2019-04-07T09:56:29Z</time>
      </trkpt>
      <trkpt lat="49.37546" lon="4.09285">
        <ele>121</ele>
        <time>2019-04-07T09:56:30Z</time>
      </trkpt>
      <trkpt lat="49.37553" lon="4.09293">
        <ele>121</ele>
        <time>2019-04-07T09:56:31Z</time>
      </trkpt>
      <trkpt lat="49.3756" lon="4.09301">
        <ele>121</ele>
        <time>2019-04-07T09:56:32Z</time>
      </trkpt>
      <trkpt lat="49.37567" lon="4.09309">
        <ele>121</ele>
        <time>2019-04-07T09:56:33Z</time>
      </trkpt>
      <trkpt lat="49.37574" lon="4.09317">
        <ele>121</ele>
        <time>2019-04-07T09:56:34Z</time>
      </trkpt>
      <trkpt lat="49.3758" lon="4.09325">
        <ele>121</ele>
        <time>2019-04-07T09:56:35Z</time>
      </trkpt>
      <trkpt lat="49.37587" lon="4.09333">
        <ele>121</ele>
        <time>2019-04-07T09:56:36Z</time>
      </trkpt>
      <trkpt lat="49.37593" lon="4.09339">
        <ele>121</ele>
        <time>2019-04-07T09:56:37Z</time>
      </trkpt>
      <trkpt lat="49.37599" lon="4.09346">
        <ele>121</ele>
        <time>2019-04-07T09:56:38Z</time>
      </trkpt>
      <trkpt lat="49.37606" lon="4.09353">
        <ele>121</ele>
        <time>2019-04-07T09:56:39Z</time>
      </trkpt>
      <trkpt lat="49.37612" lon="4.0936">
        <ele>121</ele>
        <time>2019-04-07T09:56:40Z</time>
      </trkpt>
      <trkpt lat="49.37618" lon="4.09367">
        <ele>121</ele>
        <time>2019-04-07T09:56:41Z</time>
      </trkpt>
      <trkpt lat="49.37624" lon="4.09374">
        <ele>120</ele>
        <time>2019-04-07T09:56:42Z</time>
      </trkpt>
      <trkpt lat="49.3763" lon="4.09381">
        <ele>120</ele>
        <time>2019-04-07T09:56:43Z</time>
      </trkpt>
      <trkpt lat="49.37636" lon="4.09389">
        <ele>120</ele>
        <time>2019-04-07T09:56:44Z</time>
      </trkpt>
      <trkpt lat="49.37643" lon="4.09396">
        <ele>120</ele>
        <time>2019-04-07T09:56:45Z</time>
      </trkpt>
      <trkpt lat="49.37649" lon="4.09404">
        <ele>120</ele>
        <time>2019-04-07T09:56:46Z</time>
      </trkpt>
      <trkpt lat="49.37655" lon="4.09411">
        <ele>120</ele>
        <time>2019-04-07T09:56:47Z</time>
      </trkpt>
      <trkpt lat="49.37662" lon="4.09419">
        <ele>120</ele>
        <time>2019-04-07T09:56:48Z</time>
      </trkpt>
      <trkpt lat="49.37669" lon="4.09427">
        <ele>119</ele>
        <time>2019-04-07T09:56:49Z</time>
      </trkpt>
      <trkpt lat="49.37676" lon="4.09435">
        <ele>119</ele>
        <time>2019-04-07T09:56:50Z</time>
      </trkpt>
      <trkpt lat="49.37682" lon="4.09443">
        <ele>119</ele>
        <time>2019-04-07T09:56:51Z</time>
      </trkpt>
      <trkpt lat="49.3769" lon="4.09451">
        <ele>119</ele>
        <time>2019-04-07T09:56:52Z</time>
      </trkpt>
      <trkpt lat="49.37697" lon="4.0946">
        <ele>118</ele>
        <time>2019-04-07T09:56:53Z</time>
      </trkpt>
      <trkpt lat="49.37705" lon="4.09469">
        <ele>118</ele>
        <time>2019-04-07T09:56:54Z</time>
      </trkpt>
      <trkpt lat="49.37713" lon="4.09478">
        <ele>118</ele>
        <time>2019-04-07T09:56:55Z</time>
      </trkpt>
      <trkpt lat="49.37721" lon="4.09487">
        <ele>117</ele>
        <time>2019-04-07T09:56:56Z</time>
      </trkpt>
      <trkpt lat="49.37729" lon="4.09496">
        <ele>117</ele>
        <time>2019-04-07T09:56:57Z</time>
      </trkpt>
      <trkpt lat="49.37736" lon="4.09505">
        <ele>117</ele>
        <time>2019-04-07T09:56:58Z</time>
      </trkpt>
      <trkpt lat="49.37744" lon="4.09514">
        <ele>116</ele>
        <time>2019-04-07T09:56:59Z</time>
      </trkpt>
      <trkpt lat="49.37752" lon="4.09523">
        <ele>116</ele>
        <time>2019-04-07T09:57:00Z</time>
      </trkpt>
      <trkpt lat="49.37761" lon="4.09533">
        <ele>115</ele>
        <time>2019-04-07T09:57:01Z</time>
      </trkpt>
      <trkpt lat="49.37769" lon="4.09542">
        <ele>115</ele>
        <time>2019-04-07T09:57:02Z</time>
      </trkpt>
      <trkpt lat="49.37777" lon="4.09551">
        <ele>115</ele>
        <time>2019-04-07T09:57:03Z</time>
      </trkpt>
      <trkpt lat="49.37785" lon="4.09561">
        <ele>114</ele>
        <time>2019-04-07T09:57:04Z</time>
      </trkpt>
      <trkpt lat="49.37794" lon="4.0957">
        <ele>114</ele>
        <time>2019-04-07T09:57:05Z</time>
      </trkpt>
      <trkpt lat="49.37802" lon="4.0958">
        <ele>113</ele>
        <time>2019-04-07T09:57:06Z</time>
      </trkpt>
      <trkpt lat="49.3781" lon="4.09589">
        <ele>113</ele>
        <time>2019-04-07T09:57:07Z</time>
      </trkpt>
      <trkpt lat="49.37818" lon="4.09599">
        <ele>113</ele>
        <time>2019-04-07T09:57:08Z</time>
      </trkpt>
      <trkpt lat="49.37826" lon="4.09608">
        <ele>112</ele>
        <time>2019-04-07T09:57:09Z</time>
      </trkpt>
      <trkpt lat="49.37834" lon="4.09617">
        <ele>112</ele>
        <time>2019-04-07T09:57:10Z</time>
      </trkpt>
      <trkpt lat="49.37842" lon="4.09627">
        <ele>112</ele>
        <time>2019-04-07T09:57:11Z</time>
      </trkpt>
      <trkpt lat="49.3785" lon="4.09636">
        <ele>112</ele>
        <time>2019-04-07T09:57:12Z</time>
      </trkpt>
      <trkpt lat="49.37858" lon="4.09645">
        <ele>112</ele>
        <time>2019-04-07T09:57:13Z</time>
      </trkpt>
      <trkpt lat="49.37865" lon="4.09653">
        <ele>112</ele>
        <time>2019-04-07T09:57:14Z</time>
      </trkpt>
      <trkpt lat="49.37873" lon="4.09662">
        <ele>111</ele>
        <time>2019-04-07T09:57:15Z</time>
      </trkpt>
      <trkpt lat="49.37881" lon="4.0967">
        <ele>111</ele>
        <time>2019-04-07T09:57:16Z</time>
      </trkpt>
      <trkpt lat="49.37888" lon="4.09679">
        <ele>111</ele>
        <time>2019-04-07T09:57:17Z</time>
      </trkpt>
      <trkpt lat="49.37896" lon="4.09687">
        <ele>110</ele>
        <time>2019-04-07T09:57:18Z</time>
      </trkpt>
      <trkpt lat="49.37903" lon="4.09696">
        <ele>110</ele>
        <time>2019-04-07T09:57:19Z</time>
      </trkpt>
      <trkpt lat="49.3791" lon="4.09704">
        <ele>110</ele>
        <time>2019-04-07T09:57:20Z</time>
      </trkpt>
      <trkpt lat="49.37917" lon="4.09712">
        <ele>110</ele>
        <time>2019-04-07T09:57:21Z</time>
      </trkpt>
      <trkpt lat="49.37924" lon="4.0972">
        <ele>110</ele>
        <time>2019-04-07T09:57:22Z</time>
      </trkpt>
      <trkpt lat="49.37931" lon="4.09727">
        <ele>110</ele>
        <time>2019-04-07T09:57:23Z</time>
      </trkpt>
      <trkpt lat="49.37938" lon="4.09735">
        <ele>110</ele>
        <time>2019-04-07T09:57:24Z</time>
      </trkpt>
      <trkpt lat="49.37944" lon="4.09743">
        <ele>110</ele>
        <time>2019-04-07T09:57:25Z</time>
      </trkpt>
      <trkpt lat="49.3795" lon="4.0975">
        <ele>111</ele>
        <time>2019-04-07T09:57:26Z</time>
      </trkpt>
      <trkpt lat="49.37957" lon="4.09758">
        <ele>110</ele>
        <time>2019-04-07T09:57:27Z</time>
      </trkpt>
      <trkpt lat="49.37963" lon="4.09764">
        <ele>110</ele>
        <time>2019-04-07T09:57:28Z</time>
      </trkpt>
      <trkpt lat="49.3797" lon="4.09771">
        <ele>110</ele>
        <time>2019-04-07T09:57:29Z</time>
      </trkpt>
      <trkpt lat="49.37975" lon="4.09778">
        <ele>110</ele>
        <time>2019-04-07T09:57:30Z</time>
      </trkpt>
      <trkpt lat="49.37981" lon="4.09784">
        <ele>110</ele>
        <time>2019-04-07T09:57:31Z</time>
      </trkpt>
      <trkpt lat="49.37986" lon="4.09791">
        <ele>110</ele>
        <time>2019-04-07T09:57:32Z</time>
      </trkpt>
      <trkpt lat="49.37992" lon="4.09797">
        <ele>110</ele>
        <time>2019-04-07T09:57:33Z</time>
      </trkpt>
      <trkpt lat="49.37997" lon="4.09803">
        <ele>110</ele>
        <time>2019-04-07T09:57:34Z</time>
      </trkpt>
      <trkpt lat="49.38002" lon="4.09809">
        <ele>110</ele>
        <time>2019-04-07T09:57:35Z</time>
      </trkpt>
      <trkpt lat="49.38007" lon="4.09815">
        <ele>110</ele>
        <time>2019-04-07T09:57:36Z</time>
      </trkpt>
      <trkpt lat="49.38012" lon="4.09821">
        <ele>110</ele>
        <time>2019-04-07T09:57:37Z</time>
      </trkpt>
      <trkpt lat="49.38017" lon="4.09826">
        <ele>110</ele>
        <time>2019-04-07T09:57:38Z</time>
      </trkpt>
      <trkpt lat="49.38022" lon="4.09831">
        <ele>110</ele>
        <time>2019-04-07T09:57:39Z</time>
      </trkpt>
      <trkpt lat="49.38026" lon="4.09836">
        <ele>110</ele>
        <time>2019-04-07T09:57:40Z</time>
      </trkpt>
      <trkpt lat="49.38031" lon="4.09842">
        <ele>110</ele>
        <time>2019-04-07T09:57:41Z</time>
      </trkpt>
      <trkpt lat="49.38035" lon="4.09847">
        <ele>110</ele>
        <time>2019-04-07T09:57:42Z</time>
      </trkpt>
      <trkpt lat="49.3804" lon="4.09852">
        <ele>110</ele>
        <time>2019-04-07T09:57:43Z</time>
      </trkpt>
      <trkpt lat="49.38044" lon="4.09858">
        <ele>111</ele>
        <time>2019-04-07T09:57:44Z</time>
      </trkpt>
      <trkpt lat="49.38049" lon="4.09863">
        <ele>111</ele>
        <time>2019-04-07T09:57:45Z</time>
      </trkpt>
      <trkpt lat="49.38054" lon="4.09868">
        <ele>111</ele>
        <time>2019-04-07T09:57:46Z</time>
      </trkpt>
      <trkpt lat="49.38058" lon="4.09873">
        <ele>111</ele>
        <time>2019-04-07T09:57:47Z</time>
      </trkpt>
      <trkpt lat="49.38062" lon="4.09878">
        <ele>111</ele>
        <time>2019-04-07T09:57:48Z</time>
      </trkpt>
      <trkpt lat="49.38067" lon="4.09883">
        <ele>111</ele>
        <time>2019-04-07T09:57:49Z</time>
      </trkpt>
      <trkpt lat="49.38071" lon="4.09889">
        <ele>111</ele>
        <time>2019-04-07T09:57:50Z</time>
      </trkpt>
      <trkpt lat="49.38076" lon="4.09894">
        <ele>111</ele>
        <time>2019-04-07T09:57:51Z</time>
      </trkpt>
      <trkpt lat="49.38081" lon="4.09899">
        <ele>110</ele>
        <time>2019-04-07T09:57:52Z</time>
      </trkpt>
      <trkpt lat="49.38085" lon="4.09905">
        <ele>110</ele>
        <time>2019-04-07T09:57:53Z</time>
      </trkpt>
      <trkpt lat="49.3809" lon="4.0991">
        <ele>110</ele>
        <time>2019-04-07T09:57:54Z</time>
      </trkpt>
      <trkpt lat="49.38094" lon="4.09914">
        <ele>111</ele>
        <time>2019-04-07T09:57:55Z</time>
      </trkpt>
      <trkpt lat="49.38098" lon="4.09919">
        <ele>111</ele>
        <time>2019-04-07T09:57:56Z</time>
      </trkpt>
      <trkpt lat="49.38102" lon="4.09923">
        <ele>111</ele>
        <time>2019-04-07T09:57:57Z</time>
      </trkpt>
      <trkpt lat="49.38106" lon="4.09928">
        <ele>111</ele>
        <time>2019-04-07T09:57:58Z</time>
      </trkpt>
      <trkpt lat="49.3811" lon="4.09932">
        <ele>111</ele>
        <time>2019-04-07T09:57:59Z</time>
      </trkpt>
      <trkpt lat="49.38114" lon="4.09936">
        <ele>110</ele>
        <time>2019-04-07T09:58:00Z</time>
      </trkpt>
      <trkpt lat="49.38118" lon="4.0994">
        <ele>110</ele>
        <time>2019-04-07T09:58:01Z</time>
      </trkpt>
      <trkpt lat="49.38121" lon="4.09943">
        <ele>111</ele>
        <time>2019-04-07T09:58:02Z</time>
      </trkpt>
      <trkpt lat="49.38126" lon="4.09947">
        <ele>111</ele>
        <time>2019-04-07T09:58:03Z</time>
      </trkpt>
      <trkpt lat="49.3813" lon="4.0995">
        <ele>111</ele>
        <time>2019-04-07T09:58:04Z</time>
      </trkpt>
      <trkpt lat="49.38134" lon="4.09953">
        <ele>111</ele>
        <time>2019-04-07T09:58:05Z</time>
      </trkpt>
      <trkpt lat="49.38138" lon="4.09954">
        <ele>111</ele>
        <time>2019-04-07T09:58:06Z</time>
      </trkpt>
      <trkpt lat="49.38142" lon="4.09956">
        <ele>111</ele>
        <time>2019-04-07T09:58:07Z</time>
      </trkpt>
      <trkpt lat="49.38146" lon="4.09957">
        <ele>111</ele>
        <time>2019-04-07T09:58:08Z</time>
      </trkpt>
      <trkpt lat="49.3815" lon="4.09958">
        <ele>111</ele>
        <time>2019-04-07T09:58:09Z</time>
      </trkpt>
      <trkpt lat="49.38154" lon="4.09962">
        <ele>111</ele>
        <time>2019-04-07T09:58:10Z</time>
      </trkpt>
      <trkpt lat="49.38157" lon="4.09967">
        <ele>111</ele>
        <time>2019-04-07T09:58:11Z</time>
      </trkpt>
      <trkpt lat="49.38159" lon="4.09974">
        <ele>111</ele>
        <time>2019-04-07T09:58:12Z</time>
      </trkpt>
      <trkpt lat="49.38158" lon="4.09983">
        <ele>111</ele>
        <time>2019-04-07T09:58:13Z</time>
      </trkpt>
      <trkpt lat="49.38156" lon="4.0999">
        <ele>111</ele>
        <time>2019-04-07T09:58:14Z</time>
      </trkpt>
      <trkpt lat="49.38155" lon="4.09998">
        <ele>111</ele>
        <time>2019-04-07T09:58:15Z</time>
      </trkpt>
      <trkpt lat="49.38153" lon="4.10005">
        <ele>111</ele>
        <time>2019-04-07T09:58:16Z</time>
      </trkpt>
      <trkpt lat="49.38152" lon="4.10012">
        <ele>111</ele>
        <time>2019-04-07T09:58:17Z</time>
      </trkpt>
      <trkpt lat="49.38152" lon="4.1002">
        <ele>111</ele>
        <time>2019-04-07T09:58:18Z</time>
      </trkpt>
      <trkpt lat="49.38151" lon="4.10027">
        <ele>111</ele>
        <time>2019-04-07T09:58:19Z</time>
      </trkpt>
      <trkpt lat="49.3815" lon="4.10035">
        <ele>111</ele>
        <time>2019-04-07T09:58:20Z</time>
      </trkpt>
      <trkpt lat="49.3815" lon="4.10042">
        <ele>111</ele>
        <time>2019-04-07T09:58:21Z</time>
      </trkpt>
      <trkpt lat="49.38148" lon="4.1005">
        <ele>111</ele>
        <time>2019-04-07T09:58:22Z</time>
      </trkpt>
      <trkpt lat="49.38148" lon="4.10057">
        <ele>111</ele>
        <time>2019-04-07T09:58:23Z</time>
      </trkpt>
      <trkpt lat="49.38147" lon="4.10064">
        <ele>112</ele>
        <time>2019-04-07T09:58:24Z</time>
      </trkpt>
      <trkpt lat="49.38146" lon="4.10072">
        <ele>112</ele>
        <time>2019-04-07T09:58:25Z</time>
      </trkpt>
      <trkpt lat="49.38146" lon="4.10079">
        <ele>112</ele>
        <time>2019-04-07T09:58:26Z</time>
      </trkpt>
      <trkpt lat="49.38145" lon="4.10086">
        <ele>112</ele>
        <time>2019-04-07T09:58:27Z</time>
      </trkpt>
      <trkpt lat="49.38144" lon="4.10093">
        <ele>112</ele>
        <time>2019-04-07T09:58:28Z</time>
      </trkpt>
      <trkpt lat="49.38143" lon="4.101">
        <ele>112</ele>
        <time>2019-04-07T09:58:29Z</time>
      </trkpt>
      <trkpt lat="49.38142" lon="4.10108">
        <ele>112</ele>
        <time>2019-04-07T09:58:30Z</time>
      </trkpt>
      <trkpt lat="49.38142" lon="4.10115">
        <ele>112</ele>
        <time>2019-04-07T09:58:31Z</time>
      </trkpt>
      <trkpt lat="49.38141" lon="4.10123">
        <ele>112</ele>
        <time>2019-04-07T09:58:32Z</time>
      </trkpt>
      <trkpt lat="49.3814" lon="4.1013">
        <ele>112</ele>
        <time>2019-04-07T09:58:33Z</time>
      </trkpt>
      <trkpt lat="49.3814" lon="4.10138">
        <ele>112</ele>
        <time>2019-04-07T09:58:34Z</time>
      </trkpt>
      <trkpt lat="49.38139" lon="4.10146">
        <ele>112</ele>
        <time>2019-04-07T09:58:35Z</time>
      </trkpt>
      <trkpt lat="49.38138" lon="4.10153">
        <ele>112</ele>
        <time>2019-04-07T09:58:36Z</time>
      </trkpt>
      <trkpt lat="49.38137" lon="4.1016">
        <ele>112</ele>
        <time>2019-04-07T09:58:37Z</time>
      </trkpt>
      <trkpt lat="49.38136" lon="4.10168">
        <ele>112</ele>
        <time>2019-04-07T09:58:38Z</time>
      </trkpt>
      <trkpt lat="49.38135" lon="4.10176">
        <ele>112</ele>
        <time>2019-04-07T09:58:39Z</time>
      </trkpt>
      <trkpt lat="49.38134" lon="4.10183">
        <ele>112</ele>
        <time>2019-04-07T09:58:40Z</time>
      </trkpt>
      <trkpt lat="49.38133" lon="4.1019">
        <ele>112</ele>
        <time>2019-04-07T09:58:41Z</time>
      </trkpt>
      <trkpt lat="49.38132" lon="4.10198">
        <ele>112</ele>
        <time>2019-04-07T09:58:42Z</time>
      </trkpt>
      <trkpt lat="49.38132" lon="4.10206">
        <ele>112</ele>
        <time>2019-04-07T09:58:43Z</time>
      </trkpt>
      <trkpt lat="49.38131" lon="4.10213">
        <ele>112</ele>
        <time>2019-04-07T09:58:44Z</time>
      </trkpt>
      <trkpt lat="49.38131" lon="4.10221">
        <ele>112</ele>
        <time>2019-04-07T09:58:45Z</time>
      </trkpt>
      <trkpt lat="49.38129" lon="4.10229">
        <ele>112</ele>
        <time>2019-04-07T09:58:46Z</time>
      </trkpt>
      <trkpt lat="49.38129" lon="4.10237">
        <ele>112</ele>
        <time>2019-04-07T09:58:47Z</time>
      </trkpt>
      <trkpt lat="49.38128" lon="4.10244">
        <ele>112</ele>
        <time>2019-04-07T09:58:48Z</time>
      </trkpt>
      <trkpt lat="49.38127" lon="4.10252">
        <ele>112</ele>
        <time>2019-04-07T09:58:49Z</time>
      </trkpt>
      <trkpt lat="49.38126" lon="4.10261">
        <ele>112</ele>
        <time>2019-04-07T09:58:50Z</time>
      </trkpt>
      <trkpt lat="49.38126" lon="4.10269">
        <ele>112</ele>
        <time>2019-04-07T09:58:51Z</time>
      </trkpt>
      <trkpt lat="49.38125" lon="4.10276">
        <ele>112</ele>
        <time>2019-04-07T09:58:52Z</time>
      </trkpt>
      <trkpt lat="49.38124" lon="4.10284">
        <ele>112</ele>
        <time>2019-04-07T09:58:53Z</time>
      </trkpt>
      <trkpt lat="49.38124" lon="4.10292">
        <ele>112</ele>
        <time>2019-04-07T09:58:54Z</time>
      </trkpt>
      <trkpt lat="49.38123" lon="4.103">
        <ele>112</ele>
        <time>2019-04-07T09:58:55Z</time>
      </trkpt>
      <trkpt lat="49.38122" lon="4.10307">
        <ele>112</ele>
        <time>2019-04-07T09:58:56Z</time>
      </trkpt>
      <trkpt lat="49.38121" lon="4.10315">
        <ele>112</ele>
        <time>2019-04-07T09:58:57Z</time>
      </trkpt>
      <trkpt lat="49.3812" lon="4.10322">
        <ele>112</ele>
        <time>2019-04-07T09:58:58Z</time>
      </trkpt>
      <trkpt lat="49.3812" lon="4.1033">
        <ele>112</ele>
        <time>2019-04-07T09:58:59Z</time>
      </trkpt>
      <trkpt lat="49.38119" lon="4.10337">
        <ele>112</ele>
        <time>2019-04-07T09:59:00Z</time>
      </trkpt>
      <trkpt lat="49.38118" lon="4.10343">
        <ele>112</ele>
        <time>2019-04-07T09:59:01Z</time>
      </trkpt>
      <trkpt lat="49.38117" lon="4.1035">
        <ele>112</ele>
        <time>2019-04-07T09:59:02Z</time>
      </trkpt>
      <trkpt lat="49.38116" lon="4.10357">
        <ele>112</ele>
        <time>2019-04-07T09:59:03Z</time>
      </trkpt>
      <trkpt lat="49.38115" lon="4.10364">
        <ele>112</ele>
        <time>2019-04-07T09:59:04Z</time>
      </trkpt>
      <trkpt lat="49.38114" lon="4.10371">
        <ele>112</ele>
        <time>2019-04-07T09:59:05Z</time>
      </trkpt>
      <trkpt lat="49.38114" lon="4.10378">
        <ele>112</ele>
        <time>2019-04-07T09:59:06Z</time>
      </trkpt>
      <trkpt lat="49.38113" lon="4.10385">
        <ele>112</ele>
        <time>2019-04-07T09:59:07Z</time>
      </trkpt>
      <trkpt lat="49.38112" lon="4.10393">
        <ele>112</ele>
        <time>2019-04-07T09:59:08Z</time>
      </trkpt>
      <trkpt lat="49.38111" lon="4.10401">
        <ele>112</ele>
        <time>2019-04-07T09:59:09Z</time>
      </trkpt>
      <trkpt lat="49.3811" lon="4.10408">
        <ele>112</ele>
        <time>2019-04-07T09:59:10Z</time>
      </trkpt>
      <trkpt lat="49.3811" lon="4.10416">
        <ele>112</ele>
        <time>2019-04-07T09:59:11Z</time>
      </trkpt>
      <trkpt lat="49.38109" lon="4.10424">
        <ele>112</ele>
        <time>2019-04-07T09:59:12Z</time>
      </trkpt>
      <trkpt lat="49.38109" lon="4.10432">
        <ele>112</ele>
        <time>2019-04-07T09:59:13Z</time>
      </trkpt>
      <trkpt lat="49.38108" lon="4.1044">
        <ele>112</ele>
        <time>2019-04-07T09:59:14Z</time>
      </trkpt>
      <trkpt lat="49.38107" lon="4.10447">
        <ele>112</ele>
        <time>2019-04-07T09:59:15Z</time>
      </trkpt>
      <trkpt lat="49.38106" lon="4.10456">
        <ele>112</ele>
        <time>2019-04-07T09:59:16Z</time>
      </trkpt>
      <trkpt lat="49.38105" lon="4.10464">
        <ele>111</ele>
        <time>2019-04-07T09:59:17Z</time>
      </trkpt>
      <trkpt lat="49.38105" lon="4.10472">
        <ele>112</ele>
        <time>2019-04-07T09:59:18Z</time>
      </trkpt>
      <trkpt lat="49.38104" lon="4.1048">
        <ele>112</ele>
        <time>2019-04-07T09:59:19Z</time>
      </trkpt>
      <trkpt lat="49.38103" lon="4.10487">
        <ele>112</ele>
        <time>2019-04-07T09:59:20Z</time>
      </trkpt>
      <trkpt lat="49.38103" lon="4.10495">
        <ele>111</ele>
        <time>2019-04-07T09:59:21Z</time>
      </trkpt>
      <trkpt lat="49.38102" lon="4.10502">
        <ele>111</ele>
        <time>2019-04-07T09:59:22Z</time>
      </trkpt>
      <trkpt lat="49.38101" lon="4.1051">
        <ele>111</ele>
        <time>2019-04-07T09:59:23Z</time>
      </trkpt>
      <trkpt lat="49.381" lon="4.10518">
        <ele>111</ele>
        <time>2019-04-07T09:59:24Z</time>
      </trkpt>
      <trkpt lat="49.38099" lon="4.10525">
        <ele>111</ele>
        <time>2019-04-07T09:59:25Z</time>
      </trkpt>
      <trkpt lat="49.38098" lon="4.10533">
        <ele>111</ele>
        <time>2019-04-07T09:59:26Z</time>
      </trkpt>
      <trkpt lat="49.38097" lon="4.10541">
        <ele>111</ele>
        <time>2019-04-07T09:59:27Z</time>
      </trkpt>
      <trkpt lat="49.38097" lon="4.10549">
        <ele>111</ele>
        <time>2019-04-07T09:59:28Z</time>
      </trkpt>
      <trkpt lat="49.38096" lon="4.10557">
        <ele>111</ele>
        <time>2019-04-07T09:59:29Z</time>
      </trkpt>
      <trkpt lat="49.38095" lon="4.10565">
        <ele>111</ele>
        <time>2019-04-07T09:59:30Z</time>
      </trkpt>
      <trkpt lat="49.38094" lon="4.10574">
        <ele>111</ele>
        <time>2019-04-07T09:59:31Z</time>
      </trkpt>
      <trkpt lat="49.38093" lon="4.10582">
        <ele>111</ele>
        <time>2019-04-07T09:59:32Z</time>
      </trkpt>
      <trkpt lat="49.38093" lon="4.1059">
        <ele>111</ele>
        <time>2019-04-07T09:59:33Z</time>
      </trkpt>
      <trkpt lat="49.38092" lon="4.10598">
        <ele>111</ele>
        <time>2019-04-07T09:59:34Z</time>
      </trkpt>
      <trkpt lat="49.38092" lon="4.10606">
        <ele>111</ele>
        <time>2019-04-07T09:59:35Z</time>
      </trkpt>
      <trkpt lat="49.38091" lon="4.10614">
        <ele>112</ele>
        <time>2019-04-07T09:59:36Z</time>
      </trkpt>
      <trkpt lat="49.3809" lon="4.10621">
        <ele>112</ele>
        <time>2019-04-07T09:59:37Z</time>
      </trkpt>
      <trkpt lat="49.3809" lon="4.10629">
        <ele>111</ele>
        <time>2019-04-07T09:59:38Z</time>
      </trkpt>
      <trkpt lat="49.38089" lon="4.10637">
        <ele>112</ele>
        <time>2019-04-07T09:59:39Z</time>
      </trkpt>
      <trkpt lat="49.38088" lon="4.10644">
        <ele>112</ele>
        <time>2019-04-07T09:59:40Z</time>
      </trkpt>
      <trkpt lat="49.38087" lon="4.10652">
        <ele>112</ele>
        <time>2019-04-07T09:59:41Z</time>
      </trkpt>
      <trkpt lat="49.38086" lon="4.1066">
        <ele>112</ele>
        <time>2019-04-07T09:59:42Z</time>
      </trkpt>
      <trkpt lat="49.38085" lon="4.10668">
        <ele>112</ele>
        <time>2019-04-07T09:59:43Z</time>
      </trkpt>
      <trkpt lat="49.38084" lon="4.10676">
        <ele>112</ele>
        <time>2019-04-07T09:59:44Z</time>
      </trkpt>
      <trkpt lat="49.38083" lon="4.10684">
        <ele>112</ele>
        <time>2019-04-07T09:59:45Z</time>
      </trkpt>
      <trkpt lat="49.38082" lon="4.10691">
        <ele>111</ele>
        <time>2019-04-07T09:59:46Z</time>
      </trkpt>
      <trkpt lat="49.38081" lon="4.10699">
        <ele>112</ele>
        <time>2019-04-07T09:59:47Z</time>
      </trkpt>
      <trkpt lat="49.3808" lon="4.10707">
        <ele>112</ele>
        <time>2019-04-07T09:59:48Z</time>
      </trkpt>
      <trkpt lat="49.38079" lon="4.10715">
        <ele>112</ele>
        <time>2019-04-07T09:59:49Z</time>
      </trkpt>
      <trkpt lat="49.38079" lon="4.10723">
        <ele>112</ele>
        <time>2019-04-07T09:59:50Z</time>
      </trkpt>
      <trkpt lat="49.38078" lon="4.10731">
        <ele>112</ele>
        <time>2019-04-07T09:59:51Z</time>
      </trkpt>
      <trkpt lat="49.38077" lon="4.10739">
        <ele>113</ele>
        <time>2019-04-07T09:59:52Z</time>
      </trkpt>
      <trkpt lat="49.38076" lon="4.10746">
        <ele>112</ele>
        <time>2019-04-07T09:59:53Z</time>
      </trkpt>
      <trkpt lat="49.38076" lon="4.10754">
        <ele>112</ele>
        <time>2019-04-07T09:59:54Z</time>
      </trkpt>
      <trkpt lat="49.38075" lon="4.10762">
        <ele>112</ele>
        <time>2019-04-07T09:59:55Z</time>
      </trkpt>
      <trkpt lat="49.38074" lon="4.1077">
        <ele>112</ele>
        <time>2019-04-07T09:59:56Z</time>
      </trkpt>
      <trkpt lat="49.38073" lon="4.10777">
        <ele>112</ele>
        <time>2019-04-07T09:59:57Z</time>
      </trkpt>
      <trkpt lat="49.38073" lon="4.10786">
        <ele>112</ele>
        <time>2019-04-07T09:59:58Z</time>
      </trkpt>
      <trkpt lat="49.38072" lon="4.10793">
        <ele>112</ele>
        <time>2019-04-07T09:59:59Z</time>
      </trkpt>
      <trkpt lat="49.38071" lon="4.10802">
        <ele>112</ele>
        <time>2019-04-07T10:00:00Z</time>
      </trkpt>
      <trkpt lat="49.3807" lon="4.10809">
        <ele>112</ele>
        <time>2019-04-07T10:00:01Z</time>
      </trkpt>
      <trkpt lat="49.38069" lon="4.10817">
        <ele>112</ele>
        <time>2019-04-07T10:00:02Z</time>
      </trkpt>
      <trkpt lat="49.38068" lon="4.10826">
        <ele>113</ele>
        <time>2019-04-07T10:00:03Z</time>
      </trkpt>
      <trkpt lat="49.38067" lon="4.10834">
        <ele>112</ele>
        <time>2019-04-07T10:00:04Z</time>
      </trkpt>
      <trkpt lat="49.38066" lon="4.10842">
        <ele>112</ele>
        <time>2019-04-07T10:00:05Z</time>
      </trkpt>
      <trkpt lat="49.38066" lon="4.1085">
        <ele>112</ele>
        <time>2019-04-07T10:00:06Z</time>
      </trkpt>
      <trkpt lat="49.38065" lon="4.10858">
        <ele>112</ele>
        <time>2019-04-07T10:00:07Z</time>
      </trkpt>
      <trkpt lat="49.38065" lon="4.10865">
        <ele>113</ele>
        <time>2019-04-07T10:00:08Z</time>
      </trkpt>
      <trkpt lat="49.38063" lon="4.10873">
        <ele>113</ele>
        <time>2019-04-07T10:00:09Z</time>
      </trkpt>
      <trkpt lat="49.38062" lon="4.10881">
        <ele>112</ele>
        <time>2019-04-07T10:00:10Z</time>
      </trkpt>
      <trkpt lat="49.38062" lon="4.10889">
        <ele>112</ele>
        <time>2019-04-07T10:00:11Z</time>
      </trkpt>
      <trkpt lat="49.38061" lon="4.10897">
        <ele>112</ele>
        <time>2019-04-07T10:00:12Z</time>
      </trkpt>
      <trkpt lat="49.3806" lon="4.10904">
        <ele>112</ele>
        <time>2019-04-07T10:00:13Z</time>
      </trkpt>
      <trkpt lat="49.38059" lon="4.10912">
        <ele>112</ele>
        <time>2019-04-07T10:00:14Z</time>
      </trkpt>
      <trkpt lat="49.38058" lon="4.1092">
        <ele>112</ele>
        <time>2019-04-07T10:00:15Z</time>
      </trkpt>
      <trkpt lat="49.38057" lon="4.10928">
        <ele>112</ele>
        <time>2019-04-07T10:00:16Z</time>
      </trkpt>
      <trkpt lat="49.38056" lon="4.10936">
        <ele>112</ele>
        <time>2019-04-07T10:00:17Z</time>
      </trkpt>
      <trkpt lat="49.38055" lon="4.10944">
        <ele>112</ele>
        <time>2019-04-07T10:00:18Z</time>
      </trkpt>
      <trkpt lat="49.38055" lon="4.10952">
        <ele>112</ele>
        <time>2019-04-07T10:00:19Z</time>
      </trkpt>
      <trkpt lat="49.38054" lon="4.10961">
        <ele>112</ele>
        <time>2019-04-07T10:00:20Z</time>
      </trkpt>
      <trkpt lat="49.38053" lon="4.10969">
        <ele>112</ele>
        <time>2019-04-07T10:00:21Z</time>
      </trkpt>
      <trkpt lat="49.38052" lon="4.10976">
        <ele>112</ele>
        <time>2019-04-07T10:00:22Z</time>
      </trkpt>
      <trkpt lat="49.38052" lon="4.10984">
        <ele>112</ele>
        <time>2019-04-07T10:00:23Z</time>
      </trkpt>
      <trkpt lat="49.38051" lon="4.10993">
        <ele>112</ele>
        <time>2019-04-07T10:00:24Z</time>
      </trkpt>
      <trkpt lat="49.3805" lon="4.11001">
        <ele>112</ele>
        <time>2019-04-07T10:00:25Z</time>
      </trkpt>
      <trkpt lat="49.38049" lon="4.11009">
        <ele>112</ele>
        <time>2019-04-07T10:00:26Z</time>
      </trkpt>
      <trkpt lat="49.38048" lon="4.11018">
        <ele>112</ele>
        <time>2019-04-07T10:00:27Z</time>
      </trkpt>
      <trkpt lat="49.38047" lon="4.11026">
        <ele>112</ele>
        <time>2019-04-07T10:00:28Z</time>
      </trkpt>
      <trkpt lat="49.38046" lon="4.11035">
        <ele>112</ele>
        <time>2019-04-07T10:00:29Z</time>
      </trkpt>
      <trkpt lat="49.38045" lon="4.11043">
        <ele>112</ele>
        <time>2019-04-07T10:00:30Z</time>
      </trkpt>
      <trkpt lat="49.38044" lon="4.11052">
        <ele>112</ele>
        <time>2019-04-07T10:00:31Z</time>
      </trkpt>
      <trkpt lat="49.38043" lon="4.11061">
        <ele>112</ele>
        <time>2019-04-07T10:00:32Z</time>
      </trkpt>
      <trkpt lat="49.38043" lon="4.1107">
        <ele>112</ele>
        <time>2019-04-07T10:00:33Z</time>
      </trkpt>
      <trkpt lat="49.38042" lon="4.11079">
        <ele>112</ele>
        <time>2019-04-07T10:00:34Z</time>
      </trkpt>
      <trkpt lat="49.38041" lon="4.11088">
        <ele>112</ele>
        <time>2019-04-07T10:00:35Z</time>
      </trkpt>
      <trkpt lat="49.3804" lon="4.11097">
        <ele>112</ele>
        <time>2019-04-07T10:00:36Z</time>
      </trkpt>
      <trkpt lat="49.38039" lon="4.11106">
        <ele>112</ele>
        <time>2019-04-07T10:00:37Z</time>
      </trkpt>
      <trkpt lat="49.38038" lon="4.11116">
        <ele>112</ele>
        <time>2019-04-07T10:00:38Z</time>
      </trkpt>
      <trkpt lat="49.38037" lon="4.11126">
        <ele>113</ele>
        <time>2019-04-07T10:00:39Z</time>
      </trkpt>
      <trkpt lat="49.38036" lon="4.11135">
        <ele>113</ele>
        <time>2019-04-07T10:00:40Z</time>
      </trkpt>
      <trkpt lat="49.38035" lon="4.11145">
        <ele>112</ele>
        <time>2019-04-07T10:00:41Z</time>
      </trkpt>
      <trkpt lat="49.38034" lon="4.11155">
        <ele>113</ele>
        <time>2019-04-07T10:00:42Z</time>
      </trkpt>
      <trkpt lat="49.38033" lon="4.11165">
        <ele>113</ele>
        <time>2019-04-07T10:00:43Z</time>
      </trkpt>
      <trkpt lat="49.38032" lon="4.11174">
        <ele>112</ele>
        <time>2019-04-07T10:00:44Z</time>
      </trkpt>
      <trkpt lat="49.38031" lon="4.11183">
        <ele>113</ele>
        <time>2019-04-07T10:00:45Z</time>
      </trkpt>
      <trkpt lat="49.3803" lon="4.11193">
        <ele>113</ele>
        <time>2019-04-07T10:00:46Z</time>
      </trkpt>
      <trkpt lat="49.38028" lon="4.11203">
        <ele>112</ele>
        <time>2019-04-07T10:00:47Z</time>
      </trkpt>
      <trkpt lat="49.38027" lon="4.11213">
        <ele>112</ele>
        <time>2019-04-07T10:00:48Z</time>
      </trkpt>
      <trkpt lat="49.38026" lon="4.11222">
        <ele>112</ele>
        <time>2019-04-07T10:00:49Z</time>
      </trkpt>
      <trkpt lat="49.38025" lon="4.11232">
        <ele>112</ele>
        <time>2019-04-07T10:00:50Z</time>
      </trkpt>
      <trkpt lat="49.38023" lon="4.11242">
        <ele>112</ele>
        <time>2019-04-07T10:00:51Z</time>
      </trkpt>
      <trkpt lat="49.38022" lon="4.11251">
        <ele>112</ele>
        <time>2019-04-07T10:00:52Z</time>
      </trkpt>
      <trkpt lat="49.3802" lon="4.11261">
        <ele>112</ele>
        <time>2019-04-07T10:00:53Z</time>
      </trkpt>
      <trkpt lat="49.38019" lon="4.11271">
        <ele>112</ele>
        <time>2019-04-07T10:00:54Z</time>
      </trkpt>
      <trkpt lat="49.38017" lon="4.1128">
        <ele>112</ele>
        <time>2019-04-07T10:00:55Z</time>
      </trkpt>
      <trkpt lat="49.38016" lon="4.11289">
        <ele>112</ele>
        <time>2019-04-07T10:00:56Z</time>
      </trkpt>
      <trkpt lat="49.38015" lon="4.11298">
        <ele>112</ele>
        <time>2019-04-07T10:00:57Z</time>
      </trkpt>
      <trkpt lat="49.38013" lon="4.11307">
        <ele>112</ele>
        <time>2019-04-07T10:00:58Z</time>
      </trkpt>
      <trkpt lat="49.38012" lon="4.11316">
        <ele>112</ele>
        <time>2019-04-07T10:00:59Z</time>
      </trkpt>
      <trkpt lat="49.3801" lon="4.11325">
        <ele>112</ele>
        <time>2019-04-07T10:01:00Z</time>
      </trkpt>
      <trkpt lat="49.38009" lon="4.11335">
        <ele>112</ele>
        <time>2019-04-07T10:01:01Z</time>
      </trkpt>
      <trkpt lat="49.38007" lon="4.11343">
        <ele>112</ele>
        <time>2019-04-07T10:01:02Z</time>
      </trkpt>
      <trkpt lat="49.38006" lon="4.11353">
        <ele>112</ele>
        <time>2019-04-07T10:01:03Z</time>
      </trkpt>
      <trkpt lat="49.38005" lon="4.11362">
        <ele>112</ele>
        <time>2019-04-07T10:01:04Z</time>
      </trkpt>
      <trkpt lat="49.38003" lon="4.11371">
        <ele>112</ele>
        <time>2019-04-07T10:01:05Z</time>
      </trkpt>
      <trkpt lat="49.38002" lon="4.1138">
        <ele>112</ele>
        <time>2019-04-07T10:01:06Z</time>
      </trkpt>
      <trkpt lat="49.38" lon="4.11389">
        <ele>112</ele>
        <time>2019-04-07T10:01:07Z</time>
      </trkpt>
      <trkpt lat="49.37999" lon="4.11398">
        <ele>112</ele>
        <time>2019-04-07T10:01:08Z</time>
      </trkpt>
      <trkpt lat="49.37998" lon="4.11407">
        <ele>112</ele>
        <time>2019-04-07T10:01:09Z</time>
      </trkpt>
      <trkpt lat="49.37996" lon="4.11417">
        <ele>112</ele>
        <time>2019-04-07T10:01:10Z</time>
      </trkpt>
      <trkpt lat="49.37994" lon="4.11426">
        <ele>112</ele>
        <time>2019-04-07T10:01:11Z</time>
      </trkpt>
      <trkpt lat="49.37993" lon="4.11436">
        <ele>113</ele>
        <time>2019-04-07T10:01:12Z</time>
      </trkpt>
      <trkpt lat="49.37992" lon="4.11445">
        <ele>113</ele>
        <time>2019-04-07T10:01:13Z</time>
      </trkpt>
      <trkpt lat="49.3799" lon="4.11454">
        <ele>113</ele>
        <time>2019-04-07T10:01:14Z</time>
      </trkpt>
      <trkpt lat="49.37989" lon="4.11463">
        <ele>113</ele>
        <time>2019-04-07T10:01:15Z</time>
      </trkpt>
      <trkpt lat="49.37988" lon="4.11472">
        <ele>114</ele>
        <time>2019-04-07T10:01:16Z</time>
      </trkpt>
      <trkpt lat="49.37986" lon="4.11481">
        <ele>114</ele>
        <time>2019-04-07T10:01:17Z</time>
      </trkpt>
      <trkpt lat="49.37985" lon="4.1149">
        <ele>114</ele>
        <time>2019-04-07T10:01:18Z</time>
      </trkpt>
      <trkpt lat="49.37983" lon="4.11499">
        <ele>114</ele>
        <time>2019-04-07T10:01:19Z</time>
      </trkpt>
      <trkpt lat="49.37982" lon="4.11508">
        <ele>114</ele>
        <time>2019-04-07T10:01:20Z</time>
      </trkpt>
      <trkpt lat="49.3798" lon="4.11517">
        <ele>114</ele>
        <time>2019-04-07T10:01:21Z</time>
      </trkpt>
      <trkpt lat="49.37979" lon="4.11526">
        <ele>114</ele>
        <time>2019-04-07T10:01:22Z</time>
      </trkpt>
      <trkpt lat="49.37977" lon="4.11535">
        <ele>114</ele>
        <time>2019-04-07T10:01:23Z</time>
      </trkpt>
      <trkpt lat="49.37976" lon="4.11544">
        <ele>114</ele>
        <time>2019-04-07T10:01:24Z</time>
      </trkpt>
      <trkpt lat="49.37974" lon="4.11553">
        <ele>115</ele>
        <time>2019-04-07T10:01:25Z</time>
      </trkpt>
      <trkpt lat="49.37973" lon="4.11562">
        <ele>114</ele>
        <time>2019-04-07T10:01:26Z</time>
      </trkpt>
      <trkpt lat="49.37971" lon="4.11571">
        <ele>115</ele>
        <time>2019-04-07T10:01:27Z</time>
      </trkpt>
      <trkpt lat="49.3797" lon="4.1158">
        <ele>115</ele>
        <time>2019-04-07T10:01:28Z</time>
      </trkpt>
      <trkpt lat="49.37969" lon="4.11589">
        <ele>115</ele>
        <time>2019-04-07T10:01:29Z</time>
      </trkpt>
      <trkpt lat="49.37967" lon="4.11598">
        <ele>115</ele>
        <time>2019-04-07T10:01:30Z</time>
      </trkpt>
      <trkpt lat="49.37966" lon="4.11606">
        <ele>115</ele>
        <time>2019-04-07T10:01:31Z</time>
      </trkpt>
      <trkpt lat="49.37964" lon="4.11615">
        <ele>115</ele>
        <time>2019-04-07T10:01:32Z</time>
      </trkpt>
      <trkpt lat="49.37963" lon="4.11624">
        <ele>115</ele>
        <time>2019-04-07T10:01:33Z</time>
      </trkpt>
      <trkpt lat="49.37962" lon="4.11633">
        <ele>115</ele>
        <time>2019-04-07T10:01:34Z</time>
      </trkpt>
      <trkpt lat="49.3796" lon="4.11641">
        <ele>115</ele>
        <time>2019-04-07T10:01:35Z</time>
      </trkpt>
      <trkpt lat="49.37958" lon="4.1165">
        <ele>115</ele>
        <time>2019-04-07T10:01:36Z</time>
      </trkpt>
      <trkpt lat="49.37957" lon="4.11659">
        <ele>115</ele>
        <time>2019-04-07T10:01:37Z</time>
      </trkpt>
      <trkpt lat="49.37956" lon="4.11668">
        <ele>116</ele>
        <time>2019-04-07T10:01:38Z</time>
      </trkpt>
      <trkpt lat="49.37954" lon="4.11678">
        <ele>116</ele>
        <time>2019-04-07T10:01:39Z</time>
      </trkpt>
      <trkpt lat="49.37952" lon="4.11688">
        <ele>116</ele>
        <time>2019-04-07T10:01:40Z</time>
      </trkpt>
      <trkpt lat="49.37951" lon="4.11699">
        <ele>116</ele>
        <time>2019-04-07T10:01:41Z</time>
      </trkpt>
      <trkpt lat="49.37949" lon="4.11709">
        <ele>116</ele>
        <time>2019-04-07T10:01:42Z</time>
      </trkpt>
      <trkpt lat="49.37947" lon="4.11719">
        <ele>116</ele>
        <time>2019-04-07T10:01:43Z</time>
      </trkpt>
      <trkpt lat="49.37946" lon="4.11729">
        <ele>116</ele>
        <time>2019-04-07T10:01:44Z</time>
      </trkpt>
      <trkpt lat="49.37944" lon="4.11739">
        <ele>116</ele>
        <time>2019-04-07T10:01:45Z</time>
      </trkpt>
      <trkpt lat="49.37942" lon="4.1175">
        <ele>116</ele>
        <time>2019-04-07T10:01:46Z</time>
      </trkpt>
      <trkpt lat="49.37941" lon="4.1176">
        <ele>116</ele>
        <time>2019-04-07T10:01:47Z</time>
      </trkpt>
      <trkpt lat="49.37939" lon="4.1177">
        <ele>117</ele>
        <time>2019-04-07T10:01:48Z</time>
      </trkpt>
      <trkpt lat="49.37938" lon="4.11781">
        <ele>117</ele>
        <time>2019-04-07T10:01:49Z</time>
      </trkpt>
      <trkpt lat="49.37937" lon="4.11791">
        <ele>117</ele>
        <time>2019-04-07T10:01:50Z</time>
      </trkpt>
      <trkpt lat="49.37935" lon="4.118">
        <ele>117</ele>
        <time>2019-04-07T10:01:51Z</time>
      </trkpt>
      <trkpt lat="49.37933" lon="4.11809">
        <ele>117</ele>
        <time>2019-04-07T10:01:52Z</time>
      </trkpt>
      <trkpt lat="49.37932" lon="4.11818">
        <ele>117</ele>
        <time>2019-04-07T10:01:53Z</time>
      </trkpt>
      <trkpt lat="49.37931" lon="4.11827">
        <ele>117</ele>
        <time>2019-04-07T10:01:54Z</time>
      </trkpt>
      <trkpt lat="49.37929" lon="4.11836">
        <ele>117</ele>
        <time>2019-04-07T10:01:55Z</time>
      </trkpt>
      <trkpt lat="49.37927" lon="4.11846">
        <ele>117</ele>
        <time>2019-04-07T10:01:56Z</time>
      </trkpt>
      <trkpt lat="49.37926" lon="4.11856">
        <ele>117</ele>
        <time>2019-04-07T10:01:57Z</time>
      </trkpt>
      <trkpt lat="49.37924" lon="4.11865">
        <ele>117</ele>
        <time>2019-04-07T10:01:58Z</time>
      </trkpt>
      <trkpt lat="49.37923" lon="4.11875">
        <ele>117</ele>
        <time>2019-04-07T10:01:59Z</time>
      </trkpt>
      <trkpt lat="49.37921" lon="4.11885">
        <ele>117</ele>
        <time>2019-04-07T10:02:00Z</time>
      </trkpt>
      <trkpt lat="49.37919" lon="4.11894">
        <ele>117</ele>
        <time>2019-04-07T10:02:01Z</time>
      </trkpt>
      <trkpt lat="49.37916" lon="4.11904">
        <ele>117</ele>
        <time>2019-04-07T10:02:02Z</time>
      </trkpt>
      <trkpt lat="49.37914" lon="4.11913">
        <ele>117</ele>
        <time>2019-04-07T10:02:03Z</time>
      </trkpt>
      <trkpt lat="49.37912" lon="4.11922">
        <ele>117</ele>
        <time>2019-04-07T10:02:04Z</time>
      </trkpt>
      <trkpt lat="49.37909" lon="4.11931">
        <ele>117</ele>
        <time>2019-04-07T10:02:05Z</time>
      </trkpt>
      <trkpt lat="49.37907" lon="4.1194">
        <ele>117</ele>
        <time>2019-04-07T10:02:06Z</time>
      </trkpt>
      <trkpt lat="49.37904" lon="4.1195">
        <ele>118</ele>
        <time>2019-04-07T10:02:07Z</time>
      </trkpt>
      <trkpt lat="49.37901" lon="4.11959">
        <ele>118</ele>
        <time>2019-04-07T10:02:08Z</time>
      </trkpt>
      <trkpt lat="49.37898" lon="4.11968">
        <ele>118</ele>
        <time>2019-04-07T10:02:09Z</time>
      </trkpt>
      <trkpt lat="49.37895" lon="4.11977">
        <ele>118</ele>
        <time>2019-04-07T10:02:10Z</time>
      </trkpt>
      <trkpt lat="49.37892" lon="4.11985">
        <ele>118</ele>
        <time>2019-04-07T10:02:11Z</time>
      </trkpt>
      <trkpt lat="49.37889" lon="4.11994">
        <ele>118</ele>
        <time>2019-04-07T10:02:12Z</time>
      </trkpt>
      <trkpt lat="49.37886" lon="4.12003">
        <ele>118</ele>
        <time>2019-04-07T10:02:13Z</time>
      </trkpt>
      <trkpt lat="49.37884" lon="4.12012">
        <ele>118</ele>
        <time>2019-04-07T10:02:14Z</time>
      </trkpt>
      <trkpt lat="49.37881" lon="4.12021">
        <ele>118</ele>
        <time>2019-04-07T10:02:15Z</time>
      </trkpt>
      <trkpt lat="49.37877" lon="4.1203">
        <ele>118</ele>
        <time>2019-04-07T10:02:16Z</time>
      </trkpt>
      <trkpt lat="49.37874" lon="4.12039">
        <ele>118</ele>
        <time>2019-04-07T10:02:17Z</time>
      </trkpt>
      <trkpt lat="49.37871" lon="4.12048">
        <ele>118</ele>
        <time>2019-04-07T10:02:18Z</time>
      </trkpt>
      <trkpt lat="49.37869" lon="4.12057">
        <ele>118</ele>
        <time>2019-04-07T10:02:19Z</time>
      </trkpt>
      <trkpt lat="49.37866" lon="4.12065">
        <ele>118</ele>
        <time>2019-04-07T10:02:20Z</time>
      </trkpt>
      <trkpt lat="49.37863" lon="4.12074">
        <ele>117</ele>
        <time>2019-04-07T10:02:21Z</time>
      </trkpt>
      <trkpt lat="49.3786" lon="4.12083">
        <ele>117</ele>
        <time>2019-04-07T10:02:22Z</time>
      </trkpt>
      <trkpt lat="49.37857" lon="4.12091">
        <ele>117</ele>
        <time>2019-04-07T10:02:23Z</time>
      </trkpt>
      <trkpt lat="49.37854" lon="4.121">
        <ele>117</ele>
        <time>2019-04-07T10:02:24Z</time>
      </trkpt>
      <trkpt lat="49.37851" lon="4.12109">
        <ele>117</ele>
        <time>2019-04-07T10:02:25Z</time>
      </trkpt>
      <trkpt lat="49.37849" lon="4.12118">
        <ele>117</ele>
        <time>2019-04-07T10:02:26Z</time>
      </trkpt>
      <trkpt lat="49.37845" lon="4.12127">
        <ele>117</ele>
        <time>2019-04-07T10:02:27Z</time>
      </trkpt>
      <trkpt lat="49.37843" lon="4.12136">
        <ele>118</ele>
        <time>2019-04-07T10:02:28Z</time>
      </trkpt>
      <trkpt lat="49.3784" lon="4.12144">
        <ele>118</ele>
        <time>2019-04-07T10:02:29Z</time>
      </trkpt>
      <trkpt lat="49.37837" lon="4.12153">
        <ele>117</ele>
        <time>2019-04-07T10:02:30Z</time>
      </trkpt>
      <trkpt lat="49.37834" lon="4.12162">
        <ele>117</ele>
        <time>2019-04-07T10:02:31Z</time>
      </trkpt>
      <trkpt lat="49.37831" lon="4.1217">
        <ele>117</ele>
        <time>2019-04-07T10:02:32Z</time>
      </trkpt>
      <trkpt lat="49.37829" lon="4.1218">
        <ele>117</ele>
        <time>2019-04-07T10:02:33Z</time>
      </trkpt>
      <trkpt lat="49.37826" lon="4.12189">
        <ele>117</ele>
        <time>2019-04-07T10:02:34Z</time>
      </trkpt>
      <trkpt lat="49.37823" lon="4.12198">
        <ele>117</ele>
        <time>2019-04-07T10:02:35Z</time>
      </trkpt>
      <trkpt lat="49.3782" lon="4.12207">
        <ele>117</ele>
        <time>2019-04-07T10:02:36Z</time>
      </trkpt>
      <trkpt lat="49.37817" lon="4.12216">
        <ele>117</ele>
        <time>2019-04-07T10:02:37Z</time>
      </trkpt>
      <trkpt lat="49.37814" lon="4.12226">
        <ele>117</ele>
        <time>2019-04-07T10:02:38Z</time>
      </trkpt>
      <trkpt lat="49.37811" lon="4.12235">
        <ele>117</ele>
        <time>2019-04-07T10:02:39Z</time>
      </trkpt>
      <trkpt lat="49.37808" lon="4.12244">
        <ele>117</ele>
        <time>2019-04-07T10:02:40Z</time>
      </trkpt>
      <trkpt lat="49.37805" lon="4.12254">
        <ele>117</ele>
        <time>2019-04-07T10:02:41Z</time>
      </trkpt>
      <trkpt lat="49.37802" lon="4.12263">
        <ele>117</ele>
        <time>2019-04-07T10:02:42Z</time>
      </trkpt>
      <trkpt lat="49.37799" lon="4.12273">
        <ele>117</ele>
        <time>2019-04-07T10:02:43Z</time>
      </trkpt>
      <trkpt lat="49.37797" lon="4.12282">
        <ele>117</ele>
        <time>2019-04-07T10:02:44Z</time>
      </trkpt>
      <trkpt lat="49.37794" lon="4.12293">
        <ele>117</ele>
        <time>2019-04-07T10:02:45Z</time>
      </trkpt>
      <trkpt lat="49.37791" lon="4.12303">
        <ele>117</ele>
        <time>2019-04-07T10:02:46Z</time>
      </trkpt>
      <trkpt lat="49.37789" lon="4.12313">
        <ele>117</ele>
        <time>2019-04-07T10:02:47Z</time>
      </trkpt>
      <trkpt lat="49.37787" lon="4.12323">
        <ele>117</ele>
        <time>2019-04-07T10:02:48Z</time>
      </trkpt>
      <trkpt lat="49.37785" lon="4.12334">
        <ele>117</ele>
        <time>2019-04-07T10:02:49Z</time>
      </trkpt>
      <trkpt lat="49.37784" lon="4.12344">
        <ele>117</ele>
        <time>2019-04-07T10:02:50Z</time>
      </trkpt>
      <trkpt lat="49.37782" lon="4.12354">
        <ele>117</ele>
        <time>2019-04-07T10:02:51Z</time>
      </trkpt>
      <trkpt lat="49.3778" lon="4.12365">
        <ele>117</ele>
        <time>2019-04-07T10:02:52Z</time>
      </trkpt>
      <trkpt lat="49.37778" lon="4.12376">
        <ele>117</ele>
        <time>2019-04-07T10:02:53Z</time>
      </trkpt>
      <trkpt lat="49.37777" lon="4.12387">
        <ele>117</ele>
        <time>2019-04-07T10:02:54Z</time>
      </trkpt>
      <trkpt lat="49.37775" lon="4.12398">
        <ele>117</ele>
        <time>2019-04-07T10:02:55Z</time>
      </trkpt>
      <trkpt lat="49.37774" lon="4.12409">
        <ele>117</ele>
        <time>2019-04-07T10:02:56Z</time>
      </trkpt>
      <trkpt lat="49.37772" lon="4.12419">
        <ele>117</ele>
        <time>2019-04-07T10:02:57Z</time>
      </trkpt>
      <trkpt lat="49.37771" lon="4.12429">
        <ele>116</ele>
        <time>2019-04-07T10:02:58Z</time>
      </trkpt>
      <trkpt lat="49.37769" lon="4.1244">
        <ele>116</ele>
        <time>2019-04-07T10:02:59Z</time>
      </trkpt>
      <trkpt lat="49.37768" lon="4.12451">
        <ele>117</ele>
        <time>2019-04-07T10:03:00Z</time>
      </trkpt>
      <trkpt lat="49.37766" lon="4.12461">
        <ele>116</ele>
        <time>2019-04-07T10:03:01Z</time>
      </trkpt>
      <trkpt lat="49.37765" lon="4.12472">
        <ele>116</ele>
        <time>2019-04-07T10:03:02Z</time>
      </trkpt>
      <trkpt lat="49.37763" lon="4.12482">
        <ele>116</ele>
        <time>2019-04-07T10:03:03Z</time>
      </trkpt>
      <trkpt lat="49.37762" lon="4.12492">
        <ele>116</ele>
        <time>2019-04-07T10:03:04Z</time>
      </trkpt>
      <trkpt lat="49.37761" lon="4.12503">
        <ele>116</ele>
        <time>2019-04-07T10:03:05Z</time>
      </trkpt>
      <trkpt lat="49.37759" lon="4.12513">
        <ele>116</ele>
        <time>2019-04-07T10:03:06Z</time>
      </trkpt>
      <trkpt lat="49.37758" lon="4.12524">
        <ele>117</ele>
        <time>2019-04-07T10:03:07Z</time>
      </trkpt>
      <trkpt lat="49.37756" lon="4.12535">
        <ele>117</ele>
        <time>2019-04-07T10:03:08Z</time>
      </trkpt>
      <trkpt lat="49.37754" lon="4.12546">
        <ele>116</ele>
        <time>2019-04-07T10:03:09Z</time>
      </trkpt>
      <trkpt lat="49.37753" lon="4.12556">
        <ele>116</ele>
        <time>2019-04-07T10:03:10Z</time>
      </trkpt>
      <trkpt lat="49.37751" lon="4.12567">
        <ele>116</ele>
        <time>2019-04-07T10:03:11Z</time>
      </trkpt>
      <trkpt lat="49.3775" lon="4.12578">
        <ele>117</ele>
        <time>2019-04-07T10:03:12Z</time>
      </trkpt>
      <trkpt lat="49.37748" lon="4.12589">
        <ele>116</ele>
        <time>2019-04-07T10:03:13Z</time>
      </trkpt>
      <trkpt lat="49.37747" lon="4.12599">
        <ele>117</ele>
        <time>2019-04-07T10:03:14Z</time>
      </trkpt>
      <trkpt lat="49.37745" lon="4.1261">
        <ele>117</ele>
        <time>2019-04-07T10:03:15Z</time>
      </trkpt>
      <trkpt lat="49.37744" lon="4.12621">
        <ele>117</ele>
        <time>2019-04-07T10:03:16Z</time>
      </trkpt>
      <trkpt lat="49.37742" lon="4.12631">
        <ele>116</ele>
        <time>2019-04-07T10:03:17Z</time>
      </trkpt>
      <trkpt lat="49.3774" lon="4.12642">
        <ele>116</ele>
        <time>2019-04-07T10:03:18Z</time>
      </trkpt>
      <trkpt lat="49.37739" lon="4.12653">
        <ele>116</ele>
        <time>2019-04-07T10:03:19Z</time>
      </trkpt>
      <trkpt lat="49.37737" lon="4.12663">
        <ele>116</ele>
        <time>2019-04-07T10:03:20Z</time>
      </trkpt>
      <trkpt lat="49.37736" lon="4.12674">
        <ele>117</ele>
        <time>2019-04-07T10:03:21Z</time>
      </trkpt>
      <trkpt lat="49.37734" lon="4.12684">
        <ele>116</ele>
        <time>2019-04-07T10:03:22Z</time>
      </trkpt>
      <trkpt lat="49.37733" lon="4.12694">
        <ele>116</ele>
        <time>2019-04-07T10:03:23Z</time>
      </trkpt>
      <trkpt lat="49.37731" lon="4.12704">
        <ele>116</ele>
        <time>2019-04-07T10:03:24Z</time>
      </trkpt>
      <trkpt lat="49.3773" lon="4.12714">
        <ele>116</ele>
        <time>2019-04-07T10:03:25Z</time>
      </trkpt>
      <trkpt lat="49.37728" lon="4.12723">
        <ele>116</ele>
        <time>2019-04-07T10:03:26Z</time>
      </trkpt>
      <trkpt lat="49.37727" lon="4.12733">
        <ele>116</ele>
        <time>2019-04-07T10:03:27Z</time>
      </trkpt>
      <trkpt lat="49.37725" lon="4.12742">
        <ele>116</ele>
        <time>2019-04-07T10:03:28Z</time>
      </trkpt>
      <trkpt lat="49.37723" lon="4.12752">
        <ele>116</ele>
        <time>2019-04-07T10:03:29Z</time>
      </trkpt>
      <trkpt lat="49.37721" lon="4.12762">
        <ele>116</ele>
        <time>2019-04-07T10:03:30Z</time>
      </trkpt>
      <trkpt lat="49.3772" lon="4.12773">
        <ele>116</ele>
        <time>2019-04-07T10:03:31Z</time>
      </trkpt>
      <trkpt lat="49.37718" lon="4.12783">
        <ele>116</ele>
        <time>2019-04-07T10:03:32Z</time>
      </trkpt>
      <trkpt lat="49.37715" lon="4.12794">
        <ele>116</ele>
        <time>2019-04-07T10:03:33Z</time>
      </trkpt>
      <trkpt lat="49.37713" lon="4.12804">
        <ele>116</ele>
        <time>2019-04-07T10:03:34Z</time>
      </trkpt>
      <trkpt lat="49.3771" lon="4.12814">
        <ele>116</ele>
        <time>2019-04-07T10:03:35Z</time>
      </trkpt>
      <trkpt lat="49.37707" lon="4.12824">
        <ele>117</ele>
        <time>2019-04-07T10:03:36Z</time>
      </trkpt>
      <trkpt lat="49.37704" lon="4.12834">
        <ele>117</ele>
        <time>2019-04-07T10:03:37Z</time>
      </trkpt>
      <trkpt lat="49.377" lon="4.12844">
        <ele>117</ele>
        <time>2019-04-07T10:03:38Z</time>
      </trkpt>
      <trkpt lat="49.37697" lon="4.12853">
        <ele>117</ele>
        <time>2019-04-07T10:03:39Z</time>
      </trkpt>
      <trkpt lat="49.37694" lon="4.12863">
        <ele>116</ele>
        <time>2019-04-07T10:03:40Z</time>
      </trkpt>
      <trkpt lat="49.37691" lon="4.12873">
        <ele>116</ele>
        <time>2019-04-07T10:03:41Z</time>
      </trkpt>
      <trkpt lat="49.37688" lon="4.12883">
        <ele>116</ele>
        <time>2019-04-07T10:03:42Z</time>
      </trkpt>
      <trkpt lat="49.37685" lon="4.12892">
        <ele>116</ele>
        <time>2019-04-07T10:03:43Z</time>
      </trkpt>
      <trkpt lat="49.37681" lon="4.12901">
        <ele>116</ele>
        <time>2019-04-07T10:03:44Z</time>
      </trkpt>
      <trkpt lat="49.37678" lon="4.1291">
        <ele>116</ele>
        <time>2019-04-07T10:03:45Z</time>
      </trkpt>
      <trkpt lat="49.37674" lon="4.12919">
        <ele>116</ele>
        <time>2019-04-07T10:03:46Z</time>
      </trkpt>
      <trkpt lat="49.37671" lon="4.12928">
        <ele>116</ele>
        <time>2019-04-07T10:03:47Z</time>
      </trkpt>
      <trkpt lat="49.37667" lon="4.12937">
        <ele>116</ele>
        <time>2019-04-07T10:03:48Z</time>
      </trkpt>
      <trkpt lat="49.37664" lon="4.12946">
        <ele>116</ele>
        <time>2019-04-07T10:03:49Z</time>
      </trkpt>
      <trkpt lat="49.3766" lon="4.12955">
        <ele>116</ele>
        <time>2019-04-07T10:03:50Z</time>
      </trkpt>
      <trkpt lat="49.37657" lon="4.12964">
        <ele>116</ele>
        <time>2019-04-07T10:03:51Z</time>
      </trkpt>
      <trkpt lat="49.37653" lon="4.12973">
        <ele>116</ele>
        <time>2019-04-07T10:03:52Z</time>
      </trkpt>
      <trkpt lat="49.37646" lon="4.12992">
        <ele>116</ele>
        <time>2019-04-07T10:03:54Z</time>
      </trkpt>
      <trkpt lat="49.37643" lon="4.13">
        <ele>116</ele>
        <time>2019-04-07T10:03:55Z</time>
      </trkpt>
      <trkpt lat="49.37639" lon="4.13009">
        <ele>116</ele>
        <time>2019-04-07T10:03:56Z</time>
      </trkpt>
      <trkpt lat="49.37636" lon="4.13019">
        <ele>116</ele>
        <time>2019-04-07T10:03:57Z</time>
      </trkpt>
      <trkpt lat="49.37632" lon="4.13028">
        <ele>116</ele>
        <time>2019-04-07T10:03:58Z</time>
      </trkpt>
      <trkpt lat="49.37629" lon="4.13037">
        <ele>116</ele>
        <time>2019-04-07T10:03:59Z</time>
      </trkpt>
      <trkpt lat="49.37626" lon="4.13046">
        <ele>116</ele>
        <time>2019-04-07T10:04:00Z</time>
      </trkpt>
      <trkpt lat="49.37622" lon="4.13055">
        <ele>116</ele>
        <time>2019-04-07T10:04:01Z</time>
      </trkpt>
      <trkpt lat="49.37619" lon="4.13064">
        <ele>116</ele>
        <time>2019-04-07T10:04:02Z</time>
      </trkpt>
      <trkpt lat="49.37615" lon="4.13073">
        <ele>116</ele>
        <time>2019-04-07T10:04:03Z</time>
      </trkpt>
      <trkpt lat="49.37612" lon="4.13082">
        <ele>116</ele>
        <time>2019-04-07T10:04:04Z</time>
      </trkpt>
      <trkpt lat="49.37609" lon="4.13092">
        <ele>116</ele>
        <time>2019-04-07T10:04:05Z</time>
      </trkpt>
      <trkpt lat="49.37605" lon="4.13101">
        <ele>116</ele>
        <time>2019-04-07T10:04:06Z</time>
      </trkpt>
      <trkpt lat="49.37602" lon="4.1311">
        <ele>116</ele>
        <time>2019-04-07T10:04:07Z</time>
      </trkpt>
      <trkpt lat="49.37598" lon="4.13119">
        <ele>116</ele>
        <time>2019-04-07T10:04:08Z</time>
      </trkpt>
      <trkpt lat="49.37594" lon="4.13127">
        <ele>116</ele>
        <time>2019-04-07T10:04:09Z</time>
      </trkpt>
      <trkpt lat="49.37591" lon="4.13136">
        <ele>116</ele>
        <time>2019-04-07T10:04:10Z</time>
      </trkpt>
      <trkpt lat="49.37588" lon="4.13145">
        <ele>116</ele>
        <time>2019-04-07T10:04:11Z</time>
      </trkpt>
      <trkpt lat="49.37584" lon="4.13153">
        <ele>116</ele>
        <time>2019-04-07T10:04:12Z</time>
      </trkpt>
      <trkpt lat="49.37581" lon="4.13162">
        <ele>116</ele>
        <time>2019-04-07T10:04:13Z</time>
      </trkpt>
      <trkpt lat="49.37577" lon="4.13171">
        <ele>116</ele>
        <time>2019-04-07T10:04:14Z</time>
      </trkpt>
      <trkpt lat="49.37574" lon="4.13179">
        <ele>117</ele>
        <time>2019-04-07T10:04:15Z</time>
      </trkpt>
      <trkpt lat="49.3757" lon="4.13188">
        <ele>117</ele>
        <time>2019-04-07T10:04:16Z</time>
      </trkpt>
      <trkpt lat="49.37566" lon="4.13196">
        <ele>117</ele>
        <time>2019-04-07T10:04:17Z</time>
      </trkpt>
      <trkpt lat="49.37563" lon="4.13204">
        <ele>117</ele>
        <time>2019-04-07T10:04:18Z</time>
      </trkpt>
      <trkpt lat="49.37559" lon="4.13213">
        <ele>117</ele>
        <time>2019-04-07T10:04:19Z</time>
      </trkpt>
      <trkpt lat="49.37555" lon="4.1322">
        <ele>117</ele>
        <time>2019-04-07T10:04:20Z</time>
      </trkpt>
      <trkpt lat="49.37551" lon="4.13229">
        <ele>117</ele>
        <time>2019-04-07T10:04:21Z</time>
      </trkpt>
      <trkpt lat="49.37547" lon="4.13237">
        <ele>117</ele>
        <time>2019-04-07T10:04:22Z</time>
      </trkpt>
      <trkpt lat="49.37544" lon="4.13245">
        <ele>117</ele>
        <time>2019-04-07T10:04:23Z</time>
      </trkpt>
      <trkpt lat="49.37539" lon="4.13253">
        <ele>117</ele>
        <time>2019-04-07T10:04:24Z</time>
      </trkpt>
      <trkpt lat="49.37535" lon="4.13261">
        <ele>117</ele>
        <time>2019-04-07T10:04:25Z</time>
      </trkpt>
      <trkpt lat="49.37531" lon="4.13269">
        <ele>117</ele>
        <time>2019-04-07T10:04:26Z</time>
      </trkpt>
      <trkpt lat="49.37527" lon="4.13277">
        <ele>117</ele>
        <time>2019-04-07T10:04:27Z</time>
      </trkpt>
      <trkpt lat="49.37523" lon="4.13284">
        <ele>117</ele>
        <time>2019-04-07T10:04:28Z</time>
      </trkpt>
      <trkpt lat="49.37519" lon="4.13292">
        <ele>117</ele>
        <time>2019-04-07T10:04:29Z</time>
      </trkpt>
      <trkpt lat="49.37515" lon="4.13301">
        <ele>117</ele>
        <time>2019-04-07T10:04:30Z</time>
      </trkpt>
      <trkpt lat="49.37511" lon="4.13308">
        <ele>117</ele>
        <time>2019-04-07T10:04:31Z</time>
      </trkpt>
      <trkpt lat="49.37507" lon="4.13316">
        <ele>117</ele>
        <time>2019-04-07T10:04:32Z</time>
      </trkpt>
      <trkpt lat="49.37503" lon="4.13325">
        <ele>117</ele>
        <time>2019-04-07T10:04:33Z</time>
      </trkpt>
      <trkpt lat="49.37499" lon="4.13332">
        <ele>117</ele>
        <time>2019-04-07T10:04:34Z</time>
      </trkpt>
      <trkpt lat="49.37495" lon="4.1334">
        <ele>117</ele>
        <time>2019-04-07T10:04:35Z</time>
      </trkpt>
      <trkpt lat="49.37491" lon="4.13348">
        <ele>117</ele>
        <time>2019-04-07T10:04:36Z</time>
      </trkpt>
      <trkpt lat="49.37487" lon="4.13356">
        <ele>117</ele>
        <time>2019-04-07T10:04:37Z</time>
      </trkpt>
      <trkpt lat="49.37482" lon="4.13363">
        <ele>117</ele>
        <time>2019-04-07T10:04:38Z</time>
      </trkpt>
      <trkpt lat="49.37478" lon="4.13371">
        <ele>117</ele>
        <time>2019-04-07T10:04:39Z</time>
      </trkpt>
      <trkpt lat="49.37474" lon="4.1338">
        <ele>117</ele>
        <time>2019-04-07T10:04:40Z</time>
      </trkpt>
      <trkpt lat="49.3747" lon="4.13387">
        <ele>117</ele>
        <time>2019-04-07T10:04:41Z</time>
      </trkpt>
      <trkpt lat="49.37466" lon="4.13395">
        <ele>117</ele>
        <time>2019-04-07T10:04:42Z</time>
      </trkpt>
      <trkpt lat="49.37462" lon="4.13403">
        <ele>117</ele>
        <time>2019-04-07T10:04:43Z</time>
      </trkpt>
      <trkpt lat="49.37458" lon="4.1341">
        <ele>117</ele>
        <time>2019-04-07T10:04:44Z</time>
      </trkpt>
      <trkpt lat="49.37454" lon="4.13419">
        <ele>117</ele>
        <time>2019-04-07T10:04:45Z</time>
      </trkpt>
      <trkpt lat="49.3745" lon="4.13427">
        <ele>117</ele>
        <time>2019-04-07T10:04:46Z</time>
      </trkpt>
      <trkpt lat="49.37445" lon="4.13435">
        <ele>117</ele>
        <time>2019-04-07T10:04:47Z</time>
      </trkpt>
      <trkpt lat="49.37441" lon="4.13443">
        <ele>117</ele>
        <time>2019-04-07T10:04:48Z</time>
      </trkpt>
      <trkpt lat="49.37437" lon="4.13451">
        <ele>117</ele>
        <time>2019-04-07T10:04:49Z</time>
      </trkpt>
      <trkpt lat="49.37433" lon="4.13459">
        <ele>116</ele>
        <time>2019-04-07T10:04:50Z</time>
      </trkpt>
      <trkpt lat="49.37429" lon="4.13467">
        <ele>117</ele>
        <time>2019-04-07T10:04:51Z</time>
      </trkpt>
      <trkpt lat="49.37424" lon="4.13475">
        <ele>116</ele>
        <time>2019-04-07T10:04:52Z</time>
      </trkpt>
      <trkpt lat="49.3742" lon="4.13483">
        <ele>116</ele>
        <time>2019-04-07T10:04:53Z</time>
      </trkpt>
      <trkpt lat="49.37415" lon="4.13492">
        <ele>116</ele>
        <time>2019-04-07T10:04:54Z</time>
      </trkpt>
      <trkpt lat="49.37411" lon="4.135">
        <ele>116</ele>
        <time>2019-04-07T10:04:55Z</time>
      </trkpt>
      <trkpt lat="49.37407" lon="4.13509">
        <ele>116</ele>
        <time>2019-04-07T10:04:56Z</time>
      </trkpt>
      <trkpt lat="49.37403" lon="4.13517">
        <ele>116</ele>
        <time>2019-04-07T10:04:57Z</time>
      </trkpt>
      <trkpt lat="49.37399" lon="4.13525">
        <ele>116</ele>
        <time>2019-04-07T10:04:58Z</time>
      </trkpt>
      <trkpt lat="49.37395" lon="4.13533">
        <ele>116</ele>
        <time>2019-04-07T10:04:59Z</time>
      </trkpt>
      <trkpt lat="49.37391" lon="4.1354">
        <ele>117</ele>
        <time>2019-04-07T10:05:00Z</time>
      </trkpt>
      <trkpt lat="49.37386" lon="4.13548">
        <ele>117</ele>
        <time>2019-04-07T10:05:01Z</time>
      </trkpt>
      <trkpt lat="49.37383" lon="4.13556">
        <ele>117</ele>
        <time>2019-04-07T10:05:02Z</time>
      </trkpt>
      <trkpt lat="49.37379" lon="4.13564">
        <ele>117</ele>
        <time>2019-04-07T10:05:03Z</time>
      </trkpt>
      <trkpt lat="49.37375" lon="4.13572">
        <ele>117</ele>
        <time>2019-04-07T10:05:04Z</time>
      </trkpt>
      <trkpt lat="49.37371" lon="4.13579">
        <ele>117</ele>
        <time>2019-04-07T10:05:05Z</time>
      </trkpt>
      <trkpt lat="49.37367" lon="4.13587">
        <ele>117</ele>
        <time>2019-04-07T10:05:06Z</time>
      </trkpt>
      <trkpt lat="49.37363" lon="4.13594">
        <ele>117</ele>
        <time>2019-04-07T10:05:07Z</time>
      </trkpt>
      <trkpt lat="49.37359" lon="4.13602">
        <ele>117</ele>
        <time>2019-04-07T10:05:08Z</time>
      </trkpt>
      <trkpt lat="49.37355" lon="4.1361">
        <ele>117</ele>
        <time>2019-04-07T10:05:09Z</time>
      </trkpt>
      <trkpt lat="49.37351" lon="4.13617">
        <ele>117</ele>
        <time>2019-04-07T10:05:10Z</time>
      </trkpt>
      <trkpt lat="49.37347" lon="4.13624">
        <ele>117</ele>
        <time>2019-04-07T10:05:11Z</time>
      </trkpt>
      <trkpt lat="49.37344" lon="4.13632">
        <ele>117</ele>
        <time>2019-04-07T10:05:12Z</time>
      </trkpt>
      <trkpt lat="49.3734" lon="4.13639">
        <ele>117</ele>
        <time>2019-04-07T10:05:13Z</time>
      </trkpt>
      <trkpt lat="49.37336" lon="4.13646">
        <ele>118</ele>
        <time>2019-04-07T10:05:14Z</time>
      </trkpt>
      <trkpt lat="49.37332" lon="4.13653">
        <ele>118</ele>
        <time>2019-04-07T10:05:15Z</time>
      </trkpt>
      <trkpt lat="49.37329" lon="4.13661">
        <ele>118</ele>
        <time>2019-04-07T10:05:16Z</time>
      </trkpt>
      <trkpt lat="49.37325" lon="4.13668">
        <ele>118</ele>
        <time>2019-04-07T10:05:17Z</time>
      </trkpt>
      <trkpt lat="49.37321" lon="4.13675">
        <ele>118</ele>
        <time>2019-04-07T10:05:18Z</time>
      </trkpt>
      <trkpt lat="49.37317" lon="4.13682">
        <ele>118</ele>
        <time>2019-04-07T10:05:19Z</time>
      </trkpt>
      <trkpt lat="49.37313" lon="4.13689">
        <ele>118</ele>
        <time>2019-04-07T10:05:20Z</time>
      </trkpt>
      <trkpt lat="49.3731" lon="4.13697">
        <ele>118</ele>
        <time>2019-04-07T10:05:21Z</time>
      </trkpt>
      <trkpt lat="49.37306" lon="4.13704">
        <ele>118</ele>
        <time>2019-04-07T10:05:22Z</time>
      </trkpt>
      <trkpt lat="49.37302" lon="4.13711">
        <ele>118</ele>
        <time>2019-04-07T10:05:23Z</time>
      </trkpt>
      <trkpt lat="49.37298" lon="4.13718">
        <ele>118</ele>
        <time>2019-04-07T10:05:24Z</time>
      </trkpt>
      <trkpt lat="49.37294" lon="4.13725">
        <ele>118</ele>
        <time>2019-04-07T10:05:25Z</time>
      </trkpt>
      <trkpt lat="49.37291" lon="4.13732">
        <ele>118</ele>
        <time>2019-04-07T10:05:26Z</time>
      </trkpt>
      <trkpt lat="49.37287" lon="4.13739">
        <ele>118</ele>
        <time>2019-04-07T10:05:27Z</time>
      </trkpt>
      <trkpt lat="49.37283" lon="4.13746">
        <ele>118</ele>
        <time>2019-04-07T10:05:28Z</time>
      </trkpt>
      <trkpt lat="49.37279" lon="4.13754">
        <ele>118</ele>
        <time>2019-04-07T10:05:29Z</time>
      </trkpt>
      <trkpt lat="49.37276" lon="4.13761">
        <ele>118</ele>
        <time>2019-04-07T10:05:30Z</time>
      </trkpt>
      <trkpt lat="49.37272" lon="4.13768">
        <ele>118</ele>
        <time>2019-04-07T10:05:31Z</time>
      </trkpt>
      <trkpt lat="49.37268" lon="4.13775">
        <ele>118</ele>
        <time>2019-04-07T10:05:32Z</time>
      </trkpt>
      <trkpt lat="49.37265" lon="4.13782">
        <ele>119</ele>
        <time>2019-04-07T10:05:33Z</time>
      </trkpt>
      <trkpt lat="49.37261" lon="4.13789">
        <ele>118</ele>
        <time>2019-04-07T10:05:34Z</time>
      </trkpt>
      <trkpt lat="49.37258" lon="4.13797">
        <ele>118</ele>
        <time>2019-04-07T10:05:35Z</time>
      </trkpt>
      <trkpt lat="49.37254" lon="4.13804">
        <ele>118</ele>
        <time>2019-04-07T10:05:36Z</time>
      </trkpt>
      <trkpt lat="49.3725" lon="4.13811">
        <ele>118</ele>
        <time>2019-04-07T10:05:37Z</time>
      </trkpt>
      <trkpt lat="49.37246" lon="4.13818">
        <ele>118</ele>
        <time>2019-04-07T10:05:38Z</time>
      </trkpt>
      <trkpt lat="49.37243" lon="4.13825">
        <ele>119</ele>
        <time>2019-04-07T10:05:39Z</time>
      </trkpt>
      <trkpt lat="49.37239" lon="4.13832">
        <ele>119</ele>
        <time>2019-04-07T10:05:40Z</time>
      </trkpt>
      <trkpt lat="49.37235" lon="4.13839">
        <ele>119</ele>
        <time>2019-04-07T10:05:41Z</time>
      </trkpt>
      <trkpt lat="49.37232" lon="4.13845">
        <ele>119</ele>
        <time>2019-04-07T10:05:42Z</time>
      </trkpt>
      <trkpt lat="49.37228" lon="4.13852">
        <ele>119</ele>
        <time>2019-04-07T10:05:43Z</time>
      </trkpt>
      <trkpt lat="49.37225" lon="4.13859">
        <ele>119</ele>
        <time>2019-04-07T10:05:44Z</time>
      </trkpt>
      <trkpt lat="49.37221" lon="4.13866">
        <ele>119</ele>
        <time>2019-04-07T10:05:45Z</time>
      </trkpt>
      <trkpt lat="49.37218" lon="4.13873">
        <ele>119</ele>
        <time>2019-04-07T10:05:46Z</time>
      </trkpt>
      <trkpt lat="49.37215" lon="4.13881">
        <ele>119</ele>
        <time>2019-04-07T10:05:47Z</time>
      </trkpt>
      <trkpt lat="49.37212" lon="4.13889">
        <ele>119</ele>
        <time>2019-04-07T10:05:48Z</time>
      </trkpt>
      <trkpt lat="49.37208" lon="4.13896">
        <ele>119</ele>
        <time>2019-04-07T10:05:49Z</time>
      </trkpt>
      <trkpt lat="49.37205" lon="4.13904">
        <ele>119</ele>
        <time>2019-04-07T10:05:50Z</time>
      </trkpt>
      <trkpt lat="49.37203" lon="4.13913">
        <ele>119</ele>
        <time>2019-04-07T10:05:51Z</time>
      </trkpt>
      <trkpt lat="49.37201" lon="4.13922">
        <ele>119</ele>
        <time>2019-04-07T10:05:52Z</time>
      </trkpt>
      <trkpt lat="49.37198" lon="4.13931">
        <ele>120</ele>
        <time>2019-04-07T10:05:53Z</time>
      </trkpt>
      <trkpt lat="49.37195" lon="4.13939">
        <ele>120</ele>
        <time>2019-04-07T10:05:54Z</time>
      </trkpt>
      <trkpt lat="49.37192" lon="4.13948">
        <ele>120</ele>
        <time>2019-04-07T10:05:55Z</time>
      </trkpt>
      <trkpt lat="49.37189" lon="4.13957">
        <ele>120</ele>
        <time>2019-04-07T10:05:56Z</time>
      </trkpt>
      <trkpt lat="49.37186" lon="4.13967">
        <ele>119</ele>
        <time>2019-04-07T10:05:57Z</time>
      </trkpt>
      <trkpt lat="49.37184" lon="4.13977">
        <ele>119</ele>
        <time>2019-04-07T10:05:58Z</time>
      </trkpt>
      <trkpt lat="49.37181" lon="4.13987">
        <ele>119</ele>
        <time>2019-04-07T10:05:59Z</time>
      </trkpt>
      <trkpt lat="49.37179" lon="4.13996">
        <ele>119</ele>
        <time>2019-04-07T10:06:00Z</time>
      </trkpt>
      <trkpt lat="49.37177" lon="4.14006">
        <ele>119</ele>
        <time>2019-04-07T10:06:01Z</time>
      </trkpt>
      <trkpt lat="49.37174" lon="4.14015">
        <ele>119</ele>
        <time>2019-04-07T10:06:02Z</time>
      </trkpt>
      <trkpt lat="49.37171" lon="4.14024">
        <ele>119</ele>
        <time>2019-04-07T10:06:03Z</time>
      </trkpt>
      <trkpt lat="49.37168" lon="4.14033">
        <ele>119</ele>
        <time>2019-04-07T10:06:04Z</time>
      </trkpt>
      <trkpt lat="49.37165" lon="4.14042">
        <ele>119</ele>
        <time>2019-04-07T10:06:05Z</time>
      </trkpt>
      <trkpt lat="49.37162" lon="4.1405">
        <ele>119</ele>
        <time>2019-04-07T10:06:06Z</time>
      </trkpt>
      <trkpt lat="49.3716" lon="4.1406">
        <ele>119</ele>
        <time>2019-04-07T10:06:07Z</time>
      </trkpt>
      <trkpt lat="49.37157" lon="4.14069">
        <ele>119</ele>
        <time>2019-04-07T10:06:08Z</time>
      </trkpt>
      <trkpt lat="49.37154" lon="4.14078">
        <ele>119</ele>
        <time>2019-04-07T10:06:09Z</time>
      </trkpt>
      <trkpt lat="49.37152" lon="4.14087">
        <ele>119</ele>
        <time>2019-04-07T10:06:10Z</time>
      </trkpt>
      <trkpt lat="49.37149" lon="4.14097">
        <ele>119</ele>
        <time>2019-04-07T10:06:11Z</time>
      </trkpt>
      <trkpt lat="49.37146" lon="4.14106">
        <ele>118</ele>
        <time>2019-04-07T10:06:12Z</time>
      </trkpt>
      <trkpt lat="49.37144" lon="4.14116">
        <ele>118</ele>
        <time>2019-04-07T10:06:13Z</time>
      </trkpt>
      <trkpt lat="49.37141" lon="4.14125">
        <ele>118</ele>
        <time>2019-04-07T10:06:14Z</time>
      </trkpt>
      <trkpt lat="49.37138" lon="4.14134">
        <ele>119</ele>
        <time>2019-04-07T10:06:15Z</time>
      </trkpt>
      <trkpt lat="49.37135" lon="4.14144">
        <ele>119</ele>
        <time>2019-04-07T10:06:16Z</time>
      </trkpt>
      <trkpt lat="49.37132" lon="4.14153">
        <ele>119</ele>
        <time>2019-04-07T10:06:17Z</time>
      </trkpt>
      <trkpt lat="49.3713" lon="4.14163">
        <ele>119</ele>
        <time>2019-04-07T10:06:18Z</time>
      </trkpt>
      <trkpt lat="49.37127" lon="4.14173">
        <ele>119</ele>
        <time>2019-04-07T10:06:19Z</time>
      </trkpt>
      <trkpt lat="49.37125" lon="4.14183">
        <ele>119</ele>
        <time>2019-04-07T10:06:20Z</time>
      </trkpt>
      <trkpt lat="49.37122" lon="4.14192">
        <ele>118</ele>
        <time>2019-04-07T10:06:21Z</time>
      </trkpt>
      <trkpt lat="49.37119" lon="4.14202">
        <ele>118</ele>
        <time>2019-04-07T10:06:22Z</time>
      </trkpt>
      <trkpt lat="49.37117" lon="4.14211">
        <ele>119</ele>
        <time>2019-04-07T10:06:23Z</time>
      </trkpt>
      <trkpt lat="49.37114" lon="4.1422">
        <ele>119</ele>
        <time>2019-04-07T10:06:24Z</time>
      </trkpt>
      <trkpt lat="49.37111" lon="4.14229">
        <ele>119</ele>
        <time>2019-04-07T10:06:25Z</time>
      </trkpt>
      <trkpt lat="49.37109" lon="4.14239">
        <ele>119</ele>
        <time>2019-04-07T10:06:26Z</time>
      </trkpt>
      <trkpt lat="49.37106" lon="4.14248">
        <ele>119</ele>
        <time>2019-04-07T10:06:27Z</time>
      </trkpt>
      <trkpt lat="49.37103" lon="4.14258">
        <ele>119</ele>
        <time>2019-04-07T10:06:28Z</time>
      </trkpt>
      <trkpt lat="49.37101" lon="4.14267">
        <ele>119</ele>
        <time>2019-04-07T10:06:29Z</time>
      </trkpt>
      <trkpt lat="49.37098" lon="4.14277">
        <ele>119</ele>
        <time>2019-04-07T10:06:30Z</time>
      </trkpt>
      <trkpt lat="49.37094" lon="4.14286">
        <ele>119</ele>
        <time>2019-04-07T10:06:31Z</time>
      </trkpt>
      <trkpt lat="49.37091" lon="4.14294">
        <ele>119</ele>
        <time>2019-04-07T10:06:32Z</time>
      </trkpt>
      <trkpt lat="49.37088" lon="4.14302">
        <ele>118</ele>
        <time>2019-04-07T10:06:33Z</time>
      </trkpt>
      <trkpt lat="49.37084" lon="4.14309">
        <ele>118</ele>
        <time>2019-04-07T10:06:34Z</time>
      </trkpt>
      <trkpt lat="49.3708" lon="4.14316">
        <ele>118</ele>
        <time>2019-04-07T10:06:35Z</time>
      </trkpt>
      <trkpt lat="49.37075" lon="4.14321">
        <ele>118</ele>
        <time>2019-04-07T10:06:36Z</time>
      </trkpt>
      <trkpt lat="49.37071" lon="4.14328">
        <ele>118</ele>
        <time>2019-04-07T10:06:37Z</time>
      </trkpt>
      <trkpt lat="49.37067" lon="4.14335">
        <ele>118</ele>
        <time>2019-04-07T10:06:38Z</time>
      </trkpt>
      <trkpt lat="49.37062" lon="4.14342">
        <ele>118</ele>
        <time>2019-04-07T10:06:39Z</time>
      </trkpt>
      <trkpt lat="49.37058" lon="4.14349">
        <ele>118</ele>
        <time>2019-04-07T10:06:40Z</time>
      </trkpt>
      <trkpt lat="49.37053" lon="4.14357">
        <ele>118</ele>
        <time>2019-04-07T10:06:41Z</time>
      </trkpt>
      <trkpt lat="49.37048" lon="4.14365">
        <ele>118</ele>
        <time>2019-04-07T10:06:42Z</time>
      </trkpt>
      <trkpt lat="49.37043" lon="4.14373">
        <ele>118</ele>
        <time>2019-04-07T10:06:43Z</time>
      </trkpt>
      <trkpt lat="49.37039" lon="4.1438">
        <ele>118</ele>
        <time>2019-04-07T10:06:44Z</time>
      </trkpt>
      <trkpt lat="49.37035" lon="4.14388">
        <ele>118</ele>
        <time>2019-04-07T10:06:45Z</time>
      </trkpt>
      <trkpt lat="49.37031" lon="4.14396">
        <ele>119</ele>
        <time>2019-04-07T10:06:46Z</time>
      </trkpt>
      <trkpt lat="49.37027" lon="4.14403">
        <ele>119</ele>
        <time>2019-04-07T10:06:47Z</time>
      </trkpt>
      <trkpt lat="49.37023" lon="4.14411">
        <ele>119</ele>
        <time>2019-04-07T10:06:48Z</time>
      </trkpt>
      <trkpt lat="49.37019" lon="4.14418">
        <ele>118</ele>
        <time>2019-04-07T10:06:49Z</time>
      </trkpt>
      <trkpt lat="49.37015" lon="4.14425">
        <ele>118</ele>
        <time>2019-04-07T10:06:50Z</time>
      </trkpt>
      <trkpt lat="49.3701" lon="4.14432">
        <ele>118</ele>
        <time>2019-04-07T10:06:51Z</time>
      </trkpt>
      <trkpt lat="49.37006" lon="4.14439">
        <ele>118</ele>
        <time>2019-04-07T10:06:52Z</time>
      </trkpt>
      <trkpt lat="49.37001" lon="4.14446">
        <ele>118</ele>
        <time>2019-04-07T10:06:53Z</time>
      </trkpt>
      <trkpt lat="49.36997" lon="4.14453">
        <ele>118</ele>
        <time>2019-04-07T10:06:54Z</time>
      </trkpt>
      <trkpt lat="49.36993" lon="4.14461">
        <ele>118</ele>
        <time>2019-04-07T10:06:55Z</time>
      </trkpt>
      <trkpt lat="49.36989" lon="4.14467">
        <ele>118</ele>
        <time>2019-04-07T10:06:56Z</time>
      </trkpt>
      <trkpt lat="49.36985" lon="4.14474">
        <ele>118</ele>
        <time>2019-04-07T10:06:57Z</time>
      </trkpt>
      <trkpt lat="49.36981" lon="4.14481">
        <ele>118</ele>
        <time>2019-04-07T10:06:58Z</time>
      </trkpt>
      <trkpt lat="49.36977" lon="4.14488">
        <ele>118</ele>
        <time>2019-04-07T10:06:59Z</time>
      </trkpt>
      <trkpt lat="49.36973" lon="4.14495">
        <ele>119</ele>
        <time>2019-04-07T10:07:00Z</time>
      </trkpt>
      <trkpt lat="49.36968" lon="4.14502">
        <ele>118</ele>
        <time>2019-04-07T10:07:01Z</time>
      </trkpt>
      <trkpt lat="49.36964" lon="4.1451">
        <ele>118</ele>
        <time>2019-04-07T10:07:02Z</time>
      </trkpt>
      <trkpt lat="49.3696" lon="4.14517">
        <ele>119</ele>
        <time>2019-04-07T10:07:03Z</time>
      </trkpt>
      <trkpt lat="49.36956" lon="4.14525">
        <ele>119</ele>
        <time>2019-04-07T10:07:04Z</time>
      </trkpt>
      <trkpt lat="49.36952" lon="4.14532">
        <ele>119</ele>
        <time>2019-04-07T10:07:05Z</time>
      </trkpt>
      <trkpt lat="49.36948" lon="4.14539">
        <ele>119</ele>
        <time>2019-04-07T10:07:06Z</time>
      </trkpt>
      <trkpt lat="49.36944" lon="4.14547">
        <ele>119</ele>
        <time>2019-04-07T10:07:07Z</time>
      </trkpt>
      <trkpt lat="49.36941" lon="4.14555">
        <ele>120</ele>
        <time>2019-04-07T10:07:08Z</time>
      </trkpt>
      <trkpt lat="49.36937" lon="4.14564">
        <ele>120</ele>
        <time>2019-04-07T10:07:09Z</time>
      </trkpt>
      <trkpt lat="49.36933" lon="4.14572">
        <ele>120</ele>
        <time>2019-04-07T10:07:10Z</time>
      </trkpt>
      <trkpt lat="49.3693" lon="4.14581">
        <ele>120</ele>
        <time>2019-04-07T10:07:11Z</time>
      </trkpt>
      <trkpt lat="49.36927" lon="4.1459">
        <ele>120</ele>
        <time>2019-04-07T10:07:12Z</time>
      </trkpt>
      <trkpt lat="49.36924" lon="4.14597">
        <ele>120</ele>
        <time>2019-04-07T10:07:13Z</time>
      </trkpt>
      <trkpt lat="49.36921" lon="4.14606">
        <ele>120</ele>
        <time>2019-04-07T10:07:14Z</time>
      </trkpt>
      <trkpt lat="49.36918" lon="4.14613">
        <ele>120</ele>
        <time>2019-04-07T10:07:15Z</time>
      </trkpt>
      <trkpt lat="49.36915" lon="4.14621">
        <ele>121</ele>
        <time>2019-04-07T10:07:16Z</time>
      </trkpt>
      <trkpt lat="49.36912" lon="4.14629">
        <ele>121</ele>
        <time>2019-04-07T10:07:17Z</time>
      </trkpt>
      <trkpt lat="49.36908" lon="4.14636">
        <ele>121</ele>
        <time>2019-04-07T10:07:18Z</time>
      </trkpt>
      <trkpt lat="49.36906" lon="4.14645">
        <ele>121</ele>
        <time>2019-04-07T10:07:19Z</time>
      </trkpt>
      <trkpt lat="49.36903" lon="4.14654">
        <ele>121</ele>
        <time>2019-04-07T10:07:20Z</time>
      </trkpt>
      <trkpt lat="49.36901" lon="4.14663">
        <ele>121</ele>
        <time>2019-04-07T10:07:21Z</time>
      </trkpt>
      <trkpt lat="49.369" lon="4.14672">
        <ele>121</ele>
        <time>2019-04-07T10:07:22Z</time>
      </trkpt>
      <trkpt lat="49.369" lon="4.14681">
        <ele>121</ele>
        <time>2019-04-07T10:07:23Z</time>
      </trkpt>
      <trkpt lat="49.369" lon="4.1469">
        <ele>121</ele>
        <time>2019-04-07T10:07:24Z</time>
      </trkpt>
      <trkpt lat="49.36899" lon="4.14698">
        <ele>121</ele>
        <time>2019-04-07T10:07:25Z</time>
      </trkpt>
      <trkpt lat="49.36898" lon="4.14705">
        <ele>121</ele>
        <time>2019-04-07T10:07:26Z</time>
      </trkpt>
      <trkpt lat="49.36898" lon="4.14712">
        <ele>121</ele>
        <time>2019-04-07T10:07:27Z</time>
      </trkpt>
      <trkpt lat="49.36897" lon="4.14719">
        <ele>121</ele>
        <time>2019-04-07T10:07:28Z</time>
      </trkpt>
      <trkpt lat="49.36895" lon="4.14726">
        <ele>121</ele>
        <time>2019-04-07T10:07:29Z</time>
      </trkpt>
      <trkpt lat="49.36893" lon="4.14731">
        <ele>121</ele>
        <time>2019-04-07T10:07:30Z</time>
      </trkpt>
      <trkpt lat="49.36891" lon="4.14736">
        <ele>121</ele>
        <time>2019-04-07T10:07:31Z</time>
      </trkpt>
      <trkpt lat="49.36889" lon="4.14739">
        <ele>121</ele>
        <time>2019-04-07T10:07:32Z</time>
      </trkpt>
      <trkpt lat="49.36888" lon="4.14742">
        <ele>121</ele>
        <time>2019-04-07T10:07:33Z</time>
      </trkpt>
      <trkpt lat="49.36887" lon="4.14744">
        <ele>121</ele>
        <time>2019-04-07T10:07:34Z</time>
      </trkpt>
      <trkpt lat="49.36887" lon="4.14747">
        <ele>121</ele>
        <time>2019-04-07T10:07:35Z</time>
      </trkpt>
      <trkpt lat="49.36887" lon="4.14751">
        <ele>121</ele>
        <time>2019-04-07T10:07:36Z</time>
      </trkpt>
      <trkpt lat="49.36888" lon="4.14754">
        <ele>122</ele>
        <time>2019-04-07T10:07:37Z</time>
      </trkpt>
      <trkpt lat="49.3689" lon="4.14757">
        <ele>122</ele>
        <time>2019-04-07T10:07:38Z</time>
      </trkpt>
      <trkpt lat="49.36893" lon="4.14759">
        <ele>122</ele>
        <time>2019-04-07T10:07:39Z</time>
      </trkpt>
      <trkpt lat="49.36897" lon="4.14761">
        <ele>122</ele>
        <time>2019-04-07T10:07:40Z</time>
      </trkpt>
      <trkpt lat="49.369" lon="4.14762">
        <ele>122</ele>
        <time>2019-04-07T10:07:41Z</time>
      </trkpt>
      <trkpt lat="49.36903" lon="4.14764">
        <ele>122</ele>
        <time>2019-04-07T10:07:42Z</time>
      </trkpt>
      <trkpt lat="49.36907" lon="4.14767">
        <ele>121</ele>
        <time>2019-04-07T10:07:43Z</time>
      </trkpt>
      <trkpt lat="49.36912" lon="4.14769">
        <ele>121</ele>
        <time>2019-04-07T10:07:44Z</time>
      </trkpt>
      <trkpt lat="49.36917" lon="4.14772">
        <ele>121</ele>
        <time>2019-04-07T10:07:45Z</time>
      </trkpt>
      <trkpt lat="49.36922" lon="4.14776">
        <ele>121</ele>
        <time>2019-04-07T10:07:46Z</time>
      </trkpt>
      <trkpt lat="49.36928" lon="4.14779">
        <ele>121</ele>
        <time>2019-04-07T10:07:47Z</time>
      </trkpt>
      <trkpt lat="49.36934" lon="4.14783">
        <ele>120</ele>
        <time>2019-04-07T10:07:48Z</time>
      </trkpt>
      <trkpt lat="49.36939" lon="4.14786">
        <ele>120</ele>
        <time>2019-04-07T10:07:49Z</time>
      </trkpt>
      <trkpt lat="49.36945" lon="4.14789">
        <ele>120</ele>
        <time>2019-04-07T10:07:50Z</time>
      </trkpt>
      <trkpt lat="49.3695" lon="4.1479">
        <ele>121</ele>
        <time>2019-04-07T10:07:51Z</time>
      </trkpt>
      <trkpt lat="49.36956" lon="4.14792">
        <ele>121</ele>
        <time>2019-04-07T10:07:52Z</time>
      </trkpt>
      <trkpt lat="49.36962" lon="4.14794">
        <ele>121</ele>
        <time>2019-04-07T10:07:53Z</time>
      </trkpt>
      <trkpt lat="49.36968" lon="4.14797">
        <ele>121</ele>
        <time>2019-04-07T10:07:54Z</time>
      </trkpt>
      <trkpt lat="49.36973" lon="4.14798">
        <ele>121</ele>
        <time>2019-04-07T10:07:55Z</time>
      </trkpt>
      <trkpt lat="49.36979" lon="4.14799">
        <ele>121</ele>
        <time>2019-04-07T10:07:56Z</time>
      </trkpt>
      <trkpt lat="49.36985" lon="4.14799">
        <ele>121</ele>
        <time>2019-04-07T10:07:57Z</time>
      </trkpt>
      <trkpt lat="49.36991" lon="4.14799">
        <ele>122</ele>
        <time>2019-04-07T10:07:58Z</time>
      </trkpt>
      <trkpt lat="49.36997" lon="4.148">
        <ele>122</ele>
        <time>2019-04-07T10:07:59Z</time>
      </trkpt>
      <trkpt lat="49.37003" lon="4.14801">
        <ele>123</ele>
        <time>2019-04-07T10:08:00Z</time>
      </trkpt>
      <trkpt lat="49.37009" lon="4.14801">
        <ele>123</ele>
        <time>2019-04-07T10:08:01Z</time>
      </trkpt>
      <trkpt lat="49.37015" lon="4.14802">
        <ele>122</ele>
        <time>2019-04-07T10:08:02Z</time>
      </trkpt>
      <trkpt lat="49.37021" lon="4.14805">
        <ele>121</ele>
        <time>2019-04-07T10:08:03Z</time>
      </trkpt>
      <trkpt lat="49.37027" lon="4.14806">
        <ele>121</ele>
        <time>2019-04-07T10:08:04Z</time>
      </trkpt>
      <trkpt lat="49.37033" lon="4.14807">
        <ele>120</ele>
        <time>2019-04-07T10:08:05Z</time>
      </trkpt>
      <trkpt lat="49.37039" lon="4.14808">
        <ele>120</ele>
        <time>2019-04-07T10:08:06Z</time>
      </trkpt>
      <trkpt lat="49.37045" lon="4.14809">
        <ele>120</ele>
        <time>2019-04-07T10:08:07Z</time>
      </trkpt>
      <trkpt lat="49.37051" lon="4.1481">
        <ele>120</ele>
        <time>2019-04-07T10:08:08Z</time>
      </trkpt>
      <trkpt lat="49.37057" lon="4.14811">
        <ele>120</ele>
        <time>2019-04-07T10:08:09Z</time>
      </trkpt>
      <trkpt lat="49.37062" lon="4.14811">
        <ele>120</ele>
        <time>2019-04-07T10:08:10Z</time>
      </trkpt>
      <trkpt lat="49.37068" lon="4.14811">
        <ele>120</ele>
        <time>2019-04-07T10:08:11Z</time>
      </trkpt>
      <trkpt lat="49.37074" lon="4.14812">
        <ele>120</ele>
        <time>2019-04-07T10:08:12Z</time>
      </trkpt>
      <trkpt lat="49.37081" lon="4.14814">
        <ele>120</ele>
        <time>2019-04-07T10:08:13Z</time>
      </trkpt>
      <trkpt lat="49.37086" lon="4.14816">
        <ele>119</ele>
        <time>2019-04-07T10:08:14Z</time>
      </trkpt>
      <trkpt lat="49.37092" lon="4.14818">
        <ele>119</ele>
        <time>2019-04-07T10:08:15Z</time>
      </trkpt>
      <trkpt lat="49.37098" lon="4.1482">
        <ele>118</ele>
        <time>2019-04-07T10:08:16Z</time>
      </trkpt>
      <trkpt lat="49.37104" lon="4.14821">
        <ele>118</ele>
        <time>2019-04-07T10:08:17Z</time>
      </trkpt>
      <trkpt lat="49.3711" lon="4.14823">
        <ele>118</ele>
        <time>2019-04-07T10:08:18Z</time>
      </trkpt>
      <trkpt lat="49.37116" lon="4.14824">
        <ele>118</ele>
        <time>2019-04-07T10:08:19Z</time>
      </trkpt>
      <trkpt lat="49.37122" lon="4.14825">
        <ele>118</ele>
        <time>2019-04-07T10:08:20Z</time>
      </trkpt>
      <trkpt lat="49.37128" lon="4.14825">
        <ele>118</ele>
        <time>2019-04-07T10:08:21Z</time>
      </trkpt>
      <trkpt lat="49.37134" lon="4.14827">
        <ele>118</ele>
        <time>2019-04-07T10:08:22Z</time>
      </trkpt>
      <trkpt lat="49.37141" lon="4.14827">
        <ele>119</ele>
        <time>2019-04-07T10:08:23Z</time>
      </trkpt>
      <trkpt lat="49.37147" lon="4.14828">
        <ele>119</ele>
        <time>2019-04-07T10:08:24Z</time>
      </trkpt>
      <trkpt lat="49.37153" lon="4.1483">
        <ele>119</ele>
        <time>2019-04-07T10:08:25Z</time>
      </trkpt>
      <trkpt lat="49.37159" lon="4.14833">
        <ele>119</ele>
        <time>2019-04-07T10:08:26Z</time>
      </trkpt>
      <trkpt lat="49.37165" lon="4.14837">
        <ele>118</ele>
        <time>2019-04-07T10:08:27Z</time>
      </trkpt>
      <trkpt lat="49.37171" lon="4.1484">
        <ele>119</ele>
        <time>2019-04-07T10:08:28Z</time>
      </trkpt>
      <trkpt lat="49.37177" lon="4.14843">
        <ele>119</ele>
        <time>2019-04-07T10:08:29Z</time>
      </trkpt>
      <trkpt lat="49.37182" lon="4.14847">
        <ele>119</ele>
        <time>2019-04-07T10:08:30Z</time>
      </trkpt>
      <trkpt lat="49.37188" lon="4.14853">
        <ele>119</ele>
        <time>2019-04-07T10:08:31Z</time>
      </trkpt>
      <trkpt lat="49.37193" lon="4.14857">
        <ele>119</ele>
        <time>2019-04-07T10:08:32Z</time>
      </trkpt>
      <trkpt lat="49.37198" lon="4.14862">
        <ele>119</ele>
        <time>2019-04-07T10:08:33Z</time>
      </trkpt>
      <trkpt lat="49.37203" lon="4.14868">
        <ele>118</ele>
        <time>2019-04-07T10:08:34Z</time>
      </trkpt>
      <trkpt lat="49.37209" lon="4.14873">
        <ele>118</ele>
        <time>2019-04-07T10:08:35Z</time>
      </trkpt>
      <trkpt lat="49.37213" lon="4.14878">
        <ele>118</ele>
        <time>2019-04-07T10:08:36Z</time>
      </trkpt>
      <trkpt lat="49.37218" lon="4.14883">
        <ele>118</ele>
        <time>2019-04-07T10:08:37Z</time>
      </trkpt>
      <trkpt lat="49.37223" lon="4.14889">
        <ele>118</ele>
        <time>2019-04-07T10:08:38Z</time>
      </trkpt>
      <trkpt lat="49.37227" lon="4.14894">
        <ele>118</ele>
        <time>2019-04-07T10:08:39Z</time>
      </trkpt>
      <trkpt lat="49.37233" lon="4.149">
        <ele>118</ele>
        <time>2019-04-07T10:08:40Z</time>
      </trkpt>
      <trkpt lat="49.37238" lon="4.14906">
        <ele>118</ele>
        <time>2019-04-07T10:08:41Z</time>
      </trkpt>
      <trkpt lat="49.37242" lon="4.14911">
        <ele>118</ele>
        <time>2019-04-07T10:08:42Z</time>
      </trkpt>
      <trkpt lat="49.37247" lon="4.14916">
        <ele>118</ele>
        <time>2019-04-07T10:08:43Z</time>
      </trkpt>
      <trkpt lat="49.37252" lon="4.14922">
        <ele>118</ele>
        <time>2019-04-07T10:08:44Z</time>
      </trkpt>
      <trkpt lat="49.37257" lon="4.14929">
        <ele>118</ele>
        <time>2019-04-07T10:08:45Z</time>
      </trkpt>
      <trkpt lat="49.37261" lon="4.14936">
        <ele>118</ele>
        <time>2019-04-07T10:08:46Z</time>
      </trkpt>
      <trkpt lat="49.37264" lon="4.14945">
        <ele>118</ele>
        <time>2019-04-07T10:08:47Z</time>
      </trkpt>
      <trkpt lat="49.37266" lon="4.14954">
        <ele>118</ele>
        <time>2019-04-07T10:08:48Z</time>
      </trkpt>
      <trkpt lat="49.37267" lon="4.14963">
        <ele>118</ele>
        <time>2019-04-07T10:08:49Z</time>
      </trkpt>
      <trkpt lat="49.37268" lon="4.14972">
        <ele>118</ele>
        <time>2019-04-07T10:08:50Z</time>
      </trkpt>
      <trkpt lat="49.37269" lon="4.14981">
        <ele>118</ele>
        <time>2019-04-07T10:08:51Z</time>
      </trkpt>
      <trkpt lat="49.37269" lon="4.14991">
        <ele>118</ele>
        <time>2019-04-07T10:08:52Z</time>
      </trkpt>
      <trkpt lat="49.3727" lon="4.14999">
        <ele>118</ele>
        <time>2019-04-07T10:08:53Z</time>
      </trkpt>
      <trkpt lat="49.37271" lon="4.15009">
        <ele>118</ele>
        <time>2019-04-07T10:08:54Z</time>
      </trkpt>
      <trkpt lat="49.37272" lon="4.15018">
        <ele>118</ele>
        <time>2019-04-07T10:08:55Z</time>
      </trkpt>
      <trkpt lat="49.37273" lon="4.15028">
        <ele>118</ele>
        <time>2019-04-07T10:08:56Z</time>
      </trkpt>
      <trkpt lat="49.37274" lon="4.15038">
        <ele>118</ele>
        <time>2019-04-07T10:08:57Z</time>
      </trkpt>
      <trkpt lat="49.37275" lon="4.15047">
        <ele>118</ele>
        <time>2019-04-07T10:08:58Z</time>
      </trkpt>
      <trkpt lat="49.37276" lon="4.15056">
        <ele>118</ele>
        <time>2019-04-07T10:08:59Z</time>
      </trkpt>
      <trkpt lat="49.37277" lon="4.15065">
        <ele>118</ele>
        <time>2019-04-07T10:09:00Z</time>
      </trkpt>
      <trkpt lat="49.37277" lon="4.15074">
        <ele>118</ele>
        <time>2019-04-07T10:09:01Z</time>
      </trkpt>
      <trkpt lat="49.37278" lon="4.15083">
        <ele>118</ele>
        <time>2019-04-07T10:09:02Z</time>
      </trkpt>
      <trkpt lat="49.37279" lon="4.15093">
        <ele>118</ele>
        <time>2019-04-07T10:09:03Z</time>
      </trkpt>
      <trkpt lat="49.3728" lon="4.15101">
        <ele>118</ele>
        <time>2019-04-07T10:09:04Z</time>
      </trkpt>
      <trkpt lat="49.3728" lon="4.15111">
        <ele>118</ele>
        <time>2019-04-07T10:09:05Z</time>
      </trkpt>
      <trkpt lat="49.37281" lon="4.1512">
        <ele>118</ele>
        <time>2019-04-07T10:09:06Z</time>
      </trkpt>
      <trkpt lat="49.37281" lon="4.1513">
        <ele>118</ele>
        <time>2019-04-07T10:09:07Z</time>
      </trkpt>
      <trkpt lat="49.37282" lon="4.15139">
        <ele>118</ele>
        <time>2019-04-07T10:09:08Z</time>
      </trkpt>
      <trkpt lat="49.37284" lon="4.15148">
        <ele>118</ele>
        <time>2019-04-07T10:09:09Z</time>
      </trkpt>
      <trkpt lat="49.37286" lon="4.15156">
        <ele>118</ele>
        <time>2019-04-07T10:09:10Z</time>
      </trkpt>
      <trkpt lat="49.37288" lon="4.15164">
        <ele>118</ele>
        <time>2019-04-07T10:09:11Z</time>
      </trkpt>
      <trkpt lat="49.37291" lon="4.15172">
        <ele>117</ele>
        <time>2019-04-07T10:09:12Z</time>
      </trkpt>
      <trkpt lat="49.37294" lon="4.1518">
        <ele>117</ele>
        <time>2019-04-07T10:09:13Z</time>
      </trkpt>
      <trkpt lat="49.37298" lon="4.15188">
        <ele>117</ele>
        <time>2019-04-07T10:09:14Z</time>
      </trkpt>
      <trkpt lat="49.373" lon="4.15196">
        <ele>117</ele>
        <time>2019-04-07T10:09:15Z</time>
      </trkpt>
      <trkpt lat="49.37304" lon="4.15204">
        <ele>118</ele>
        <time>2019-04-07T10:09:16Z</time>
      </trkpt>
      <trkpt lat="49.37308" lon="4.15212">
        <ele>118</ele>
        <time>2019-04-07T10:09:17Z</time>
      </trkpt>
      <trkpt lat="49.37311" lon="4.1522">
        <ele>117</ele>
        <time>2019-04-07T10:09:18Z</time>
      </trkpt>
      <trkpt lat="49.37315" lon="4.15228">
        <ele>118</ele>
        <time>2019-04-07T10:09:19Z</time>
      </trkpt>
      <trkpt lat="49.37318" lon="4.15235">
        <ele>117</ele>
        <time>2019-04-07T10:09:20Z</time>
      </trkpt>
      <trkpt lat="49.37322" lon="4.15243">
        <ele>117</ele>
        <time>2019-04-07T10:09:21Z</time>
      </trkpt>
      <trkpt lat="49.37325" lon="4.1525">
        <ele>117</ele>
        <time>2019-04-07T10:09:22Z</time>
      </trkpt>
      <trkpt lat="49.37328" lon="4.15257">
        <ele>116</ele>
        <time>2019-04-07T10:09:23Z</time>
      </trkpt>
      <trkpt lat="49.37332" lon="4.15264">
        <ele>116</ele>
        <time>2019-04-07T10:09:24Z</time>
      </trkpt>
      <trkpt lat="49.37336" lon="4.15271">
        <ele>117</ele>
        <time>2019-04-07T10:09:25Z</time>
      </trkpt>
      <trkpt lat="49.37341" lon="4.15278">
        <ele>117</ele>
        <time>2019-04-07T10:09:26Z</time>
      </trkpt>
      <trkpt lat="49.37345" lon="4.15284">
        <ele>117</ele>
        <time>2019-04-07T10:09:27Z</time>
      </trkpt>
      <trkpt lat="49.37355" lon="4.15294">
        <ele>117</ele>
        <time>2019-04-07T10:09:29Z</time>
      </trkpt>
      <trkpt lat="49.3736" lon="4.15298">
        <ele>117</ele>
        <time>2019-04-07T10:09:30Z</time>
      </trkpt>
      <trkpt lat="49.37365" lon="4.15303">
        <ele>117</ele>
        <time>2019-04-07T10:09:31Z</time>
      </trkpt>
      <trkpt lat="49.3737" lon="4.15307">
        <ele>117</ele>
        <time>2019-04-07T10:09:32Z</time>
      </trkpt>
      <trkpt lat="49.37374" lon="4.15311">
        <ele>117</ele>
        <time>2019-04-07T10:09:33Z</time>
      </trkpt>
      <trkpt lat="49.37379" lon="4.15315">
        <ele>117</ele>
        <time>2019-04-07T10:09:34Z</time>
      </trkpt>
      <trkpt lat="49.37383" lon="4.15319">
        <ele>117</ele>
        <time>2019-04-07T10:09:35Z</time>
      </trkpt>
      <trkpt lat="49.37388" lon="4.15323">
        <ele>117</ele>
        <time>2019-04-07T10:09:36Z</time>
      </trkpt>
      <trkpt lat="49.37393" lon="4.15327">
        <ele>117</ele>
        <time>2019-04-07T10:09:37Z</time>
      </trkpt>
      <trkpt lat="49.37397" lon="4.15331">
        <ele>117</ele>
        <time>2019-04-07T10:09:38Z</time>
      </trkpt>
      <trkpt lat="49.37402" lon="4.15335">
        <ele>117</ele>
        <time>2019-04-07T10:09:39Z</time>
      </trkpt>
      <trkpt lat="49.37407" lon="4.15339">
        <ele>117</ele>
        <time>2019-04-07T10:09:40Z</time>
      </trkpt>
      <trkpt lat="49.37412" lon="4.15342">
        <ele>117</ele>
        <time>2019-04-07T10:09:41Z</time>
      </trkpt>
      <trkpt lat="49.37417" lon="4.15346">
        <ele>117</ele>
        <time>2019-04-07T10:09:42Z</time>
      </trkpt>
      <trkpt lat="49.37422" lon="4.15351">
        <ele>117</ele>
        <time>2019-04-07T10:09:43Z</time>
      </trkpt>
      <trkpt lat="49.37427" lon="4.15355">
        <ele>117</ele>
        <time>2019-04-07T10:09:44Z</time>
      </trkpt>
      <trkpt lat="49.37432" lon="4.15359">
        <ele>117</ele>
        <time>2019-04-07T10:09:45Z</time>
      </trkpt>
      <trkpt lat="49.37438" lon="4.15363">
        <ele>117</ele>
        <time>2019-04-07T10:09:46Z</time>
      </trkpt>
      <trkpt lat="49.37442" lon="4.15367">
        <ele>117</ele>
        <time>2019-04-07T10:09:47Z</time>
      </trkpt>
      <trkpt lat="49.37448" lon="4.15371">
        <ele>117</ele>
        <time>2019-04-07T10:09:48Z</time>
      </trkpt>
      <trkpt lat="49.37452" lon="4.15375">
        <ele>117</ele>
        <time>2019-04-07T10:09:49Z</time>
      </trkpt>
      <trkpt lat="49.37458" lon="4.15379">
        <ele>117</ele>
        <time>2019-04-07T10:09:50Z</time>
      </trkpt>
      <trkpt lat="49.37463" lon="4.15383">
        <ele>118</ele>
        <time>2019-04-07T10:09:51Z</time>
      </trkpt>
      <trkpt lat="49.37468" lon="4.15387">
        <ele>118</ele>
        <time>2019-04-07T10:09:52Z</time>
      </trkpt>
      <trkpt lat="49.37473" lon="4.15391">
        <ele>118</ele>
        <time>2019-04-07T10:09:53Z</time>
      </trkpt>
      <trkpt lat="49.37478" lon="4.15395">
        <ele>118</ele>
        <time>2019-04-07T10:09:54Z</time>
      </trkpt>
      <trkpt lat="49.37483" lon="4.154">
        <ele>118</ele>
        <time>2019-04-07T10:09:55Z</time>
      </trkpt>
      <trkpt lat="49.37488" lon="4.15404">
        <ele>118</ele>
        <time>2019-04-07T10:09:56Z</time>
      </trkpt>
      <trkpt lat="49.37492" lon="4.15408">
        <ele>118</ele>
        <time>2019-04-07T10:09:57Z</time>
      </trkpt>
      <trkpt lat="49.37497" lon="4.15412">
        <ele>119</ele>
        <time>2019-04-07T10:09:58Z</time>
      </trkpt>
      <trkpt lat="49.37503" lon="4.15416">
        <ele>119</ele>
        <time>2019-04-07T10:09:59Z</time>
      </trkpt>
      <trkpt lat="49.37508" lon="4.1542">
        <ele>119</ele>
        <time>2019-04-07T10:10:00Z</time>
      </trkpt>
      <trkpt lat="49.37513" lon="4.15424">
        <ele>119</ele>
        <time>2019-04-07T10:10:01Z</time>
      </trkpt>
      <trkpt lat="49.37518" lon="4.15428">
        <ele>119</ele>
        <time>2019-04-07T10:10:02Z</time>
      </trkpt>
      <trkpt lat="49.37522" lon="4.15433">
        <ele>119</ele>
        <time>2019-04-07T10:10:03Z</time>
      </trkpt>
      <trkpt lat="49.37526" lon="4.15436">
        <ele>119</ele>
        <time>2019-04-07T10:10:04Z</time>
      </trkpt>
      <trkpt lat="49.37531" lon="4.1544">
        <ele>119</ele>
        <time>2019-04-07T10:10:05Z</time>
      </trkpt>
      <trkpt lat="49.37535" lon="4.15444">
        <ele>119</ele>
        <time>2019-04-07T10:10:06Z</time>
      </trkpt>
      <trkpt lat="49.3754" lon="4.15449">
        <ele>119</ele>
        <time>2019-04-07T10:10:07Z</time>
      </trkpt>
      <trkpt lat="49.37545" lon="4.15453">
        <ele>119</ele>
        <time>2019-04-07T10:10:08Z</time>
      </trkpt>
      <trkpt lat="49.3755" lon="4.15457">
        <ele>119</ele>
        <time>2019-04-07T10:10:09Z</time>
      </trkpt>
      <trkpt lat="49.37554" lon="4.15461">
        <ele>119</ele>
        <time>2019-04-07T10:10:10Z</time>
      </trkpt>
      <trkpt lat="49.37559" lon="4.15465">
        <ele>119</ele>
        <time>2019-04-07T10:10:11Z</time>
      </trkpt>
      <trkpt lat="49.37564" lon="4.15469">
        <ele>119</ele>
        <time>2019-04-07T10:10:12Z</time>
      </trkpt>
      <trkpt lat="49.37569" lon="4.15472">
        <ele>120</ele>
        <time>2019-04-07T10:10:13Z</time>
      </trkpt>
      <trkpt lat="49.37574" lon="4.15476">
        <ele>120</ele>
        <time>2019-04-07T10:10:14Z</time>
      </trkpt>
      <trkpt lat="49.37579" lon="4.1548">
        <ele>120</ele>
        <time>2019-04-07T10:10:15Z</time>
      </trkpt>
      <trkpt lat="49.37584" lon="4.15484">
        <ele>120</ele>
        <time>2019-04-07T10:10:16Z</time>
      </trkpt>
      <trkpt lat="49.37589" lon="4.15488">
        <ele>120</ele>
        <time>2019-04-07T10:10:17Z</time>
      </trkpt>
      <trkpt lat="49.37595" lon="4.15492">
        <ele>119</ele>
        <time>2019-04-07T10:10:18Z</time>
      </trkpt>
      <trkpt lat="49.376" lon="4.15496">
        <ele>120</ele>
        <time>2019-04-07T10:10:19Z</time>
      </trkpt>
      <trkpt lat="49.37605" lon="4.155">
        <ele>120</ele>
        <time>2019-04-07T10:10:20Z</time>
      </trkpt>
      <trkpt lat="49.3761" lon="4.15503">
        <ele>120</ele>
        <time>2019-04-07T10:10:21Z</time>
      </trkpt>
      <trkpt lat="49.37614" lon="4.15507">
        <ele>120</ele>
        <time>2019-04-07T10:10:22Z</time>
      </trkpt>
      <trkpt lat="49.37619" lon="4.15511">
        <ele>120</ele>
        <time>2019-04-07T10:10:23Z</time>
      </trkpt>
      <trkpt lat="49.37624" lon="4.15515">
        <ele>120</ele>
        <time>2019-04-07T10:10:24Z</time>
      </trkpt>
      <trkpt lat="49.37629" lon="4.15519">
        <ele>120</ele>
        <time>2019-04-07T10:10:25Z</time>
      </trkpt>
      <trkpt lat="49.37633" lon="4.15523">
        <ele>120</ele>
        <time>2019-04-07T10:10:26Z</time>
      </trkpt>
      <trkpt lat="49.37639" lon="4.15526">
        <ele>120</ele>
        <time>2019-04-07T10:10:27Z</time>
      </trkpt>
      <trkpt lat="49.37643" lon="4.1553">
        <ele>120</ele>
        <time>2019-04-07T10:10:28Z</time>
      </trkpt>
      <trkpt lat="49.37648" lon="4.15533">
        <ele>120</ele>
        <time>2019-04-07T10:10:29Z</time>
      </trkpt>
      <trkpt lat="49.37653" lon="4.15537">
        <ele>120</ele>
        <time>2019-04-07T10:10:30Z</time>
      </trkpt>
      <trkpt lat="49.37658" lon="4.1554">
        <ele>120</ele>
        <time>2019-04-07T10:10:31Z</time>
      </trkpt>
      <trkpt lat="49.37663" lon="4.15544">
        <ele>120</ele>
        <time>2019-04-07T10:10:32Z</time>
      </trkpt>
      <trkpt lat="49.37668" lon="4.15547">
        <ele>120</ele>
        <time>2019-04-07T10:10:33Z</time>
      </trkpt>
      <trkpt lat="49.37673" lon="4.15551">
        <ele>120</ele>
        <time>2019-04-07T10:10:34Z</time>
      </trkpt>
      <trkpt lat="49.37678" lon="4.15555">
        <ele>120</ele>
        <time>2019-04-07T10:10:35Z</time>
      </trkpt>
      <trkpt lat="49.37683" lon="4.15559">
        <ele>120</ele>
        <time>2019-04-07T10:10:36Z</time>
      </trkpt>
      <trkpt lat="49.37688" lon="4.15562">
        <ele>120</ele>
        <time>2019-04-07T10:10:37Z</time>
      </trkpt>
      <trkpt lat="49.37693" lon="4.15566">
        <ele>120</ele>
        <time>2019-04-07T10:10:38Z</time>
      </trkpt>
      <trkpt lat="49.37697" lon="4.15569">
        <ele>121</ele>
        <time>2019-04-07T10:10:39Z</time>
      </trkpt>
      <trkpt lat="49.37702" lon="4.15573">
        <ele>121</ele>
        <time>2019-04-07T10:10:40Z</time>
      </trkpt>
      <trkpt lat="49.37707" lon="4.15577">
        <ele>121</ele>
        <time>2019-04-07T10:10:41Z</time>
      </trkpt>
      <trkpt lat="49.37712" lon="4.15581">
        <ele>121</ele>
        <time>2019-04-07T10:10:42Z</time>
      </trkpt>
      <trkpt lat="49.37716" lon="4.15584">
        <ele>121</ele>
        <time>2019-04-07T10:10:43Z</time>
      </trkpt>
      <trkpt lat="49.37721" lon="4.15588">
        <ele>121</ele>
        <time>2019-04-07T10:10:44Z</time>
      </trkpt>
      <trkpt lat="49.37726" lon="4.15592">
        <ele>121</ele>
        <time>2019-04-07T10:10:45Z</time>
      </trkpt>
      <trkpt lat="49.3773" lon="4.15596">
        <ele>121</ele>
        <time>2019-04-07T10:10:46Z</time>
      </trkpt>
      <trkpt lat="49.37735" lon="4.15599">
        <ele>121</ele>
        <time>2019-04-07T10:10:47Z</time>
      </trkpt>
      <trkpt lat="49.3774" lon="4.15603">
        <ele>121</ele>
        <time>2019-04-07T10:10:48Z</time>
      </trkpt>
      <trkpt lat="49.37745" lon="4.15606">
        <ele>121</ele>
        <time>2019-04-07T10:10:49Z</time>
      </trkpt>
      <trkpt lat="49.37749" lon="4.15609">
        <ele>121</ele>
        <time>2019-04-07T10:10:50Z</time>
      </trkpt>
      <trkpt lat="49.37754" lon="4.15612">
        <ele>121</ele>
        <time>2019-04-07T10:10:51Z</time>
      </trkpt>
      <trkpt lat="49.37759" lon="4.15616">
        <ele>121</ele>
        <time>2019-04-07T10:10:52Z</time>
      </trkpt>
      <trkpt lat="49.37764" lon="4.15619">
        <ele>122</ele>
        <time>2019-04-07T10:10:53Z</time>
      </trkpt>
      <trkpt lat="49.37769" lon="4.15623">
        <ele>122</ele>
        <time>2019-04-07T10:10:54Z</time>
      </trkpt>
      <trkpt lat="49.37773" lon="4.15626">
        <ele>122</ele>
        <time>2019-04-07T10:10:55Z</time>
      </trkpt>
      <trkpt lat="49.37778" lon="4.1563">
        <ele>122</ele>
        <time>2019-04-07T10:10:56Z</time>
      </trkpt>
      <trkpt lat="49.37783" lon="4.15633">
        <ele>122</ele>
        <time>2019-04-07T10:10:57Z</time>
      </trkpt>
      <trkpt lat="49.37787" lon="4.15637">
        <ele>122</ele>
        <time>2019-04-07T10:10:58Z</time>
      </trkpt>
      <trkpt lat="49.37792" lon="4.1564">
        <ele>122</ele>
        <time>2019-04-07T10:10:59Z</time>
      </trkpt>
      <trkpt lat="49.37796" lon="4.15644">
        <ele>122</ele>
        <time>2019-04-07T10:11:00Z</time>
      </trkpt>
      <trkpt lat="49.37801" lon="4.15647">
        <ele>122</ele>
        <time>2019-04-07T10:11:01Z</time>
      </trkpt>
      <trkpt lat="49.37805" lon="4.15651">
        <ele>122</ele>
        <time>2019-04-07T10:11:02Z</time>
      </trkpt>
      <trkpt lat="49.3781" lon="4.15654">
        <ele>122</ele>
        <time>2019-04-07T10:11:03Z</time>
      </trkpt>
      <trkpt lat="49.37815" lon="4.15657">
        <ele>123</ele>
        <time>2019-04-07T10:11:04Z</time>
      </trkpt>
      <trkpt lat="49.37819" lon="4.15661">
        <ele>123</ele>
        <time>2019-04-07T10:11:05Z</time>
      </trkpt>
      <trkpt lat="49.37824" lon="4.15664">
        <ele>123</ele>
        <time>2019-04-07T10:11:06Z</time>
      </trkpt>
      <trkpt lat="49.37828" lon="4.15668">
        <ele>123</ele>
        <time>2019-04-07T10:11:07Z</time>
      </trkpt>
      <trkpt lat="49.37833" lon="4.15672">
        <ele>123</ele>
        <time>2019-04-07T10:11:08Z</time>
      </trkpt>
      <trkpt lat="49.37837" lon="4.15676">
        <ele>123</ele>
        <time>2019-04-07T10:11:09Z</time>
      </trkpt>
      <trkpt lat="49.37842" lon="4.15679">
        <ele>123</ele>
        <time>2019-04-07T10:11:10Z</time>
      </trkpt>
      <trkpt lat="49.37846" lon="4.15683">
        <ele>124</ele>
        <time>2019-04-07T10:11:11Z</time>
      </trkpt>
      <trkpt lat="49.37851" lon="4.15686">
        <ele>123</ele>
        <time>2019-04-07T10:11:12Z</time>
      </trkpt>
      <trkpt lat="49.37856" lon="4.1569">
        <ele>123</ele>
        <time>2019-04-07T10:11:13Z</time>
      </trkpt>
      <trkpt lat="49.37861" lon="4.15694">
        <ele>123</ele>
        <time>2019-04-07T10:11:14Z</time>
      </trkpt>
      <trkpt lat="49.37865" lon="4.15697">
        <ele>124</ele>
        <time>2019-04-07T10:11:15Z</time>
      </trkpt>
      <trkpt lat="49.3787" lon="4.157">
        <ele>124</ele>
        <time>2019-04-07T10:11:16Z</time>
      </trkpt>
      <trkpt lat="49.37874" lon="4.15704">
        <ele>123</ele>
        <time>2019-04-07T10:11:17Z</time>
      </trkpt>
      <trkpt lat="49.37879" lon="4.15707">
        <ele>124</ele>
        <time>2019-04-07T10:11:18Z</time>
      </trkpt>
      <trkpt lat="49.37884" lon="4.15711">
        <ele>124</ele>
        <time>2019-04-07T10:11:19Z</time>
      </trkpt>
      <trkpt lat="49.37888" lon="4.15715">
        <ele>124</ele>
        <time>2019-04-07T10:11:20Z</time>
      </trkpt>
      <trkpt lat="49.37893" lon="4.15718">
        <ele>124</ele>
        <time>2019-04-07T10:11:21Z</time>
      </trkpt>
      <trkpt lat="49.37898" lon="4.15721">
        <ele>124</ele>
        <time>2019-04-07T10:11:22Z</time>
      </trkpt>
      <trkpt lat="49.37903" lon="4.15725">
        <ele>124</ele>
        <time>2019-04-07T10:11:23Z</time>
      </trkpt>
      <trkpt lat="49.37908" lon="4.15728">
        <ele>124</ele>
        <time>2019-04-07T10:11:24Z</time>
      </trkpt>
      <trkpt lat="49.37912" lon="4.15731">
        <ele>124</ele>
        <time>2019-04-07T10:11:25Z</time>
      </trkpt>
      <trkpt lat="49.37917" lon="4.15735">
        <ele>124</ele>
        <time>2019-04-07T10:11:26Z</time>
      </trkpt>
      <trkpt lat="49.37921" lon="4.15739">
        <ele>124</ele>
        <time>2019-04-07T10:11:27Z</time>
      </trkpt>
      <trkpt lat="49.37926" lon="4.15742">
        <ele>125</ele>
        <time>2019-04-07T10:11:28Z</time>
      </trkpt>
      <trkpt lat="49.37931" lon="4.15745">
        <ele>125</ele>
        <time>2019-04-07T10:11:29Z</time>
      </trkpt>
      <trkpt lat="49.37935" lon="4.15749">
        <ele>125</ele>
        <time>2019-04-07T10:11:30Z</time>
      </trkpt>
      <trkpt lat="49.3794" lon="4.15752">
        <ele>125</ele>
        <time>2019-04-07T10:11:31Z</time>
      </trkpt>
      <trkpt lat="49.37944" lon="4.15756">
        <ele>125</ele>
        <time>2019-04-07T10:11:32Z</time>
      </trkpt>
      <trkpt lat="49.37949" lon="4.15759">
        <ele>125</ele>
        <time>2019-04-07T10:11:33Z</time>
      </trkpt>
      <trkpt lat="49.37953" lon="4.15763">
        <ele>125</ele>
        <time>2019-04-07T10:11:34Z</time>
      </trkpt>
      <trkpt lat="49.37958" lon="4.15766">
        <ele>125</ele>
        <time>2019-04-07T10:11:35Z</time>
      </trkpt>
      <trkpt lat="49.37962" lon="4.15769">
        <ele>125</ele>
        <time>2019-04-07T10:11:36Z</time>
      </trkpt>
      <trkpt lat="49.37966" lon="4.15773">
        <ele>125</ele>
        <time>2019-04-07T10:11:37Z</time>
      </trkpt>
      <trkpt lat="49.37971" lon="4.15776">
        <ele>125</ele>
        <time>2019-04-07T10:11:38Z</time>
      </trkpt>
      <trkpt lat="49.37976" lon="4.15779">
        <ele>125</ele>
        <time>2019-04-07T10:11:39Z</time>
      </trkpt>
      <trkpt lat="49.3798" lon="4.15783">
        <ele>125</ele>
        <time>2019-04-07T10:11:40Z</time>
      </trkpt>
      <trkpt lat="49.37984" lon="4.15786">
        <ele>125</ele>
        <time>2019-04-07T10:11:41Z</time>
      </trkpt>
      <trkpt lat="49.37989" lon="4.1579">
        <ele>125</ele>
        <time>2019-04-07T10:11:42Z</time>
      </trkpt>
      <trkpt lat="49.37993" lon="4.15793">
        <ele>125</ele>
        <time>2019-04-07T10:11:43Z</time>
      </trkpt>
      <trkpt lat="49.37998" lon="4.15796">
        <ele>125</ele>
        <time>2019-04-07T10:11:44Z</time>
      </trkpt>
      <trkpt lat="49.38002" lon="4.158">
        <ele>125</ele>
        <time>2019-04-07T10:11:45Z</time>
      </trkpt>
      <trkpt lat="49.38006" lon="4.15803">
        <ele>125</ele>
        <time>2019-04-07T10:11:46Z</time>
      </trkpt>
      <trkpt lat="49.38011" lon="4.15806">
        <ele>125</ele>
        <time>2019-04-07T10:11:47Z</time>
      </trkpt>
      <trkpt lat="49.38015" lon="4.15809">
        <ele>125</ele>
        <time>2019-04-07T10:11:48Z</time>
      </trkpt>
      <trkpt lat="49.38019" lon="4.15812">
        <ele>125</ele>
        <time>2019-04-07T10:11:49Z</time>
      </trkpt>
      <trkpt lat="49.38023" lon="4.15815">
        <ele>125</ele>
        <time>2019-04-07T10:11:50Z</time>
      </trkpt>
      <trkpt lat="49.38027" lon="4.15818">
        <ele>126</ele>
        <time>2019-04-07T10:11:51Z</time>
      </trkpt>
      <trkpt lat="49.38031" lon="4.15822">
        <ele>126</ele>
        <time>2019-04-07T10:11:52Z</time>
      </trkpt>
      <trkpt lat="49.38036" lon="4.15825">
        <ele>126</ele>
        <time>2019-04-07T10:11:53Z</time>
      </trkpt>
      <trkpt lat="49.3804" lon="4.15827">
        <ele>126</ele>
        <time>2019-04-07T10:11:54Z</time>
      </trkpt>
      <trkpt lat="49.38044" lon="4.1583">
        <ele>126</ele>
        <time>2019-04-07T10:11:55Z</time>
      </trkpt>
      <trkpt lat="49.38048" lon="4.15834">
        <ele>126</ele>
        <time>2019-04-07T10:11:56Z</time>
      </trkpt>
      <trkpt lat="49.38052" lon="4.15837">
        <ele>126</ele>
        <time>2019-04-07T10:11:57Z</time>
      </trkpt>
      <trkpt lat="49.38056" lon="4.1584">
        <ele>126</ele>
        <time>2019-04-07T10:11:58Z</time>
      </trkpt>
      <trkpt lat="49.3806" lon="4.15844">
        <ele>127</ele>
        <time>2019-04-07T10:11:59Z</time>
      </trkpt>
      <trkpt lat="49.38065" lon="4.15847">
        <ele>127</ele>
        <time>2019-04-07T10:12:00Z</time>
      </trkpt>
      <trkpt lat="49.38069" lon="4.1585">
        <ele>127</ele>
        <time>2019-04-07T10:12:01Z</time>
      </trkpt>
      <trkpt lat="49.38073" lon="4.15852">
        <ele>127</ele>
        <time>2019-04-07T10:12:02Z</time>
      </trkpt>
      <trkpt lat="49.38077" lon="4.15856">
        <ele>127</ele>
        <time>2019-04-07T10:12:03Z</time>
      </trkpt>
      <trkpt lat="49.38082" lon="4.15859">
        <ele>128</ele>
        <time>2019-04-07T10:12:04Z</time>
      </trkpt>
      <trkpt lat="49.38086" lon="4.15862">
        <ele>128</ele>
        <time>2019-04-07T10:12:05Z</time>
      </trkpt>
      <trkpt lat="49.38091" lon="4.15864">
        <ele>128</ele>
        <time>2019-04-07T10:12:06Z</time>
      </trkpt>
      <trkpt lat="49.38095" lon="4.15868">
        <ele>128</ele>
        <time>2019-04-07T10:12:07Z</time>
      </trkpt>
      <trkpt lat="49.38099" lon="4.15871">
        <ele>128</ele>
        <time>2019-04-07T10:12:08Z</time>
      </trkpt>
      <trkpt lat="49.38103" lon="4.15874">
        <ele>129</ele>
        <time>2019-04-07T10:12:09Z</time>
      </trkpt>
      <trkpt lat="49.38107" lon="4.15877">
        <ele>129</ele>
        <time>2019-04-07T10:12:10Z</time>
      </trkpt>
      <trkpt lat="49.38112" lon="4.15881">
        <ele>129</ele>
        <time>2019-04-07T10:12:11Z</time>
      </trkpt>
      <trkpt lat="49.38116" lon="4.15884">
        <ele>129</ele>
        <time>2019-04-07T10:12:12Z</time>
      </trkpt>
      <trkpt lat="49.3812" lon="4.15887">
        <ele>129</ele>
        <time>2019-04-07T10:12:13Z</time>
      </trkpt>
      <trkpt lat="49.38124" lon="4.15891">
        <ele>129</ele>
        <time>2019-04-07T10:12:14Z</time>
      </trkpt>
      <trkpt lat="49.38129" lon="4.15894">
        <ele>129</ele>
        <time>2019-04-07T10:12:15Z</time>
      </trkpt>
      <trkpt lat="49.38133" lon="4.15898">
        <ele>129</ele>
        <time>2019-04-07T10:12:16Z</time>
      </trkpt>
      <trkpt lat="49.38138" lon="4.15901">
        <ele>129</ele>
        <time>2019-04-07T10:12:17Z</time>
      </trkpt>
      <trkpt lat="49.38142" lon="4.15904">
        <ele>129</ele>
        <time>2019-04-07T10:12:18Z</time>
      </trkpt>
      <trkpt lat="49.38146" lon="4.15907">
        <ele>130</ele>
        <time>2019-04-07T10:12:19Z</time>
      </trkpt>
      <trkpt lat="49.3815" lon="4.15911">
        <ele>130</ele>
        <time>2019-04-07T10:12:20Z</time>
      </trkpt>
      <trkpt lat="49.38154" lon="4.15914">
        <ele>130</ele>
        <time>2019-04-07T10:12:21Z</time>
      </trkpt>
      <trkpt lat="49.38159" lon="4.15917">
        <ele>130</ele>
        <time>2019-04-07T10:12:22Z</time>
      </trkpt>
      <trkpt lat="49.38163" lon="4.1592">
        <ele>130</ele>
        <time>2019-04-07T10:12:23Z</time>
      </trkpt>
      <trkpt lat="49.38167" lon="4.15923">
        <ele>130</ele>
        <time>2019-04-07T10:12:24Z</time>
      </trkpt>
      <trkpt lat="49.38172" lon="4.15927">
        <ele>130</ele>
        <time>2019-04-07T10:12:25Z</time>
      </trkpt>
      <trkpt lat="49.38176" lon="4.1593">
        <ele>130</ele>
        <time>2019-04-07T10:12:26Z</time>
      </trkpt>
      <trkpt lat="49.3818" lon="4.15933">
        <ele>130</ele>
        <time>2019-04-07T10:12:27Z</time>
      </trkpt>
      <trkpt lat="49.38185" lon="4.15936">
        <ele>130</ele>
        <time>2019-04-07T10:12:28Z</time>
      </trkpt>
      <trkpt lat="49.38189" lon="4.15939">
        <ele>130</ele>
        <time>2019-04-07T10:12:29Z</time>
      </trkpt>
      <trkpt lat="49.38193" lon="4.15942">
        <ele>130</ele>
        <time>2019-04-07T10:12:30Z</time>
      </trkpt>
      <trkpt lat="49.38197" lon="4.15945">
        <ele>130</ele>
        <time>2019-04-07T10:12:31Z</time>
      </trkpt>
      <trkpt lat="49.38201" lon="4.15948">
        <ele>131</ele>
        <time>2019-04-07T10:12:32Z</time>
      </trkpt>
      <trkpt lat="49.38205" lon="4.15951">
        <ele>131</ele>
        <time>2019-04-07T10:12:33Z</time>
      </trkpt>
      <trkpt lat="49.38209" lon="4.15955">
        <ele>131</ele>
        <time>2019-04-07T10:12:34Z</time>
      </trkpt>
      <trkpt lat="49.38213" lon="4.15958">
        <ele>131</ele>
        <time>2019-04-07T10:12:35Z</time>
      </trkpt>
      <trkpt lat="49.38217" lon="4.15961">
        <ele>131</ele>
        <time>2019-04-07T10:12:36Z</time>
      </trkpt>
      <trkpt lat="49.38221" lon="4.15964">
        <ele>131</ele>
        <time>2019-04-07T10:12:37Z</time>
      </trkpt>
      <trkpt lat="49.38225" lon="4.15967">
        <ele>131</ele>
        <time>2019-04-07T10:12:38Z</time>
      </trkpt>
      <trkpt lat="49.38229" lon="4.1597">
        <ele>131</ele>
        <time>2019-04-07T10:12:39Z</time>
      </trkpt>
      <trkpt lat="49.38233" lon="4.15973">
        <ele>132</ele>
        <time>2019-04-07T10:12:40Z</time>
      </trkpt>
      <trkpt lat="49.38237" lon="4.15976">
        <ele>132</ele>
        <time>2019-04-07T10:12:41Z</time>
      </trkpt>
      <trkpt lat="49.38241" lon="4.15979">
        <ele>131</ele>
        <time>2019-04-07T10:12:42Z</time>
      </trkpt>
      <trkpt lat="49.38245" lon="4.15982">
        <ele>131</ele>
        <time>2019-04-07T10:12:43Z</time>
      </trkpt>
      <trkpt lat="49.38249" lon="4.15985">
        <ele>132</ele>
        <time>2019-04-07T10:12:44Z</time>
      </trkpt>
      <trkpt lat="49.38253" lon="4.15987">
        <ele>132</ele>
        <time>2019-04-07T10:12:45Z</time>
      </trkpt>
      <trkpt lat="49.38257" lon="4.1599">
        <ele>132</ele>
        <time>2019-04-07T10:12:46Z</time>
      </trkpt>
      <trkpt lat="49.38262" lon="4.15993">
        <ele>132</ele>
        <time>2019-04-07T10:12:47Z</time>
      </trkpt>
      <trkpt lat="49.38266" lon="4.15996">
        <ele>132</ele>
        <time>2019-04-07T10:12:48Z</time>
      </trkpt>
      <trkpt lat="49.3827" lon="4.15999">
        <ele>132</ele>
        <time>2019-04-07T10:12:49Z</time>
      </trkpt>
      <trkpt lat="49.38274" lon="4.16002">
        <ele>132</ele>
        <time>2019-04-07T10:12:50Z</time>
      </trkpt>
      <trkpt lat="49.38278" lon="4.16005">
        <ele>132</ele>
        <time>2019-04-07T10:12:51Z</time>
      </trkpt>
      <trkpt lat="49.38281" lon="4.16008">
        <ele>132</ele>
        <time>2019-04-07T10:12:52Z</time>
      </trkpt>
      <trkpt lat="49.38285" lon="4.16011">
        <ele>133</ele>
        <time>2019-04-07T10:12:53Z</time>
      </trkpt>
      <trkpt lat="49.38289" lon="4.16014">
        <ele>133</ele>
        <time>2019-04-07T10:12:54Z</time>
      </trkpt>
      <trkpt lat="49.38294" lon="4.16017">
        <ele>133</ele>
        <time>2019-04-07T10:12:55Z</time>
      </trkpt>
      <trkpt lat="49.38298" lon="4.1602">
        <ele>133</ele>
        <time>2019-04-07T10:12:56Z</time>
      </trkpt>
      <trkpt lat="49.38302" lon="4.16023">
        <ele>133</ele>
        <time>2019-04-07T10:12:57Z</time>
      </trkpt>
      <trkpt lat="49.38306" lon="4.16026">
        <ele>133</ele>
        <time>2019-04-07T10:12:58Z</time>
      </trkpt>
      <trkpt lat="49.3831" lon="4.1603">
        <ele>133</ele>
        <time>2019-04-07T10:12:59Z</time>
      </trkpt>
      <trkpt lat="49.38314" lon="4.16032">
        <ele>133</ele>
        <time>2019-04-07T10:13:00Z</time>
      </trkpt>
      <trkpt lat="49.38318" lon="4.16035">
        <ele>133</ele>
        <time>2019-04-07T10:13:01Z</time>
      </trkpt>
      <trkpt lat="49.38322" lon="4.16038">
        <ele>133</ele>
        <time>2019-04-07T10:13:02Z</time>
      </trkpt>
      <trkpt lat="49.38326" lon="4.16041">
        <ele>133</ele>
        <time>2019-04-07T10:13:03Z</time>
      </trkpt>
      <trkpt lat="49.3833" lon="4.16044">
        <ele>133</ele>
        <time>2019-04-07T10:13:04Z</time>
      </trkpt>
      <trkpt lat="49.38334" lon="4.16048">
        <ele>133</ele>
        <time>2019-04-07T10:13:05Z</time>
      </trkpt>
      <trkpt lat="49.38339" lon="4.1605">
        <ele>133</ele>
        <time>2019-04-07T10:13:06Z</time>
      </trkpt>
      <trkpt lat="49.38342" lon="4.16053">
        <ele>133</ele>
        <time>2019-04-07T10:13:07Z</time>
      </trkpt>
      <trkpt lat="49.38347" lon="4.16056">
        <ele>133</ele>
        <time>2019-04-07T10:13:08Z</time>
      </trkpt>
      <trkpt lat="49.38351" lon="4.16059">
        <ele>133</ele>
        <time>2019-04-07T10:13:09Z</time>
      </trkpt>
      <trkpt lat="49.38355" lon="4.16063">
        <ele>133</ele>
        <time>2019-04-07T10:13:10Z</time>
      </trkpt>
      <trkpt lat="49.38359" lon="4.16066">
        <ele>133</ele>
        <time>2019-04-07T10:13:11Z</time>
      </trkpt>
      <trkpt lat="49.38364" lon="4.1607">
        <ele>133</ele>
        <time>2019-04-07T10:13:12Z</time>
      </trkpt>
      <trkpt lat="49.38369" lon="4.16073">
        <ele>133</ele>
        <time>2019-04-07T10:13:13Z</time>
      </trkpt>
      <trkpt lat="49.38374" lon="4.16076">
        <ele>134</ele>
        <time>2019-04-07T10:13:14Z</time>
      </trkpt>
      <trkpt lat="49.38379" lon="4.1608">
        <ele>134</ele>
        <time>2019-04-07T10:13:15Z</time>
      </trkpt>
      <trkpt lat="49.38383" lon="4.16083">
        <ele>134</ele>
        <time>2019-04-07T10:13:16Z</time>
      </trkpt>
      <trkpt lat="49.38387" lon="4.16086">
        <ele>134</ele>
        <time>2019-04-07T10:13:17Z</time>
      </trkpt>
      <trkpt lat="49.38392" lon="4.16089">
        <ele>135</ele>
        <time>2019-04-07T10:13:18Z</time>
      </trkpt>
      <trkpt lat="49.38396" lon="4.16092">
        <ele>135</ele>
        <time>2019-04-07T10:13:19Z</time>
      </trkpt>
      <trkpt lat="49.38401" lon="4.16096">
        <ele>135</ele>
        <time>2019-04-07T10:13:20Z</time>
      </trkpt>
      <trkpt lat="49.38405" lon="4.16099">
        <ele>135</ele>
        <time>2019-04-07T10:13:21Z</time>
      </trkpt>
      <trkpt lat="49.3841" lon="4.16103">
        <ele>135</ele>
        <time>2019-04-07T10:13:22Z</time>
      </trkpt>
      <trkpt lat="49.38415" lon="4.16106">
        <ele>135</ele>
        <time>2019-04-07T10:13:23Z</time>
      </trkpt>
      <trkpt lat="49.38419" lon="4.1611">
        <ele>135</ele>
        <time>2019-04-07T10:13:24Z</time>
      </trkpt>
      <trkpt lat="49.38424" lon="4.16113">
        <ele>135</ele>
        <time>2019-04-07T10:13:25Z</time>
      </trkpt>
      <trkpt lat="49.38429" lon="4.16116">
        <ele>135</ele>
        <time>2019-04-07T10:13:26Z</time>
      </trkpt>
      <trkpt lat="49.38434" lon="4.1612">
        <ele>135</ele>
        <time>2019-04-07T10:13:27Z</time>
      </trkpt>
      <trkpt lat="49.38438" lon="4.16123">
        <ele>135</ele>
        <time>2019-04-07T10:13:28Z</time>
      </trkpt>
      <trkpt lat="49.38442" lon="4.16127">
        <ele>135</ele>
        <time>2019-04-07T10:13:29Z</time>
      </trkpt>
      <trkpt lat="49.38447" lon="4.16131">
        <ele>135</ele>
        <time>2019-04-07T10:13:30Z</time>
      </trkpt>
      <trkpt lat="49.38453" lon="4.16135">
        <ele>135</ele>
        <time>2019-04-07T10:13:31Z</time>
      </trkpt>
      <trkpt lat="49.38458" lon="4.16138">
        <ele>135</ele>
        <time>2019-04-07T10:13:32Z</time>
      </trkpt>
      <trkpt lat="49.38463" lon="4.16141">
        <ele>135</ele>
        <time>2019-04-07T10:13:33Z</time>
      </trkpt>
      <trkpt lat="49.38468" lon="4.16145">
        <ele>135</ele>
        <time>2019-04-07T10:13:34Z</time>
      </trkpt>
      <trkpt lat="49.38473" lon="4.16149">
        <ele>135</ele>
        <time>2019-04-07T10:13:35Z</time>
      </trkpt>
      <trkpt lat="49.38478" lon="4.16154">
        <ele>135</ele>
        <time>2019-04-07T10:13:36Z</time>
      </trkpt>
      <trkpt lat="49.38483" lon="4.16158">
        <ele>135</ele>
        <time>2019-04-07T10:13:37Z</time>
      </trkpt>
      <trkpt lat="49.38488" lon="4.16161">
        <ele>135</ele>
        <time>2019-04-07T10:13:38Z</time>
      </trkpt>
      <trkpt lat="49.38492" lon="4.16165">
        <ele>135</ele>
        <time>2019-04-07T10:13:39Z</time>
      </trkpt>
      <trkpt lat="49.38497" lon="4.16168">
        <ele>135</ele>
        <time>2019-04-07T10:13:40Z</time>
      </trkpt>
      <trkpt lat="49.38502" lon="4.16172">
        <ele>135</ele>
        <time>2019-04-07T10:13:41Z</time>
      </trkpt>
      <trkpt lat="49.38507" lon="4.16176">
        <ele>135</ele>
        <time>2019-04-07T10:13:42Z</time>
      </trkpt>
      <trkpt lat="49.38512" lon="4.1618">
        <ele>135</ele>
        <time>2019-04-07T10:13:43Z</time>
      </trkpt>
      <trkpt lat="49.38517" lon="4.16183">
        <ele>135</ele>
        <time>2019-04-07T10:13:44Z</time>
      </trkpt>
      <trkpt lat="49.38522" lon="4.16187">
        <ele>135</ele>
        <time>2019-04-07T10:13:45Z</time>
      </trkpt>
      <trkpt lat="49.38527" lon="4.1619">
        <ele>135</ele>
        <time>2019-04-07T10:13:46Z</time>
      </trkpt>
      <trkpt lat="49.38532" lon="4.16194">
        <ele>135</ele>
        <time>2019-04-07T10:13:47Z</time>
      </trkpt>
      <trkpt lat="49.38538" lon="4.16198">
        <ele>135</ele>
        <time>2019-04-07T10:13:48Z</time>
      </trkpt>
      <trkpt lat="49.38543" lon="4.16202">
        <ele>135</ele>
        <time>2019-04-07T10:13:49Z</time>
      </trkpt>
      <trkpt lat="49.38548" lon="4.16206">
        <ele>135</ele>
        <time>2019-04-07T10:13:50Z</time>
      </trkpt>
      <trkpt lat="49.38554" lon="4.16211">
        <ele>135</ele>
        <time>2019-04-07T10:13:51Z</time>
      </trkpt>
      <trkpt lat="49.38559" lon="4.16215">
        <ele>135</ele>
        <time>2019-04-07T10:13:52Z</time>
      </trkpt>
      <trkpt lat="49.38565" lon="4.16219">
        <ele>135</ele>
        <time>2019-04-07T10:13:53Z</time>
      </trkpt>
      <trkpt lat="49.38571" lon="4.16224">
        <ele>135</ele>
        <time>2019-04-07T10:13:54Z</time>
      </trkpt>
      <trkpt lat="49.38576" lon="4.16228">
        <ele>134</ele>
        <time>2019-04-07T10:13:55Z</time>
      </trkpt>
      <trkpt lat="49.38582" lon="4.16232">
        <ele>134</ele>
        <time>2019-04-07T10:13:56Z</time>
      </trkpt>
      <trkpt lat="49.38588" lon="4.16236">
        <ele>135</ele>
        <time>2019-04-07T10:13:57Z</time>
      </trkpt>
      <trkpt lat="49.38593" lon="4.1624">
        <ele>135</ele>
        <time>2019-04-07T10:13:58Z</time>
      </trkpt>
      <trkpt lat="49.38599" lon="4.16244">
        <ele>135</ele>
        <time>2019-04-07T10:13:59Z</time>
      </trkpt>
      <trkpt lat="49.38605" lon="4.16248">
        <ele>134</ele>
        <time>2019-04-07T10:14:00Z</time>
      </trkpt>
      <trkpt lat="49.3861" lon="4.16252">
        <ele>134</ele>
        <time>2019-04-07T10:14:01Z</time>
      </trkpt>
      <trkpt lat="49.38616" lon="4.16256">
        <ele>134</ele>
        <time>2019-04-07T10:14:02Z</time>
      </trkpt>
      <trkpt lat="49.38622" lon="4.16261">
        <ele>134</ele>
        <time>2019-04-07T10:14:03Z</time>
      </trkpt>
      <trkpt lat="49.38628" lon="4.16265">
        <ele>134</ele>
        <time>2019-04-07T10:14:04Z</time>
      </trkpt>
      <trkpt lat="49.38633" lon="4.16269">
        <ele>134</ele>
        <time>2019-04-07T10:14:05Z</time>
      </trkpt>
      <trkpt lat="49.38639" lon="4.16274">
        <ele>134</ele>
        <time>2019-04-07T10:14:06Z</time>
      </trkpt>
      <trkpt lat="49.38644" lon="4.16279">
        <ele>134</ele>
        <time>2019-04-07T10:14:07Z</time>
      </trkpt>
      <trkpt lat="49.38651" lon="4.16284">
        <ele>134</ele>
        <time>2019-04-07T10:14:08Z</time>
      </trkpt>
      <trkpt lat="49.38656" lon="4.16288">
        <ele>134</ele>
        <time>2019-04-07T10:14:09Z</time>
      </trkpt>
      <trkpt lat="49.38662" lon="4.16292">
        <ele>134</ele>
        <time>2019-04-07T10:14:10Z</time>
      </trkpt>
      <trkpt lat="49.38668" lon="4.16296">
        <ele>134</ele>
        <time>2019-04-07T10:14:11Z</time>
      </trkpt>
      <trkpt lat="49.38674" lon="4.163">
        <ele>133</ele>
        <time>2019-04-07T10:14:12Z</time>
      </trkpt>
      <trkpt lat="49.3868" lon="4.16304">
        <ele>134</ele>
        <time>2019-04-07T10:14:13Z</time>
      </trkpt>
      <trkpt lat="49.38686" lon="4.16309">
        <ele>133</ele>
        <time>2019-04-07T10:14:14Z</time>
      </trkpt>
      <trkpt lat="49.38692" lon="4.16313">
        <ele>133</ele>
        <time>2019-04-07T10:14:15Z</time>
      </trkpt>
      <trkpt lat="49.38698" lon="4.16317">
        <ele>133</ele>
        <time>2019-04-07T10:14:16Z</time>
      </trkpt>
      <trkpt lat="49.38704" lon="4.16322">
        <ele>133</ele>
        <time>2019-04-07T10:14:17Z</time>
      </trkpt>
      <trkpt lat="49.3871" lon="4.16327">
        <ele>133</ele>
        <time>2019-04-07T10:14:18Z</time>
      </trkpt>
      <trkpt lat="49.38716" lon="4.16332">
        <ele>133</ele>
        <time>2019-04-07T10:14:19Z</time>
      </trkpt>
      <trkpt lat="49.38722" lon="4.16337">
        <ele>133</ele>
        <time>2019-04-07T10:14:20Z</time>
      </trkpt>
      <trkpt lat="49.38728" lon="4.16342">
        <ele>133</ele>
        <time>2019-04-07T10:14:21Z</time>
      </trkpt>
      <trkpt lat="49.38735" lon="4.16347">
        <ele>133</ele>
        <time>2019-04-07T10:14:22Z</time>
      </trkpt>
      <trkpt lat="49.38741" lon="4.16351">
        <ele>132</ele>
        <time>2019-04-07T10:14:23Z</time>
      </trkpt>
      <trkpt lat="49.38748" lon="4.16356">
        <ele>132</ele>
        <time>2019-04-07T10:14:24Z</time>
      </trkpt>
      <trkpt lat="49.38755" lon="4.16361">
        <ele>132</ele>
        <time>2019-04-07T10:14:25Z</time>
      </trkpt>
      <trkpt lat="49.38762" lon="4.16365">
        <ele>132</ele>
        <time>2019-04-07T10:14:26Z</time>
      </trkpt>
      <trkpt lat="49.38769" lon="4.1637">
        <ele>132</ele>
        <time>2019-04-07T10:14:27Z</time>
      </trkpt>
      <trkpt lat="49.38776" lon="4.16376">
        <ele>132</ele>
        <time>2019-04-07T10:14:28Z</time>
      </trkpt>
      <trkpt lat="49.38783" lon="4.16381">
        <ele>132</ele>
        <time>2019-04-07T10:14:29Z</time>
      </trkpt>
      <trkpt lat="49.3879" lon="4.16386">
        <ele>132</ele>
        <time>2019-04-07T10:14:30Z</time>
      </trkpt>
      <trkpt lat="49.38796" lon="4.16391">
        <ele>132</ele>
        <time>2019-04-07T10:14:31Z</time>
      </trkpt>
      <trkpt lat="49.38803" lon="4.16395">
        <ele>132</ele>
        <time>2019-04-07T10:14:32Z</time>
      </trkpt>
      <trkpt lat="49.3881" lon="4.164">
        <ele>132</ele>
        <time>2019-04-07T10:14:33Z</time>
      </trkpt>
      <trkpt lat="49.38817" lon="4.16405">
        <ele>132</ele>
        <time>2019-04-07T10:14:34Z</time>
      </trkpt>
      <trkpt lat="49.38823" lon="4.1641">
        <ele>132</ele>
        <time>2019-04-07T10:14:35Z</time>
      </trkpt>
      <trkpt lat="49.3883" lon="4.16416">
        <ele>132</ele>
        <time>2019-04-07T10:14:36Z</time>
      </trkpt>
      <trkpt lat="49.38836" lon="4.16421">
        <ele>132</ele>
        <time>2019-04-07T10:14:37Z</time>
      </trkpt>
      <trkpt lat="49.38843" lon="4.16426">
        <ele>132</ele>
        <time>2019-04-07T10:14:38Z</time>
      </trkpt>
      <trkpt lat="49.3885" lon="4.16431">
        <ele>132</ele>
        <time>2019-04-07T10:14:39Z</time>
      </trkpt>
      <trkpt lat="49.38856" lon="4.16436">
        <ele>132</ele>
        <time>2019-04-07T10:14:40Z</time>
      </trkpt>
      <trkpt lat="49.38862" lon="4.16441">
        <ele>132</ele>
        <time>2019-04-07T10:14:41Z</time>
      </trkpt>
      <trkpt lat="49.38869" lon="4.16445">
        <ele>132</ele>
        <time>2019-04-07T10:14:42Z</time>
      </trkpt>
      <trkpt lat="49.38875" lon="4.1645">
        <ele>132</ele>
        <time>2019-04-07T10:14:43Z</time>
      </trkpt>
      <trkpt lat="49.38881" lon="4.16454">
        <ele>132</ele>
        <time>2019-04-07T10:14:44Z</time>
      </trkpt>
      <trkpt lat="49.38887" lon="4.16459">
        <ele>133</ele>
        <time>2019-04-07T10:14:45Z</time>
      </trkpt>
      <trkpt lat="49.38893" lon="4.16464">
        <ele>133</ele>
        <time>2019-04-07T10:14:46Z</time>
      </trkpt>
      <trkpt lat="49.38899" lon="4.16468">
        <ele>133</ele>
        <time>2019-04-07T10:14:47Z</time>
      </trkpt>
      <trkpt lat="49.38904" lon="4.16473">
        <ele>133</ele>
        <time>2019-04-07T10:14:48Z</time>
      </trkpt>
      <trkpt lat="49.3891" lon="4.16477">
        <ele>133</ele>
        <time>2019-04-07T10:14:49Z</time>
      </trkpt>
      <trkpt lat="49.38916" lon="4.16481">
        <ele>133</ele>
        <time>2019-04-07T10:14:50Z</time>
      </trkpt>
      <trkpt lat="49.38921" lon="4.16485">
        <ele>134</ele>
        <time>2019-04-07T10:14:51Z</time>
      </trkpt>
      <trkpt lat="49.38927" lon="4.16489">
        <ele>134</ele>
        <time>2019-04-07T10:14:52Z</time>
      </trkpt>
      <trkpt lat="49.38933" lon="4.16493">
        <ele>134</ele>
        <time>2019-04-07T10:14:53Z</time>
      </trkpt>
      <trkpt lat="49.38938" lon="4.16496">
        <ele>134</ele>
        <time>2019-04-07T10:14:54Z</time>
      </trkpt>
      <trkpt lat="49.38944" lon="4.16501">
        <ele>134</ele>
        <time>2019-04-07T10:14:55Z</time>
      </trkpt>
      <trkpt lat="49.38948" lon="4.16505">
        <ele>135</ele>
        <time>2019-04-07T10:14:56Z</time>
      </trkpt>
      <trkpt lat="49.38954" lon="4.16509">
        <ele>135</ele>
        <time>2019-04-07T10:14:57Z</time>
      </trkpt>
      <trkpt lat="49.38959" lon="4.16512">
        <ele>135</ele>
        <time>2019-04-07T10:14:58Z</time>
      </trkpt>
      <trkpt lat="49.38963" lon="4.16516">
        <ele>135</ele>
        <time>2019-04-07T10:14:59Z</time>
      </trkpt>
      <trkpt lat="49.38968" lon="4.16519">
        <ele>135</ele>
        <time>2019-04-07T10:15:00Z</time>
      </trkpt>
      <trkpt lat="49.38973" lon="4.16522">
        <ele>135</ele>
        <time>2019-04-07T10:15:01Z</time>
      </trkpt>
      <trkpt lat="49.38977" lon="4.16525">
        <ele>136</ele>
        <time>2019-04-07T10:15:02Z</time>
      </trkpt>
      <trkpt lat="49.38982" lon="4.16529">
        <ele>136</ele>
        <time>2019-04-07T10:15:03Z</time>
      </trkpt>
      <trkpt lat="49.38986" lon="4.16533">
        <ele>136</ele>
        <time>2019-04-07T10:15:04Z</time>
      </trkpt>
      <trkpt lat="49.3899" lon="4.16538">
        <ele>136</ele>
        <time>2019-04-07T10:15:05Z</time>
      </trkpt>
      <trkpt lat="49.38994" lon="4.16543">
        <ele>136</ele>
        <time>2019-04-07T10:15:06Z</time>
      </trkpt>
      <trkpt lat="49.38998" lon="4.16548">
        <ele>136</ele>
        <time>2019-04-07T10:15:07Z</time>
      </trkpt>
      <trkpt lat="49.39002" lon="4.16552">
        <ele>136</ele>
        <time>2019-04-07T10:15:08Z</time>
      </trkpt>
      <trkpt lat="49.39007" lon="4.16555">
        <ele>136</ele>
        <time>2019-04-07T10:15:09Z</time>
      </trkpt>
      <trkpt lat="49.39012" lon="4.16557">
        <ele>137</ele>
        <time>2019-04-07T10:15:10Z</time>
      </trkpt>
      <trkpt lat="49.39017" lon="4.1656">
        <ele>137</ele>
        <time>2019-04-07T10:15:11Z</time>
      </trkpt>
      <trkpt lat="49.39022" lon="4.16563">
        <ele>137</ele>
        <time>2019-04-07T10:15:12Z</time>
      </trkpt>
      <trkpt lat="49.39027" lon="4.16566">
        <ele>137</ele>
        <time>2019-04-07T10:15:13Z</time>
      </trkpt>
      <trkpt lat="49.39031" lon="4.16569">
        <ele>137</ele>
        <time>2019-04-07T10:15:14Z</time>
      </trkpt>
      <trkpt lat="49.39036" lon="4.16573">
        <ele>137</ele>
        <time>2019-04-07T10:15:15Z</time>
      </trkpt>
      <trkpt lat="49.3904" lon="4.16576">
        <ele>137</ele>
        <time>2019-04-07T10:15:16Z</time>
      </trkpt>
      <trkpt lat="49.39045" lon="4.16579">
        <ele>137</ele>
        <time>2019-04-07T10:15:17Z</time>
      </trkpt>
      <trkpt lat="49.39049" lon="4.16583">
        <ele>137</ele>
        <time>2019-04-07T10:15:18Z</time>
      </trkpt>
      <trkpt lat="49.39054" lon="4.16586">
        <ele>137</ele>
        <time>2019-04-07T10:15:19Z</time>
      </trkpt>
      <trkpt lat="49.39058" lon="4.16589">
        <ele>137</ele>
        <time>2019-04-07T10:15:20Z</time>
      </trkpt>
      <trkpt lat="49.39062" lon="4.16592">
        <ele>137</ele>
        <time>2019-04-07T10:15:21Z</time>
      </trkpt>
      <trkpt lat="49.39067" lon="4.16596">
        <ele>137</ele>
        <time>2019-04-07T10:15:22Z</time>
      </trkpt>
      <trkpt lat="49.39071" lon="4.16599">
        <ele>137</ele>
        <time>2019-04-07T10:15:23Z</time>
      </trkpt>
      <trkpt lat="49.39075" lon="4.16603">
        <ele>138</ele>
        <time>2019-04-07T10:15:24Z</time>
      </trkpt>
      <trkpt lat="49.3908" lon="4.16606">
        <ele>138</ele>
        <time>2019-04-07T10:15:25Z</time>
      </trkpt>
      <trkpt lat="49.39084" lon="4.16609">
        <ele>138</ele>
        <time>2019-04-07T10:15:26Z</time>
      </trkpt>
      <trkpt lat="49.39088" lon="4.16612">
        <ele>138</ele>
        <time>2019-04-07T10:15:27Z</time>
      </trkpt>
      <trkpt lat="49.39092" lon="4.16615">
        <ele>138</ele>
        <time>2019-04-07T10:15:28Z</time>
      </trkpt>
      <trkpt lat="49.39097" lon="4.16618">
        <ele>139</ele>
        <time>2019-04-07T10:15:29Z</time>
      </trkpt>
      <trkpt lat="49.39101" lon="4.16622">
        <ele>138</ele>
        <time>2019-04-07T10:15:30Z</time>
      </trkpt>
      <trkpt lat="49.39105" lon="4.16625">
        <ele>138</ele>
        <time>2019-04-07T10:15:31Z</time>
      </trkpt>
      <trkpt lat="49.3911" lon="4.16628">
        <ele>138</ele>
        <time>2019-04-07T10:15:32Z</time>
      </trkpt>
      <trkpt lat="49.39114" lon="4.16632">
        <ele>138</ele>
        <time>2019-04-07T10:15:33Z</time>
      </trkpt>
      <trkpt lat="49.39119" lon="4.16636">
        <ele>138</ele>
        <time>2019-04-07T10:15:34Z</time>
      </trkpt>
      <trkpt lat="49.39123" lon="4.16639">
        <ele>138</ele>
        <time>2019-04-07T10:15:35Z</time>
      </trkpt>
      <trkpt lat="49.39128" lon="4.16642">
        <ele>138</ele>
        <time>2019-04-07T10:15:36Z</time>
      </trkpt>
      <trkpt lat="49.39132" lon="4.16645">
        <ele>138</ele>
        <time>2019-04-07T10:15:37Z</time>
      </trkpt>
      <trkpt lat="49.3914" lon="4.1665">
        <ele>137</ele>
        <time>2019-04-07T10:15:39Z</time>
      </trkpt>
      <trkpt lat="49.39145" lon="4.16653">
        <ele>138</ele>
        <time>2019-04-07T10:15:40Z</time>
      </trkpt>
      <trkpt lat="49.39148" lon="4.16657">
        <ele>138</ele>
        <time>2019-04-07T10:15:41Z</time>
      </trkpt>
      <trkpt lat="49.39151" lon="4.1666">
        <ele>138</ele>
        <time>2019-04-07T10:15:42Z</time>
      </trkpt>
      <trkpt lat="49.39155" lon="4.16664">
        <ele>137</ele>
        <time>2019-04-07T10:15:43Z</time>
      </trkpt>
      <trkpt lat="49.3916" lon="4.16668">
        <ele>137</ele>
        <time>2019-04-07T10:15:44Z</time>
      </trkpt>
      <trkpt lat="49.39165" lon="4.16671">
        <ele>137</ele>
        <time>2019-04-07T10:15:45Z</time>
      </trkpt>
      <trkpt lat="49.3917" lon="4.16675">
        <ele>137</ele>
        <time>2019-04-07T10:15:46Z</time>
      </trkpt>
      <trkpt lat="49.39175" lon="4.16678">
        <ele>137</ele>
        <time>2019-04-07T10:15:47Z</time>
      </trkpt>
      <trkpt lat="49.3918" lon="4.16682">
        <ele>137</ele>
        <time>2019-04-07T10:15:48Z</time>
      </trkpt>
      <trkpt lat="49.39186" lon="4.16685">
        <ele>137</ele>
        <time>2019-04-07T10:15:49Z</time>
      </trkpt>
      <trkpt lat="49.39191" lon="4.16689">
        <ele>137</ele>
        <time>2019-04-07T10:15:50Z</time>
      </trkpt>
      <trkpt lat="49.39196" lon="4.16693">
        <ele>137</ele>
        <time>2019-04-07T10:15:51Z</time>
      </trkpt>
      <trkpt lat="49.39201" lon="4.16697">
        <ele>137</ele>
        <time>2019-04-07T10:15:52Z</time>
      </trkpt>
      <trkpt lat="49.39206" lon="4.16701">
        <ele>137</ele>
        <time>2019-04-07T10:15:53Z</time>
      </trkpt>
      <trkpt lat="49.39211" lon="4.16705">
        <ele>137</ele>
        <time>2019-04-07T10:15:54Z</time>
      </trkpt>
      <trkpt lat="49.39216" lon="4.16708">
        <ele>137</ele>
        <time>2019-04-07T10:15:55Z</time>
      </trkpt>
      <trkpt lat="49.39222" lon="4.16713">
        <ele>136</ele>
        <time>2019-04-07T10:15:56Z</time>
      </trkpt>
      <trkpt lat="49.39227" lon="4.16717">
        <ele>136</ele>
        <time>2019-04-07T10:15:57Z</time>
      </trkpt>
      <trkpt lat="49.39232" lon="4.16721">
        <ele>137</ele>
        <time>2019-04-07T10:15:58Z</time>
      </trkpt>
      <trkpt lat="49.39238" lon="4.16726">
        <ele>137</ele>
        <time>2019-04-07T10:15:59Z</time>
      </trkpt>
      <trkpt lat="49.39243" lon="4.1673">
        <ele>137</ele>
        <time>2019-04-07T10:16:00Z</time>
      </trkpt>
      <trkpt lat="49.39249" lon="4.16734">
        <ele>137</ele>
        <time>2019-04-07T10:16:01Z</time>
      </trkpt>
      <trkpt lat="49.39255" lon="4.16739">
        <ele>137</ele>
        <time>2019-04-07T10:16:02Z</time>
      </trkpt>
      <trkpt lat="49.39261" lon="4.16744">
        <ele>136</ele>
        <time>2019-04-07T10:16:03Z</time>
      </trkpt>
      <trkpt lat="49.39267" lon="4.16749">
        <ele>136</ele>
        <time>2019-04-07T10:16:04Z</time>
      </trkpt>
      <trkpt lat="49.39273" lon="4.16754">
        <ele>137</ele>
        <time>2019-04-07T10:16:05Z</time>
      </trkpt>
      <trkpt lat="49.39279" lon="4.16758">
        <ele>137</ele>
        <time>2019-04-07T10:16:06Z</time>
      </trkpt>
      <trkpt lat="49.39285" lon="4.16763">
        <ele>136</ele>
        <time>2019-04-07T10:16:07Z</time>
      </trkpt>
      <trkpt lat="49.39291" lon="4.16767">
        <ele>136</ele>
        <time>2019-04-07T10:16:08Z</time>
      </trkpt>
      <trkpt lat="49.39297" lon="4.16772">
        <ele>136</ele>
        <time>2019-04-07T10:16:09Z</time>
      </trkpt>
      <trkpt lat="49.39304" lon="4.16777">
        <ele>136</ele>
        <time>2019-04-07T10:16:10Z</time>
      </trkpt>
      <trkpt lat="49.3931" lon="4.16782">
        <ele>136</ele>
        <time>2019-04-07T10:16:11Z</time>
      </trkpt>
      <trkpt lat="49.39316" lon="4.16787">
        <ele>136</ele>
        <time>2019-04-07T10:16:12Z</time>
      </trkpt>
      <trkpt lat="49.39323" lon="4.16792">
        <ele>135</ele>
        <time>2019-04-07T10:16:13Z</time>
      </trkpt>
      <trkpt lat="49.3933" lon="4.16797">
        <ele>135</ele>
        <time>2019-04-07T10:16:14Z</time>
      </trkpt>
      <trkpt lat="49.39336" lon="4.16801">
        <ele>135</ele>
        <time>2019-04-07T10:16:15Z</time>
      </trkpt>
      <trkpt lat="49.39342" lon="4.16806">
        <ele>135</ele>
        <time>2019-04-07T10:16:16Z</time>
      </trkpt>
      <trkpt lat="49.39348" lon="4.1681">
        <ele>135</ele>
        <time>2019-04-07T10:16:17Z</time>
      </trkpt>
      <trkpt lat="49.39354" lon="4.16815">
        <ele>135</ele>
        <time>2019-04-07T10:16:18Z</time>
      </trkpt>
      <trkpt lat="49.39361" lon="4.1682">
        <ele>135</ele>
        <time>2019-04-07T10:16:19Z</time>
      </trkpt>
      <trkpt lat="49.39367" lon="4.16825">
        <ele>135</ele>
        <time>2019-04-07T10:16:20Z</time>
      </trkpt>
      <trkpt lat="49.39374" lon="4.1683">
        <ele>135</ele>
        <time>2019-04-07T10:16:21Z</time>
      </trkpt>
      <trkpt lat="49.3938" lon="4.16835">
        <ele>135</ele>
        <time>2019-04-07T10:16:22Z</time>
      </trkpt>
      <trkpt lat="49.39387" lon="4.1684">
        <ele>134</ele>
        <time>2019-04-07T10:16:23Z</time>
      </trkpt>
      <trkpt lat="49.39393" lon="4.16845">
        <ele>134</ele>
        <time>2019-04-07T10:16:24Z</time>
      </trkpt>
      <trkpt lat="49.394" lon="4.16851">
        <ele>134</ele>
        <time>2019-04-07T10:16:25Z</time>
      </trkpt>
      <trkpt lat="49.39407" lon="4.16855">
        <ele>134</ele>
        <time>2019-04-07T10:16:26Z</time>
      </trkpt>
      <trkpt lat="49.39413" lon="4.16861">
        <ele>133</ele>
        <time>2019-04-07T10:16:27Z</time>
      </trkpt>
      <trkpt lat="49.3942" lon="4.16866">
        <ele>133</ele>
        <time>2019-04-07T10:16:28Z</time>
      </trkpt>
      <trkpt lat="49.39427" lon="4.16871">
        <ele>133</ele>
        <time>2019-04-07T10:16:29Z</time>
      </trkpt>
      <trkpt lat="49.39434" lon="4.16876">
        <ele>133</ele>
        <time>2019-04-07T10:16:30Z</time>
      </trkpt>
      <trkpt lat="49.3944" lon="4.16882">
        <ele>133</ele>
        <time>2019-04-07T10:16:31Z</time>
      </trkpt>
      <trkpt lat="49.39447" lon="4.16887">
        <ele>133</ele>
        <time>2019-04-07T10:16:32Z</time>
      </trkpt>
      <trkpt lat="49.39454" lon="4.16892">
        <ele>133</ele>
        <time>2019-04-07T10:16:33Z</time>
      </trkpt>
      <trkpt lat="49.39461" lon="4.16898">
        <ele>133</ele>
        <time>2019-04-07T10:16:34Z</time>
      </trkpt>
      <trkpt lat="49.39468" lon="4.16903">
        <ele>133</ele>
        <time>2019-04-07T10:16:35Z</time>
      </trkpt>
      <trkpt lat="49.39475" lon="4.16909">
        <ele>133</ele>
        <time>2019-04-07T10:16:36Z</time>
      </trkpt>
      <trkpt lat="49.39481" lon="4.16914">
        <ele>133</ele>
        <time>2019-04-07T10:16:37Z</time>
      </trkpt>
      <trkpt lat="49.39489" lon="4.16919">
        <ele>133</ele>
        <time>2019-04-07T10:16:38Z</time>
      </trkpt>
      <trkpt lat="49.39496" lon="4.16925">
        <ele>133</ele>
        <time>2019-04-07T10:16:39Z</time>
      </trkpt>
      <trkpt lat="49.39504" lon="4.16931">
        <ele>132</ele>
        <time>2019-04-07T10:16:40Z</time>
      </trkpt>
      <trkpt lat="49.39512" lon="4.16936">
        <ele>132</ele>
        <time>2019-04-07T10:16:41Z</time>
      </trkpt>
      <trkpt lat="49.39519" lon="4.16942">
        <ele>132</ele>
        <time>2019-04-07T10:16:42Z</time>
      </trkpt>
      <trkpt lat="49.39527" lon="4.16948">
        <ele>133</ele>
        <time>2019-04-07T10:16:43Z</time>
      </trkpt>
      <trkpt lat="49.39535" lon="4.16955">
        <ele>132</ele>
        <time>2019-04-07T10:16:44Z</time>
      </trkpt>
      <trkpt lat="49.39542" lon="4.16961">
        <ele>132</ele>
        <time>2019-04-07T10:16:45Z</time>
      </trkpt>
      <trkpt lat="49.39549" lon="4.16967">
        <ele>132</ele>
        <time>2019-04-07T10:16:46Z</time>
      </trkpt>
      <trkpt lat="49.39557" lon="4.16973">
        <ele>132</ele>
        <time>2019-04-07T10:16:47Z</time>
      </trkpt>
      <trkpt lat="49.39565" lon="4.16979">
        <ele>132</ele>
        <time>2019-04-07T10:16:48Z</time>
      </trkpt>
      <trkpt lat="49.39572" lon="4.16984">
        <ele>132</ele>
        <time>2019-04-07T10:16:49Z</time>
      </trkpt>
      <trkpt lat="49.3958" lon="4.1699">
        <ele>132</ele>
        <time>2019-04-07T10:16:50Z</time>
      </trkpt>
      <trkpt lat="49.39587" lon="4.16996">
        <ele>132</ele>
        <time>2019-04-07T10:16:51Z</time>
      </trkpt>
      <trkpt lat="49.39595" lon="4.17001">
        <ele>132</ele>
        <time>2019-04-07T10:16:52Z</time>
      </trkpt>
      <trkpt lat="49.39602" lon="4.17008">
        <ele>132</ele>
        <time>2019-04-07T10:16:53Z</time>
      </trkpt>
      <trkpt lat="49.3961" lon="4.17013">
        <ele>132</ele>
        <time>2019-04-07T10:16:54Z</time>
      </trkpt>
      <trkpt lat="49.39617" lon="4.17019">
        <ele>132</ele>
        <time>2019-04-07T10:16:55Z</time>
      </trkpt>
      <trkpt lat="49.39624" lon="4.17025">
        <ele>132</ele>
        <time>2019-04-07T10:16:56Z</time>
      </trkpt>
      <trkpt lat="49.39632" lon="4.1703">
        <ele>132</ele>
        <time>2019-04-07T10:16:57Z</time>
      </trkpt>
      <trkpt lat="49.39639" lon="4.17036">
        <ele>133</ele>
        <time>2019-04-07T10:16:58Z</time>
      </trkpt>
      <trkpt lat="49.39646" lon="4.17042">
        <ele>133</ele>
        <time>2019-04-07T10:16:59Z</time>
      </trkpt>
      <trkpt lat="49.39653" lon="4.17047">
        <ele>133</ele>
        <time>2019-04-07T10:17:00Z</time>
      </trkpt>
      <trkpt lat="49.3966" lon="4.17052">
        <ele>133</ele>
        <time>2019-04-07T10:17:01Z</time>
      </trkpt>
      <trkpt lat="49.39667" lon="4.17057">
        <ele>133</ele>
        <time>2019-04-07T10:17:02Z</time>
      </trkpt>
      <trkpt lat="49.39673" lon="4.17062">
        <ele>133</ele>
        <time>2019-04-07T10:17:03Z</time>
      </trkpt>
      <trkpt lat="49.3968" lon="4.17068">
        <ele>133</ele>
        <time>2019-04-07T10:17:04Z</time>
      </trkpt>
      <trkpt lat="49.39686" lon="4.17072">
        <ele>133</ele>
        <time>2019-04-07T10:17:05Z</time>
      </trkpt>
      <trkpt lat="49.39693" lon="4.17077">
        <ele>134</ele>
        <time>2019-04-07T10:17:06Z</time>
      </trkpt>
      <trkpt lat="49.39699" lon="4.17082">
        <ele>134</ele>
        <time>2019-04-07T10:17:07Z</time>
      </trkpt>
      <trkpt lat="49.39705" lon="4.17086">
        <ele>134</ele>
        <time>2019-04-07T10:17:08Z</time>
      </trkpt>
      <trkpt lat="49.39711" lon="4.17091">
        <ele>134</ele>
        <time>2019-04-07T10:17:09Z</time>
      </trkpt>
      <trkpt lat="49.39716" lon="4.17095">
        <ele>135</ele>
        <time>2019-04-07T10:17:10Z</time>
      </trkpt>
      <trkpt lat="49.39722" lon="4.171">
        <ele>134</ele>
        <time>2019-04-07T10:17:11Z</time>
      </trkpt>
      <trkpt lat="49.39728" lon="4.17105">
        <ele>134</ele>
        <time>2019-04-07T10:17:12Z</time>
      </trkpt>
      <trkpt lat="49.39734" lon="4.17109">
        <ele>135</ele>
        <time>2019-04-07T10:17:13Z</time>
      </trkpt>
      <trkpt lat="49.39739" lon="4.17113">
        <ele>135</ele>
        <time>2019-04-07T10:17:14Z</time>
      </trkpt>
      <trkpt lat="49.39745" lon="4.17118">
        <ele>135</ele>
        <time>2019-04-07T10:17:15Z</time>
      </trkpt>
      <trkpt lat="49.3975" lon="4.17122">
        <ele>135</ele>
        <time>2019-04-07T10:17:16Z</time>
      </trkpt>
      <trkpt lat="49.39756" lon="4.17126">
        <ele>135</ele>
        <time>2019-04-07T10:17:17Z</time>
      </trkpt>
      <trkpt lat="49.39761" lon="4.1713">
        <ele>135</ele>
        <time>2019-04-07T10:17:18Z</time>
      </trkpt>
      <trkpt lat="49.39766" lon="4.17134">
        <ele>136</ele>
        <time>2019-04-07T10:17:19Z</time>
      </trkpt>
      <trkpt lat="49.39771" lon="4.17138">
        <ele>135</ele>
        <time>2019-04-07T10:17:20Z</time>
      </trkpt>
      <trkpt lat="49.39776" lon="4.17142">
        <ele>135</ele>
        <time>2019-04-07T10:17:21Z</time>
      </trkpt>
      <trkpt lat="49.39781" lon="4.17146">
        <ele>136</ele>
        <time>2019-04-07T10:17:22Z</time>
      </trkpt>
      <trkpt lat="49.39786" lon="4.17149">
        <ele>136</ele>
        <time>2019-04-07T10:17:23Z</time>
      </trkpt>
      <trkpt lat="49.39791" lon="4.17153">
        <ele>136</ele>
        <time>2019-04-07T10:17:24Z</time>
      </trkpt>
      <trkpt lat="49.39796" lon="4.17157">
        <ele>136</ele>
        <time>2019-04-07T10:17:25Z</time>
      </trkpt>
      <trkpt lat="49.39801" lon="4.17161">
        <ele>136</ele>
        <time>2019-04-07T10:17:26Z</time>
      </trkpt>
      <trkpt lat="49.39805" lon="4.17164">
        <ele>137</ele>
        <time>2019-04-07T10:17:27Z</time>
      </trkpt>
      <trkpt lat="49.3981" lon="4.17168">
        <ele>137</ele>
        <time>2019-04-07T10:17:28Z</time>
      </trkpt>
      <trkpt lat="49.39814" lon="4.17171">
        <ele>137</ele>
        <time>2019-04-07T10:17:29Z</time>
      </trkpt>
      <trkpt lat="49.39819" lon="4.17174">
        <ele>137</ele>
        <time>2019-04-07T10:17:30Z</time>
      </trkpt>
      <trkpt lat="49.39824" lon="4.17178">
        <ele>138</ele>
        <time>2019-04-07T10:17:31Z</time>
      </trkpt>
      <trkpt lat="49.39828" lon="4.17182">
        <ele>138</ele>
        <time>2019-04-07T10:17:32Z</time>
      </trkpt>
      <trkpt lat="49.39833" lon="4.17186">
        <ele>137</ele>
        <time>2019-04-07T10:17:33Z</time>
      </trkpt>
      <trkpt lat="49.39838" lon="4.17189">
        <ele>138</ele>
        <time>2019-04-07T10:17:34Z</time>
      </trkpt>
      <trkpt lat="49.39842" lon="4.17193">
        <ele>138</ele>
        <time>2019-04-07T10:17:35Z</time>
      </trkpt>
      <trkpt lat="49.39847" lon="4.17196">
        <ele>137</ele>
        <time>2019-04-07T10:17:36Z</time>
      </trkpt>
      <trkpt lat="49.39852" lon="4.172">
        <ele>137</ele>
        <time>2019-04-07T10:17:37Z</time>
      </trkpt>
      <trkpt lat="49.39856" lon="4.17203">
        <ele>137</ele>
        <time>2019-04-07T10:17:38Z</time>
      </trkpt>
      <trkpt lat="49.39861" lon="4.17207">
        <ele>137</ele>
        <time>2019-04-07T10:17:39Z</time>
      </trkpt>
      <trkpt lat="49.39866" lon="4.1721">
        <ele>137</ele>
        <time>2019-04-07T10:17:40Z</time>
      </trkpt>
      <trkpt lat="49.3987" lon="4.17214">
        <ele>137</ele>
        <time>2019-04-07T10:17:41Z</time>
      </trkpt>
      <trkpt lat="49.39875" lon="4.17218">
        <ele>138</ele>
        <time>2019-04-07T10:17:42Z</time>
      </trkpt>
      <trkpt lat="49.3988" lon="4.17221">
        <ele>138</ele>
        <time>2019-04-07T10:17:43Z</time>
      </trkpt>
      <trkpt lat="49.39884" lon="4.17225">
        <ele>138</ele>
        <time>2019-04-07T10:17:44Z</time>
      </trkpt>
      <trkpt lat="49.39889" lon="4.17228">
        <ele>138</ele>
        <time>2019-04-07T10:17:45Z</time>
      </trkpt>
      <trkpt lat="49.39893" lon="4.17232">
        <ele>138</ele>
        <time>2019-04-07T10:17:46Z</time>
      </trkpt>
      <trkpt lat="49.39898" lon="4.17236">
        <ele>138</ele>
        <time>2019-04-07T10:17:47Z</time>
      </trkpt>
      <trkpt lat="49.39902" lon="4.17239">
        <ele>138</ele>
        <time>2019-04-07T10:17:48Z</time>
      </trkpt>
      <trkpt lat="49.39907" lon="4.17242">
        <ele>138</ele>
        <time>2019-04-07T10:17:49Z</time>
      </trkpt>
      <trkpt lat="49.39911" lon="4.17246">
        <ele>138</ele>
        <time>2019-04-07T10:17:50Z</time>
      </trkpt>
      <trkpt lat="49.39916" lon="4.17249">
        <ele>138</ele>
        <time>2019-04-07T10:17:51Z</time>
      </trkpt>
      <trkpt lat="49.39921" lon="4.17252">
        <ele>139</ele>
        <time>2019-04-07T10:17:52Z</time>
      </trkpt>
      <trkpt lat="49.39925" lon="4.17256">
        <ele>139</ele>
        <time>2019-04-07T10:17:53Z</time>
      </trkpt>
      <trkpt lat="49.39929" lon="4.1726">
        <ele>139</ele>
        <time>2019-04-07T10:17:54Z</time>
      </trkpt>
      <trkpt lat="49.39934" lon="4.17263">
        <ele>139</ele>
        <time>2019-04-07T10:17:55Z</time>
      </trkpt>
      <trkpt lat="49.39938" lon="4.17266">
        <ele>139</ele>
        <time>2019-04-07T10:17:56Z</time>
      </trkpt>
      <trkpt lat="49.39943" lon="4.1727">
        <ele>140</ele>
        <time>2019-04-07T10:17:57Z</time>
      </trkpt>
      <trkpt lat="49.39947" lon="4.17273">
        <ele>140</ele>
        <time>2019-04-07T10:17:58Z</time>
      </trkpt>
      <trkpt lat="49.39957" lon="4.1728">
        <ele>140</ele>
        <time>2019-04-07T10:18:00Z</time>
      </trkpt>
      <trkpt lat="49.39961" lon="4.17284">
        <ele>140</ele>
        <time>2019-04-07T10:18:01Z</time>
      </trkpt>
      <trkpt lat="49.39966" lon="4.17287">
        <ele>140</ele>
        <time>2019-04-07T10:18:02Z</time>
      </trkpt>
      <trkpt lat="49.39971" lon="4.17291">
        <ele>140</ele>
        <time>2019-04-07T10:18:03Z</time>
      </trkpt>
      <trkpt lat="49.39975" lon="4.17294">
        <ele>140</ele>
        <time>2019-04-07T10:18:04Z</time>
      </trkpt>
      <trkpt lat="49.3998" lon="4.17297">
        <ele>141</ele>
        <time>2019-04-07T10:18:05Z</time>
      </trkpt>
      <trkpt lat="49.39984" lon="4.17301">
        <ele>141</ele>
        <time>2019-04-07T10:18:06Z</time>
      </trkpt>
      <trkpt lat="49.39989" lon="4.17305">
        <ele>141</ele>
        <time>2019-04-07T10:18:07Z</time>
      </trkpt>
      <trkpt lat="49.39993" lon="4.17308">
        <ele>141</ele>
        <time>2019-04-07T10:18:08Z</time>
      </trkpt>
      <trkpt lat="49.39998" lon="4.17312">
        <ele>141</ele>
        <time>2019-04-07T10:18:09Z</time>
      </trkpt>
      <trkpt lat="49.40002" lon="4.17316">
        <ele>141</ele>
        <time>2019-04-07T10:18:10Z</time>
      </trkpt>
      <trkpt lat="49.40007" lon="4.17319">
        <ele>141</ele>
        <time>2019-04-07T10:18:11Z</time>
      </trkpt>
      <trkpt lat="49.40011" lon="4.17323">
        <ele>141</ele>
        <time>2019-04-07T10:18:12Z</time>
      </trkpt>
      <trkpt lat="49.40016" lon="4.17326">
        <ele>141</ele>
        <time>2019-04-07T10:18:13Z</time>
      </trkpt>
      <trkpt lat="49.40021" lon="4.1733">
        <ele>141</ele>
        <time>2019-04-07T10:18:14Z</time>
      </trkpt>
      <trkpt lat="49.40025" lon="4.17334">
        <ele>141</ele>
        <time>2019-04-07T10:18:15Z</time>
      </trkpt>
      <trkpt lat="49.4003" lon="4.17337">
        <ele>141</ele>
        <time>2019-04-07T10:18:16Z</time>
      </trkpt>
      <trkpt lat="49.40034" lon="4.1734">
        <ele>141</ele>
        <time>2019-04-07T10:18:17Z</time>
      </trkpt>
      <trkpt lat="49.40039" lon="4.17344">
        <ele>141</ele>
        <time>2019-04-07T10:18:18Z</time>
      </trkpt>
      <trkpt lat="49.40043" lon="4.17347">
        <ele>141</ele>
        <time>2019-04-07T10:18:19Z</time>
      </trkpt>
      <trkpt lat="49.40048" lon="4.1735">
        <ele>141</ele>
        <time>2019-04-07T10:18:20Z</time>
      </trkpt>
      <trkpt lat="49.40052" lon="4.17354">
        <ele>141</ele>
        <time>2019-04-07T10:18:21Z</time>
      </trkpt>
      <trkpt lat="49.40056" lon="4.17357">
        <ele>141</ele>
        <time>2019-04-07T10:18:22Z</time>
      </trkpt>
      <trkpt lat="49.4006" lon="4.1736">
        <ele>141</ele>
        <time>2019-04-07T10:18:23Z</time>
      </trkpt>
      <trkpt lat="49.40065" lon="4.17364">
        <ele>142</ele>
        <time>2019-04-07T10:18:24Z</time>
      </trkpt>
      <trkpt lat="49.40069" lon="4.17368">
        <ele>142</ele>
        <time>2019-04-07T10:18:25Z</time>
      </trkpt>
      <trkpt lat="49.40074" lon="4.17371">
        <ele>142</ele>
        <time>2019-04-07T10:18:26Z</time>
      </trkpt>
      <trkpt lat="49.40078" lon="4.17374">
        <ele>142</ele>
        <time>2019-04-07T10:18:27Z</time>
      </trkpt>
      <trkpt lat="49.40082" lon="4.17378">
        <ele>142</ele>
        <time>2019-04-07T10:18:28Z</time>
      </trkpt>
      <trkpt lat="49.40086" lon="4.17381">
        <ele>142</ele>
        <time>2019-04-07T10:18:29Z</time>
      </trkpt>
      <trkpt lat="49.4009" lon="4.17384">
        <ele>142</ele>
        <time>2019-04-07T10:18:30Z</time>
      </trkpt>
      <trkpt lat="49.40095" lon="4.17387">
        <ele>142</ele>
        <time>2019-04-07T10:18:31Z</time>
      </trkpt>
      <trkpt lat="49.40099" lon="4.17391">
        <ele>142</ele>
        <time>2019-04-07T10:18:32Z</time>
      </trkpt>
      <trkpt lat="49.40103" lon="4.17395">
        <ele>143</ele>
        <time>2019-04-07T10:18:33Z</time>
      </trkpt>
      <trkpt lat="49.40108" lon="4.17398">
        <ele>143</ele>
        <time>2019-04-07T10:18:34Z</time>
      </trkpt>
      <trkpt lat="49.40112" lon="4.17401">
        <ele>143</ele>
        <time>2019-04-07T10:18:35Z</time>
      </trkpt>
      <trkpt lat="49.40117" lon="4.17404">
        <ele>143</ele>
        <time>2019-04-07T10:18:36Z</time>
      </trkpt>
      <trkpt lat="49.40121" lon="4.17408">
        <ele>143</ele>
        <time>2019-04-07T10:18:37Z</time>
      </trkpt>
      <trkpt lat="49.40126" lon="4.17411">
        <ele>143</ele>
        <time>2019-04-07T10:18:38Z</time>
      </trkpt>
      <trkpt lat="49.4013" lon="4.17414">
        <ele>144</ele>
        <time>2019-04-07T10:18:39Z</time>
      </trkpt>
      <trkpt lat="49.40135" lon="4.17417">
        <ele>144</ele>
        <time>2019-04-07T10:18:40Z</time>
      </trkpt>
      <trkpt lat="49.40139" lon="4.1742">
        <ele>144</ele>
        <time>2019-04-07T10:18:41Z</time>
      </trkpt>
      <trkpt lat="49.40143" lon="4.17422">
        <ele>144</ele>
        <time>2019-04-07T10:18:42Z</time>
      </trkpt>
      <trkpt lat="49.40148" lon="4.17424">
        <ele>144</ele>
        <time>2019-04-07T10:18:43Z</time>
      </trkpt>
      <trkpt lat="49.40153" lon="4.17426">
        <ele>144</ele>
        <time>2019-04-07T10:18:44Z</time>
      </trkpt>
      <trkpt lat="49.40158" lon="4.17427">
        <ele>145</ele>
        <time>2019-04-07T10:18:45Z</time>
      </trkpt>
      <trkpt lat="49.40162" lon="4.17428">
        <ele>145</ele>
        <time>2019-04-07T10:18:46Z</time>
      </trkpt>
      <trkpt lat="49.40167" lon="4.17429">
        <ele>145</ele>
        <time>2019-04-07T10:18:47Z</time>
      </trkpt>
      <trkpt lat="49.40172" lon="4.17429">
        <ele>145</ele>
        <time>2019-04-07T10:18:48Z</time>
      </trkpt>
      <trkpt lat="49.40176" lon="4.17429">
        <ele>145</ele>
        <time>2019-04-07T10:18:49Z</time>
      </trkpt>
      <trkpt lat="49.40181" lon="4.17429">
        <ele>145</ele>
        <time>2019-04-07T10:18:50Z</time>
      </trkpt>
      <trkpt lat="49.40185" lon="4.1743">
        <ele>146</ele>
        <time>2019-04-07T10:18:51Z</time>
      </trkpt>
      <trkpt lat="49.4019" lon="4.1743">
        <ele>146</ele>
        <time>2019-04-07T10:18:52Z</time>
      </trkpt>
      <trkpt lat="49.40195" lon="4.1743">
        <ele>146</ele>
        <time>2019-04-07T10:18:53Z</time>
      </trkpt>
      <trkpt lat="49.402" lon="4.17431">
        <ele>146</ele>
        <time>2019-04-07T10:18:54Z</time>
      </trkpt>
      <trkpt lat="49.40204" lon="4.17431">
        <ele>146</ele>
        <time>2019-04-07T10:18:55Z</time>
      </trkpt>
      <trkpt lat="49.40209" lon="4.17431">
        <ele>146</ele>
        <time>2019-04-07T10:18:56Z</time>
      </trkpt>
      <trkpt lat="49.40214" lon="4.17432">
        <ele>146</ele>
        <time>2019-04-07T10:18:57Z</time>
      </trkpt>
      <trkpt lat="49.40218" lon="4.17432">
        <ele>147</ele>
        <time>2019-04-07T10:18:58Z</time>
      </trkpt>
      <trkpt lat="49.40223" lon="4.17433">
        <ele>146</ele>
        <time>2019-04-07T10:18:59Z</time>
      </trkpt>
      <trkpt lat="49.40227" lon="4.17433">
        <ele>146</ele>
        <time>2019-04-07T10:19:00Z</time>
      </trkpt>
      <trkpt lat="49.40232" lon="4.17433">
        <ele>146</ele>
        <time>2019-04-07T10:19:01Z</time>
      </trkpt>
      <trkpt lat="49.40236" lon="4.17433">
        <ele>146</ele>
        <time>2019-04-07T10:19:02Z</time>
      </trkpt>
      <trkpt lat="49.40241" lon="4.17434">
        <ele>146</ele>
        <time>2019-04-07T10:19:03Z</time>
      </trkpt>
      <trkpt lat="49.40246" lon="4.17434">
        <ele>146</ele>
        <time>2019-04-07T10:19:04Z</time>
      </trkpt>
      <trkpt lat="49.4025" lon="4.17434">
        <ele>146</ele>
        <time>2019-04-07T10:19:05Z</time>
      </trkpt>
      <trkpt lat="49.40255" lon="4.17434">
        <ele>146</ele>
        <time>2019-04-07T10:19:06Z</time>
      </trkpt>
      <trkpt lat="49.40259" lon="4.17433">
        <ele>146</ele>
        <time>2019-04-07T10:19:07Z</time>
      </trkpt>
      <trkpt lat="49.40263" lon="4.17433">
        <ele>146</ele>
        <time>2019-04-07T10:19:08Z</time>
      </trkpt>
      <trkpt lat="49.40268" lon="4.17433">
        <ele>146</ele>
        <time>2019-04-07T10:19:09Z</time>
      </trkpt>
      <trkpt lat="49.40273" lon="4.17434">
        <ele>147</ele>
        <time>2019-04-07T10:19:10Z</time>
      </trkpt>
      <trkpt lat="49.40278" lon="4.17434">
        <ele>147</ele>
        <time>2019-04-07T10:19:11Z</time>
      </trkpt>
      <trkpt lat="49.40283" lon="4.17435">
        <ele>147</ele>
        <time>2019-04-07T10:19:12Z</time>
      </trkpt>
      <trkpt lat="49.40287" lon="4.17436">
        <ele>147</ele>
        <time>2019-04-07T10:19:13Z</time>
      </trkpt>
      <trkpt lat="49.40292" lon="4.17436">
        <ele>147</ele>
        <time>2019-04-07T10:19:14Z</time>
      </trkpt>
      <trkpt lat="49.40297" lon="4.17436">
        <ele>147</ele>
        <time>2019-04-07T10:19:15Z</time>
      </trkpt>
      <trkpt lat="49.40301" lon="4.17437">
        <ele>147</ele>
        <time>2019-04-07T10:19:16Z</time>
      </trkpt>
      <trkpt lat="49.40306" lon="4.17438">
        <ele>147</ele>
        <time>2019-04-07T10:19:17Z</time>
      </trkpt>
      <trkpt lat="49.4031" lon="4.17438">
        <ele>147</ele>
        <time>2019-04-07T10:19:18Z</time>
      </trkpt>
      <trkpt lat="49.40315" lon="4.17438">
        <ele>147</ele>
        <time>2019-04-07T10:19:19Z</time>
      </trkpt>
      <trkpt lat="49.40319" lon="4.17438">
        <ele>147</ele>
        <time>2019-04-07T10:19:20Z</time>
      </trkpt>
      <trkpt lat="49.40324" lon="4.17439">
        <ele>147</ele>
        <time>2019-04-07T10:19:21Z</time>
      </trkpt>
      <trkpt lat="49.40329" lon="4.17439">
        <ele>146</ele>
        <time>2019-04-07T10:19:22Z</time>
      </trkpt>
      <trkpt lat="49.40334" lon="4.17439">
        <ele>146</ele>
        <time>2019-04-07T10:19:23Z</time>
      </trkpt>
      <trkpt lat="49.40339" lon="4.1744">
        <ele>146</ele>
        <time>2019-04-07T10:19:24Z</time>
      </trkpt>
      <trkpt lat="49.40344" lon="4.1744">
        <ele>146</ele>
        <time>2019-04-07T10:19:25Z</time>
      </trkpt>
      <trkpt lat="49.4035" lon="4.1744">
        <ele>146</ele>
        <time>2019-04-07T10:19:26Z</time>
      </trkpt>
      <trkpt lat="49.40356" lon="4.17441">
        <ele>146</ele>
        <time>2019-04-07T10:19:27Z</time>
      </trkpt>
      <trkpt lat="49.40362" lon="4.17441">
        <ele>146</ele>
        <time>2019-04-07T10:19:28Z</time>
      </trkpt>
      <trkpt lat="49.40368" lon="4.17442">
        <ele>146</ele>
        <time>2019-04-07T10:19:29Z</time>
      </trkpt>
      <trkpt lat="49.40374" lon="4.17442">
        <ele>146</ele>
        <time>2019-04-07T10:19:30Z</time>
      </trkpt>
      <trkpt lat="49.40381" lon="4.17442">
        <ele>146</ele>
        <time>2019-04-07T10:19:31Z</time>
      </trkpt>
      <trkpt lat="49.40388" lon="4.17443">
        <ele>146</ele>
        <time>2019-04-07T10:19:32Z</time>
      </trkpt>
      <trkpt lat="49.40395" lon="4.17443">
        <ele>146</ele>
        <time>2019-04-07T10:19:33Z</time>
      </trkpt>
      <trkpt lat="49.40402" lon="4.17443">
        <ele>145</ele>
        <time>2019-04-07T10:19:34Z</time>
      </trkpt>
      <trkpt lat="49.40409" lon="4.17444">
        <ele>145</ele>
        <time>2019-04-07T10:19:35Z</time>
      </trkpt>
      <trkpt lat="49.40417" lon="4.17445">
        <ele>145</ele>
        <time>2019-04-07T10:19:36Z</time>
      </trkpt>
      <trkpt lat="49.40425" lon="4.17445">
        <ele>145</ele>
        <time>2019-04-07T10:19:37Z</time>
      </trkpt>
      <trkpt lat="49.40433" lon="4.17445">
        <ele>145</ele>
        <time>2019-04-07T10:19:38Z</time>
      </trkpt>
      <trkpt lat="49.40441" lon="4.17446">
        <ele>144</ele>
        <time>2019-04-07T10:19:39Z</time>
      </trkpt>
      <trkpt lat="49.4045" lon="4.17446">
        <ele>144</ele>
        <time>2019-04-07T10:19:40Z</time>
      </trkpt>
      <trkpt lat="49.40459" lon="4.17446">
        <ele>144</ele>
        <time>2019-04-07T10:19:41Z</time>
      </trkpt>
      <trkpt lat="49.40469" lon="4.17447">
        <ele>143</ele>
        <time>2019-04-07T10:19:42Z</time>
      </trkpt>
      <trkpt lat="49.40478" lon="4.17448">
        <ele>143</ele>
        <time>2019-04-07T10:19:43Z</time>
      </trkpt>
      <trkpt lat="49.40488" lon="4.17449">
        <ele>142</ele>
        <time>2019-04-07T10:19:44Z</time>
      </trkpt>
      <trkpt lat="49.40497" lon="4.17449">
        <ele>142</ele>
        <time>2019-04-07T10:19:45Z</time>
      </trkpt>
      <trkpt lat="49.40507" lon="4.1745">
        <ele>142</ele>
        <time>2019-04-07T10:19:46Z</time>
      </trkpt>
      <trkpt lat="49.40517" lon="4.1745">
        <ele>141</ele>
        <time>2019-04-07T10:19:47Z</time>
      </trkpt>
      <trkpt lat="49.40527" lon="4.17451">
        <ele>141</ele>
        <time>2019-04-07T10:19:48Z</time>
      </trkpt>
      <trkpt lat="49.40537" lon="4.17452">
        <ele>140</ele>
        <time>2019-04-07T10:19:49Z</time>
      </trkpt>
      <trkpt lat="49.40548" lon="4.17453">
        <ele>140</ele>
        <time>2019-04-07T10:19:50Z</time>
      </trkpt>
      <trkpt lat="49.40559" lon="4.17453">
        <ele>139</ele>
        <time>2019-04-07T10:19:51Z</time>
      </trkpt>
      <trkpt lat="49.4057" lon="4.17453">
        <ele>139</ele>
        <time>2019-04-07T10:19:52Z</time>
      </trkpt>
      <trkpt lat="49.40581" lon="4.17452">
        <ele>138</ele>
        <time>2019-04-07T10:19:53Z</time>
      </trkpt>
      <trkpt lat="49.40592" lon="4.17452">
        <ele>138</ele>
        <time>2019-04-07T10:19:54Z</time>
      </trkpt>
      <trkpt lat="49.40603" lon="4.17451">
        <ele>137</ele>
        <time>2019-04-07T10:19:55Z</time>
      </trkpt>
      <trkpt lat="49.40615" lon="4.1745">
        <ele>137</ele>
        <time>2019-04-07T10:19:56Z</time>
      </trkpt>
      <trkpt lat="49.40626" lon="4.17449">
        <ele>136</ele>
        <time>2019-04-07T10:19:57Z</time>
      </trkpt>
      <trkpt lat="49.40638" lon="4.17448">
        <ele>136</ele>
        <time>2019-04-07T10:19:58Z</time>
      </trkpt>
      <trkpt lat="49.40661" lon="4.17447">
        <ele>135</ele>
        <time>2019-04-07T10:20:00Z</time>
      </trkpt>
      <trkpt lat="49.40672" lon="4.17446">
        <ele>134</ele>
        <time>2019-04-07T10:20:01Z</time>
      </trkpt>
      <trkpt lat="49.40683" lon="4.17445">
        <ele>134</ele>
        <time>2019-04-07T10:20:02Z</time>
      </trkpt>
      <trkpt lat="49.40694" lon="4.17445">
        <ele>134</ele>
        <time>2019-04-07T10:20:03Z</time>
      </trkpt>
      <trkpt lat="49.40705" lon="4.17444">
        <ele>134</ele>
        <time>2019-04-07T10:20:04Z</time>
      </trkpt>
      <trkpt lat="49.40716" lon="4.17444">
        <ele>134</ele>
        <time>2019-04-07T10:20:05Z</time>
      </trkpt>
      <trkpt lat="49.40726" lon="4.17444">
        <ele>134</ele>
        <time>2019-04-07T10:20:06Z</time>
      </trkpt>
      <trkpt lat="49.40736" lon="4.17444">
        <ele>134</ele>
        <time>2019-04-07T10:20:07Z</time>
      </trkpt>
      <trkpt lat="49.40746" lon="4.17444">
        <ele>134</ele>
        <time>2019-04-07T10:20:08Z</time>
      </trkpt>
      <trkpt lat="49.40756" lon="4.17445">
        <ele>134</ele>
        <time>2019-04-07T10:20:09Z</time>
      </trkpt>
      <trkpt lat="49.40765" lon="4.17445">
        <ele>134</ele>
        <time>2019-04-07T10:20:10Z</time>
      </trkpt>
      <trkpt lat="49.40774" lon="4.17445">
        <ele>134</ele>
        <time>2019-04-07T10:20:11Z</time>
      </trkpt>
      <trkpt lat="49.40783" lon="4.17446">
        <ele>134</ele>
        <time>2019-04-07T10:20:12Z</time>
      </trkpt>
      <trkpt lat="49.40791" lon="4.17447">
        <ele>134</ele>
        <time>2019-04-07T10:20:13Z</time>
      </trkpt>
      <trkpt lat="49.408" lon="4.17448">
        <ele>134</ele>
        <time>2019-04-07T10:20:14Z</time>
      </trkpt>
      <trkpt lat="49.40808" lon="4.17448">
        <ele>134</ele>
        <time>2019-04-07T10:20:15Z</time>
      </trkpt>
      <trkpt lat="49.40816" lon="4.17449">
        <ele>134</ele>
        <time>2019-04-07T10:20:16Z</time>
      </trkpt>
      <trkpt lat="49.40824" lon="4.17449">
        <ele>134</ele>
        <time>2019-04-07T10:20:17Z</time>
      </trkpt>
      <trkpt lat="49.40831" lon="4.1745">
        <ele>134</ele>
        <time>2019-04-07T10:20:18Z</time>
      </trkpt>
      <trkpt lat="49.40839" lon="4.17451">
        <ele>135</ele>
        <time>2019-04-07T10:20:19Z</time>
      </trkpt>
      <trkpt lat="49.40846" lon="4.17451">
        <ele>134</ele>
        <time>2019-04-07T10:20:20Z</time>
      </trkpt>
      <trkpt lat="49.40853" lon="4.17452">
        <ele>134</ele>
        <time>2019-04-07T10:20:21Z</time>
      </trkpt>
      <trkpt lat="49.4086" lon="4.17452">
        <ele>134</ele>
        <time>2019-04-07T10:20:22Z</time>
      </trkpt>
      <trkpt lat="49.40866" lon="4.17453">
        <ele>134</ele>
        <time>2019-04-07T10:20:23Z</time>
      </trkpt>
      <trkpt lat="49.40873" lon="4.17454">
        <ele>134</ele>
        <time>2019-04-07T10:20:24Z</time>
      </trkpt>
      <trkpt lat="49.40879" lon="4.17454">
        <ele>134</ele>
        <time>2019-04-07T10:20:25Z</time>
      </trkpt>
      <trkpt lat="49.40886" lon="4.17454">
        <ele>134</ele>
        <time>2019-04-07T10:20:26Z</time>
      </trkpt>
      <trkpt lat="49.40892" lon="4.17455">
        <ele>134</ele>
        <time>2019-04-07T10:20:27Z</time>
      </trkpt>
      <trkpt lat="49.40898" lon="4.17455">
        <ele>134</ele>
        <time>2019-04-07T10:20:28Z</time>
      </trkpt>
      <trkpt lat="49.40904" lon="4.17456">
        <ele>134</ele>
        <time>2019-04-07T10:20:29Z</time>
      </trkpt>
      <trkpt lat="49.40911" lon="4.17455">
        <ele>134</ele>
        <time>2019-04-07T10:20:30Z</time>
      </trkpt>
      <trkpt lat="49.40917" lon="4.17456">
        <ele>134</ele>
        <time>2019-04-07T10:20:31Z</time>
      </trkpt>
      <trkpt lat="49.40923" lon="4.17457">
        <ele>134</ele>
        <time>2019-04-07T10:20:32Z</time>
      </trkpt>
      <trkpt lat="49.40929" lon="4.17457">
        <ele>134</ele>
        <time>2019-04-07T10:20:33Z</time>
      </trkpt>
      <trkpt lat="49.40935" lon="4.17458">
        <ele>134</ele>
        <time>2019-04-07T10:20:34Z</time>
      </trkpt>
      <trkpt lat="49.40941" lon="4.17458">
        <ele>134</ele>
        <time>2019-04-07T10:20:35Z</time>
      </trkpt>
      <trkpt lat="49.40947" lon="4.17459">
        <ele>135</ele>
        <time>2019-04-07T10:20:36Z</time>
      </trkpt>
      <trkpt lat="49.40954" lon="4.17459">
        <ele>135</ele>
        <time>2019-04-07T10:20:37Z</time>
      </trkpt>
      <trkpt lat="49.4096" lon="4.1746">
        <ele>135</ele>
        <time>2019-04-07T10:20:38Z</time>
      </trkpt>
      <trkpt lat="49.40966" lon="4.17461">
        <ele>135</ele>
        <time>2019-04-07T10:20:39Z</time>
      </trkpt>
      <trkpt lat="49.40972" lon="4.17461">
        <ele>135</ele>
        <time>2019-04-07T10:20:40Z</time>
      </trkpt>
      <trkpt lat="49.40979" lon="4.17461">
        <ele>134</ele>
        <time>2019-04-07T10:20:41Z</time>
      </trkpt>
      <trkpt lat="49.40985" lon="4.17462">
        <ele>134</ele>
        <time>2019-04-07T10:20:42Z</time>
      </trkpt>
      <trkpt lat="49.40992" lon="4.17462">
        <ele>134</ele>
        <time>2019-04-07T10:20:43Z</time>
      </trkpt>
      <trkpt lat="49.40998" lon="4.17462">
        <ele>134</ele>
        <time>2019-04-07T10:20:44Z</time>
      </trkpt>
      <trkpt lat="49.41005" lon="4.17464">
        <ele>134</ele>
        <time>2019-04-07T10:20:45Z</time>
      </trkpt>
      <trkpt lat="49.41011" lon="4.17464">
        <ele>134</ele>
        <time>2019-04-07T10:20:46Z</time>
      </trkpt>
      <trkpt lat="49.41018" lon="4.17465">
        <ele>134</ele>
        <time>2019-04-07T10:20:47Z</time>
      </trkpt>
      <trkpt lat="49.41025" lon="4.17465">
        <ele>134</ele>
        <time>2019-04-07T10:20:48Z</time>
      </trkpt>
      <trkpt lat="49.41032" lon="4.17465">
        <ele>134</ele>
        <time>2019-04-07T10:20:49Z</time>
      </trkpt>
      <trkpt lat="49.4104" lon="4.17466">
        <ele>134</ele>
        <time>2019-04-07T10:20:50Z</time>
      </trkpt>
      <trkpt lat="49.41047" lon="4.17466">
        <ele>134</ele>
        <time>2019-04-07T10:20:51Z</time>
      </trkpt>
      <trkpt lat="49.41054" lon="4.17467">
        <ele>134</ele>
        <time>2019-04-07T10:20:52Z</time>
      </trkpt>
      <trkpt lat="49.41062" lon="4.17467">
        <ele>134</ele>
        <time>2019-04-07T10:20:53Z</time>
      </trkpt>
      <trkpt lat="49.4107" lon="4.17468">
        <ele>134</ele>
        <time>2019-04-07T10:20:54Z</time>
      </trkpt>
      <trkpt lat="49.41078" lon="4.17468">
        <ele>133</ele>
        <time>2019-04-07T10:20:55Z</time>
      </trkpt>
      <trkpt lat="49.41086" lon="4.17469">
        <ele>133</ele>
        <time>2019-04-07T10:20:56Z</time>
      </trkpt>
      <trkpt lat="49.41094" lon="4.17469">
        <ele>133</ele>
        <time>2019-04-07T10:20:57Z</time>
      </trkpt>
      <trkpt lat="49.41102" lon="4.1747">
        <ele>133</ele>
        <time>2019-04-07T10:20:58Z</time>
      </trkpt>
      <trkpt lat="49.41111" lon="4.1747">
        <ele>133</ele>
        <time>2019-04-07T10:20:59Z</time>
      </trkpt>
      <trkpt lat="49.4112" lon="4.17471">
        <ele>132</ele>
        <time>2019-04-07T10:21:00Z</time>
      </trkpt>
      <trkpt lat="49.41128" lon="4.17472">
        <ele>132</ele>
        <time>2019-04-07T10:21:01Z</time>
      </trkpt>
      <trkpt lat="49.41137" lon="4.17472">
        <ele>132</ele>
        <time>2019-04-07T10:21:02Z</time>
      </trkpt>
      <trkpt lat="49.41146" lon="4.17473">
        <ele>131</ele>
        <time>2019-04-07T10:21:03Z</time>
      </trkpt>
      <trkpt lat="49.41155" lon="4.17473">
        <ele>131</ele>
        <time>2019-04-07T10:21:04Z</time>
      </trkpt>
      <trkpt lat="49.41164" lon="4.17473">
        <ele>131</ele>
        <time>2019-04-07T10:21:05Z</time>
      </trkpt>
      <trkpt lat="49.41173" lon="4.17474">
        <ele>131</ele>
        <time>2019-04-07T10:21:06Z</time>
      </trkpt>
      <trkpt lat="49.41182" lon="4.17475">
        <ele>131</ele>
        <time>2019-04-07T10:21:07Z</time>
      </trkpt>
      <trkpt lat="49.41191" lon="4.17476">
        <ele>130</ele>
        <time>2019-04-07T10:21:08Z</time>
      </trkpt>
      <trkpt lat="49.412" lon="4.17478">
        <ele>130</ele>
        <time>2019-04-07T10:21:09Z</time>
      </trkpt>
      <trkpt lat="49.41209" lon="4.17479">
        <ele>129</ele>
        <time>2019-04-07T10:21:10Z</time>
      </trkpt>
      <trkpt lat="49.41218" lon="4.1748">
        <ele>129</ele>
        <time>2019-04-07T10:21:11Z</time>
      </trkpt>
      <trkpt lat="49.41227" lon="4.17481">
        <ele>129</ele>
        <time>2019-04-07T10:21:12Z</time>
      </trkpt>
      <trkpt lat="49.41236" lon="4.17481">
        <ele>128</ele>
        <time>2019-04-07T10:21:13Z</time>
      </trkpt>
      <trkpt lat="49.41245" lon="4.17482">
        <ele>128</ele>
        <time>2019-04-07T10:21:14Z</time>
      </trkpt>
      <trkpt lat="49.41254" lon="4.17482">
        <ele>128</ele>
        <time>2019-04-07T10:21:15Z</time>
      </trkpt>
      <trkpt lat="49.41263" lon="4.17484">
        <ele>127</ele>
        <time>2019-04-07T10:21:16Z</time>
      </trkpt>
      <trkpt lat="49.41272" lon="4.17484">
        <ele>127</ele>
        <time>2019-04-07T10:21:17Z</time>
      </trkpt>
      <trkpt lat="49.4128" lon="4.17485">
        <ele>127</ele>
        <time>2019-04-07T10:21:18Z</time>
      </trkpt>
      <trkpt lat="49.41289" lon="4.17486">
        <ele>126</ele>
        <time>2019-04-07T10:21:19Z</time>
      </trkpt>
      <trkpt lat="49.41298" lon="4.17486">
        <ele>126</ele>
        <time>2019-04-07T10:21:20Z</time>
      </trkpt>
      <trkpt lat="49.41306" lon="4.17487">
        <ele>125</ele>
        <time>2019-04-07T10:21:21Z</time>
      </trkpt>
      <trkpt lat="49.41323" lon="4.17488">
        <ele>125</ele>
        <time>2019-04-07T10:21:23Z</time>
      </trkpt>
      <trkpt lat="49.41331" lon="4.17488">
        <ele>125</ele>
        <time>2019-04-07T10:21:24Z</time>
      </trkpt>
      <trkpt lat="49.4134" lon="4.17488">
        <ele>125</ele>
        <time>2019-04-07T10:21:25Z</time>
      </trkpt>
      <trkpt lat="49.41348" lon="4.17489">
        <ele>125</ele>
        <time>2019-04-07T10:21:26Z</time>
      </trkpt>
      <trkpt lat="49.41356" lon="4.1749">
        <ele>125</ele>
        <time>2019-04-07T10:21:27Z</time>
      </trkpt>
      <trkpt lat="49.41365" lon="4.1749">
        <ele>125</ele>
        <time>2019-04-07T10:21:28Z</time>
      </trkpt>
      <trkpt lat="49.41373" lon="4.1749">
        <ele>125</ele>
        <time>2019-04-07T10:21:29Z</time>
      </trkpt>
      <trkpt lat="49.41382" lon="4.17491">
        <ele>125</ele>
        <time>2019-04-07T10:21:30Z</time>
      </trkpt>
      <trkpt lat="49.4139" lon="4.17491">
        <ele>125</ele>
        <time>2019-04-07T10:21:31Z</time>
      </trkpt>
      <trkpt lat="49.41399" lon="4.17492">
        <ele>125</ele>
        <time>2019-04-07T10:21:32Z</time>
      </trkpt>
      <trkpt lat="49.41407" lon="4.17493">
        <ele>125</ele>
        <time>2019-04-07T10:21:33Z</time>
      </trkpt>
      <trkpt lat="49.41415" lon="4.17493">
        <ele>125</ele>
        <time>2019-04-07T10:21:34Z</time>
      </trkpt>
      <trkpt lat="49.41423" lon="4.17494">
        <ele>125</ele>
        <time>2019-04-07T10:21:35Z</time>
      </trkpt>
      <trkpt lat="49.41431" lon="4.17494">
        <ele>124</ele>
        <time>2019-04-07T10:21:36Z</time>
      </trkpt>
      <trkpt lat="49.41438" lon="4.17495">
        <ele>124</ele>
        <time>2019-04-07T10:21:37Z</time>
      </trkpt>
      <trkpt lat="49.41446" lon="4.17495">
        <ele>124</ele>
        <time>2019-04-07T10:21:38Z</time>
      </trkpt>
      <trkpt lat="49.41453" lon="4.17496">
        <ele>124</ele>
        <time>2019-04-07T10:21:39Z</time>
      </trkpt>
      <trkpt lat="49.41461" lon="4.17497">
        <ele>124</ele>
        <time>2019-04-07T10:21:40Z</time>
      </trkpt>
      <trkpt lat="49.41468" lon="4.17498">
        <ele>124</ele>
        <time>2019-04-07T10:21:41Z</time>
      </trkpt>
      <trkpt lat="49.41475" lon="4.17499">
        <ele>124</ele>
        <time>2019-04-07T10:21:42Z</time>
      </trkpt>
      <trkpt lat="49.41482" lon="4.175">
        <ele>123</ele>
        <time>2019-04-07T10:21:43Z</time>
      </trkpt>
      <trkpt lat="49.41489" lon="4.17501">
        <ele>123</ele>
        <time>2019-04-07T10:21:44Z</time>
      </trkpt>
      <trkpt lat="49.41495" lon="4.17502">
        <ele>123</ele>
        <time>2019-04-07T10:21:45Z</time>
      </trkpt>
      <trkpt lat="49.41502" lon="4.17503">
        <ele>123</ele>
        <time>2019-04-07T10:21:46Z</time>
      </trkpt>
      <trkpt lat="49.41508" lon="4.17506">
        <ele>123</ele>
        <time>2019-04-07T10:21:47Z</time>
      </trkpt>
      <trkpt lat="49.41514" lon="4.17508">
        <ele>123</ele>
        <time>2019-04-07T10:21:48Z</time>
      </trkpt>
      <trkpt lat="49.41521" lon="4.1751">
        <ele>123</ele>
        <time>2019-04-07T10:21:49Z</time>
      </trkpt>
      <trkpt lat="49.41527" lon="4.17512">
        <ele>123</ele>
        <time>2019-04-07T10:21:50Z</time>
      </trkpt>
      <trkpt lat="49.41533" lon="4.17515">
        <ele>123</ele>
        <time>2019-04-07T10:21:51Z</time>
      </trkpt>
      <trkpt lat="49.41539" lon="4.17517">
        <ele>123</ele>
        <time>2019-04-07T10:21:52Z</time>
      </trkpt>
      <trkpt lat="49.41544" lon="4.1752">
        <ele>123</ele>
        <time>2019-04-07T10:21:53Z</time>
      </trkpt>
      <trkpt lat="49.4155" lon="4.17522">
        <ele>123</ele>
        <time>2019-04-07T10:21:54Z</time>
      </trkpt>
      <trkpt lat="49.41555" lon="4.17524">
        <ele>123</ele>
        <time>2019-04-07T10:21:55Z</time>
      </trkpt>
      <trkpt lat="49.4156" lon="4.17526">
        <ele>123</ele>
        <time>2019-04-07T10:21:56Z</time>
      </trkpt>
      <trkpt lat="49.41565" lon="4.17528">
        <ele>123</ele>
        <time>2019-04-07T10:21:57Z</time>
      </trkpt>
      <trkpt lat="49.4157" lon="4.17531">
        <ele>124</ele>
        <time>2019-04-07T10:21:58Z</time>
      </trkpt>
      <trkpt lat="49.41574" lon="4.17532">
        <ele>124</ele>
        <time>2019-04-07T10:21:59Z</time>
      </trkpt>
      <trkpt lat="49.41578" lon="4.17534">
        <ele>124</ele>
        <time>2019-04-07T10:22:00Z</time>
      </trkpt>
      <trkpt lat="49.41583" lon="4.17536">
        <ele>124</ele>
        <time>2019-04-07T10:22:01Z</time>
      </trkpt>
      <trkpt lat="49.41587" lon="4.17538">
        <ele>124</ele>
        <time>2019-04-07T10:22:02Z</time>
      </trkpt>
      <trkpt lat="49.41591" lon="4.17539">
        <ele>124</ele>
        <time>2019-04-07T10:22:03Z</time>
      </trkpt>
      <trkpt lat="49.41595" lon="4.17541">
        <ele>124</ele>
        <time>2019-04-07T10:22:04Z</time>
      </trkpt>
      <trkpt lat="49.41599" lon="4.17543">
        <ele>124</ele>
        <time>2019-04-07T10:22:05Z</time>
      </trkpt>
      <trkpt lat="49.41603" lon="4.17545">
        <ele>124</ele>
        <time>2019-04-07T10:22:06Z</time>
      </trkpt>
      <trkpt lat="49.41607" lon="4.17546">
        <ele>124</ele>
        <time>2019-04-07T10:22:07Z</time>
      </trkpt>
      <trkpt lat="49.41611" lon="4.17548">
        <ele>125</ele>
        <time>2019-04-07T10:22:08Z</time>
      </trkpt>
      <trkpt lat="49.41615" lon="4.17549">
        <ele>124</ele>
        <time>2019-04-07T10:22:09Z</time>
      </trkpt>
      <trkpt lat="49.41619" lon="4.17551">
        <ele>125</ele>
        <time>2019-04-07T10:22:10Z</time>
      </trkpt>
      <trkpt lat="49.41623" lon="4.17553">
        <ele>125</ele>
        <time>2019-04-07T10:22:11Z</time>
      </trkpt>
      <trkpt lat="49.41627" lon="4.17555">
        <ele>125</ele>
        <time>2019-04-07T10:22:12Z</time>
      </trkpt>
      <trkpt lat="49.41631" lon="4.17557">
        <ele>125</ele>
        <time>2019-04-07T10:22:13Z</time>
      </trkpt>
      <trkpt lat="49.41635" lon="4.17558">
        <ele>125</ele>
        <time>2019-04-07T10:22:14Z</time>
      </trkpt>
      <trkpt lat="49.41639" lon="4.1756">
        <ele>125</ele>
        <time>2019-04-07T10:22:15Z</time>
      </trkpt>
      <trkpt lat="49.41643" lon="4.17562">
        <ele>125</ele>
        <time>2019-04-07T10:22:16Z</time>
      </trkpt>
      <trkpt lat="49.41647" lon="4.17564">
        <ele>125</ele>
        <time>2019-04-07T10:22:17Z</time>
      </trkpt>
      <trkpt lat="49.41651" lon="4.17566">
        <ele>126</ele>
        <time>2019-04-07T10:22:18Z</time>
      </trkpt>
      <trkpt lat="49.41655" lon="4.17567">
        <ele>126</ele>
        <time>2019-04-07T10:22:19Z</time>
      </trkpt>
      <trkpt lat="49.4166" lon="4.17569">
        <ele>126</ele>
        <time>2019-04-07T10:22:20Z</time>
      </trkpt>
      <trkpt lat="49.41664" lon="4.1757">
        <ele>126</ele>
        <time>2019-04-07T10:22:21Z</time>
      </trkpt>
      <trkpt lat="49.41668" lon="4.17572">
        <ele>126</ele>
        <time>2019-04-07T10:22:22Z</time>
      </trkpt>
      <trkpt lat="49.41672" lon="4.17574">
        <ele>126</ele>
        <time>2019-04-07T10:22:23Z</time>
      </trkpt>
      <trkpt lat="49.41677" lon="4.17575">
        <ele>126</ele>
        <time>2019-04-07T10:22:24Z</time>
      </trkpt>
      <trkpt lat="49.41681" lon="4.17577">
        <ele>126</ele>
        <time>2019-04-07T10:22:25Z</time>
      </trkpt>
      <trkpt lat="49.41685" lon="4.17579">
        <ele>126</ele>
        <time>2019-04-07T10:22:26Z</time>
      </trkpt>
      <trkpt lat="49.41689" lon="4.17581">
        <ele>127</ele>
        <time>2019-04-07T10:22:27Z</time>
      </trkpt>
      <trkpt lat="49.41694" lon="4.17582">
        <ele>127</ele>
        <time>2019-04-07T10:22:28Z</time>
      </trkpt>
      <trkpt lat="49.41698" lon="4.17584">
        <ele>127</ele>
        <time>2019-04-07T10:22:29Z</time>
      </trkpt>
      <trkpt lat="49.41702" lon="4.17586">
        <ele>127</ele>
        <time>2019-04-07T10:22:30Z</time>
      </trkpt>
      <trkpt lat="49.41707" lon="4.17588">
        <ele>127</ele>
        <time>2019-04-07T10:22:31Z</time>
      </trkpt>
      <trkpt lat="49.41712" lon="4.1759">
        <ele>127</ele>
        <time>2019-04-07T10:22:32Z</time>
      </trkpt>
      <trkpt lat="49.41716" lon="4.17592">
        <ele>127</ele>
        <time>2019-04-07T10:22:33Z</time>
      </trkpt>
      <trkpt lat="49.41721" lon="4.17594">
        <ele>127</ele>
        <time>2019-04-07T10:22:34Z</time>
      </trkpt>
      <trkpt lat="49.41726" lon="4.17596">
        <ele>127</ele>
        <time>2019-04-07T10:22:35Z</time>
      </trkpt>
      <trkpt lat="49.41731" lon="4.17598">
        <ele>127</ele>
        <time>2019-04-07T10:22:36Z</time>
      </trkpt>
      <trkpt lat="49.41736" lon="4.17601">
        <ele>127</ele>
        <time>2019-04-07T10:22:37Z</time>
      </trkpt>
      <trkpt lat="49.41742" lon="4.17603">
        <ele>127</ele>
        <time>2019-04-07T10:22:38Z</time>
      </trkpt>
      <trkpt lat="49.41747" lon="4.17605">
        <ele>127</ele>
        <time>2019-04-07T10:22:39Z</time>
      </trkpt>
      <trkpt lat="49.41752" lon="4.17607">
        <ele>127</ele>
        <time>2019-04-07T10:22:40Z</time>
      </trkpt>
      <trkpt lat="49.41758" lon="4.17609">
        <ele>126</ele>
        <time>2019-04-07T10:22:41Z</time>
      </trkpt>
      <trkpt lat="49.41763" lon="4.17611">
        <ele>126</ele>
        <time>2019-04-07T10:22:42Z</time>
      </trkpt>
      <trkpt lat="49.41769" lon="4.17613">
        <ele>126</ele>
        <time>2019-04-07T10:22:43Z</time>
      </trkpt>
      <trkpt lat="49.41775" lon="4.17615">
        <ele>126</ele>
        <time>2019-04-07T10:22:44Z</time>
      </trkpt>
      <trkpt lat="49.41781" lon="4.17618">
        <ele>126</ele>
        <time>2019-04-07T10:22:45Z</time>
      </trkpt>
      <trkpt lat="49.41787" lon="4.1762">
        <ele>126</ele>
        <time>2019-04-07T10:22:46Z</time>
      </trkpt>
      <trkpt lat="49.41794" lon="4.17621">
        <ele>126</ele>
        <time>2019-04-07T10:22:47Z</time>
      </trkpt>
      <trkpt lat="49.418" lon="4.17622">
        <ele>126</ele>
        <time>2019-04-07T10:22:48Z</time>
      </trkpt>
      <trkpt lat="49.41806" lon="4.17624">
        <ele>126</ele>
        <time>2019-04-07T10:22:49Z</time>
      </trkpt>
      <trkpt lat="49.41812" lon="4.17626">
        <ele>126</ele>
        <time>2019-04-07T10:22:50Z</time>
      </trkpt>
      <trkpt lat="49.41819" lon="4.17628">
        <ele>126</ele>
        <time>2019-04-07T10:22:51Z</time>
      </trkpt>
      <trkpt lat="49.41826" lon="4.1763">
        <ele>125</ele>
        <time>2019-04-07T10:22:52Z</time>
      </trkpt>
      <trkpt lat="49.41833" lon="4.17632">
        <ele>125</ele>
        <time>2019-04-07T10:22:53Z</time>
      </trkpt>
      <trkpt lat="49.4184" lon="4.17634">
        <ele>125</ele>
        <time>2019-04-07T10:22:54Z</time>
      </trkpt>
      <trkpt lat="49.41847" lon="4.17635">
        <ele>125</ele>
        <time>2019-04-07T10:22:55Z</time>
      </trkpt>
      <trkpt lat="49.41854" lon="4.17637">
        <ele>125</ele>
        <time>2019-04-07T10:22:56Z</time>
      </trkpt>
      <trkpt lat="49.41861" lon="4.17639">
        <ele>125</ele>
        <time>2019-04-07T10:22:57Z</time>
      </trkpt>
      <trkpt lat="49.41869" lon="4.17641">
        <ele>124</ele>
        <time>2019-04-07T10:22:58Z</time>
      </trkpt>
      <trkpt lat="49.41878" lon="4.17643">
        <ele>124</ele>
        <time>2019-04-07T10:22:59Z</time>
      </trkpt>
      <trkpt lat="49.41886" lon="4.17646">
        <ele>124</ele>
        <time>2019-04-07T10:23:00Z</time>
      </trkpt>
      <trkpt lat="49.41895" lon="4.17648">
        <ele>123</ele>
        <time>2019-04-07T10:23:01Z</time>
      </trkpt>
      <trkpt lat="49.41905" lon="4.1765">
        <ele>123</ele>
        <time>2019-04-07T10:23:02Z</time>
      </trkpt>
      <trkpt lat="49.41915" lon="4.17652">
        <ele>123</ele>
        <time>2019-04-07T10:23:03Z</time>
      </trkpt>
      <trkpt lat="49.41925" lon="4.17654">
        <ele>122</ele>
        <time>2019-04-07T10:23:04Z</time>
      </trkpt>
      <trkpt lat="49.41935" lon="4.17657">
        <ele>122</ele>
        <time>2019-04-07T10:23:05Z</time>
      </trkpt>
      <trkpt lat="49.41945" lon="4.1766">
        <ele>121</ele>
        <time>2019-04-07T10:23:06Z</time>
      </trkpt>
      <trkpt lat="49.41955" lon="4.17662">
        <ele>121</ele>
        <time>2019-04-07T10:23:07Z</time>
      </trkpt>
      <trkpt lat="49.41966" lon="4.17665">
        <ele>121</ele>
        <time>2019-04-07T10:23:08Z</time>
      </trkpt>
      <trkpt lat="49.41976" lon="4.17668">
        <ele>120</ele>
        <time>2019-04-07T10:23:09Z</time>
      </trkpt>
      <trkpt lat="49.41988" lon="4.17671">
        <ele>119</ele>
        <time>2019-04-07T10:23:10Z</time>
      </trkpt>
      <trkpt lat="49.41999" lon="4.17674">
        <ele>119</ele>
        <time>2019-04-07T10:23:11Z</time>
      </trkpt>
      <trkpt lat="49.42011" lon="4.17677">
        <ele>118</ele>
        <time>2019-04-07T10:23:12Z</time>
      </trkpt>
      <trkpt lat="49.42023" lon="4.17679">
        <ele>117</ele>
        <time>2019-04-07T10:23:13Z</time>
      </trkpt>
      <trkpt lat="49.42035" lon="4.17681">
        <ele>116</ele>
        <time>2019-04-07T10:23:14Z</time>
      </trkpt>
      <trkpt lat="49.42047" lon="4.17681">
        <ele>115</ele>
        <time>2019-04-07T10:23:15Z</time>
      </trkpt>
      <trkpt lat="49.42059" lon="4.17681">
        <ele>115</ele>
        <time>2019-04-07T10:23:16Z</time>
      </trkpt>
      <trkpt lat="49.42071" lon="4.17678">
        <ele>114</ele>
        <time>2019-04-07T10:23:17Z</time>
      </trkpt>
      <trkpt lat="49.42083" lon="4.17674">
        <ele>114</ele>
        <time>2019-04-07T10:23:18Z</time>
      </trkpt>
      <trkpt lat="49.42094" lon="4.17669">
        <ele>114</ele>
        <time>2019-04-07T10:23:19Z</time>
      </trkpt>
      <trkpt lat="49.42105" lon="4.17663">
        <ele>115</ele>
        <time>2019-04-07T10:23:20Z</time>
      </trkpt>
      <trkpt lat="49.42115" lon="4.17657">
        <ele>115</ele>
        <time>2019-04-07T10:23:21Z</time>
      </trkpt>
      <trkpt lat="49.42125" lon="4.17649">
        <ele>115</ele>
        <time>2019-04-07T10:23:22Z</time>
      </trkpt>
      <trkpt lat="49.42135" lon="4.17641">
        <ele>115</ele>
        <time>2019-04-07T10:23:23Z</time>
      </trkpt>
      <trkpt lat="49.42144" lon="4.17634">
        <ele>115</ele>
        <time>2019-04-07T10:23:24Z</time>
      </trkpt>
      <trkpt lat="49.42154" lon="4.17627">
        <ele>115</ele>
        <time>2019-04-07T10:23:25Z</time>
      </trkpt>
      <trkpt lat="49.42162" lon="4.1762">
        <ele>115</ele>
        <time>2019-04-07T10:23:26Z</time>
      </trkpt>
      <trkpt lat="49.42171" lon="4.17613">
        <ele>115</ele>
        <time>2019-04-07T10:23:27Z</time>
      </trkpt>
      <trkpt lat="49.42179" lon="4.17606">
        <ele>116</ele>
        <time>2019-04-07T10:23:28Z</time>
      </trkpt>
      <trkpt lat="49.42187" lon="4.17599">
        <ele>115</ele>
        <time>2019-04-07T10:23:29Z</time>
      </trkpt>
      <trkpt lat="49.42195" lon="4.17593">
        <ele>115</ele>
        <time>2019-04-07T10:23:30Z</time>
      </trkpt>
      <trkpt lat="49.42203" lon="4.17586">
        <ele>114</ele>
        <time>2019-04-07T10:23:31Z</time>
      </trkpt>
      <trkpt lat="49.42211" lon="4.17581">
        <ele>114</ele>
        <time>2019-04-07T10:23:32Z</time>
      </trkpt>
      <trkpt lat="49.42218" lon="4.17575">
        <ele>114</ele>
        <time>2019-04-07T10:23:33Z</time>
      </trkpt>
      <trkpt lat="49.42225" lon="4.1757">
        <ele>114</ele>
        <time>2019-04-07T10:23:34Z</time>
      </trkpt>
      <trkpt lat="49.42232" lon="4.17564">
        <ele>114</ele>
        <time>2019-04-07T10:23:35Z</time>
      </trkpt>
      <trkpt lat="49.42238" lon="4.17558">
        <ele>114</ele>
        <time>2019-04-07T10:23:36Z</time>
      </trkpt>
      <trkpt lat="49.42245" lon="4.17552">
        <ele>114</ele>
        <time>2019-04-07T10:23:37Z</time>
      </trkpt>
      <trkpt lat="49.42251" lon="4.17546">
        <ele>114</ele>
        <time>2019-04-07T10:23:38Z</time>
      </trkpt>
      <trkpt lat="49.42258" lon="4.17542">
        <ele>114</ele>
        <time>2019-04-07T10:23:39Z</time>
      </trkpt>
      <trkpt lat="49.42264" lon="4.17537">
        <ele>114</ele>
        <time>2019-04-07T10:23:40Z</time>
      </trkpt>
      <trkpt lat="49.4227" lon="4.17532">
        <ele>115</ele>
        <time>2019-04-07T10:23:41Z</time>
      </trkpt>
      <trkpt lat="49.42276" lon="4.17527">
        <ele>115</ele>
        <time>2019-04-07T10:23:42Z</time>
      </trkpt>
      <trkpt lat="49.42282" lon="4.17523">
        <ele>115</ele>
        <time>2019-04-07T10:23:43Z</time>
      </trkpt>
      <trkpt lat="49.42289" lon="4.1752">
        <ele>115</ele>
        <time>2019-04-07T10:23:44Z</time>
      </trkpt>
      <trkpt lat="49.42296" lon="4.17518">
        <ele>116</ele>
        <time>2019-04-07T10:23:45Z</time>
      </trkpt>
      <trkpt lat="49.42302" lon="4.17515">
        <ele>116</ele>
        <time>2019-04-07T10:23:46Z</time>
      </trkpt>
      <trkpt lat="49.42309" lon="4.17514">
        <ele>115</ele>
        <time>2019-04-07T10:23:47Z</time>
      </trkpt>
      <trkpt lat="49.42316" lon="4.17513">
        <ele>115</ele>
        <time>2019-04-07T10:23:48Z</time>
      </trkpt>
      <trkpt lat="49.42323" lon="4.17511">
        <ele>115</ele>
        <time>2019-04-07T10:23:49Z</time>
      </trkpt>
      <trkpt lat="49.4233" lon="4.1751">
        <ele>115</ele>
        <time>2019-04-07T10:23:50Z</time>
      </trkpt>
      <trkpt lat="49.42337" lon="4.17509">
        <ele>115</ele>
        <time>2019-04-07T10:23:51Z</time>
      </trkpt>
      <trkpt lat="49.42344" lon="4.17507">
        <ele>115</ele>
        <time>2019-04-07T10:23:52Z</time>
      </trkpt>
      <trkpt lat="49.42351" lon="4.17505">
        <ele>115</ele>
        <time>2019-04-07T10:23:53Z</time>
      </trkpt>
      <trkpt lat="49.42357" lon="4.17504">
        <ele>115</ele>
        <time>2019-04-07T10:23:54Z</time>
      </trkpt>
      <trkpt lat="49.42363" lon="4.17502">
        <ele>115</ele>
        <time>2019-04-07T10:23:55Z</time>
      </trkpt>
      <trkpt lat="49.42369" lon="4.175">
        <ele>115</ele>
        <time>2019-04-07T10:23:56Z</time>
      </trkpt>
      <trkpt lat="49.42375" lon="4.17497">
        <ele>116</ele>
        <time>2019-04-07T10:23:57Z</time>
      </trkpt>
      <trkpt lat="49.4238" lon="4.17492">
        <ele>116</ele>
        <time>2019-04-07T10:23:58Z</time>
      </trkpt>
      <trkpt lat="49.42384" lon="4.17486">
        <ele>116</ele>
        <time>2019-04-07T10:23:59Z</time>
      </trkpt>
      <trkpt lat="49.42388" lon="4.17477">
        <ele>116</ele>
        <time>2019-04-07T10:24:00Z</time>
      </trkpt>
      <trkpt lat="49.4239" lon="4.17468">
        <ele>115</ele>
        <time>2019-04-07T10:24:01Z</time>
      </trkpt>
      <trkpt lat="49.42395" lon="4.17454">
        <ele>115</ele>
        <time>2019-04-07T10:24:03Z</time>
      </trkpt>
      <trkpt lat="49.42397" lon="4.1745">
        <ele>115</ele>
        <time>2019-04-07T10:24:04Z</time>
      </trkpt>
      <trkpt lat="49.42397" lon="4.17447">
        <ele>115</ele>
        <time>2019-04-07T10:24:05Z</time>
      </trkpt>
      <trkpt lat="49.42397" lon="4.17446">
        <ele>115</ele>
        <time>2019-04-07T10:24:06Z</time>
      </trkpt>
      <trkpt lat="49.42398" lon="4.17445">
        <ele>115</ele>
        <time>2019-04-07T10:24:07Z</time>
      </trkpt>
      <trkpt lat="49.42398" lon="4.17444">
        <ele>115</ele>
        <time>2019-04-07T10:24:08Z</time>
      </trkpt>
      <trkpt lat="49.42399" lon="4.17441">
        <ele>115</ele>
        <time>2019-04-07T10:24:09Z</time>
      </trkpt>
      <trkpt lat="49.42399" lon="4.17439">
        <ele>115</ele>
        <time>2019-04-07T10:24:10Z</time>
      </trkpt>
      <trkpt lat="49.42398" lon="4.17436">
        <ele>115</ele>
        <time>2019-04-07T10:24:11Z</time>
      </trkpt>
      <trkpt lat="49.42397" lon="4.17433">
        <ele>115</ele>
        <time>2019-04-07T10:24:12Z</time>
      </trkpt>
      <trkpt lat="49.42396" lon="4.17429">
        <ele>115</ele>
        <time>2019-04-07T10:24:13Z</time>
      </trkpt>
      <trkpt lat="49.42396" lon="4.17425">
        <ele>115</ele>
        <time>2019-04-07T10:24:14Z</time>
      </trkpt>
      <trkpt lat="49.42394" lon="4.17421">
        <ele>115</ele>
        <time>2019-04-07T10:24:15Z</time>
      </trkpt>
      <trkpt lat="49.42393" lon="4.17416">
        <ele>115</ele>
        <time>2019-04-07T10:24:16Z</time>
      </trkpt>
      <trkpt lat="49.42393" lon="4.17411">
        <ele>114</ele>
        <time>2019-04-07T10:24:17Z</time>
      </trkpt>
      <trkpt lat="49.42392" lon="4.17406">
        <ele>115</ele>
        <time>2019-04-07T10:24:18Z</time>
      </trkpt>
      <trkpt lat="49.42391" lon="4.17401">
        <ele>115</ele>
        <time>2019-04-07T10:24:19Z</time>
      </trkpt>
      <trkpt lat="49.42389" lon="4.17396">
        <ele>115</ele>
        <time>2019-04-07T10:24:20Z</time>
      </trkpt>
      <trkpt lat="49.42387" lon="4.17391">
        <ele>115</ele>
        <time>2019-04-07T10:24:21Z</time>
      </trkpt>
      <trkpt lat="49.42386" lon="4.17385">
        <ele>115</ele>
        <time>2019-04-07T10:24:22Z</time>
      </trkpt>
      <trkpt lat="49.42385" lon="4.1738">
        <ele>115</ele>
        <time>2019-04-07T10:24:23Z</time>
      </trkpt>
      <trkpt lat="49.42385" lon="4.17375">
        <ele>115</ele>
        <time>2019-04-07T10:24:24Z</time>
      </trkpt>
      <trkpt lat="49.42384" lon="4.17369">
        <ele>115</ele>
        <time>2019-04-07T10:24:25Z</time>
      </trkpt>
      <trkpt lat="49.42384" lon="4.17363">
        <ele>115</ele>
        <time>2019-04-07T10:24:26Z</time>
      </trkpt>
      <trkpt lat="49.42384" lon="4.17356">
        <ele>115</ele>
        <time>2019-04-07T10:24:27Z</time>
      </trkpt>
      <trkpt lat="49.42384" lon="4.1735">
        <ele>115</ele>
        <time>2019-04-07T10:24:28Z</time>
      </trkpt>
      <trkpt lat="49.42385" lon="4.17343">
        <ele>115</ele>
        <time>2019-04-07T10:24:29Z</time>
      </trkpt>
      <trkpt lat="49.42386" lon="4.17336">
        <ele>114</ele>
        <time>2019-04-07T10:24:30Z</time>
      </trkpt>
      <trkpt lat="49.42388" lon="4.1733">
        <ele>114</ele>
        <time>2019-04-07T10:24:31Z</time>
      </trkpt>
      <trkpt lat="49.42389" lon="4.17324">
        <ele>115</ele>
        <time>2019-04-07T10:24:32Z</time>
      </trkpt>
      <trkpt lat="49.4239" lon="4.17318">
        <ele>115</ele>
        <time>2019-04-07T10:24:33Z</time>
      </trkpt>
      <trkpt lat="49.42392" lon="4.17311">
        <ele>114</ele>
        <time>2019-04-07T10:24:34Z</time>
      </trkpt>
      <trkpt lat="49.42393" lon="4.17305">
        <ele>114</ele>
        <time>2019-04-07T10:24:35Z</time>
      </trkpt>
      <trkpt lat="49.42394" lon="4.17298">
        <ele>114</ele>
        <time>2019-04-07T10:24:36Z</time>
      </trkpt>
      <trkpt lat="49.42395" lon="4.17291">
        <ele>114</ele>
        <time>2019-04-07T10:24:37Z</time>
      </trkpt>
      <trkpt lat="49.42396" lon="4.17284">
        <ele>114</ele>
        <time>2019-04-07T10:24:38Z</time>
      </trkpt>
      <trkpt lat="49.42398" lon="4.17277">
        <ele>115</ele>
        <time>2019-04-07T10:24:39Z</time>
      </trkpt>
      <trkpt lat="49.42399" lon="4.1727">
        <ele>114</ele>
        <time>2019-04-07T10:24:40Z</time>
      </trkpt>
      <trkpt lat="49.424" lon="4.17263">
        <ele>114</ele>
        <time>2019-04-07T10:24:41Z</time>
      </trkpt>
      <trkpt lat="49.42402" lon="4.17257">
        <ele>114</ele>
        <time>2019-04-07T10:24:42Z</time>
      </trkpt>
      <trkpt lat="49.42403" lon="4.1725">
        <ele>114</ele>
        <time>2019-04-07T10:24:43Z</time>
      </trkpt>
      <trkpt lat="49.42405" lon="4.17243">
        <ele>114</ele>
        <time>2019-04-07T10:24:44Z</time>
      </trkpt>
      <trkpt lat="49.42407" lon="4.17236">
        <ele>114</ele>
        <time>2019-04-07T10:24:45Z</time>
      </trkpt>
      <trkpt lat="49.42409" lon="4.17228">
        <ele>114</ele>
        <time>2019-04-07T10:24:46Z</time>
      </trkpt>
      <trkpt lat="49.42411" lon="4.17222">
        <ele>114</ele>
        <time>2019-04-07T10:24:47Z</time>
      </trkpt>
      <trkpt lat="49.42414" lon="4.17215">
        <ele>114</ele>
        <time>2019-04-07T10:24:48Z</time>
      </trkpt>
      <trkpt lat="49.42417" lon="4.17209">
        <ele>114</ele>
        <time>2019-04-07T10:24:49Z</time>
      </trkpt>
      <trkpt lat="49.42421" lon="4.17204">
        <ele>114</ele>
        <time>2019-04-07T10:24:50Z</time>
      </trkpt>
      <trkpt lat="49.42424" lon="4.17198">
        <ele>113</ele>
        <time>2019-04-07T10:24:51Z</time>
      </trkpt>
      <trkpt lat="49.42428" lon="4.17193">
        <ele>113</ele>
        <time>2019-04-07T10:24:52Z</time>
      </trkpt>
      <trkpt lat="49.42432" lon="4.17188">
        <ele>113</ele>
        <time>2019-04-07T10:24:53Z</time>
      </trkpt>
      <trkpt lat="49.42436" lon="4.17182">
        <ele>113</ele>
        <time>2019-04-07T10:24:54Z</time>
      </trkpt>
      <trkpt lat="49.4244" lon="4.17178">
        <ele>114</ele>
        <time>2019-04-07T10:24:55Z</time>
      </trkpt>
      <trkpt lat="49.42444" lon="4.17174">
        <ele>113</ele>
        <time>2019-04-07T10:24:56Z</time>
      </trkpt>
      <trkpt lat="49.42449" lon="4.17169">
        <ele>113</ele>
        <time>2019-04-07T10:24:57Z</time>
      </trkpt>
      <trkpt lat="49.42453" lon="4.17164">
        <ele>113</ele>
        <time>2019-04-07T10:24:58Z</time>
      </trkpt>
      <trkpt lat="49.42458" lon="4.17161">
        <ele>113</ele>
        <time>2019-04-07T10:24:59Z</time>
      </trkpt>
      <trkpt lat="49.42462" lon="4.17157">
        <ele>114</ele>
        <time>2019-04-07T10:25:00Z</time>
      </trkpt>
      <trkpt lat="49.42466" lon="4.17152">
        <ele>113</ele>
        <time>2019-04-07T10:25:01Z</time>
      </trkpt>
      <trkpt lat="49.4247" lon="4.17147">
        <ele>113</ele>
        <time>2019-04-07T10:25:02Z</time>
      </trkpt>
      <trkpt lat="49.42474" lon="4.17144">
        <ele>114</ele>
        <time>2019-04-07T10:25:03Z</time>
      </trkpt>
      <trkpt lat="49.42478" lon="4.1714">
        <ele>114</ele>
        <time>2019-04-07T10:25:04Z</time>
      </trkpt>
      <trkpt lat="49.42482" lon="4.17136">
        <ele>114</ele>
        <time>2019-04-07T10:25:05Z</time>
      </trkpt>
      <trkpt lat="49.42486" lon="4.17131">
        <ele>114</ele>
        <time>2019-04-07T10:25:06Z</time>
      </trkpt>
      <trkpt lat="49.42489" lon="4.17126">
        <ele>114</ele>
        <time>2019-04-07T10:25:07Z</time>
      </trkpt>
      <trkpt lat="49.42492" lon="4.1712">
        <ele>114</ele>
        <time>2019-04-07T10:25:08Z</time>
      </trkpt>
      <trkpt lat="49.42495" lon="4.17113">
        <ele>114</ele>
        <time>2019-04-07T10:25:09Z</time>
      </trkpt>
      <trkpt lat="49.42497" lon="4.17107">
        <ele>114</ele>
        <time>2019-04-07T10:25:10Z</time>
      </trkpt>
      <trkpt lat="49.42499" lon="4.171">
        <ele>114</ele>
        <time>2019-04-07T10:25:11Z</time>
      </trkpt>
      <trkpt lat="49.42501" lon="4.17094">
        <ele>114</ele>
        <time>2019-04-07T10:25:12Z</time>
      </trkpt>
      <trkpt lat="49.42503" lon="4.17087">
        <ele>114</ele>
        <time>2019-04-07T10:25:13Z</time>
      </trkpt>
      <trkpt lat="49.42505" lon="4.17081">
        <ele>114</ele>
        <time>2019-04-07T10:25:14Z</time>
      </trkpt>
      <trkpt lat="49.42507" lon="4.17074">
        <ele>114</ele>
        <time>2019-04-07T10:25:15Z</time>
      </trkpt>
      <trkpt lat="49.42509" lon="4.17068">
        <ele>114</ele>
        <time>2019-04-07T10:25:16Z</time>
      </trkpt>
      <trkpt lat="49.4251" lon="4.17061">
        <ele>114</ele>
        <time>2019-04-07T10:25:17Z</time>
      </trkpt>
      <trkpt lat="49.42512" lon="4.17054">
        <ele>114</ele>
        <time>2019-04-07T10:25:18Z</time>
      </trkpt>
      <trkpt lat="49.42513" lon="4.17047">
        <ele>114</ele>
        <time>2019-04-07T10:25:19Z</time>
      </trkpt>
      <trkpt lat="49.42514" lon="4.17041">
        <ele>114</ele>
        <time>2019-04-07T10:25:20Z</time>
      </trkpt>
      <trkpt lat="49.42516" lon="4.17034">
        <ele>114</ele>
        <time>2019-04-07T10:25:21Z</time>
      </trkpt>
      <trkpt lat="49.42517" lon="4.17027">
        <ele>114</ele>
        <time>2019-04-07T10:25:22Z</time>
      </trkpt>
      <trkpt lat="49.42518" lon="4.17021">
        <ele>114</ele>
        <time>2019-04-07T10:25:23Z</time>
      </trkpt>
      <trkpt lat="49.4252" lon="4.17014">
        <ele>114</ele>
        <time>2019-04-07T10:25:24Z</time>
      </trkpt>
      <trkpt lat="49.42521" lon="4.17008">
        <ele>114</ele>
        <time>2019-04-07T10:25:25Z</time>
      </trkpt>
      <trkpt lat="49.42522" lon="4.17002">
        <ele>114</ele>
        <time>2019-04-07T10:25:26Z</time>
      </trkpt>
      <trkpt lat="49.42523" lon="4.16995">
        <ele>114</ele>
        <time>2019-04-07T10:25:27Z</time>
      </trkpt>
      <trkpt lat="49.42524" lon="4.16989">
        <ele>114</ele>
        <time>2019-04-07T10:25:28Z</time>
      </trkpt>
      <trkpt lat="49.42526" lon="4.16982">
        <ele>114</ele>
        <time>2019-04-07T10:25:29Z</time>
      </trkpt>
      <trkpt lat="49.42527" lon="4.16976">
        <ele>114</ele>
        <time>2019-04-07T10:25:30Z</time>
      </trkpt>
      <trkpt lat="49.42528" lon="4.1697">
        <ele>114</ele>
        <time>2019-04-07T10:25:31Z</time>
      </trkpt>
      <trkpt lat="49.4253" lon="4.16964">
        <ele>114</ele>
        <time>2019-04-07T10:25:32Z</time>
      </trkpt>
      <trkpt lat="49.42531" lon="4.16957">
        <ele>114</ele>
        <time>2019-04-07T10:25:33Z</time>
      </trkpt>
      <trkpt lat="49.42532" lon="4.16951">
        <ele>115</ele>
        <time>2019-04-07T10:25:34Z</time>
      </trkpt>
      <trkpt lat="49.42534" lon="4.16944">
        <ele>115</ele>
        <time>2019-04-07T10:25:35Z</time>
      </trkpt>
      <trkpt lat="49.42535" lon="4.16937">
        <ele>115</ele>
        <time>2019-04-07T10:25:36Z</time>
      </trkpt>
      <trkpt lat="49.42536" lon="4.1693">
        <ele>115</ele>
        <time>2019-04-07T10:25:37Z</time>
      </trkpt>
      <trkpt lat="49.42537" lon="4.16922">
        <ele>115</ele>
        <time>2019-04-07T10:25:38Z</time>
      </trkpt>
      <trkpt lat="49.42538" lon="4.16915">
        <ele>115</ele>
        <time>2019-04-07T10:25:39Z</time>
      </trkpt>
      <trkpt lat="49.4254" lon="4.16908">
        <ele>114</ele>
        <time>2019-04-07T10:25:40Z</time>
      </trkpt>
      <trkpt lat="49.42541" lon="4.16901">
        <ele>114</ele>
        <time>2019-04-07T10:25:41Z</time>
      </trkpt>
      <trkpt lat="49.42543" lon="4.16895">
        <ele>114</ele>
        <time>2019-04-07T10:25:42Z</time>
      </trkpt>
      <trkpt lat="49.42544" lon="4.16888">
        <ele>114</ele>
        <time>2019-04-07T10:25:43Z</time>
      </trkpt>
      <trkpt lat="49.42545" lon="4.16881">
        <ele>114</ele>
        <time>2019-04-07T10:25:44Z</time>
      </trkpt>
      <trkpt lat="49.42546" lon="4.16875">
        <ele>114</ele>
        <time>2019-04-07T10:25:45Z</time>
      </trkpt>
      <trkpt lat="49.42548" lon="4.16868">
        <ele>114</ele>
        <time>2019-04-07T10:25:46Z</time>
      </trkpt>
      <trkpt lat="49.42549" lon="4.16861">
        <ele>114</ele>
        <time>2019-04-07T10:25:47Z</time>
      </trkpt>
      <trkpt lat="49.4255" lon="4.16855">
        <ele>114</ele>
        <time>2019-04-07T10:25:48Z</time>
      </trkpt>
      <trkpt lat="49.42552" lon="4.16848">
        <ele>114</ele>
        <time>2019-04-07T10:25:49Z</time>
      </trkpt>
      <trkpt lat="49.42553" lon="4.16841">
        <ele>113</ele>
        <time>2019-04-07T10:25:50Z</time>
      </trkpt>
      <trkpt lat="49.42554" lon="4.16834">
        <ele>113</ele>
        <time>2019-04-07T10:25:51Z</time>
      </trkpt>
      <trkpt lat="49.42555" lon="4.16828">
        <ele>113</ele>
        <time>2019-04-07T10:25:52Z</time>
      </trkpt>
      <trkpt lat="49.42557" lon="4.16821">
        <ele>113</ele>
        <time>2019-04-07T10:25:53Z</time>
      </trkpt>
      <trkpt lat="49.42558" lon="4.16814">
        <ele>113</ele>
        <time>2019-04-07T10:25:54Z</time>
      </trkpt>
      <trkpt lat="49.4256" lon="4.16808">
        <ele>113</ele>
        <time>2019-04-07T10:25:55Z</time>
      </trkpt>
      <trkpt lat="49.42561" lon="4.16801">
        <ele>113</ele>
        <time>2019-04-07T10:25:56Z</time>
      </trkpt>
      <trkpt lat="49.42562" lon="4.16794">
        <ele>114</ele>
        <time>2019-04-07T10:25:57Z</time>
      </trkpt>
      <trkpt lat="49.42563" lon="4.16788">
        <ele>114</ele>
        <time>2019-04-07T10:25:58Z</time>
      </trkpt>
      <trkpt lat="49.42565" lon="4.16782">
        <ele>114</ele>
        <time>2019-04-07T10:25:59Z</time>
      </trkpt>
      <trkpt lat="49.42566" lon="4.16775">
        <ele>114</ele>
        <time>2019-04-07T10:26:00Z</time>
      </trkpt>
      <trkpt lat="49.42567" lon="4.16769">
        <ele>114</ele>
        <time>2019-04-07T10:26:01Z</time>
      </trkpt>
      <trkpt lat="49.42569" lon="4.16762">
        <ele>114</ele>
        <time>2019-04-07T10:26:02Z</time>
      </trkpt>
      <trkpt lat="49.4257" lon="4.16756">
        <ele>114</ele>
        <time>2019-04-07T10:26:03Z</time>
      </trkpt>
      <trkpt lat="49.42571" lon="4.16749">
        <ele>114</ele>
        <time>2019-04-07T10:26:04Z</time>
      </trkpt>
      <trkpt lat="49.42573" lon="4.16743">
        <ele>114</ele>
        <time>2019-04-07T10:26:05Z</time>
      </trkpt>
      <trkpt lat="49.42574" lon="4.16737">
        <ele>114</ele>
        <time>2019-04-07T10:26:06Z</time>
      </trkpt>
      <trkpt lat="49.42575" lon="4.1673">
        <ele>114</ele>
        <time>2019-04-07T10:26:07Z</time>
      </trkpt>
      <trkpt lat="49.42576" lon="4.16724">
        <ele>114</ele>
        <time>2019-04-07T10:26:08Z</time>
      </trkpt>
      <trkpt lat="49.42578" lon="4.16717">
        <ele>115</ele>
        <time>2019-04-07T10:26:09Z</time>
      </trkpt>
      <trkpt lat="49.42579" lon="4.16711">
        <ele>115</ele>
        <time>2019-04-07T10:26:10Z</time>
      </trkpt>
      <trkpt lat="49.4258" lon="4.16704">
        <ele>115</ele>
        <time>2019-04-07T10:26:11Z</time>
      </trkpt>
      <trkpt lat="49.42581" lon="4.16699">
        <ele>115</ele>
        <time>2019-04-07T10:26:12Z</time>
      </trkpt>
      <trkpt lat="49.42583" lon="4.16692">
        <ele>115</ele>
        <time>2019-04-07T10:26:13Z</time>
      </trkpt>
      <trkpt lat="49.42584" lon="4.16686">
        <ele>115</ele>
        <time>2019-04-07T10:26:14Z</time>
      </trkpt>
      <trkpt lat="49.42585" lon="4.16679">
        <ele>115</ele>
        <time>2019-04-07T10:26:15Z</time>
      </trkpt>
      <trkpt lat="49.42586" lon="4.16672">
        <ele>115</ele>
        <time>2019-04-07T10:26:16Z</time>
      </trkpt>
      <trkpt lat="49.42588" lon="4.16666">
        <ele>115</ele>
        <time>2019-04-07T10:26:17Z</time>
      </trkpt>
      <trkpt lat="49.42589" lon="4.16659">
        <ele>115</ele>
        <time>2019-04-07T10:26:18Z</time>
      </trkpt>
      <trkpt lat="49.4259" lon="4.16653">
        <ele>115</ele>
        <time>2019-04-07T10:26:19Z</time>
      </trkpt>
      <trkpt lat="49.42592" lon="4.16646">
        <ele>115</ele>
        <time>2019-04-07T10:26:20Z</time>
      </trkpt>
      <trkpt lat="49.42593" lon="4.1664">
        <ele>115</ele>
        <time>2019-04-07T10:26:21Z</time>
      </trkpt>
      <trkpt lat="49.42594" lon="4.16634">
        <ele>115</ele>
        <time>2019-04-07T10:26:22Z</time>
      </trkpt>
      <trkpt lat="49.42595" lon="4.16627">
        <ele>115</ele>
        <time>2019-04-07T10:26:23Z</time>
      </trkpt>
      <trkpt lat="49.42597" lon="4.16621">
        <ele>115</ele>
        <time>2019-04-07T10:26:24Z</time>
      </trkpt>
      <trkpt lat="49.42598" lon="4.16614">
        <ele>115</ele>
        <time>2019-04-07T10:26:25Z</time>
      </trkpt>
      <trkpt lat="49.42599" lon="4.16607">
        <ele>115</ele>
        <time>2019-04-07T10:26:26Z</time>
      </trkpt>
      <trkpt lat="49.426" lon="4.16601">
        <ele>115</ele>
        <time>2019-04-07T10:26:27Z</time>
      </trkpt>
      <trkpt lat="49.42602" lon="4.16594">
        <ele>115</ele>
        <time>2019-04-07T10:26:28Z</time>
      </trkpt>
      <trkpt lat="49.42603" lon="4.16587">
        <ele>115</ele>
        <time>2019-04-07T10:26:29Z</time>
      </trkpt>
      <trkpt lat="49.42605" lon="4.16581">
        <ele>115</ele>
        <time>2019-04-07T10:26:30Z</time>
      </trkpt>
      <trkpt lat="49.42606" lon="4.16574">
        <ele>115</ele>
        <time>2019-04-07T10:26:31Z</time>
      </trkpt>
      <trkpt lat="49.42607" lon="4.16568">
        <ele>115</ele>
        <time>2019-04-07T10:26:32Z</time>
      </trkpt>
      <trkpt lat="49.42608" lon="4.16561">
        <ele>115</ele>
        <time>2019-04-07T10:26:33Z</time>
      </trkpt>
      <trkpt lat="49.4261" lon="4.16554">
        <ele>115</ele>
        <time>2019-04-07T10:26:34Z</time>
      </trkpt>
      <trkpt lat="49.42611" lon="4.16547">
        <ele>115</ele>
        <time>2019-04-07T10:26:35Z</time>
      </trkpt>
      <trkpt lat="49.42612" lon="4.1654">
        <ele>115</ele>
        <time>2019-04-07T10:26:36Z</time>
      </trkpt>
      <trkpt lat="49.42613" lon="4.16533">
        <ele>115</ele>
        <time>2019-04-07T10:26:37Z</time>
      </trkpt>
      <trkpt lat="49.42614" lon="4.16526">
        <ele>115</ele>
        <time>2019-04-07T10:26:38Z</time>
      </trkpt>
      <trkpt lat="49.42615" lon="4.16518">
        <ele>115</ele>
        <time>2019-04-07T10:26:39Z</time>
      </trkpt>
      <trkpt lat="49.42616" lon="4.16511">
        <ele>115</ele>
        <time>2019-04-07T10:26:40Z</time>
      </trkpt>
      <trkpt lat="49.42617" lon="4.16504">
        <ele>115</ele>
        <time>2019-04-07T10:26:41Z</time>
      </trkpt>
      <trkpt lat="49.42618" lon="4.16496">
        <ele>115</ele>
        <time>2019-04-07T10:26:42Z</time>
      </trkpt>
      <trkpt lat="49.42619" lon="4.16489">
        <ele>115</ele>
        <time>2019-04-07T10:26:43Z</time>
      </trkpt>
      <trkpt lat="49.4262" lon="4.16481">
        <ele>115</ele>
        <time>2019-04-07T10:26:44Z</time>
      </trkpt>
      <trkpt lat="49.42621" lon="4.16473">
        <ele>115</ele>
        <time>2019-04-07T10:26:45Z</time>
      </trkpt>
      <trkpt lat="49.42622" lon="4.16465">
        <ele>114</ele>
        <time>2019-04-07T10:26:46Z</time>
      </trkpt>
      <trkpt lat="49.42623" lon="4.16457">
        <ele>114</ele>
        <time>2019-04-07T10:26:47Z</time>
      </trkpt>
      <trkpt lat="49.42623" lon="4.16449">
        <ele>114</ele>
        <time>2019-04-07T10:26:48Z</time>
      </trkpt>
      <trkpt lat="49.42625" lon="4.1644">
        <ele>114</ele>
        <time>2019-04-07T10:26:49Z</time>
      </trkpt>
      <trkpt lat="49.42625" lon="4.16431">
        <ele>114</ele>
        <time>2019-04-07T10:26:50Z</time>
      </trkpt>
      <trkpt lat="49.42626" lon="4.16423">
        <ele>114</ele>
        <time>2019-04-07T10:26:51Z</time>
      </trkpt>
      <trkpt lat="49.42627" lon="4.16415">
        <ele>114</ele>
        <time>2019-04-07T10:26:52Z</time>
      </trkpt>
      <trkpt lat="49.42628" lon="4.16406">
        <ele>114</ele>
        <time>2019-04-07T10:26:53Z</time>
      </trkpt>
      <trkpt lat="49.42629" lon="4.16397">
        <ele>114</ele>
        <time>2019-04-07T10:26:54Z</time>
      </trkpt>
      <trkpt lat="49.4263" lon="4.16389">
        <ele>114</ele>
        <time>2019-04-07T10:26:55Z</time>
      </trkpt>
      <trkpt lat="49.42631" lon="4.1638">
        <ele>114</ele>
        <time>2019-04-07T10:26:56Z</time>
      </trkpt>
      <trkpt lat="49.42632" lon="4.16372">
        <ele>114</ele>
        <time>2019-04-07T10:26:57Z</time>
      </trkpt>
      <trkpt lat="49.42633" lon="4.16363">
        <ele>114</ele>
        <time>2019-04-07T10:26:58Z</time>
      </trkpt>
      <trkpt lat="49.42634" lon="4.16355">
        <ele>114</ele>
        <time>2019-04-07T10:26:59Z</time>
      </trkpt>
      <trkpt lat="49.42635" lon="4.16347">
        <ele>114</ele>
        <time>2019-04-07T10:27:00Z</time>
      </trkpt>
      <trkpt lat="49.42635" lon="4.16338">
        <ele>114</ele>
        <time>2019-04-07T10:27:01Z</time>
      </trkpt>
      <trkpt lat="49.42637" lon="4.16329">
        <ele>114</ele>
        <time>2019-04-07T10:27:02Z</time>
      </trkpt>
      <trkpt lat="49.42638" lon="4.16321">
        <ele>114</ele>
        <time>2019-04-07T10:27:03Z</time>
      </trkpt>
      <trkpt lat="49.42639" lon="4.16312">
        <ele>114</ele>
        <time>2019-04-07T10:27:04Z</time>
      </trkpt>
      <trkpt lat="49.42639" lon="4.16303">
        <ele>114</ele>
        <time>2019-04-07T10:27:05Z</time>
      </trkpt>
      <trkpt lat="49.4264" lon="4.16295">
        <ele>114</ele>
        <time>2019-04-07T10:27:06Z</time>
      </trkpt>
      <trkpt lat="49.42641" lon="4.16286">
        <ele>114</ele>
        <time>2019-04-07T10:27:07Z</time>
      </trkpt>
      <trkpt lat="49.42641" lon="4.16277">
        <ele>114</ele>
        <time>2019-04-07T10:27:08Z</time>
      </trkpt>
      <trkpt lat="49.42642" lon="4.16268">
        <ele>115</ele>
        <time>2019-04-07T10:27:09Z</time>
      </trkpt>
      <trkpt lat="49.42643" lon="4.1626">
        <ele>115</ele>
        <time>2019-04-07T10:27:10Z</time>
      </trkpt>
      <trkpt lat="49.42644" lon="4.16251">
        <ele>115</ele>
        <time>2019-04-07T10:27:11Z</time>
      </trkpt>
      <trkpt lat="49.42645" lon="4.16243">
        <ele>115</ele>
        <time>2019-04-07T10:27:12Z</time>
      </trkpt>
      <trkpt lat="49.42646" lon="4.16234">
        <ele>115</ele>
        <time>2019-04-07T10:27:13Z</time>
      </trkpt>
      <trkpt lat="49.42647" lon="4.16225">
        <ele>115</ele>
        <time>2019-04-07T10:27:14Z</time>
      </trkpt>
      <trkpt lat="49.42648" lon="4.16216">
        <ele>115</ele>
        <time>2019-04-07T10:27:15Z</time>
      </trkpt>
      <trkpt lat="49.42649" lon="4.16208">
        <ele>115</ele>
        <time>2019-04-07T10:27:16Z</time>
      </trkpt>
      <trkpt lat="49.42651" lon="4.162">
        <ele>115</ele>
        <time>2019-04-07T10:27:17Z</time>
      </trkpt>
      <trkpt lat="49.42654" lon="4.16193">
        <ele>115</ele>
        <time>2019-04-07T10:27:18Z</time>
      </trkpt>
      <trkpt lat="49.42657" lon="4.16187">
        <ele>115</ele>
        <time>2019-04-07T10:27:19Z</time>
      </trkpt>
      <trkpt lat="49.42661" lon="4.1618">
        <ele>115</ele>
        <time>2019-04-07T10:27:20Z</time>
      </trkpt>
      <trkpt lat="49.42664" lon="4.16174">
        <ele>115</ele>
        <time>2019-04-07T10:27:21Z</time>
      </trkpt>
      <trkpt lat="49.42666" lon="4.16166">
        <ele>115</ele>
        <time>2019-04-07T10:27:22Z</time>
      </trkpt>
      <trkpt lat="49.42668" lon="4.1616">
        <ele>115</ele>
        <time>2019-04-07T10:27:23Z</time>
      </trkpt>
      <trkpt lat="49.4267" lon="4.16152">
        <ele>115</ele>
        <time>2019-04-07T10:27:24Z</time>
      </trkpt>
      <trkpt lat="49.42672" lon="4.16145">
        <ele>116</ele>
        <time>2019-04-07T10:27:25Z</time>
      </trkpt>
      <trkpt lat="49.42674" lon="4.16138">
        <ele>116</ele>
        <time>2019-04-07T10:27:26Z</time>
      </trkpt>
      <trkpt lat="49.42676" lon="4.16131">
        <ele>116</ele>
        <time>2019-04-07T10:27:27Z</time>
      </trkpt>
      <trkpt lat="49.42678" lon="4.16124">
        <ele>116</ele>
        <time>2019-04-07T10:27:28Z</time>
      </trkpt>
      <trkpt lat="49.42679" lon="4.16117">
        <ele>116</ele>
        <time>2019-04-07T10:27:29Z</time>
      </trkpt>
      <trkpt lat="49.42681" lon="4.16109">
        <ele>116</ele>
        <time>2019-04-07T10:27:30Z</time>
      </trkpt>
      <trkpt lat="49.42683" lon="4.16102">
        <ele>117</ele>
        <time>2019-04-07T10:27:31Z</time>
      </trkpt>
      <trkpt lat="49.42684" lon="4.16095">
        <ele>117</ele>
        <time>2019-04-07T10:27:32Z</time>
      </trkpt>
      <trkpt lat="49.42686" lon="4.16087">
        <ele>117</ele>
        <time>2019-04-07T10:27:33Z</time>
      </trkpt>
      <trkpt lat="49.42688" lon="4.1608">
        <ele>117</ele>
        <time>2019-04-07T10:27:34Z</time>
      </trkpt>
      <trkpt lat="49.42689" lon="4.16072">
        <ele>117</ele>
        <time>2019-04-07T10:27:35Z</time>
      </trkpt>
      <trkpt lat="49.42691" lon="4.16065">
        <ele>117</ele>
        <time>2019-04-07T10:27:36Z</time>
      </trkpt>
      <trkpt lat="49.42693" lon="4.16057">
        <ele>117</ele>
        <time>2019-04-07T10:27:37Z</time>
      </trkpt>
      <trkpt lat="49.42694" lon="4.16049">
        <ele>117</ele>
        <time>2019-04-07T10:27:38Z</time>
      </trkpt>
      <trkpt lat="49.42696" lon="4.16041">
        <ele>117</ele>
        <time>2019-04-07T10:27:39Z</time>
      </trkpt>
      <trkpt lat="49.42698" lon="4.16034">
        <ele>118</ele>
        <time>2019-04-07T10:27:40Z</time>
      </trkpt>
      <trkpt lat="49.42699" lon="4.16025">
        <ele>118</ele>
        <time>2019-04-07T10:27:41Z</time>
      </trkpt>
      <trkpt lat="49.427" lon="4.16017">
        <ele>118</ele>
        <time>2019-04-07T10:27:42Z</time>
      </trkpt>
      <trkpt lat="49.42701" lon="4.16009">
        <ele>118</ele>
        <time>2019-04-07T10:27:43Z</time>
      </trkpt>
      <trkpt lat="49.42702" lon="4.16001">
        <ele>118</ele>
        <time>2019-04-07T10:27:44Z</time>
      </trkpt>
      <trkpt lat="49.42702" lon="4.15993">
        <ele>118</ele>
        <time>2019-04-07T10:27:45Z</time>
      </trkpt>
      <trkpt lat="49.42703" lon="4.15986">
        <ele>118</ele>
        <time>2019-04-07T10:27:46Z</time>
      </trkpt>
      <trkpt lat="49.42704" lon="4.15978">
        <ele>118</ele>
        <time>2019-04-07T10:27:47Z</time>
      </trkpt>
      <trkpt lat="49.42704" lon="4.15969">
        <ele>118</ele>
        <time>2019-04-07T10:27:48Z</time>
      </trkpt>
      <trkpt lat="49.42705" lon="4.1596">
        <ele>118</ele>
        <time>2019-04-07T10:27:49Z</time>
      </trkpt>
      <trkpt lat="49.42705" lon="4.15952">
        <ele>118</ele>
        <time>2019-04-07T10:27:50Z</time>
      </trkpt>
      <trkpt lat="49.42705" lon="4.15943">
        <ele>118</ele>
        <time>2019-04-07T10:27:51Z</time>
      </trkpt>
      <trkpt lat="49.42706" lon="4.15935">
        <ele>118</ele>
        <time>2019-04-07T10:27:52Z</time>
      </trkpt>
      <trkpt lat="49.42706" lon="4.15927">
        <ele>118</ele>
        <time>2019-04-07T10:27:53Z</time>
      </trkpt>
      <trkpt lat="49.42707" lon="4.1592">
        <ele>118</ele>
        <time>2019-04-07T10:27:54Z</time>
      </trkpt>
      <trkpt lat="49.42708" lon="4.15912">
        <ele>118</ele>
        <time>2019-04-07T10:27:55Z</time>
      </trkpt>
      <trkpt lat="49.42708" lon="4.15903">
        <ele>119</ele>
        <time>2019-04-07T10:27:56Z</time>
      </trkpt>
      <trkpt lat="49.42709" lon="4.15895">
        <ele>118</ele>
        <time>2019-04-07T10:27:57Z</time>
      </trkpt>
      <trkpt lat="49.42709" lon="4.15886">
        <ele>118</ele>
        <time>2019-04-07T10:27:58Z</time>
      </trkpt>
      <trkpt lat="49.4271" lon="4.15878">
        <ele>118</ele>
        <time>2019-04-07T10:27:59Z</time>
      </trkpt>
      <trkpt lat="49.42711" lon="4.1587">
        <ele>118</ele>
        <time>2019-04-07T10:28:00Z</time>
      </trkpt>
      <trkpt lat="49.42712" lon="4.15862">
        <ele>118</ele>
        <time>2019-04-07T10:28:01Z</time>
      </trkpt>
      <trkpt lat="49.42713" lon="4.15854">
        <ele>118</ele>
        <time>2019-04-07T10:28:02Z</time>
      </trkpt>
      <trkpt lat="49.42715" lon="4.15845">
        <ele>118</ele>
        <time>2019-04-07T10:28:03Z</time>
      </trkpt>
      <trkpt lat="49.42715" lon="4.15837">
        <ele>118</ele>
        <time>2019-04-07T10:28:04Z</time>
      </trkpt>
      <trkpt lat="49.42716" lon="4.15828">
        <ele>118</ele>
        <time>2019-04-07T10:28:05Z</time>
      </trkpt>
      <trkpt lat="49.42717" lon="4.1582">
        <ele>118</ele>
        <time>2019-04-07T10:28:06Z</time>
      </trkpt>
      <trkpt lat="49.42719" lon="4.15812">
        <ele>118</ele>
        <time>2019-04-07T10:28:07Z</time>
      </trkpt>
      <trkpt lat="49.4272" lon="4.15803">
        <ele>118</ele>
        <time>2019-04-07T10:28:08Z</time>
      </trkpt>
      <trkpt lat="49.42721" lon="4.15796">
        <ele>118</ele>
        <time>2019-04-07T10:28:09Z</time>
      </trkpt>
      <trkpt lat="49.42723" lon="4.15788">
        <ele>117</ele>
        <time>2019-04-07T10:28:10Z</time>
      </trkpt>
      <trkpt lat="49.42725" lon="4.15781">
        <ele>117</ele>
        <time>2019-04-07T10:28:11Z</time>
      </trkpt>
      <trkpt lat="49.42727" lon="4.15773">
        <ele>117</ele>
        <time>2019-04-07T10:28:12Z</time>
      </trkpt>
      <trkpt lat="49.42729" lon="4.15765">
        <ele>117</ele>
        <time>2019-04-07T10:28:13Z</time>
      </trkpt>
      <trkpt lat="49.42731" lon="4.15758">
        <ele>117</ele>
        <time>2019-04-07T10:28:14Z</time>
      </trkpt>
      <trkpt lat="49.42733" lon="4.1575">
        <ele>118</ele>
        <time>2019-04-07T10:28:15Z</time>
      </trkpt>
      <trkpt lat="49.42735" lon="4.15743">
        <ele>118</ele>
        <time>2019-04-07T10:28:16Z</time>
      </trkpt>
      <trkpt lat="49.42738" lon="4.15735">
        <ele>118</ele>
        <time>2019-04-07T10:28:17Z</time>
      </trkpt>
      <trkpt lat="49.42741" lon="4.15728">
        <ele>118</ele>
        <time>2019-04-07T10:28:18Z</time>
      </trkpt>
      <trkpt lat="49.42744" lon="4.15721">
        <ele>117</ele>
        <time>2019-04-07T10:28:19Z</time>
      </trkpt>
      <trkpt lat="49.42746" lon="4.15714">
        <ele>117</ele>
        <time>2019-04-07T10:28:20Z</time>
      </trkpt>
      <trkpt lat="49.42749" lon="4.15707">
        <ele>117</ele>
        <time>2019-04-07T10:28:21Z</time>
      </trkpt>
      <trkpt lat="49.42752" lon="4.157">
        <ele>117</ele>
        <time>2019-04-07T10:28:22Z</time>
      </trkpt>
      <trkpt lat="49.42755" lon="4.15693">
        <ele>117</ele>
        <time>2019-04-07T10:28:23Z</time>
      </trkpt>
      <trkpt lat="49.42757" lon="4.15686">
        <ele>117</ele>
        <time>2019-04-07T10:28:24Z</time>
      </trkpt>
      <trkpt lat="49.4276" lon="4.15679">
        <ele>117</ele>
        <time>2019-04-07T10:28:25Z</time>
      </trkpt>
      <trkpt lat="49.42762" lon="4.15672">
        <ele>117</ele>
        <time>2019-04-07T10:28:26Z</time>
      </trkpt>
      <trkpt lat="49.42764" lon="4.15665">
        <ele>117</ele>
        <time>2019-04-07T10:28:27Z</time>
      </trkpt>
      <trkpt lat="49.42767" lon="4.15657">
        <ele>117</ele>
        <time>2019-04-07T10:28:28Z</time>
      </trkpt>
      <trkpt lat="49.42769" lon="4.15649">
        <ele>117</ele>
        <time>2019-04-07T10:28:29Z</time>
      </trkpt>
      <trkpt lat="49.42771" lon="4.15642">
        <ele>117</ele>
        <time>2019-04-07T10:28:30Z</time>
      </trkpt>
      <trkpt lat="49.42772" lon="4.15634">
        <ele>117</ele>
        <time>2019-04-07T10:28:31Z</time>
      </trkpt>
      <trkpt lat="49.42774" lon="4.15627">
        <ele>117</ele>
        <time>2019-04-07T10:28:32Z</time>
      </trkpt>
      <trkpt lat="49.42776" lon="4.15619">
        <ele>117</ele>
        <time>2019-04-07T10:28:33Z</time>
      </trkpt>
      <trkpt lat="49.42777" lon="4.15611">
        <ele>117</ele>
        <time>2019-04-07T10:28:34Z</time>
      </trkpt>
      <trkpt lat="49.42778" lon="4.15603">
        <ele>117</ele>
        <time>2019-04-07T10:28:35Z</time>
      </trkpt>
      <trkpt lat="49.42779" lon="4.15595">
        <ele>117</ele>
        <time>2019-04-07T10:28:36Z</time>
      </trkpt>
      <trkpt lat="49.4278" lon="4.15588">
        <ele>117</ele>
        <time>2019-04-07T10:28:37Z</time>
      </trkpt>
      <trkpt lat="49.4278" lon="4.1558">
        <ele>117</ele>
        <time>2019-04-07T10:28:38Z</time>
      </trkpt>
      <trkpt lat="49.42781" lon="4.15573">
        <ele>117</ele>
        <time>2019-04-07T10:28:39Z</time>
      </trkpt>
      <trkpt lat="49.42781" lon="4.15565">
        <ele>117</ele>
        <time>2019-04-07T10:28:40Z</time>
      </trkpt>
      <trkpt lat="49.42781" lon="4.15558">
        <ele>117</ele>
        <time>2019-04-07T10:28:41Z</time>
      </trkpt>
      <trkpt lat="49.42781" lon="4.1555">
        <ele>117</ele>
        <time>2019-04-07T10:28:42Z</time>
      </trkpt>
      <trkpt lat="49.42782" lon="4.15543">
        <ele>117</ele>
        <time>2019-04-07T10:28:43Z</time>
      </trkpt>
      <trkpt lat="49.42782" lon="4.15535">
        <ele>117</ele>
        <time>2019-04-07T10:28:44Z</time>
      </trkpt>
      <trkpt lat="49.42782" lon="4.15528">
        <ele>117</ele>
        <time>2019-04-07T10:28:45Z</time>
      </trkpt>
      <trkpt lat="49.42782" lon="4.1552">
        <ele>117</ele>
        <time>2019-04-07T10:28:46Z</time>
      </trkpt>
      <trkpt lat="49.42782" lon="4.15512">
        <ele>117</ele>
        <time>2019-04-07T10:28:47Z</time>
      </trkpt>
      <trkpt lat="49.42782" lon="4.15505">
        <ele>118</ele>
        <time>2019-04-07T10:28:48Z</time>
      </trkpt>
      <trkpt lat="49.42782" lon="4.15498">
        <ele>118</ele>
        <time>2019-04-07T10:28:49Z</time>
      </trkpt>
      <trkpt lat="49.42782" lon="4.1549">
        <ele>118</ele>
        <time>2019-04-07T10:28:50Z</time>
      </trkpt>
      <trkpt lat="49.42782" lon="4.15483">
        <ele>118</ele>
        <time>2019-04-07T10:28:51Z</time>
      </trkpt>
      <trkpt lat="49.42782" lon="4.15475">
        <ele>118</ele>
        <time>2019-04-07T10:28:52Z</time>
      </trkpt>
      <trkpt lat="49.42783" lon="4.15468">
        <ele>118</ele>
        <time>2019-04-07T10:28:53Z</time>
      </trkpt>
      <trkpt lat="49.42783" lon="4.1546">
        <ele>118</ele>
        <time>2019-04-07T10:28:54Z</time>
      </trkpt>
      <trkpt lat="49.42783" lon="4.15452">
        <ele>118</ele>
        <time>2019-04-07T10:28:55Z</time>
      </trkpt>
      <trkpt lat="49.42783" lon="4.15445">
        <ele>118</ele>
        <time>2019-04-07T10:28:56Z</time>
      </trkpt>
      <trkpt lat="49.42783" lon="4.15438">
        <ele>118</ele>
        <time>2019-04-07T10:28:57Z</time>
      </trkpt>
      <trkpt lat="49.42783" lon="4.15431">
        <ele>118</ele>
        <time>2019-04-07T10:28:58Z</time>
      </trkpt>
      <trkpt lat="49.42783" lon="4.15423">
        <ele>118</ele>
        <time>2019-04-07T10:28:59Z</time>
      </trkpt>
      <trkpt lat="49.42783" lon="4.15416">
        <ele>118</ele>
        <time>2019-04-07T10:29:00Z</time>
      </trkpt>
      <trkpt lat="49.42784" lon="4.15409">
        <ele>118</ele>
        <time>2019-04-07T10:29:01Z</time>
      </trkpt>
      <trkpt lat="49.42784" lon="4.15402">
        <ele>118</ele>
        <time>2019-04-07T10:29:02Z</time>
      </trkpt>
      <trkpt lat="49.42784" lon="4.15394">
        <ele>118</ele>
        <time>2019-04-07T10:29:03Z</time>
      </trkpt>
      <trkpt lat="49.42784" lon="4.15387">
        <ele>118</ele>
        <time>2019-04-07T10:29:04Z</time>
      </trkpt>
      <trkpt lat="49.42784" lon="4.1538">
        <ele>118</ele>
        <time>2019-04-07T10:29:05Z</time>
      </trkpt>
      <trkpt lat="49.42784" lon="4.15374">
        <ele>118</ele>
        <time>2019-04-07T10:29:06Z</time>
      </trkpt>
      <trkpt lat="49.42785" lon="4.15367">
        <ele>118</ele>
        <time>2019-04-07T10:29:07Z</time>
      </trkpt>
      <trkpt lat="49.42785" lon="4.1536">
        <ele>118</ele>
        <time>2019-04-07T10:29:08Z</time>
      </trkpt>
      <trkpt lat="49.42785" lon="4.15352">
        <ele>118</ele>
        <time>2019-04-07T10:29:09Z</time>
      </trkpt>
      <trkpt lat="49.42785" lon="4.15345">
        <ele>118</ele>
        <time>2019-04-07T10:29:10Z</time>
      </trkpt>
      <trkpt lat="49.42785" lon="4.15337">
        <ele>118</ele>
        <time>2019-04-07T10:29:11Z</time>
      </trkpt>
      <trkpt lat="49.42785" lon="4.1533">
        <ele>118</ele>
        <time>2019-04-07T10:29:12Z</time>
      </trkpt>
      <trkpt lat="49.42785" lon="4.15322">
        <ele>118</ele>
        <time>2019-04-07T10:29:13Z</time>
      </trkpt>
      <trkpt lat="49.42785" lon="4.15315">
        <ele>118</ele>
        <time>2019-04-07T10:29:14Z</time>
      </trkpt>
      <trkpt lat="49.42785" lon="4.153">
        <ele>118</ele>
        <time>2019-04-07T10:29:16Z</time>
      </trkpt>
      <trkpt lat="49.42786" lon="4.15292">
        <ele>118</ele>
        <time>2019-04-07T10:29:17Z</time>
      </trkpt>
      <trkpt lat="49.42786" lon="4.15285">
        <ele>118</ele>
        <time>2019-04-07T10:29:18Z</time>
      </trkpt>
      <trkpt lat="49.42786" lon="4.15278">
        <ele>118</ele>
        <time>2019-04-07T10:29:19Z</time>
      </trkpt>
      <trkpt lat="49.42786" lon="4.1527">
        <ele>118</ele>
        <time>2019-04-07T10:29:20Z</time>
      </trkpt>
      <trkpt lat="49.42786" lon="4.15262">
        <ele>118</ele>
        <time>2019-04-07T10:29:21Z</time>
      </trkpt>
      <trkpt lat="49.42786" lon="4.15255">
        <ele>118</ele>
        <time>2019-04-07T10:29:22Z</time>
      </trkpt>
      <trkpt lat="49.42786" lon="4.15248">
        <ele>118</ele>
        <time>2019-04-07T10:29:23Z</time>
      </trkpt>
      <trkpt lat="49.42786" lon="4.15242">
        <ele>118</ele>
        <time>2019-04-07T10:29:24Z</time>
      </trkpt>
      <trkpt lat="49.42786" lon="4.15235">
        <ele>118</ele>
        <time>2019-04-07T10:29:25Z</time>
      </trkpt>
      <trkpt lat="49.42786" lon="4.15229">
        <ele>118</ele>
        <time>2019-04-07T10:29:26Z</time>
      </trkpt>
      <trkpt lat="49.42786" lon="4.15222">
        <ele>118</ele>
        <time>2019-04-07T10:29:27Z</time>
      </trkpt>
      <trkpt lat="49.42786" lon="4.15215">
        <ele>118</ele>
        <time>2019-04-07T10:29:28Z</time>
      </trkpt>
      <trkpt lat="49.42786" lon="4.15208">
        <ele>118</ele>
        <time>2019-04-07T10:29:29Z</time>
      </trkpt>
      <trkpt lat="49.42786" lon="4.152">
        <ele>118</ele>
        <time>2019-04-07T10:29:30Z</time>
      </trkpt>
      <trkpt lat="49.42786" lon="4.15193">
        <ele>118</ele>
        <time>2019-04-07T10:29:31Z</time>
      </trkpt>
      <trkpt lat="49.42786" lon="4.15185">
        <ele>118</ele>
        <time>2019-04-07T10:29:32Z</time>
      </trkpt>
      <trkpt lat="49.42786" lon="4.15178">
        <ele>118</ele>
        <time>2019-04-07T10:29:33Z</time>
      </trkpt>
      <trkpt lat="49.42786" lon="4.15169">
        <ele>118</ele>
        <time>2019-04-07T10:29:34Z</time>
      </trkpt>
      <trkpt lat="49.42786" lon="4.15161">
        <ele>118</ele>
        <time>2019-04-07T10:29:35Z</time>
      </trkpt>
      <trkpt lat="49.42786" lon="4.15154">
        <ele>118</ele>
        <time>2019-04-07T10:29:36Z</time>
      </trkpt>
      <trkpt lat="49.42786" lon="4.15146">
        <ele>118</ele>
        <time>2019-04-07T10:29:37Z</time>
      </trkpt>
      <trkpt lat="49.42786" lon="4.15139">
        <ele>118</ele>
        <time>2019-04-07T10:29:38Z</time>
      </trkpt>
      <trkpt lat="49.42786" lon="4.15133">
        <ele>118</ele>
        <time>2019-04-07T10:29:39Z</time>
      </trkpt>
      <trkpt lat="49.42786" lon="4.15126">
        <ele>118</ele>
        <time>2019-04-07T10:29:40Z</time>
      </trkpt>
      <trkpt lat="49.42787" lon="4.15119">
        <ele>118</ele>
        <time>2019-04-07T10:29:41Z</time>
      </trkpt>
      <trkpt lat="49.42787" lon="4.15112">
        <ele>118</ele>
        <time>2019-04-07T10:29:42Z</time>
      </trkpt>
      <trkpt lat="49.42787" lon="4.15105">
        <ele>119</ele>
        <time>2019-04-07T10:29:43Z</time>
      </trkpt>
      <trkpt lat="49.42787" lon="4.15099">
        <ele>119</ele>
        <time>2019-04-07T10:29:44Z</time>
      </trkpt>
      <trkpt lat="49.42787" lon="4.15092">
        <ele>119</ele>
        <time>2019-04-07T10:29:45Z</time>
      </trkpt>
      <trkpt lat="49.42787" lon="4.15085">
        <ele>119</ele>
        <time>2019-04-07T10:29:46Z</time>
      </trkpt>
      <trkpt lat="49.42787" lon="4.15079">
        <ele>119</ele>
        <time>2019-04-07T10:29:47Z</time>
      </trkpt>
      <trkpt lat="49.42787" lon="4.15072">
        <ele>119</ele>
        <time>2019-04-07T10:29:48Z</time>
      </trkpt>
      <trkpt lat="49.42787" lon="4.15065">
        <ele>119</ele>
        <time>2019-04-07T10:29:49Z</time>
      </trkpt>
      <trkpt lat="49.42787" lon="4.15058">
        <ele>119</ele>
        <time>2019-04-07T10:29:50Z</time>
      </trkpt>
      <trkpt lat="49.42787" lon="4.15051">
        <ele>119</ele>
        <time>2019-04-07T10:29:51Z</time>
      </trkpt>
      <trkpt lat="49.42787" lon="4.15044">
        <ele>119</ele>
        <time>2019-04-07T10:29:52Z</time>
      </trkpt>
      <trkpt lat="49.42787" lon="4.15037">
        <ele>119</ele>
        <time>2019-04-07T10:29:53Z</time>
      </trkpt>
      <trkpt lat="49.42787" lon="4.1503">
        <ele>119</ele>
        <time>2019-04-07T10:29:54Z</time>
      </trkpt>
      <trkpt lat="49.42788" lon="4.15023">
        <ele>119</ele>
        <time>2019-04-07T10:29:55Z</time>
      </trkpt>
      <trkpt lat="49.42787" lon="4.15016">
        <ele>119</ele>
        <time>2019-04-07T10:29:56Z</time>
      </trkpt>
      <trkpt lat="49.42787" lon="4.1501">
        <ele>120</ele>
        <time>2019-04-07T10:29:57Z</time>
      </trkpt>
      <trkpt lat="49.42788" lon="4.15003">
        <ele>120</ele>
        <time>2019-04-07T10:29:58Z</time>
      </trkpt>
      <trkpt lat="49.42788" lon="4.14996">
        <ele>120</ele>
        <time>2019-04-07T10:29:59Z</time>
      </trkpt>
      <trkpt lat="49.42788" lon="4.14989">
        <ele>120</ele>
        <time>2019-04-07T10:30:00Z</time>
      </trkpt>
      <trkpt lat="49.42788" lon="4.14982">
        <ele>120</ele>
        <time>2019-04-07T10:30:01Z</time>
      </trkpt>
      <trkpt lat="49.42788" lon="4.14975">
        <ele>120</ele>
        <time>2019-04-07T10:30:02Z</time>
      </trkpt>
      <trkpt lat="49.42787" lon="4.14968">
        <ele>120</ele>
        <time>2019-04-07T10:30:03Z</time>
      </trkpt>
      <trkpt lat="49.42787" lon="4.14962">
        <ele>120</ele>
        <time>2019-04-07T10:30:04Z</time>
      </trkpt>
      <trkpt lat="49.42787" lon="4.14955">
        <ele>120</ele>
        <time>2019-04-07T10:30:05Z</time>
      </trkpt>
      <trkpt lat="49.42786" lon="4.14948">
        <ele>120</ele>
        <time>2019-04-07T10:30:06Z</time>
      </trkpt>
      <trkpt lat="49.42786" lon="4.14941">
        <ele>120</ele>
        <time>2019-04-07T10:30:07Z</time>
      </trkpt>
      <trkpt lat="49.42785" lon="4.14934">
        <ele>120</ele>
        <time>2019-04-07T10:30:08Z</time>
      </trkpt>
      <trkpt lat="49.42785" lon="4.14927">
        <ele>120</ele>
        <time>2019-04-07T10:30:09Z</time>
      </trkpt>
      <trkpt lat="49.42784" lon="4.1492">
        <ele>120</ele>
        <time>2019-04-07T10:30:10Z</time>
      </trkpt>
      <trkpt lat="49.42783" lon="4.14913">
        <ele>120</ele>
        <time>2019-04-07T10:30:11Z</time>
      </trkpt>
      <trkpt lat="49.42782" lon="4.14905">
        <ele>120</ele>
        <time>2019-04-07T10:30:12Z</time>
      </trkpt>
      <trkpt lat="49.42782" lon="4.14899">
        <ele>120</ele>
        <time>2019-04-07T10:30:13Z</time>
      </trkpt>
      <trkpt lat="49.42781" lon="4.14892">
        <ele>120</ele>
        <time>2019-04-07T10:30:14Z</time>
      </trkpt>
      <trkpt lat="49.42781" lon="4.14885">
        <ele>120</ele>
        <time>2019-04-07T10:30:15Z</time>
      </trkpt>
      <trkpt lat="49.4278" lon="4.14878">
        <ele>120</ele>
        <time>2019-04-07T10:30:16Z</time>
      </trkpt>
      <trkpt lat="49.42779" lon="4.14872">
        <ele>120</ele>
        <time>2019-04-07T10:30:17Z</time>
      </trkpt>
      <trkpt lat="49.42778" lon="4.14865">
        <ele>120</ele>
        <time>2019-04-07T10:30:18Z</time>
      </trkpt>
      <trkpt lat="49.42777" lon="4.14857">
        <ele>119</ele>
        <time>2019-04-07T10:30:19Z</time>
      </trkpt>
      <trkpt lat="49.42776" lon="4.1485">
        <ele>119</ele>
        <time>2019-04-07T10:30:20Z</time>
      </trkpt>
      <trkpt lat="49.42775" lon="4.14843">
        <ele>120</ele>
        <time>2019-04-07T10:30:21Z</time>
      </trkpt>
      <trkpt lat="49.42774" lon="4.14835">
        <ele>120</ele>
        <time>2019-04-07T10:30:22Z</time>
      </trkpt>
      <trkpt lat="49.42773" lon="4.14827">
        <ele>120</ele>
        <time>2019-04-07T10:30:23Z</time>
      </trkpt>
      <trkpt lat="49.42771" lon="4.14819">
        <ele>120</ele>
        <time>2019-04-07T10:30:24Z</time>
      </trkpt>
      <trkpt lat="49.4277" lon="4.14811">
        <ele>120</ele>
        <time>2019-04-07T10:30:25Z</time>
      </trkpt>
      <trkpt lat="49.42769" lon="4.14804">
        <ele>120</ele>
        <time>2019-04-07T10:30:26Z</time>
      </trkpt>
      <trkpt lat="49.42768" lon="4.14797">
        <ele>120</ele>
        <time>2019-04-07T10:30:27Z</time>
      </trkpt>
      <trkpt lat="49.42768" lon="4.14789">
        <ele>120</ele>
        <time>2019-04-07T10:30:28Z</time>
      </trkpt>
      <trkpt lat="49.42767" lon="4.14781">
        <ele>120</ele>
        <time>2019-04-07T10:30:29Z</time>
      </trkpt>
      <trkpt lat="49.42766" lon="4.14773">
        <ele>119</ele>
        <time>2019-04-07T10:30:30Z</time>
      </trkpt>
      <trkpt lat="49.42765" lon="4.14765">
        <ele>119</ele>
        <time>2019-04-07T10:30:31Z</time>
      </trkpt>
      <trkpt lat="49.42763" lon="4.14758">
        <ele>119</ele>
        <time>2019-04-07T10:30:32Z</time>
      </trkpt>
      <trkpt lat="49.42762" lon="4.1475">
        <ele>119</ele>
        <time>2019-04-07T10:30:33Z</time>
      </trkpt>
      <trkpt lat="49.42761" lon="4.14742">
        <ele>119</ele>
        <time>2019-04-07T10:30:34Z</time>
      </trkpt>
      <trkpt lat="49.4276" lon="4.14735">
        <ele>119</ele>
        <time>2019-04-07T10:30:35Z</time>
      </trkpt>
      <trkpt lat="49.42759" lon="4.14726">
        <ele>119</ele>
        <time>2019-04-07T10:30:36Z</time>
      </trkpt>
      <trkpt lat="49.42758" lon="4.14718">
        <ele>119</ele>
        <time>2019-04-07T10:30:37Z</time>
      </trkpt>
      <trkpt lat="49.42757" lon="4.1471">
        <ele>120</ele>
        <time>2019-04-07T10:30:38Z</time>
      </trkpt>
      <trkpt lat="49.42755" lon="4.14701">
        <ele>119</ele>
        <time>2019-04-07T10:30:39Z</time>
      </trkpt>
      <trkpt lat="49.42754" lon="4.14692">
        <ele>119</ele>
        <time>2019-04-07T10:30:40Z</time>
      </trkpt>
      <trkpt lat="49.42753" lon="4.14684">
        <ele>119</ele>
        <time>2019-04-07T10:30:41Z</time>
      </trkpt>
      <trkpt lat="49.42752" lon="4.14676">
        <ele>119</ele>
        <time>2019-04-07T10:30:42Z</time>
      </trkpt>
      <trkpt lat="49.42751" lon="4.14668">
        <ele>119</ele>
        <time>2019-04-07T10:30:43Z</time>
      </trkpt>
      <trkpt lat="49.42751" lon="4.1466">
        <ele>119</ele>
        <time>2019-04-07T10:30:44Z</time>
      </trkpt>
      <trkpt lat="49.4275" lon="4.14651">
        <ele>119</ele>
        <time>2019-04-07T10:30:45Z</time>
      </trkpt>
      <trkpt lat="49.42748" lon="4.14643">
        <ele>118</ele>
        <time>2019-04-07T10:30:46Z</time>
      </trkpt>
      <trkpt lat="49.42747" lon="4.14634">
        <ele>118</ele>
        <time>2019-04-07T10:30:47Z</time>
      </trkpt>
      <trkpt lat="49.42746" lon="4.14624">
        <ele>118</ele>
        <time>2019-04-07T10:30:48Z</time>
      </trkpt>
      <trkpt lat="49.42745" lon="4.14615">
        <ele>118</ele>
        <time>2019-04-07T10:30:49Z</time>
      </trkpt>
      <trkpt lat="49.42743" lon="4.14607">
        <ele>118</ele>
        <time>2019-04-07T10:30:50Z</time>
      </trkpt>
      <trkpt lat="49.42742" lon="4.14598">
        <ele>118</ele>
        <time>2019-04-07T10:30:51Z</time>
      </trkpt>
      <trkpt lat="49.42741" lon="4.14589">
        <ele>118</ele>
        <time>2019-04-07T10:30:52Z</time>
      </trkpt>
      <trkpt lat="49.4274" lon="4.1458">
        <ele>118</ele>
        <time>2019-04-07T10:30:53Z</time>
      </trkpt>
      <trkpt lat="49.42739" lon="4.14571">
        <ele>118</ele>
        <time>2019-04-07T10:30:54Z</time>
      </trkpt>
      <trkpt lat="49.42737" lon="4.14562">
        <ele>118</ele>
        <time>2019-04-07T10:30:55Z</time>
      </trkpt>
      <trkpt lat="49.42736" lon="4.14553">
        <ele>118</ele>
        <time>2019-04-07T10:30:56Z</time>
      </trkpt>
      <trkpt lat="49.42735" lon="4.14544">
        <ele>118</ele>
        <time>2019-04-07T10:30:57Z</time>
      </trkpt>
      <trkpt lat="49.42734" lon="4.14534">
        <ele>118</ele>
        <time>2019-04-07T10:30:58Z</time>
      </trkpt>
      <trkpt lat="49.42733" lon="4.14525">
        <ele>117</ele>
        <time>2019-04-07T10:30:59Z</time>
      </trkpt>
      <trkpt lat="49.42731" lon="4.14516">
        <ele>117</ele>
        <time>2019-04-07T10:31:00Z</time>
      </trkpt>
      <trkpt lat="49.4273" lon="4.14507">
        <ele>117</ele>
        <time>2019-04-07T10:31:01Z</time>
      </trkpt>
      <trkpt lat="49.42728" lon="4.14499">
        <ele>117</ele>
        <time>2019-04-07T10:31:02Z</time>
      </trkpt>
      <trkpt lat="49.42727" lon="4.1449">
        <ele>117</ele>
        <time>2019-04-07T10:31:03Z</time>
      </trkpt>
      <trkpt lat="49.42726" lon="4.14482">
        <ele>117</ele>
        <time>2019-04-07T10:31:04Z</time>
      </trkpt>
      <trkpt lat="49.42724" lon="4.14474">
        <ele>117</ele>
        <time>2019-04-07T10:31:05Z</time>
      </trkpt>
      <trkpt lat="49.42723" lon="4.14465">
        <ele>117</ele>
        <time>2019-04-07T10:31:06Z</time>
      </trkpt>
      <trkpt lat="49.42722" lon="4.14457">
        <ele>117</ele>
        <time>2019-04-07T10:31:07Z</time>
      </trkpt>
      <trkpt lat="49.42721" lon="4.14449">
        <ele>118</ele>
        <time>2019-04-07T10:31:08Z</time>
      </trkpt>
      <trkpt lat="49.4272" lon="4.1444">
        <ele>118</ele>
        <time>2019-04-07T10:31:09Z</time>
      </trkpt>
      <trkpt lat="49.42719" lon="4.14433">
        <ele>117</ele>
        <time>2019-04-07T10:31:10Z</time>
      </trkpt>
      <trkpt lat="49.42718" lon="4.14425">
        <ele>117</ele>
        <time>2019-04-07T10:31:11Z</time>
      </trkpt>
      <trkpt lat="49.42717" lon="4.14417">
        <ele>117</ele>
        <time>2019-04-07T10:31:12Z</time>
      </trkpt>
      <trkpt lat="49.42716" lon="4.14409">
        <ele>118</ele>
        <time>2019-04-07T10:31:13Z</time>
      </trkpt>
      <trkpt lat="49.42715" lon="4.14401">
        <ele>118</ele>
        <time>2019-04-07T10:31:14Z</time>
      </trkpt>
      <trkpt lat="49.42714" lon="4.14393">
        <ele>118</ele>
        <time>2019-04-07T10:31:15Z</time>
      </trkpt>
      <trkpt lat="49.42712" lon="4.14385">
        <ele>118</ele>
        <time>2019-04-07T10:31:16Z</time>
      </trkpt>
      <trkpt lat="49.42711" lon="4.14377">
        <ele>118</ele>
        <time>2019-04-07T10:31:17Z</time>
      </trkpt>
      <trkpt lat="49.4271" lon="4.1437">
        <ele>118</ele>
        <time>2019-04-07T10:31:18Z</time>
      </trkpt>
      <trkpt lat="49.42709" lon="4.14361">
        <ele>118</ele>
        <time>2019-04-07T10:31:19Z</time>
      </trkpt>
      <trkpt lat="49.42708" lon="4.14354">
        <ele>118</ele>
        <time>2019-04-07T10:31:20Z</time>
      </trkpt>
      <trkpt lat="49.42707" lon="4.14346">
        <ele>118</ele>
        <time>2019-04-07T10:31:21Z</time>
      </trkpt>
      <trkpt lat="49.42706" lon="4.14338">
        <ele>118</ele>
        <time>2019-04-07T10:31:22Z</time>
      </trkpt>
      <trkpt lat="49.42704" lon="4.1433">
        <ele>118</ele>
        <time>2019-04-07T10:31:23Z</time>
      </trkpt>
      <trkpt lat="49.42703" lon="4.14322">
        <ele>118</ele>
        <time>2019-04-07T10:31:24Z</time>
      </trkpt>
      <trkpt lat="49.42701" lon="4.14314">
        <ele>118</ele>
        <time>2019-04-07T10:31:25Z</time>
      </trkpt>
      <trkpt lat="49.427" lon="4.14305">
        <ele>118</ele>
        <time>2019-04-07T10:31:26Z</time>
      </trkpt>
      <trkpt lat="49.42698" lon="4.14297">
        <ele>118</ele>
        <time>2019-04-07T10:31:27Z</time>
      </trkpt>
      <trkpt lat="49.42697" lon="4.14289">
        <ele>118</ele>
        <time>2019-04-07T10:31:28Z</time>
      </trkpt>
      <trkpt lat="49.42695" lon="4.14281">
        <ele>118</ele>
        <time>2019-04-07T10:31:29Z</time>
      </trkpt>
      <trkpt lat="49.42694" lon="4.14274">
        <ele>118</ele>
        <time>2019-04-07T10:31:30Z</time>
      </trkpt>
      <trkpt lat="49.42692" lon="4.14266">
        <ele>118</ele>
        <time>2019-04-07T10:31:31Z</time>
      </trkpt>
      <trkpt lat="49.4269" lon="4.14258">
        <ele>118</ele>
        <time>2019-04-07T10:31:32Z</time>
      </trkpt>
      <trkpt lat="49.42688" lon="4.1425">
        <ele>118</ele>
        <time>2019-04-07T10:31:33Z</time>
      </trkpt>
      <trkpt lat="49.42686" lon="4.14242">
        <ele>118</ele>
        <time>2019-04-07T10:31:34Z</time>
      </trkpt>
      <trkpt lat="49.42685" lon="4.14235">
        <ele>118</ele>
        <time>2019-04-07T10:31:35Z</time>
      </trkpt>
      <trkpt lat="49.42683" lon="4.14228">
        <ele>118</ele>
        <time>2019-04-07T10:31:36Z</time>
      </trkpt>
      <trkpt lat="49.42681" lon="4.14221">
        <ele>118</ele>
        <time>2019-04-07T10:31:37Z</time>
      </trkpt>
      <trkpt lat="49.42679" lon="4.14214">
        <ele>118</ele>
        <time>2019-04-07T10:31:38Z</time>
      </trkpt>
      <trkpt lat="49.42677" lon="4.14207">
        <ele>118</ele>
        <time>2019-04-07T10:31:39Z</time>
      </trkpt>
      <trkpt lat="49.42675" lon="4.14199">
        <ele>118</ele>
        <time>2019-04-07T10:31:40Z</time>
      </trkpt>
      <trkpt lat="49.42673" lon="4.14192">
        <ele>118</ele>
        <time>2019-04-07T10:31:41Z</time>
      </trkpt>
      <trkpt lat="49.4267" lon="4.14185">
        <ele>118</ele>
        <time>2019-04-07T10:31:42Z</time>
      </trkpt>
      <trkpt lat="49.42668" lon="4.14178">
        <ele>118</ele>
        <time>2019-04-07T10:31:43Z</time>
      </trkpt>
      <trkpt lat="49.42665" lon="4.14171">
        <ele>118</ele>
        <time>2019-04-07T10:31:44Z</time>
      </trkpt>
      <trkpt lat="49.42663" lon="4.14164">
        <ele>118</ele>
        <time>2019-04-07T10:31:45Z</time>
      </trkpt>
      <trkpt lat="49.42661" lon="4.14157">
        <ele>118</ele>
        <time>2019-04-07T10:31:46Z</time>
      </trkpt>
      <trkpt lat="49.42659" lon="4.14149">
        <ele>118</ele>
        <time>2019-04-07T10:31:47Z</time>
      </trkpt>
      <trkpt lat="49.42657" lon="4.14141">
        <ele>118</ele>
        <time>2019-04-07T10:31:48Z</time>
      </trkpt>
      <trkpt lat="49.42654" lon="4.14134">
        <ele>118</ele>
        <time>2019-04-07T10:31:49Z</time>
      </trkpt>
      <trkpt lat="49.42652" lon="4.14127">
        <ele>118</ele>
        <time>2019-04-07T10:31:50Z</time>
      </trkpt>
      <trkpt lat="49.42649" lon="4.14119">
        <ele>119</ele>
        <time>2019-04-07T10:31:51Z</time>
      </trkpt>
      <trkpt lat="49.42647" lon="4.14111">
        <ele>118</ele>
        <time>2019-04-07T10:31:52Z</time>
      </trkpt>
      <trkpt lat="49.42643" lon="4.14096">
        <ele>119</ele>
        <time>2019-04-07T10:31:54Z</time>
      </trkpt>
      <trkpt lat="49.4264" lon="4.14088">
        <ele>119</ele>
        <time>2019-04-07T10:31:55Z</time>
      </trkpt>
      <trkpt lat="49.42638" lon="4.1408">
        <ele>118</ele>
        <time>2019-04-07T10:31:56Z</time>
      </trkpt>
      <trkpt lat="49.42636" lon="4.14072">
        <ele>118</ele>
        <time>2019-04-07T10:31:57Z</time>
      </trkpt>
      <trkpt lat="49.42633" lon="4.14064">
        <ele>118</ele>
        <time>2019-04-07T10:31:58Z</time>
      </trkpt>
      <trkpt lat="49.42631" lon="4.14056">
        <ele>118</ele>
        <time>2019-04-07T10:31:59Z</time>
      </trkpt>
      <trkpt lat="49.42629" lon="4.14048">
        <ele>118</ele>
        <time>2019-04-07T10:32:00Z</time>
      </trkpt>
      <trkpt lat="49.42627" lon="4.1404">
        <ele>118</ele>
        <time>2019-04-07T10:32:01Z</time>
      </trkpt>
      <trkpt lat="49.42626" lon="4.14032">
        <ele>118</ele>
        <time>2019-04-07T10:32:02Z</time>
      </trkpt>
      <trkpt lat="49.42624" lon="4.14023">
        <ele>117</ele>
        <time>2019-04-07T10:32:03Z</time>
      </trkpt>
      <trkpt lat="49.42622" lon="4.14015">
        <ele>117</ele>
        <time>2019-04-07T10:32:04Z</time>
      </trkpt>
      <trkpt lat="49.42621" lon="4.14007">
        <ele>117</ele>
        <time>2019-04-07T10:32:05Z</time>
      </trkpt>
      <trkpt lat="49.42619" lon="4.13999">
        <ele>117</ele>
        <time>2019-04-07T10:32:06Z</time>
      </trkpt>
      <trkpt lat="49.42618" lon="4.13992">
        <ele>117</ele>
        <time>2019-04-07T10:32:07Z</time>
      </trkpt>
      <trkpt lat="49.42617" lon="4.13984">
        <ele>117</ele>
        <time>2019-04-07T10:32:08Z</time>
      </trkpt>
      <trkpt lat="49.42615" lon="4.13976">
        <ele>117</ele>
        <time>2019-04-07T10:32:09Z</time>
      </trkpt>
      <trkpt lat="49.42614" lon="4.13968">
        <ele>116</ele>
        <time>2019-04-07T10:32:10Z</time>
      </trkpt>
      <trkpt lat="49.42612" lon="4.13961">
        <ele>116</ele>
        <time>2019-04-07T10:32:11Z</time>
      </trkpt>
      <trkpt lat="49.42611" lon="4.13953">
        <ele>117</ele>
        <time>2019-04-07T10:32:12Z</time>
      </trkpt>
      <trkpt lat="49.42609" lon="4.13945">
        <ele>117</ele>
        <time>2019-04-07T10:32:13Z</time>
      </trkpt>
      <trkpt lat="49.42608" lon="4.13937">
        <ele>117</ele>
        <time>2019-04-07T10:32:14Z</time>
      </trkpt>
      <trkpt lat="49.42606" lon="4.13929">
        <ele>116</ele>
        <time>2019-04-07T10:32:15Z</time>
      </trkpt>
      <trkpt lat="49.42605" lon="4.13921">
        <ele>116</ele>
        <time>2019-04-07T10:32:16Z</time>
      </trkpt>
      <trkpt lat="49.42604" lon="4.13914">
        <ele>116</ele>
        <time>2019-04-07T10:32:17Z</time>
      </trkpt>
      <trkpt lat="49.42603" lon="4.13906">
        <ele>116</ele>
        <time>2019-04-07T10:32:18Z</time>
      </trkpt>
      <trkpt lat="49.42601" lon="4.13899">
        <ele>116</ele>
        <time>2019-04-07T10:32:19Z</time>
      </trkpt>
      <trkpt lat="49.426" lon="4.13891">
        <ele>115</ele>
        <time>2019-04-07T10:32:20Z</time>
      </trkpt>
      <trkpt lat="49.42599" lon="4.13883">
        <ele>115</ele>
        <time>2019-04-07T10:32:21Z</time>
      </trkpt>
      <trkpt lat="49.42597" lon="4.13875">
        <ele>115</ele>
        <time>2019-04-07T10:32:22Z</time>
      </trkpt>
      <trkpt lat="49.42596" lon="4.13867">
        <ele>115</ele>
        <time>2019-04-07T10:32:23Z</time>
      </trkpt>
      <trkpt lat="49.42594" lon="4.13859">
        <ele>115</ele>
        <time>2019-04-07T10:32:24Z</time>
      </trkpt>
      <trkpt lat="49.42593" lon="4.13851">
        <ele>115</ele>
        <time>2019-04-07T10:32:25Z</time>
      </trkpt>
      <trkpt lat="49.42592" lon="4.13843">
        <ele>115</ele>
        <time>2019-04-07T10:32:26Z</time>
      </trkpt>
      <trkpt lat="49.4259" lon="4.13835">
        <ele>115</ele>
        <time>2019-04-07T10:32:27Z</time>
      </trkpt>
      <trkpt lat="49.42589" lon="4.13827">
        <ele>115</ele>
        <time>2019-04-07T10:32:28Z</time>
      </trkpt>
      <trkpt lat="49.42587" lon="4.13819">
        <ele>115</ele>
        <time>2019-04-07T10:32:29Z</time>
      </trkpt>
      <trkpt lat="49.42586" lon="4.13811">
        <ele>115</ele>
        <time>2019-04-07T10:32:30Z</time>
      </trkpt>
      <trkpt lat="49.42585" lon="4.13804">
        <ele>115</ele>
        <time>2019-04-07T10:32:31Z</time>
      </trkpt>
      <trkpt lat="49.42584" lon="4.13796">
        <ele>115</ele>
        <time>2019-04-07T10:32:32Z</time>
      </trkpt>
      <trkpt lat="49.42583" lon="4.13788">
        <ele>115</ele>
        <time>2019-04-07T10:32:33Z</time>
      </trkpt>
      <trkpt lat="49.42582" lon="4.1378">
        <ele>115</ele>
        <time>2019-04-07T10:32:34Z</time>
      </trkpt>
      <trkpt lat="49.42581" lon="4.13772">
        <ele>115</ele>
        <time>2019-04-07T10:32:35Z</time>
      </trkpt>
      <trkpt lat="49.4258" lon="4.13763">
        <ele>115</ele>
        <time>2019-04-07T10:32:36Z</time>
      </trkpt>
      <trkpt lat="49.42579" lon="4.13755">
        <ele>115</ele>
        <time>2019-04-07T10:32:37Z</time>
      </trkpt>
      <trkpt lat="49.42578" lon="4.13747">
        <ele>115</ele>
        <time>2019-04-07T10:32:38Z</time>
      </trkpt>
      <trkpt lat="49.42578" lon="4.13738">
        <ele>115</ele>
        <time>2019-04-07T10:32:39Z</time>
      </trkpt>
      <trkpt lat="49.42577" lon="4.1373">
        <ele>115</ele>
        <time>2019-04-07T10:32:40Z</time>
      </trkpt>
      <trkpt lat="49.42577" lon="4.13721">
        <ele>114</ele>
        <time>2019-04-07T10:32:41Z</time>
      </trkpt>
      <trkpt lat="49.42577" lon="4.13713">
        <ele>115</ele>
        <time>2019-04-07T10:32:42Z</time>
      </trkpt>
      <trkpt lat="49.42577" lon="4.13705">
        <ele>115</ele>
        <time>2019-04-07T10:32:43Z</time>
      </trkpt>
      <trkpt lat="49.42577" lon="4.13697">
        <ele>115</ele>
        <time>2019-04-07T10:32:44Z</time>
      </trkpt>
      <trkpt lat="49.42578" lon="4.13689">
        <ele>114</ele>
        <time>2019-04-07T10:32:45Z</time>
      </trkpt>
      <trkpt lat="49.42578" lon="4.13681">
        <ele>114</ele>
        <time>2019-04-07T10:32:46Z</time>
      </trkpt>
      <trkpt lat="49.42579" lon="4.13672">
        <ele>114</ele>
        <time>2019-04-07T10:32:47Z</time>
      </trkpt>
      <trkpt lat="49.42579" lon="4.13664">
        <ele>114</ele>
        <time>2019-04-07T10:32:48Z</time>
      </trkpt>
      <trkpt lat="49.4258" lon="4.13655">
        <ele>115</ele>
        <time>2019-04-07T10:32:49Z</time>
      </trkpt>
      <trkpt lat="49.4258" lon="4.13646">
        <ele>115</ele>
        <time>2019-04-07T10:32:50Z</time>
      </trkpt>
      <trkpt lat="49.42581" lon="4.13637">
        <ele>114</ele>
        <time>2019-04-07T10:32:51Z</time>
      </trkpt>
      <trkpt lat="49.42582" lon="4.13628">
        <ele>114</ele>
        <time>2019-04-07T10:32:52Z</time>
      </trkpt>
      <trkpt lat="49.42583" lon="4.1362">
        <ele>114</ele>
        <time>2019-04-07T10:32:53Z</time>
      </trkpt>
      <trkpt lat="49.42584" lon="4.13611">
        <ele>114</ele>
        <time>2019-04-07T10:32:54Z</time>
      </trkpt>
      <trkpt lat="49.42585" lon="4.13603">
        <ele>114</ele>
        <time>2019-04-07T10:32:55Z</time>
      </trkpt>
      <trkpt lat="49.42585" lon="4.13595">
        <ele>114</ele>
        <time>2019-04-07T10:32:56Z</time>
      </trkpt>
      <trkpt lat="49.42586" lon="4.13587">
        <ele>114</ele>
        <time>2019-04-07T10:32:57Z</time>
      </trkpt>
      <trkpt lat="49.42587" lon="4.1358">
        <ele>114</ele>
        <time>2019-04-07T10:32:58Z</time>
      </trkpt>
      <trkpt lat="49.42588" lon="4.13572">
        <ele>114</ele>
        <time>2019-04-07T10:32:59Z</time>
      </trkpt>
      <trkpt lat="49.42589" lon="4.13564">
        <ele>114</ele>
        <time>2019-04-07T10:33:00Z</time>
      </trkpt>
      <trkpt lat="49.4259" lon="4.13556">
        <ele>114</ele>
        <time>2019-04-07T10:33:01Z</time>
      </trkpt>
      <trkpt lat="49.4259" lon="4.13548">
        <ele>114</ele>
        <time>2019-04-07T10:33:02Z</time>
      </trkpt>
      <trkpt lat="49.42591" lon="4.1354">
        <ele>114</ele>
        <time>2019-04-07T10:33:03Z</time>
      </trkpt>
      <trkpt lat="49.42591" lon="4.13532">
        <ele>114</ele>
        <time>2019-04-07T10:33:04Z</time>
      </trkpt>
      <trkpt lat="49.42592" lon="4.13523">
        <ele>114</ele>
        <time>2019-04-07T10:33:05Z</time>
      </trkpt>
      <trkpt lat="49.42592" lon="4.13515">
        <ele>114</ele>
        <time>2019-04-07T10:33:06Z</time>
      </trkpt>
      <trkpt lat="49.42593" lon="4.13507">
        <ele>114</ele>
        <time>2019-04-07T10:33:07Z</time>
      </trkpt>
      <trkpt lat="49.42593" lon="4.13498">
        <ele>114</ele>
        <time>2019-04-07T10:33:08Z</time>
      </trkpt>
      <trkpt lat="49.42594" lon="4.1349">
        <ele>114</ele>
        <time>2019-04-07T10:33:09Z</time>
      </trkpt>
      <trkpt lat="49.42595" lon="4.13473">
        <ele>114</ele>
        <time>2019-04-07T10:33:11Z</time>
      </trkpt>
      <trkpt lat="49.42595" lon="4.13465">
        <ele>114</ele>
        <time>2019-04-07T10:33:12Z</time>
      </trkpt>
      <trkpt lat="49.42596" lon="4.13457">
        <ele>114</ele>
        <time>2019-04-07T10:33:13Z</time>
      </trkpt>
      <trkpt lat="49.42596" lon="4.13449">
        <ele>114</ele>
        <time>2019-04-07T10:33:14Z</time>
      </trkpt>
      <trkpt lat="49.42596" lon="4.13441">
        <ele>114</ele>
        <time>2019-04-07T10:33:15Z</time>
      </trkpt>
      <trkpt lat="49.42596" lon="4.13432">
        <ele>114</ele>
        <time>2019-04-07T10:33:16Z</time>
      </trkpt>
      <trkpt lat="49.42596" lon="4.13424">
        <ele>114</ele>
        <time>2019-04-07T10:33:17Z</time>
      </trkpt>
      <trkpt lat="49.42596" lon="4.13416">
        <ele>114</ele>
        <time>2019-04-07T10:33:18Z</time>
      </trkpt>
      <trkpt lat="49.42596" lon="4.13408">
        <ele>114</ele>
        <time>2019-04-07T10:33:19Z</time>
      </trkpt>
      <trkpt lat="49.42597" lon="4.134">
        <ele>114</ele>
        <time>2019-04-07T10:33:20Z</time>
      </trkpt>
      <trkpt lat="49.42597" lon="4.13392">
        <ele>114</ele>
        <time>2019-04-07T10:33:21Z</time>
      </trkpt>
      <trkpt lat="49.42598" lon="4.13384">
        <ele>114</ele>
        <time>2019-04-07T10:33:22Z</time>
      </trkpt>
      <trkpt lat="49.42598" lon="4.13376">
        <ele>114</ele>
        <time>2019-04-07T10:33:23Z</time>
      </trkpt>
      <trkpt lat="49.42598" lon="4.13368">
        <ele>114</ele>
        <time>2019-04-07T10:33:24Z</time>
      </trkpt>
      <trkpt lat="49.42598" lon="4.13359">
        <ele>114</ele>
        <time>2019-04-07T10:33:25Z</time>
      </trkpt>
      <trkpt lat="49.42599" lon="4.13351">
        <ele>114</ele>
        <time>2019-04-07T10:33:26Z</time>
      </trkpt>
      <trkpt lat="49.42599" lon="4.13344">
        <ele>114</ele>
        <time>2019-04-07T10:33:27Z</time>
      </trkpt>
      <trkpt lat="49.42599" lon="4.13336">
        <ele>114</ele>
        <time>2019-04-07T10:33:28Z</time>
      </trkpt>
      <trkpt lat="49.426" lon="4.13329">
        <ele>114</ele>
        <time>2019-04-07T10:33:29Z</time>
      </trkpt>
      <trkpt lat="49.426" lon="4.13321">
        <ele>114</ele>
        <time>2019-04-07T10:33:30Z</time>
      </trkpt>
      <trkpt lat="49.42601" lon="4.13313">
        <ele>114</ele>
        <time>2019-04-07T10:33:31Z</time>
      </trkpt>
      <trkpt lat="49.42601" lon="4.13305">
        <ele>114</ele>
        <time>2019-04-07T10:33:32Z</time>
      </trkpt>
      <trkpt lat="49.42601" lon="4.13297">
        <ele>114</ele>
        <time>2019-04-07T10:33:33Z</time>
      </trkpt>
      <trkpt lat="49.42601" lon="4.13289">
        <ele>114</ele>
        <time>2019-04-07T10:33:34Z</time>
      </trkpt>
      <trkpt lat="49.42601" lon="4.13281">
        <ele>114</ele>
        <time>2019-04-07T10:33:35Z</time>
      </trkpt>
      <trkpt lat="49.42602" lon="4.13273">
        <ele>114</ele>
        <time>2019-04-07T10:33:36Z</time>
      </trkpt>
      <trkpt lat="49.42602" lon="4.13265">
        <ele>114</ele>
        <time>2019-04-07T10:33:37Z</time>
      </trkpt>
      <trkpt lat="49.42602" lon="4.13258">
        <ele>114</ele>
        <time>2019-04-07T10:33:38Z</time>
      </trkpt>
      <trkpt lat="49.42602" lon="4.1325">
        <ele>114</ele>
        <time>2019-04-07T10:33:39Z</time>
      </trkpt>
      <trkpt lat="49.42602" lon="4.13242">
        <ele>114</ele>
        <time>2019-04-07T10:33:40Z</time>
      </trkpt>
      <trkpt lat="49.42603" lon="4.13234">
        <ele>114</ele>
        <time>2019-04-07T10:33:41Z</time>
      </trkpt>
      <trkpt lat="49.42603" lon="4.13227">
        <ele>114</ele>
        <time>2019-04-07T10:33:42Z</time>
      </trkpt>
      <trkpt lat="49.42603" lon="4.13219">
        <ele>114</ele>
        <time>2019-04-07T10:33:43Z</time>
      </trkpt>
      <trkpt lat="49.42603" lon="4.13212">
        <ele>114</ele>
        <time>2019-04-07T10:33:44Z</time>
      </trkpt>
      <trkpt lat="49.42604" lon="4.13204">
        <ele>114</ele>
        <time>2019-04-07T10:33:45Z</time>
      </trkpt>
      <trkpt lat="49.42604" lon="4.13197">
        <ele>114</ele>
        <time>2019-04-07T10:33:46Z</time>
      </trkpt>
      <trkpt lat="49.42604" lon="4.13189">
        <ele>114</ele>
        <time>2019-04-07T10:33:47Z</time>
      </trkpt>
      <trkpt lat="49.42604" lon="4.13181">
        <ele>114</ele>
        <time>2019-04-07T10:33:48Z</time>
      </trkpt>
      <trkpt lat="49.42603" lon="4.13173">
        <ele>114</ele>
        <time>2019-04-07T10:33:49Z</time>
      </trkpt>
      <trkpt lat="49.42603" lon="4.13164">
        <ele>114</ele>
        <time>2019-04-07T10:33:50Z</time>
      </trkpt>
      <trkpt lat="49.42601" lon="4.13155">
        <ele>114</ele>
        <time>2019-04-07T10:33:51Z</time>
      </trkpt>
      <trkpt lat="49.42599" lon="4.13146">
        <ele>114</ele>
        <time>2019-04-07T10:33:52Z</time>
      </trkpt>
      <trkpt lat="49.42597" lon="4.13138">
        <ele>114</ele>
        <time>2019-04-07T10:33:53Z</time>
      </trkpt>
      <trkpt lat="49.42594" lon="4.13129">
        <ele>113</ele>
        <time>2019-04-07T10:33:54Z</time>
      </trkpt>
      <trkpt lat="49.4259" lon="4.1312">
        <ele>113</ele>
        <time>2019-04-07T10:33:55Z</time>
      </trkpt>
      <trkpt lat="49.42586" lon="4.13111">
        <ele>113</ele>
        <time>2019-04-07T10:33:56Z</time>
      </trkpt>
      <trkpt lat="49.42582" lon="4.13102">
        <ele>113</ele>
        <time>2019-04-07T10:33:57Z</time>
      </trkpt>
      <trkpt lat="49.42578" lon="4.13093">
        <ele>113</ele>
        <time>2019-04-07T10:33:58Z</time>
      </trkpt>
      <trkpt lat="49.42574" lon="4.13084">
        <ele>113</ele>
        <time>2019-04-07T10:33:59Z</time>
      </trkpt>
      <trkpt lat="49.4257" lon="4.13074">
        <ele>112</ele>
        <time>2019-04-07T10:34:00Z</time>
      </trkpt>
      <trkpt lat="49.42566" lon="4.13063">
        <ele>113</ele>
        <time>2019-04-07T10:34:01Z</time>
      </trkpt>
      <trkpt lat="49.42563" lon="4.13052">
        <ele>113</ele>
        <time>2019-04-07T10:34:02Z</time>
      </trkpt>
      <trkpt lat="49.42562" lon="4.1304">
        <ele>113</ele>
        <time>2019-04-07T10:34:03Z</time>
      </trkpt>
      <trkpt lat="49.42561" lon="4.13029">
        <ele>113</ele>
        <time>2019-04-07T10:34:04Z</time>
      </trkpt>
      <trkpt lat="49.4256" lon="4.13018">
        <ele>113</ele>
        <time>2019-04-07T10:34:05Z</time>
      </trkpt>
      <trkpt lat="49.42558" lon="4.13007">
        <ele>113</ele>
        <time>2019-04-07T10:34:06Z</time>
      </trkpt>
      <trkpt lat="49.42558" lon="4.12997">
        <ele>113</ele>
        <time>2019-04-07T10:34:07Z</time>
      </trkpt>
      <trkpt lat="49.42557" lon="4.12986">
        <ele>113</ele>
        <time>2019-04-07T10:34:08Z</time>
      </trkpt>
      <trkpt lat="49.42555" lon="4.12976">
        <ele>113</ele>
        <time>2019-04-07T10:34:09Z</time>
      </trkpt>
      <trkpt lat="49.42554" lon="4.12966">
        <ele>113</ele>
        <time>2019-04-07T10:34:10Z</time>
      </trkpt>
      <trkpt lat="49.42553" lon="4.12956">
        <ele>113</ele>
        <time>2019-04-07T10:34:11Z</time>
      </trkpt>
      <trkpt lat="49.42553" lon="4.12947">
        <ele>113</ele>
        <time>2019-04-07T10:34:12Z</time>
      </trkpt>
      <trkpt lat="49.42552" lon="4.12937">
        <ele>113</ele>
        <time>2019-04-07T10:34:13Z</time>
      </trkpt>
      <trkpt lat="49.42551" lon="4.12927">
        <ele>113</ele>
        <time>2019-04-07T10:34:14Z</time>
      </trkpt>
      <trkpt lat="49.4255" lon="4.12917">
        <ele>113</ele>
        <time>2019-04-07T10:34:15Z</time>
      </trkpt>
      <trkpt lat="49.4255" lon="4.12907">
        <ele>113</ele>
        <time>2019-04-07T10:34:16Z</time>
      </trkpt>
      <trkpt lat="49.42549" lon="4.12896">
        <ele>113</ele>
        <time>2019-04-07T10:34:17Z</time>
      </trkpt>
      <trkpt lat="49.42548" lon="4.12887">
        <ele>113</ele>
        <time>2019-04-07T10:34:18Z</time>
      </trkpt>
      <trkpt lat="49.42548" lon="4.12877">
        <ele>113</ele>
        <time>2019-04-07T10:34:19Z</time>
      </trkpt>
      <trkpt lat="49.42547" lon="4.12868">
        <ele>112</ele>
        <time>2019-04-07T10:34:20Z</time>
      </trkpt>
      <trkpt lat="49.42546" lon="4.12858">
        <ele>112</ele>
        <time>2019-04-07T10:34:21Z</time>
      </trkpt>
      <trkpt lat="49.42546" lon="4.12848">
        <ele>112</ele>
        <time>2019-04-07T10:34:22Z</time>
      </trkpt>
      <trkpt lat="49.42545" lon="4.12837">
        <ele>112</ele>
        <time>2019-04-07T10:34:23Z</time>
      </trkpt>
      <trkpt lat="49.42545" lon="4.12827">
        <ele>112</ele>
        <time>2019-04-07T10:34:24Z</time>
      </trkpt>
      <trkpt lat="49.42544" lon="4.12817">
        <ele>113</ele>
        <time>2019-04-07T10:34:25Z</time>
      </trkpt>
      <trkpt lat="49.42543" lon="4.12807">
        <ele>112</ele>
        <time>2019-04-07T10:34:26Z</time>
      </trkpt>
      <trkpt lat="49.42542" lon="4.12797">
        <ele>112</ele>
        <time>2019-04-07T10:34:27Z</time>
      </trkpt>
      <trkpt lat="49.42542" lon="4.12788">
        <ele>111</ele>
        <time>2019-04-07T10:34:28Z</time>
      </trkpt>
      <trkpt lat="49.42541" lon="4.12778">
        <ele>111</ele>
        <time>2019-04-07T10:34:29Z</time>
      </trkpt>
      <trkpt lat="49.42541" lon="4.12768">
        <ele>111</ele>
        <time>2019-04-07T10:34:30Z</time>
      </trkpt>
      <trkpt lat="49.4254" lon="4.12759">
        <ele>111</ele>
        <time>2019-04-07T10:34:31Z</time>
      </trkpt>
      <trkpt lat="49.42539" lon="4.12749">
        <ele>110</ele>
        <time>2019-04-07T10:34:32Z</time>
      </trkpt>
      <trkpt lat="49.42538" lon="4.12739">
        <ele>111</ele>
        <time>2019-04-07T10:34:33Z</time>
      </trkpt>
      <trkpt lat="49.42537" lon="4.12729">
        <ele>111</ele>
        <time>2019-04-07T10:34:34Z</time>
      </trkpt>
      <trkpt lat="49.42537" lon="4.12719">
        <ele>111</ele>
        <time>2019-04-07T10:34:35Z</time>
      </trkpt>
      <trkpt lat="49.42537" lon="4.1271">
        <ele>110</ele>
        <time>2019-04-07T10:34:36Z</time>
      </trkpt>
      <trkpt lat="49.42537" lon="4.127">
        <ele>110</ele>
        <time>2019-04-07T10:34:37Z</time>
      </trkpt>
      <trkpt lat="49.42536" lon="4.12691">
        <ele>111</ele>
        <time>2019-04-07T10:34:38Z</time>
      </trkpt>
      <trkpt lat="49.42534" lon="4.12682">
        <ele>111</ele>
        <time>2019-04-07T10:34:39Z</time>
      </trkpt>
      <trkpt lat="49.42533" lon="4.12673">
        <ele>111</ele>
        <time>2019-04-07T10:34:40Z</time>
      </trkpt>
      <trkpt lat="49.42531" lon="4.12664">
        <ele>111</ele>
        <time>2019-04-07T10:34:41Z</time>
      </trkpt>
      <trkpt lat="49.4253" lon="4.12655">
        <ele>111</ele>
        <time>2019-04-07T10:34:42Z</time>
      </trkpt>
      <trkpt lat="49.42528" lon="4.12645">
        <ele>111</ele>
        <time>2019-04-07T10:34:43Z</time>
      </trkpt>
      <trkpt lat="49.42528" lon="4.12635">
        <ele>111</ele>
        <time>2019-04-07T10:34:44Z</time>
      </trkpt>
      <trkpt lat="49.42527" lon="4.12626">
        <ele>111</ele>
        <time>2019-04-07T10:34:45Z</time>
      </trkpt>
      <trkpt lat="49.42527" lon="4.12616">
        <ele>111</ele>
        <time>2019-04-07T10:34:46Z</time>
      </trkpt>
      <trkpt lat="49.42527" lon="4.12607">
        <ele>111</ele>
        <time>2019-04-07T10:34:47Z</time>
      </trkpt>
      <trkpt lat="49.42529" lon="4.12597">
        <ele>111</ele>
        <time>2019-04-07T10:34:48Z</time>
      </trkpt>
      <trkpt lat="49.4253" lon="4.12587">
        <ele>111</ele>
        <time>2019-04-07T10:34:49Z</time>
      </trkpt>
      <trkpt lat="49.42531" lon="4.12578">
        <ele>110</ele>
        <time>2019-04-07T10:34:50Z</time>
      </trkpt>
      <trkpt lat="49.42532" lon="4.12568">
        <ele>110</ele>
        <time>2019-04-07T10:34:51Z</time>
      </trkpt>
      <trkpt lat="49.42533" lon="4.12557">
        <ele>110</ele>
        <time>2019-04-07T10:34:52Z</time>
      </trkpt>
      <trkpt lat="49.42534" lon="4.12547">
        <ele>110</ele>
        <time>2019-04-07T10:34:53Z</time>
      </trkpt>
      <trkpt lat="49.42535" lon="4.12537">
        <ele>110</ele>
        <time>2019-04-07T10:34:54Z</time>
      </trkpt>
      <trkpt lat="49.42535" lon="4.12526">
        <ele>110</ele>
        <time>2019-04-07T10:34:55Z</time>
      </trkpt>
      <trkpt lat="49.42534" lon="4.12516">
        <ele>110</ele>
        <time>2019-04-07T10:34:56Z</time>
      </trkpt>
      <trkpt lat="49.42533" lon="4.12506">
        <ele>110</ele>
        <time>2019-04-07T10:34:57Z</time>
      </trkpt>
      <trkpt lat="49.42532" lon="4.12497">
        <ele>110</ele>
        <time>2019-04-07T10:34:58Z</time>
      </trkpt>
      <trkpt lat="49.42531" lon="4.12488">
        <ele>110</ele>
        <time>2019-04-07T10:34:59Z</time>
      </trkpt>
      <trkpt lat="49.42529" lon="4.12478">
        <ele>110</ele>
        <time>2019-04-07T10:35:00Z</time>
      </trkpt>
      <trkpt lat="49.42528" lon="4.12468">
        <ele>110</ele>
        <time>2019-04-07T10:35:01Z</time>
      </trkpt>
      <trkpt lat="49.42526" lon="4.12459">
        <ele>111</ele>
        <time>2019-04-07T10:35:02Z</time>
      </trkpt>
      <trkpt lat="49.42524" lon="4.12449">
        <ele>111</ele>
        <time>2019-04-07T10:35:03Z</time>
      </trkpt>
      <trkpt lat="49.42523" lon="4.1244">
        <ele>111</ele>
        <time>2019-04-07T10:35:04Z</time>
      </trkpt>
      <trkpt lat="49.42521" lon="4.12431">
        <ele>111</ele>
        <time>2019-04-07T10:35:05Z</time>
      </trkpt>
      <trkpt lat="49.4252" lon="4.12421">
        <ele>111</ele>
        <time>2019-04-07T10:35:06Z</time>
      </trkpt>
      <trkpt lat="49.42518" lon="4.12412">
        <ele>111</ele>
        <time>2019-04-07T10:35:07Z</time>
      </trkpt>
      <trkpt lat="49.42517" lon="4.12403">
        <ele>111</ele>
        <time>2019-04-07T10:35:08Z</time>
      </trkpt>
      <trkpt lat="49.42516" lon="4.12394">
        <ele>111</ele>
        <time>2019-04-07T10:35:09Z</time>
      </trkpt>
      <trkpt lat="49.42514" lon="4.12385">
        <ele>111</ele>
        <time>2019-04-07T10:35:10Z</time>
      </trkpt>
      <trkpt lat="49.42512" lon="4.12376">
        <ele>111</ele>
        <time>2019-04-07T10:35:11Z</time>
      </trkpt>
      <trkpt lat="49.42511" lon="4.12367">
        <ele>111</ele>
        <time>2019-04-07T10:35:12Z</time>
      </trkpt>
      <trkpt lat="49.4251" lon="4.12358">
        <ele>111</ele>
        <time>2019-04-07T10:35:13Z</time>
      </trkpt>
      <trkpt lat="49.42509" lon="4.12349">
        <ele>111</ele>
        <time>2019-04-07T10:35:14Z</time>
      </trkpt>
      <trkpt lat="49.42508" lon="4.1234">
        <ele>111</ele>
        <time>2019-04-07T10:35:15Z</time>
      </trkpt>
      <trkpt lat="49.42507" lon="4.12331">
        <ele>111</ele>
        <time>2019-04-07T10:35:16Z</time>
      </trkpt>
      <trkpt lat="49.42505" lon="4.12322">
        <ele>111</ele>
        <time>2019-04-07T10:35:17Z</time>
      </trkpt>
      <trkpt lat="49.42504" lon="4.12313">
        <ele>111</ele>
        <time>2019-04-07T10:35:18Z</time>
      </trkpt>
      <trkpt lat="49.42503" lon="4.12304">
        <ele>111</ele>
        <time>2019-04-07T10:35:19Z</time>
      </trkpt>
      <trkpt lat="49.42502" lon="4.12295">
        <ele>111</ele>
        <time>2019-04-07T10:35:20Z</time>
      </trkpt>
      <trkpt lat="49.42501" lon="4.12286">
        <ele>111</ele>
        <time>2019-04-07T10:35:21Z</time>
      </trkpt>
      <trkpt lat="49.425" lon="4.12277">
        <ele>111</ele>
        <time>2019-04-07T10:35:22Z</time>
      </trkpt>
      <trkpt lat="49.42499" lon="4.12268">
        <ele>111</ele>
        <time>2019-04-07T10:35:23Z</time>
      </trkpt>
      <trkpt lat="49.42497" lon="4.12259">
        <ele>111</ele>
        <time>2019-04-07T10:35:24Z</time>
      </trkpt>
      <trkpt lat="49.42496" lon="4.1225">
        <ele>111</ele>
        <time>2019-04-07T10:35:25Z</time>
      </trkpt>
      <trkpt lat="49.42495" lon="4.12241">
        <ele>111</ele>
        <time>2019-04-07T10:35:26Z</time>
      </trkpt>
      <trkpt lat="49.42493" lon="4.12233">
        <ele>113</ele>
        <time>2019-04-07T10:35:27Z</time>
      </trkpt>
      <trkpt lat="49.42492" lon="4.12225">
        <ele>113</ele>
        <time>2019-04-07T10:35:28Z</time>
      </trkpt>
      <trkpt lat="49.42491" lon="4.12216">
        <ele>113</ele>
        <time>2019-04-07T10:35:29Z</time>
      </trkpt>
      <trkpt lat="49.4249" lon="4.12209">
        <ele>113</ele>
        <time>2019-04-07T10:35:30Z</time>
      </trkpt>
      <trkpt lat="49.42488" lon="4.12201">
        <ele>114</ele>
        <time>2019-04-07T10:35:31Z</time>
      </trkpt>
      <trkpt lat="49.42487" lon="4.12194">
        <ele>114</ele>
        <time>2019-04-07T10:35:32Z</time>
      </trkpt>
      <trkpt lat="49.42486" lon="4.12187">
        <ele>113</ele>
        <time>2019-04-07T10:35:33Z</time>
      </trkpt>
      <trkpt lat="49.42486" lon="4.1218">
        <ele>113</ele>
        <time>2019-04-07T10:35:34Z</time>
      </trkpt>
      <trkpt lat="49.42485" lon="4.12172">
        <ele>113</ele>
        <time>2019-04-07T10:35:35Z</time>
      </trkpt>
      <trkpt lat="49.42484" lon="4.12165">
        <ele>113</ele>
        <time>2019-04-07T10:35:36Z</time>
      </trkpt>
      <trkpt lat="49.42482" lon="4.12157">
        <ele>113</ele>
        <time>2019-04-07T10:35:37Z</time>
      </trkpt>
      <trkpt lat="49.42481" lon="4.1215">
        <ele>113</ele>
        <time>2019-04-07T10:35:38Z</time>
      </trkpt>
      <trkpt lat="49.4248" lon="4.12143">
        <ele>113</ele>
        <time>2019-04-07T10:35:39Z</time>
      </trkpt>
      <trkpt lat="49.42479" lon="4.12135">
        <ele>113</ele>
        <time>2019-04-07T10:35:40Z</time>
      </trkpt>
      <trkpt lat="49.42477" lon="4.12127">
        <ele>113</ele>
        <time>2019-04-07T10:35:41Z</time>
      </trkpt>
      <trkpt lat="49.42476" lon="4.12119">
        <ele>113</ele>
        <time>2019-04-07T10:35:42Z</time>
      </trkpt>
      <trkpt lat="49.42475" lon="4.12112">
        <ele>113</ele>
        <time>2019-04-07T10:35:43Z</time>
      </trkpt>
      <trkpt lat="49.42474" lon="4.12104">
        <ele>113</ele>
        <time>2019-04-07T10:35:44Z</time>
      </trkpt>
      <trkpt lat="49.42473" lon="4.12096">
        <ele>113</ele>
        <time>2019-04-07T10:35:45Z</time>
      </trkpt>
      <trkpt lat="49.42471" lon="4.12088">
        <ele>113</ele>
        <time>2019-04-07T10:35:46Z</time>
      </trkpt>
      <trkpt lat="49.4247" lon="4.1208">
        <ele>113</ele>
        <time>2019-04-07T10:35:47Z</time>
      </trkpt>
      <trkpt lat="49.42468" lon="4.12072">
        <ele>113</ele>
        <time>2019-04-07T10:35:48Z</time>
      </trkpt>
      <trkpt lat="49.42468" lon="4.12065">
        <ele>113</ele>
        <time>2019-04-07T10:35:49Z</time>
      </trkpt>
      <trkpt lat="49.42467" lon="4.12057">
        <ele>113</ele>
        <time>2019-04-07T10:35:50Z</time>
      </trkpt>
      <trkpt lat="49.42466" lon="4.12048">
        <ele>113</ele>
        <time>2019-04-07T10:35:51Z</time>
      </trkpt>
      <trkpt lat="49.42465" lon="4.1204">
        <ele>113</ele>
        <time>2019-04-07T10:35:52Z</time>
      </trkpt>
      <trkpt lat="49.42465" lon="4.12032">
        <ele>113</ele>
        <time>2019-04-07T10:35:53Z</time>
      </trkpt>
      <trkpt lat="49.42463" lon="4.12024">
        <ele>113</ele>
        <time>2019-04-07T10:35:54Z</time>
      </trkpt>
      <trkpt lat="49.42463" lon="4.12017">
        <ele>113</ele>
        <time>2019-04-07T10:35:55Z</time>
      </trkpt>
      <trkpt lat="49.42462" lon="4.12009">
        <ele>113</ele>
        <time>2019-04-07T10:35:56Z</time>
      </trkpt>
      <trkpt lat="49.42461" lon="4.12001">
        <ele>113</ele>
        <time>2019-04-07T10:35:57Z</time>
      </trkpt>
      <trkpt lat="49.4246" lon="4.11993">
        <ele>114</ele>
        <time>2019-04-07T10:35:58Z</time>
      </trkpt>
      <trkpt lat="49.42459" lon="4.11985">
        <ele>114</ele>
        <time>2019-04-07T10:35:59Z</time>
      </trkpt>
      <trkpt lat="49.42459" lon="4.11977">
        <ele>114</ele>
        <time>2019-04-07T10:36:00Z</time>
      </trkpt>
      <trkpt lat="49.42458" lon="4.11969">
        <ele>114</ele>
        <time>2019-04-07T10:36:01Z</time>
      </trkpt>
      <trkpt lat="49.42457" lon="4.11961">
        <ele>114</ele>
        <time>2019-04-07T10:36:02Z</time>
      </trkpt>
      <trkpt lat="49.42456" lon="4.11953">
        <ele>114</ele>
        <time>2019-04-07T10:36:03Z</time>
      </trkpt>
      <trkpt lat="49.42456" lon="4.11945">
        <ele>114</ele>
        <time>2019-04-07T10:36:04Z</time>
      </trkpt>
      <trkpt lat="49.42455" lon="4.11936">
        <ele>114</ele>
        <time>2019-04-07T10:36:05Z</time>
      </trkpt>
      <trkpt lat="49.42455" lon="4.11928">
        <ele>114</ele>
        <time>2019-04-07T10:36:06Z</time>
      </trkpt>
      <trkpt lat="49.42454" lon="4.1192">
        <ele>114</ele>
        <time>2019-04-07T10:36:07Z</time>
      </trkpt>
      <trkpt lat="49.42453" lon="4.11912">
        <ele>114</ele>
        <time>2019-04-07T10:36:08Z</time>
      </trkpt>
      <trkpt lat="49.42453" lon="4.11903">
        <ele>114</ele>
        <time>2019-04-07T10:36:09Z</time>
      </trkpt>
      <trkpt lat="49.42452" lon="4.11896">
        <ele>114</ele>
        <time>2019-04-07T10:36:10Z</time>
      </trkpt>
      <trkpt lat="49.42451" lon="4.11888">
        <ele>114</ele>
        <time>2019-04-07T10:36:11Z</time>
      </trkpt>
      <trkpt lat="49.42451" lon="4.11881">
        <ele>114</ele>
        <time>2019-04-07T10:36:12Z</time>
      </trkpt>
      <trkpt lat="49.4245" lon="4.11873">
        <ele>114</ele>
        <time>2019-04-07T10:36:13Z</time>
      </trkpt>
      <trkpt lat="49.42449" lon="4.11865">
        <ele>114</ele>
        <time>2019-04-07T10:36:14Z</time>
      </trkpt>
      <trkpt lat="49.42449" lon="4.11857">
        <ele>114</ele>
        <time>2019-04-07T10:36:15Z</time>
      </trkpt>
      <trkpt lat="49.42448" lon="4.11848">
        <ele>114</ele>
        <time>2019-04-07T10:36:16Z</time>
      </trkpt>
      <trkpt lat="49.42447" lon="4.1184">
        <ele>114</ele>
        <time>2019-04-07T10:36:17Z</time>
      </trkpt>
      <trkpt lat="49.42446" lon="4.11832">
        <ele>114</ele>
        <time>2019-04-07T10:36:18Z</time>
      </trkpt>
      <trkpt lat="49.42446" lon="4.11824">
        <ele>113</ele>
        <time>2019-04-07T10:36:19Z</time>
      </trkpt>
      <trkpt lat="49.42445" lon="4.11816">
        <ele>113</ele>
        <time>2019-04-07T10:36:20Z</time>
      </trkpt>
      <trkpt lat="49.42444" lon="4.11808">
        <ele>113</ele>
        <time>2019-04-07T10:36:21Z</time>
      </trkpt>
      <trkpt lat="49.42444" lon="4.118">
        <ele>113</ele>
        <time>2019-04-07T10:36:22Z</time>
      </trkpt>
      <trkpt lat="49.42443" lon="4.11792">
        <ele>113</ele>
        <time>2019-04-07T10:36:23Z</time>
      </trkpt>
      <trkpt lat="49.42443" lon="4.11784">
        <ele>113</ele>
        <time>2019-04-07T10:36:24Z</time>
      </trkpt>
      <trkpt lat="49.42442" lon="4.11776">
        <ele>113</ele>
        <time>2019-04-07T10:36:25Z</time>
      </trkpt>
      <trkpt lat="49.42442" lon="4.11768">
        <ele>113</ele>
        <time>2019-04-07T10:36:26Z</time>
      </trkpt>
      <trkpt lat="49.42441" lon="4.1176">
        <ele>113</ele>
        <time>2019-04-07T10:36:27Z</time>
      </trkpt>
      <trkpt lat="49.4244" lon="4.11752">
        <ele>113</ele>
        <time>2019-04-07T10:36:28Z</time>
      </trkpt>
      <trkpt lat="49.4244" lon="4.11744">
        <ele>113</ele>
        <time>2019-04-07T10:36:29Z</time>
      </trkpt>
      <trkpt lat="49.42439" lon="4.11736">
        <ele>113</ele>
        <time>2019-04-07T10:36:30Z</time>
      </trkpt>
      <trkpt lat="49.42438" lon="4.11728">
        <ele>113</ele>
        <time>2019-04-07T10:36:31Z</time>
      </trkpt>
      <trkpt lat="49.42438" lon="4.1172">
        <ele>113</ele>
        <time>2019-04-07T10:36:32Z</time>
      </trkpt>
      <trkpt lat="49.42437" lon="4.11712">
        <ele>113</ele>
        <time>2019-04-07T10:36:33Z</time>
      </trkpt>
      <trkpt lat="49.42436" lon="4.11703">
        <ele>113</ele>
        <time>2019-04-07T10:36:34Z</time>
      </trkpt>
      <trkpt lat="49.42435" lon="4.11695">
        <ele>113</ele>
        <time>2019-04-07T10:36:35Z</time>
      </trkpt>
      <trkpt lat="49.42435" lon="4.11686">
        <ele>113</ele>
        <time>2019-04-07T10:36:36Z</time>
      </trkpt>
      <trkpt lat="49.42434" lon="4.11678">
        <ele>113</ele>
        <time>2019-04-07T10:36:37Z</time>
      </trkpt>
      <trkpt lat="49.42433" lon="4.11669">
        <ele>113</ele>
        <time>2019-04-07T10:36:38Z</time>
      </trkpt>
      <trkpt lat="49.42432" lon="4.11661">
        <ele>113</ele>
        <time>2019-04-07T10:36:39Z</time>
      </trkpt>
      <trkpt lat="49.42431" lon="4.11652">
        <ele>113</ele>
        <time>2019-04-07T10:36:40Z</time>
      </trkpt>
      <trkpt lat="49.4243" lon="4.11643">
        <ele>113</ele>
        <time>2019-04-07T10:36:41Z</time>
      </trkpt>
      <trkpt lat="49.42429" lon="4.11634">
        <ele>113</ele>
        <time>2019-04-07T10:36:42Z</time>
      </trkpt>
      <trkpt lat="49.42428" lon="4.11625">
        <ele>113</ele>
        <time>2019-04-07T10:36:43Z</time>
      </trkpt>
      <trkpt lat="49.42428" lon="4.11617">
        <ele>113</ele>
        <time>2019-04-07T10:36:44Z</time>
      </trkpt>
      <trkpt lat="49.42427" lon="4.11609">
        <ele>113</ele>
        <time>2019-04-07T10:36:45Z</time>
      </trkpt>
      <trkpt lat="49.42427" lon="4.11601">
        <ele>113</ele>
        <time>2019-04-07T10:36:46Z</time>
      </trkpt>
      <trkpt lat="49.42426" lon="4.11593">
        <ele>113</ele>
        <time>2019-04-07T10:36:47Z</time>
      </trkpt>
      <trkpt lat="49.42426" lon="4.11585">
        <ele>113</ele>
        <time>2019-04-07T10:36:48Z</time>
      </trkpt>
      <trkpt lat="49.42425" lon="4.11576">
        <ele>112</ele>
        <time>2019-04-07T10:36:49Z</time>
      </trkpt>
      <trkpt lat="49.42424" lon="4.11567">
        <ele>112</ele>
        <time>2019-04-07T10:36:50Z</time>
      </trkpt>
      <trkpt lat="49.42424" lon="4.11559">
        <ele>112</ele>
        <time>2019-04-07T10:36:51Z</time>
      </trkpt>
      <trkpt lat="49.42423" lon="4.11551">
        <ele>112</ele>
        <time>2019-04-07T10:36:52Z</time>
      </trkpt>
      <trkpt lat="49.42422" lon="4.11543">
        <ele>112</ele>
        <time>2019-04-07T10:36:53Z</time>
      </trkpt>
      <trkpt lat="49.42422" lon="4.11534">
        <ele>112</ele>
        <time>2019-04-07T10:36:54Z</time>
      </trkpt>
      <trkpt lat="49.42421" lon="4.11526">
        <ele>112</ele>
        <time>2019-04-07T10:36:55Z</time>
      </trkpt>
      <trkpt lat="49.4242" lon="4.11518">
        <ele>112</ele>
        <time>2019-04-07T10:36:56Z</time>
      </trkpt>
      <trkpt lat="49.4242" lon="4.11509">
        <ele>112</ele>
        <time>2019-04-07T10:36:57Z</time>
      </trkpt>
      <trkpt lat="49.42419" lon="4.11501">
        <ele>112</ele>
        <time>2019-04-07T10:36:58Z</time>
      </trkpt>
      <trkpt lat="49.42419" lon="4.11492">
        <ele>112</ele>
        <time>2019-04-07T10:36:59Z</time>
      </trkpt>
      <trkpt lat="49.42418" lon="4.11484">
        <ele>112</ele>
        <time>2019-04-07T10:37:00Z</time>
      </trkpt>
      <trkpt lat="49.42417" lon="4.11476">
        <ele>112</ele>
        <time>2019-04-07T10:37:01Z</time>
      </trkpt>
      <trkpt lat="49.42416" lon="4.11468">
        <ele>112</ele>
        <time>2019-04-07T10:37:02Z</time>
      </trkpt>
      <trkpt lat="49.42415" lon="4.11459">
        <ele>112</ele>
        <time>2019-04-07T10:37:03Z</time>
      </trkpt>
      <trkpt lat="49.42415" lon="4.11451">
        <ele>112</ele>
        <time>2019-04-07T10:37:04Z</time>
      </trkpt>
      <trkpt lat="49.42415" lon="4.11443">
        <ele>112</ele>
        <time>2019-04-07T10:37:05Z</time>
      </trkpt>
      <trkpt lat="49.42414" lon="4.11435">
        <ele>112</ele>
        <time>2019-04-07T10:37:06Z</time>
      </trkpt>
      <trkpt lat="49.42414" lon="4.11426">
        <ele>112</ele>
        <time>2019-04-07T10:37:07Z</time>
      </trkpt>
      <trkpt lat="49.42413" lon="4.11416">
        <ele>112</ele>
        <time>2019-04-07T10:37:08Z</time>
      </trkpt>
      <trkpt lat="49.42412" lon="4.11408">
        <ele>112</ele>
        <time>2019-04-07T10:37:09Z</time>
      </trkpt>
      <trkpt lat="49.42412" lon="4.11399">
        <ele>111</ele>
        <time>2019-04-07T10:37:10Z</time>
      </trkpt>
      <trkpt lat="49.42411" lon="4.11391">
        <ele>112</ele>
        <time>2019-04-07T10:37:11Z</time>
      </trkpt>
      <trkpt lat="49.4241" lon="4.11383">
        <ele>112</ele>
        <time>2019-04-07T10:37:12Z</time>
      </trkpt>
      <trkpt lat="49.42409" lon="4.11374">
        <ele>112</ele>
        <time>2019-04-07T10:37:13Z</time>
      </trkpt>
      <trkpt lat="49.42409" lon="4.11365">
        <ele>112</ele>
        <time>2019-04-07T10:37:14Z</time>
      </trkpt>
      <trkpt lat="49.42408" lon="4.11356">
        <ele>112</ele>
        <time>2019-04-07T10:37:15Z</time>
      </trkpt>
      <trkpt lat="49.42407" lon="4.11347">
        <ele>112</ele>
        <time>2019-04-07T10:37:16Z</time>
      </trkpt>
      <trkpt lat="49.42407" lon="4.11338">
        <ele>112</ele>
        <time>2019-04-07T10:37:17Z</time>
      </trkpt>
      <trkpt lat="49.42406" lon="4.11329">
        <ele>112</ele>
        <time>2019-04-07T10:37:18Z</time>
      </trkpt>
      <trkpt lat="49.42405" lon="4.1132">
        <ele>112</ele>
        <time>2019-04-07T10:37:19Z</time>
      </trkpt>
      <trkpt lat="49.42405" lon="4.11312">
        <ele>112</ele>
        <time>2019-04-07T10:37:20Z</time>
      </trkpt>
      <trkpt lat="49.42404" lon="4.11303">
        <ele>112</ele>
        <time>2019-04-07T10:37:21Z</time>
      </trkpt>
      <trkpt lat="49.42403" lon="4.11295">
        <ele>112</ele>
        <time>2019-04-07T10:37:22Z</time>
      </trkpt>
      <trkpt lat="49.42402" lon="4.11286">
        <ele>112</ele>
        <time>2019-04-07T10:37:23Z</time>
      </trkpt>
      <trkpt lat="49.42402" lon="4.11276">
        <ele>113</ele>
        <time>2019-04-07T10:37:24Z</time>
      </trkpt>
      <trkpt lat="49.42401" lon="4.11267">
        <ele>112</ele>
        <time>2019-04-07T10:37:25Z</time>
      </trkpt>
      <trkpt lat="49.42401" lon="4.11259">
        <ele>112</ele>
        <time>2019-04-07T10:37:26Z</time>
      </trkpt>
      <trkpt lat="49.424" lon="4.1125">
        <ele>112</ele>
        <time>2019-04-07T10:37:27Z</time>
      </trkpt>
      <trkpt lat="49.424" lon="4.11242">
        <ele>112</ele>
        <time>2019-04-07T10:37:28Z</time>
      </trkpt>
      <trkpt lat="49.42399" lon="4.11233">
        <ele>112</ele>
        <time>2019-04-07T10:37:29Z</time>
      </trkpt>
      <trkpt lat="49.42398" lon="4.11225">
        <ele>112</ele>
        <time>2019-04-07T10:37:30Z</time>
      </trkpt>
      <trkpt lat="49.42398" lon="4.11217">
        <ele>112</ele>
        <time>2019-04-07T10:37:31Z</time>
      </trkpt>
      <trkpt lat="49.42397" lon="4.11209">
        <ele>112</ele>
        <time>2019-04-07T10:37:32Z</time>
      </trkpt>
      <trkpt lat="49.42396" lon="4.112">
        <ele>112</ele>
        <time>2019-04-07T10:37:33Z</time>
      </trkpt>
      <trkpt lat="49.42395" lon="4.11191">
        <ele>112</ele>
        <time>2019-04-07T10:37:34Z</time>
      </trkpt>
      <trkpt lat="49.42395" lon="4.11182">
        <ele>112</ele>
        <time>2019-04-07T10:37:35Z</time>
      </trkpt>
      <trkpt lat="49.42394" lon="4.11165">
        <ele>112</ele>
        <time>2019-04-07T10:37:37Z</time>
      </trkpt>
      <trkpt lat="49.42393" lon="4.11157">
        <ele>112</ele>
        <time>2019-04-07T10:37:38Z</time>
      </trkpt>
      <trkpt lat="49.42393" lon="4.11149">
        <ele>112</ele>
        <time>2019-04-07T10:37:39Z</time>
      </trkpt>
      <trkpt lat="49.42392" lon="4.1114">
        <ele>112</ele>
        <time>2019-04-07T10:37:40Z</time>
      </trkpt>
      <trkpt lat="49.42392" lon="4.11131">
        <ele>112</ele>
        <time>2019-04-07T10:37:41Z</time>
      </trkpt>
      <trkpt lat="49.42391" lon="4.11122">
        <ele>112</ele>
        <time>2019-04-07T10:37:42Z</time>
      </trkpt>
      <trkpt lat="49.4239" lon="4.11113">
        <ele>112</ele>
        <time>2019-04-07T10:37:43Z</time>
      </trkpt>
      <trkpt lat="49.42389" lon="4.11104">
        <ele>112</ele>
        <time>2019-04-07T10:37:44Z</time>
      </trkpt>
      <trkpt lat="49.42388" lon="4.11095">
        <ele>112</ele>
        <time>2019-04-07T10:37:45Z</time>
      </trkpt>
      <trkpt lat="49.42388" lon="4.11086">
        <ele>112</ele>
        <time>2019-04-07T10:37:46Z</time>
      </trkpt>
      <trkpt lat="49.42387" lon="4.11077">
        <ele>112</ele>
        <time>2019-04-07T10:37:47Z</time>
      </trkpt>
      <trkpt lat="49.42387" lon="4.11068">
        <ele>112</ele>
        <time>2019-04-07T10:37:48Z</time>
      </trkpt>
      <trkpt lat="49.42386" lon="4.1106">
        <ele>112</ele>
        <time>2019-04-07T10:37:49Z</time>
      </trkpt>
      <trkpt lat="49.42386" lon="4.11052">
        <ele>112</ele>
        <time>2019-04-07T10:37:50Z</time>
      </trkpt>
      <trkpt lat="49.42385" lon="4.11042">
        <ele>112</ele>
        <time>2019-04-07T10:37:51Z</time>
      </trkpt>
      <trkpt lat="49.42384" lon="4.11033">
        <ele>111</ele>
        <time>2019-04-07T10:37:52Z</time>
      </trkpt>
      <trkpt lat="49.42383" lon="4.11023">
        <ele>111</ele>
        <time>2019-04-07T10:37:53Z</time>
      </trkpt>
      <trkpt lat="49.42382" lon="4.11014">
        <ele>111</ele>
        <time>2019-04-07T10:37:54Z</time>
      </trkpt>
      <trkpt lat="49.42382" lon="4.11004">
        <ele>111</ele>
        <time>2019-04-07T10:37:55Z</time>
      </trkpt>
      <trkpt lat="49.4238" lon="4.10995">
        <ele>111</ele>
        <time>2019-04-07T10:37:56Z</time>
      </trkpt>
      <trkpt lat="49.42379" lon="4.10986">
        <ele>111</ele>
        <time>2019-04-07T10:37:57Z</time>
      </trkpt>
      <trkpt lat="49.42378" lon="4.10977">
        <ele>110</ele>
        <time>2019-04-07T10:37:58Z</time>
      </trkpt>
      <trkpt lat="49.42377" lon="4.10968">
        <ele>110</ele>
        <time>2019-04-07T10:37:59Z</time>
      </trkpt>
      <trkpt lat="49.42376" lon="4.10958">
        <ele>110</ele>
        <time>2019-04-07T10:38:00Z</time>
      </trkpt>
      <trkpt lat="49.42375" lon="4.10949">
        <ele>110</ele>
        <time>2019-04-07T10:38:01Z</time>
      </trkpt>
      <trkpt lat="49.42374" lon="4.1094">
        <ele>110</ele>
        <time>2019-04-07T10:38:02Z</time>
      </trkpt>
      <trkpt lat="49.42373" lon="4.10931">
        <ele>110</ele>
        <time>2019-04-07T10:38:03Z</time>
      </trkpt>
      <trkpt lat="49.42372" lon="4.10922">
        <ele>110</ele>
        <time>2019-04-07T10:38:04Z</time>
      </trkpt>
      <trkpt lat="49.4237" lon="4.10913">
        <ele>110</ele>
        <time>2019-04-07T10:38:05Z</time>
      </trkpt>
      <trkpt lat="49.42369" lon="4.10904">
        <ele>110</ele>
        <time>2019-04-07T10:38:06Z</time>
      </trkpt>
      <trkpt lat="49.42368" lon="4.10895">
        <ele>110</ele>
        <time>2019-04-07T10:38:07Z</time>
      </trkpt>
      <trkpt lat="49.42367" lon="4.10886">
        <ele>110</ele>
        <time>2019-04-07T10:38:08Z</time>
      </trkpt>
      <trkpt lat="49.42365" lon="4.10877">
        <ele>110</ele>
        <time>2019-04-07T10:38:09Z</time>
      </trkpt>
      <trkpt lat="49.42364" lon="4.10868">
        <ele>110</ele>
        <time>2019-04-07T10:38:10Z</time>
      </trkpt>
      <trkpt lat="49.42363" lon="4.10859">
        <ele>110</ele>
        <time>2019-04-07T10:38:11Z</time>
      </trkpt>
      <trkpt lat="49.42362" lon="4.10851">
        <ele>110</ele>
        <time>2019-04-07T10:38:12Z</time>
      </trkpt>
      <trkpt lat="49.42361" lon="4.10843">
        <ele>110</ele>
        <time>2019-04-07T10:38:13Z</time>
      </trkpt>
      <trkpt lat="49.4236" lon="4.10834">
        <ele>110</ele>
        <time>2019-04-07T10:38:14Z</time>
      </trkpt>
      <trkpt lat="49.42359" lon="4.10826">
        <ele>110</ele>
        <time>2019-04-07T10:38:15Z</time>
      </trkpt>
      <trkpt lat="49.42358" lon="4.10817">
        <ele>111</ele>
        <time>2019-04-07T10:38:16Z</time>
      </trkpt>
      <trkpt lat="49.42357" lon="4.10809">
        <ele>111</ele>
        <time>2019-04-07T10:38:17Z</time>
      </trkpt>
      <trkpt lat="49.42356" lon="4.108">
        <ele>111</ele>
        <time>2019-04-07T10:38:18Z</time>
      </trkpt>
      <trkpt lat="49.42355" lon="4.10792">
        <ele>110</ele>
        <time>2019-04-07T10:38:19Z</time>
      </trkpt>
      <trkpt lat="49.42354" lon="4.10783">
        <ele>110</ele>
        <time>2019-04-07T10:38:20Z</time>
      </trkpt>
      <trkpt lat="49.42353" lon="4.10774">
        <ele>110</ele>
        <time>2019-04-07T10:38:21Z</time>
      </trkpt>
      <trkpt lat="49.42352" lon="4.10765">
        <ele>110</ele>
        <time>2019-04-07T10:38:22Z</time>
      </trkpt>
      <trkpt lat="49.42351" lon="4.10756">
        <ele>110</ele>
        <time>2019-04-07T10:38:23Z</time>
      </trkpt>
      <trkpt lat="49.42351" lon="4.10748">
        <ele>110</ele>
        <time>2019-04-07T10:38:24Z</time>
      </trkpt>
      <trkpt lat="49.42351" lon="4.10739">
        <ele>110</ele>
        <time>2019-04-07T10:38:25Z</time>
      </trkpt>
      <trkpt lat="49.4235" lon="4.1073">
        <ele>110</ele>
        <time>2019-04-07T10:38:26Z</time>
      </trkpt>
      <trkpt lat="49.4235" lon="4.10722">
        <ele>110</ele>
        <time>2019-04-07T10:38:27Z</time>
      </trkpt>
      <trkpt lat="49.4235" lon="4.10714">
        <ele>110</ele>
        <time>2019-04-07T10:38:28Z</time>
      </trkpt>
      <trkpt lat="49.42351" lon="4.10706">
        <ele>110</ele>
        <time>2019-04-07T10:38:29Z</time>
      </trkpt>
      <trkpt lat="49.42351" lon="4.10698">
        <ele>110</ele>
        <time>2019-04-07T10:38:30Z</time>
      </trkpt>
      <trkpt lat="49.42351" lon="4.10689">
        <ele>110</ele>
        <time>2019-04-07T10:38:31Z</time>
      </trkpt>
      <trkpt lat="49.42351" lon="4.10681">
        <ele>110</ele>
        <time>2019-04-07T10:38:32Z</time>
      </trkpt>
      <trkpt lat="49.42351" lon="4.10673">
        <ele>110</ele>
        <time>2019-04-07T10:38:33Z</time>
      </trkpt>
      <trkpt lat="49.42352" lon="4.10665">
        <ele>110</ele>
        <time>2019-04-07T10:38:34Z</time>
      </trkpt>
      <trkpt lat="49.42352" lon="4.10657">
        <ele>110</ele>
        <time>2019-04-07T10:38:35Z</time>
      </trkpt>
      <trkpt lat="49.42353" lon="4.10649">
        <ele>110</ele>
        <time>2019-04-07T10:38:36Z</time>
      </trkpt>
      <trkpt lat="49.42354" lon="4.10641">
        <ele>110</ele>
        <time>2019-04-07T10:38:37Z</time>
      </trkpt>
      <trkpt lat="49.42355" lon="4.10633">
        <ele>110</ele>
        <time>2019-04-07T10:38:38Z</time>
      </trkpt>
      <trkpt lat="49.42356" lon="4.10625">
        <ele>109</ele>
        <time>2019-04-07T10:38:39Z</time>
      </trkpt>
      <trkpt lat="49.42357" lon="4.10617">
        <ele>109</ele>
        <time>2019-04-07T10:38:40Z</time>
      </trkpt>
      <trkpt lat="49.42358" lon="4.10609">
        <ele>109</ele>
        <time>2019-04-07T10:38:41Z</time>
      </trkpt>
      <trkpt lat="49.42359" lon="4.10601">
        <ele>109</ele>
        <time>2019-04-07T10:38:42Z</time>
      </trkpt>
      <trkpt lat="49.42361" lon="4.10594">
        <ele>109</ele>
        <time>2019-04-07T10:38:43Z</time>
      </trkpt>
      <trkpt lat="49.42362" lon="4.10587">
        <ele>110</ele>
        <time>2019-04-07T10:38:44Z</time>
      </trkpt>
      <trkpt lat="49.42363" lon="4.10579">
        <ele>110</ele>
        <time>2019-04-07T10:38:45Z</time>
      </trkpt>
      <trkpt lat="49.42364" lon="4.10572">
        <ele>110</ele>
        <time>2019-04-07T10:38:46Z</time>
      </trkpt>
      <trkpt lat="49.42365" lon="4.10565">
        <ele>110</ele>
        <time>2019-04-07T10:38:47Z</time>
      </trkpt>
      <trkpt lat="49.42366" lon="4.10557">
        <ele>110</ele>
        <time>2019-04-07T10:38:48Z</time>
      </trkpt>
      <trkpt lat="49.42367" lon="4.1055">
        <ele>110</ele>
        <time>2019-04-07T10:38:49Z</time>
      </trkpt>
      <trkpt lat="49.42368" lon="4.10542">
        <ele>110</ele>
        <time>2019-04-07T10:38:50Z</time>
      </trkpt>
      <trkpt lat="49.4237" lon="4.10534">
        <ele>110</ele>
        <time>2019-04-07T10:38:51Z</time>
      </trkpt>
      <trkpt lat="49.42371" lon="4.10526">
        <ele>110</ele>
        <time>2019-04-07T10:38:52Z</time>
      </trkpt>
      <trkpt lat="49.42371" lon="4.10518">
        <ele>110</ele>
        <time>2019-04-07T10:38:53Z</time>
      </trkpt>
      <trkpt lat="49.42372" lon="4.10511">
        <ele>110</ele>
        <time>2019-04-07T10:38:54Z</time>
      </trkpt>
      <trkpt lat="49.42373" lon="4.10503">
        <ele>109</ele>
        <time>2019-04-07T10:38:55Z</time>
      </trkpt>
      <trkpt lat="49.42373" lon="4.10495">
        <ele>109</ele>
        <time>2019-04-07T10:38:56Z</time>
      </trkpt>
      <trkpt lat="49.42374" lon="4.10487">
        <ele>110</ele>
        <time>2019-04-07T10:38:57Z</time>
      </trkpt>
      <trkpt lat="49.42375" lon="4.10479">
        <ele>110</ele>
        <time>2019-04-07T10:38:58Z</time>
      </trkpt>
      <trkpt lat="49.42375" lon="4.10471">
        <ele>110</ele>
        <time>2019-04-07T10:38:59Z</time>
      </trkpt>
      <trkpt lat="49.42376" lon="4.10463">
        <ele>110</ele>
        <time>2019-04-07T10:39:00Z</time>
      </trkpt>
      <trkpt lat="49.42377" lon="4.10456">
        <ele>110</ele>
        <time>2019-04-07T10:39:01Z</time>
      </trkpt>
      <trkpt lat="49.42378" lon="4.10448">
        <ele>110</ele>
        <time>2019-04-07T10:39:02Z</time>
      </trkpt>
      <trkpt lat="49.42378" lon="4.1044">
        <ele>110</ele>
        <time>2019-04-07T10:39:03Z</time>
      </trkpt>
      <trkpt lat="49.42378" lon="4.10432">
        <ele>110</ele>
        <time>2019-04-07T10:39:04Z</time>
      </trkpt>
      <trkpt lat="49.42379" lon="4.10424">
        <ele>110</ele>
        <time>2019-04-07T10:39:05Z</time>
      </trkpt>
      <trkpt lat="49.4238" lon="4.10416">
        <ele>110</ele>
        <time>2019-04-07T10:39:06Z</time>
      </trkpt>
      <trkpt lat="49.42381" lon="4.10409">
        <ele>110</ele>
        <time>2019-04-07T10:39:07Z</time>
      </trkpt>
      <trkpt lat="49.42382" lon="4.10401">
        <ele>110</ele>
        <time>2019-04-07T10:39:08Z</time>
      </trkpt>
      <trkpt lat="49.42382" lon="4.10393">
        <ele>110</ele>
        <time>2019-04-07T10:39:09Z</time>
      </trkpt>
      <trkpt lat="49.42383" lon="4.10385">
        <ele>110</ele>
        <time>2019-04-07T10:39:10Z</time>
      </trkpt>
      <trkpt lat="49.42384" lon="4.10377">
        <ele>111</ele>
        <time>2019-04-07T10:39:11Z</time>
      </trkpt>
      <trkpt lat="49.42384" lon="4.1037">
        <ele>110</ele>
        <time>2019-04-07T10:39:12Z</time>
      </trkpt>
      <trkpt lat="49.42385" lon="4.10361">
        <ele>110</ele>
        <time>2019-04-07T10:39:13Z</time>
      </trkpt>
      <trkpt lat="49.42386" lon="4.10353">
        <ele>110</ele>
        <time>2019-04-07T10:39:14Z</time>
      </trkpt>
      <trkpt lat="49.42386" lon="4.10343">
        <ele>110</ele>
        <time>2019-04-07T10:39:15Z</time>
      </trkpt>
      <trkpt lat="49.42387" lon="4.10335">
        <ele>110</ele>
        <time>2019-04-07T10:39:16Z</time>
      </trkpt>
      <trkpt lat="49.42388" lon="4.10326">
        <ele>110</ele>
        <time>2019-04-07T10:39:17Z</time>
      </trkpt>
      <trkpt lat="49.42388" lon="4.10317">
        <ele>110</ele>
        <time>2019-04-07T10:39:18Z</time>
      </trkpt>
      <trkpt lat="49.42389" lon="4.10309">
        <ele>110</ele>
        <time>2019-04-07T10:39:19Z</time>
      </trkpt>
      <trkpt lat="49.4239" lon="4.10301">
        <ele>110</ele>
        <time>2019-04-07T10:39:20Z</time>
      </trkpt>
      <trkpt lat="49.42391" lon="4.10292">
        <ele>110</ele>
        <time>2019-04-07T10:39:21Z</time>
      </trkpt>
      <trkpt lat="49.42392" lon="4.10283">
        <ele>110</ele>
        <time>2019-04-07T10:39:22Z</time>
      </trkpt>
      <trkpt lat="49.42392" lon="4.10273">
        <ele>110</ele>
        <time>2019-04-07T10:39:23Z</time>
      </trkpt>
      <trkpt lat="49.42393" lon="4.10264">
        <ele>110</ele>
        <time>2019-04-07T10:39:24Z</time>
      </trkpt>
      <trkpt lat="49.42394" lon="4.10254">
        <ele>110</ele>
        <time>2019-04-07T10:39:25Z</time>
      </trkpt>
      <trkpt lat="49.42395" lon="4.10244">
        <ele>110</ele>
        <time>2019-04-07T10:39:26Z</time>
      </trkpt>
      <trkpt lat="49.42396" lon="4.10234">
        <ele>110</ele>
        <time>2019-04-07T10:39:27Z</time>
      </trkpt>
      <trkpt lat="49.42396" lon="4.10225">
        <ele>110</ele>
        <time>2019-04-07T10:39:28Z</time>
      </trkpt>
      <trkpt lat="49.42397" lon="4.10217">
        <ele>110</ele>
        <time>2019-04-07T10:39:29Z</time>
      </trkpt>
      <trkpt lat="49.42398" lon="4.10208">
        <ele>110</ele>
        <time>2019-04-07T10:39:30Z</time>
      </trkpt>
      <trkpt lat="49.42398" lon="4.10199">
        <ele>110</ele>
        <time>2019-04-07T10:39:31Z</time>
      </trkpt>
      <trkpt lat="49.42399" lon="4.1019">
        <ele>110</ele>
        <time>2019-04-07T10:39:32Z</time>
      </trkpt>
      <trkpt lat="49.424" lon="4.10181">
        <ele>110</ele>
        <time>2019-04-07T10:39:33Z</time>
      </trkpt>
      <trkpt lat="49.42401" lon="4.10172">
        <ele>110</ele>
        <time>2019-04-07T10:39:34Z</time>
      </trkpt>
      <trkpt lat="49.42401" lon="4.10164">
        <ele>110</ele>
        <time>2019-04-07T10:39:35Z</time>
      </trkpt>
      <trkpt lat="49.42402" lon="4.10155">
        <ele>110</ele>
        <time>2019-04-07T10:39:36Z</time>
      </trkpt>
      <trkpt lat="49.42402" lon="4.10146">
        <ele>110</ele>
        <time>2019-04-07T10:39:37Z</time>
      </trkpt>
      <trkpt lat="49.42402" lon="4.10136">
        <ele>110</ele>
        <time>2019-04-07T10:39:38Z</time>
      </trkpt>
      <trkpt lat="49.42402" lon="4.10127">
        <ele>110</ele>
        <time>2019-04-07T10:39:39Z</time>
      </trkpt>
      <trkpt lat="49.42402" lon="4.10118">
        <ele>110</ele>
        <time>2019-04-07T10:39:40Z</time>
      </trkpt>
      <trkpt lat="49.42401" lon="4.10108">
        <ele>110</ele>
        <time>2019-04-07T10:39:41Z</time>
      </trkpt>
      <trkpt lat="49.42401" lon="4.10099">
        <ele>110</ele>
        <time>2019-04-07T10:39:42Z</time>
      </trkpt>
      <trkpt lat="49.42401" lon="4.1009">
        <ele>110</ele>
        <time>2019-04-07T10:39:43Z</time>
      </trkpt>
      <trkpt lat="49.42401" lon="4.10081">
        <ele>110</ele>
        <time>2019-04-07T10:39:44Z</time>
      </trkpt>
      <trkpt lat="49.42401" lon="4.10072">
        <ele>110</ele>
        <time>2019-04-07T10:39:45Z</time>
      </trkpt>
      <trkpt lat="49.42401" lon="4.10064">
        <ele>110</ele>
        <time>2019-04-07T10:39:46Z</time>
      </trkpt>
      <trkpt lat="49.42401" lon="4.10055">
        <ele>110</ele>
        <time>2019-04-07T10:39:47Z</time>
      </trkpt>
      <trkpt lat="49.424" lon="4.10046">
        <ele>110</ele>
        <time>2019-04-07T10:39:48Z</time>
      </trkpt>
      <trkpt lat="49.424" lon="4.10037">
        <ele>110</ele>
        <time>2019-04-07T10:39:49Z</time>
      </trkpt>
      <trkpt lat="49.424" lon="4.10028">
        <ele>110</ele>
        <time>2019-04-07T10:39:50Z</time>
      </trkpt>
      <trkpt lat="49.424" lon="4.10018">
        <ele>110</ele>
        <time>2019-04-07T10:39:51Z</time>
      </trkpt>
      <trkpt lat="49.424" lon="4.10009">
        <ele>110</ele>
        <time>2019-04-07T10:39:52Z</time>
      </trkpt>
      <trkpt lat="49.42399" lon="4.1">
        <ele>110</ele>
        <time>2019-04-07T10:39:53Z</time>
      </trkpt>
      <trkpt lat="49.42399" lon="4.09992">
        <ele>109</ele>
        <time>2019-04-07T10:39:54Z</time>
      </trkpt>
      <trkpt lat="49.42398" lon="4.09983">
        <ele>109</ele>
        <time>2019-04-07T10:39:55Z</time>
      </trkpt>
      <trkpt lat="49.42398" lon="4.09974">
        <ele>109</ele>
        <time>2019-04-07T10:39:56Z</time>
      </trkpt>
      <trkpt lat="49.42397" lon="4.09966">
        <ele>109</ele>
        <time>2019-04-07T10:39:57Z</time>
      </trkpt>
      <trkpt lat="49.42396" lon="4.09958">
        <ele>109</ele>
        <time>2019-04-07T10:39:58Z</time>
      </trkpt>
      <trkpt lat="49.42395" lon="4.0995">
        <ele>109</ele>
        <time>2019-04-07T10:39:59Z</time>
      </trkpt>
      <trkpt lat="49.42394" lon="4.09942">
        <ele>109</ele>
        <time>2019-04-07T10:40:00Z</time>
      </trkpt>
      <trkpt lat="49.42392" lon="4.09934">
        <ele>109</ele>
        <time>2019-04-07T10:40:01Z</time>
      </trkpt>
      <trkpt lat="49.42391" lon="4.09926">
        <ele>109</ele>
        <time>2019-04-07T10:40:02Z</time>
      </trkpt>
      <trkpt lat="49.42389" lon="4.09919">
        <ele>109</ele>
        <time>2019-04-07T10:40:03Z</time>
      </trkpt>
      <trkpt lat="49.42387" lon="4.09912">
        <ele>109</ele>
        <time>2019-04-07T10:40:04Z</time>
      </trkpt>
      <trkpt lat="49.42385" lon="4.09904">
        <ele>109</ele>
        <time>2019-04-07T10:40:05Z</time>
      </trkpt>
      <trkpt lat="49.42384" lon="4.09897">
        <ele>109</ele>
        <time>2019-04-07T10:40:06Z</time>
      </trkpt>
      <trkpt lat="49.42382" lon="4.0989">
        <ele>109</ele>
        <time>2019-04-07T10:40:07Z</time>
      </trkpt>
      <trkpt lat="49.4238" lon="4.09882">
        <ele>109</ele>
        <time>2019-04-07T10:40:08Z</time>
      </trkpt>
      <trkpt lat="49.42378" lon="4.09874">
        <ele>110</ele>
        <time>2019-04-07T10:40:09Z</time>
      </trkpt>
      <trkpt lat="49.42376" lon="4.09866">
        <ele>110</ele>
        <time>2019-04-07T10:40:10Z</time>
      </trkpt>
      <trkpt lat="49.42374" lon="4.0986">
        <ele>110</ele>
        <time>2019-04-07T10:40:11Z</time>
      </trkpt>
      <trkpt lat="49.42373" lon="4.09853">
        <ele>110</ele>
        <time>2019-04-07T10:40:12Z</time>
      </trkpt>
      <trkpt lat="49.42371" lon="4.09846">
        <ele>110</ele>
        <time>2019-04-07T10:40:13Z</time>
      </trkpt>
      <trkpt lat="49.42369" lon="4.0984">
        <ele>110</ele>
        <time>2019-04-07T10:40:14Z</time>
      </trkpt>
      <trkpt lat="49.42367" lon="4.09834">
        <ele>110</ele>
        <time>2019-04-07T10:40:15Z</time>
      </trkpt>
      <trkpt lat="49.42366" lon="4.09828">
        <ele>111</ele>
        <time>2019-04-07T10:40:16Z</time>
      </trkpt>
      <trkpt lat="49.42364" lon="4.09822">
        <ele>111</ele>
        <time>2019-04-07T10:40:17Z</time>
      </trkpt>
      <trkpt lat="49.42362" lon="4.09815">
        <ele>111</ele>
        <time>2019-04-07T10:40:18Z</time>
      </trkpt>
      <trkpt lat="49.4236" lon="4.09808">
        <ele>111</ele>
        <time>2019-04-07T10:40:19Z</time>
      </trkpt>
      <trkpt lat="49.42359" lon="4.09801">
        <ele>111</ele>
        <time>2019-04-07T10:40:20Z</time>
      </trkpt>
      <trkpt lat="49.42357" lon="4.09794">
        <ele>111</ele>
        <time>2019-04-07T10:40:21Z</time>
      </trkpt>
      <trkpt lat="49.42355" lon="4.09787">
        <ele>110</ele>
        <time>2019-04-07T10:40:22Z</time>
      </trkpt>
      <trkpt lat="49.42354" lon="4.09779">
        <ele>110</ele>
        <time>2019-04-07T10:40:23Z</time>
      </trkpt>
      <trkpt lat="49.42354" lon="4.09771">
        <ele>110</ele>
        <time>2019-04-07T10:40:24Z</time>
      </trkpt>
      <trkpt lat="49.42353" lon="4.09763">
        <ele>110</ele>
        <time>2019-04-07T10:40:25Z</time>
      </trkpt>
      <trkpt lat="49.42353" lon="4.09754">
        <ele>110</ele>
        <time>2019-04-07T10:40:26Z</time>
      </trkpt>
      <trkpt lat="49.42353" lon="4.09745">
        <ele>110</ele>
        <time>2019-04-07T10:40:27Z</time>
      </trkpt>
      <trkpt lat="49.42353" lon="4.09737">
        <ele>109</ele>
        <time>2019-04-07T10:40:28Z</time>
      </trkpt>
      <trkpt lat="49.42353" lon="4.09729">
        <ele>109</ele>
        <time>2019-04-07T10:40:29Z</time>
      </trkpt>
      <trkpt lat="49.42353" lon="4.0972">
        <ele>109</ele>
        <time>2019-04-07T10:40:30Z</time>
      </trkpt>
      <trkpt lat="49.42353" lon="4.09711">
        <ele>109</ele>
        <time>2019-04-07T10:40:31Z</time>
      </trkpt>
      <trkpt lat="49.42353" lon="4.09702">
        <ele>109</ele>
        <time>2019-04-07T10:40:32Z</time>
      </trkpt>
      <trkpt lat="49.42353" lon="4.09694">
        <ele>109</ele>
        <time>2019-04-07T10:40:33Z</time>
      </trkpt>
      <trkpt lat="49.42353" lon="4.09685">
        <ele>108</ele>
        <time>2019-04-07T10:40:34Z</time>
      </trkpt>
      <trkpt lat="49.42353" lon="4.09677">
        <ele>108</ele>
        <time>2019-04-07T10:40:35Z</time>
      </trkpt>
      <trkpt lat="49.42353" lon="4.09668">
        <ele>108</ele>
        <time>2019-04-07T10:40:36Z</time>
      </trkpt>
      <trkpt lat="49.42353" lon="4.09658">
        <ele>109</ele>
        <time>2019-04-07T10:40:37Z</time>
      </trkpt>
      <trkpt lat="49.42353" lon="4.0965">
        <ele>109</ele>
        <time>2019-04-07T10:40:38Z</time>
      </trkpt>
      <trkpt lat="49.42353" lon="4.09641">
        <ele>109</ele>
        <time>2019-04-07T10:40:39Z</time>
      </trkpt>
      <trkpt lat="49.42353" lon="4.09632">
        <ele>109</ele>
        <time>2019-04-07T10:40:40Z</time>
      </trkpt>
      <trkpt lat="49.42352" lon="4.09624">
        <ele>109</ele>
        <time>2019-04-07T10:40:41Z</time>
      </trkpt>
      <trkpt lat="49.42352" lon="4.09615">
        <ele>109</ele>
        <time>2019-04-07T10:40:42Z</time>
      </trkpt>
      <trkpt lat="49.42352" lon="4.09607">
        <ele>109</ele>
        <time>2019-04-07T10:40:43Z</time>
      </trkpt>
      <trkpt lat="49.42351" lon="4.09599">
        <ele>109</ele>
        <time>2019-04-07T10:40:44Z</time>
      </trkpt>
      <trkpt lat="49.42351" lon="4.0959">
        <ele>109</ele>
        <time>2019-04-07T10:40:45Z</time>
      </trkpt>
      <trkpt lat="49.4235" lon="4.09582">
        <ele>109</ele>
        <time>2019-04-07T10:40:46Z</time>
      </trkpt>
      <trkpt lat="49.42349" lon="4.09573">
        <ele>109</ele>
        <time>2019-04-07T10:40:47Z</time>
      </trkpt>
      <trkpt lat="49.42349" lon="4.09565">
        <ele>109</ele>
        <time>2019-04-07T10:40:48Z</time>
      </trkpt>
      <trkpt lat="49.42348" lon="4.09556">
        <ele>109</ele>
        <time>2019-04-07T10:40:49Z</time>
      </trkpt>
      <trkpt lat="49.42348" lon="4.09548">
        <ele>109</ele>
        <time>2019-04-07T10:40:50Z</time>
      </trkpt>
      <trkpt lat="49.42347" lon="4.09539">
        <ele>110</ele>
        <time>2019-04-07T10:40:51Z</time>
      </trkpt>
      <trkpt lat="49.42346" lon="4.09531">
        <ele>110</ele>
        <time>2019-04-07T10:40:52Z</time>
      </trkpt>
      <trkpt lat="49.42345" lon="4.09523">
        <ele>110</ele>
        <time>2019-04-07T10:40:53Z</time>
      </trkpt>
      <trkpt lat="49.42344" lon="4.09515">
        <ele>110</ele>
        <time>2019-04-07T10:40:54Z</time>
      </trkpt>
      <trkpt lat="49.42343" lon="4.09506">
        <ele>110</ele>
        <time>2019-04-07T10:40:55Z</time>
      </trkpt>
      <trkpt lat="49.42342" lon="4.09498">
        <ele>110</ele>
        <time>2019-04-07T10:40:56Z</time>
      </trkpt>
      <trkpt lat="49.42341" lon="4.0949">
        <ele>110</ele>
        <time>2019-04-07T10:40:57Z</time>
      </trkpt>
      <trkpt lat="49.42341" lon="4.09481">
        <ele>110</ele>
        <time>2019-04-07T10:40:58Z</time>
      </trkpt>
      <trkpt lat="49.4234" lon="4.09473">
        <ele>110</ele>
        <time>2019-04-07T10:40:59Z</time>
      </trkpt>
      <trkpt lat="49.42339" lon="4.09465">
        <ele>110</ele>
        <time>2019-04-07T10:41:00Z</time>
      </trkpt>
      <trkpt lat="49.42338" lon="4.09456">
        <ele>110</ele>
        <time>2019-04-07T10:41:01Z</time>
      </trkpt>
      <trkpt lat="49.42338" lon="4.09448">
        <ele>111</ele>
        <time>2019-04-07T10:41:02Z</time>
      </trkpt>
      <trkpt lat="49.42337" lon="4.0944">
        <ele>110</ele>
        <time>2019-04-07T10:41:03Z</time>
      </trkpt>
      <trkpt lat="49.42337" lon="4.09431">
        <ele>110</ele>
        <time>2019-04-07T10:41:04Z</time>
      </trkpt>
      <trkpt lat="49.42337" lon="4.09422">
        <ele>110</ele>
        <time>2019-04-07T10:41:05Z</time>
      </trkpt>
      <trkpt lat="49.42337" lon="4.09414">
        <ele>109</ele>
        <time>2019-04-07T10:41:06Z</time>
      </trkpt>
      <trkpt lat="49.42337" lon="4.09406">
        <ele>109</ele>
        <time>2019-04-07T10:41:07Z</time>
      </trkpt>
      <trkpt lat="49.42337" lon="4.09397">
        <ele>109</ele>
        <time>2019-04-07T10:41:08Z</time>
      </trkpt>
      <trkpt lat="49.42337" lon="4.09388">
        <ele>109</ele>
        <time>2019-04-07T10:41:09Z</time>
      </trkpt>
      <trkpt lat="49.42337" lon="4.0938">
        <ele>109</ele>
        <time>2019-04-07T10:41:10Z</time>
      </trkpt>
      <trkpt lat="49.42337" lon="4.09371">
        <ele>109</ele>
        <time>2019-04-07T10:41:11Z</time>
      </trkpt>
      <trkpt lat="49.42336" lon="4.09363">
        <ele>109</ele>
        <time>2019-04-07T10:41:12Z</time>
      </trkpt>
      <trkpt lat="49.42336" lon="4.09354">
        <ele>109</ele>
        <time>2019-04-07T10:41:13Z</time>
      </trkpt>
      <trkpt lat="49.42336" lon="4.09345">
        <ele>109</ele>
        <time>2019-04-07T10:41:14Z</time>
      </trkpt>
      <trkpt lat="49.42336" lon="4.09337">
        <ele>109</ele>
        <time>2019-04-07T10:41:15Z</time>
      </trkpt>
      <trkpt lat="49.42336" lon="4.09328">
        <ele>109</ele>
        <time>2019-04-07T10:41:16Z</time>
      </trkpt>
      <trkpt lat="49.42335" lon="4.0932">
        <ele>109</ele>
        <time>2019-04-07T10:41:17Z</time>
      </trkpt>
      <trkpt lat="49.42335" lon="4.09311">
        <ele>109</ele>
        <time>2019-04-07T10:41:18Z</time>
      </trkpt>
      <trkpt lat="49.42335" lon="4.09302">
        <ele>109</ele>
        <time>2019-04-07T10:41:19Z</time>
      </trkpt>
      <trkpt lat="49.42335" lon="4.09294">
        <ele>109</ele>
        <time>2019-04-07T10:41:20Z</time>
      </trkpt>
      <trkpt lat="49.42335" lon="4.09285">
        <ele>109</ele>
        <time>2019-04-07T10:41:21Z</time>
      </trkpt>
      <trkpt lat="49.42334" lon="4.09276">
        <ele>109</ele>
        <time>2019-04-07T10:41:22Z</time>
      </trkpt>
      <trkpt lat="49.42334" lon="4.09268">
        <ele>109</ele>
        <time>2019-04-07T10:41:23Z</time>
      </trkpt>
      <trkpt lat="49.42334" lon="4.09259">
        <ele>109</ele>
        <time>2019-04-07T10:41:24Z</time>
      </trkpt>
      <trkpt lat="49.42334" lon="4.0925">
        <ele>109</ele>
        <time>2019-04-07T10:41:25Z</time>
      </trkpt>
      <trkpt lat="49.42334" lon="4.09242">
        <ele>109</ele>
        <time>2019-04-07T10:41:26Z</time>
      </trkpt>
      <trkpt lat="49.42334" lon="4.09233">
        <ele>109</ele>
        <time>2019-04-07T10:41:27Z</time>
      </trkpt>
      <trkpt lat="49.42334" lon="4.09224">
        <ele>109</ele>
        <time>2019-04-07T10:41:28Z</time>
      </trkpt>
      <trkpt lat="49.42334" lon="4.09215">
        <ele>109</ele>
        <time>2019-04-07T10:41:29Z</time>
      </trkpt>
      <trkpt lat="49.42334" lon="4.09206">
        <ele>109</ele>
        <time>2019-04-07T10:41:30Z</time>
      </trkpt>
      <trkpt lat="49.42335" lon="4.09197">
        <ele>109</ele>
        <time>2019-04-07T10:41:31Z</time>
      </trkpt>
      <trkpt lat="49.42335" lon="4.09189">
        <ele>109</ele>
        <time>2019-04-07T10:41:32Z</time>
      </trkpt>
      <trkpt lat="49.42335" lon="4.0918">
        <ele>109</ele>
        <time>2019-04-07T10:41:33Z</time>
      </trkpt>
      <trkpt lat="49.42336" lon="4.09171">
        <ele>109</ele>
        <time>2019-04-07T10:41:34Z</time>
      </trkpt>
      <trkpt lat="49.42336" lon="4.09162">
        <ele>109</ele>
        <time>2019-04-07T10:41:35Z</time>
      </trkpt>
      <trkpt lat="49.42337" lon="4.09154">
        <ele>109</ele>
        <time>2019-04-07T10:41:36Z</time>
      </trkpt>
      <trkpt lat="49.42338" lon="4.09145">
        <ele>108</ele>
        <time>2019-04-07T10:41:37Z</time>
      </trkpt>
      <trkpt lat="49.42338" lon="4.09136">
        <ele>108</ele>
        <time>2019-04-07T10:41:38Z</time>
      </trkpt>
      <trkpt lat="49.42339" lon="4.09127">
        <ele>108</ele>
        <time>2019-04-07T10:41:39Z</time>
      </trkpt>
      <trkpt lat="49.42339" lon="4.09118">
        <ele>108</ele>
        <time>2019-04-07T10:41:40Z</time>
      </trkpt>
      <trkpt lat="49.4234" lon="4.09109">
        <ele>108</ele>
        <time>2019-04-07T10:41:41Z</time>
      </trkpt>
      <trkpt lat="49.42341" lon="4.091">
        <ele>108</ele>
        <time>2019-04-07T10:41:42Z</time>
      </trkpt>
      <trkpt lat="49.42342" lon="4.09091">
        <ele>108</ele>
        <time>2019-04-07T10:41:43Z</time>
      </trkpt>
      <trkpt lat="49.42342" lon="4.09082">
        <ele>108</ele>
        <time>2019-04-07T10:41:44Z</time>
      </trkpt>
      <trkpt lat="49.42343" lon="4.09073">
        <ele>108</ele>
        <time>2019-04-07T10:41:45Z</time>
      </trkpt>
      <trkpt lat="49.42343" lon="4.09064">
        <ele>108</ele>
        <time>2019-04-07T10:41:46Z</time>
      </trkpt>
      <trkpt lat="49.42344" lon="4.09055">
        <ele>108</ele>
        <time>2019-04-07T10:41:47Z</time>
      </trkpt>
      <trkpt lat="49.42345" lon="4.09046">
        <ele>108</ele>
        <time>2019-04-07T10:41:48Z</time>
      </trkpt>
      <trkpt lat="49.42346" lon="4.09037">
        <ele>108</ele>
        <time>2019-04-07T10:41:49Z</time>
      </trkpt>
      <trkpt lat="49.42346" lon="4.09028">
        <ele>108</ele>
        <time>2019-04-07T10:41:50Z</time>
      </trkpt>
      <trkpt lat="49.42346" lon="4.09019">
        <ele>108</ele>
        <time>2019-04-07T10:41:51Z</time>
      </trkpt>
      <trkpt lat="49.42347" lon="4.0901">
        <ele>108</ele>
        <time>2019-04-07T10:41:52Z</time>
      </trkpt>
      <trkpt lat="49.42348" lon="4.09001">
        <ele>107</ele>
        <time>2019-04-07T10:41:53Z</time>
      </trkpt>
      <trkpt lat="49.42348" lon="4.08993">
        <ele>107</ele>
        <time>2019-04-07T10:41:54Z</time>
      </trkpt>
      <trkpt lat="49.42349" lon="4.08984">
        <ele>107</ele>
        <time>2019-04-07T10:41:55Z</time>
      </trkpt>
      <trkpt lat="49.4235" lon="4.08975">
        <ele>108</ele>
        <time>2019-04-07T10:41:56Z</time>
      </trkpt>
      <trkpt lat="49.4235" lon="4.08967">
        <ele>108</ele>
        <time>2019-04-07T10:41:57Z</time>
      </trkpt>
      <trkpt lat="49.4235" lon="4.08958">
        <ele>107</ele>
        <time>2019-04-07T10:41:58Z</time>
      </trkpt>
      <trkpt lat="49.42351" lon="4.08949">
        <ele>107</ele>
        <time>2019-04-07T10:41:59Z</time>
      </trkpt>
      <trkpt lat="49.42352" lon="4.0894">
        <ele>107</ele>
        <time>2019-04-07T10:42:00Z</time>
      </trkpt>
      <trkpt lat="49.42352" lon="4.08932">
        <ele>107</ele>
        <time>2019-04-07T10:42:01Z</time>
      </trkpt>
      <trkpt lat="49.42352" lon="4.08923">
        <ele>107</ele>
        <time>2019-04-07T10:42:02Z</time>
      </trkpt>
      <trkpt lat="49.42353" lon="4.08914">
        <ele>107</ele>
        <time>2019-04-07T10:42:03Z</time>
      </trkpt>
      <trkpt lat="49.42353" lon="4.08905">
        <ele>107</ele>
        <time>2019-04-07T10:42:04Z</time>
      </trkpt>
      <trkpt lat="49.42354" lon="4.08896">
        <ele>107</ele>
        <time>2019-04-07T10:42:05Z</time>
      </trkpt>
      <trkpt lat="49.42355" lon="4.08887">
        <ele>107</ele>
        <time>2019-04-07T10:42:06Z</time>
      </trkpt>
      <trkpt lat="49.42355" lon="4.08878">
        <ele>107</ele>
        <time>2019-04-07T10:42:07Z</time>
      </trkpt>
      <trkpt lat="49.42356" lon="4.08869">
        <ele>107</ele>
        <time>2019-04-07T10:42:08Z</time>
      </trkpt>
      <trkpt lat="49.42357" lon="4.08859">
        <ele>107</ele>
        <time>2019-04-07T10:42:09Z</time>
      </trkpt>
      <trkpt lat="49.42357" lon="4.0885">
        <ele>107</ele>
        <time>2019-04-07T10:42:10Z</time>
      </trkpt>
      <trkpt lat="49.42358" lon="4.08841">
        <ele>107</ele>
        <time>2019-04-07T10:42:11Z</time>
      </trkpt>
      <trkpt lat="49.42359" lon="4.08833">
        <ele>108</ele>
        <time>2019-04-07T10:42:12Z</time>
      </trkpt>
      <trkpt lat="49.42359" lon="4.08824">
        <ele>108</ele>
        <time>2019-04-07T10:42:13Z</time>
      </trkpt>
      <trkpt lat="49.4236" lon="4.08815">
        <ele>108</ele>
        <time>2019-04-07T10:42:14Z</time>
      </trkpt>
      <trkpt lat="49.42361" lon="4.08806">
        <ele>107</ele>
        <time>2019-04-07T10:42:15Z</time>
      </trkpt>
      <trkpt lat="49.42361" lon="4.08797">
        <ele>108</ele>
        <time>2019-04-07T10:42:16Z</time>
      </trkpt>
      <trkpt lat="49.42362" lon="4.08788">
        <ele>108</ele>
        <time>2019-04-07T10:42:17Z</time>
      </trkpt>
      <trkpt lat="49.42363" lon="4.0878">
        <ele>107</ele>
        <time>2019-04-07T10:42:18Z</time>
      </trkpt>
      <trkpt lat="49.42363" lon="4.08772">
        <ele>107</ele>
        <time>2019-04-07T10:42:19Z</time>
      </trkpt>
      <trkpt lat="49.42364" lon="4.08763">
        <ele>107</ele>
        <time>2019-04-07T10:42:20Z</time>
      </trkpt>
      <trkpt lat="49.42365" lon="4.08755">
        <ele>107</ele>
        <time>2019-04-07T10:42:21Z</time>
      </trkpt>
      <trkpt lat="49.42365" lon="4.08747">
        <ele>107</ele>
        <time>2019-04-07T10:42:22Z</time>
      </trkpt>
      <trkpt lat="49.42366" lon="4.08739">
        <ele>107</ele>
        <time>2019-04-07T10:42:23Z</time>
      </trkpt>
      <trkpt lat="49.42367" lon="4.08731">
        <ele>107</ele>
        <time>2019-04-07T10:42:24Z</time>
      </trkpt>
      <trkpt lat="49.42367" lon="4.08723">
        <ele>107</ele>
        <time>2019-04-07T10:42:25Z</time>
      </trkpt>
      <trkpt lat="49.42368" lon="4.08715">
        <ele>107</ele>
        <time>2019-04-07T10:42:26Z</time>
      </trkpt>
      <trkpt lat="49.42369" lon="4.08706">
        <ele>107</ele>
        <time>2019-04-07T10:42:27Z</time>
      </trkpt>
      <trkpt lat="49.4237" lon="4.08698">
        <ele>107</ele>
        <time>2019-04-07T10:42:28Z</time>
      </trkpt>
      <trkpt lat="49.42371" lon="4.0869">
        <ele>107</ele>
        <time>2019-04-07T10:42:29Z</time>
      </trkpt>
      <trkpt lat="49.42372" lon="4.08682">
        <ele>107</ele>
        <time>2019-04-07T10:42:30Z</time>
      </trkpt>
      <trkpt lat="49.42374" lon="4.08674">
        <ele>107</ele>
        <time>2019-04-07T10:42:31Z</time>
      </trkpt>
      <trkpt lat="49.42375" lon="4.08666">
        <ele>107</ele>
        <time>2019-04-07T10:42:32Z</time>
      </trkpt>
      <trkpt lat="49.42377" lon="4.08657">
        <ele>107</ele>
        <time>2019-04-07T10:42:33Z</time>
      </trkpt>
      <trkpt lat="49.42378" lon="4.08649">
        <ele>107</ele>
        <time>2019-04-07T10:42:34Z</time>
      </trkpt>
      <trkpt lat="49.42379" lon="4.08641">
        <ele>107</ele>
        <time>2019-04-07T10:42:35Z</time>
      </trkpt>
      <trkpt lat="49.42381" lon="4.08633">
        <ele>107</ele>
        <time>2019-04-07T10:42:36Z</time>
      </trkpt>
      <trkpt lat="49.42382" lon="4.08625">
        <ele>107</ele>
        <time>2019-04-07T10:42:37Z</time>
      </trkpt>
      <trkpt lat="49.42383" lon="4.08617">
        <ele>107</ele>
        <time>2019-04-07T10:42:38Z</time>
      </trkpt>
      <trkpt lat="49.42385" lon="4.08609">
        <ele>107</ele>
        <time>2019-04-07T10:42:39Z</time>
      </trkpt>
      <trkpt lat="49.42386" lon="4.08602">
        <ele>107</ele>
        <time>2019-04-07T10:42:40Z</time>
      </trkpt>
      <trkpt lat="49.42388" lon="4.08594">
        <ele>107</ele>
        <time>2019-04-07T10:42:41Z</time>
      </trkpt>
      <trkpt lat="49.42389" lon="4.08586">
        <ele>107</ele>
        <time>2019-04-07T10:42:42Z</time>
      </trkpt>
      <trkpt lat="49.42391" lon="4.08578">
        <ele>107</ele>
        <time>2019-04-07T10:42:43Z</time>
      </trkpt>
      <trkpt lat="49.42392" lon="4.0857">
        <ele>107</ele>
        <time>2019-04-07T10:42:44Z</time>
      </trkpt>
      <trkpt lat="49.42394" lon="4.08562">
        <ele>107</ele>
        <time>2019-04-07T10:42:45Z</time>
      </trkpt>
      <trkpt lat="49.42395" lon="4.08555">
        <ele>107</ele>
        <time>2019-04-07T10:42:46Z</time>
      </trkpt>
      <trkpt lat="49.42397" lon="4.08547">
        <ele>107</ele>
        <time>2019-04-07T10:42:47Z</time>
      </trkpt>
      <trkpt lat="49.42398" lon="4.08539">
        <ele>107</ele>
        <time>2019-04-07T10:42:48Z</time>
      </trkpt>
      <trkpt lat="49.42399" lon="4.08532">
        <ele>107</ele>
        <time>2019-04-07T10:42:49Z</time>
      </trkpt>
      <trkpt lat="49.42401" lon="4.08524">
        <ele>107</ele>
        <time>2019-04-07T10:42:50Z</time>
      </trkpt>
      <trkpt lat="49.42402" lon="4.08517">
        <ele>107</ele>
        <time>2019-04-07T10:42:51Z</time>
      </trkpt>
      <trkpt lat="49.42403" lon="4.08509">
        <ele>107</ele>
        <time>2019-04-07T10:42:52Z</time>
      </trkpt>
      <trkpt lat="49.42405" lon="4.08502">
        <ele>107</ele>
        <time>2019-04-07T10:42:53Z</time>
      </trkpt>
      <trkpt lat="49.42406" lon="4.08495">
        <ele>107</ele>
        <time>2019-04-07T10:42:54Z</time>
      </trkpt>
      <trkpt lat="49.42408" lon="4.08487">
        <ele>107</ele>
        <time>2019-04-07T10:42:55Z</time>
      </trkpt>
      <trkpt lat="49.42409" lon="4.08479">
        <ele>107</ele>
        <time>2019-04-07T10:42:56Z</time>
      </trkpt>
      <trkpt lat="49.42411" lon="4.08471">
        <ele>107</ele>
        <time>2019-04-07T10:42:57Z</time>
      </trkpt>
      <trkpt lat="49.42412" lon="4.08464">
        <ele>107</ele>
        <time>2019-04-07T10:42:58Z</time>
      </trkpt>
      <trkpt lat="49.42413" lon="4.08456">
        <ele>107</ele>
        <time>2019-04-07T10:42:59Z</time>
      </trkpt>
      <trkpt lat="49.42415" lon="4.08448">
        <ele>107</ele>
        <time>2019-04-07T10:43:00Z</time>
      </trkpt>
      <trkpt lat="49.42416" lon="4.08441">
        <ele>107</ele>
        <time>2019-04-07T10:43:01Z</time>
      </trkpt>
      <trkpt lat="49.42418" lon="4.08433">
        <ele>107</ele>
        <time>2019-04-07T10:43:02Z</time>
      </trkpt>
      <trkpt lat="49.42419" lon="4.08425">
        <ele>107</ele>
        <time>2019-04-07T10:43:03Z</time>
      </trkpt>
      <trkpt lat="49.42421" lon="4.08417">
        <ele>107</ele>
        <time>2019-04-07T10:43:04Z</time>
      </trkpt>
      <trkpt lat="49.42422" lon="4.0841">
        <ele>107</ele>
        <time>2019-04-07T10:43:05Z</time>
      </trkpt>
      <trkpt lat="49.42423" lon="4.08402">
        <ele>107</ele>
        <time>2019-04-07T10:43:06Z</time>
      </trkpt>
      <trkpt lat="49.42425" lon="4.08395">
        <ele>107</ele>
        <time>2019-04-07T10:43:07Z</time>
      </trkpt>
      <trkpt lat="49.42427" lon="4.08387">
        <ele>107</ele>
        <time>2019-04-07T10:43:08Z</time>
      </trkpt>
      <trkpt lat="49.42428" lon="4.0838">
        <ele>107</ele>
        <time>2019-04-07T10:43:09Z</time>
      </trkpt>
      <trkpt lat="49.42429" lon="4.08372">
        <ele>107</ele>
        <time>2019-04-07T10:43:10Z</time>
      </trkpt>
      <trkpt lat="49.4243" lon="4.08365">
        <ele>107</ele>
        <time>2019-04-07T10:43:11Z</time>
      </trkpt>
      <trkpt lat="49.42432" lon="4.08357">
        <ele>107</ele>
        <time>2019-04-07T10:43:12Z</time>
      </trkpt>
      <trkpt lat="49.42433" lon="4.0835">
        <ele>107</ele>
        <time>2019-04-07T10:43:13Z</time>
      </trkpt>
      <trkpt lat="49.42434" lon="4.08343">
        <ele>108</ele>
        <time>2019-04-07T10:43:14Z</time>
      </trkpt>
      <trkpt lat="49.42436" lon="4.08335">
        <ele>107</ele>
        <time>2019-04-07T10:43:15Z</time>
      </trkpt>
      <trkpt lat="49.42437" lon="4.08327">
        <ele>107</ele>
        <time>2019-04-07T10:43:16Z</time>
      </trkpt>
      <trkpt lat="49.42438" lon="4.08319">
        <ele>107</ele>
        <time>2019-04-07T10:43:17Z</time>
      </trkpt>
      <trkpt lat="49.4244" lon="4.08312">
        <ele>107</ele>
        <time>2019-04-07T10:43:18Z</time>
      </trkpt>
      <trkpt lat="49.42441" lon="4.08305">
        <ele>108</ele>
        <time>2019-04-07T10:43:19Z</time>
      </trkpt>
      <trkpt lat="49.42442" lon="4.08297">
        <ele>108</ele>
        <time>2019-04-07T10:43:20Z</time>
      </trkpt>
      <trkpt lat="49.42444" lon="4.0829">
        <ele>108</ele>
        <time>2019-04-07T10:43:21Z</time>
      </trkpt>
      <trkpt lat="49.42445" lon="4.08283">
        <ele>108</ele>
        <time>2019-04-07T10:43:22Z</time>
      </trkpt>
      <trkpt lat="49.42447" lon="4.08276">
        <ele>108</ele>
        <time>2019-04-07T10:43:23Z</time>
      </trkpt>
      <trkpt lat="49.42449" lon="4.08269">
        <ele>108</ele>
        <time>2019-04-07T10:43:24Z</time>
      </trkpt>
      <trkpt lat="49.42451" lon="4.08262">
        <ele>107</ele>
        <time>2019-04-07T10:43:25Z</time>
      </trkpt>
      <trkpt lat="49.42453" lon="4.08255">
        <ele>107</ele>
        <time>2019-04-07T10:43:26Z</time>
      </trkpt>
      <trkpt lat="49.42454" lon="4.08248">
        <ele>107</ele>
        <time>2019-04-07T10:43:27Z</time>
      </trkpt>
      <trkpt lat="49.42456" lon="4.08241">
        <ele>107</ele>
        <time>2019-04-07T10:43:28Z</time>
      </trkpt>
      <trkpt lat="49.42458" lon="4.08234">
        <ele>107</ele>
        <time>2019-04-07T10:43:29Z</time>
      </trkpt>
      <trkpt lat="49.4246" lon="4.08227">
        <ele>107</ele>
        <time>2019-04-07T10:43:30Z</time>
      </trkpt>
      <trkpt lat="49.42462" lon="4.0822">
        <ele>107</ele>
        <time>2019-04-07T10:43:31Z</time>
      </trkpt>
      <trkpt lat="49.42464" lon="4.08213">
        <ele>107</ele>
        <time>2019-04-07T10:43:32Z</time>
      </trkpt>
      <trkpt lat="49.42466" lon="4.08207">
        <ele>107</ele>
        <time>2019-04-07T10:43:33Z</time>
      </trkpt>
      <trkpt lat="49.42468" lon="4.082">
        <ele>107</ele>
        <time>2019-04-07T10:43:34Z</time>
      </trkpt>
      <trkpt lat="49.42471" lon="4.08193">
        <ele>108</ele>
        <time>2019-04-07T10:43:35Z</time>
      </trkpt>
      <trkpt lat="49.42473" lon="4.08186">
        <ele>108</ele>
        <time>2019-04-07T10:43:36Z</time>
      </trkpt>
      <trkpt lat="49.42475" lon="4.0818">
        <ele>108</ele>
        <time>2019-04-07T10:43:37Z</time>
      </trkpt>
      <trkpt lat="49.42477" lon="4.08173">
        <ele>108</ele>
        <time>2019-04-07T10:43:38Z</time>
      </trkpt>
      <trkpt lat="49.42479" lon="4.08166">
        <ele>108</ele>
        <time>2019-04-07T10:43:39Z</time>
      </trkpt>
      <trkpt lat="49.42482" lon="4.08158">
        <ele>108</ele>
        <time>2019-04-07T10:43:40Z</time>
      </trkpt>
      <trkpt lat="49.42484" lon="4.08151">
        <ele>108</ele>
        <time>2019-04-07T10:43:41Z</time>
      </trkpt>
      <trkpt lat="49.42487" lon="4.08144">
        <ele>108</ele>
        <time>2019-04-07T10:43:42Z</time>
      </trkpt>
      <trkpt lat="49.42489" lon="4.08137">
        <ele>108</ele>
        <time>2019-04-07T10:43:43Z</time>
      </trkpt>
      <trkpt lat="49.42492" lon="4.0813">
        <ele>108</ele>
        <time>2019-04-07T10:43:44Z</time>
      </trkpt>
      <trkpt lat="49.42494" lon="4.08123">
        <ele>108</ele>
        <time>2019-04-07T10:43:45Z</time>
      </trkpt>
      <trkpt lat="49.42497" lon="4.08115">
        <ele>108</ele>
        <time>2019-04-07T10:43:46Z</time>
      </trkpt>
      <trkpt lat="49.42499" lon="4.08108">
        <ele>108</ele>
        <time>2019-04-07T10:43:47Z</time>
      </trkpt>
      <trkpt lat="49.42501" lon="4.08101">
        <ele>108</ele>
        <time>2019-04-07T10:43:48Z</time>
      </trkpt>
      <trkpt lat="49.42504" lon="4.08094">
        <ele>108</ele>
        <time>2019-04-07T10:43:49Z</time>
      </trkpt>
      <trkpt lat="49.42506" lon="4.08087">
        <ele>108</ele>
        <time>2019-04-07T10:43:50Z</time>
      </trkpt>
      <trkpt lat="49.42509" lon="4.0808">
        <ele>108</ele>
        <time>2019-04-07T10:43:51Z</time>
      </trkpt>
      <trkpt lat="49.42511" lon="4.08073">
        <ele>108</ele>
        <time>2019-04-07T10:43:52Z</time>
      </trkpt>
      <trkpt lat="49.42514" lon="4.08065">
        <ele>108</ele>
        <time>2019-04-07T10:43:53Z</time>
      </trkpt>
      <trkpt lat="49.42516" lon="4.08058">
        <ele>108</ele>
        <time>2019-04-07T10:43:54Z</time>
      </trkpt>
      <trkpt lat="49.42519" lon="4.08051">
        <ele>108</ele>
        <time>2019-04-07T10:43:55Z</time>
      </trkpt>
      <trkpt lat="49.42521" lon="4.08043">
        <ele>108</ele>
        <time>2019-04-07T10:43:56Z</time>
      </trkpt>
      <trkpt lat="49.42524" lon="4.08036">
        <ele>108</ele>
        <time>2019-04-07T10:43:57Z</time>
      </trkpt>
      <trkpt lat="49.42526" lon="4.08029">
        <ele>108</ele>
        <time>2019-04-07T10:43:58Z</time>
      </trkpt>
      <trkpt lat="49.42528" lon="4.08021">
        <ele>108</ele>
        <time>2019-04-07T10:43:59Z</time>
      </trkpt>
      <trkpt lat="49.4253" lon="4.08013">
        <ele>108</ele>
        <time>2019-04-07T10:44:00Z</time>
      </trkpt>
      <trkpt lat="49.42533" lon="4.08005">
        <ele>108</ele>
        <time>2019-04-07T10:44:01Z</time>
      </trkpt>
      <trkpt lat="49.42535" lon="4.07997">
        <ele>108</ele>
        <time>2019-04-07T10:44:02Z</time>
      </trkpt>
      <trkpt lat="49.42537" lon="4.07989">
        <ele>108</ele>
        <time>2019-04-07T10:44:03Z</time>
      </trkpt>
      <trkpt lat="49.42539" lon="4.07981">
        <ele>108</ele>
        <time>2019-04-07T10:44:04Z</time>
      </trkpt>
      <trkpt lat="49.42541" lon="4.07973">
        <ele>108</ele>
        <time>2019-04-07T10:44:05Z</time>
      </trkpt>
      <trkpt lat="49.42543" lon="4.07964">
        <ele>108</ele>
        <time>2019-04-07T10:44:06Z</time>
      </trkpt>
      <trkpt lat="49.42545" lon="4.07955">
        <ele>108</ele>
        <time>2019-04-07T10:44:07Z</time>
      </trkpt>
      <trkpt lat="49.42547" lon="4.07947">
        <ele>109</ele>
        <time>2019-04-07T10:44:08Z</time>
      </trkpt>
      <trkpt lat="49.42549" lon="4.07938">
        <ele>109</ele>
        <time>2019-04-07T10:44:09Z</time>
      </trkpt>
      <trkpt lat="49.42551" lon="4.0793">
        <ele>109</ele>
        <time>2019-04-07T10:44:10Z</time>
      </trkpt>
      <trkpt lat="49.42553" lon="4.07922">
        <ele>108</ele>
        <time>2019-04-07T10:44:11Z</time>
      </trkpt>
      <trkpt lat="49.42555" lon="4.07913">
        <ele>108</ele>
        <time>2019-04-07T10:44:12Z</time>
      </trkpt>
      <trkpt lat="49.42557" lon="4.07905">
        <ele>108</ele>
        <time>2019-04-07T10:44:13Z</time>
      </trkpt>
      <trkpt lat="49.42559" lon="4.07897">
        <ele>108</ele>
        <time>2019-04-07T10:44:14Z</time>
      </trkpt>
      <trkpt lat="49.42561" lon="4.07888">
        <ele>108</ele>
        <time>2019-04-07T10:44:15Z</time>
      </trkpt>
      <trkpt lat="49.42563" lon="4.0788">
        <ele>108</ele>
        <time>2019-04-07T10:44:16Z</time>
      </trkpt>
      <trkpt lat="49.42565" lon="4.07872">
        <ele>108</ele>
        <time>2019-04-07T10:44:17Z</time>
      </trkpt>
      <trkpt lat="49.42567" lon="4.07863">
        <ele>108</ele>
        <time>2019-04-07T10:44:18Z</time>
      </trkpt>
      <trkpt lat="49.42569" lon="4.07855">
        <ele>108</ele>
        <time>2019-04-07T10:44:19Z</time>
      </trkpt>
      <trkpt lat="49.42571" lon="4.07847">
        <ele>108</ele>
        <time>2019-04-07T10:44:20Z</time>
      </trkpt>
      <trkpt lat="49.42573" lon="4.07838">
        <ele>107</ele>
        <time>2019-04-07T10:44:21Z</time>
      </trkpt>
      <trkpt lat="49.42575" lon="4.0783">
        <ele>107</ele>
        <time>2019-04-07T10:44:22Z</time>
      </trkpt>
      <trkpt lat="49.42576" lon="4.07822">
        <ele>107</ele>
        <time>2019-04-07T10:44:23Z</time>
      </trkpt>
      <trkpt lat="49.42578" lon="4.07813">
        <ele>107</ele>
        <time>2019-04-07T10:44:24Z</time>
      </trkpt>
      <trkpt lat="49.4258" lon="4.07805">
        <ele>107</ele>
        <time>2019-04-07T10:44:25Z</time>
      </trkpt>
      <trkpt lat="49.42582" lon="4.07796">
        <ele>108</ele>
        <time>2019-04-07T10:44:26Z</time>
      </trkpt>
      <trkpt lat="49.42584" lon="4.07788">
        <ele>108</ele>
        <time>2019-04-07T10:44:27Z</time>
      </trkpt>
      <trkpt lat="49.42586" lon="4.0778">
        <ele>108</ele>
        <time>2019-04-07T10:44:28Z</time>
      </trkpt>
      <trkpt lat="49.42588" lon="4.07772">
        <ele>108</ele>
        <time>2019-04-07T10:44:29Z</time>
      </trkpt>
      <trkpt lat="49.4259" lon="4.07763">
        <ele>108</ele>
        <time>2019-04-07T10:44:30Z</time>
      </trkpt>
      <trkpt lat="49.42592" lon="4.07755">
        <ele>108</ele>
        <time>2019-04-07T10:44:31Z</time>
      </trkpt>
      <trkpt lat="49.42593" lon="4.07747">
        <ele>108</ele>
        <time>2019-04-07T10:44:32Z</time>
      </trkpt>
      <trkpt lat="49.42595" lon="4.07738">
        <ele>108</ele>
        <time>2019-04-07T10:44:33Z</time>
      </trkpt>
      <trkpt lat="49.42596" lon="4.07729">
        <ele>108</ele>
        <time>2019-04-07T10:44:34Z</time>
      </trkpt>
      <trkpt lat="49.42598" lon="4.07721">
        <ele>108</ele>
        <time>2019-04-07T10:44:35Z</time>
      </trkpt>
      <trkpt lat="49.426" lon="4.07713">
        <ele>108</ele>
        <time>2019-04-07T10:44:36Z</time>
      </trkpt>
      <trkpt lat="49.42602" lon="4.07705">
        <ele>108</ele>
        <time>2019-04-07T10:44:37Z</time>
      </trkpt>
      <trkpt lat="49.42603" lon="4.07696">
        <ele>108</ele>
        <time>2019-04-07T10:44:38Z</time>
      </trkpt>
      <trkpt lat="49.42604" lon="4.07687">
        <ele>109</ele>
        <time>2019-04-07T10:44:39Z</time>
      </trkpt>
      <trkpt lat="49.42606" lon="4.07678">
        <ele>109</ele>
        <time>2019-04-07T10:44:40Z</time>
      </trkpt>
      <trkpt lat="49.42607" lon="4.07669">
        <ele>109</ele>
        <time>2019-04-07T10:44:41Z</time>
      </trkpt>
      <trkpt lat="49.42608" lon="4.0766">
        <ele>109</ele>
        <time>2019-04-07T10:44:42Z</time>
      </trkpt>
      <trkpt lat="49.42609" lon="4.07652">
        <ele>108</ele>
        <time>2019-04-07T10:44:43Z</time>
      </trkpt>
      <trkpt lat="49.4261" lon="4.07643">
        <ele>109</ele>
        <time>2019-04-07T10:44:44Z</time>
      </trkpt>
      <trkpt lat="49.42611" lon="4.07635">
        <ele>109</ele>
        <time>2019-04-07T10:44:45Z</time>
      </trkpt>
      <trkpt lat="49.42612" lon="4.07626">
        <ele>109</ele>
        <time>2019-04-07T10:44:46Z</time>
      </trkpt>
      <trkpt lat="49.42613" lon="4.07618">
        <ele>109</ele>
        <time>2019-04-07T10:44:47Z</time>
      </trkpt>
      <trkpt lat="49.42614" lon="4.07609">
        <ele>109</ele>
        <time>2019-04-07T10:44:48Z</time>
      </trkpt>
      <trkpt lat="49.42615" lon="4.07601">
        <ele>109</ele>
        <time>2019-04-07T10:44:49Z</time>
      </trkpt>
      <trkpt lat="49.42617" lon="4.07592">
        <ele>109</ele>
        <time>2019-04-07T10:44:50Z</time>
      </trkpt>
      <trkpt lat="49.42618" lon="4.07584">
        <ele>109</ele>
        <time>2019-04-07T10:44:51Z</time>
      </trkpt>
      <trkpt lat="49.42619" lon="4.07576">
        <ele>109</ele>
        <time>2019-04-07T10:44:52Z</time>
      </trkpt>
      <trkpt lat="49.4262" lon="4.07567">
        <ele>109</ele>
        <time>2019-04-07T10:44:53Z</time>
      </trkpt>
      <trkpt lat="49.42621" lon="4.07558">
        <ele>109</ele>
        <time>2019-04-07T10:44:54Z</time>
      </trkpt>
      <trkpt lat="49.42622" lon="4.0755">
        <ele>109</ele>
        <time>2019-04-07T10:44:55Z</time>
      </trkpt>
      <trkpt lat="49.42623" lon="4.07541">
        <ele>108</ele>
        <time>2019-04-07T10:44:56Z</time>
      </trkpt>
      <trkpt lat="49.42624" lon="4.07532">
        <ele>108</ele>
        <time>2019-04-07T10:44:57Z</time>
      </trkpt>
      <trkpt lat="49.42625" lon="4.07523">
        <ele>108</ele>
        <time>2019-04-07T10:44:58Z</time>
      </trkpt>
      <trkpt lat="49.42626" lon="4.07515">
        <ele>108</ele>
        <time>2019-04-07T10:44:59Z</time>
      </trkpt>
      <trkpt lat="49.42627" lon="4.07507">
        <ele>108</ele>
        <time>2019-04-07T10:45:00Z</time>
      </trkpt>
      <trkpt lat="49.42628" lon="4.07498">
        <ele>108</ele>
        <time>2019-04-07T10:45:01Z</time>
      </trkpt>
      <trkpt lat="49.42629" lon="4.0749">
        <ele>108</ele>
        <time>2019-04-07T10:45:02Z</time>
      </trkpt>
      <trkpt lat="49.4263" lon="4.07482">
        <ele>108</ele>
        <time>2019-04-07T10:45:03Z</time>
      </trkpt>
      <trkpt lat="49.42631" lon="4.07473">
        <ele>107</ele>
        <time>2019-04-07T10:45:04Z</time>
      </trkpt>
      <trkpt lat="49.42632" lon="4.07464">
        <ele>107</ele>
        <time>2019-04-07T10:45:05Z</time>
      </trkpt>
      <trkpt lat="49.42633" lon="4.07455">
        <ele>107</ele>
        <time>2019-04-07T10:45:06Z</time>
      </trkpt>
      <trkpt lat="49.42634" lon="4.07447">
        <ele>107</ele>
        <time>2019-04-07T10:45:07Z</time>
      </trkpt>
      <trkpt lat="49.42635" lon="4.07438">
        <ele>107</ele>
        <time>2019-04-07T10:45:08Z</time>
      </trkpt>
      <trkpt lat="49.42636" lon="4.07429">
        <ele>107</ele>
        <time>2019-04-07T10:45:09Z</time>
      </trkpt>
      <trkpt lat="49.42638" lon="4.0742">
        <ele>107</ele>
        <time>2019-04-07T10:45:10Z</time>
      </trkpt>
      <trkpt lat="49.42638" lon="4.07411">
        <ele>107</ele>
        <time>2019-04-07T10:45:11Z</time>
      </trkpt>
      <trkpt lat="49.42639" lon="4.07402">
        <ele>107</ele>
        <time>2019-04-07T10:45:12Z</time>
      </trkpt>
      <trkpt lat="49.4264" lon="4.07394">
        <ele>107</ele>
        <time>2019-04-07T10:45:13Z</time>
      </trkpt>
      <trkpt lat="49.42641" lon="4.07385">
        <ele>107</ele>
        <time>2019-04-07T10:45:14Z</time>
      </trkpt>
      <trkpt lat="49.42642" lon="4.07376">
        <ele>107</ele>
        <time>2019-04-07T10:45:15Z</time>
      </trkpt>
      <trkpt lat="49.42644" lon="4.07367">
        <ele>107</ele>
        <time>2019-04-07T10:45:16Z</time>
      </trkpt>
      <trkpt lat="49.42645" lon="4.07358">
        <ele>107</ele>
        <time>2019-04-07T10:45:17Z</time>
      </trkpt>
      <trkpt lat="49.42646" lon="4.07349">
        <ele>107</ele>
        <time>2019-04-07T10:45:18Z</time>
      </trkpt>
      <trkpt lat="49.42647" lon="4.0734">
        <ele>106</ele>
        <time>2019-04-07T10:45:19Z</time>
      </trkpt>
      <trkpt lat="49.42649" lon="4.07331">
        <ele>106</ele>
        <time>2019-04-07T10:45:20Z</time>
      </trkpt>
      <trkpt lat="49.4265" lon="4.07322">
        <ele>106</ele>
        <time>2019-04-07T10:45:21Z</time>
      </trkpt>
      <trkpt lat="49.42651" lon="4.07313">
        <ele>106</ele>
        <time>2019-04-07T10:45:22Z</time>
      </trkpt>
      <trkpt lat="49.42652" lon="4.07304">
        <ele>106</ele>
        <time>2019-04-07T10:45:23Z</time>
      </trkpt>
      <trkpt lat="49.42653" lon="4.07295">
        <ele>106</ele>
        <time>2019-04-07T10:45:24Z</time>
      </trkpt>
      <trkpt lat="49.42654" lon="4.07286">
        <ele>106</ele>
        <time>2019-04-07T10:45:25Z</time>
      </trkpt>
      <trkpt lat="49.42655" lon="4.07277">
        <ele>106</ele>
        <time>2019-04-07T10:45:26Z</time>
      </trkpt>
      <trkpt lat="49.42656" lon="4.07268">
        <ele>106</ele>
        <time>2019-04-07T10:45:27Z</time>
      </trkpt>
      <trkpt lat="49.42657" lon="4.07259">
        <ele>106</ele>
        <time>2019-04-07T10:45:28Z</time>
      </trkpt>
      <trkpt lat="49.42658" lon="4.0725">
        <ele>106</ele>
        <time>2019-04-07T10:45:29Z</time>
      </trkpt>
      <trkpt lat="49.4266" lon="4.07241">
        <ele>105</ele>
        <time>2019-04-07T10:45:30Z</time>
      </trkpt>
      <trkpt lat="49.4266" lon="4.07232">
        <ele>105</ele>
        <time>2019-04-07T10:45:31Z</time>
      </trkpt>
      <trkpt lat="49.42661" lon="4.07223">
        <ele>105</ele>
        <time>2019-04-07T10:45:32Z</time>
      </trkpt>
      <trkpt lat="49.42663" lon="4.07214">
        <ele>105</ele>
        <time>2019-04-07T10:45:33Z</time>
      </trkpt>
      <trkpt lat="49.42664" lon="4.07206">
        <ele>105</ele>
        <time>2019-04-07T10:45:34Z</time>
      </trkpt>
      <trkpt lat="49.42665" lon="4.07197">
        <ele>105</ele>
        <time>2019-04-07T10:45:35Z</time>
      </trkpt>
      <trkpt lat="49.42666" lon="4.07189">
        <ele>105</ele>
        <time>2019-04-07T10:45:36Z</time>
      </trkpt>
      <trkpt lat="49.42667" lon="4.0718">
        <ele>105</ele>
        <time>2019-04-07T10:45:37Z</time>
      </trkpt>
      <trkpt lat="49.42669" lon="4.07171">
        <ele>105</ele>
        <time>2019-04-07T10:45:38Z</time>
      </trkpt>
      <trkpt lat="49.4267" lon="4.07162">
        <ele>105</ele>
        <time>2019-04-07T10:45:39Z</time>
      </trkpt>
      <trkpt lat="49.42672" lon="4.07154">
        <ele>105</ele>
        <time>2019-04-07T10:45:40Z</time>
      </trkpt>
      <trkpt lat="49.42674" lon="4.07146">
        <ele>105</ele>
        <time>2019-04-07T10:45:41Z</time>
      </trkpt>
      <trkpt lat="49.42676" lon="4.07138">
        <ele>105</ele>
        <time>2019-04-07T10:45:42Z</time>
      </trkpt>
      <trkpt lat="49.42678" lon="4.0713">
        <ele>104</ele>
        <time>2019-04-07T10:45:43Z</time>
      </trkpt>
      <trkpt lat="49.4268" lon="4.07123">
        <ele>105</ele>
        <time>2019-04-07T10:45:44Z</time>
      </trkpt>
      <trkpt lat="49.42682" lon="4.07115">
        <ele>105</ele>
        <time>2019-04-07T10:45:45Z</time>
      </trkpt>
      <trkpt lat="49.42684" lon="4.07107">
        <ele>105</ele>
        <time>2019-04-07T10:45:46Z</time>
      </trkpt>
      <trkpt lat="49.42686" lon="4.071">
        <ele>105</ele>
        <time>2019-04-07T10:45:47Z</time>
      </trkpt>
      <trkpt lat="49.42688" lon="4.07092">
        <ele>105</ele>
        <time>2019-04-07T10:45:48Z</time>
      </trkpt>
      <trkpt lat="49.4269" lon="4.07084">
        <ele>104</ele>
        <time>2019-04-07T10:45:49Z</time>
      </trkpt>
      <trkpt lat="49.42693" lon="4.07076">
        <ele>104</ele>
        <time>2019-04-07T10:45:50Z</time>
      </trkpt>
      <trkpt lat="49.42695" lon="4.07069">
        <ele>104</ele>
        <time>2019-04-07T10:45:51Z</time>
      </trkpt>
      <trkpt lat="49.42696" lon="4.07061">
        <ele>104</ele>
        <time>2019-04-07T10:45:52Z</time>
      </trkpt>
      <trkpt lat="49.42699" lon="4.07053">
        <ele>104</ele>
        <time>2019-04-07T10:45:53Z</time>
      </trkpt>
      <trkpt lat="49.42701" lon="4.07045">
        <ele>104</ele>
        <time>2019-04-07T10:45:54Z</time>
      </trkpt>
      <trkpt lat="49.42703" lon="4.07037">
        <ele>104</ele>
        <time>2019-04-07T10:45:55Z</time>
      </trkpt>
      <trkpt lat="49.42705" lon="4.0703">
        <ele>104</ele>
        <time>2019-04-07T10:45:56Z</time>
      </trkpt>
      <trkpt lat="49.42707" lon="4.07022">
        <ele>104</ele>
        <time>2019-04-07T10:45:57Z</time>
      </trkpt>
      <trkpt lat="49.42709" lon="4.07014">
        <ele>104</ele>
        <time>2019-04-07T10:45:58Z</time>
      </trkpt>
      <trkpt lat="49.42711" lon="4.07006">
        <ele>104</ele>
        <time>2019-04-07T10:45:59Z</time>
      </trkpt>
      <trkpt lat="49.42713" lon="4.06998">
        <ele>104</ele>
        <time>2019-04-07T10:46:00Z</time>
      </trkpt>
      <trkpt lat="49.42715" lon="4.06991">
        <ele>104</ele>
        <time>2019-04-07T10:46:01Z</time>
      </trkpt>
      <trkpt lat="49.42717" lon="4.06983">
        <ele>104</ele>
        <time>2019-04-07T10:46:02Z</time>
      </trkpt>
      <trkpt lat="49.42719" lon="4.06975">
        <ele>104</ele>
        <time>2019-04-07T10:46:03Z</time>
      </trkpt>
      <trkpt lat="49.42721" lon="4.06967">
        <ele>104</ele>
        <time>2019-04-07T10:46:04Z</time>
      </trkpt>
      <trkpt lat="49.42723" lon="4.06959">
        <ele>104</ele>
        <time>2019-04-07T10:46:05Z</time>
      </trkpt>
      <trkpt lat="49.42725" lon="4.06952">
        <ele>104</ele>
        <time>2019-04-07T10:46:06Z</time>
      </trkpt>
      <trkpt lat="49.42727" lon="4.06945">
        <ele>104</ele>
        <time>2019-04-07T10:46:07Z</time>
      </trkpt>
      <trkpt lat="49.42729" lon="4.06938">
        <ele>104</ele>
        <time>2019-04-07T10:46:08Z</time>
      </trkpt>
      <trkpt lat="49.42731" lon="4.0693">
        <ele>104</ele>
        <time>2019-04-07T10:46:09Z</time>
      </trkpt>
      <trkpt lat="49.42733" lon="4.06922">
        <ele>104</ele>
        <time>2019-04-07T10:46:10Z</time>
      </trkpt>
      <trkpt lat="49.42735" lon="4.06915">
        <ele>104</ele>
        <time>2019-04-07T10:46:11Z</time>
      </trkpt>
      <trkpt lat="49.42737" lon="4.06907">
        <ele>104</ele>
        <time>2019-04-07T10:46:12Z</time>
      </trkpt>
      <trkpt lat="49.42739" lon="4.06899">
        <ele>104</ele>
        <time>2019-04-07T10:46:13Z</time>
      </trkpt>
      <trkpt lat="49.42741" lon="4.06891">
        <ele>104</ele>
        <time>2019-04-07T10:46:14Z</time>
      </trkpt>
      <trkpt lat="49.42743" lon="4.06883">
        <ele>104</ele>
        <time>2019-04-07T10:46:15Z</time>
      </trkpt>
      <trkpt lat="49.42746" lon="4.06876">
        <ele>104</ele>
        <time>2019-04-07T10:46:16Z</time>
      </trkpt>
      <trkpt lat="49.42747" lon="4.06868">
        <ele>104</ele>
        <time>2019-04-07T10:46:17Z</time>
      </trkpt>
      <trkpt lat="49.42749" lon="4.0686">
        <ele>104</ele>
        <time>2019-04-07T10:46:18Z</time>
      </trkpt>
      <trkpt lat="49.42751" lon="4.06853">
        <ele>104</ele>
        <time>2019-04-07T10:46:19Z</time>
      </trkpt>
      <trkpt lat="49.42753" lon="4.06845">
        <ele>105</ele>
        <time>2019-04-07T10:46:20Z</time>
      </trkpt>
      <trkpt lat="49.42755" lon="4.06838">
        <ele>104</ele>
        <time>2019-04-07T10:46:21Z</time>
      </trkpt>
      <trkpt lat="49.42757" lon="4.06829">
        <ele>104</ele>
        <time>2019-04-07T10:46:22Z</time>
      </trkpt>
      <trkpt lat="49.42759" lon="4.06821">
        <ele>104</ele>
        <time>2019-04-07T10:46:23Z</time>
      </trkpt>
      <trkpt lat="49.42761" lon="4.06814">
        <ele>104</ele>
        <time>2019-04-07T10:46:24Z</time>
      </trkpt>
      <trkpt lat="49.42763" lon="4.06806">
        <ele>104</ele>
        <time>2019-04-07T10:46:25Z</time>
      </trkpt>
      <trkpt lat="49.42766" lon="4.06798">
        <ele>104</ele>
        <time>2019-04-07T10:46:26Z</time>
      </trkpt>
      <trkpt lat="49.42768" lon="4.06791">
        <ele>104</ele>
        <time>2019-04-07T10:46:27Z</time>
      </trkpt>
      <trkpt lat="49.4277" lon="4.06784">
        <ele>104</ele>
        <time>2019-04-07T10:46:28Z</time>
      </trkpt>
      <trkpt lat="49.42772" lon="4.06776">
        <ele>104</ele>
        <time>2019-04-07T10:46:29Z</time>
      </trkpt>
      <trkpt lat="49.42774" lon="4.06769">
        <ele>104</ele>
        <time>2019-04-07T10:46:30Z</time>
      </trkpt>
      <trkpt lat="49.42776" lon="4.06761">
        <ele>104</ele>
        <time>2019-04-07T10:46:31Z</time>
      </trkpt>
      <trkpt lat="49.42779" lon="4.06754">
        <ele>104</ele>
        <time>2019-04-07T10:46:32Z</time>
      </trkpt>
      <trkpt lat="49.42781" lon="4.06747">
        <ele>104</ele>
        <time>2019-04-07T10:46:33Z</time>
      </trkpt>
      <trkpt lat="49.42783" lon="4.06739">
        <ele>104</ele>
        <time>2019-04-07T10:46:34Z</time>
      </trkpt>
      <trkpt lat="49.42786" lon="4.06732">
        <ele>104</ele>
        <time>2019-04-07T10:46:35Z</time>
      </trkpt>
      <trkpt lat="49.42788" lon="4.06725">
        <ele>104</ele>
        <time>2019-04-07T10:46:36Z</time>
      </trkpt>
      <trkpt lat="49.42791" lon="4.06718">
        <ele>104</ele>
        <time>2019-04-07T10:46:37Z</time>
      </trkpt>
      <trkpt lat="49.42794" lon="4.06712">
        <ele>104</ele>
        <time>2019-04-07T10:46:38Z</time>
      </trkpt>
      <trkpt lat="49.42797" lon="4.06705">
        <ele>104</ele>
        <time>2019-04-07T10:46:39Z</time>
      </trkpt>
      <trkpt lat="49.428" lon="4.06699">
        <ele>104</ele>
        <time>2019-04-07T10:46:40Z</time>
      </trkpt>
      <trkpt lat="49.42803" lon="4.06693">
        <ele>104</ele>
        <time>2019-04-07T10:46:41Z</time>
      </trkpt>
      <trkpt lat="49.42806" lon="4.06688">
        <ele>104</ele>
        <time>2019-04-07T10:46:42Z</time>
      </trkpt>
      <trkpt lat="49.42809" lon="4.06682">
        <ele>104</ele>
        <time>2019-04-07T10:46:43Z</time>
      </trkpt>
      <trkpt lat="49.42812" lon="4.06676">
        <ele>104</ele>
        <time>2019-04-07T10:46:44Z</time>
      </trkpt>
      <trkpt lat="49.42815" lon="4.0667">
        <ele>104</ele>
        <time>2019-04-07T10:46:45Z</time>
      </trkpt>
      <trkpt lat="49.42818" lon="4.06664">
        <ele>104</ele>
        <time>2019-04-07T10:46:46Z</time>
      </trkpt>
      <trkpt lat="49.42821" lon="4.06658">
        <ele>104</ele>
        <time>2019-04-07T10:46:47Z</time>
      </trkpt>
      <trkpt lat="49.42824" lon="4.06652">
        <ele>104</ele>
        <time>2019-04-07T10:46:48Z</time>
      </trkpt>
      <trkpt lat="49.42827" lon="4.06646">
        <ele>104</ele>
        <time>2019-04-07T10:46:49Z</time>
      </trkpt>
      <trkpt lat="49.4283" lon="4.0664">
        <ele>105</ele>
        <time>2019-04-07T10:46:50Z</time>
      </trkpt>
      <trkpt lat="49.42833" lon="4.06634">
        <ele>104</ele>
        <time>2019-04-07T10:46:51Z</time>
      </trkpt>
      <trkpt lat="49.42837" lon="4.06629">
        <ele>104</ele>
        <time>2019-04-07T10:46:52Z</time>
      </trkpt>
      <trkpt lat="49.42839" lon="4.06623">
        <ele>104</ele>
        <time>2019-04-07T10:46:53Z</time>
      </trkpt>
      <trkpt lat="49.42842" lon="4.06618">
        <ele>105</ele>
        <time>2019-04-07T10:46:54Z</time>
      </trkpt>
      <trkpt lat="49.42845" lon="4.06613">
        <ele>105</ele>
        <time>2019-04-07T10:46:55Z</time>
      </trkpt>
      <trkpt lat="49.42848" lon="4.06607">
        <ele>105</ele>
        <time>2019-04-07T10:46:56Z</time>
      </trkpt>
      <trkpt lat="49.42851" lon="4.06602">
        <ele>105</ele>
        <time>2019-04-07T10:46:57Z</time>
      </trkpt>
      <trkpt lat="49.42854" lon="4.06596">
        <ele>105</ele>
        <time>2019-04-07T10:46:58Z</time>
      </trkpt>
      <trkpt lat="49.42857" lon="4.06591">
        <ele>105</ele>
        <time>2019-04-07T10:46:59Z</time>
      </trkpt>
      <trkpt lat="49.4286" lon="4.06585">
        <ele>105</ele>
        <time>2019-04-07T10:47:00Z</time>
      </trkpt>
      <trkpt lat="49.42863" lon="4.0658">
        <ele>105</ele>
        <time>2019-04-07T10:47:01Z</time>
      </trkpt>
      <trkpt lat="49.42865" lon="4.06574">
        <ele>106</ele>
        <time>2019-04-07T10:47:02Z</time>
      </trkpt>
      <trkpt lat="49.42868" lon="4.06569">
        <ele>105</ele>
        <time>2019-04-07T10:47:03Z</time>
      </trkpt>
      <trkpt lat="49.42871" lon="4.06563">
        <ele>105</ele>
        <time>2019-04-07T10:47:04Z</time>
      </trkpt>
      <trkpt lat="49.42874" lon="4.06557">
        <ele>105</ele>
        <time>2019-04-07T10:47:05Z</time>
      </trkpt>
      <trkpt lat="49.42877" lon="4.06552">
        <ele>106</ele>
        <time>2019-04-07T10:47:06Z</time>
      </trkpt>
      <trkpt lat="49.4288" lon="4.06546">
        <ele>106</ele>
        <time>2019-04-07T10:47:07Z</time>
      </trkpt>
      <trkpt lat="49.42883" lon="4.06541">
        <ele>106</ele>
        <time>2019-04-07T10:47:08Z</time>
      </trkpt>
      <trkpt lat="49.42885" lon="4.06535">
        <ele>106</ele>
        <time>2019-04-07T10:47:09Z</time>
      </trkpt>
      <trkpt lat="49.42888" lon="4.0653">
        <ele>106</ele>
        <time>2019-04-07T10:47:10Z</time>
      </trkpt>
      <trkpt lat="49.42891" lon="4.06524">
        <ele>106</ele>
        <time>2019-04-07T10:47:11Z</time>
      </trkpt>
      <trkpt lat="49.42894" lon="4.06519">
        <ele>106</ele>
        <time>2019-04-07T10:47:12Z</time>
      </trkpt>
      <trkpt lat="49.42897" lon="4.06513">
        <ele>106</ele>
        <time>2019-04-07T10:47:13Z</time>
      </trkpt>
      <trkpt lat="49.42899" lon="4.06508">
        <ele>106</ele>
        <time>2019-04-07T10:47:14Z</time>
      </trkpt>
      <trkpt lat="49.42902" lon="4.06502">
        <ele>106</ele>
        <time>2019-04-07T10:47:15Z</time>
      </trkpt>
      <trkpt lat="49.42905" lon="4.06497">
        <ele>107</ele>
        <time>2019-04-07T10:47:16Z</time>
      </trkpt>
      <trkpt lat="49.42908" lon="4.06491">
        <ele>107</ele>
        <time>2019-04-07T10:47:17Z</time>
      </trkpt>
      <trkpt lat="49.42911" lon="4.06485">
        <ele>107</ele>
        <time>2019-04-07T10:47:18Z</time>
      </trkpt>
      <trkpt lat="49.42913" lon="4.0648">
        <ele>107</ele>
        <time>2019-04-07T10:47:19Z</time>
      </trkpt>
      <trkpt lat="49.42916" lon="4.06475">
        <ele>107</ele>
        <time>2019-04-07T10:47:20Z</time>
      </trkpt>
      <trkpt lat="49.42919" lon="4.06469">
        <ele>107</ele>
        <time>2019-04-07T10:47:21Z</time>
      </trkpt>
      <trkpt lat="49.42922" lon="4.06464">
        <ele>107</ele>
        <time>2019-04-07T10:47:22Z</time>
      </trkpt>
      <trkpt lat="49.42925" lon="4.0646">
        <ele>107</ele>
        <time>2019-04-07T10:47:23Z</time>
      </trkpt>
      <trkpt lat="49.42927" lon="4.06455">
        <ele>107</ele>
        <time>2019-04-07T10:47:24Z</time>
      </trkpt>
      <trkpt lat="49.4293" lon="4.0645">
        <ele>107</ele>
        <time>2019-04-07T10:47:25Z</time>
      </trkpt>
      <trkpt lat="49.42933" lon="4.06445">
        <ele>107</ele>
        <time>2019-04-07T10:47:26Z</time>
      </trkpt>
      <trkpt lat="49.42936" lon="4.0644">
        <ele>107</ele>
        <time>2019-04-07T10:47:27Z</time>
      </trkpt>
      <trkpt lat="49.42938" lon="4.06435">
        <ele>107</ele>
        <time>2019-04-07T10:47:28Z</time>
      </trkpt>
      <trkpt lat="49.42941" lon="4.06429">
        <ele>107</ele>
        <time>2019-04-07T10:47:29Z</time>
      </trkpt>
      <trkpt lat="49.42944" lon="4.06424">
        <ele>107</ele>
        <time>2019-04-07T10:47:30Z</time>
      </trkpt>
      <trkpt lat="49.42947" lon="4.06419">
        <ele>107</ele>
        <time>2019-04-07T10:47:31Z</time>
      </trkpt>
      <trkpt lat="49.4295" lon="4.06414">
        <ele>107</ele>
        <time>2019-04-07T10:47:32Z</time>
      </trkpt>
      <trkpt lat="49.42952" lon="4.06409">
        <ele>108</ele>
        <time>2019-04-07T10:47:33Z</time>
      </trkpt>
      <trkpt lat="49.42955" lon="4.06403">
        <ele>108</ele>
        <time>2019-04-07T10:47:34Z</time>
      </trkpt>
      <trkpt lat="49.42958" lon="4.06398">
        <ele>108</ele>
        <time>2019-04-07T10:47:35Z</time>
      </trkpt>
      <trkpt lat="49.42961" lon="4.06392">
        <ele>108</ele>
        <time>2019-04-07T10:47:36Z</time>
      </trkpt>
      <trkpt lat="49.42963" lon="4.06387">
        <ele>108</ele>
        <time>2019-04-07T10:47:37Z</time>
      </trkpt>
      <trkpt lat="49.42966" lon="4.06381">
        <ele>108</ele>
        <time>2019-04-07T10:47:38Z</time>
      </trkpt>
      <trkpt lat="49.42969" lon="4.06376">
        <ele>108</ele>
        <time>2019-04-07T10:47:39Z</time>
      </trkpt>
      <trkpt lat="49.42972" lon="4.0637">
        <ele>108</ele>
        <time>2019-04-07T10:47:40Z</time>
      </trkpt>
      <trkpt lat="49.42975" lon="4.06365">
        <ele>108</ele>
        <time>2019-04-07T10:47:41Z</time>
      </trkpt>
      <trkpt lat="49.42978" lon="4.0636">
        <ele>108</ele>
        <time>2019-04-07T10:47:42Z</time>
      </trkpt>
      <trkpt lat="49.42981" lon="4.06355">
        <ele>108</ele>
        <time>2019-04-07T10:47:43Z</time>
      </trkpt>
      <trkpt lat="49.42983" lon="4.06349">
        <ele>108</ele>
        <time>2019-04-07T10:47:44Z</time>
      </trkpt>
      <trkpt lat="49.42986" lon="4.06344">
        <ele>108</ele>
        <time>2019-04-07T10:47:45Z</time>
      </trkpt>
      <trkpt lat="49.42989" lon="4.06338">
        <ele>108</ele>
        <time>2019-04-07T10:47:46Z</time>
      </trkpt>
      <trkpt lat="49.42992" lon="4.06333">
        <ele>108</ele>
        <time>2019-04-07T10:47:47Z</time>
      </trkpt>
      <trkpt lat="49.42994" lon="4.06328">
        <ele>108</ele>
        <time>2019-04-07T10:47:48Z</time>
      </trkpt>
      <trkpt lat="49.42997" lon="4.06323">
        <ele>108</ele>
        <time>2019-04-07T10:47:49Z</time>
      </trkpt>
      <trkpt lat="49.43" lon="4.06317">
        <ele>109</ele>
        <time>2019-04-07T10:47:50Z</time>
      </trkpt>
      <trkpt lat="49.43002" lon="4.06312">
        <ele>109</ele>
        <time>2019-04-07T10:47:51Z</time>
      </trkpt>
      <trkpt lat="49.43006" lon="4.06306">
        <ele>109</ele>
        <time>2019-04-07T10:47:52Z</time>
      </trkpt>
      <trkpt lat="49.43008" lon="4.06301">
        <ele>109</ele>
        <time>2019-04-07T10:47:53Z</time>
      </trkpt>
      <trkpt lat="49.43011" lon="4.06296">
        <ele>109</ele>
        <time>2019-04-07T10:47:54Z</time>
      </trkpt>
      <trkpt lat="49.43014" lon="4.0629">
        <ele>109</ele>
        <time>2019-04-07T10:47:55Z</time>
      </trkpt>
      <trkpt lat="49.43016" lon="4.06284">
        <ele>109</ele>
        <time>2019-04-07T10:47:56Z</time>
      </trkpt>
      <trkpt lat="49.43019" lon="4.06279">
        <ele>109</ele>
        <time>2019-04-07T10:47:57Z</time>
      </trkpt>
      <trkpt lat="49.43023" lon="4.06273">
        <ele>109</ele>
        <time>2019-04-07T10:47:58Z</time>
      </trkpt>
      <trkpt lat="49.43026" lon="4.06268">
        <ele>109</ele>
        <time>2019-04-07T10:47:59Z</time>
      </trkpt>
      <trkpt lat="49.43029" lon="4.06262">
        <ele>109</ele>
        <time>2019-04-07T10:48:00Z</time>
      </trkpt>
      <trkpt lat="49.43032" lon="4.06257">
        <ele>109</ele>
        <time>2019-04-07T10:48:01Z</time>
      </trkpt>
      <trkpt lat="49.43034" lon="4.06252">
        <ele>109</ele>
        <time>2019-04-07T10:48:02Z</time>
      </trkpt>
      <trkpt lat="49.43037" lon="4.06248">
        <ele>109</ele>
        <time>2019-04-07T10:48:03Z</time>
      </trkpt>
      <trkpt lat="49.43038" lon="4.06243">
        <ele>109</ele>
        <time>2019-04-07T10:48:04Z</time>
      </trkpt>
      <trkpt lat="49.4304" lon="4.06238">
        <ele>110</ele>
        <time>2019-04-07T10:48:05Z</time>
      </trkpt>
      <trkpt lat="49.43043" lon="4.06233">
        <ele>110</ele>
        <time>2019-04-07T10:48:06Z</time>
      </trkpt>
      <trkpt lat="49.43045" lon="4.06228">
        <ele>110</ele>
        <time>2019-04-07T10:48:07Z</time>
      </trkpt>
      <trkpt lat="49.43048" lon="4.06222">
        <ele>110</ele>
        <time>2019-04-07T10:48:08Z</time>
      </trkpt>
      <trkpt lat="49.4305" lon="4.06216">
        <ele>110</ele>
        <time>2019-04-07T10:48:09Z</time>
      </trkpt>
      <trkpt lat="49.43053" lon="4.06211">
        <ele>110</ele>
        <time>2019-04-07T10:48:10Z</time>
      </trkpt>
      <trkpt lat="49.43055" lon="4.06205">
        <ele>110</ele>
        <time>2019-04-07T10:48:11Z</time>
      </trkpt>
      <trkpt lat="49.43058" lon="4.06199">
        <ele>110</ele>
        <time>2019-04-07T10:48:12Z</time>
      </trkpt>
      <trkpt lat="49.43061" lon="4.06193">
        <ele>110</ele>
        <time>2019-04-07T10:48:13Z</time>
      </trkpt>
      <trkpt lat="49.43063" lon="4.06187">
        <ele>110</ele>
        <time>2019-04-07T10:48:14Z</time>
      </trkpt>
      <trkpt lat="49.43065" lon="4.0618">
        <ele>110</ele>
        <time>2019-04-07T10:48:15Z</time>
      </trkpt>
      <trkpt lat="49.43068" lon="4.06174">
        <ele>110</ele>
        <time>2019-04-07T10:48:16Z</time>
      </trkpt>
      <trkpt lat="49.4307" lon="4.06167">
        <ele>110</ele>
        <time>2019-04-07T10:48:17Z</time>
      </trkpt>
      <trkpt lat="49.43072" lon="4.0616">
        <ele>110</ele>
        <time>2019-04-07T10:48:18Z</time>
      </trkpt>
      <trkpt lat="49.43074" lon="4.06154">
        <ele>110</ele>
        <time>2019-04-07T10:48:19Z</time>
      </trkpt>
      <trkpt lat="49.43076" lon="4.06147">
        <ele>110</ele>
        <time>2019-04-07T10:48:20Z</time>
      </trkpt>
      <trkpt lat="49.43078" lon="4.0614">
        <ele>109</ele>
        <time>2019-04-07T10:48:21Z</time>
      </trkpt>
      <trkpt lat="49.4308" lon="4.06134">
        <ele>110</ele>
        <time>2019-04-07T10:48:22Z</time>
      </trkpt>
      <trkpt lat="49.43082" lon="4.06126">
        <ele>109</ele>
        <time>2019-04-07T10:48:23Z</time>
      </trkpt>
      <trkpt lat="49.43084" lon="4.06119">
        <ele>109</ele>
        <time>2019-04-07T10:48:24Z</time>
      </trkpt>
      <trkpt lat="49.43086" lon="4.06112">
        <ele>109</ele>
        <time>2019-04-07T10:48:25Z</time>
      </trkpt>
      <trkpt lat="49.43089" lon="4.06105">
        <ele>109</ele>
        <time>2019-04-07T10:48:26Z</time>
      </trkpt>
      <trkpt lat="49.43092" lon="4.0609">
        <ele>109</ele>
        <time>2019-04-07T10:48:28Z</time>
      </trkpt>
      <trkpt lat="49.43094" lon="4.06082">
        <ele>108</ele>
        <time>2019-04-07T10:48:29Z</time>
      </trkpt>
      <trkpt lat="49.43096" lon="4.06073">
        <ele>108</ele>
        <time>2019-04-07T10:48:30Z</time>
      </trkpt>
      <trkpt lat="49.43098" lon="4.06064">
        <ele>108</ele>
        <time>2019-04-07T10:48:31Z</time>
      </trkpt>
      <trkpt lat="49.43099" lon="4.06056">
        <ele>108</ele>
        <time>2019-04-07T10:48:32Z</time>
      </trkpt>
      <trkpt lat="49.43101" lon="4.06048">
        <ele>108</ele>
        <time>2019-04-07T10:48:33Z</time>
      </trkpt>
      <trkpt lat="49.43102" lon="4.06039">
        <ele>108</ele>
        <time>2019-04-07T10:48:34Z</time>
      </trkpt>
      <trkpt lat="49.43104" lon="4.06031">
        <ele>107</ele>
        <time>2019-04-07T10:48:35Z</time>
      </trkpt>
      <trkpt lat="49.43106" lon="4.06022">
        <ele>107</ele>
        <time>2019-04-07T10:48:36Z</time>
      </trkpt>
      <trkpt lat="49.43108" lon="4.06013">
        <ele>107</ele>
        <time>2019-04-07T10:48:37Z</time>
      </trkpt>
      <trkpt lat="49.4311" lon="4.06004">
        <ele>107</ele>
        <time>2019-04-07T10:48:38Z</time>
      </trkpt>
      <trkpt lat="49.43112" lon="4.05995">
        <ele>107</ele>
        <time>2019-04-07T10:48:39Z</time>
      </trkpt>
      <trkpt lat="49.43114" lon="4.05986">
        <ele>106</ele>
        <time>2019-04-07T10:48:40Z</time>
      </trkpt>
      <trkpt lat="49.43115" lon="4.05977">
        <ele>106</ele>
        <time>2019-04-07T10:48:41Z</time>
      </trkpt>
      <trkpt lat="49.43118" lon="4.05967">
        <ele>106</ele>
        <time>2019-04-07T10:48:42Z</time>
      </trkpt>
      <trkpt lat="49.4312" lon="4.05958">
        <ele>106</ele>
        <time>2019-04-07T10:48:43Z</time>
      </trkpt>
      <trkpt lat="49.43122" lon="4.05949">
        <ele>106</ele>
        <time>2019-04-07T10:48:44Z</time>
      </trkpt>
      <trkpt lat="49.43124" lon="4.0594">
        <ele>106</ele>
        <time>2019-04-07T10:48:45Z</time>
      </trkpt>
      <trkpt lat="49.43126" lon="4.0593">
        <ele>105</ele>
        <time>2019-04-07T10:48:46Z</time>
      </trkpt>
      <trkpt lat="49.43127" lon="4.05921">
        <ele>105</ele>
        <time>2019-04-07T10:48:47Z</time>
      </trkpt>
      <trkpt lat="49.43129" lon="4.05911">
        <ele>105</ele>
        <time>2019-04-07T10:48:48Z</time>
      </trkpt>
      <trkpt lat="49.43132" lon="4.05901">
        <ele>105</ele>
        <time>2019-04-07T10:48:49Z</time>
      </trkpt>
      <trkpt lat="49.43133" lon="4.05891">
        <ele>106</ele>
        <time>2019-04-07T10:48:50Z</time>
      </trkpt>
      <trkpt lat="49.43135" lon="4.05883">
        <ele>107</ele>
        <time>2019-04-07T10:48:51Z</time>
      </trkpt>
      <trkpt lat="49.43136" lon="4.05874">
        <ele>106</ele>
        <time>2019-04-07T10:48:52Z</time>
      </trkpt>
      <trkpt lat="49.43137" lon="4.05865">
        <ele>106</ele>
        <time>2019-04-07T10:48:53Z</time>
      </trkpt>
      <trkpt lat="49.43139" lon="4.05857">
        <ele>106</ele>
        <time>2019-04-07T10:48:54Z</time>
      </trkpt>
      <trkpt lat="49.43141" lon="4.05849">
        <ele>105</ele>
        <time>2019-04-07T10:48:55Z</time>
      </trkpt>
      <trkpt lat="49.43143" lon="4.0584">
        <ele>105</ele>
        <time>2019-04-07T10:48:56Z</time>
      </trkpt>
      <trkpt lat="49.43144" lon="4.05831">
        <ele>105</ele>
        <time>2019-04-07T10:48:57Z</time>
      </trkpt>
      <trkpt lat="49.43146" lon="4.05822">
        <ele>105</ele>
        <time>2019-04-07T10:48:58Z</time>
      </trkpt>
      <trkpt lat="49.43148" lon="4.05813">
        <ele>105</ele>
        <time>2019-04-07T10:48:59Z</time>
      </trkpt>
      <trkpt lat="49.43149" lon="4.05804">
        <ele>105</ele>
        <time>2019-04-07T10:49:00Z</time>
      </trkpt>
      <trkpt lat="49.43151" lon="4.05795">
        <ele>105</ele>
        <time>2019-04-07T10:49:01Z</time>
      </trkpt>
      <trkpt lat="49.43153" lon="4.05786">
        <ele>105</ele>
        <time>2019-04-07T10:49:02Z</time>
      </trkpt>
      <trkpt lat="49.43155" lon="4.05777">
        <ele>105</ele>
        <time>2019-04-07T10:49:03Z</time>
      </trkpt>
      <trkpt lat="49.43156" lon="4.05769">
        <ele>105</ele>
        <time>2019-04-07T10:49:04Z</time>
      </trkpt>
      <trkpt lat="49.43158" lon="4.0576">
        <ele>105</ele>
        <time>2019-04-07T10:49:05Z</time>
      </trkpt>
      <trkpt lat="49.4316" lon="4.05752">
        <ele>105</ele>
        <time>2019-04-07T10:49:06Z</time>
      </trkpt>
      <trkpt lat="49.43161" lon="4.05744">
        <ele>105</ele>
        <time>2019-04-07T10:49:07Z</time>
      </trkpt>
      <trkpt lat="49.43163" lon="4.05736">
        <ele>105</ele>
        <time>2019-04-07T10:49:08Z</time>
      </trkpt>
      <trkpt lat="49.43164" lon="4.05729">
        <ele>105</ele>
        <time>2019-04-07T10:49:09Z</time>
      </trkpt>
      <trkpt lat="49.43166" lon="4.05722">
        <ele>105</ele>
        <time>2019-04-07T10:49:10Z</time>
      </trkpt>
      <trkpt lat="49.43167" lon="4.05714">
        <ele>105</ele>
        <time>2019-04-07T10:49:11Z</time>
      </trkpt>
      <trkpt lat="49.43169" lon="4.05707">
        <ele>105</ele>
        <time>2019-04-07T10:49:12Z</time>
      </trkpt>
      <trkpt lat="49.4317" lon="4.057">
        <ele>105</ele>
        <time>2019-04-07T10:49:13Z</time>
      </trkpt>
      <trkpt lat="49.43172" lon="4.05693">
        <ele>106</ele>
        <time>2019-04-07T10:49:14Z</time>
      </trkpt>
      <trkpt lat="49.43174" lon="4.05686">
        <ele>106</ele>
        <time>2019-04-07T10:49:15Z</time>
      </trkpt>
      <trkpt lat="49.43176" lon="4.05679">
        <ele>106</ele>
        <time>2019-04-07T10:49:16Z</time>
      </trkpt>
      <trkpt lat="49.43178" lon="4.05672">
        <ele>106</ele>
        <time>2019-04-07T10:49:17Z</time>
      </trkpt>
      <trkpt lat="49.4318" lon="4.05665">
        <ele>106</ele>
        <time>2019-04-07T10:49:18Z</time>
      </trkpt>
      <trkpt lat="49.43182" lon="4.05658">
        <ele>106</ele>
        <time>2019-04-07T10:49:19Z</time>
      </trkpt>
      <trkpt lat="49.43184" lon="4.05651">
        <ele>106</ele>
        <time>2019-04-07T10:49:20Z</time>
      </trkpt>
      <trkpt lat="49.43186" lon="4.05644">
        <ele>106</ele>
        <time>2019-04-07T10:49:21Z</time>
      </trkpt>
      <trkpt lat="49.43188" lon="4.05637">
        <ele>106</ele>
        <time>2019-04-07T10:49:22Z</time>
      </trkpt>
      <trkpt lat="49.4319" lon="4.0563">
        <ele>105</ele>
        <time>2019-04-07T10:49:23Z</time>
      </trkpt>
      <trkpt lat="49.43193" lon="4.05624">
        <ele>105</ele>
        <time>2019-04-07T10:49:24Z</time>
      </trkpt>
      <trkpt lat="49.43195" lon="4.05616">
        <ele>105</ele>
        <time>2019-04-07T10:49:25Z</time>
      </trkpt>
      <trkpt lat="49.43197" lon="4.0561">
        <ele>106</ele>
        <time>2019-04-07T10:49:26Z</time>
      </trkpt>
      <trkpt lat="49.43199" lon="4.05603">
        <ele>106</ele>
        <time>2019-04-07T10:49:27Z</time>
      </trkpt>
      <trkpt lat="49.43201" lon="4.05597">
        <ele>105</ele>
        <time>2019-04-07T10:49:28Z</time>
      </trkpt>
      <trkpt lat="49.43203" lon="4.0559">
        <ele>106</ele>
        <time>2019-04-07T10:49:29Z</time>
      </trkpt>
      <trkpt lat="49.43205" lon="4.05584">
        <ele>106</ele>
        <time>2019-04-07T10:49:30Z</time>
      </trkpt>
      <trkpt lat="49.43207" lon="4.05577">
        <ele>106</ele>
        <time>2019-04-07T10:49:31Z</time>
      </trkpt>
      <trkpt lat="49.43209" lon="4.05571">
        <ele>106</ele>
        <time>2019-04-07T10:49:32Z</time>
      </trkpt>
      <trkpt lat="49.43211" lon="4.05565">
        <ele>106</ele>
        <time>2019-04-07T10:49:33Z</time>
      </trkpt>
      <trkpt lat="49.43213" lon="4.05559">
        <ele>106</ele>
        <time>2019-04-07T10:49:34Z</time>
      </trkpt>
      <trkpt lat="49.43215" lon="4.05554">
        <ele>106</ele>
        <time>2019-04-07T10:49:35Z</time>
      </trkpt>
      <trkpt lat="49.43217" lon="4.05548">
        <ele>106</ele>
        <time>2019-04-07T10:49:36Z</time>
      </trkpt>
      <trkpt lat="49.43219" lon="4.05542">
        <ele>106</ele>
        <time>2019-04-07T10:49:37Z</time>
      </trkpt>
      <trkpt lat="49.43221" lon="4.05537">
        <ele>106</ele>
        <time>2019-04-07T10:49:38Z</time>
      </trkpt>
      <trkpt lat="49.43223" lon="4.05531">
        <ele>107</ele>
        <time>2019-04-07T10:49:39Z</time>
      </trkpt>
      <trkpt lat="49.43225" lon="4.05526">
        <ele>107</ele>
        <time>2019-04-07T10:49:40Z</time>
      </trkpt>
      <trkpt lat="49.43228" lon="4.0552">
        <ele>107</ele>
        <time>2019-04-07T10:49:41Z</time>
      </trkpt>
      <trkpt lat="49.43231" lon="4.05514">
        <ele>107</ele>
        <time>2019-04-07T10:49:42Z</time>
      </trkpt>
      <trkpt lat="49.43234" lon="4.05508">
        <ele>107</ele>
        <time>2019-04-07T10:49:43Z</time>
      </trkpt>
      <trkpt lat="49.43237" lon="4.05501">
        <ele>106</ele>
        <time>2019-04-07T10:49:44Z</time>
      </trkpt>
      <trkpt lat="49.4324" lon="4.05494">
        <ele>106</ele>
        <time>2019-04-07T10:49:45Z</time>
      </trkpt>
      <trkpt lat="49.43242" lon="4.05486">
        <ele>106</ele>
        <time>2019-04-07T10:49:46Z</time>
      </trkpt>
      <trkpt lat="49.43244" lon="4.05479">
        <ele>106</ele>
        <time>2019-04-07T10:49:47Z</time>
      </trkpt>
      <trkpt lat="49.43246" lon="4.05473">
        <ele>106</ele>
        <time>2019-04-07T10:49:48Z</time>
      </trkpt>
      <trkpt lat="49.43248" lon="4.05466">
        <ele>106</ele>
        <time>2019-04-07T10:49:49Z</time>
      </trkpt>
      <trkpt lat="49.4325" lon="4.05459">
        <ele>106</ele>
        <time>2019-04-07T10:49:50Z</time>
      </trkpt>
      <trkpt lat="49.43252" lon="4.05451">
        <ele>106</ele>
        <time>2019-04-07T10:49:51Z</time>
      </trkpt>
      <trkpt lat="49.43254" lon="4.05443">
        <ele>106</ele>
        <time>2019-04-07T10:49:52Z</time>
      </trkpt>
      <trkpt lat="49.43256" lon="4.05435">
        <ele>106</ele>
        <time>2019-04-07T10:49:53Z</time>
      </trkpt>
      <trkpt lat="49.43257" lon="4.05427">
        <ele>106</ele>
        <time>2019-04-07T10:49:54Z</time>
      </trkpt>
      <trkpt lat="49.43259" lon="4.0542">
        <ele>106</ele>
        <time>2019-04-07T10:49:55Z</time>
      </trkpt>
      <trkpt lat="49.43261" lon="4.05413">
        <ele>106</ele>
        <time>2019-04-07T10:49:56Z</time>
      </trkpt>
      <trkpt lat="49.43263" lon="4.05404">
        <ele>106</ele>
        <time>2019-04-07T10:49:57Z</time>
      </trkpt>
      <trkpt lat="49.43265" lon="4.05396">
        <ele>106</ele>
        <time>2019-04-07T10:49:58Z</time>
      </trkpt>
      <trkpt lat="49.43267" lon="4.05387">
        <ele>106</ele>
        <time>2019-04-07T10:49:59Z</time>
      </trkpt>
      <trkpt lat="49.43269" lon="4.05378">
        <ele>106</ele>
        <time>2019-04-07T10:50:00Z</time>
      </trkpt>
      <trkpt lat="49.43271" lon="4.05369">
        <ele>106</ele>
        <time>2019-04-07T10:50:01Z</time>
      </trkpt>
      <trkpt lat="49.43274" lon="4.05361">
        <ele>106</ele>
        <time>2019-04-07T10:50:02Z</time>
      </trkpt>
      <trkpt lat="49.43276" lon="4.05352">
        <ele>107</ele>
        <time>2019-04-07T10:50:03Z</time>
      </trkpt>
      <trkpt lat="49.43278" lon="4.05344">
        <ele>107</ele>
        <time>2019-04-07T10:50:04Z</time>
      </trkpt>
      <trkpt lat="49.43283" lon="4.05328">
        <ele>107</ele>
        <time>2019-04-07T10:50:06Z</time>
      </trkpt>
      <trkpt lat="49.43286" lon="4.05321">
        <ele>107</ele>
        <time>2019-04-07T10:50:07Z</time>
      </trkpt>
      <trkpt lat="49.43288" lon="4.05312">
        <ele>107</ele>
        <time>2019-04-07T10:50:08Z</time>
      </trkpt>
      <trkpt lat="49.4329" lon="4.05305">
        <ele>107</ele>
        <time>2019-04-07T10:50:09Z</time>
      </trkpt>
      <trkpt lat="49.43292" lon="4.05296">
        <ele>107</ele>
        <time>2019-04-07T10:50:10Z</time>
      </trkpt>
      <trkpt lat="49.43294" lon="4.05289">
        <ele>107</ele>
        <time>2019-04-07T10:50:11Z</time>
      </trkpt>
      <trkpt lat="49.43296" lon="4.0528">
        <ele>107</ele>
        <time>2019-04-07T10:50:12Z</time>
      </trkpt>
      <trkpt lat="49.43297" lon="4.05272">
        <ele>107</ele>
        <time>2019-04-07T10:50:13Z</time>
      </trkpt>
      <trkpt lat="49.433" lon="4.05263">
        <ele>107</ele>
        <time>2019-04-07T10:50:14Z</time>
      </trkpt>
      <trkpt lat="49.43301" lon="4.05256">
        <ele>107</ele>
        <time>2019-04-07T10:50:15Z</time>
      </trkpt>
      <trkpt lat="49.43303" lon="4.05249">
        <ele>108</ele>
        <time>2019-04-07T10:50:16Z</time>
      </trkpt>
      <trkpt lat="49.43305" lon="4.05241">
        <ele>108</ele>
        <time>2019-04-07T10:50:17Z</time>
      </trkpt>
      <trkpt lat="49.43307" lon="4.05234">
        <ele>107</ele>
        <time>2019-04-07T10:50:18Z</time>
      </trkpt>
      <trkpt lat="49.43309" lon="4.05227">
        <ele>107</ele>
        <time>2019-04-07T10:50:19Z</time>
      </trkpt>
      <trkpt lat="49.4331" lon="4.05219">
        <ele>107</ele>
        <time>2019-04-07T10:50:20Z</time>
      </trkpt>
      <trkpt lat="49.43312" lon="4.05211">
        <ele>107</ele>
        <time>2019-04-07T10:50:21Z</time>
      </trkpt>
      <trkpt lat="49.43313" lon="4.05203">
        <ele>107</ele>
        <time>2019-04-07T10:50:22Z</time>
      </trkpt>
      <trkpt lat="49.43314" lon="4.05195">
        <ele>107</ele>
        <time>2019-04-07T10:50:23Z</time>
      </trkpt>
      <trkpt lat="49.43315" lon="4.05187">
        <ele>107</ele>
        <time>2019-04-07T10:50:24Z</time>
      </trkpt>
      <trkpt lat="49.43316" lon="4.05179">
        <ele>107</ele>
        <time>2019-04-07T10:50:25Z</time>
      </trkpt>
      <trkpt lat="49.43317" lon="4.05171">
        <ele>107</ele>
        <time>2019-04-07T10:50:26Z</time>
      </trkpt>
      <trkpt lat="49.43319" lon="4.05164">
        <ele>107</ele>
        <time>2019-04-07T10:50:27Z</time>
      </trkpt>
      <trkpt lat="49.43321" lon="4.05157">
        <ele>107</ele>
        <time>2019-04-07T10:50:28Z</time>
      </trkpt>
      <trkpt lat="49.43323" lon="4.05149">
        <ele>108</ele>
        <time>2019-04-07T10:50:29Z</time>
      </trkpt>
      <trkpt lat="49.43324" lon="4.05142">
        <ele>108</ele>
        <time>2019-04-07T10:50:30Z</time>
      </trkpt>
      <trkpt lat="49.43325" lon="4.05134">
        <ele>108</ele>
        <time>2019-04-07T10:50:31Z</time>
      </trkpt>
      <trkpt lat="49.43326" lon="4.05126">
        <ele>108</ele>
        <time>2019-04-07T10:50:32Z</time>
      </trkpt>
      <trkpt lat="49.43328" lon="4.05119">
        <ele>108</ele>
        <time>2019-04-07T10:50:33Z</time>
      </trkpt>
      <trkpt lat="49.4333" lon="4.05111">
        <ele>108</ele>
        <time>2019-04-07T10:50:34Z</time>
      </trkpt>
      <trkpt lat="49.43332" lon="4.05104">
        <ele>108</ele>
        <time>2019-04-07T10:50:35Z</time>
      </trkpt>
      <trkpt lat="49.43334" lon="4.05096">
        <ele>109</ele>
        <time>2019-04-07T10:50:36Z</time>
      </trkpt>
      <trkpt lat="49.43337" lon="4.05089">
        <ele>109</ele>
        <time>2019-04-07T10:50:37Z</time>
      </trkpt>
      <trkpt lat="49.43339" lon="4.05081">
        <ele>109</ele>
        <time>2019-04-07T10:50:38Z</time>
      </trkpt>
      <trkpt lat="49.4334" lon="4.05074">
        <ele>109</ele>
        <time>2019-04-07T10:50:39Z</time>
      </trkpt>
      <trkpt lat="49.43341" lon="4.05067">
        <ele>109</ele>
        <time>2019-04-07T10:50:40Z</time>
      </trkpt>
      <trkpt lat="49.43343" lon="4.05061">
        <ele>109</ele>
        <time>2019-04-07T10:50:41Z</time>
      </trkpt>
      <trkpt lat="49.43344" lon="4.05053">
        <ele>109</ele>
        <time>2019-04-07T10:50:42Z</time>
      </trkpt>
      <trkpt lat="49.43345" lon="4.05047">
        <ele>109</ele>
        <time>2019-04-07T10:50:43Z</time>
      </trkpt>
      <trkpt lat="49.43347" lon="4.05039">
        <ele>109</ele>
        <time>2019-04-07T10:50:44Z</time>
      </trkpt>
      <trkpt lat="49.43348" lon="4.05032">
        <ele>109</ele>
        <time>2019-04-07T10:50:45Z</time>
      </trkpt>
      <trkpt lat="49.43349" lon="4.05025">
        <ele>109</ele>
        <time>2019-04-07T10:50:46Z</time>
      </trkpt>
      <trkpt lat="49.43351" lon="4.05017">
        <ele>109</ele>
        <time>2019-04-07T10:50:47Z</time>
      </trkpt>
      <trkpt lat="49.43353" lon="4.05009">
        <ele>109</ele>
        <time>2019-04-07T10:50:48Z</time>
      </trkpt>
      <trkpt lat="49.43354" lon="4.05001">
        <ele>110</ele>
        <time>2019-04-07T10:50:49Z</time>
      </trkpt>
      <trkpt lat="49.43356" lon="4.04992">
        <ele>110</ele>
        <time>2019-04-07T10:50:50Z</time>
      </trkpt>
      <trkpt lat="49.43358" lon="4.04985">
        <ele>109</ele>
        <time>2019-04-07T10:50:51Z</time>
      </trkpt>
      <trkpt lat="49.4336" lon="4.04977">
        <ele>109</ele>
        <time>2019-04-07T10:50:52Z</time>
      </trkpt>
      <trkpt lat="49.43362" lon="4.04968">
        <ele>109</ele>
        <time>2019-04-07T10:50:53Z</time>
      </trkpt>
      <trkpt lat="49.43364" lon="4.0496">
        <ele>108</ele>
        <time>2019-04-07T10:50:54Z</time>
      </trkpt>
      <trkpt lat="49.43366" lon="4.04951">
        <ele>108</ele>
        <time>2019-04-07T10:50:55Z</time>
      </trkpt>
      <trkpt lat="49.43368" lon="4.04942">
        <ele>108</ele>
        <time>2019-04-07T10:50:56Z</time>
      </trkpt>
      <trkpt lat="49.4337" lon="4.04932">
        <ele>108</ele>
        <time>2019-04-07T10:50:57Z</time>
      </trkpt>
      <trkpt lat="49.43372" lon="4.04922">
        <ele>108</ele>
        <time>2019-04-07T10:50:58Z</time>
      </trkpt>
      <trkpt lat="49.43374" lon="4.04913">
        <ele>109</ele>
        <time>2019-04-07T10:50:59Z</time>
      </trkpt>
      <trkpt lat="49.43376" lon="4.04903">
        <ele>108</ele>
        <time>2019-04-07T10:51:00Z</time>
      </trkpt>
      <trkpt lat="49.43377" lon="4.04893">
        <ele>108</ele>
        <time>2019-04-07T10:51:01Z</time>
      </trkpt>
      <trkpt lat="49.43378" lon="4.04883">
        <ele>109</ele>
        <time>2019-04-07T10:51:02Z</time>
      </trkpt>
      <trkpt lat="49.43378" lon="4.04873">
        <ele>109</ele>
        <time>2019-04-07T10:51:03Z</time>
      </trkpt>
      <trkpt lat="49.43377" lon="4.04863">
        <ele>109</ele>
        <time>2019-04-07T10:51:04Z</time>
      </trkpt>
      <trkpt lat="49.43376" lon="4.04854">
        <ele>108</ele>
        <time>2019-04-07T10:51:05Z</time>
      </trkpt>
      <trkpt lat="49.43374" lon="4.04845">
        <ele>108</ele>
        <time>2019-04-07T10:51:06Z</time>
      </trkpt>
      <trkpt lat="49.43372" lon="4.04836">
        <ele>108</ele>
        <time>2019-04-07T10:51:07Z</time>
      </trkpt>
      <trkpt lat="49.43368" lon="4.04828">
        <ele>108</ele>
        <time>2019-04-07T10:51:08Z</time>
      </trkpt>
      <trkpt lat="49.43364" lon="4.0482">
        <ele>108</ele>
        <time>2019-04-07T10:51:09Z</time>
      </trkpt>
      <trkpt lat="49.4336" lon="4.04814">
        <ele>107</ele>
        <time>2019-04-07T10:51:10Z</time>
      </trkpt>
      <trkpt lat="49.43356" lon="4.04807">
        <ele>108</ele>
        <time>2019-04-07T10:51:11Z</time>
      </trkpt>
      <trkpt lat="49.43352" lon="4.048">
        <ele>107</ele>
        <time>2019-04-07T10:51:12Z</time>
      </trkpt>
      <trkpt lat="49.43349" lon="4.04792">
        <ele>107</ele>
        <time>2019-04-07T10:51:13Z</time>
      </trkpt>
      <trkpt lat="49.43346" lon="4.04785">
        <ele>108</ele>
        <time>2019-04-07T10:51:14Z</time>
      </trkpt>
      <trkpt lat="49.43342" lon="4.04778">
        <ele>108</ele>
        <time>2019-04-07T10:51:15Z</time>
      </trkpt>
      <trkpt lat="49.43338" lon="4.04772">
        <ele>108</ele>
        <time>2019-04-07T10:51:16Z</time>
      </trkpt>
      <trkpt lat="49.43334" lon="4.04765">
        <ele>108</ele>
        <time>2019-04-07T10:51:17Z</time>
      </trkpt>
      <trkpt lat="49.4333" lon="4.04758">
        <ele>108</ele>
        <time>2019-04-07T10:51:18Z</time>
      </trkpt>
      <trkpt lat="49.43326" lon="4.04752">
        <ele>107</ele>
        <time>2019-04-07T10:51:19Z</time>
      </trkpt>
      <trkpt lat="49.43321" lon="4.04745">
        <ele>107</ele>
        <time>2019-04-07T10:51:20Z</time>
      </trkpt>
      <trkpt lat="49.43316" lon="4.04738">
        <ele>107</ele>
        <time>2019-04-07T10:51:21Z</time>
      </trkpt>
      <trkpt lat="49.43305" lon="4.04727">
        <ele>108</ele>
        <time>2019-04-07T10:51:23Z</time>
      </trkpt>
      <trkpt lat="49.43299" lon="4.04723">
        <ele>108</ele>
        <time>2019-04-07T10:51:24Z</time>
      </trkpt>
      <trkpt lat="49.43293" lon="4.04719">
        <ele>107</ele>
        <time>2019-04-07T10:51:25Z</time>
      </trkpt>
      <trkpt lat="49.43287" lon="4.04717">
        <ele>107</ele>
        <time>2019-04-07T10:51:26Z</time>
      </trkpt>
      <trkpt lat="49.4328" lon="4.04714">
        <ele>107</ele>
        <time>2019-04-07T10:51:27Z</time>
      </trkpt>
      <trkpt lat="49.43273" lon="4.04712">
        <ele>107</ele>
        <time>2019-04-07T10:51:28Z</time>
      </trkpt>
      <trkpt lat="49.43266" lon="4.0471">
        <ele>106</ele>
        <time>2019-04-07T10:51:29Z</time>
      </trkpt>
      <trkpt lat="49.4326" lon="4.04709">
        <ele>106</ele>
        <time>2019-04-07T10:51:30Z</time>
      </trkpt>
      <trkpt lat="49.43253" lon="4.04707">
        <ele>106</ele>
        <time>2019-04-07T10:51:31Z</time>
      </trkpt>
      <trkpt lat="49.43246" lon="4.04705">
        <ele>106</ele>
        <time>2019-04-07T10:51:32Z</time>
      </trkpt>
      <trkpt lat="49.4324" lon="4.04704">
        <ele>106</ele>
        <time>2019-04-07T10:51:33Z</time>
      </trkpt>
      <trkpt lat="49.43233" lon="4.04702">
        <ele>106</ele>
        <time>2019-04-07T10:51:34Z</time>
      </trkpt>
      <trkpt lat="49.43226" lon="4.047">
        <ele>105</ele>
        <time>2019-04-07T10:51:35Z</time>
      </trkpt>
      <trkpt lat="49.43219" lon="4.04699">
        <ele>105</ele>
        <time>2019-04-07T10:51:36Z</time>
      </trkpt>
      <trkpt lat="49.43213" lon="4.04698">
        <ele>105</ele>
        <time>2019-04-07T10:51:37Z</time>
      </trkpt>
      <trkpt lat="49.43206" lon="4.04696">
        <ele>106</ele>
        <time>2019-04-07T10:51:38Z</time>
      </trkpt>
      <trkpt lat="49.43199" lon="4.04694">
        <ele>106</ele>
        <time>2019-04-07T10:51:39Z</time>
      </trkpt>
      <trkpt lat="49.43193" lon="4.04692">
        <ele>105</ele>
        <time>2019-04-07T10:51:40Z</time>
      </trkpt>
      <trkpt lat="49.43186" lon="4.0469">
        <ele>105</ele>
        <time>2019-04-07T10:51:41Z</time>
      </trkpt>
      <trkpt lat="49.4318" lon="4.04688">
        <ele>105</ele>
        <time>2019-04-07T10:51:42Z</time>
      </trkpt>
      <trkpt lat="49.43173" lon="4.04686">
        <ele>105</ele>
        <time>2019-04-07T10:51:43Z</time>
      </trkpt>
      <trkpt lat="49.43167" lon="4.04684">
        <ele>105</ele>
        <time>2019-04-07T10:51:44Z</time>
      </trkpt>
      <trkpt lat="49.4316" lon="4.04682">
        <ele>105</ele>
        <time>2019-04-07T10:51:45Z</time>
      </trkpt>
      <trkpt lat="49.43153" lon="4.0468">
        <ele>105</ele>
        <time>2019-04-07T10:51:46Z</time>
      </trkpt>
      <trkpt lat="49.43146" lon="4.04678">
        <ele>105</ele>
        <time>2019-04-07T10:51:47Z</time>
      </trkpt>
      <trkpt lat="49.43139" lon="4.04676">
        <ele>105</ele>
        <time>2019-04-07T10:51:48Z</time>
      </trkpt>
      <trkpt lat="49.43132" lon="4.04673">
        <ele>105</ele>
        <time>2019-04-07T10:51:49Z</time>
      </trkpt>
      <trkpt lat="49.43125" lon="4.04671">
        <ele>105</ele>
        <time>2019-04-07T10:51:50Z</time>
      </trkpt>
      <trkpt lat="49.43118" lon="4.04669">
        <ele>105</ele>
        <time>2019-04-07T10:51:51Z</time>
      </trkpt>
      <trkpt lat="49.43111" lon="4.04667">
        <ele>105</ele>
        <time>2019-04-07T10:51:52Z</time>
      </trkpt>
      <trkpt lat="49.43105" lon="4.04665">
        <ele>104</ele>
        <time>2019-04-07T10:51:53Z</time>
      </trkpt>
      <trkpt lat="49.43099" lon="4.04663">
        <ele>104</ele>
        <time>2019-04-07T10:51:54Z</time>
      </trkpt>
      <trkpt lat="49.43092" lon="4.04661">
        <ele>104</ele>
        <time>2019-04-07T10:51:55Z</time>
      </trkpt>
      <trkpt lat="49.43086" lon="4.0466">
        <ele>104</ele>
        <time>2019-04-07T10:51:56Z</time>
      </trkpt>
      <trkpt lat="49.4308" lon="4.04658">
        <ele>104</ele>
        <time>2019-04-07T10:51:57Z</time>
      </trkpt>
      <trkpt lat="49.43074" lon="4.04656">
        <ele>104</ele>
        <time>2019-04-07T10:51:58Z</time>
      </trkpt>
      <trkpt lat="49.43068" lon="4.04654">
        <ele>104</ele>
        <time>2019-04-07T10:51:59Z</time>
      </trkpt>
      <trkpt lat="49.43062" lon="4.04652">
        <ele>104</ele>
        <time>2019-04-07T10:52:00Z</time>
      </trkpt>
      <trkpt lat="49.43056" lon="4.0465">
        <ele>104</ele>
        <time>2019-04-07T10:52:01Z</time>
      </trkpt>
      <trkpt lat="49.43049" lon="4.04648">
        <ele>104</ele>
        <time>2019-04-07T10:52:02Z</time>
      </trkpt>
      <trkpt lat="49.43043" lon="4.04647">
        <ele>104</ele>
        <time>2019-04-07T10:52:03Z</time>
      </trkpt>
      <trkpt lat="49.43038" lon="4.04645">
        <ele>104</ele>
        <time>2019-04-07T10:52:04Z</time>
      </trkpt>
      <trkpt lat="49.43032" lon="4.04643">
        <ele>104</ele>
        <time>2019-04-07T10:52:05Z</time>
      </trkpt>
      <trkpt lat="49.43026" lon="4.04642">
        <ele>104</ele>
        <time>2019-04-07T10:52:06Z</time>
      </trkpt>
      <trkpt lat="49.4302" lon="4.0464">
        <ele>104</ele>
        <time>2019-04-07T10:52:07Z</time>
      </trkpt>
      <trkpt lat="49.43014" lon="4.04638">
        <ele>105</ele>
        <time>2019-04-07T10:52:08Z</time>
      </trkpt>
      <trkpt lat="49.43008" lon="4.04636">
        <ele>105</ele>
        <time>2019-04-07T10:52:09Z</time>
      </trkpt>
      <trkpt lat="49.43002" lon="4.04635">
        <ele>105</ele>
        <time>2019-04-07T10:52:10Z</time>
      </trkpt>
      <trkpt lat="49.42996" lon="4.04633">
        <ele>104</ele>
        <time>2019-04-07T10:52:11Z</time>
      </trkpt>
      <trkpt lat="49.4299" lon="4.04631">
        <ele>104</ele>
        <time>2019-04-07T10:52:12Z</time>
      </trkpt>
      <trkpt lat="49.42983" lon="4.0463">
        <ele>104</ele>
        <time>2019-04-07T10:52:13Z</time>
      </trkpt>
      <trkpt lat="49.42977" lon="4.04627">
        <ele>104</ele>
        <time>2019-04-07T10:52:14Z</time>
      </trkpt>
      <trkpt lat="49.42971" lon="4.04625">
        <ele>104</ele>
        <time>2019-04-07T10:52:15Z</time>
      </trkpt>
      <trkpt lat="49.42965" lon="4.04624">
        <ele>104</ele>
        <time>2019-04-07T10:52:16Z</time>
      </trkpt>
      <trkpt lat="49.42958" lon="4.04622">
        <ele>104</ele>
        <time>2019-04-07T10:52:17Z</time>
      </trkpt>
      <trkpt lat="49.42952" lon="4.04619">
        <ele>104</ele>
        <time>2019-04-07T10:52:18Z</time>
      </trkpt>
      <trkpt lat="49.42946" lon="4.04618">
        <ele>104</ele>
        <time>2019-04-07T10:52:19Z</time>
      </trkpt>
      <trkpt lat="49.42941" lon="4.04616">
        <ele>104</ele>
        <time>2019-04-07T10:52:20Z</time>
      </trkpt>
      <trkpt lat="49.42935" lon="4.04615">
        <ele>104</ele>
        <time>2019-04-07T10:52:21Z</time>
      </trkpt>
      <trkpt lat="49.42929" lon="4.04613">
        <ele>103</ele>
        <time>2019-04-07T10:52:22Z</time>
      </trkpt>
      <trkpt lat="49.42923" lon="4.04611">
        <ele>103</ele>
        <time>2019-04-07T10:52:23Z</time>
      </trkpt>
      <trkpt lat="49.42918" lon="4.04609">
        <ele>103</ele>
        <time>2019-04-07T10:52:24Z</time>
      </trkpt>
      <trkpt lat="49.42912" lon="4.04606">
        <ele>103</ele>
        <time>2019-04-07T10:52:25Z</time>
      </trkpt>
      <trkpt lat="49.42906" lon="4.04604">
        <ele>103</ele>
        <time>2019-04-07T10:52:26Z</time>
      </trkpt>
      <trkpt lat="49.42901" lon="4.04601">
        <ele>103</ele>
        <time>2019-04-07T10:52:27Z</time>
      </trkpt>
      <trkpt lat="49.42895" lon="4.04597">
        <ele>103</ele>
        <time>2019-04-07T10:52:28Z</time>
      </trkpt>
      <trkpt lat="49.4289" lon="4.04593">
        <ele>103</ele>
        <time>2019-04-07T10:52:29Z</time>
      </trkpt>
      <trkpt lat="49.42885" lon="4.04588">
        <ele>103</ele>
        <time>2019-04-07T10:52:30Z</time>
      </trkpt>
      <trkpt lat="49.42879" lon="4.04583">
        <ele>103</ele>
        <time>2019-04-07T10:52:31Z</time>
      </trkpt>
      <trkpt lat="49.42874" lon="4.04576">
        <ele>103</ele>
        <time>2019-04-07T10:52:32Z</time>
      </trkpt>
      <trkpt lat="49.42869" lon="4.04568">
        <ele>103</ele>
        <time>2019-04-07T10:52:33Z</time>
      </trkpt>
      <trkpt lat="49.42865" lon="4.0456">
        <ele>103</ele>
        <time>2019-04-07T10:52:34Z</time>
      </trkpt>
      <trkpt lat="49.42861" lon="4.04551">
        <ele>103</ele>
        <time>2019-04-07T10:52:35Z</time>
      </trkpt>
      <trkpt lat="49.42858" lon="4.04541">
        <ele>104</ele>
        <time>2019-04-07T10:52:36Z</time>
      </trkpt>
      <trkpt lat="49.42856" lon="4.04532">
        <ele>104</ele>
        <time>2019-04-07T10:52:37Z</time>
      </trkpt>
      <trkpt lat="49.42853" lon="4.04522">
        <ele>104</ele>
        <time>2019-04-07T10:52:38Z</time>
      </trkpt>
      <trkpt lat="49.42851" lon="4.04512">
        <ele>104</ele>
        <time>2019-04-07T10:52:39Z</time>
      </trkpt>
      <trkpt lat="49.42851" lon="4.04501">
        <ele>104</ele>
        <time>2019-04-07T10:52:40Z</time>
      </trkpt>
      <trkpt lat="49.4285" lon="4.04491">
        <ele>104</ele>
        <time>2019-04-07T10:52:41Z</time>
      </trkpt>
      <trkpt lat="49.4285" lon="4.04482">
        <ele>104</ele>
        <time>2019-04-07T10:52:42Z</time>
      </trkpt>
      <trkpt lat="49.4285" lon="4.04472">
        <ele>105</ele>
        <time>2019-04-07T10:52:43Z</time>
      </trkpt>
      <trkpt lat="49.4285" lon="4.04463">
        <ele>104</ele>
        <time>2019-04-07T10:52:44Z</time>
      </trkpt>
      <trkpt lat="49.42851" lon="4.04455">
        <ele>104</ele>
        <time>2019-04-07T10:52:45Z</time>
      </trkpt>
      <trkpt lat="49.42851" lon="4.04447">
        <ele>104</ele>
        <time>2019-04-07T10:52:46Z</time>
      </trkpt>
      <trkpt lat="49.42852" lon="4.04439">
        <ele>104</ele>
        <time>2019-04-07T10:52:47Z</time>
      </trkpt>
      <trkpt lat="49.42853" lon="4.04431">
        <ele>104</ele>
        <time>2019-04-07T10:52:48Z</time>
      </trkpt>
      <trkpt lat="49.42854" lon="4.04423">
        <ele>105</ele>
        <time>2019-04-07T10:52:49Z</time>
      </trkpt>
      <trkpt lat="49.42854" lon="4.04415">
        <ele>105</ele>
        <time>2019-04-07T10:52:50Z</time>
      </trkpt>
      <trkpt lat="49.42855" lon="4.04408">
        <ele>105</ele>
        <time>2019-04-07T10:52:51Z</time>
      </trkpt>
      <trkpt lat="49.42855" lon="4.04402">
        <ele>105</ele>
        <time>2019-04-07T10:52:52Z</time>
      </trkpt>
      <trkpt lat="49.42856" lon="4.04396">
        <ele>104</ele>
        <time>2019-04-07T10:52:53Z</time>
      </trkpt>
      <trkpt lat="49.42856" lon="4.04391">
        <ele>104</ele>
        <time>2019-04-07T10:52:54Z</time>
      </trkpt>
      <trkpt lat="49.42857" lon="4.04387">
        <ele>105</ele>
        <time>2019-04-07T10:52:55Z</time>
      </trkpt>
      <trkpt lat="49.42857" lon="4.04384">
        <ele>104</ele>
        <time>2019-04-07T10:52:56Z</time>
      </trkpt>
      <trkpt lat="49.42857" lon="4.04383">
        <ele>104</ele>
        <time>2019-04-07T10:52:57Z</time>
      </trkpt>
      <trkpt lat="49.42857" lon="4.04383">
        <ele>104</ele>
        <time>2019-04-07T10:52:58Z</time>
      </trkpt>
      <trkpt lat="49.42857" lon="4.04383">
        <ele>104</ele>
        <time>2019-04-07T10:52:59Z</time>
      </trkpt>
      <trkpt lat="49.42857" lon="4.04382">
        <ele>104</ele>
        <time>2019-04-07T10:53:00Z</time>
      </trkpt>
      <trkpt lat="49.42857" lon="4.04382">
        <ele>104</ele>
        <time>2019-04-07T10:53:01Z</time>
      </trkpt>
      <trkpt lat="49.42857" lon="4.04382">
        <ele>104</ele>
        <time>2019-04-07T10:53:02Z</time>
      </trkpt>
      <trkpt lat="49.42857" lon="4.04382">
        <ele>104</ele>
        <time>2019-04-07T10:53:03Z</time>
      </trkpt>
      <trkpt lat="49.42857" lon="4.04381">
        <ele>104</ele>
        <time>2019-04-07T10:53:04Z</time>
      </trkpt>
      <trkpt lat="49.42857" lon="4.0438">
        <ele>104</ele>
        <time>2019-04-07T10:53:05Z</time>
      </trkpt>
      <trkpt lat="49.42857" lon="4.04377">
        <ele>105</ele>
        <time>2019-04-07T10:53:06Z</time>
      </trkpt>
      <trkpt lat="49.42856" lon="4.04375">
        <ele>105</ele>
        <time>2019-04-07T10:53:07Z</time>
      </trkpt>
      <trkpt lat="49.42854" lon="4.04373">
        <ele>105</ele>
        <time>2019-04-07T10:53:08Z</time>
      </trkpt>
      <trkpt lat="49.42851" lon="4.04372">
        <ele>105</ele>
        <time>2019-04-07T10:53:09Z</time>
      </trkpt>
      <trkpt lat="49.42849" lon="4.04371">
        <ele>105</ele>
        <time>2019-04-07T10:53:10Z</time>
      </trkpt>
      <trkpt lat="49.42846" lon="4.04371">
        <ele>105</ele>
        <time>2019-04-07T10:53:11Z</time>
      </trkpt>
      <trkpt lat="49.42844" lon="4.04371">
        <ele>105</ele>
        <time>2019-04-07T10:53:12Z</time>
      </trkpt>
      <trkpt lat="49.4284" lon="4.0437">
        <ele>105</ele>
        <time>2019-04-07T10:53:13Z</time>
      </trkpt>
      <trkpt lat="49.42836" lon="4.0437">
        <ele>104</ele>
        <time>2019-04-07T10:53:14Z</time>
      </trkpt>
      <trkpt lat="49.42832" lon="4.04369">
        <ele>104</ele>
        <time>2019-04-07T10:53:15Z</time>
      </trkpt>
      <trkpt lat="49.42828" lon="4.04368">
        <ele>104</ele>
        <time>2019-04-07T10:53:16Z</time>
      </trkpt>
      <trkpt lat="49.42823" lon="4.04367">
        <ele>103</ele>
        <time>2019-04-07T10:53:17Z</time>
      </trkpt>
      <trkpt lat="49.42819" lon="4.04367">
        <ele>103</ele>
        <time>2019-04-07T10:53:18Z</time>
      </trkpt>
      <trkpt lat="49.42814" lon="4.04367">
        <ele>103</ele>
        <time>2019-04-07T10:53:19Z</time>
      </trkpt>
      <trkpt lat="49.42809" lon="4.04366">
        <ele>103</ele>
        <time>2019-04-07T10:53:20Z</time>
      </trkpt>
      <trkpt lat="49.42804" lon="4.04366">
        <ele>103</ele>
        <time>2019-04-07T10:53:21Z</time>
      </trkpt>
      <trkpt lat="49.42799" lon="4.04366">
        <ele>103</ele>
        <time>2019-04-07T10:53:22Z</time>
      </trkpt>
      <trkpt lat="49.42793" lon="4.04365">
        <ele>103</ele>
        <time>2019-04-07T10:53:23Z</time>
      </trkpt>
      <trkpt lat="49.42788" lon="4.04365">
        <ele>103</ele>
        <time>2019-04-07T10:53:24Z</time>
      </trkpt>
      <trkpt lat="49.42783" lon="4.04364">
        <ele>103</ele>
        <time>2019-04-07T10:53:25Z</time>
      </trkpt>
      <trkpt lat="49.42778" lon="4.04363">
        <ele>103</ele>
        <time>2019-04-07T10:53:26Z</time>
      </trkpt>
      <trkpt lat="49.42773" lon="4.04363">
        <ele>103</ele>
        <time>2019-04-07T10:53:27Z</time>
      </trkpt>
      <trkpt lat="49.42768" lon="4.04362">
        <ele>103</ele>
        <time>2019-04-07T10:53:28Z</time>
      </trkpt>
      <trkpt lat="49.42763" lon="4.04362">
        <ele>102</ele>
        <time>2019-04-07T10:53:29Z</time>
      </trkpt>
      <trkpt lat="49.42757" lon="4.04361">
        <ele>102</ele>
        <time>2019-04-07T10:53:30Z</time>
      </trkpt>
      <trkpt lat="49.42752" lon="4.04361">
        <ele>102</ele>
        <time>2019-04-07T10:53:31Z</time>
      </trkpt>
      <trkpt lat="49.42747" lon="4.0436">
        <ele>102</ele>
        <time>2019-04-07T10:53:32Z</time>
      </trkpt>
      <trkpt lat="49.42742" lon="4.04359">
        <ele>102</ele>
        <time>2019-04-07T10:53:33Z</time>
      </trkpt>
      <trkpt lat="49.42737" lon="4.04358">
        <ele>102</ele>
        <time>2019-04-07T10:53:34Z</time>
      </trkpt>
      <trkpt lat="49.42732" lon="4.04358">
        <ele>102</ele>
        <time>2019-04-07T10:53:35Z</time>
      </trkpt>
      <trkpt lat="49.42726" lon="4.04357">
        <ele>102</ele>
        <time>2019-04-07T10:53:36Z</time>
      </trkpt>
      <trkpt lat="49.42721" lon="4.04356">
        <ele>102</ele>
        <time>2019-04-07T10:53:37Z</time>
      </trkpt>
      <trkpt lat="49.42715" lon="4.04355">
        <ele>102</ele>
        <time>2019-04-07T10:53:38Z</time>
      </trkpt>
      <trkpt lat="49.4271" lon="4.04354">
        <ele>102</ele>
        <time>2019-04-07T10:53:39Z</time>
      </trkpt>
      <trkpt lat="49.42704" lon="4.04354">
        <ele>102</ele>
        <time>2019-04-07T10:53:40Z</time>
      </trkpt>
      <trkpt lat="49.42699" lon="4.04353">
        <ele>102</ele>
        <time>2019-04-07T10:53:41Z</time>
      </trkpt>
      <trkpt lat="49.42694" lon="4.04353">
        <ele>102</ele>
        <time>2019-04-07T10:53:42Z</time>
      </trkpt>
      <trkpt lat="49.42688" lon="4.04352">
        <ele>102</ele>
        <time>2019-04-07T10:53:43Z</time>
      </trkpt>
      <trkpt lat="49.42683" lon="4.04352">
        <ele>102</ele>
        <time>2019-04-07T10:53:44Z</time>
      </trkpt>
      <trkpt lat="49.42678" lon="4.04351">
        <ele>102</ele>
        <time>2019-04-07T10:53:45Z</time>
      </trkpt>
      <trkpt lat="49.42672" lon="4.04351">
        <ele>102</ele>
        <time>2019-04-07T10:53:46Z</time>
      </trkpt>
      <trkpt lat="49.42667" lon="4.0435">
        <ele>102</ele>
        <time>2019-04-07T10:53:47Z</time>
      </trkpt>
      <trkpt lat="49.42661" lon="4.0435">
        <ele>102</ele>
        <time>2019-04-07T10:53:48Z</time>
      </trkpt>
      <trkpt lat="49.42656" lon="4.04349">
        <ele>102</ele>
        <time>2019-04-07T10:53:49Z</time>
      </trkpt>
      <trkpt lat="49.42651" lon="4.04349">
        <ele>102</ele>
        <time>2019-04-07T10:53:50Z</time>
      </trkpt>
      <trkpt lat="49.42646" lon="4.04348">
        <ele>102</ele>
        <time>2019-04-07T10:53:51Z</time>
      </trkpt>
      <trkpt lat="49.42641" lon="4.04347">
        <ele>102</ele>
        <time>2019-04-07T10:53:52Z</time>
      </trkpt>
      <trkpt lat="49.42636" lon="4.04347">
        <ele>102</ele>
        <time>2019-04-07T10:53:53Z</time>
      </trkpt>
      <trkpt lat="49.42631" lon="4.04347">
        <ele>102</ele>
        <time>2019-04-07T10:53:54Z</time>
      </trkpt>
      <trkpt lat="49.42626" lon="4.04346">
        <ele>102</ele>
        <time>2019-04-07T10:53:55Z</time>
      </trkpt>
      <trkpt lat="49.42621" lon="4.04346">
        <ele>102</ele>
        <time>2019-04-07T10:53:56Z</time>
      </trkpt>
      <trkpt lat="49.42616" lon="4.04345">
        <ele>102</ele>
        <time>2019-04-07T10:53:57Z</time>
      </trkpt>
      <trkpt lat="49.4261" lon="4.04344">
        <ele>102</ele>
        <time>2019-04-07T10:53:58Z</time>
      </trkpt>
      <trkpt lat="49.42605" lon="4.04343">
        <ele>102</ele>
        <time>2019-04-07T10:53:59Z</time>
      </trkpt>
      <trkpt lat="49.426" lon="4.04343">
        <ele>102</ele>
        <time>2019-04-07T10:54:00Z</time>
      </trkpt>
      <trkpt lat="49.42595" lon="4.04342">
        <ele>102</ele>
        <time>2019-04-07T10:54:01Z</time>
      </trkpt>
      <trkpt lat="49.42589" lon="4.04341">
        <ele>102</ele>
        <time>2019-04-07T10:54:02Z</time>
      </trkpt>
      <trkpt lat="49.42584" lon="4.04341">
        <ele>102</ele>
        <time>2019-04-07T10:54:03Z</time>
      </trkpt>
      <trkpt lat="49.42579" lon="4.0434">
        <ele>102</ele>
        <time>2019-04-07T10:54:04Z</time>
      </trkpt>
      <trkpt lat="49.42573" lon="4.04339">
        <ele>102</ele>
        <time>2019-04-07T10:54:05Z</time>
      </trkpt>
      <trkpt lat="49.42568" lon="4.04338">
        <ele>102</ele>
        <time>2019-04-07T10:54:06Z</time>
      </trkpt>
      <trkpt lat="49.42562" lon="4.04337">
        <ele>102</ele>
        <time>2019-04-07T10:54:07Z</time>
      </trkpt>
      <trkpt lat="49.42557" lon="4.04335">
        <ele>102</ele>
        <time>2019-04-07T10:54:08Z</time>
      </trkpt>
      <trkpt lat="49.42553" lon="4.04332">
        <ele>102</ele>
        <time>2019-04-07T10:54:09Z</time>
      </trkpt>
      <trkpt lat="49.42548" lon="4.04329">
        <ele>103</ele>
        <time>2019-04-07T10:54:10Z</time>
      </trkpt>
      <trkpt lat="49.42544" lon="4.04324">
        <ele>103</ele>
        <time>2019-04-07T10:54:11Z</time>
      </trkpt>
      <trkpt lat="49.4254" lon="4.0432">
        <ele>103</ele>
        <time>2019-04-07T10:54:12Z</time>
      </trkpt>
      <trkpt lat="49.42536" lon="4.04316">
        <ele>103</ele>
        <time>2019-04-07T10:54:13Z</time>
      </trkpt>
      <trkpt lat="49.42532" lon="4.04311">
        <ele>103</ele>
        <time>2019-04-07T10:54:14Z</time>
      </trkpt>
      <trkpt lat="49.42528" lon="4.04306">
        <ele>103</ele>
        <time>2019-04-07T10:54:15Z</time>
      </trkpt>
      <trkpt lat="49.42523" lon="4.04301">
        <ele>103</ele>
        <time>2019-04-07T10:54:16Z</time>
      </trkpt>
      <trkpt lat="49.42518" lon="4.04297">
        <ele>103</ele>
        <time>2019-04-07T10:54:17Z</time>
      </trkpt>
      <trkpt lat="49.42514" lon="4.04292">
        <ele>103</ele>
        <time>2019-04-07T10:54:18Z</time>
      </trkpt>
      <trkpt lat="49.4251" lon="4.04286">
        <ele>103</ele>
        <time>2019-04-07T10:54:19Z</time>
      </trkpt>
      <trkpt lat="49.42505" lon="4.04281">
        <ele>103</ele>
        <time>2019-04-07T10:54:20Z</time>
      </trkpt>
      <trkpt lat="49.425" lon="4.04276">
        <ele>102</ele>
        <time>2019-04-07T10:54:21Z</time>
      </trkpt>
      <trkpt lat="49.42495" lon="4.04271">
        <ele>103</ele>
        <time>2019-04-07T10:54:22Z</time>
      </trkpt>
      <trkpt lat="49.4249" lon="4.04266">
        <ele>103</ele>
        <time>2019-04-07T10:54:23Z</time>
      </trkpt>
      <trkpt lat="49.42486" lon="4.0426">
        <ele>103</ele>
        <time>2019-04-07T10:54:24Z</time>
      </trkpt>
      <trkpt lat="49.42481" lon="4.04256">
        <ele>102</ele>
        <time>2019-04-07T10:54:25Z</time>
      </trkpt>
      <trkpt lat="49.42476" lon="4.0425">
        <ele>102</ele>
        <time>2019-04-07T10:54:26Z</time>
      </trkpt>
      <trkpt lat="49.42471" lon="4.04245">
        <ele>103</ele>
        <time>2019-04-07T10:54:27Z</time>
      </trkpt>
      <trkpt lat="49.42466" lon="4.04239">
        <ele>102</ele>
        <time>2019-04-07T10:54:28Z</time>
      </trkpt>
      <trkpt lat="49.42461" lon="4.04235">
        <ele>102</ele>
        <time>2019-04-07T10:54:29Z</time>
      </trkpt>
      <trkpt lat="49.42456" lon="4.0423">
        <ele>102</ele>
        <time>2019-04-07T10:54:30Z</time>
      </trkpt>
      <trkpt lat="49.42452" lon="4.04225">
        <ele>102</ele>
        <time>2019-04-07T10:54:31Z</time>
      </trkpt>
      <trkpt lat="49.42443" lon="4.04215">
        <ele>102</ele>
        <time>2019-04-07T10:54:33Z</time>
      </trkpt>
      <trkpt lat="49.42438" lon="4.0421">
        <ele>102</ele>
        <time>2019-04-07T10:54:34Z</time>
      </trkpt>
      <trkpt lat="49.42433" lon="4.04205">
        <ele>102</ele>
        <time>2019-04-07T10:54:35Z</time>
      </trkpt>
      <trkpt lat="49.42429" lon="4.042">
        <ele>102</ele>
        <time>2019-04-07T10:54:36Z</time>
      </trkpt>
      <trkpt lat="49.42424" lon="4.04195">
        <ele>102</ele>
        <time>2019-04-07T10:54:37Z</time>
      </trkpt>
      <trkpt lat="49.4242" lon="4.0419">
        <ele>102</ele>
        <time>2019-04-07T10:54:38Z</time>
      </trkpt>
      <trkpt lat="49.42416" lon="4.04185">
        <ele>102</ele>
        <time>2019-04-07T10:54:39Z</time>
      </trkpt>
      <trkpt lat="49.42412" lon="4.0418">
        <ele>102</ele>
        <time>2019-04-07T10:54:40Z</time>
      </trkpt>
      <trkpt lat="49.42407" lon="4.04175">
        <ele>102</ele>
        <time>2019-04-07T10:54:41Z</time>
      </trkpt>
      <trkpt lat="49.42402" lon="4.04171">
        <ele>102</ele>
        <time>2019-04-07T10:54:42Z</time>
      </trkpt>
      <trkpt lat="49.42398" lon="4.04166">
        <ele>102</ele>
        <time>2019-04-07T10:54:43Z</time>
      </trkpt>
      <trkpt lat="49.42394" lon="4.0416">
        <ele>102</ele>
        <time>2019-04-07T10:54:44Z</time>
      </trkpt>
      <trkpt lat="49.4239" lon="4.04155">
        <ele>102</ele>
        <time>2019-04-07T10:54:45Z</time>
      </trkpt>
      <trkpt lat="49.42385" lon="4.0415">
        <ele>102</ele>
        <time>2019-04-07T10:54:46Z</time>
      </trkpt>
      <trkpt lat="49.42381" lon="4.04146">
        <ele>102</ele>
        <time>2019-04-07T10:54:47Z</time>
      </trkpt>
      <trkpt lat="49.42377" lon="4.04141">
        <ele>102</ele>
        <time>2019-04-07T10:54:48Z</time>
      </trkpt>
      <trkpt lat="49.42372" lon="4.04137">
        <ele>103</ele>
        <time>2019-04-07T10:54:49Z</time>
      </trkpt>
      <trkpt lat="49.42367" lon="4.04132">
        <ele>103</ele>
        <time>2019-04-07T10:54:50Z</time>
      </trkpt>
      <trkpt lat="49.42363" lon="4.04128">
        <ele>103</ele>
        <time>2019-04-07T10:54:51Z</time>
      </trkpt>
      <trkpt lat="49.42359" lon="4.04123">
        <ele>103</ele>
        <time>2019-04-07T10:54:52Z</time>
      </trkpt>
      <trkpt lat="49.42355" lon="4.04119">
        <ele>103</ele>
        <time>2019-04-07T10:54:53Z</time>
      </trkpt>
      <trkpt lat="49.42351" lon="4.04115">
        <ele>103</ele>
        <time>2019-04-07T10:54:54Z</time>
      </trkpt>
      <trkpt lat="49.42347" lon="4.0411">
        <ele>103</ele>
        <time>2019-04-07T10:54:55Z</time>
      </trkpt>
      <trkpt lat="49.42343" lon="4.04106">
        <ele>103</ele>
        <time>2019-04-07T10:54:56Z</time>
      </trkpt>
      <trkpt lat="49.42338" lon="4.04102">
        <ele>103</ele>
        <time>2019-04-07T10:54:57Z</time>
      </trkpt>
      <trkpt lat="49.42334" lon="4.04098">
        <ele>104</ele>
        <time>2019-04-07T10:54:58Z</time>
      </trkpt>
      <trkpt lat="49.4233" lon="4.04093">
        <ele>104</ele>
        <time>2019-04-07T10:54:59Z</time>
      </trkpt>
      <trkpt lat="49.42326" lon="4.04089">
        <ele>104</ele>
        <time>2019-04-07T10:55:00Z</time>
      </trkpt>
      <trkpt lat="49.42322" lon="4.04084">
        <ele>104</ele>
        <time>2019-04-07T10:55:01Z</time>
      </trkpt>
      <trkpt lat="49.42318" lon="4.0408">
        <ele>104</ele>
        <time>2019-04-07T10:55:02Z</time>
      </trkpt>
      <trkpt lat="49.42314" lon="4.04076">
        <ele>104</ele>
        <time>2019-04-07T10:55:03Z</time>
      </trkpt>
      <trkpt lat="49.4231" lon="4.04071">
        <ele>105</ele>
        <time>2019-04-07T10:55:04Z</time>
      </trkpt>
      <trkpt lat="49.42306" lon="4.04067">
        <ele>105</ele>
        <time>2019-04-07T10:55:05Z</time>
      </trkpt>
      <trkpt lat="49.42303" lon="4.04063">
        <ele>105</ele>
        <time>2019-04-07T10:55:06Z</time>
      </trkpt>
      <trkpt lat="49.42298" lon="4.04059">
        <ele>104</ele>
        <time>2019-04-07T10:55:07Z</time>
      </trkpt>
      <trkpt lat="49.42295" lon="4.04054">
        <ele>105</ele>
        <time>2019-04-07T10:55:08Z</time>
      </trkpt>
      <trkpt lat="49.42291" lon="4.0405">
        <ele>105</ele>
        <time>2019-04-07T10:55:09Z</time>
      </trkpt>
      <trkpt lat="49.42287" lon="4.04046">
        <ele>105</ele>
        <time>2019-04-07T10:55:10Z</time>
      </trkpt>
      <trkpt lat="49.42283" lon="4.04042">
        <ele>105</ele>
        <time>2019-04-07T10:55:11Z</time>
      </trkpt>
      <trkpt lat="49.4228" lon="4.04038">
        <ele>105</ele>
        <time>2019-04-07T10:55:12Z</time>
      </trkpt>
      <trkpt lat="49.42276" lon="4.04033">
        <ele>105</ele>
        <time>2019-04-07T10:55:13Z</time>
      </trkpt>
      <trkpt lat="49.42272" lon="4.04029">
        <ele>105</ele>
        <time>2019-04-07T10:55:14Z</time>
      </trkpt>
      <trkpt lat="49.42268" lon="4.04025">
        <ele>105</ele>
        <time>2019-04-07T10:55:15Z</time>
      </trkpt>
      <trkpt lat="49.42265" lon="4.04021">
        <ele>105</ele>
        <time>2019-04-07T10:55:16Z</time>
      </trkpt>
      <trkpt lat="49.42261" lon="4.04017">
        <ele>105</ele>
        <time>2019-04-07T10:55:17Z</time>
      </trkpt>
      <trkpt lat="49.42257" lon="4.04013">
        <ele>105</ele>
        <time>2019-04-07T10:55:18Z</time>
      </trkpt>
      <trkpt lat="49.42253" lon="4.04008">
        <ele>105</ele>
        <time>2019-04-07T10:55:19Z</time>
      </trkpt>
      <trkpt lat="49.42249" lon="4.04004">
        <ele>105</ele>
        <time>2019-04-07T10:55:20Z</time>
      </trkpt>
      <trkpt lat="49.42245" lon="4.04">
        <ele>105</ele>
        <time>2019-04-07T10:55:21Z</time>
      </trkpt>
      <trkpt lat="49.42241" lon="4.03995">
        <ele>105</ele>
        <time>2019-04-07T10:55:22Z</time>
      </trkpt>
      <trkpt lat="49.42237" lon="4.03991">
        <ele>105</ele>
        <time>2019-04-07T10:55:23Z</time>
      </trkpt>
      <trkpt lat="49.42234" lon="4.03986">
        <ele>105</ele>
        <time>2019-04-07T10:55:24Z</time>
      </trkpt>
      <trkpt lat="49.42229" lon="4.03982">
        <ele>105</ele>
        <time>2019-04-07T10:55:25Z</time>
      </trkpt>
      <trkpt lat="49.42225" lon="4.03977">
        <ele>105</ele>
        <time>2019-04-07T10:55:26Z</time>
      </trkpt>
      <trkpt lat="49.42221" lon="4.03973">
        <ele>105</ele>
        <time>2019-04-07T10:55:27Z</time>
      </trkpt>
      <trkpt lat="49.42217" lon="4.03969">
        <ele>105</ele>
        <time>2019-04-07T10:55:28Z</time>
      </trkpt>
      <trkpt lat="49.42212" lon="4.03965">
        <ele>104</ele>
        <time>2019-04-07T10:55:29Z</time>
      </trkpt>
      <trkpt lat="49.42207" lon="4.03961">
        <ele>104</ele>
        <time>2019-04-07T10:55:30Z</time>
      </trkpt>
      <trkpt lat="49.42203" lon="4.03957">
        <ele>104</ele>
        <time>2019-04-07T10:55:31Z</time>
      </trkpt>
      <trkpt lat="49.42198" lon="4.03953">
        <ele>104</ele>
        <time>2019-04-07T10:55:32Z</time>
      </trkpt>
      <trkpt lat="49.42193" lon="4.0395">
        <ele>104</ele>
        <time>2019-04-07T10:55:33Z</time>
      </trkpt>
      <trkpt lat="49.42188" lon="4.03947">
        <ele>104</ele>
        <time>2019-04-07T10:55:34Z</time>
      </trkpt>
      <trkpt lat="49.42183" lon="4.03944">
        <ele>104</ele>
        <time>2019-04-07T10:55:35Z</time>
      </trkpt>
      <trkpt lat="49.42178" lon="4.0394">
        <ele>104</ele>
        <time>2019-04-07T10:55:36Z</time>
      </trkpt>
      <trkpt lat="49.42173" lon="4.03938">
        <ele>104</ele>
        <time>2019-04-07T10:55:37Z</time>
      </trkpt>
      <trkpt lat="49.42167" lon="4.03935">
        <ele>104</ele>
        <time>2019-04-07T10:55:38Z</time>
      </trkpt>
      <trkpt lat="49.42162" lon="4.03932">
        <ele>104</ele>
        <time>2019-04-07T10:55:39Z</time>
      </trkpt>
      <trkpt lat="49.42156" lon="4.03929">
        <ele>104</ele>
        <time>2019-04-07T10:55:40Z</time>
      </trkpt>
      <trkpt lat="49.4215" lon="4.03926">
        <ele>104</ele>
        <time>2019-04-07T10:55:41Z</time>
      </trkpt>
      <trkpt lat="49.42145" lon="4.03924">
        <ele>104</ele>
        <time>2019-04-07T10:55:42Z</time>
      </trkpt>
      <trkpt lat="49.42139" lon="4.03922">
        <ele>103</ele>
        <time>2019-04-07T10:55:43Z</time>
      </trkpt>
      <trkpt lat="49.42133" lon="4.03919">
        <ele>103</ele>
        <time>2019-04-07T10:55:44Z</time>
      </trkpt>
      <trkpt lat="49.42127" lon="4.03916">
        <ele>103</ele>
        <time>2019-04-07T10:55:45Z</time>
      </trkpt>
      <trkpt lat="49.4212" lon="4.03914">
        <ele>104</ele>
        <time>2019-04-07T10:55:46Z</time>
      </trkpt>
      <trkpt lat="49.42114" lon="4.0391">
        <ele>104</ele>
        <time>2019-04-07T10:55:47Z</time>
      </trkpt>
      <trkpt lat="49.42108" lon="4.03906">
        <ele>103</ele>
        <time>2019-04-07T10:55:48Z</time>
      </trkpt>
      <trkpt lat="49.42102" lon="4.03903">
        <ele>103</ele>
        <time>2019-04-07T10:55:49Z</time>
      </trkpt>
      <trkpt lat="49.42096" lon="4.03899">
        <ele>103</ele>
        <time>2019-04-07T10:55:50Z</time>
      </trkpt>
      <trkpt lat="49.42091" lon="4.03894">
        <ele>103</ele>
        <time>2019-04-07T10:55:51Z</time>
      </trkpt>
      <trkpt lat="49.42085" lon="4.03889">
        <ele>103</ele>
        <time>2019-04-07T10:55:52Z</time>
      </trkpt>
      <trkpt lat="49.4208" lon="4.03884">
        <ele>103</ele>
        <time>2019-04-07T10:55:53Z</time>
      </trkpt>
      <trkpt lat="49.42075" lon="4.03878">
        <ele>103</ele>
        <time>2019-04-07T10:55:54Z</time>
      </trkpt>
      <trkpt lat="49.4207" lon="4.03872">
        <ele>103</ele>
        <time>2019-04-07T10:55:55Z</time>
      </trkpt>
      <trkpt lat="49.42064" lon="4.03866">
        <ele>103</ele>
        <time>2019-04-07T10:55:56Z</time>
      </trkpt>
      <trkpt lat="49.42059" lon="4.0386">
        <ele>103</ele>
        <time>2019-04-07T10:55:57Z</time>
      </trkpt>
      <trkpt lat="49.42049" lon="4.03846">
        <ele>103</ele>
        <time>2019-04-07T10:55:59Z</time>
      </trkpt>
      <trkpt lat="49.42044" lon="4.0384">
        <ele>103</ele>
        <time>2019-04-07T10:56:00Z</time>
      </trkpt>
      <trkpt lat="49.42039" lon="4.03834">
        <ele>103</ele>
        <time>2019-04-07T10:56:01Z</time>
      </trkpt>
      <trkpt lat="49.42034" lon="4.03827">
        <ele>103</ele>
        <time>2019-04-07T10:56:02Z</time>
      </trkpt>
      <trkpt lat="49.42029" lon="4.03821">
        <ele>103</ele>
        <time>2019-04-07T10:56:03Z</time>
      </trkpt>
      <trkpt lat="49.42024" lon="4.03815">
        <ele>103</ele>
        <time>2019-04-07T10:56:04Z</time>
      </trkpt>
      <trkpt lat="49.42019" lon="4.03808">
        <ele>104</ele>
        <time>2019-04-07T10:56:05Z</time>
      </trkpt>
      <trkpt lat="49.42014" lon="4.03802">
        <ele>104</ele>
        <time>2019-04-07T10:56:06Z</time>
      </trkpt>
      <trkpt lat="49.42009" lon="4.03796">
        <ele>104</ele>
        <time>2019-04-07T10:56:07Z</time>
      </trkpt>
      <trkpt lat="49.42004" lon="4.0379">
        <ele>104</ele>
        <time>2019-04-07T10:56:08Z</time>
      </trkpt>
      <trkpt lat="49.41999" lon="4.03784">
        <ele>104</ele>
        <time>2019-04-07T10:56:09Z</time>
      </trkpt>
      <trkpt lat="49.41994" lon="4.03777">
        <ele>104</ele>
        <time>2019-04-07T10:56:10Z</time>
      </trkpt>
      <trkpt lat="49.41989" lon="4.03772">
        <ele>104</ele>
        <time>2019-04-07T10:56:11Z</time>
      </trkpt>
      <trkpt lat="49.41985" lon="4.03766">
        <ele>104</ele>
        <time>2019-04-07T10:56:12Z</time>
      </trkpt>
      <trkpt lat="49.4198" lon="4.0376">
        <ele>104</ele>
        <time>2019-04-07T10:56:13Z</time>
      </trkpt>
      <trkpt lat="49.41975" lon="4.03754">
        <ele>104</ele>
        <time>2019-04-07T10:56:14Z</time>
      </trkpt>
      <trkpt lat="49.4197" lon="4.03748">
        <ele>104</ele>
        <time>2019-04-07T10:56:15Z</time>
      </trkpt>
      <trkpt lat="49.41966" lon="4.03742">
        <ele>103</ele>
        <time>2019-04-07T10:56:16Z</time>
      </trkpt>
      <trkpt lat="49.41961" lon="4.03736">
        <ele>103</ele>
        <time>2019-04-07T10:56:17Z</time>
      </trkpt>
      <trkpt lat="49.41956" lon="4.0373">
        <ele>103</ele>
        <time>2019-04-07T10:56:18Z</time>
      </trkpt>
      <trkpt lat="49.41951" lon="4.03724">
        <ele>103</ele>
        <time>2019-04-07T10:56:19Z</time>
      </trkpt>
      <trkpt lat="49.41947" lon="4.03717">
        <ele>103</ele>
        <time>2019-04-07T10:56:20Z</time>
      </trkpt>
      <trkpt lat="49.41942" lon="4.03711">
        <ele>103</ele>
        <time>2019-04-07T10:56:21Z</time>
      </trkpt>
      <trkpt lat="49.41938" lon="4.03705">
        <ele>104</ele>
        <time>2019-04-07T10:56:22Z</time>
      </trkpt>
      <trkpt lat="49.41933" lon="4.037">
        <ele>104</ele>
        <time>2019-04-07T10:56:23Z</time>
      </trkpt>
      <trkpt lat="49.41929" lon="4.03695">
        <ele>104</ele>
        <time>2019-04-07T10:56:24Z</time>
      </trkpt>
      <trkpt lat="49.41925" lon="4.03689">
        <ele>104</ele>
        <time>2019-04-07T10:56:25Z</time>
      </trkpt>
      <trkpt lat="49.41921" lon="4.03684">
        <ele>104</ele>
        <time>2019-04-07T10:56:26Z</time>
      </trkpt>
      <trkpt lat="49.41917" lon="4.03678">
        <ele>105</ele>
        <time>2019-04-07T10:56:27Z</time>
      </trkpt>
      <trkpt lat="49.41913" lon="4.03673">
        <ele>105</ele>
        <time>2019-04-07T10:56:28Z</time>
      </trkpt>
      <trkpt lat="49.41909" lon="4.03667">
        <ele>105</ele>
        <time>2019-04-07T10:56:29Z</time>
      </trkpt>
      <trkpt lat="49.41905" lon="4.03662">
        <ele>105</ele>
        <time>2019-04-07T10:56:30Z</time>
      </trkpt>
      <trkpt lat="49.41901" lon="4.03657">
        <ele>105</ele>
        <time>2019-04-07T10:56:31Z</time>
      </trkpt>
      <trkpt lat="49.41896" lon="4.03652">
        <ele>105</ele>
        <time>2019-04-07T10:56:32Z</time>
      </trkpt>
      <trkpt lat="49.41892" lon="4.03646">
        <ele>105</ele>
        <time>2019-04-07T10:56:33Z</time>
      </trkpt>
      <trkpt lat="49.41888" lon="4.03641">
        <ele>106</ele>
        <time>2019-04-07T10:56:34Z</time>
      </trkpt>
      <trkpt lat="49.41884" lon="4.03636">
        <ele>106</ele>
        <time>2019-04-07T10:56:35Z</time>
      </trkpt>
      <trkpt lat="49.4188" lon="4.03631">
        <ele>106</ele>
        <time>2019-04-07T10:56:36Z</time>
      </trkpt>
      <trkpt lat="49.41876" lon="4.03625">
        <ele>106</ele>
        <time>2019-04-07T10:56:37Z</time>
      </trkpt>
      <trkpt lat="49.41871" lon="4.0362">
        <ele>106</ele>
        <time>2019-04-07T10:56:38Z</time>
      </trkpt>
      <trkpt lat="49.41867" lon="4.03615">
        <ele>106</ele>
        <time>2019-04-07T10:56:39Z</time>
      </trkpt>
      <trkpt lat="49.41863" lon="4.0361">
        <ele>106</ele>
        <time>2019-04-07T10:56:40Z</time>
      </trkpt>
      <trkpt lat="49.41858" lon="4.03604">
        <ele>106</ele>
        <time>2019-04-07T10:56:41Z</time>
      </trkpt>
      <trkpt lat="49.41854" lon="4.03598">
        <ele>106</ele>
        <time>2019-04-07T10:56:42Z</time>
      </trkpt>
      <trkpt lat="49.4185" lon="4.03593">
        <ele>106</ele>
        <time>2019-04-07T10:56:43Z</time>
      </trkpt>
      <trkpt lat="49.41845" lon="4.03587">
        <ele>106</ele>
        <time>2019-04-07T10:56:44Z</time>
      </trkpt>
      <trkpt lat="49.4184" lon="4.03581">
        <ele>106</ele>
        <time>2019-04-07T10:56:45Z</time>
      </trkpt>
      <trkpt lat="49.41836" lon="4.03576">
        <ele>106</ele>
        <time>2019-04-07T10:56:46Z</time>
      </trkpt>
      <trkpt lat="49.41831" lon="4.0357">
        <ele>106</ele>
        <time>2019-04-07T10:56:47Z</time>
      </trkpt>
      <trkpt lat="49.41827" lon="4.03564">
        <ele>106</ele>
        <time>2019-04-07T10:56:48Z</time>
      </trkpt>
      <trkpt lat="49.41822" lon="4.03559">
        <ele>106</ele>
        <time>2019-04-07T10:56:49Z</time>
      </trkpt>
      <trkpt lat="49.41817" lon="4.03554">
        <ele>106</ele>
        <time>2019-04-07T10:56:50Z</time>
      </trkpt>
      <trkpt lat="49.41813" lon="4.03548">
        <ele>106</ele>
        <time>2019-04-07T10:56:51Z</time>
      </trkpt>
      <trkpt lat="49.41808" lon="4.03543">
        <ele>106</ele>
        <time>2019-04-07T10:56:52Z</time>
      </trkpt>
      <trkpt lat="49.41804" lon="4.03537">
        <ele>106</ele>
        <time>2019-04-07T10:56:53Z</time>
      </trkpt>
      <trkpt lat="49.41799" lon="4.03532">
        <ele>106</ele>
        <time>2019-04-07T10:56:54Z</time>
      </trkpt>
      <trkpt lat="49.41794" lon="4.03527">
        <ele>106</ele>
        <time>2019-04-07T10:56:55Z</time>
      </trkpt>
      <trkpt lat="49.4179" lon="4.03522">
        <ele>106</ele>
        <time>2019-04-07T10:56:56Z</time>
      </trkpt>
      <trkpt lat="49.41786" lon="4.03516">
        <ele>106</ele>
        <time>2019-04-07T10:56:57Z</time>
      </trkpt>
      <trkpt lat="49.41781" lon="4.03511">
        <ele>106</ele>
        <time>2019-04-07T10:56:58Z</time>
      </trkpt>
      <trkpt lat="49.41777" lon="4.03505">
        <ele>106</ele>
        <time>2019-04-07T10:56:59Z</time>
      </trkpt>
      <trkpt lat="49.41773" lon="4.035">
        <ele>106</ele>
        <time>2019-04-07T10:57:00Z</time>
      </trkpt>
      <trkpt lat="49.41769" lon="4.03495">
        <ele>106</ele>
        <time>2019-04-07T10:57:01Z</time>
      </trkpt>
      <trkpt lat="49.41765" lon="4.0349">
        <ele>106</ele>
        <time>2019-04-07T10:57:02Z</time>
      </trkpt>
      <trkpt lat="49.41761" lon="4.03484">
        <ele>106</ele>
        <time>2019-04-07T10:57:03Z</time>
      </trkpt>
      <trkpt lat="49.41757" lon="4.03479">
        <ele>106</ele>
        <time>2019-04-07T10:57:04Z</time>
      </trkpt>
      <trkpt lat="49.41753" lon="4.03474">
        <ele>106</ele>
        <time>2019-04-07T10:57:05Z</time>
      </trkpt>
      <trkpt lat="49.41748" lon="4.03468">
        <ele>106</ele>
        <time>2019-04-07T10:57:06Z</time>
      </trkpt>
      <trkpt lat="49.41745" lon="4.03463">
        <ele>106</ele>
        <time>2019-04-07T10:57:07Z</time>
      </trkpt>
      <trkpt lat="49.4174" lon="4.03457">
        <ele>106</ele>
        <time>2019-04-07T10:57:08Z</time>
      </trkpt>
      <trkpt lat="49.41736" lon="4.03452">
        <ele>106</ele>
        <time>2019-04-07T10:57:09Z</time>
      </trkpt>
      <trkpt lat="49.41732" lon="4.03446">
        <ele>106</ele>
        <time>2019-04-07T10:57:10Z</time>
      </trkpt>
      <trkpt lat="49.41728" lon="4.03442">
        <ele>106</ele>
        <time>2019-04-07T10:57:11Z</time>
      </trkpt>
      <trkpt lat="49.41724" lon="4.03437">
        <ele>106</ele>
        <time>2019-04-07T10:57:12Z</time>
      </trkpt>
      <trkpt lat="49.41719" lon="4.03431">
        <ele>106</ele>
        <time>2019-04-07T10:57:13Z</time>
      </trkpt>
      <trkpt lat="49.41716" lon="4.03426">
        <ele>106</ele>
        <time>2019-04-07T10:57:14Z</time>
      </trkpt>
      <trkpt lat="49.41711" lon="4.0342">
        <ele>105</ele>
        <time>2019-04-07T10:57:15Z</time>
      </trkpt>
      <trkpt lat="49.41707" lon="4.03415">
        <ele>105</ele>
        <time>2019-04-07T10:57:16Z</time>
      </trkpt>
      <trkpt lat="49.41703" lon="4.03409">
        <ele>105</ele>
        <time>2019-04-07T10:57:17Z</time>
      </trkpt>
      <trkpt lat="49.41699" lon="4.03403">
        <ele>105</ele>
        <time>2019-04-07T10:57:18Z</time>
      </trkpt>
      <trkpt lat="49.41694" lon="4.03398">
        <ele>105</ele>
        <time>2019-04-07T10:57:19Z</time>
      </trkpt>
      <trkpt lat="49.41689" lon="4.03393">
        <ele>105</ele>
        <time>2019-04-07T10:57:20Z</time>
      </trkpt>
      <trkpt lat="49.41683" lon="4.03387">
        <ele>105</ele>
        <time>2019-04-07T10:57:21Z</time>
      </trkpt>
      <trkpt lat="49.41679" lon="4.03381">
        <ele>104</ele>
        <time>2019-04-07T10:57:22Z</time>
      </trkpt>
      <trkpt lat="49.41673" lon="4.03375">
        <ele>104</ele>
        <time>2019-04-07T10:57:23Z</time>
      </trkpt>
      <trkpt lat="49.41668" lon="4.03368">
        <ele>105</ele>
        <time>2019-04-07T10:57:24Z</time>
      </trkpt>
      <trkpt lat="49.41663" lon="4.03362">
        <ele>104</ele>
        <time>2019-04-07T10:57:25Z</time>
      </trkpt>
      <trkpt lat="49.41658" lon="4.03356">
        <ele>104</ele>
        <time>2019-04-07T10:57:26Z</time>
      </trkpt>
      <trkpt lat="49.41653" lon="4.0335">
        <ele>104</ele>
        <time>2019-04-07T10:57:27Z</time>
      </trkpt>
      <trkpt lat="49.41648" lon="4.03343">
        <ele>104</ele>
        <time>2019-04-07T10:57:28Z</time>
      </trkpt>
      <trkpt lat="49.41643" lon="4.03338">
        <ele>104</ele>
        <time>2019-04-07T10:57:29Z</time>
      </trkpt>
      <trkpt lat="49.41633" lon="4.03326">
        <ele>104</ele>
        <time>2019-04-07T10:57:31Z</time>
      </trkpt>
      <trkpt lat="49.41623" lon="4.03313">
        <ele>104</ele>
        <time>2019-04-07T10:57:33Z</time>
      </trkpt>
      <trkpt lat="49.41619" lon="4.03307">
        <ele>104</ele>
        <time>2019-04-07T10:57:34Z</time>
      </trkpt>
      <trkpt lat="49.41614" lon="4.033">
        <ele>103</ele>
        <time>2019-04-07T10:57:35Z</time>
      </trkpt>
      <trkpt lat="49.41609" lon="4.03293">
        <ele>103</ele>
        <time>2019-04-07T10:57:36Z</time>
      </trkpt>
      <trkpt lat="49.41604" lon="4.03286">
        <ele>104</ele>
        <time>2019-04-07T10:57:37Z</time>
      </trkpt>
      <trkpt lat="49.41599" lon="4.03279">
        <ele>104</ele>
        <time>2019-04-07T10:57:38Z</time>
      </trkpt>
      <trkpt lat="49.41595" lon="4.03272">
        <ele>104</ele>
        <time>2019-04-07T10:57:39Z</time>
      </trkpt>
      <trkpt lat="49.41591" lon="4.03266">
        <ele>104</ele>
        <time>2019-04-07T10:57:40Z</time>
      </trkpt>
      <trkpt lat="49.41587" lon="4.03259">
        <ele>104</ele>
        <time>2019-04-07T10:57:41Z</time>
      </trkpt>
      <trkpt lat="49.41583" lon="4.03252">
        <ele>104</ele>
        <time>2019-04-07T10:57:42Z</time>
      </trkpt>
      <trkpt lat="49.41579" lon="4.03246">
        <ele>104</ele>
        <time>2019-04-07T10:57:43Z</time>
      </trkpt>
      <trkpt lat="49.41576" lon="4.03239">
        <ele>104</ele>
        <time>2019-04-07T10:57:44Z</time>
      </trkpt>
      <trkpt lat="49.41573" lon="4.03232">
        <ele>104</ele>
        <time>2019-04-07T10:57:45Z</time>
      </trkpt>
      <trkpt lat="49.41569" lon="4.03225">
        <ele>104</ele>
        <time>2019-04-07T10:57:46Z</time>
      </trkpt>
      <trkpt lat="49.41565" lon="4.03218">
        <ele>104</ele>
        <time>2019-04-07T10:57:47Z</time>
      </trkpt>
      <trkpt lat="49.41561" lon="4.03211">
        <ele>104</ele>
        <time>2019-04-07T10:57:48Z</time>
      </trkpt>
      <trkpt lat="49.41558" lon="4.03205">
        <ele>104</ele>
        <time>2019-04-07T10:57:49Z</time>
      </trkpt>
      <trkpt lat="49.41554" lon="4.03199">
        <ele>104</ele>
        <time>2019-04-07T10:57:50Z</time>
      </trkpt>
      <trkpt lat="49.41551" lon="4.03193">
        <ele>104</ele>
        <time>2019-04-07T10:57:51Z</time>
      </trkpt>
      <trkpt lat="49.41547" lon="4.03186">
        <ele>104</ele>
        <time>2019-04-07T10:57:52Z</time>
      </trkpt>
      <trkpt lat="49.41544" lon="4.0318">
        <ele>104</ele>
        <time>2019-04-07T10:57:53Z</time>
      </trkpt>
      <trkpt lat="49.4154" lon="4.03173">
        <ele>105</ele>
        <time>2019-04-07T10:57:54Z</time>
      </trkpt>
      <trkpt lat="49.41536" lon="4.03166">
        <ele>105</ele>
        <time>2019-04-07T10:57:55Z</time>
      </trkpt>
      <trkpt lat="49.41533" lon="4.03159">
        <ele>105</ele>
        <time>2019-04-07T10:57:56Z</time>
      </trkpt>
      <trkpt lat="49.4153" lon="4.03152">
        <ele>105</ele>
        <time>2019-04-07T10:57:57Z</time>
      </trkpt>
      <trkpt lat="49.41526" lon="4.03146">
        <ele>105</ele>
        <time>2019-04-07T10:57:58Z</time>
      </trkpt>
      <trkpt lat="49.41524" lon="4.0314">
        <ele>105</ele>
        <time>2019-04-07T10:57:59Z</time>
      </trkpt>
      <trkpt lat="49.41521" lon="4.03134">
        <ele>105</ele>
        <time>2019-04-07T10:58:00Z</time>
      </trkpt>
      <trkpt lat="49.41518" lon="4.03127">
        <ele>105</ele>
        <time>2019-04-07T10:58:01Z</time>
      </trkpt>
      <trkpt lat="49.41515" lon="4.03121">
        <ele>106</ele>
        <time>2019-04-07T10:58:02Z</time>
      </trkpt>
      <trkpt lat="49.41512" lon="4.03114">
        <ele>106</ele>
        <time>2019-04-07T10:58:03Z</time>
      </trkpt>
      <trkpt lat="49.41508" lon="4.03107">
        <ele>106</ele>
        <time>2019-04-07T10:58:04Z</time>
      </trkpt>
      <trkpt lat="49.41505" lon="4.031">
        <ele>106</ele>
        <time>2019-04-07T10:58:05Z</time>
      </trkpt>
      <trkpt lat="49.41503" lon="4.03093">
        <ele>106</ele>
        <time>2019-04-07T10:58:06Z</time>
      </trkpt>
      <trkpt lat="49.415" lon="4.03085">
        <ele>106</ele>
        <time>2019-04-07T10:58:07Z</time>
      </trkpt>
      <trkpt lat="49.41498" lon="4.03077">
        <ele>106</ele>
        <time>2019-04-07T10:58:08Z</time>
      </trkpt>
      <trkpt lat="49.41496" lon="4.03069">
        <ele>106</ele>
        <time>2019-04-07T10:58:09Z</time>
      </trkpt>
      <trkpt lat="49.41494" lon="4.03061">
        <ele>105</ele>
        <time>2019-04-07T10:58:10Z</time>
      </trkpt>
      <trkpt lat="49.41491" lon="4.03054">
        <ele>105</ele>
        <time>2019-04-07T10:58:11Z</time>
      </trkpt>
      <trkpt lat="49.41489" lon="4.03045">
        <ele>106</ele>
        <time>2019-04-07T10:58:12Z</time>
      </trkpt>
      <trkpt lat="49.41487" lon="4.03036">
        <ele>106</ele>
        <time>2019-04-07T10:58:13Z</time>
      </trkpt>
      <trkpt lat="49.41485" lon="4.03028">
        <ele>106</ele>
        <time>2019-04-07T10:58:14Z</time>
      </trkpt>
      <trkpt lat="49.41482" lon="4.03019">
        <ele>105</ele>
        <time>2019-04-07T10:58:15Z</time>
      </trkpt>
      <trkpt lat="49.41478" lon="4.03012">
        <ele>105</ele>
        <time>2019-04-07T10:58:16Z</time>
      </trkpt>
      <trkpt lat="49.41475" lon="4.03006">
        <ele>105</ele>
        <time>2019-04-07T10:58:17Z</time>
      </trkpt>
      <trkpt lat="49.41472" lon="4.02998">
        <ele>104</ele>
        <time>2019-04-07T10:58:18Z</time>
      </trkpt>
      <trkpt lat="49.41468" lon="4.02991">
        <ele>104</ele>
        <time>2019-04-07T10:58:19Z</time>
      </trkpt>
      <trkpt lat="49.41465" lon="4.02984">
        <ele>104</ele>
        <time>2019-04-07T10:58:20Z</time>
      </trkpt>
      <trkpt lat="49.4146" lon="4.02977">
        <ele>104</ele>
        <time>2019-04-07T10:58:21Z</time>
      </trkpt>
      <trkpt lat="49.41456" lon="4.02971">
        <ele>104</ele>
        <time>2019-04-07T10:58:22Z</time>
      </trkpt>
      <trkpt lat="49.41451" lon="4.02965">
        <ele>104</ele>
        <time>2019-04-07T10:58:23Z</time>
      </trkpt>
      <trkpt lat="49.41447" lon="4.02958">
        <ele>104</ele>
        <time>2019-04-07T10:58:24Z</time>
      </trkpt>
      <trkpt lat="49.41443" lon="4.02952">
        <ele>104</ele>
        <time>2019-04-07T10:58:25Z</time>
      </trkpt>
      <trkpt lat="49.41438" lon="4.02946">
        <ele>104</ele>
        <time>2019-04-07T10:58:26Z</time>
      </trkpt>
      <trkpt lat="49.41434" lon="4.02941">
        <ele>104</ele>
        <time>2019-04-07T10:58:27Z</time>
      </trkpt>
      <trkpt lat="49.4143" lon="4.02936">
        <ele>104</ele>
        <time>2019-04-07T10:58:28Z</time>
      </trkpt>
      <trkpt lat="49.41426" lon="4.0293">
        <ele>104</ele>
        <time>2019-04-07T10:58:29Z</time>
      </trkpt>
      <trkpt lat="49.41422" lon="4.02924">
        <ele>104</ele>
        <time>2019-04-07T10:58:30Z</time>
      </trkpt>
      <trkpt lat="49.41418" lon="4.02919">
        <ele>104</ele>
        <time>2019-04-07T10:58:31Z</time>
      </trkpt>
      <trkpt lat="49.41414" lon="4.02914">
        <ele>104</ele>
        <time>2019-04-07T10:58:32Z</time>
      </trkpt>
      <trkpt lat="49.4141" lon="4.02909">
        <ele>104</ele>
        <time>2019-04-07T10:58:33Z</time>
      </trkpt>
      <trkpt lat="49.41407" lon="4.02904">
        <ele>104</ele>
        <time>2019-04-07T10:58:34Z</time>
      </trkpt>
      <trkpt lat="49.41403" lon="4.029">
        <ele>104</ele>
        <time>2019-04-07T10:58:35Z</time>
      </trkpt>
      <trkpt lat="49.41399" lon="4.02895">
        <ele>104</ele>
        <time>2019-04-07T10:58:36Z</time>
      </trkpt>
      <trkpt lat="49.41396" lon="4.0289">
        <ele>104</ele>
        <time>2019-04-07T10:58:37Z</time>
      </trkpt>
      <trkpt lat="49.41392" lon="4.02885">
        <ele>104</ele>
        <time>2019-04-07T10:58:38Z</time>
      </trkpt>
      <trkpt lat="49.41388" lon="4.0288">
        <ele>105</ele>
        <time>2019-04-07T10:58:39Z</time>
      </trkpt>
      <trkpt lat="49.41385" lon="4.02875">
        <ele>105</ele>
        <time>2019-04-07T10:58:40Z</time>
      </trkpt>
      <trkpt lat="49.41381" lon="4.02871">
        <ele>105</ele>
        <time>2019-04-07T10:58:41Z</time>
      </trkpt>
      <trkpt lat="49.41377" lon="4.02866">
        <ele>105</ele>
        <time>2019-04-07T10:58:42Z</time>
      </trkpt>
      <trkpt lat="49.41374" lon="4.02862">
        <ele>105</ele>
        <time>2019-04-07T10:58:43Z</time>
      </trkpt>
      <trkpt lat="49.41371" lon="4.02857">
        <ele>105</ele>
        <time>2019-04-07T10:58:44Z</time>
      </trkpt>
      <trkpt lat="49.41368" lon="4.02852">
        <ele>105</ele>
        <time>2019-04-07T10:58:45Z</time>
      </trkpt>
      <trkpt lat="49.41364" lon="4.02847">
        <ele>106</ele>
        <time>2019-04-07T10:58:46Z</time>
      </trkpt>
      <trkpt lat="49.4136" lon="4.02842">
        <ele>106</ele>
        <time>2019-04-07T10:58:47Z</time>
      </trkpt>
      <trkpt lat="49.41357" lon="4.02838">
        <ele>106</ele>
        <time>2019-04-07T10:58:48Z</time>
      </trkpt>
      <trkpt lat="49.41353" lon="4.02833">
        <ele>106</ele>
        <time>2019-04-07T10:58:49Z</time>
      </trkpt>
      <trkpt lat="49.41349" lon="4.02828">
        <ele>106</ele>
        <time>2019-04-07T10:58:50Z</time>
      </trkpt>
      <trkpt lat="49.41346" lon="4.02823">
        <ele>106</ele>
        <time>2019-04-07T10:58:51Z</time>
      </trkpt>
      <trkpt lat="49.41342" lon="4.02819">
        <ele>105</ele>
        <time>2019-04-07T10:58:52Z</time>
      </trkpt>
      <trkpt lat="49.41339" lon="4.02814">
        <ele>105</ele>
        <time>2019-04-07T10:58:53Z</time>
      </trkpt>
      <trkpt lat="49.41335" lon="4.02809">
        <ele>105</ele>
        <time>2019-04-07T10:58:54Z</time>
      </trkpt>
      <trkpt lat="49.41332" lon="4.02804">
        <ele>105</ele>
        <time>2019-04-07T10:58:55Z</time>
      </trkpt>
      <trkpt lat="49.41328" lon="4.02799">
        <ele>105</ele>
        <time>2019-04-07T10:58:56Z</time>
      </trkpt>
      <trkpt lat="49.41324" lon="4.02794">
        <ele>105</ele>
        <time>2019-04-07T10:58:57Z</time>
      </trkpt>
      <trkpt lat="49.4132" lon="4.0279">
        <ele>105</ele>
        <time>2019-04-07T10:58:58Z</time>
      </trkpt>
      <trkpt lat="49.41316" lon="4.02787">
        <ele>105</ele>
        <time>2019-04-07T10:58:59Z</time>
      </trkpt>
      <trkpt lat="49.41312" lon="4.02784">
        <ele>105</ele>
        <time>2019-04-07T10:59:00Z</time>
      </trkpt>
      <trkpt lat="49.41307" lon="4.02781">
        <ele>106</ele>
        <time>2019-04-07T10:59:01Z</time>
      </trkpt>
      <trkpt lat="49.41303" lon="4.02778">
        <ele>105</ele>
        <time>2019-04-07T10:59:02Z</time>
      </trkpt>
      <trkpt lat="49.41299" lon="4.02777">
        <ele>105</ele>
        <time>2019-04-07T10:59:03Z</time>
      </trkpt>
      <trkpt lat="49.41295" lon="4.02775">
        <ele>106</ele>
        <time>2019-04-07T10:59:04Z</time>
      </trkpt>
      <trkpt lat="49.4129" lon="4.02772">
        <ele>106</ele>
        <time>2019-04-07T10:59:05Z</time>
      </trkpt>
      <trkpt lat="49.41286" lon="4.0277">
        <ele>106</ele>
        <time>2019-04-07T10:59:06Z</time>
      </trkpt>
      <trkpt lat="49.41281" lon="4.02767">
        <ele>106</ele>
        <time>2019-04-07T10:59:07Z</time>
      </trkpt>
      <trkpt lat="49.41277" lon="4.02763">
        <ele>106</ele>
        <time>2019-04-07T10:59:08Z</time>
      </trkpt>
      <trkpt lat="49.41273" lon="4.0276">
        <ele>106</ele>
        <time>2019-04-07T10:59:09Z</time>
      </trkpt>
      <trkpt lat="49.41269" lon="4.02756">
        <ele>106</ele>
        <time>2019-04-07T10:59:10Z</time>
      </trkpt>
      <trkpt lat="49.41266" lon="4.02751">
        <ele>105</ele>
        <time>2019-04-07T10:59:11Z</time>
      </trkpt>
      <trkpt lat="49.41262" lon="4.02746">
        <ele>106</ele>
        <time>2019-04-07T10:59:12Z</time>
      </trkpt>
      <trkpt lat="49.41259" lon="4.02741">
        <ele>106</ele>
        <time>2019-04-07T10:59:13Z</time>
      </trkpt>
      <trkpt lat="49.41255" lon="4.02736">
        <ele>105</ele>
        <time>2019-04-07T10:59:14Z</time>
      </trkpt>
      <trkpt lat="49.41252" lon="4.02731">
        <ele>105</ele>
        <time>2019-04-07T10:59:15Z</time>
      </trkpt>
      <trkpt lat="49.41249" lon="4.02725">
        <ele>105</ele>
        <time>2019-04-07T10:59:16Z</time>
      </trkpt>
      <trkpt lat="49.41246" lon="4.0272">
        <ele>105</ele>
        <time>2019-04-07T10:59:17Z</time>
      </trkpt>
      <trkpt lat="49.41243" lon="4.02715">
        <ele>105</ele>
        <time>2019-04-07T10:59:18Z</time>
      </trkpt>
      <trkpt lat="49.4124" lon="4.0271">
        <ele>105</ele>
        <time>2019-04-07T10:59:19Z</time>
      </trkpt>
      <trkpt lat="49.41237" lon="4.02704">
        <ele>105</ele>
        <time>2019-04-07T10:59:20Z</time>
      </trkpt>
      <trkpt lat="49.41234" lon="4.02698">
        <ele>105</ele>
        <time>2019-04-07T10:59:21Z</time>
      </trkpt>
      <trkpt lat="49.41231" lon="4.02693">
        <ele>105</ele>
        <time>2019-04-07T10:59:22Z</time>
      </trkpt>
      <trkpt lat="49.41228" lon="4.02688">
        <ele>105</ele>
        <time>2019-04-07T10:59:23Z</time>
      </trkpt>
      <trkpt lat="49.41225" lon="4.02683">
        <ele>106</ele>
        <time>2019-04-07T10:59:24Z</time>
      </trkpt>
      <trkpt lat="49.41222" lon="4.02678">
        <ele>106</ele>
        <time>2019-04-07T10:59:25Z</time>
      </trkpt>
      <trkpt lat="49.41218" lon="4.02673">
        <ele>107</ele>
        <time>2019-04-07T10:59:26Z</time>
      </trkpt>
      <trkpt lat="49.41215" lon="4.02667">
        <ele>107</ele>
        <time>2019-04-07T10:59:27Z</time>
      </trkpt>
      <trkpt lat="49.41212" lon="4.02662">
        <ele>107</ele>
        <time>2019-04-07T10:59:28Z</time>
      </trkpt>
      <trkpt lat="49.41209" lon="4.02657">
        <ele>106</ele>
        <time>2019-04-07T10:59:29Z</time>
      </trkpt>
      <trkpt lat="49.41206" lon="4.02652">
        <ele>107</ele>
        <time>2019-04-07T10:59:30Z</time>
      </trkpt>
      <trkpt lat="49.41203" lon="4.02648">
        <ele>107</ele>
        <time>2019-04-07T10:59:31Z</time>
      </trkpt>
      <trkpt lat="49.41199" lon="4.02643">
        <ele>107</ele>
        <time>2019-04-07T10:59:32Z</time>
      </trkpt>
      <trkpt lat="49.41197" lon="4.02638">
        <ele>107</ele>
        <time>2019-04-07T10:59:33Z</time>
      </trkpt>
      <trkpt lat="49.41194" lon="4.02633">
        <ele>107</ele>
        <time>2019-04-07T10:59:34Z</time>
      </trkpt>
      <trkpt lat="49.4119" lon="4.02628">
        <ele>108</ele>
        <time>2019-04-07T10:59:35Z</time>
      </trkpt>
      <trkpt lat="49.41188" lon="4.02624">
        <ele>108</ele>
        <time>2019-04-07T10:59:36Z</time>
      </trkpt>
      <trkpt lat="49.41184" lon="4.0262">
        <ele>108</ele>
        <time>2019-04-07T10:59:37Z</time>
      </trkpt>
      <trkpt lat="49.41181" lon="4.02616">
        <ele>108</ele>
        <time>2019-04-07T10:59:38Z</time>
      </trkpt>
      <trkpt lat="49.41178" lon="4.02611">
        <ele>108</ele>
        <time>2019-04-07T10:59:39Z</time>
      </trkpt>
      <trkpt lat="49.41175" lon="4.02606">
        <ele>108</ele>
        <time>2019-04-07T10:59:40Z</time>
      </trkpt>
      <trkpt lat="49.41171" lon="4.02602">
        <ele>108</ele>
        <time>2019-04-07T10:59:41Z</time>
      </trkpt>
      <trkpt lat="49.41168" lon="4.02598">
        <ele>108</ele>
        <time>2019-04-07T10:59:42Z</time>
      </trkpt>
      <trkpt lat="49.41165" lon="4.02594">
        <ele>108</ele>
        <time>2019-04-07T10:59:43Z</time>
      </trkpt>
      <trkpt lat="49.41161" lon="4.0259">
        <ele>109</ele>
        <time>2019-04-07T10:59:44Z</time>
      </trkpt>
      <trkpt lat="49.41158" lon="4.02586">
        <ele>109</ele>
        <time>2019-04-07T10:59:45Z</time>
      </trkpt>
      <trkpt lat="49.41154" lon="4.02582">
        <ele>109</ele>
        <time>2019-04-07T10:59:46Z</time>
      </trkpt>
      <trkpt lat="49.4115" lon="4.02579">
        <ele>109</ele>
        <time>2019-04-07T10:59:47Z</time>
      </trkpt>
      <trkpt lat="49.41147" lon="4.02576">
        <ele>109</ele>
        <time>2019-04-07T10:59:48Z</time>
      </trkpt>
      <trkpt lat="49.41143" lon="4.02573">
        <ele>109</ele>
        <time>2019-04-07T10:59:49Z</time>
      </trkpt>
      <trkpt lat="49.41139" lon="4.02569">
        <ele>109</ele>
        <time>2019-04-07T10:59:50Z</time>
      </trkpt>
      <trkpt lat="49.41135" lon="4.02566">
        <ele>109</ele>
        <time>2019-04-07T10:59:51Z</time>
      </trkpt>
      <trkpt lat="49.41132" lon="4.02563">
        <ele>109</ele>
        <time>2019-04-07T10:59:52Z</time>
      </trkpt>
      <trkpt lat="49.41128" lon="4.0256">
        <ele>109</ele>
        <time>2019-04-07T10:59:53Z</time>
      </trkpt>
      <trkpt lat="49.41124" lon="4.02558">
        <ele>110</ele>
        <time>2019-04-07T10:59:54Z</time>
      </trkpt>
      <trkpt lat="49.4112" lon="4.02556">
        <ele>110</ele>
        <time>2019-04-07T10:59:55Z</time>
      </trkpt>
      <trkpt lat="49.41116" lon="4.02553">
        <ele>110</ele>
        <time>2019-04-07T10:59:56Z</time>
      </trkpt>
      <trkpt lat="49.41113" lon="4.0255">
        <ele>110</ele>
        <time>2019-04-07T10:59:57Z</time>
      </trkpt>
      <trkpt lat="49.41108" lon="4.02548">
        <ele>110</ele>
        <time>2019-04-07T10:59:58Z</time>
      </trkpt>
      <trkpt lat="49.41104" lon="4.02545">
        <ele>111</ele>
        <time>2019-04-07T10:59:59Z</time>
      </trkpt>
      <trkpt lat="49.41101" lon="4.02542">
        <ele>111</ele>
        <time>2019-04-07T11:00:00Z</time>
      </trkpt>
      <trkpt lat="49.41097" lon="4.0254">
        <ele>111</ele>
        <time>2019-04-07T11:00:01Z</time>
      </trkpt>
      <trkpt lat="49.41093" lon="4.02537">
        <ele>111</ele>
        <time>2019-04-07T11:00:02Z</time>
      </trkpt>
      <trkpt lat="49.41089" lon="4.02535">
        <ele>112</ele>
        <time>2019-04-07T11:00:03Z</time>
      </trkpt>
      <trkpt lat="49.41085" lon="4.02532">
        <ele>112</ele>
        <time>2019-04-07T11:00:04Z</time>
      </trkpt>
      <trkpt lat="49.41081" lon="4.0253">
        <ele>112</ele>
        <time>2019-04-07T11:00:05Z</time>
      </trkpt>
      <trkpt lat="49.41077" lon="4.02527">
        <ele>112</ele>
        <time>2019-04-07T11:00:06Z</time>
      </trkpt>
      <trkpt lat="49.41073" lon="4.02524">
        <ele>112</ele>
        <time>2019-04-07T11:00:07Z</time>
      </trkpt>
      <trkpt lat="49.41069" lon="4.02522">
        <ele>112</ele>
        <time>2019-04-07T11:00:08Z</time>
      </trkpt>
      <trkpt lat="49.41065" lon="4.0252">
        <ele>113</ele>
        <time>2019-04-07T11:00:09Z</time>
      </trkpt>
      <trkpt lat="49.41061" lon="4.02517">
        <ele>113</ele>
        <time>2019-04-07T11:00:10Z</time>
      </trkpt>
      <trkpt lat="49.41057" lon="4.02514">
        <ele>114</ele>
        <time>2019-04-07T11:00:11Z</time>
      </trkpt>
      <trkpt lat="49.41053" lon="4.02512">
        <ele>114</ele>
        <time>2019-04-07T11:00:12Z</time>
      </trkpt>
      <trkpt lat="49.4105" lon="4.02509">
        <ele>114</ele>
        <time>2019-04-07T11:00:13Z</time>
      </trkpt>
      <trkpt lat="49.41046" lon="4.02506">
        <ele>115</ele>
        <time>2019-04-07T11:00:14Z</time>
      </trkpt>
      <trkpt lat="49.41042" lon="4.02504">
        <ele>115</ele>
        <time>2019-04-07T11:00:15Z</time>
      </trkpt>
      <trkpt lat="49.41038" lon="4.02502">
        <ele>115</ele>
        <time>2019-04-07T11:00:16Z</time>
      </trkpt>
      <trkpt lat="49.41034" lon="4.025">
        <ele>115</ele>
        <time>2019-04-07T11:00:17Z</time>
      </trkpt>
      <trkpt lat="49.4103" lon="4.02497">
        <ele>116</ele>
        <time>2019-04-07T11:00:18Z</time>
      </trkpt>
      <trkpt lat="49.41026" lon="4.02495">
        <ele>116</ele>
        <time>2019-04-07T11:00:19Z</time>
      </trkpt>
      <trkpt lat="49.41023" lon="4.02493">
        <ele>116</ele>
        <time>2019-04-07T11:00:20Z</time>
      </trkpt>
      <trkpt lat="49.41019" lon="4.02491">
        <ele>116</ele>
        <time>2019-04-07T11:00:21Z</time>
      </trkpt>
      <trkpt lat="49.41015" lon="4.02489">
        <ele>116</ele>
        <time>2019-04-07T11:00:22Z</time>
      </trkpt>
      <trkpt lat="49.41012" lon="4.02487">
        <ele>117</ele>
        <time>2019-04-07T11:00:23Z</time>
      </trkpt>
      <trkpt lat="49.41008" lon="4.02485">
        <ele>117</ele>
        <time>2019-04-07T11:00:24Z</time>
      </trkpt>
      <trkpt lat="49.41005" lon="4.02483">
        <ele>117</ele>
        <time>2019-04-07T11:00:25Z</time>
      </trkpt>
      <trkpt lat="49.41001" lon="4.0248">
        <ele>117</ele>
        <time>2019-04-07T11:00:26Z</time>
      </trkpt>
      <trkpt lat="49.40997" lon="4.02478">
        <ele>118</ele>
        <time>2019-04-07T11:00:27Z</time>
      </trkpt>
      <trkpt lat="49.40993" lon="4.02476">
        <ele>118</ele>
        <time>2019-04-07T11:00:28Z</time>
      </trkpt>
      <trkpt lat="49.4099" lon="4.02474">
        <ele>118</ele>
        <time>2019-04-07T11:00:29Z</time>
      </trkpt>
      <trkpt lat="49.40986" lon="4.02473">
        <ele>118</ele>
        <time>2019-04-07T11:00:30Z</time>
      </trkpt>
      <trkpt lat="49.40982" lon="4.02471">
        <ele>119</ele>
        <time>2019-04-07T11:00:31Z</time>
      </trkpt>
      <trkpt lat="49.40979" lon="4.0247">
        <ele>119</ele>
        <time>2019-04-07T11:00:32Z</time>
      </trkpt>
      <trkpt lat="49.40975" lon="4.02467">
        <ele>119</ele>
        <time>2019-04-07T11:00:33Z</time>
      </trkpt>
      <trkpt lat="49.40972" lon="4.02465">
        <ele>119</ele>
        <time>2019-04-07T11:00:34Z</time>
      </trkpt>
      <trkpt lat="49.40968" lon="4.02463">
        <ele>119</ele>
        <time>2019-04-07T11:00:35Z</time>
      </trkpt>
      <trkpt lat="49.40965" lon="4.02461">
        <ele>120</ele>
        <time>2019-04-07T11:00:36Z</time>
      </trkpt>
      <trkpt lat="49.40962" lon="4.02459">
        <ele>120</ele>
        <time>2019-04-07T11:00:37Z</time>
      </trkpt>
      <trkpt lat="49.40958" lon="4.02458">
        <ele>120</ele>
        <time>2019-04-07T11:00:38Z</time>
      </trkpt>
      <trkpt lat="49.40955" lon="4.02456">
        <ele>120</ele>
        <time>2019-04-07T11:00:39Z</time>
      </trkpt>
      <trkpt lat="49.40952" lon="4.02454">
        <ele>121</ele>
        <time>2019-04-07T11:00:40Z</time>
      </trkpt>
      <trkpt lat="49.40949" lon="4.02452">
        <ele>121</ele>
        <time>2019-04-07T11:00:41Z</time>
      </trkpt>
      <trkpt lat="49.40945" lon="4.0245">
        <ele>121</ele>
        <time>2019-04-07T11:00:42Z</time>
      </trkpt>
      <trkpt lat="49.40942" lon="4.02448">
        <ele>121</ele>
        <time>2019-04-07T11:00:43Z</time>
      </trkpt>
      <trkpt lat="49.40939" lon="4.02447">
        <ele>121</ele>
        <time>2019-04-07T11:00:44Z</time>
      </trkpt>
      <trkpt lat="49.40935" lon="4.02445">
        <ele>122</ele>
        <time>2019-04-07T11:00:45Z</time>
      </trkpt>
      <trkpt lat="49.40932" lon="4.02443">
        <ele>122</ele>
        <time>2019-04-07T11:00:46Z</time>
      </trkpt>
      <trkpt lat="49.40929" lon="4.02441">
        <ele>122</ele>
        <time>2019-04-07T11:00:47Z</time>
      </trkpt>
      <trkpt lat="49.40926" lon="4.02439">
        <ele>122</ele>
        <time>2019-04-07T11:00:48Z</time>
      </trkpt>
      <trkpt lat="49.40922" lon="4.02437">
        <ele>122</ele>
        <time>2019-04-07T11:00:49Z</time>
      </trkpt>
      <trkpt lat="49.40919" lon="4.02435">
        <ele>122</ele>
        <time>2019-04-07T11:00:50Z</time>
      </trkpt>
      <trkpt lat="49.40915" lon="4.02434">
        <ele>122</ele>
        <time>2019-04-07T11:00:51Z</time>
      </trkpt>
      <trkpt lat="49.40912" lon="4.02432">
        <ele>123</ele>
        <time>2019-04-07T11:00:52Z</time>
      </trkpt>
      <trkpt lat="49.40908" lon="4.0243">
        <ele>123</ele>
        <time>2019-04-07T11:00:53Z</time>
      </trkpt>
      <trkpt lat="49.40904" lon="4.02429">
        <ele>123</ele>
        <time>2019-04-07T11:00:54Z</time>
      </trkpt>
      <trkpt lat="49.40901" lon="4.02427">
        <ele>123</ele>
        <time>2019-04-07T11:00:55Z</time>
      </trkpt>
      <trkpt lat="49.40897" lon="4.02425">
        <ele>123</ele>
        <time>2019-04-07T11:00:56Z</time>
      </trkpt>
      <trkpt lat="49.40894" lon="4.02423">
        <ele>124</ele>
        <time>2019-04-07T11:00:57Z</time>
      </trkpt>
      <trkpt lat="49.4089" lon="4.02422">
        <ele>124</ele>
        <time>2019-04-07T11:00:58Z</time>
      </trkpt>
      <trkpt lat="49.40886" lon="4.0242">
        <ele>124</ele>
        <time>2019-04-07T11:00:59Z</time>
      </trkpt>
      <trkpt lat="49.40882" lon="4.02418">
        <ele>124</ele>
        <time>2019-04-07T11:01:00Z</time>
      </trkpt>
      <trkpt lat="49.40879" lon="4.02416">
        <ele>124</ele>
        <time>2019-04-07T11:01:01Z</time>
      </trkpt>
      <trkpt lat="49.40875" lon="4.02415">
        <ele>124</ele>
        <time>2019-04-07T11:01:02Z</time>
      </trkpt>
      <trkpt lat="49.40871" lon="4.02413">
        <ele>124</ele>
        <time>2019-04-07T11:01:03Z</time>
      </trkpt>
      <trkpt lat="49.40868" lon="4.02411">
        <ele>124</ele>
        <time>2019-04-07T11:01:04Z</time>
      </trkpt>
      <trkpt lat="49.40864" lon="4.02408">
        <ele>124</ele>
        <time>2019-04-07T11:01:05Z</time>
      </trkpt>
      <trkpt lat="49.40861" lon="4.02406">
        <ele>124</ele>
        <time>2019-04-07T11:01:06Z</time>
      </trkpt>
      <trkpt lat="49.40857" lon="4.02404">
        <ele>124</ele>
        <time>2019-04-07T11:01:07Z</time>
      </trkpt>
      <trkpt lat="49.40853" lon="4.02402">
        <ele>124</ele>
        <time>2019-04-07T11:01:08Z</time>
      </trkpt>
      <trkpt lat="49.4085" lon="4.02399">
        <ele>124</ele>
        <time>2019-04-07T11:01:09Z</time>
      </trkpt>
      <trkpt lat="49.40846" lon="4.02396">
        <ele>124</ele>
        <time>2019-04-07T11:01:10Z</time>
      </trkpt>
      <trkpt lat="49.40842" lon="4.02394">
        <ele>124</ele>
        <time>2019-04-07T11:01:11Z</time>
      </trkpt>
      <trkpt lat="49.40838" lon="4.02391">
        <ele>124</ele>
        <time>2019-04-07T11:01:12Z</time>
      </trkpt>
      <trkpt lat="49.40834" lon="4.02388">
        <ele>124</ele>
        <time>2019-04-07T11:01:13Z</time>
      </trkpt>
      <trkpt lat="49.4083" lon="4.02385">
        <ele>124</ele>
        <time>2019-04-07T11:01:14Z</time>
      </trkpt>
      <trkpt lat="49.40826" lon="4.02382">
        <ele>125</ele>
        <time>2019-04-07T11:01:15Z</time>
      </trkpt>
      <trkpt lat="49.40822" lon="4.02378">
        <ele>125</ele>
        <time>2019-04-07T11:01:16Z</time>
      </trkpt>
      <trkpt lat="49.40818" lon="4.02375">
        <ele>125</ele>
        <time>2019-04-07T11:01:17Z</time>
      </trkpt>
      <trkpt lat="49.40814" lon="4.02371">
        <ele>125</ele>
        <time>2019-04-07T11:01:18Z</time>
      </trkpt>
      <trkpt lat="49.4081" lon="4.02368">
        <ele>125</ele>
        <time>2019-04-07T11:01:19Z</time>
      </trkpt>
      <trkpt lat="49.40806" lon="4.02365">
        <ele>125</ele>
        <time>2019-04-07T11:01:20Z</time>
      </trkpt>
      <trkpt lat="49.40802" lon="4.02361">
        <ele>125</ele>
        <time>2019-04-07T11:01:21Z</time>
      </trkpt>
      <trkpt lat="49.40798" lon="4.02356">
        <ele>125</ele>
        <time>2019-04-07T11:01:22Z</time>
      </trkpt>
      <trkpt lat="49.40795" lon="4.02352">
        <ele>126</ele>
        <time>2019-04-07T11:01:23Z</time>
      </trkpt>
      <trkpt lat="49.40791" lon="4.02348">
        <ele>126</ele>
        <time>2019-04-07T11:01:24Z</time>
      </trkpt>
      <trkpt lat="49.40786" lon="4.02343">
        <ele>126</ele>
        <time>2019-04-07T11:01:25Z</time>
      </trkpt>
      <trkpt lat="49.40783" lon="4.02338">
        <ele>126</ele>
        <time>2019-04-07T11:01:26Z</time>
      </trkpt>
      <trkpt lat="49.40779" lon="4.02333">
        <ele>125</ele>
        <time>2019-04-07T11:01:27Z</time>
      </trkpt>
      <trkpt lat="49.40775" lon="4.0233">
        <ele>126</ele>
        <time>2019-04-07T11:01:28Z</time>
      </trkpt>
      <trkpt lat="49.40771" lon="4.02326">
        <ele>126</ele>
        <time>2019-04-07T11:01:29Z</time>
      </trkpt>
      <trkpt lat="49.40767" lon="4.02321">
        <ele>126</ele>
        <time>2019-04-07T11:01:30Z</time>
      </trkpt>
      <trkpt lat="49.40764" lon="4.02317">
        <ele>126</ele>
        <time>2019-04-07T11:01:31Z</time>
      </trkpt>
      <trkpt lat="49.4076" lon="4.02312">
        <ele>126</ele>
        <time>2019-04-07T11:01:32Z</time>
      </trkpt>
      <trkpt lat="49.40756" lon="4.02307">
        <ele>126</ele>
        <time>2019-04-07T11:01:33Z</time>
      </trkpt>
      <trkpt lat="49.40752" lon="4.02302">
        <ele>126</ele>
        <time>2019-04-07T11:01:34Z</time>
      </trkpt>
      <trkpt lat="49.40748" lon="4.02296">
        <ele>126</ele>
        <time>2019-04-07T11:01:35Z</time>
      </trkpt>
      <trkpt lat="49.40744" lon="4.02291">
        <ele>126</ele>
        <time>2019-04-07T11:01:36Z</time>
      </trkpt>
      <trkpt lat="49.40739" lon="4.02285">
        <ele>126</ele>
        <time>2019-04-07T11:01:37Z</time>
      </trkpt>
      <trkpt lat="49.40735" lon="4.0228">
        <ele>126</ele>
        <time>2019-04-07T11:01:38Z</time>
      </trkpt>
      <trkpt lat="49.4073" lon="4.02274">
        <ele>125</ele>
        <time>2019-04-07T11:01:39Z</time>
      </trkpt>
      <trkpt lat="49.40725" lon="4.02269">
        <ele>125</ele>
        <time>2019-04-07T11:01:40Z</time>
      </trkpt>
      <trkpt lat="49.40721" lon="4.02263">
        <ele>125</ele>
        <time>2019-04-07T11:01:41Z</time>
      </trkpt>
      <trkpt lat="49.40716" lon="4.02257">
        <ele>125</ele>
        <time>2019-04-07T11:01:42Z</time>
      </trkpt>
      <trkpt lat="49.40711" lon="4.02251">
        <ele>125</ele>
        <time>2019-04-07T11:01:43Z</time>
      </trkpt>
      <trkpt lat="49.40706" lon="4.02245">
        <ele>125</ele>
        <time>2019-04-07T11:01:44Z</time>
      </trkpt>
      <trkpt lat="49.40701" lon="4.02239">
        <ele>125</ele>
        <time>2019-04-07T11:01:45Z</time>
      </trkpt>
      <trkpt lat="49.40696" lon="4.02233">
        <ele>125</ele>
        <time>2019-04-07T11:01:46Z</time>
      </trkpt>
      <trkpt lat="49.40691" lon="4.02227">
        <ele>125</ele>
        <time>2019-04-07T11:01:47Z</time>
      </trkpt>
      <trkpt lat="49.40687" lon="4.0222">
        <ele>125</ele>
        <time>2019-04-07T11:01:48Z</time>
      </trkpt>
      <trkpt lat="49.40682" lon="4.02214">
        <ele>125</ele>
        <time>2019-04-07T11:01:49Z</time>
      </trkpt>
      <trkpt lat="49.40677" lon="4.02208">
        <ele>125</ele>
        <time>2019-04-07T11:01:50Z</time>
      </trkpt>
      <trkpt lat="49.40672" lon="4.02202">
        <ele>125</ele>
        <time>2019-04-07T11:01:51Z</time>
      </trkpt>
      <trkpt lat="49.40667" lon="4.02195">
        <ele>124</ele>
        <time>2019-04-07T11:01:52Z</time>
      </trkpt>
      <trkpt lat="49.40661" lon="4.02188">
        <ele>124</ele>
        <time>2019-04-07T11:01:53Z</time>
      </trkpt>
      <trkpt lat="49.40656" lon="4.02181">
        <ele>124</ele>
        <time>2019-04-07T11:01:54Z</time>
      </trkpt>
      <trkpt lat="49.4065" lon="4.02174">
        <ele>124</ele>
        <time>2019-04-07T11:01:55Z</time>
      </trkpt>
      <trkpt lat="49.40645" lon="4.02167">
        <ele>124</ele>
        <time>2019-04-07T11:01:56Z</time>
      </trkpt>
      <trkpt lat="49.40639" lon="4.0216">
        <ele>124</ele>
        <time>2019-04-07T11:01:57Z</time>
      </trkpt>
      <trkpt lat="49.40633" lon="4.02153">
        <ele>124</ele>
        <time>2019-04-07T11:01:58Z</time>
      </trkpt>
      <trkpt lat="49.4062" lon="4.02139">
        <ele>123</ele>
        <time>2019-04-07T11:02:00Z</time>
      </trkpt>
      <trkpt lat="49.40614" lon="4.02132">
        <ele>123</ele>
        <time>2019-04-07T11:02:01Z</time>
      </trkpt>
      <trkpt lat="49.40608" lon="4.02124">
        <ele>123</ele>
        <time>2019-04-07T11:02:02Z</time>
      </trkpt>
      <trkpt lat="49.40602" lon="4.02116">
        <ele>123</ele>
        <time>2019-04-07T11:02:03Z</time>
      </trkpt>
      <trkpt lat="49.40596" lon="4.02108">
        <ele>123</ele>
        <time>2019-04-07T11:02:04Z</time>
      </trkpt>
      <trkpt lat="49.4059" lon="4.02101">
        <ele>123</ele>
        <time>2019-04-07T11:02:05Z</time>
      </trkpt>
      <trkpt lat="49.40584" lon="4.02093">
        <ele>123</ele>
        <time>2019-04-07T11:02:06Z</time>
      </trkpt>
      <trkpt lat="49.40578" lon="4.02085">
        <ele>123</ele>
        <time>2019-04-07T11:02:07Z</time>
      </trkpt>
      <trkpt lat="49.40571" lon="4.02078">
        <ele>123</ele>
        <time>2019-04-07T11:02:08Z</time>
      </trkpt>
      <trkpt lat="49.40565" lon="4.02071">
        <ele>123</ele>
        <time>2019-04-07T11:02:09Z</time>
      </trkpt>
      <trkpt lat="49.40558" lon="4.02063">
        <ele>123</ele>
        <time>2019-04-07T11:02:10Z</time>
      </trkpt>
      <trkpt lat="49.40552" lon="4.02056">
        <ele>123</ele>
        <time>2019-04-07T11:02:11Z</time>
      </trkpt>
      <trkpt lat="49.40545" lon="4.02048">
        <ele>123</ele>
        <time>2019-04-07T11:02:12Z</time>
      </trkpt>
      <trkpt lat="49.40538" lon="4.02041">
        <ele>123</ele>
        <time>2019-04-07T11:02:13Z</time>
      </trkpt>
      <trkpt lat="49.40531" lon="4.02034">
        <ele>123</ele>
        <time>2019-04-07T11:02:14Z</time>
      </trkpt>
      <trkpt lat="49.40524" lon="4.02027">
        <ele>123</ele>
        <time>2019-04-07T11:02:15Z</time>
      </trkpt>
      <trkpt lat="49.40517" lon="4.02021">
        <ele>122</ele>
        <time>2019-04-07T11:02:16Z</time>
      </trkpt>
      <trkpt lat="49.4051" lon="4.02014">
        <ele>122</ele>
        <time>2019-04-07T11:02:17Z</time>
      </trkpt>
      <trkpt lat="49.40503" lon="4.02008">
        <ele>122</ele>
        <time>2019-04-07T11:02:18Z</time>
      </trkpt>
      <trkpt lat="49.40496" lon="4.02002">
        <ele>122</ele>
        <time>2019-04-07T11:02:19Z</time>
      </trkpt>
      <trkpt lat="49.40489" lon="4.01996">
        <ele>121</ele>
        <time>2019-04-07T11:02:20Z</time>
      </trkpt>
      <trkpt lat="49.40481" lon="4.01991">
        <ele>121</ele>
        <time>2019-04-07T11:02:21Z</time>
      </trkpt>
      <trkpt lat="49.40474" lon="4.01985">
        <ele>121</ele>
        <time>2019-04-07T11:02:22Z</time>
      </trkpt>
      <trkpt lat="49.40467" lon="4.0198">
        <ele>121</ele>
        <time>2019-04-07T11:02:23Z</time>
      </trkpt>
      <trkpt lat="49.40459" lon="4.01974">
        <ele>120</ele>
        <time>2019-04-07T11:02:24Z</time>
      </trkpt>
      <trkpt lat="49.40453" lon="4.01968">
        <ele>120</ele>
        <time>2019-04-07T11:02:25Z</time>
      </trkpt>
      <trkpt lat="49.40446" lon="4.01963">
        <ele>120</ele>
        <time>2019-04-07T11:02:26Z</time>
      </trkpt>
      <trkpt lat="49.40439" lon="4.01957">
        <ele>120</ele>
        <time>2019-04-07T11:02:27Z</time>
      </trkpt>
      <trkpt lat="49.40431" lon="4.01952">
        <ele>120</ele>
        <time>2019-04-07T11:02:28Z</time>
      </trkpt>
      <trkpt lat="49.40424" lon="4.01946">
        <ele>120</ele>
        <time>2019-04-07T11:02:29Z</time>
      </trkpt>
      <trkpt lat="49.40417" lon="4.01941">
        <ele>120</ele>
        <time>2019-04-07T11:02:30Z</time>
      </trkpt>
      <trkpt lat="49.4041" lon="4.01936">
        <ele>120</ele>
        <time>2019-04-07T11:02:31Z</time>
      </trkpt>
      <trkpt lat="49.40403" lon="4.01931">
        <ele>120</ele>
        <time>2019-04-07T11:02:32Z</time>
      </trkpt>
      <trkpt lat="49.40396" lon="4.01926">
        <ele>120</ele>
        <time>2019-04-07T11:02:33Z</time>
      </trkpt>
      <trkpt lat="49.4039" lon="4.01921">
        <ele>120</ele>
        <time>2019-04-07T11:02:34Z</time>
      </trkpt>
      <trkpt lat="49.40383" lon="4.01916">
        <ele>120</ele>
        <time>2019-04-07T11:02:35Z</time>
      </trkpt>
      <trkpt lat="49.40376" lon="4.01911">
        <ele>120</ele>
        <time>2019-04-07T11:02:36Z</time>
      </trkpt>
      <trkpt lat="49.40369" lon="4.01905">
        <ele>120</ele>
        <time>2019-04-07T11:02:37Z</time>
      </trkpt>
      <trkpt lat="49.40363" lon="4.019">
        <ele>120</ele>
        <time>2019-04-07T11:02:38Z</time>
      </trkpt>
      <trkpt lat="49.40358" lon="4.01894">
        <ele>120</ele>
        <time>2019-04-07T11:02:39Z</time>
      </trkpt>
      <trkpt lat="49.40352" lon="4.01889">
        <ele>120</ele>
        <time>2019-04-07T11:02:40Z</time>
      </trkpt>
      <trkpt lat="49.40345" lon="4.01885">
        <ele>121</ele>
        <time>2019-04-07T11:02:41Z</time>
      </trkpt>
      <trkpt lat="49.40338" lon="4.01879">
        <ele>120</ele>
        <time>2019-04-07T11:02:42Z</time>
      </trkpt>
      <trkpt lat="49.40333" lon="4.01874">
        <ele>119</ele>
        <time>2019-04-07T11:02:43Z</time>
      </trkpt>
      <trkpt lat="49.40326" lon="4.0187">
        <ele>118</ele>
        <time>2019-04-07T11:02:44Z</time>
      </trkpt>
      <trkpt lat="49.4032" lon="4.01866">
        <ele>118</ele>
        <time>2019-04-07T11:02:45Z</time>
      </trkpt>
      <trkpt lat="49.40314" lon="4.01861">
        <ele>118</ele>
        <time>2019-04-07T11:02:46Z</time>
      </trkpt>
      <trkpt lat="49.40308" lon="4.01856">
        <ele>118</ele>
        <time>2019-04-07T11:02:47Z</time>
      </trkpt>
      <trkpt lat="49.40301" lon="4.01851">
        <ele>117</ele>
        <time>2019-04-07T11:02:48Z</time>
      </trkpt>
      <trkpt lat="49.40295" lon="4.01846">
        <ele>118</ele>
        <time>2019-04-07T11:02:49Z</time>
      </trkpt>
      <trkpt lat="49.40289" lon="4.01841">
        <ele>117</ele>
        <time>2019-04-07T11:02:50Z</time>
      </trkpt>
      <trkpt lat="49.40282" lon="4.01836">
        <ele>117</ele>
        <time>2019-04-07T11:02:51Z</time>
      </trkpt>
      <trkpt lat="49.40276" lon="4.01831">
        <ele>117</ele>
        <time>2019-04-07T11:02:52Z</time>
      </trkpt>
      <trkpt lat="49.4027" lon="4.01826">
        <ele>117</ele>
        <time>2019-04-07T11:02:53Z</time>
      </trkpt>
      <trkpt lat="49.40264" lon="4.01821">
        <ele>117</ele>
        <time>2019-04-07T11:02:54Z</time>
      </trkpt>
      <trkpt lat="49.40257" lon="4.01816">
        <ele>117</ele>
        <time>2019-04-07T11:02:55Z</time>
      </trkpt>
      <trkpt lat="49.40251" lon="4.01811">
        <ele>117</ele>
        <time>2019-04-07T11:02:56Z</time>
      </trkpt>
      <trkpt lat="49.40244" lon="4.01806">
        <ele>117</ele>
        <time>2019-04-07T11:02:57Z</time>
      </trkpt>
      <trkpt lat="49.40238" lon="4.018">
        <ele>117</ele>
        <time>2019-04-07T11:02:58Z</time>
      </trkpt>
      <trkpt lat="49.40232" lon="4.01795">
        <ele>116</ele>
        <time>2019-04-07T11:02:59Z</time>
      </trkpt>
      <trkpt lat="49.40225" lon="4.0179">
        <ele>116</ele>
        <time>2019-04-07T11:03:00Z</time>
      </trkpt>
      <trkpt lat="49.40219" lon="4.01784">
        <ele>116</ele>
        <time>2019-04-07T11:03:01Z</time>
      </trkpt>
      <trkpt lat="49.40213" lon="4.01777">
        <ele>116</ele>
        <time>2019-04-07T11:03:02Z</time>
      </trkpt>
      <trkpt lat="49.40206" lon="4.01771">
        <ele>116</ele>
        <time>2019-04-07T11:03:03Z</time>
      </trkpt>
      <trkpt lat="49.402" lon="4.01764">
        <ele>115</ele>
        <time>2019-04-07T11:03:04Z</time>
      </trkpt>
      <trkpt lat="49.40194" lon="4.01758">
        <ele>115</ele>
        <time>2019-04-07T11:03:05Z</time>
      </trkpt>
      <trkpt lat="49.40187" lon="4.01751">
        <ele>115</ele>
        <time>2019-04-07T11:03:06Z</time>
      </trkpt>
      <trkpt lat="49.40181" lon="4.01745">
        <ele>115</ele>
        <time>2019-04-07T11:03:07Z</time>
      </trkpt>
      <trkpt lat="49.40175" lon="4.01739">
        <ele>115</ele>
        <time>2019-04-07T11:03:08Z</time>
      </trkpt>
      <trkpt lat="49.40169" lon="4.01732">
        <ele>115</ele>
        <time>2019-04-07T11:03:09Z</time>
      </trkpt>
      <trkpt lat="49.40163" lon="4.01726">
        <ele>115</ele>
        <time>2019-04-07T11:03:10Z</time>
      </trkpt>
      <trkpt lat="49.40157" lon="4.01719">
        <ele>115</ele>
        <time>2019-04-07T11:03:11Z</time>
      </trkpt>
      <trkpt lat="49.40151" lon="4.01713">
        <ele>115</ele>
        <time>2019-04-07T11:03:12Z</time>
      </trkpt>
      <trkpt lat="49.40144" lon="4.01706">
        <ele>114</ele>
        <time>2019-04-07T11:03:13Z</time>
      </trkpt>
      <trkpt lat="49.40138" lon="4.01699">
        <ele>114</ele>
        <time>2019-04-07T11:03:14Z</time>
      </trkpt>
      <trkpt lat="49.40132" lon="4.01693">
        <ele>114</ele>
        <time>2019-04-07T11:03:15Z</time>
      </trkpt>
      <trkpt lat="49.40125" lon="4.01686">
        <ele>114</ele>
        <time>2019-04-07T11:03:16Z</time>
      </trkpt>
      <trkpt lat="49.40119" lon="4.01678">
        <ele>114</ele>
        <time>2019-04-07T11:03:17Z</time>
      </trkpt>
      <trkpt lat="49.40113" lon="4.01671">
        <ele>114</ele>
        <time>2019-04-07T11:03:18Z</time>
      </trkpt>
      <trkpt lat="49.40107" lon="4.01665">
        <ele>114</ele>
        <time>2019-04-07T11:03:19Z</time>
      </trkpt>
      <trkpt lat="49.40101" lon="4.01658">
        <ele>114</ele>
        <time>2019-04-07T11:03:20Z</time>
      </trkpt>
      <trkpt lat="49.40095" lon="4.01651">
        <ele>113</ele>
        <time>2019-04-07T11:03:21Z</time>
      </trkpt>
      <trkpt lat="49.40089" lon="4.01645">
        <ele>113</ele>
        <time>2019-04-07T11:03:22Z</time>
      </trkpt>
      <trkpt lat="49.40076" lon="4.01631">
        <ele>113</ele>
        <time>2019-04-07T11:03:24Z</time>
      </trkpt>
      <trkpt lat="49.40071" lon="4.01624">
        <ele>113</ele>
        <time>2019-04-07T11:03:25Z</time>
      </trkpt>
      <trkpt lat="49.40064" lon="4.01618">
        <ele>113</ele>
        <time>2019-04-07T11:03:26Z</time>
      </trkpt>
      <trkpt lat="49.40058" lon="4.01611">
        <ele>113</ele>
        <time>2019-04-07T11:03:27Z</time>
      </trkpt>
      <trkpt lat="49.40053" lon="4.01605">
        <ele>113</ele>
        <time>2019-04-07T11:03:28Z</time>
      </trkpt>
      <trkpt lat="49.40047" lon="4.01598">
        <ele>112</ele>
        <time>2019-04-07T11:03:29Z</time>
      </trkpt>
      <trkpt lat="49.40041" lon="4.01591">
        <ele>112</ele>
        <time>2019-04-07T11:03:30Z</time>
      </trkpt>
      <trkpt lat="49.40035" lon="4.01585">
        <ele>112</ele>
        <time>2019-04-07T11:03:31Z</time>
      </trkpt>
      <trkpt lat="49.40029" lon="4.01578">
        <ele>112</ele>
        <time>2019-04-07T11:03:32Z</time>
      </trkpt>
      <trkpt lat="49.40023" lon="4.01571">
        <ele>112</ele>
        <time>2019-04-07T11:03:33Z</time>
      </trkpt>
      <trkpt lat="49.40017" lon="4.01564">
        <ele>112</ele>
        <time>2019-04-07T11:03:34Z</time>
      </trkpt>
      <trkpt lat="49.40011" lon="4.01557">
        <ele>111</ele>
        <time>2019-04-07T11:03:35Z</time>
      </trkpt>
      <trkpt lat="49.40006" lon="4.0155">
        <ele>112</ele>
        <time>2019-04-07T11:03:36Z</time>
      </trkpt>
      <trkpt lat="49.4" lon="4.01543">
        <ele>112</ele>
        <time>2019-04-07T11:03:37Z</time>
      </trkpt>
      <trkpt lat="49.39994" lon="4.01536">
        <ele>112</ele>
        <time>2019-04-07T11:03:38Z</time>
      </trkpt>
      <trkpt lat="49.39988" lon="4.01528">
        <ele>112</ele>
        <time>2019-04-07T11:03:39Z</time>
      </trkpt>
      <trkpt lat="49.39982" lon="4.01521">
        <ele>111</ele>
        <time>2019-04-07T11:03:40Z</time>
      </trkpt>
      <trkpt lat="49.39976" lon="4.01514">
        <ele>111</ele>
        <time>2019-04-07T11:03:41Z</time>
      </trkpt>
      <trkpt lat="49.39971" lon="4.01506">
        <ele>111</ele>
        <time>2019-04-07T11:03:42Z</time>
      </trkpt>
      <trkpt lat="49.39965" lon="4.01499">
        <ele>111</ele>
        <time>2019-04-07T11:03:43Z</time>
      </trkpt>
      <trkpt lat="49.39959" lon="4.01491">
        <ele>111</ele>
        <time>2019-04-07T11:03:44Z</time>
      </trkpt>
      <trkpt lat="49.39953" lon="4.01483">
        <ele>111</ele>
        <time>2019-04-07T11:03:45Z</time>
      </trkpt>
      <trkpt lat="49.39947" lon="4.01476">
        <ele>111</ele>
        <time>2019-04-07T11:03:46Z</time>
      </trkpt>
      <trkpt lat="49.39941" lon="4.01469">
        <ele>111</ele>
        <time>2019-04-07T11:03:47Z</time>
      </trkpt>
      <trkpt lat="49.39936" lon="4.01461">
        <ele>110</ele>
        <time>2019-04-07T11:03:48Z</time>
      </trkpt>
      <trkpt lat="49.3993" lon="4.01454">
        <ele>110</ele>
        <time>2019-04-07T11:03:49Z</time>
      </trkpt>
      <trkpt lat="49.39925" lon="4.01447">
        <ele>110</ele>
        <time>2019-04-07T11:03:50Z</time>
      </trkpt>
      <trkpt lat="49.39919" lon="4.0144">
        <ele>110</ele>
        <time>2019-04-07T11:03:51Z</time>
      </trkpt>
      <trkpt lat="49.39914" lon="4.01433">
        <ele>110</ele>
        <time>2019-04-07T11:03:52Z</time>
      </trkpt>
      <trkpt lat="49.39909" lon="4.01426">
        <ele>110</ele>
        <time>2019-04-07T11:03:53Z</time>
      </trkpt>
      <trkpt lat="49.39904" lon="4.01419">
        <ele>110</ele>
        <time>2019-04-07T11:03:54Z</time>
      </trkpt>
      <trkpt lat="49.39899" lon="4.01412">
        <ele>110</ele>
        <time>2019-04-07T11:03:55Z</time>
      </trkpt>
      <trkpt lat="49.39894" lon="4.01405">
        <ele>110</ele>
        <time>2019-04-07T11:03:56Z</time>
      </trkpt>
      <trkpt lat="49.39889" lon="4.01399">
        <ele>110</ele>
        <time>2019-04-07T11:03:57Z</time>
      </trkpt>
      <trkpt lat="49.39884" lon="4.01393">
        <ele>110</ele>
        <time>2019-04-07T11:03:58Z</time>
      </trkpt>
      <trkpt lat="49.3988" lon="4.01386">
        <ele>110</ele>
        <time>2019-04-07T11:03:59Z</time>
      </trkpt>
      <trkpt lat="49.39875" lon="4.0138">
        <ele>110</ele>
        <time>2019-04-07T11:04:00Z</time>
      </trkpt>
      <trkpt lat="49.3987" lon="4.01374">
        <ele>110</ele>
        <time>2019-04-07T11:04:01Z</time>
      </trkpt>
      <trkpt lat="49.39865" lon="4.01367">
        <ele>110</ele>
        <time>2019-04-07T11:04:02Z</time>
      </trkpt>
      <trkpt lat="49.39859" lon="4.01361">
        <ele>110</ele>
        <time>2019-04-07T11:04:03Z</time>
      </trkpt>
      <trkpt lat="49.39854" lon="4.01354">
        <ele>110</ele>
        <time>2019-04-07T11:04:04Z</time>
      </trkpt>
      <trkpt lat="49.39849" lon="4.01347">
        <ele>110</ele>
        <time>2019-04-07T11:04:05Z</time>
      </trkpt>
      <trkpt lat="49.39844" lon="4.0134">
        <ele>110</ele>
        <time>2019-04-07T11:04:06Z</time>
      </trkpt>
      <trkpt lat="49.39838" lon="4.01334">
        <ele>110</ele>
        <time>2019-04-07T11:04:07Z</time>
      </trkpt>
      <trkpt lat="49.39833" lon="4.01327">
        <ele>110</ele>
        <time>2019-04-07T11:04:08Z</time>
      </trkpt>
      <trkpt lat="49.39827" lon="4.0132">
        <ele>110</ele>
        <time>2019-04-07T11:04:09Z</time>
      </trkpt>
      <trkpt lat="49.39821" lon="4.01313">
        <ele>109</ele>
        <time>2019-04-07T11:04:10Z</time>
      </trkpt>
      <trkpt lat="49.39816" lon="4.01306">
        <ele>109</ele>
        <time>2019-04-07T11:04:11Z</time>
      </trkpt>
      <trkpt lat="49.3981" lon="4.01298">
        <ele>109</ele>
        <time>2019-04-07T11:04:12Z</time>
      </trkpt>
      <trkpt lat="49.39804" lon="4.01291">
        <ele>109</ele>
        <time>2019-04-07T11:04:13Z</time>
      </trkpt>
      <trkpt lat="49.39798" lon="4.01283">
        <ele>109</ele>
        <time>2019-04-07T11:04:14Z</time>
      </trkpt>
      <trkpt lat="49.39792" lon="4.01275">
        <ele>108</ele>
        <time>2019-04-07T11:04:15Z</time>
      </trkpt>
      <trkpt lat="49.39786" lon="4.01268">
        <ele>108</ele>
        <time>2019-04-07T11:04:16Z</time>
      </trkpt>
      <trkpt lat="49.3978" lon="4.0126">
        <ele>108</ele>
        <time>2019-04-07T11:04:17Z</time>
      </trkpt>
      <trkpt lat="49.39774" lon="4.01253">
        <ele>108</ele>
        <time>2019-04-07T11:04:18Z</time>
      </trkpt>
      <trkpt lat="49.39768" lon="4.01245">
        <ele>108</ele>
        <time>2019-04-07T11:04:19Z</time>
      </trkpt>
      <trkpt lat="49.39761" lon="4.01237">
        <ele>108</ele>
        <time>2019-04-07T11:04:20Z</time>
      </trkpt>
      <trkpt lat="49.39756" lon="4.01229">
        <ele>108</ele>
        <time>2019-04-07T11:04:21Z</time>
      </trkpt>
      <trkpt lat="49.3975" lon="4.01221">
        <ele>107</ele>
        <time>2019-04-07T11:04:22Z</time>
      </trkpt>
      <trkpt lat="49.39744" lon="4.01213">
        <ele>107</ele>
        <time>2019-04-07T11:04:23Z</time>
      </trkpt>
      <trkpt lat="49.39737" lon="4.01206">
        <ele>107</ele>
        <time>2019-04-07T11:04:24Z</time>
      </trkpt>
      <trkpt lat="49.39732" lon="4.01198">
        <ele>107</ele>
        <time>2019-04-07T11:04:25Z</time>
      </trkpt>
      <trkpt lat="49.39726" lon="4.01191">
        <ele>107</ele>
        <time>2019-04-07T11:04:26Z</time>
      </trkpt>
      <trkpt lat="49.3972" lon="4.01183">
        <ele>107</ele>
        <time>2019-04-07T11:04:27Z</time>
      </trkpt>
      <trkpt lat="49.39714" lon="4.01177">
        <ele>107</ele>
        <time>2019-04-07T11:04:28Z</time>
      </trkpt>
      <trkpt lat="49.39709" lon="4.0117">
        <ele>107</ele>
        <time>2019-04-07T11:04:29Z</time>
      </trkpt>
      <trkpt lat="49.39703" lon="4.01164">
        <ele>107</ele>
        <time>2019-04-07T11:04:30Z</time>
      </trkpt>
      <trkpt lat="49.39698" lon="4.01157">
        <ele>107</ele>
        <time>2019-04-07T11:04:31Z</time>
      </trkpt>
      <trkpt lat="49.39693" lon="4.01151">
        <ele>107</ele>
        <time>2019-04-07T11:04:32Z</time>
      </trkpt>
      <trkpt lat="49.39688" lon="4.01144">
        <ele>106</ele>
        <time>2019-04-07T11:04:33Z</time>
      </trkpt>
      <trkpt lat="49.39683" lon="4.01137">
        <ele>106</ele>
        <time>2019-04-07T11:04:34Z</time>
      </trkpt>
      <trkpt lat="49.39678" lon="4.01131">
        <ele>106</ele>
        <time>2019-04-07T11:04:35Z</time>
      </trkpt>
      <trkpt lat="49.39673" lon="4.01124">
        <ele>106</ele>
        <time>2019-04-07T11:04:36Z</time>
      </trkpt>
      <trkpt lat="49.39668" lon="4.01118">
        <ele>106</ele>
        <time>2019-04-07T11:04:37Z</time>
      </trkpt>
      <trkpt lat="49.39662" lon="4.01111">
        <ele>106</ele>
        <time>2019-04-07T11:04:38Z</time>
      </trkpt>
      <trkpt lat="49.39657" lon="4.01105">
        <ele>106</ele>
        <time>2019-04-07T11:04:39Z</time>
      </trkpt>
      <trkpt lat="49.39652" lon="4.01098">
        <ele>106</ele>
        <time>2019-04-07T11:04:40Z</time>
      </trkpt>
      <trkpt lat="49.39646" lon="4.01092">
        <ele>106</ele>
        <time>2019-04-07T11:04:41Z</time>
      </trkpt>
      <trkpt lat="49.39641" lon="4.01086">
        <ele>106</ele>
        <time>2019-04-07T11:04:42Z</time>
      </trkpt>
      <trkpt lat="49.39636" lon="4.0108">
        <ele>106</ele>
        <time>2019-04-07T11:04:43Z</time>
      </trkpt>
      <trkpt lat="49.39631" lon="4.01074">
        <ele>105</ele>
        <time>2019-04-07T11:04:44Z</time>
      </trkpt>
      <trkpt lat="49.39625" lon="4.01068">
        <ele>105</ele>
        <time>2019-04-07T11:04:45Z</time>
      </trkpt>
      <trkpt lat="49.3962" lon="4.01063">
        <ele>105</ele>
        <time>2019-04-07T11:04:46Z</time>
      </trkpt>
      <trkpt lat="49.39614" lon="4.01057">
        <ele>105</ele>
        <time>2019-04-07T11:04:47Z</time>
      </trkpt>
      <trkpt lat="49.39608" lon="4.01052">
        <ele>105</ele>
        <time>2019-04-07T11:04:48Z</time>
      </trkpt>
      <trkpt lat="49.39602" lon="4.01048">
        <ele>105</ele>
        <time>2019-04-07T11:04:49Z</time>
      </trkpt>
      <trkpt lat="49.39596" lon="4.01043">
        <ele>105</ele>
        <time>2019-04-07T11:04:50Z</time>
      </trkpt>
      <trkpt lat="49.3959" lon="4.01039">
        <ele>105</ele>
        <time>2019-04-07T11:04:51Z</time>
      </trkpt>
      <trkpt lat="49.39584" lon="4.01035">
        <ele>105</ele>
        <time>2019-04-07T11:04:52Z</time>
      </trkpt>
      <trkpt lat="49.39579" lon="4.0103">
        <ele>105</ele>
        <time>2019-04-07T11:04:53Z</time>
      </trkpt>
      <trkpt lat="49.39573" lon="4.01025">
        <ele>105</ele>
        <time>2019-04-07T11:04:54Z</time>
      </trkpt>
      <trkpt lat="49.39567" lon="4.01021">
        <ele>105</ele>
        <time>2019-04-07T11:04:55Z</time>
      </trkpt>
      <trkpt lat="49.39562" lon="4.01017">
        <ele>105</ele>
        <time>2019-04-07T11:04:56Z</time>
      </trkpt>
      <trkpt lat="49.39556" lon="4.01013">
        <ele>105</ele>
        <time>2019-04-07T11:04:57Z</time>
      </trkpt>
      <trkpt lat="49.39551" lon="4.01012">
        <ele>105</ele>
        <time>2019-04-07T11:04:58Z</time>
      </trkpt>
      <trkpt lat="49.39545" lon="4.01014">
        <ele>106</ele>
        <time>2019-04-07T11:04:59Z</time>
      </trkpt>
      <trkpt lat="49.3954" lon="4.01017">
        <ele>105</ele>
        <time>2019-04-07T11:05:00Z</time>
      </trkpt>
      <trkpt lat="49.39536" lon="4.01023">
        <ele>105</ele>
        <time>2019-04-07T11:05:01Z</time>
      </trkpt>
      <trkpt lat="49.39532" lon="4.01028">
        <ele>105</ele>
        <time>2019-04-07T11:05:02Z</time>
      </trkpt>
      <trkpt lat="49.39528" lon="4.01035">
        <ele>106</ele>
        <time>2019-04-07T11:05:03Z</time>
      </trkpt>
      <trkpt lat="49.39524" lon="4.01041">
        <ele>106</ele>
        <time>2019-04-07T11:05:04Z</time>
      </trkpt>
      <trkpt lat="49.3952" lon="4.01046">
        <ele>106</ele>
        <time>2019-04-07T11:05:05Z</time>
      </trkpt>
      <trkpt lat="49.39517" lon="4.01053">
        <ele>106</ele>
        <time>2019-04-07T11:05:06Z</time>
      </trkpt>
      <trkpt lat="49.39513" lon="4.01059">
        <ele>106</ele>
        <time>2019-04-07T11:05:07Z</time>
      </trkpt>
      <trkpt lat="49.39509" lon="4.01065">
        <ele>106</ele>
        <time>2019-04-07T11:05:08Z</time>
      </trkpt>
      <trkpt lat="49.39505" lon="4.0107">
        <ele>106</ele>
        <time>2019-04-07T11:05:09Z</time>
      </trkpt>
      <trkpt lat="49.39501" lon="4.01076">
        <ele>106</ele>
        <time>2019-04-07T11:05:10Z</time>
      </trkpt>
      <trkpt lat="49.39496" lon="4.01082">
        <ele>105</ele>
        <time>2019-04-07T11:05:11Z</time>
      </trkpt>
      <trkpt lat="49.39492" lon="4.01088">
        <ele>105</ele>
        <time>2019-04-07T11:05:12Z</time>
      </trkpt>
      <trkpt lat="49.39488" lon="4.01093">
        <ele>105</ele>
        <time>2019-04-07T11:05:13Z</time>
      </trkpt>
      <trkpt lat="49.39484" lon="4.01099">
        <ele>105</ele>
        <time>2019-04-07T11:05:14Z</time>
      </trkpt>
      <trkpt lat="49.3948" lon="4.01104">
        <ele>105</ele>
        <time>2019-04-07T11:05:15Z</time>
      </trkpt>
      <trkpt lat="49.39475" lon="4.0111">
        <ele>105</ele>
        <time>2019-04-07T11:05:16Z</time>
      </trkpt>
      <trkpt lat="49.39471" lon="4.01115">
        <ele>105</ele>
        <time>2019-04-07T11:05:17Z</time>
      </trkpt>
      <trkpt lat="49.39467" lon="4.01121">
        <ele>105</ele>
        <time>2019-04-07T11:05:18Z</time>
      </trkpt>
      <trkpt lat="49.39462" lon="4.01127">
        <ele>105</ele>
        <time>2019-04-07T11:05:19Z</time>
      </trkpt>
      <trkpt lat="49.39458" lon="4.01132">
        <ele>105</ele>
        <time>2019-04-07T11:05:20Z</time>
      </trkpt>
      <trkpt lat="49.39453" lon="4.01138">
        <ele>105</ele>
        <time>2019-04-07T11:05:21Z</time>
      </trkpt>
      <trkpt lat="49.39449" lon="4.01144">
        <ele>105</ele>
        <time>2019-04-07T11:05:22Z</time>
      </trkpt>
      <trkpt lat="49.39445" lon="4.0115">
        <ele>105</ele>
        <time>2019-04-07T11:05:23Z</time>
      </trkpt>
      <trkpt lat="49.3944" lon="4.01156">
        <ele>105</ele>
        <time>2019-04-07T11:05:24Z</time>
      </trkpt>
      <trkpt lat="49.39435" lon="4.01162">
        <ele>105</ele>
        <time>2019-04-07T11:05:25Z</time>
      </trkpt>
      <trkpt lat="49.39431" lon="4.01168">
        <ele>105</ele>
        <time>2019-04-07T11:05:26Z</time>
      </trkpt>
      <trkpt lat="49.39426" lon="4.01174">
        <ele>105</ele>
        <time>2019-04-07T11:05:27Z</time>
      </trkpt>
      <trkpt lat="49.39422" lon="4.01181">
        <ele>105</ele>
        <time>2019-04-07T11:05:28Z</time>
      </trkpt>
      <trkpt lat="49.39416" lon="4.01187">
        <ele>105</ele>
        <time>2019-04-07T11:05:29Z</time>
      </trkpt>
      <trkpt lat="49.39411" lon="4.01194">
        <ele>105</ele>
        <time>2019-04-07T11:05:30Z</time>
      </trkpt>
      <trkpt lat="49.39406" lon="4.012">
        <ele>105</ele>
        <time>2019-04-07T11:05:31Z</time>
      </trkpt>
      <trkpt lat="49.39402" lon="4.01205">
        <ele>105</ele>
        <time>2019-04-07T11:05:32Z</time>
      </trkpt>
      <trkpt lat="49.39397" lon="4.01211">
        <ele>105</ele>
        <time>2019-04-07T11:05:33Z</time>
      </trkpt>
      <trkpt lat="49.39392" lon="4.01218">
        <ele>105</ele>
        <time>2019-04-07T11:05:34Z</time>
      </trkpt>
      <trkpt lat="49.39388" lon="4.01224">
        <ele>105</ele>
        <time>2019-04-07T11:05:35Z</time>
      </trkpt>
      <trkpt lat="49.39383" lon="4.0123">
        <ele>105</ele>
        <time>2019-04-07T11:05:36Z</time>
      </trkpt>
      <trkpt lat="49.39378" lon="4.01236">
        <ele>105</ele>
        <time>2019-04-07T11:05:37Z</time>
      </trkpt>
      <trkpt lat="49.39373" lon="4.01242">
        <ele>105</ele>
        <time>2019-04-07T11:05:38Z</time>
      </trkpt>
      <trkpt lat="49.39368" lon="4.01248">
        <ele>105</ele>
        <time>2019-04-07T11:05:39Z</time>
      </trkpt>
      <trkpt lat="49.39364" lon="4.01255">
        <ele>104</ele>
        <time>2019-04-07T11:05:40Z</time>
      </trkpt>
      <trkpt lat="49.39359" lon="4.01261">
        <ele>104</ele>
        <time>2019-04-07T11:05:41Z</time>
      </trkpt>
      <trkpt lat="49.39354" lon="4.01267">
        <ele>104</ele>
        <time>2019-04-07T11:05:42Z</time>
      </trkpt>
      <trkpt lat="49.39349" lon="4.01274">
        <ele>104</ele>
        <time>2019-04-07T11:05:43Z</time>
      </trkpt>
      <trkpt lat="49.39344" lon="4.0128">
        <ele>104</ele>
        <time>2019-04-07T11:05:44Z</time>
      </trkpt>
      <trkpt lat="49.39339" lon="4.01286">
        <ele>104</ele>
        <time>2019-04-07T11:05:45Z</time>
      </trkpt>
      <trkpt lat="49.39335" lon="4.01292">
        <ele>104</ele>
        <time>2019-04-07T11:05:46Z</time>
      </trkpt>
      <trkpt lat="49.3933" lon="4.01299">
        <ele>104</ele>
        <time>2019-04-07T11:05:47Z</time>
      </trkpt>
      <trkpt lat="49.39325" lon="4.01306">
        <ele>104</ele>
        <time>2019-04-07T11:05:48Z</time>
      </trkpt>
      <trkpt lat="49.3932" lon="4.01312">
        <ele>104</ele>
        <time>2019-04-07T11:05:49Z</time>
      </trkpt>
      <trkpt lat="49.39316" lon="4.01318">
        <ele>104</ele>
        <time>2019-04-07T11:05:50Z</time>
      </trkpt>
      <trkpt lat="49.39311" lon="4.01324">
        <ele>104</ele>
        <time>2019-04-07T11:05:51Z</time>
      </trkpt>
      <trkpt lat="49.39306" lon="4.0133">
        <ele>104</ele>
        <time>2019-04-07T11:05:52Z</time>
      </trkpt>
      <trkpt lat="49.39301" lon="4.01337">
        <ele>104</ele>
        <time>2019-04-07T11:05:53Z</time>
      </trkpt>
      <trkpt lat="49.39296" lon="4.01342">
        <ele>104</ele>
        <time>2019-04-07T11:05:54Z</time>
      </trkpt>
      <trkpt lat="49.39292" lon="4.01348">
        <ele>104</ele>
        <time>2019-04-07T11:05:55Z</time>
      </trkpt>
      <trkpt lat="49.39287" lon="4.01354">
        <ele>104</ele>
        <time>2019-04-07T11:05:56Z</time>
      </trkpt>
      <trkpt lat="49.39283" lon="4.0136">
        <ele>104</ele>
        <time>2019-04-07T11:05:57Z</time>
      </trkpt>
      <trkpt lat="49.39278" lon="4.01366">
        <ele>104</ele>
        <time>2019-04-07T11:05:58Z</time>
      </trkpt>
      <trkpt lat="49.39274" lon="4.01372">
        <ele>104</ele>
        <time>2019-04-07T11:05:59Z</time>
      </trkpt>
      <trkpt lat="49.39269" lon="4.01378">
        <ele>104</ele>
        <time>2019-04-07T11:06:00Z</time>
      </trkpt>
      <trkpt lat="49.39265" lon="4.01384">
        <ele>104</ele>
        <time>2019-04-07T11:06:01Z</time>
      </trkpt>
      <trkpt lat="49.3926" lon="4.0139">
        <ele>104</ele>
        <time>2019-04-07T11:06:02Z</time>
      </trkpt>
      <trkpt lat="49.39256" lon="4.01396">
        <ele>104</ele>
        <time>2019-04-07T11:06:03Z</time>
      </trkpt>
      <trkpt lat="49.39251" lon="4.01401">
        <ele>104</ele>
        <time>2019-04-07T11:06:04Z</time>
      </trkpt>
      <trkpt lat="49.39247" lon="4.01407">
        <ele>104</ele>
        <time>2019-04-07T11:06:05Z</time>
      </trkpt>
      <trkpt lat="49.39242" lon="4.01412">
        <ele>104</ele>
        <time>2019-04-07T11:06:06Z</time>
      </trkpt>
      <trkpt lat="49.39237" lon="4.01418">
        <ele>105</ele>
        <time>2019-04-07T11:06:07Z</time>
      </trkpt>
      <trkpt lat="49.39233" lon="4.01424">
        <ele>105</ele>
        <time>2019-04-07T11:06:08Z</time>
      </trkpt>
      <trkpt lat="49.39228" lon="4.0143">
        <ele>105</ele>
        <time>2019-04-07T11:06:09Z</time>
      </trkpt>
      <trkpt lat="49.39223" lon="4.01436">
        <ele>105</ele>
        <time>2019-04-07T11:06:10Z</time>
      </trkpt>
      <trkpt lat="49.39219" lon="4.01442">
        <ele>105</ele>
        <time>2019-04-07T11:06:11Z</time>
      </trkpt>
      <trkpt lat="49.39214" lon="4.01448">
        <ele>105</ele>
        <time>2019-04-07T11:06:12Z</time>
      </trkpt>
      <trkpt lat="49.39209" lon="4.01455">
        <ele>105</ele>
        <time>2019-04-07T11:06:13Z</time>
      </trkpt>
      <trkpt lat="49.39205" lon="4.01461">
        <ele>105</ele>
        <time>2019-04-07T11:06:14Z</time>
      </trkpt>
      <trkpt lat="49.392" lon="4.01467">
        <ele>105</ele>
        <time>2019-04-07T11:06:15Z</time>
      </trkpt>
      <trkpt lat="49.39195" lon="4.01473">
        <ele>105</ele>
        <time>2019-04-07T11:06:16Z</time>
      </trkpt>
      <trkpt lat="49.3919" lon="4.0148">
        <ele>105</ele>
        <time>2019-04-07T11:06:17Z</time>
      </trkpt>
      <trkpt lat="49.39186" lon="4.01486">
        <ele>105</ele>
        <time>2019-04-07T11:06:18Z</time>
      </trkpt>
      <trkpt lat="49.39181" lon="4.01493">
        <ele>105</ele>
        <time>2019-04-07T11:06:19Z</time>
      </trkpt>
      <trkpt lat="49.39177" lon="4.01499">
        <ele>104</ele>
        <time>2019-04-07T11:06:20Z</time>
      </trkpt>
      <trkpt lat="49.39172" lon="4.01505">
        <ele>104</ele>
        <time>2019-04-07T11:06:21Z</time>
      </trkpt>
      <trkpt lat="49.39168" lon="4.01511">
        <ele>104</ele>
        <time>2019-04-07T11:06:22Z</time>
      </trkpt>
      <trkpt lat="49.39163" lon="4.01517">
        <ele>104</ele>
        <time>2019-04-07T11:06:23Z</time>
      </trkpt>
      <trkpt lat="49.39159" lon="4.01522">
        <ele>104</ele>
        <time>2019-04-07T11:06:24Z</time>
      </trkpt>
      <trkpt lat="49.39155" lon="4.01528">
        <ele>104</ele>
        <time>2019-04-07T11:06:25Z</time>
      </trkpt>
      <trkpt lat="49.3915" lon="4.01533">
        <ele>104</ele>
        <time>2019-04-07T11:06:26Z</time>
      </trkpt>
      <trkpt lat="49.39146" lon="4.01539">
        <ele>104</ele>
        <time>2019-04-07T11:06:27Z</time>
      </trkpt>
      <trkpt lat="49.39141" lon="4.01545">
        <ele>104</ele>
        <time>2019-04-07T11:06:28Z</time>
      </trkpt>
      <trkpt lat="49.39136" lon="4.01551">
        <ele>104</ele>
        <time>2019-04-07T11:06:29Z</time>
      </trkpt>
      <trkpt lat="49.39132" lon="4.01558">
        <ele>104</ele>
        <time>2019-04-07T11:06:30Z</time>
      </trkpt>
      <trkpt lat="49.39127" lon="4.01564">
        <ele>104</ele>
        <time>2019-04-07T11:06:31Z</time>
      </trkpt>
      <trkpt lat="49.39122" lon="4.01571">
        <ele>104</ele>
        <time>2019-04-07T11:06:32Z</time>
      </trkpt>
      <trkpt lat="49.39117" lon="4.01578">
        <ele>104</ele>
        <time>2019-04-07T11:06:33Z</time>
      </trkpt>
      <trkpt lat="49.39112" lon="4.01584">
        <ele>104</ele>
        <time>2019-04-07T11:06:34Z</time>
      </trkpt>
      <trkpt lat="49.39107" lon="4.01591">
        <ele>104</ele>
        <time>2019-04-07T11:06:35Z</time>
      </trkpt>
      <trkpt lat="49.39102" lon="4.01597">
        <ele>104</ele>
        <time>2019-04-07T11:06:36Z</time>
      </trkpt>
      <trkpt lat="49.39097" lon="4.01604">
        <ele>104</ele>
        <time>2019-04-07T11:06:37Z</time>
      </trkpt>
      <trkpt lat="49.39092" lon="4.0161">
        <ele>104</ele>
        <time>2019-04-07T11:06:38Z</time>
      </trkpt>
      <trkpt lat="49.39087" lon="4.01617">
        <ele>104</ele>
        <time>2019-04-07T11:06:39Z</time>
      </trkpt>
      <trkpt lat="49.39082" lon="4.01623">
        <ele>104</ele>
        <time>2019-04-07T11:06:40Z</time>
      </trkpt>
      <trkpt lat="49.39077" lon="4.01629">
        <ele>104</ele>
        <time>2019-04-07T11:06:41Z</time>
      </trkpt>
      <trkpt lat="49.39072" lon="4.01636">
        <ele>104</ele>
        <time>2019-04-07T11:06:42Z</time>
      </trkpt>
      <trkpt lat="49.39067" lon="4.01642">
        <ele>104</ele>
        <time>2019-04-07T11:06:43Z</time>
      </trkpt>
      <trkpt lat="49.39062" lon="4.01649">
        <ele>104</ele>
        <time>2019-04-07T11:06:44Z</time>
      </trkpt>
      <trkpt lat="49.39057" lon="4.01655">
        <ele>104</ele>
        <time>2019-04-07T11:06:45Z</time>
      </trkpt>
      <trkpt lat="49.39052" lon="4.01661">
        <ele>104</ele>
        <time>2019-04-07T11:06:46Z</time>
      </trkpt>
      <trkpt lat="49.39047" lon="4.01668">
        <ele>104</ele>
        <time>2019-04-07T11:06:47Z</time>
      </trkpt>
      <trkpt lat="49.39042" lon="4.01675">
        <ele>104</ele>
        <time>2019-04-07T11:06:48Z</time>
      </trkpt>
      <trkpt lat="49.39037" lon="4.01682">
        <ele>104</ele>
        <time>2019-04-07T11:06:49Z</time>
      </trkpt>
      <trkpt lat="49.39032" lon="4.01688">
        <ele>104</ele>
        <time>2019-04-07T11:06:50Z</time>
      </trkpt>
      <trkpt lat="49.39027" lon="4.01695">
        <ele>104</ele>
        <time>2019-04-07T11:06:51Z</time>
      </trkpt>
      <trkpt lat="49.39022" lon="4.01702">
        <ele>104</ele>
        <time>2019-04-07T11:06:52Z</time>
      </trkpt>
      <trkpt lat="49.39016" lon="4.01708">
        <ele>104</ele>
        <time>2019-04-07T11:06:53Z</time>
      </trkpt>
      <trkpt lat="49.39011" lon="4.01716">
        <ele>104</ele>
        <time>2019-04-07T11:06:54Z</time>
      </trkpt>
      <trkpt lat="49.39006" lon="4.01723">
        <ele>104</ele>
        <time>2019-04-07T11:06:55Z</time>
      </trkpt>
      <trkpt lat="49.39001" lon="4.01729">
        <ele>104</ele>
        <time>2019-04-07T11:06:56Z</time>
      </trkpt>
      <trkpt lat="49.38996" lon="4.01736">
        <ele>104</ele>
        <time>2019-04-07T11:06:57Z</time>
      </trkpt>
      <trkpt lat="49.3899" lon="4.01743">
        <ele>104</ele>
        <time>2019-04-07T11:06:58Z</time>
      </trkpt>
      <trkpt lat="49.38985" lon="4.01749">
        <ele>104</ele>
        <time>2019-04-07T11:06:59Z</time>
      </trkpt>
      <trkpt lat="49.3898" lon="4.01755">
        <ele>104</ele>
        <time>2019-04-07T11:07:00Z</time>
      </trkpt>
      <trkpt lat="49.38975" lon="4.01762">
        <ele>104</ele>
        <time>2019-04-07T11:07:01Z</time>
      </trkpt>
      <trkpt lat="49.3897" lon="4.01769">
        <ele>104</ele>
        <time>2019-04-07T11:07:02Z</time>
      </trkpt>
      <trkpt lat="49.38965" lon="4.01775">
        <ele>103</ele>
        <time>2019-04-07T11:07:03Z</time>
      </trkpt>
      <trkpt lat="49.3896" lon="4.01782">
        <ele>103</ele>
        <time>2019-04-07T11:07:04Z</time>
      </trkpt>
      <trkpt lat="49.38955" lon="4.01789">
        <ele>103</ele>
        <time>2019-04-07T11:07:05Z</time>
      </trkpt>
      <trkpt lat="49.3895" lon="4.01795">
        <ele>103</ele>
        <time>2019-04-07T11:07:06Z</time>
      </trkpt>
      <trkpt lat="49.38945" lon="4.01802">
        <ele>103</ele>
        <time>2019-04-07T11:07:07Z</time>
      </trkpt>
      <trkpt lat="49.3894" lon="4.01808">
        <ele>103</ele>
        <time>2019-04-07T11:07:08Z</time>
      </trkpt>
      <trkpt lat="49.38935" lon="4.01815">
        <ele>103</ele>
        <time>2019-04-07T11:07:09Z</time>
      </trkpt>
      <trkpt lat="49.3893" lon="4.01821">
        <ele>103</ele>
        <time>2019-04-07T11:07:10Z</time>
      </trkpt>
      <trkpt lat="49.38925" lon="4.01828">
        <ele>103</ele>
        <time>2019-04-07T11:07:11Z</time>
      </trkpt>
      <trkpt lat="49.3892" lon="4.01834">
        <ele>103</ele>
        <time>2019-04-07T11:07:12Z</time>
      </trkpt>
      <trkpt lat="49.38915" lon="4.01841">
        <ele>103</ele>
        <time>2019-04-07T11:07:13Z</time>
      </trkpt>
      <trkpt lat="49.3891" lon="4.01847">
        <ele>103</ele>
        <time>2019-04-07T11:07:14Z</time>
      </trkpt>
      <trkpt lat="49.38905" lon="4.01854">
        <ele>103</ele>
        <time>2019-04-07T11:07:15Z</time>
      </trkpt>
      <trkpt lat="49.389" lon="4.0186">
        <ele>103</ele>
        <time>2019-04-07T11:07:16Z</time>
      </trkpt>
      <trkpt lat="49.38895" lon="4.01867">
        <ele>103</ele>
        <time>2019-04-07T11:07:17Z</time>
      </trkpt>
      <trkpt lat="49.3889" lon="4.01873">
        <ele>103</ele>
        <time>2019-04-07T11:07:18Z</time>
      </trkpt>
      <trkpt lat="49.38885" lon="4.0188">
        <ele>103</ele>
        <time>2019-04-07T11:07:19Z</time>
      </trkpt>
      <trkpt lat="49.38879" lon="4.01887">
        <ele>103</ele>
        <time>2019-04-07T11:07:20Z</time>
      </trkpt>
      <trkpt lat="49.38874" lon="4.01894">
        <ele>103</ele>
        <time>2019-04-07T11:07:21Z</time>
      </trkpt>
      <trkpt lat="49.38869" lon="4.019">
        <ele>103</ele>
        <time>2019-04-07T11:07:22Z</time>
      </trkpt>
      <trkpt lat="49.38864" lon="4.01907">
        <ele>103</ele>
        <time>2019-04-07T11:07:23Z</time>
      </trkpt>
      <trkpt lat="49.38859" lon="4.01913">
        <ele>103</ele>
        <time>2019-04-07T11:07:24Z</time>
      </trkpt>
      <trkpt lat="49.38854" lon="4.0192">
        <ele>103</ele>
        <time>2019-04-07T11:07:25Z</time>
      </trkpt>
      <trkpt lat="49.38849" lon="4.01927">
        <ele>103</ele>
        <time>2019-04-07T11:07:26Z</time>
      </trkpt>
      <trkpt lat="49.38844" lon="4.01933">
        <ele>104</ele>
        <time>2019-04-07T11:07:27Z</time>
      </trkpt>
      <trkpt lat="49.38839" lon="4.0194">
        <ele>103</ele>
        <time>2019-04-07T11:07:28Z</time>
      </trkpt>
      <trkpt lat="49.38834" lon="4.01947">
        <ele>103</ele>
        <time>2019-04-07T11:07:29Z</time>
      </trkpt>
      <trkpt lat="49.38829" lon="4.01953">
        <ele>103</ele>
        <time>2019-04-07T11:07:30Z</time>
      </trkpt>
      <trkpt lat="49.38823" lon="4.0196">
        <ele>103</ele>
        <time>2019-04-07T11:07:31Z</time>
      </trkpt>
      <trkpt lat="49.38818" lon="4.01966">
        <ele>103</ele>
        <time>2019-04-07T11:07:32Z</time>
      </trkpt>
      <trkpt lat="49.38813" lon="4.01973">
        <ele>103</ele>
        <time>2019-04-07T11:07:33Z</time>
      </trkpt>
      <trkpt lat="49.38808" lon="4.0198">
        <ele>104</ele>
        <time>2019-04-07T11:07:34Z</time>
      </trkpt>
      <trkpt lat="49.38803" lon="4.01987">
        <ele>104</ele>
        <time>2019-04-07T11:07:35Z</time>
      </trkpt>
      <trkpt lat="49.38797" lon="4.01994">
        <ele>104</ele>
        <time>2019-04-07T11:07:36Z</time>
      </trkpt>
      <trkpt lat="49.38792" lon="4.02001">
        <ele>103</ele>
        <time>2019-04-07T11:07:37Z</time>
      </trkpt>
      <trkpt lat="49.38787" lon="4.02007">
        <ele>103</ele>
        <time>2019-04-07T11:07:38Z</time>
      </trkpt>
      <trkpt lat="49.38782" lon="4.02014">
        <ele>104</ele>
        <time>2019-04-07T11:07:39Z</time>
      </trkpt>
      <trkpt lat="49.38777" lon="4.0202">
        <ele>103</ele>
        <time>2019-04-07T11:07:40Z</time>
      </trkpt>
      <trkpt lat="49.38772" lon="4.02027">
        <ele>103</ele>
        <time>2019-04-07T11:07:41Z</time>
      </trkpt>
      <trkpt lat="49.38767" lon="4.02034">
        <ele>103</ele>
        <time>2019-04-07T11:07:42Z</time>
      </trkpt>
      <trkpt lat="49.38761" lon="4.02042">
        <ele>103</ele>
        <time>2019-04-07T11:07:43Z</time>
      </trkpt>
      <trkpt lat="49.38756" lon="4.02048">
        <ele>103</ele>
        <time>2019-04-07T11:07:44Z</time>
      </trkpt>
      <trkpt lat="49.38751" lon="4.02055">
        <ele>103</ele>
        <time>2019-04-07T11:07:45Z</time>
      </trkpt>
      <trkpt lat="49.38745" lon="4.02062">
        <ele>103</ele>
        <time>2019-04-07T11:07:46Z</time>
      </trkpt>
      <trkpt lat="49.3874" lon="4.02069">
        <ele>103</ele>
        <time>2019-04-07T11:07:47Z</time>
      </trkpt>
      <trkpt lat="49.38735" lon="4.02076">
        <ele>103</ele>
        <time>2019-04-07T11:07:48Z</time>
      </trkpt>
      <trkpt lat="49.3873" lon="4.02083">
        <ele>103</ele>
        <time>2019-04-07T11:07:49Z</time>
      </trkpt>
      <trkpt lat="49.38724" lon="4.0209">
        <ele>103</ele>
        <time>2019-04-07T11:07:50Z</time>
      </trkpt>
      <trkpt lat="49.38719" lon="4.02097">
        <ele>103</ele>
        <time>2019-04-07T11:07:51Z</time>
      </trkpt>
      <trkpt lat="49.38713" lon="4.02104">
        <ele>103</ele>
        <time>2019-04-07T11:07:52Z</time>
      </trkpt>
      <trkpt lat="49.38708" lon="4.02111">
        <ele>104</ele>
        <time>2019-04-07T11:07:53Z</time>
      </trkpt>
      <trkpt lat="49.38702" lon="4.02118">
        <ele>103</ele>
        <time>2019-04-07T11:07:54Z</time>
      </trkpt>
      <trkpt lat="49.38697" lon="4.02125">
        <ele>104</ele>
        <time>2019-04-07T11:07:55Z</time>
      </trkpt>
      <trkpt lat="49.38692" lon="4.02133">
        <ele>103</ele>
        <time>2019-04-07T11:07:56Z</time>
      </trkpt>
      <trkpt lat="49.38687" lon="4.0214">
        <ele>103</ele>
        <time>2019-04-07T11:07:57Z</time>
      </trkpt>
      <trkpt lat="49.38681" lon="4.02147">
        <ele>103</ele>
        <time>2019-04-07T11:07:58Z</time>
      </trkpt>
      <trkpt lat="49.38676" lon="4.02153">
        <ele>103</ele>
        <time>2019-04-07T11:07:59Z</time>
      </trkpt>
      <trkpt lat="49.38671" lon="4.0216">
        <ele>103</ele>
        <time>2019-04-07T11:08:00Z</time>
      </trkpt>
      <trkpt lat="49.38665" lon="4.02167">
        <ele>103</ele>
        <time>2019-04-07T11:08:01Z</time>
      </trkpt>
      <trkpt lat="49.3866" lon="4.02174">
        <ele>103</ele>
        <time>2019-04-07T11:08:02Z</time>
      </trkpt>
      <trkpt lat="49.38655" lon="4.02181">
        <ele>103</ele>
        <time>2019-04-07T11:08:03Z</time>
      </trkpt>
      <trkpt lat="49.3865" lon="4.02188">
        <ele>103</ele>
        <time>2019-04-07T11:08:04Z</time>
      </trkpt>
      <trkpt lat="49.38645" lon="4.02195">
        <ele>103</ele>
        <time>2019-04-07T11:08:05Z</time>
      </trkpt>
      <trkpt lat="49.3864" lon="4.02202">
        <ele>103</ele>
        <time>2019-04-07T11:08:06Z</time>
      </trkpt>
      <trkpt lat="49.38634" lon="4.02209">
        <ele>103</ele>
        <time>2019-04-07T11:08:07Z</time>
      </trkpt>
      <trkpt lat="49.38629" lon="4.02215">
        <ele>103</ele>
        <time>2019-04-07T11:08:08Z</time>
      </trkpt>
      <trkpt lat="49.38624" lon="4.02222">
        <ele>103</ele>
        <time>2019-04-07T11:08:09Z</time>
      </trkpt>
      <trkpt lat="49.38619" lon="4.02229">
        <ele>103</ele>
        <time>2019-04-07T11:08:10Z</time>
      </trkpt>
      <trkpt lat="49.38613" lon="4.02236">
        <ele>102</ele>
        <time>2019-04-07T11:08:11Z</time>
      </trkpt>
      <trkpt lat="49.38608" lon="4.02243">
        <ele>102</ele>
        <time>2019-04-07T11:08:12Z</time>
      </trkpt>
      <trkpt lat="49.38603" lon="4.0225">
        <ele>102</ele>
        <time>2019-04-07T11:08:13Z</time>
      </trkpt>
      <trkpt lat="49.38597" lon="4.02256">
        <ele>102</ele>
        <time>2019-04-07T11:08:14Z</time>
      </trkpt>
      <trkpt lat="49.38592" lon="4.02263">
        <ele>102</ele>
        <time>2019-04-07T11:08:15Z</time>
      </trkpt>
      <trkpt lat="49.38587" lon="4.0227">
        <ele>102</ele>
        <time>2019-04-07T11:08:16Z</time>
      </trkpt>
      <trkpt lat="49.38581" lon="4.02277">
        <ele>102</ele>
        <time>2019-04-07T11:08:17Z</time>
      </trkpt>
      <trkpt lat="49.38576" lon="4.02284">
        <ele>102</ele>
        <time>2019-04-07T11:08:18Z</time>
      </trkpt>
      <trkpt lat="49.38571" lon="4.0229">
        <ele>103</ele>
        <time>2019-04-07T11:08:19Z</time>
      </trkpt>
      <trkpt lat="49.38565" lon="4.02297">
        <ele>103</ele>
        <time>2019-04-07T11:08:20Z</time>
      </trkpt>
      <trkpt lat="49.3856" lon="4.02303">
        <ele>102</ele>
        <time>2019-04-07T11:08:21Z</time>
      </trkpt>
      <trkpt lat="49.38556" lon="4.0231">
        <ele>103</ele>
        <time>2019-04-07T11:08:22Z</time>
      </trkpt>
      <trkpt lat="49.38551" lon="4.02317">
        <ele>103</ele>
        <time>2019-04-07T11:08:23Z</time>
      </trkpt>
      <trkpt lat="49.38547" lon="4.02324">
        <ele>103</ele>
        <time>2019-04-07T11:08:24Z</time>
      </trkpt>
      <trkpt lat="49.38541" lon="4.0233">
        <ele>104</ele>
        <time>2019-04-07T11:08:25Z</time>
      </trkpt>
      <trkpt lat="49.38535" lon="4.02336">
        <ele>104</ele>
        <time>2019-04-07T11:08:26Z</time>
      </trkpt>
      <trkpt lat="49.3853" lon="4.02342">
        <ele>104</ele>
        <time>2019-04-07T11:08:27Z</time>
      </trkpt>
      <trkpt lat="49.38524" lon="4.02349">
        <ele>105</ele>
        <time>2019-04-07T11:08:28Z</time>
      </trkpt>
      <trkpt lat="49.38519" lon="4.02355">
        <ele>105</ele>
        <time>2019-04-07T11:08:29Z</time>
      </trkpt>
      <trkpt lat="49.38513" lon="4.02361">
        <ele>104</ele>
        <time>2019-04-07T11:08:30Z</time>
      </trkpt>
      <trkpt lat="49.38507" lon="4.02366">
        <ele>104</ele>
        <time>2019-04-07T11:08:31Z</time>
      </trkpt>
      <trkpt lat="49.38501" lon="4.02371">
        <ele>104</ele>
        <time>2019-04-07T11:08:32Z</time>
      </trkpt>
      <trkpt lat="49.38495" lon="4.02375">
        <ele>105</ele>
        <time>2019-04-07T11:08:33Z</time>
      </trkpt>
      <trkpt lat="49.38489" lon="4.02379">
        <ele>104</ele>
        <time>2019-04-07T11:08:34Z</time>
      </trkpt>
      <trkpt lat="49.38482" lon="4.02381">
        <ele>105</ele>
        <time>2019-04-07T11:08:35Z</time>
      </trkpt>
      <trkpt lat="49.38475" lon="4.02383">
        <ele>105</ele>
        <time>2019-04-07T11:08:36Z</time>
      </trkpt>
      <trkpt lat="49.38468" lon="4.02385">
        <ele>105</ele>
        <time>2019-04-07T11:08:37Z</time>
      </trkpt>
      <trkpt lat="49.38461" lon="4.02386">
        <ele>105</ele>
        <time>2019-04-07T11:08:38Z</time>
      </trkpt>
      <trkpt lat="49.38455" lon="4.02386">
        <ele>106</ele>
        <time>2019-04-07T11:08:39Z</time>
      </trkpt>
      <trkpt lat="49.38448" lon="4.02384">
        <ele>106</ele>
        <time>2019-04-07T11:08:40Z</time>
      </trkpt>
      <trkpt lat="49.38442" lon="4.02382">
        <ele>105</ele>
        <time>2019-04-07T11:08:41Z</time>
      </trkpt>
      <trkpt lat="49.38436" lon="4.02379">
        <ele>105</ele>
        <time>2019-04-07T11:08:42Z</time>
      </trkpt>
      <trkpt lat="49.3843" lon="4.02375">
        <ele>106</ele>
        <time>2019-04-07T11:08:43Z</time>
      </trkpt>
      <trkpt lat="49.38424" lon="4.02371">
        <ele>106</ele>
        <time>2019-04-07T11:08:44Z</time>
      </trkpt>
      <trkpt lat="49.38418" lon="4.02367">
        <ele>106</ele>
        <time>2019-04-07T11:08:45Z</time>
      </trkpt>
      <trkpt lat="49.38413" lon="4.02362">
        <ele>106</ele>
        <time>2019-04-07T11:08:46Z</time>
      </trkpt>
      <trkpt lat="49.38409" lon="4.02356">
        <ele>106</ele>
        <time>2019-04-07T11:08:47Z</time>
      </trkpt>
      <trkpt lat="49.38404" lon="4.02349">
        <ele>106</ele>
        <time>2019-04-07T11:08:48Z</time>
      </trkpt>
      <trkpt lat="49.384" lon="4.02343">
        <ele>107</ele>
        <time>2019-04-07T11:08:49Z</time>
      </trkpt>
      <trkpt lat="49.38395" lon="4.02337">
        <ele>107</ele>
        <time>2019-04-07T11:08:50Z</time>
      </trkpt>
      <trkpt lat="49.3839" lon="4.02331">
        <ele>107</ele>
        <time>2019-04-07T11:08:51Z</time>
      </trkpt>
      <trkpt lat="49.38387" lon="4.02325">
        <ele>107</ele>
        <time>2019-04-07T11:08:52Z</time>
      </trkpt>
      <trkpt lat="49.38382" lon="4.02319">
        <ele>108</ele>
        <time>2019-04-07T11:08:53Z</time>
      </trkpt>
      <trkpt lat="49.38378" lon="4.02312">
        <ele>108</ele>
        <time>2019-04-07T11:08:54Z</time>
      </trkpt>
      <trkpt lat="49.38374" lon="4.02305">
        <ele>107</ele>
        <time>2019-04-07T11:08:55Z</time>
      </trkpt>
      <trkpt lat="49.38369" lon="4.02299">
        <ele>107</ele>
        <time>2019-04-07T11:08:56Z</time>
      </trkpt>
      <trkpt lat="49.38364" lon="4.02294">
        <ele>107</ele>
        <time>2019-04-07T11:08:57Z</time>
      </trkpt>
      <trkpt lat="49.38358" lon="4.0229">
        <ele>107</ele>
        <time>2019-04-07T11:08:58Z</time>
      </trkpt>
      <trkpt lat="49.38352" lon="4.02288">
        <ele>106</ele>
        <time>2019-04-07T11:08:59Z</time>
      </trkpt>
      <trkpt lat="49.38345" lon="4.02286">
        <ele>106</ele>
        <time>2019-04-07T11:09:00Z</time>
      </trkpt>
      <trkpt lat="49.38339" lon="4.02285">
        <ele>106</ele>
        <time>2019-04-07T11:09:01Z</time>
      </trkpt>
      <trkpt lat="49.38332" lon="4.02285">
        <ele>105</ele>
        <time>2019-04-07T11:09:02Z</time>
      </trkpt>
      <trkpt lat="49.38326" lon="4.02285">
        <ele>105</ele>
        <time>2019-04-07T11:09:03Z</time>
      </trkpt>
      <trkpt lat="49.38319" lon="4.02286">
        <ele>105</ele>
        <time>2019-04-07T11:09:04Z</time>
      </trkpt>
      <trkpt lat="49.38312" lon="4.02287">
        <ele>104</ele>
        <time>2019-04-07T11:09:05Z</time>
      </trkpt>
      <trkpt lat="49.38306" lon="4.02289">
        <ele>104</ele>
        <time>2019-04-07T11:09:06Z</time>
      </trkpt>
      <trkpt lat="49.38299" lon="4.0229">
        <ele>104</ele>
        <time>2019-04-07T11:09:07Z</time>
      </trkpt>
      <trkpt lat="49.38292" lon="4.0229">
        <ele>104</ele>
        <time>2019-04-07T11:09:08Z</time>
      </trkpt>
      <trkpt lat="49.38286" lon="4.02291">
        <ele>104</ele>
        <time>2019-04-07T11:09:09Z</time>
      </trkpt>
      <trkpt lat="49.38279" lon="4.02292">
        <ele>105</ele>
        <time>2019-04-07T11:09:10Z</time>
      </trkpt>
      <trkpt lat="49.38272" lon="4.02293">
        <ele>105</ele>
        <time>2019-04-07T11:09:11Z</time>
      </trkpt>
      <trkpt lat="49.38266" lon="4.02294">
        <ele>105</ele>
        <time>2019-04-07T11:09:12Z</time>
      </trkpt>
      <trkpt lat="49.3826" lon="4.02294">
        <ele>105</ele>
        <time>2019-04-07T11:09:13Z</time>
      </trkpt>
      <trkpt lat="49.38254" lon="4.02294">
        <ele>104</ele>
        <time>2019-04-07T11:09:14Z</time>
      </trkpt>
      <trkpt lat="49.38247" lon="4.02293">
        <ele>104</ele>
        <time>2019-04-07T11:09:15Z</time>
      </trkpt>
      <trkpt lat="49.38241" lon="4.02292">
        <ele>104</ele>
        <time>2019-04-07T11:09:16Z</time>
      </trkpt>
      <trkpt lat="49.38235" lon="4.02292">
        <ele>104</ele>
        <time>2019-04-07T11:09:17Z</time>
      </trkpt>
      <trkpt lat="49.38229" lon="4.0229">
        <ele>104</ele>
        <time>2019-04-07T11:09:18Z</time>
      </trkpt>
      <trkpt lat="49.38223" lon="4.02288">
        <ele>104</ele>
        <time>2019-04-07T11:09:19Z</time>
      </trkpt>
      <trkpt lat="49.38217" lon="4.02285">
        <ele>104</ele>
        <time>2019-04-07T11:09:20Z</time>
      </trkpt>
      <trkpt lat="49.38212" lon="4.02282">
        <ele>104</ele>
        <time>2019-04-07T11:09:21Z</time>
      </trkpt>
      <trkpt lat="49.38206" lon="4.02278">
        <ele>104</ele>
        <time>2019-04-07T11:09:22Z</time>
      </trkpt>
      <trkpt lat="49.38201" lon="4.02273">
        <ele>105</ele>
        <time>2019-04-07T11:09:23Z</time>
      </trkpt>
      <trkpt lat="49.38196" lon="4.02269">
        <ele>104</ele>
        <time>2019-04-07T11:09:24Z</time>
      </trkpt>
      <trkpt lat="49.38191" lon="4.02264">
        <ele>104</ele>
        <time>2019-04-07T11:09:25Z</time>
      </trkpt>
      <trkpt lat="49.38186" lon="4.0226">
        <ele>104</ele>
        <time>2019-04-07T11:09:26Z</time>
      </trkpt>
      <trkpt lat="49.38182" lon="4.02256">
        <ele>104</ele>
        <time>2019-04-07T11:09:27Z</time>
      </trkpt>
      <trkpt lat="49.38177" lon="4.02253">
        <ele>104</ele>
        <time>2019-04-07T11:09:28Z</time>
      </trkpt>
      <trkpt lat="49.38173" lon="4.02249">
        <ele>104</ele>
        <time>2019-04-07T11:09:29Z</time>
      </trkpt>
      <trkpt lat="49.38169" lon="4.02246">
        <ele>104</ele>
        <time>2019-04-07T11:09:30Z</time>
      </trkpt>
      <trkpt lat="49.38165" lon="4.02243">
        <ele>104</ele>
        <time>2019-04-07T11:09:31Z</time>
      </trkpt>
      <trkpt lat="49.38161" lon="4.0224">
        <ele>105</ele>
        <time>2019-04-07T11:09:32Z</time>
      </trkpt>
      <trkpt lat="49.38157" lon="4.02237">
        <ele>105</ele>
        <time>2019-04-07T11:09:33Z</time>
      </trkpt>
      <trkpt lat="49.38152" lon="4.02235">
        <ele>105</ele>
        <time>2019-04-07T11:09:34Z</time>
      </trkpt>
      <trkpt lat="49.38148" lon="4.02232">
        <ele>105</ele>
        <time>2019-04-07T11:09:35Z</time>
      </trkpt>
      <trkpt lat="49.38144" lon="4.02231">
        <ele>106</ele>
        <time>2019-04-07T11:09:36Z</time>
      </trkpt>
      <trkpt lat="49.38139" lon="4.0223">
        <ele>106</ele>
        <time>2019-04-07T11:09:37Z</time>
      </trkpt>
      <trkpt lat="49.38135" lon="4.02228">
        <ele>106</ele>
        <time>2019-04-07T11:09:38Z</time>
      </trkpt>
      <trkpt lat="49.3813" lon="4.02227">
        <ele>107</ele>
        <time>2019-04-07T11:09:39Z</time>
      </trkpt>
      <trkpt lat="49.38125" lon="4.02226">
        <ele>107</ele>
        <time>2019-04-07T11:09:40Z</time>
      </trkpt>
      <trkpt lat="49.3812" lon="4.02225">
        <ele>108</ele>
        <time>2019-04-07T11:09:41Z</time>
      </trkpt>
      <trkpt lat="49.38116" lon="4.02224">
        <ele>108</ele>
        <time>2019-04-07T11:09:42Z</time>
      </trkpt>
      <trkpt lat="49.38111" lon="4.02222">
        <ele>108</ele>
        <time>2019-04-07T11:09:43Z</time>
      </trkpt>
      <trkpt lat="49.38107" lon="4.02221">
        <ele>108</ele>
        <time>2019-04-07T11:09:44Z</time>
      </trkpt>
      <trkpt lat="49.38103" lon="4.02219">
        <ele>108</ele>
        <time>2019-04-07T11:09:45Z</time>
      </trkpt>
      <trkpt lat="49.381" lon="4.02218">
        <ele>108</ele>
        <time>2019-04-07T11:09:46Z</time>
      </trkpt>
      <trkpt lat="49.38097" lon="4.02217">
        <ele>108</ele>
        <time>2019-04-07T11:09:47Z</time>
      </trkpt>
      <trkpt lat="49.38094" lon="4.02216">
        <ele>108</ele>
        <time>2019-04-07T11:09:48Z</time>
      </trkpt>
      <trkpt lat="49.38091" lon="4.02214">
        <ele>108</ele>
        <time>2019-04-07T11:09:49Z</time>
      </trkpt>
      <trkpt lat="49.38089" lon="4.02213">
        <ele>108</ele>
        <time>2019-04-07T11:09:50Z</time>
      </trkpt>
      <trkpt lat="49.38087" lon="4.02211">
        <ele>108</ele>
        <time>2019-04-07T11:09:51Z</time>
      </trkpt>
      <trkpt lat="49.38086" lon="4.0221">
        <ele>109</ele>
        <time>2019-04-07T11:09:52Z</time>
      </trkpt>
      <trkpt lat="49.38085" lon="4.0221">
        <ele>109</ele>
        <time>2019-04-07T11:09:53Z</time>
      </trkpt>
      <trkpt lat="49.38084" lon="4.0221">
        <ele>109</ele>
        <time>2019-04-07T11:09:54Z</time>
      </trkpt>
      <trkpt lat="49.38082" lon="4.0221">
        <ele>109</ele>
        <time>2019-04-07T11:09:55Z</time>
      </trkpt>
      <trkpt lat="49.3808" lon="4.0221">
        <ele>109</ele>
        <time>2019-04-07T11:09:56Z</time>
      </trkpt>
      <trkpt lat="49.38078" lon="4.0221">
        <ele>109</ele>
        <time>2019-04-07T11:09:57Z</time>
      </trkpt>
      <trkpt lat="49.38076" lon="4.0221">
        <ele>109</ele>
        <time>2019-04-07T11:09:58Z</time>
      </trkpt>
      <trkpt lat="49.38074" lon="4.0221">
        <ele>109</ele>
        <time>2019-04-07T11:09:59Z</time>
      </trkpt>
      <trkpt lat="49.38072" lon="4.0221">
        <ele>109</ele>
        <time>2019-04-07T11:10:00Z</time>
      </trkpt>
      <trkpt lat="49.38069" lon="4.02209">
        <ele>109</ele>
        <time>2019-04-07T11:10:01Z</time>
      </trkpt>
      <trkpt lat="49.38067" lon="4.02208">
        <ele>109</ele>
        <time>2019-04-07T11:10:02Z</time>
      </trkpt>
      <trkpt lat="49.38064" lon="4.02208">
        <ele>109</ele>
        <time>2019-04-07T11:10:03Z</time>
      </trkpt>
      <trkpt lat="49.38061" lon="4.02207">
        <ele>110</ele>
        <time>2019-04-07T11:10:04Z</time>
      </trkpt>
      <trkpt lat="49.38058" lon="4.02207">
        <ele>110</ele>
        <time>2019-04-07T11:10:05Z</time>
      </trkpt>
      <trkpt lat="49.38055" lon="4.02206">
        <ele>110</ele>
        <time>2019-04-07T11:10:06Z</time>
      </trkpt>
      <trkpt lat="49.38052" lon="4.02204">
        <ele>110</ele>
        <time>2019-04-07T11:10:07Z</time>
      </trkpt>
      <trkpt lat="49.38048" lon="4.02203">
        <ele>110</ele>
        <time>2019-04-07T11:10:08Z</time>
      </trkpt>
      <trkpt lat="49.38044" lon="4.02202">
        <ele>110</ele>
        <time>2019-04-07T11:10:09Z</time>
      </trkpt>
      <trkpt lat="49.38041" lon="4.02202">
        <ele>110</ele>
        <time>2019-04-07T11:10:10Z</time>
      </trkpt>
      <trkpt lat="49.38037" lon="4.02201">
        <ele>110</ele>
        <time>2019-04-07T11:10:11Z</time>
      </trkpt>
      <trkpt lat="49.38033" lon="4.02199">
        <ele>110</ele>
        <time>2019-04-07T11:10:12Z</time>
      </trkpt>
      <trkpt lat="49.38029" lon="4.02197">
        <ele>110</ele>
        <time>2019-04-07T11:10:13Z</time>
      </trkpt>
      <trkpt lat="49.38025" lon="4.02195">
        <ele>110</ele>
        <time>2019-04-07T11:10:14Z</time>
      </trkpt>
      <trkpt lat="49.38021" lon="4.02193">
        <ele>110</ele>
        <time>2019-04-07T11:10:15Z</time>
      </trkpt>
      <trkpt lat="49.38016" lon="4.02192">
        <ele>110</ele>
        <time>2019-04-07T11:10:16Z</time>
      </trkpt>
      <trkpt lat="49.38012" lon="4.0219">
        <ele>110</ele>
        <time>2019-04-07T11:10:17Z</time>
      </trkpt>
      <trkpt lat="49.38008" lon="4.02189">
        <ele>110</ele>
        <time>2019-04-07T11:10:18Z</time>
      </trkpt>
      <trkpt lat="49.38004" lon="4.02188">
        <ele>111</ele>
        <time>2019-04-07T11:10:19Z</time>
      </trkpt>
      <trkpt lat="49.38001" lon="4.02186">
        <ele>111</ele>
        <time>2019-04-07T11:10:20Z</time>
      </trkpt>
      <trkpt lat="49.37997" lon="4.02184">
        <ele>111</ele>
        <time>2019-04-07T11:10:21Z</time>
      </trkpt>
      <trkpt lat="49.37993" lon="4.02183">
        <ele>111</ele>
        <time>2019-04-07T11:10:22Z</time>
      </trkpt>
      <trkpt lat="49.37989" lon="4.02181">
        <ele>111</ele>
        <time>2019-04-07T11:10:23Z</time>
      </trkpt>
      <trkpt lat="49.37985" lon="4.02179">
        <ele>111</ele>
        <time>2019-04-07T11:10:24Z</time>
      </trkpt>
      <trkpt lat="49.37981" lon="4.02178">
        <ele>111</ele>
        <time>2019-04-07T11:10:25Z</time>
      </trkpt>
      <trkpt lat="49.37976" lon="4.02177">
        <ele>111</ele>
        <time>2019-04-07T11:10:26Z</time>
      </trkpt>
      <trkpt lat="49.37972" lon="4.02176">
        <ele>111</ele>
        <time>2019-04-07T11:10:27Z</time>
      </trkpt>
      <trkpt lat="49.37968" lon="4.02176">
        <ele>111</ele>
        <time>2019-04-07T11:10:28Z</time>
      </trkpt>
      <trkpt lat="49.37963" lon="4.02175">
        <ele>110</ele>
        <time>2019-04-07T11:10:29Z</time>
      </trkpt>
      <trkpt lat="49.37959" lon="4.02175">
        <ele>110</ele>
        <time>2019-04-07T11:10:30Z</time>
      </trkpt>
      <trkpt lat="49.37954" lon="4.02174">
        <ele>110</ele>
        <time>2019-04-07T11:10:31Z</time>
      </trkpt>
      <trkpt lat="49.3795" lon="4.02174">
        <ele>111</ele>
        <time>2019-04-07T11:10:32Z</time>
      </trkpt>
      <trkpt lat="49.37946" lon="4.02174">
        <ele>111</ele>
        <time>2019-04-07T11:10:33Z</time>
      </trkpt>
      <trkpt lat="49.37941" lon="4.02173">
        <ele>111</ele>
        <time>2019-04-07T11:10:34Z</time>
      </trkpt>
      <trkpt lat="49.37937" lon="4.02173">
        <ele>111</ele>
        <time>2019-04-07T11:10:35Z</time>
      </trkpt>
      <trkpt lat="49.37932" lon="4.02172">
        <ele>111</ele>
        <time>2019-04-07T11:10:36Z</time>
      </trkpt>
      <trkpt lat="49.37927" lon="4.02172">
        <ele>111</ele>
        <time>2019-04-07T11:10:37Z</time>
      </trkpt>
      <trkpt lat="49.37923" lon="4.02171">
        <ele>111</ele>
        <time>2019-04-07T11:10:38Z</time>
      </trkpt>
      <trkpt lat="49.37919" lon="4.0217">
        <ele>111</ele>
        <time>2019-04-07T11:10:39Z</time>
      </trkpt>
      <trkpt lat="49.37915" lon="4.0217">
        <ele>111</ele>
        <time>2019-04-07T11:10:40Z</time>
      </trkpt>
      <trkpt lat="49.37911" lon="4.0217">
        <ele>111</ele>
        <time>2019-04-07T11:10:41Z</time>
      </trkpt>
      <trkpt lat="49.37907" lon="4.0217">
        <ele>111</ele>
        <time>2019-04-07T11:10:42Z</time>
      </trkpt>
      <trkpt lat="49.37903" lon="4.02169">
        <ele>112</ele>
        <time>2019-04-07T11:10:43Z</time>
      </trkpt>
      <trkpt lat="49.37899" lon="4.02169">
        <ele>112</ele>
        <time>2019-04-07T11:10:44Z</time>
      </trkpt>
      <trkpt lat="49.37895" lon="4.02169">
        <ele>112</ele>
        <time>2019-04-07T11:10:45Z</time>
      </trkpt>
      <trkpt lat="49.37891" lon="4.02168">
        <ele>112</ele>
        <time>2019-04-07T11:10:46Z</time>
      </trkpt>
      <trkpt lat="49.37887" lon="4.02168">
        <ele>113</ele>
        <time>2019-04-07T11:10:47Z</time>
      </trkpt>
      <trkpt lat="49.37884" lon="4.02167">
        <ele>113</ele>
        <time>2019-04-07T11:10:48Z</time>
      </trkpt>
      <trkpt lat="49.3788" lon="4.02166">
        <ele>113</ele>
        <time>2019-04-07T11:10:49Z</time>
      </trkpt>
      <trkpt lat="49.37876" lon="4.02165">
        <ele>113</ele>
        <time>2019-04-07T11:10:50Z</time>
      </trkpt>
      <trkpt lat="49.37872" lon="4.02165">
        <ele>114</ele>
        <time>2019-04-07T11:10:51Z</time>
      </trkpt>
      <trkpt lat="49.37868" lon="4.02164">
        <ele>114</ele>
        <time>2019-04-07T11:10:52Z</time>
      </trkpt>
      <trkpt lat="49.37864" lon="4.02164">
        <ele>114</ele>
        <time>2019-04-07T11:10:53Z</time>
      </trkpt>
      <trkpt lat="49.3786" lon="4.02163">
        <ele>114</ele>
        <time>2019-04-07T11:10:54Z</time>
      </trkpt>
      <trkpt lat="49.37857" lon="4.02162">
        <ele>115</ele>
        <time>2019-04-07T11:10:55Z</time>
      </trkpt>
      <trkpt lat="49.37853" lon="4.02161">
        <ele>115</ele>
        <time>2019-04-07T11:10:56Z</time>
      </trkpt>
      <trkpt lat="49.37849" lon="4.0216">
        <ele>115</ele>
        <time>2019-04-07T11:10:57Z</time>
      </trkpt>
      <trkpt lat="49.37845" lon="4.02159">
        <ele>114</ele>
        <time>2019-04-07T11:10:58Z</time>
      </trkpt>
      <trkpt lat="49.37841" lon="4.02158">
        <ele>114</ele>
        <time>2019-04-07T11:10:59Z</time>
      </trkpt>
      <trkpt lat="49.37837" lon="4.02157">
        <ele>114</ele>
        <time>2019-04-07T11:11:00Z</time>
      </trkpt>
      <trkpt lat="49.37833" lon="4.02156">
        <ele>114</ele>
        <time>2019-04-07T11:11:01Z</time>
      </trkpt>
      <trkpt lat="49.37829" lon="4.02154">
        <ele>114</ele>
        <time>2019-04-07T11:11:02Z</time>
      </trkpt>
      <trkpt lat="49.37825" lon="4.02153">
        <ele>114</ele>
        <time>2019-04-07T11:11:03Z</time>
      </trkpt>
      <trkpt lat="49.37822" lon="4.02152">
        <ele>114</ele>
        <time>2019-04-07T11:11:04Z</time>
      </trkpt>
      <trkpt lat="49.37818" lon="4.02151">
        <ele>114</ele>
        <time>2019-04-07T11:11:05Z</time>
      </trkpt>
      <trkpt lat="49.37814" lon="4.02149">
        <ele>114</ele>
        <time>2019-04-07T11:11:06Z</time>
      </trkpt>
      <trkpt lat="49.3781" lon="4.02146">
        <ele>114</ele>
        <time>2019-04-07T11:11:07Z</time>
      </trkpt>
      <trkpt lat="49.37806" lon="4.02142">
        <ele>114</ele>
        <time>2019-04-07T11:11:08Z</time>
      </trkpt>
      <trkpt lat="49.37802" lon="4.02139">
        <ele>115</ele>
        <time>2019-04-07T11:11:09Z</time>
      </trkpt>
      <trkpt lat="49.37799" lon="4.02135">
        <ele>115</ele>
        <time>2019-04-07T11:11:10Z</time>
      </trkpt>
      <trkpt lat="49.37796" lon="4.02131">
        <ele>115</ele>
        <time>2019-04-07T11:11:11Z</time>
      </trkpt>
      <trkpt lat="49.37791" lon="4.02121">
        <ele>115</ele>
        <time>2019-04-07T11:11:13Z</time>
      </trkpt>
      <trkpt lat="49.37789" lon="4.02116">
        <ele>116</ele>
        <time>2019-04-07T11:11:14Z</time>
      </trkpt>
      <trkpt lat="49.37787" lon="4.0211">
        <ele>116</ele>
        <time>2019-04-07T11:11:15Z</time>
      </trkpt>
      <trkpt lat="49.37785" lon="4.02105">
        <ele>116</ele>
        <time>2019-04-07T11:11:16Z</time>
      </trkpt>
      <trkpt lat="49.37782" lon="4.02099">
        <ele>116</ele>
        <time>2019-04-07T11:11:17Z</time>
      </trkpt>
      <trkpt lat="49.3778" lon="4.02093">
        <ele>116</ele>
        <time>2019-04-07T11:11:18Z</time>
      </trkpt>
      <trkpt lat="49.37778" lon="4.02087">
        <ele>116</ele>
        <time>2019-04-07T11:11:19Z</time>
      </trkpt>
      <trkpt lat="49.37776" lon="4.02081">
        <ele>116</ele>
        <time>2019-04-07T11:11:20Z</time>
      </trkpt>
      <trkpt lat="49.37773" lon="4.02075">
        <ele>117</ele>
        <time>2019-04-07T11:11:21Z</time>
      </trkpt>
      <trkpt lat="49.37771" lon="4.02069">
        <ele>117</ele>
        <time>2019-04-07T11:11:22Z</time>
      </trkpt>
      <trkpt lat="49.37768" lon="4.02063">
        <ele>116</ele>
        <time>2019-04-07T11:11:23Z</time>
      </trkpt>
      <trkpt lat="49.37766" lon="4.02058">
        <ele>117</ele>
        <time>2019-04-07T11:11:24Z</time>
      </trkpt>
      <trkpt lat="49.37764" lon="4.02052">
        <ele>116</ele>
        <time>2019-04-07T11:11:25Z</time>
      </trkpt>
      <trkpt lat="49.37761" lon="4.02045">
        <ele>116</ele>
        <time>2019-04-07T11:11:26Z</time>
      </trkpt>
      <trkpt lat="49.37759" lon="4.02039">
        <ele>116</ele>
        <time>2019-04-07T11:11:27Z</time>
      </trkpt>
      <trkpt lat="49.37756" lon="4.02033">
        <ele>116</ele>
        <time>2019-04-07T11:11:28Z</time>
      </trkpt>
      <trkpt lat="49.37754" lon="4.02026">
        <ele>116</ele>
        <time>2019-04-07T11:11:29Z</time>
      </trkpt>
      <trkpt lat="49.37751" lon="4.0202">
        <ele>116</ele>
        <time>2019-04-07T11:11:30Z</time>
      </trkpt>
      <trkpt lat="49.37749" lon="4.02014">
        <ele>116</ele>
        <time>2019-04-07T11:11:31Z</time>
      </trkpt>
      <trkpt lat="49.37746" lon="4.02007">
        <ele>116</ele>
        <time>2019-04-07T11:11:32Z</time>
      </trkpt>
      <trkpt lat="49.37743" lon="4.02001">
        <ele>117</ele>
        <time>2019-04-07T11:11:33Z</time>
      </trkpt>
      <trkpt lat="49.3774" lon="4.01995">
        <ele>116</ele>
        <time>2019-04-07T11:11:34Z</time>
      </trkpt>
      <trkpt lat="49.37738" lon="4.01988">
        <ele>116</ele>
        <time>2019-04-07T11:11:35Z</time>
      </trkpt>
      <trkpt lat="49.37735" lon="4.01982">
        <ele>116</ele>
        <time>2019-04-07T11:11:36Z</time>
      </trkpt>
      <trkpt lat="49.37733" lon="4.01976">
        <ele>117</ele>
        <time>2019-04-07T11:11:37Z</time>
      </trkpt>
      <trkpt lat="49.3773" lon="4.0197">
        <ele>117</ele>
        <time>2019-04-07T11:11:38Z</time>
      </trkpt>
      <trkpt lat="49.37728" lon="4.01963">
        <ele>116</ele>
        <time>2019-04-07T11:11:39Z</time>
      </trkpt>
      <trkpt lat="49.37725" lon="4.01957">
        <ele>116</ele>
        <time>2019-04-07T11:11:40Z</time>
      </trkpt>
      <trkpt lat="49.37722" lon="4.0195">
        <ele>117</ele>
        <time>2019-04-07T11:11:41Z</time>
      </trkpt>
      <trkpt lat="49.3772" lon="4.01944">
        <ele>117</ele>
        <time>2019-04-07T11:11:42Z</time>
      </trkpt>
      <trkpt lat="49.37717" lon="4.01937">
        <ele>117</ele>
        <time>2019-04-07T11:11:43Z</time>
      </trkpt>
      <trkpt lat="49.37714" lon="4.01931">
        <ele>117</ele>
        <time>2019-04-07T11:11:44Z</time>
      </trkpt>
      <trkpt lat="49.37712" lon="4.01925">
        <ele>117</ele>
        <time>2019-04-07T11:11:45Z</time>
      </trkpt>
      <trkpt lat="49.37709" lon="4.01919">
        <ele>117</ele>
        <time>2019-04-07T11:11:46Z</time>
      </trkpt>
      <trkpt lat="49.37706" lon="4.01912">
        <ele>117</ele>
        <time>2019-04-07T11:11:47Z</time>
      </trkpt>
      <trkpt lat="49.37704" lon="4.01906">
        <ele>118</ele>
        <time>2019-04-07T11:11:48Z</time>
      </trkpt>
      <trkpt lat="49.37701" lon="4.01899">
        <ele>118</ele>
        <time>2019-04-07T11:11:49Z</time>
      </trkpt>
      <trkpt lat="49.37698" lon="4.01892">
        <ele>118</ele>
        <time>2019-04-07T11:11:50Z</time>
      </trkpt>
      <trkpt lat="49.37696" lon="4.01886">
        <ele>118</ele>
        <time>2019-04-07T11:11:51Z</time>
      </trkpt>
      <trkpt lat="49.37693" lon="4.01879">
        <ele>118</ele>
        <time>2019-04-07T11:11:52Z</time>
      </trkpt>
      <trkpt lat="49.37691" lon="4.01872">
        <ele>118</ele>
        <time>2019-04-07T11:11:53Z</time>
      </trkpt>
      <trkpt lat="49.37688" lon="4.01866">
        <ele>118</ele>
        <time>2019-04-07T11:11:54Z</time>
      </trkpt>
      <trkpt lat="49.37686" lon="4.0186">
        <ele>118</ele>
        <time>2019-04-07T11:11:55Z</time>
      </trkpt>
      <trkpt lat="49.37683" lon="4.01854">
        <ele>118</ele>
        <time>2019-04-07T11:11:56Z</time>
      </trkpt>
      <trkpt lat="49.3768" lon="4.01847">
        <ele>118</ele>
        <time>2019-04-07T11:11:57Z</time>
      </trkpt>
      <trkpt lat="49.37678" lon="4.01841">
        <ele>118</ele>
        <time>2019-04-07T11:11:58Z</time>
      </trkpt>
      <trkpt lat="49.37675" lon="4.01835">
        <ele>118</ele>
        <time>2019-04-07T11:11:59Z</time>
      </trkpt>
      <trkpt lat="49.37672" lon="4.01828">
        <ele>118</ele>
        <time>2019-04-07T11:12:00Z</time>
      </trkpt>
      <trkpt lat="49.37669" lon="4.01822">
        <ele>118</ele>
        <time>2019-04-07T11:12:01Z</time>
      </trkpt>
      <trkpt lat="49.37666" lon="4.01816">
        <ele>118</ele>
        <time>2019-04-07T11:12:02Z</time>
      </trkpt>
      <trkpt lat="49.37663" lon="4.0181">
        <ele>118</ele>
        <time>2019-04-07T11:12:03Z</time>
      </trkpt>
      <trkpt lat="49.3766" lon="4.01803">
        <ele>117</ele>
        <time>2019-04-07T11:12:04Z</time>
      </trkpt>
      <trkpt lat="49.37657" lon="4.01797">
        <ele>117</ele>
        <time>2019-04-07T11:12:05Z</time>
      </trkpt>
      <trkpt lat="49.37653" lon="4.01791">
        <ele>117</ele>
        <time>2019-04-07T11:12:06Z</time>
      </trkpt>
      <trkpt lat="49.37649" lon="4.01785">
        <ele>117</ele>
        <time>2019-04-07T11:12:07Z</time>
      </trkpt>
      <trkpt lat="49.37646" lon="4.01778">
        <ele>117</ele>
        <time>2019-04-07T11:12:08Z</time>
      </trkpt>
      <trkpt lat="49.37641" lon="4.01772">
        <ele>117</ele>
        <time>2019-04-07T11:12:09Z</time>
      </trkpt>
      <trkpt lat="49.37637" lon="4.01766">
        <ele>117</ele>
        <time>2019-04-07T11:12:10Z</time>
      </trkpt>
      <trkpt lat="49.37633" lon="4.0176">
        <ele>117</ele>
        <time>2019-04-07T11:12:11Z</time>
      </trkpt>
      <trkpt lat="49.37629" lon="4.01754">
        <ele>117</ele>
        <time>2019-04-07T11:12:12Z</time>
      </trkpt>
      <trkpt lat="49.37624" lon="4.01748">
        <ele>117</ele>
        <time>2019-04-07T11:12:13Z</time>
      </trkpt>
      <trkpt lat="49.3762" lon="4.01742">
        <ele>117</ele>
        <time>2019-04-07T11:12:14Z</time>
      </trkpt>
      <trkpt lat="49.37615" lon="4.01737">
        <ele>117</ele>
        <time>2019-04-07T11:12:15Z</time>
      </trkpt>
      <trkpt lat="49.3761" lon="4.01731">
        <ele>117</ele>
        <time>2019-04-07T11:12:16Z</time>
      </trkpt>
      <trkpt lat="49.37606" lon="4.01726">
        <ele>117</ele>
        <time>2019-04-07T11:12:17Z</time>
      </trkpt>
      <trkpt lat="49.37601" lon="4.0172">
        <ele>117</ele>
        <time>2019-04-07T11:12:18Z</time>
      </trkpt>
      <trkpt lat="49.37597" lon="4.01714">
        <ele>117</ele>
        <time>2019-04-07T11:12:19Z</time>
      </trkpt>
      <trkpt lat="49.37592" lon="4.01708">
        <ele>117</ele>
        <time>2019-04-07T11:12:20Z</time>
      </trkpt>
      <trkpt lat="49.37587" lon="4.01702">
        <ele>117</ele>
        <time>2019-04-07T11:12:21Z</time>
      </trkpt>
      <trkpt lat="49.37582" lon="4.01697">
        <ele>117</ele>
        <time>2019-04-07T11:12:22Z</time>
      </trkpt>
      <trkpt lat="49.37578" lon="4.01691">
        <ele>117</ele>
        <time>2019-04-07T11:12:23Z</time>
      </trkpt>
      <trkpt lat="49.37573" lon="4.01685">
        <ele>117</ele>
        <time>2019-04-07T11:12:24Z</time>
      </trkpt>
      <trkpt lat="49.37568" lon="4.01678">
        <ele>117</ele>
        <time>2019-04-07T11:12:25Z</time>
      </trkpt>
      <trkpt lat="49.37563" lon="4.01672">
        <ele>117</ele>
        <time>2019-04-07T11:12:26Z</time>
      </trkpt>
      <trkpt lat="49.37558" lon="4.01665">
        <ele>117</ele>
        <time>2019-04-07T11:12:27Z</time>
      </trkpt>
      <trkpt lat="49.37552" lon="4.01659">
        <ele>117</ele>
        <time>2019-04-07T11:12:28Z</time>
      </trkpt>
      <trkpt lat="49.37547" lon="4.01652">
        <ele>116</ele>
        <time>2019-04-07T11:12:29Z</time>
      </trkpt>
      <trkpt lat="49.37541" lon="4.01646">
        <ele>116</ele>
        <time>2019-04-07T11:12:30Z</time>
      </trkpt>
      <trkpt lat="49.37536" lon="4.01639">
        <ele>116</ele>
        <time>2019-04-07T11:12:31Z</time>
      </trkpt>
      <trkpt lat="49.3753" lon="4.01633">
        <ele>116</ele>
        <time>2019-04-07T11:12:32Z</time>
      </trkpt>
      <trkpt lat="49.37525" lon="4.01626">
        <ele>116</ele>
        <time>2019-04-07T11:12:33Z</time>
      </trkpt>
      <trkpt lat="49.37519" lon="4.01619">
        <ele>116</ele>
        <time>2019-04-07T11:12:34Z</time>
      </trkpt>
      <trkpt lat="49.37513" lon="4.01612">
        <ele>116</ele>
        <time>2019-04-07T11:12:35Z</time>
      </trkpt>
      <trkpt lat="49.37508" lon="4.01604">
        <ele>116</ele>
        <time>2019-04-07T11:12:36Z</time>
      </trkpt>
      <trkpt lat="49.37502" lon="4.01597">
        <ele>116</ele>
        <time>2019-04-07T11:12:37Z</time>
      </trkpt>
      <trkpt lat="49.37496" lon="4.01589">
        <ele>115</ele>
        <time>2019-04-07T11:12:38Z</time>
      </trkpt>
      <trkpt lat="49.37489" lon="4.01582">
        <ele>115</ele>
        <time>2019-04-07T11:12:39Z</time>
      </trkpt>
      <trkpt lat="49.37483" lon="4.01574">
        <ele>115</ele>
        <time>2019-04-07T11:12:40Z</time>
      </trkpt>
      <trkpt lat="49.37476" lon="4.01566">
        <ele>115</ele>
        <time>2019-04-07T11:12:41Z</time>
      </trkpt>
      <trkpt lat="49.3747" lon="4.01558">
        <ele>115</ele>
        <time>2019-04-07T11:12:42Z</time>
      </trkpt>
      <trkpt lat="49.37457" lon="4.01542">
        <ele>115</ele>
        <time>2019-04-07T11:12:44Z</time>
      </trkpt>
      <trkpt lat="49.37451" lon="4.01534">
        <ele>115</ele>
        <time>2019-04-07T11:12:45Z</time>
      </trkpt>
      <trkpt lat="49.37445" lon="4.01527">
        <ele>115</ele>
        <time>2019-04-07T11:12:46Z</time>
      </trkpt>
      <trkpt lat="49.37439" lon="4.0152">
        <ele>115</ele>
        <time>2019-04-07T11:12:47Z</time>
      </trkpt>
      <trkpt lat="49.37433" lon="4.01512">
        <ele>114</ele>
        <time>2019-04-07T11:12:48Z</time>
      </trkpt>
      <trkpt lat="49.37427" lon="4.01505">
        <ele>114</ele>
        <time>2019-04-07T11:12:49Z</time>
      </trkpt>
      <trkpt lat="49.37421" lon="4.01498">
        <ele>114</ele>
        <time>2019-04-07T11:12:50Z</time>
      </trkpt>
      <trkpt lat="49.37415" lon="4.01491">
        <ele>114</ele>
        <time>2019-04-07T11:12:51Z</time>
      </trkpt>
      <trkpt lat="49.3741" lon="4.01484">
        <ele>114</ele>
        <time>2019-04-07T11:12:52Z</time>
      </trkpt>
      <trkpt lat="49.37404" lon="4.01476">
        <ele>114</ele>
        <time>2019-04-07T11:12:53Z</time>
      </trkpt>
      <trkpt lat="49.37399" lon="4.0147">
        <ele>114</ele>
        <time>2019-04-07T11:12:54Z</time>
      </trkpt>
      <trkpt lat="49.37394" lon="4.01463">
        <ele>114</ele>
        <time>2019-04-07T11:12:55Z</time>
      </trkpt>
      <trkpt lat="49.37388" lon="4.01457">
        <ele>114</ele>
        <time>2019-04-07T11:12:56Z</time>
      </trkpt>
      <trkpt lat="49.37383" lon="4.0145">
        <ele>114</ele>
        <time>2019-04-07T11:12:57Z</time>
      </trkpt>
      <trkpt lat="49.37378" lon="4.01444">
        <ele>114</ele>
        <time>2019-04-07T11:12:58Z</time>
      </trkpt>
      <trkpt lat="49.37373" lon="4.01438">
        <ele>114</ele>
        <time>2019-04-07T11:12:59Z</time>
      </trkpt>
      <trkpt lat="49.37368" lon="4.01432">
        <ele>114</ele>
        <time>2019-04-07T11:13:00Z</time>
      </trkpt>
      <trkpt lat="49.37363" lon="4.01426">
        <ele>115</ele>
        <time>2019-04-07T11:13:01Z</time>
      </trkpt>
      <trkpt lat="49.37358" lon="4.0142">
        <ele>114</ele>
        <time>2019-04-07T11:13:02Z</time>
      </trkpt>
      <trkpt lat="49.37353" lon="4.01415">
        <ele>115</ele>
        <time>2019-04-07T11:13:03Z</time>
      </trkpt>
      <trkpt lat="49.37349" lon="4.01409">
        <ele>115</ele>
        <time>2019-04-07T11:13:04Z</time>
      </trkpt>
      <trkpt lat="49.37345" lon="4.01404">
        <ele>115</ele>
        <time>2019-04-07T11:13:05Z</time>
      </trkpt>
      <trkpt lat="49.3734" lon="4.01398">
        <ele>115</ele>
        <time>2019-04-07T11:13:06Z</time>
      </trkpt>
      <trkpt lat="49.37336" lon="4.01393">
        <ele>115</ele>
        <time>2019-04-07T11:13:07Z</time>
      </trkpt>
      <trkpt lat="49.37332" lon="4.01388">
        <ele>115</ele>
        <time>2019-04-07T11:13:08Z</time>
      </trkpt>
      <trkpt lat="49.37327" lon="4.01383">
        <ele>115</ele>
        <time>2019-04-07T11:13:09Z</time>
      </trkpt>
      <trkpt lat="49.37323" lon="4.01378">
        <ele>115</ele>
        <time>2019-04-07T11:13:10Z</time>
      </trkpt>
      <trkpt lat="49.37319" lon="4.01373">
        <ele>116</ele>
        <time>2019-04-07T11:13:11Z</time>
      </trkpt>
      <trkpt lat="49.37315" lon="4.01368">
        <ele>116</ele>
        <time>2019-04-07T11:13:12Z</time>
      </trkpt>
      <trkpt lat="49.3731" lon="4.01363">
        <ele>116</ele>
        <time>2019-04-07T11:13:13Z</time>
      </trkpt>
      <trkpt lat="49.37307" lon="4.01358">
        <ele>116</ele>
        <time>2019-04-07T11:13:14Z</time>
      </trkpt>
      <trkpt lat="49.37303" lon="4.01353">
        <ele>116</ele>
        <time>2019-04-07T11:13:15Z</time>
      </trkpt>
      <trkpt lat="49.37299" lon="4.01348">
        <ele>116</ele>
        <time>2019-04-07T11:13:16Z</time>
      </trkpt>
      <trkpt lat="49.37295" lon="4.01342">
        <ele>116</ele>
        <time>2019-04-07T11:13:17Z</time>
      </trkpt>
      <trkpt lat="49.37291" lon="4.01337">
        <ele>116</ele>
        <time>2019-04-07T11:13:18Z</time>
      </trkpt>
      <trkpt lat="49.37287" lon="4.01332">
        <ele>116</ele>
        <time>2019-04-07T11:13:19Z</time>
      </trkpt>
      <trkpt lat="49.37283" lon="4.01327">
        <ele>116</ele>
        <time>2019-04-07T11:13:20Z</time>
      </trkpt>
      <trkpt lat="49.37279" lon="4.01322">
        <ele>116</ele>
        <time>2019-04-07T11:13:21Z</time>
      </trkpt>
      <trkpt lat="49.37275" lon="4.01318">
        <ele>117</ele>
        <time>2019-04-07T11:13:22Z</time>
      </trkpt>
      <trkpt lat="49.37271" lon="4.01312">
        <ele>117</ele>
        <time>2019-04-07T11:13:23Z</time>
      </trkpt>
      <trkpt lat="49.37267" lon="4.01307">
        <ele>117</ele>
        <time>2019-04-07T11:13:24Z</time>
      </trkpt>
      <trkpt lat="49.37263" lon="4.01302">
        <ele>117</ele>
        <time>2019-04-07T11:13:25Z</time>
      </trkpt>
      <trkpt lat="49.37259" lon="4.01297">
        <ele>117</ele>
        <time>2019-04-07T11:13:26Z</time>
      </trkpt>
      <trkpt lat="49.37255" lon="4.01293">
        <ele>117</ele>
        <time>2019-04-07T11:13:27Z</time>
      </trkpt>
      <trkpt lat="49.3725" lon="4.01289">
        <ele>117</ele>
        <time>2019-04-07T11:13:28Z</time>
      </trkpt>
      <trkpt lat="49.37246" lon="4.01283">
        <ele>117</ele>
        <time>2019-04-07T11:13:29Z</time>
      </trkpt>
      <trkpt lat="49.37243" lon="4.01278">
        <ele>117</ele>
        <time>2019-04-07T11:13:30Z</time>
      </trkpt>
      <trkpt lat="49.37239" lon="4.01274">
        <ele>118</ele>
        <time>2019-04-07T11:13:31Z</time>
      </trkpt>
      <trkpt lat="49.37235" lon="4.01269">
        <ele>117</ele>
        <time>2019-04-07T11:13:32Z</time>
      </trkpt>
      <trkpt lat="49.37231" lon="4.01264">
        <ele>118</ele>
        <time>2019-04-07T11:13:33Z</time>
      </trkpt>
      <trkpt lat="49.37227" lon="4.0126">
        <ele>118</ele>
        <time>2019-04-07T11:13:34Z</time>
      </trkpt>
      <trkpt lat="49.37224" lon="4.01256">
        <ele>118</ele>
        <time>2019-04-07T11:13:35Z</time>
      </trkpt>
      <trkpt lat="49.3722" lon="4.01252">
        <ele>118</ele>
        <time>2019-04-07T11:13:36Z</time>
      </trkpt>
      <trkpt lat="49.37217" lon="4.01248">
        <ele>118</ele>
        <time>2019-04-07T11:13:37Z</time>
      </trkpt>
      <trkpt lat="49.37214" lon="4.01244">
        <ele>118</ele>
        <time>2019-04-07T11:13:38Z</time>
      </trkpt>
      <trkpt lat="49.37211" lon="4.0124">
        <ele>118</ele>
        <time>2019-04-07T11:13:39Z</time>
      </trkpt>
      <trkpt lat="49.37207" lon="4.01237">
        <ele>118</ele>
        <time>2019-04-07T11:13:40Z</time>
      </trkpt>
      <trkpt lat="49.37204" lon="4.01233">
        <ele>118</ele>
        <time>2019-04-07T11:13:41Z</time>
      </trkpt>
      <trkpt lat="49.37201" lon="4.01229">
        <ele>118</ele>
        <time>2019-04-07T11:13:42Z</time>
      </trkpt>
      <trkpt lat="49.37198" lon="4.01225">
        <ele>118</ele>
        <time>2019-04-07T11:13:43Z</time>
      </trkpt>
      <trkpt lat="49.37194" lon="4.01222">
        <ele>118</ele>
        <time>2019-04-07T11:13:44Z</time>
      </trkpt>
      <trkpt lat="49.3719" lon="4.01217">
        <ele>118</ele>
        <time>2019-04-07T11:13:45Z</time>
      </trkpt>
      <trkpt lat="49.37186" lon="4.01213">
        <ele>119</ele>
        <time>2019-04-07T11:13:46Z</time>
      </trkpt>
      <trkpt lat="49.37182" lon="4.01209">
        <ele>119</ele>
        <time>2019-04-07T11:13:47Z</time>
      </trkpt>
      <trkpt lat="49.37178" lon="4.01205">
        <ele>118</ele>
        <time>2019-04-07T11:13:48Z</time>
      </trkpt>
      <trkpt lat="49.37174" lon="4.012">
        <ele>119</ele>
        <time>2019-04-07T11:13:49Z</time>
      </trkpt>
      <trkpt lat="49.3717" lon="4.01195">
        <ele>119</ele>
        <time>2019-04-07T11:13:50Z</time>
      </trkpt>
      <trkpt lat="49.37166" lon="4.01191">
        <ele>119</ele>
        <time>2019-04-07T11:13:51Z</time>
      </trkpt>
      <trkpt lat="49.37162" lon="4.01186">
        <ele>119</ele>
        <time>2019-04-07T11:13:52Z</time>
      </trkpt>
      <trkpt lat="49.37158" lon="4.01182">
        <ele>118</ele>
        <time>2019-04-07T11:13:53Z</time>
      </trkpt>
      <trkpt lat="49.37153" lon="4.01178">
        <ele>119</ele>
        <time>2019-04-07T11:13:54Z</time>
      </trkpt>
      <trkpt lat="49.37149" lon="4.01173">
        <ele>119</ele>
        <time>2019-04-07T11:13:55Z</time>
      </trkpt>
      <trkpt lat="49.37145" lon="4.01169">
        <ele>119</ele>
        <time>2019-04-07T11:13:56Z</time>
      </trkpt>
      <trkpt lat="49.37141" lon="4.01164">
        <ele>119</ele>
        <time>2019-04-07T11:13:57Z</time>
      </trkpt>
      <trkpt lat="49.37138" lon="4.0116">
        <ele>118</ele>
        <time>2019-04-07T11:13:58Z</time>
      </trkpt>
      <trkpt lat="49.37134" lon="4.01156">
        <ele>118</ele>
        <time>2019-04-07T11:13:59Z</time>
      </trkpt>
      <trkpt lat="49.3713" lon="4.01152">
        <ele>119</ele>
        <time>2019-04-07T11:14:00Z</time>
      </trkpt>
      <trkpt lat="49.37126" lon="4.01148">
        <ele>119</ele>
        <time>2019-04-07T11:14:01Z</time>
      </trkpt>
      <trkpt lat="49.37122" lon="4.01143">
        <ele>119</ele>
        <time>2019-04-07T11:14:02Z</time>
      </trkpt>
      <trkpt lat="49.37118" lon="4.01139">
        <ele>118</ele>
        <time>2019-04-07T11:14:03Z</time>
      </trkpt>
      <trkpt lat="49.37113" lon="4.01135">
        <ele>118</ele>
        <time>2019-04-07T11:14:04Z</time>
      </trkpt>
      <trkpt lat="49.37109" lon="4.0113">
        <ele>118</ele>
        <time>2019-04-07T11:14:05Z</time>
      </trkpt>
      <trkpt lat="49.37105" lon="4.01126">
        <ele>118</ele>
        <time>2019-04-07T11:14:06Z</time>
      </trkpt>
      <trkpt lat="49.37101" lon="4.01122">
        <ele>118</ele>
        <time>2019-04-07T11:14:07Z</time>
      </trkpt>
      <trkpt lat="49.37097" lon="4.01117">
        <ele>118</ele>
        <time>2019-04-07T11:14:08Z</time>
      </trkpt>
      <trkpt lat="49.37093" lon="4.01113">
        <ele>118</ele>
        <time>2019-04-07T11:14:09Z</time>
      </trkpt>
      <trkpt lat="49.37089" lon="4.01108">
        <ele>118</ele>
        <time>2019-04-07T11:14:10Z</time>
      </trkpt>
      <trkpt lat="49.37085" lon="4.01104">
        <ele>118</ele>
        <time>2019-04-07T11:14:11Z</time>
      </trkpt>
      <trkpt lat="49.3708" lon="4.01099">
        <ele>118</ele>
        <time>2019-04-07T11:14:12Z</time>
      </trkpt>
      <trkpt lat="49.37076" lon="4.01095">
        <ele>117</ele>
        <time>2019-04-07T11:14:13Z</time>
      </trkpt>
      <trkpt lat="49.37071" lon="4.0109">
        <ele>117</ele>
        <time>2019-04-07T11:14:14Z</time>
      </trkpt>
      <trkpt lat="49.37067" lon="4.01085">
        <ele>117</ele>
        <time>2019-04-07T11:14:15Z</time>
      </trkpt>
      <trkpt lat="49.37062" lon="4.01081">
        <ele>117</ele>
        <time>2019-04-07T11:14:16Z</time>
      </trkpt>
      <trkpt lat="49.37058" lon="4.01076">
        <ele>117</ele>
        <time>2019-04-07T11:14:17Z</time>
      </trkpt>
      <trkpt lat="49.37054" lon="4.01072">
        <ele>117</ele>
        <time>2019-04-07T11:14:18Z</time>
      </trkpt>
      <trkpt lat="49.37049" lon="4.01067">
        <ele>117</ele>
        <time>2019-04-07T11:14:19Z</time>
      </trkpt>
      <trkpt lat="49.37045" lon="4.01062">
        <ele>117</ele>
        <time>2019-04-07T11:14:20Z</time>
      </trkpt>
      <trkpt lat="49.37041" lon="4.01057">
        <ele>117</ele>
        <time>2019-04-07T11:14:21Z</time>
      </trkpt>
      <trkpt lat="49.37038" lon="4.01052">
        <ele>117</ele>
        <time>2019-04-07T11:14:22Z</time>
      </trkpt>
      <trkpt lat="49.37034" lon="4.01047">
        <ele>117</ele>
        <time>2019-04-07T11:14:23Z</time>
      </trkpt>
      <trkpt lat="49.37029" lon="4.01043">
        <ele>118</ele>
        <time>2019-04-07T11:14:24Z</time>
      </trkpt>
      <trkpt lat="49.37025" lon="4.01039">
        <ele>117</ele>
        <time>2019-04-07T11:14:25Z</time>
      </trkpt>
      <trkpt lat="49.37021" lon="4.01034">
        <ele>117</ele>
        <time>2019-04-07T11:14:26Z</time>
      </trkpt>
      <trkpt lat="49.37016" lon="4.0103">
        <ele>117</ele>
        <time>2019-04-07T11:14:27Z</time>
      </trkpt>
      <trkpt lat="49.37011" lon="4.01025">
        <ele>117</ele>
        <time>2019-04-07T11:14:28Z</time>
      </trkpt>
      <trkpt lat="49.37007" lon="4.01021">
        <ele>117</ele>
        <time>2019-04-07T11:14:29Z</time>
      </trkpt>
      <trkpt lat="49.37002" lon="4.01016">
        <ele>117</ele>
        <time>2019-04-07T11:14:30Z</time>
      </trkpt>
      <trkpt lat="49.36998" lon="4.01011">
        <ele>117</ele>
        <time>2019-04-07T11:14:31Z</time>
      </trkpt>
      <trkpt lat="49.36993" lon="4.01008">
        <ele>117</ele>
        <time>2019-04-07T11:14:32Z</time>
      </trkpt>
      <trkpt lat="49.36989" lon="4.01002">
        <ele>117</ele>
        <time>2019-04-07T11:14:33Z</time>
      </trkpt>
      <trkpt lat="49.36985" lon="4.00998">
        <ele>117</ele>
        <time>2019-04-07T11:14:34Z</time>
      </trkpt>
      <trkpt lat="49.3698" lon="4.00993">
        <ele>116</ele>
        <time>2019-04-07T11:14:35Z</time>
      </trkpt>
      <trkpt lat="49.36976" lon="4.00988">
        <ele>116</ele>
        <time>2019-04-07T11:14:36Z</time>
      </trkpt>
      <trkpt lat="49.36971" lon="4.00983">
        <ele>116</ele>
        <time>2019-04-07T11:14:37Z</time>
      </trkpt>
      <trkpt lat="49.36967" lon="4.00977">
        <ele>116</ele>
        <time>2019-04-07T11:14:38Z</time>
      </trkpt>
      <trkpt lat="49.36962" lon="4.00972">
        <ele>115</ele>
        <time>2019-04-07T11:14:39Z</time>
      </trkpt>
      <trkpt lat="49.36958" lon="4.00967">
        <ele>115</ele>
        <time>2019-04-07T11:14:40Z</time>
      </trkpt>
      <trkpt lat="49.36954" lon="4.00963">
        <ele>115</ele>
        <time>2019-04-07T11:14:41Z</time>
      </trkpt>
      <trkpt lat="49.3695" lon="4.00958">
        <ele>115</ele>
        <time>2019-04-07T11:14:42Z</time>
      </trkpt>
      <trkpt lat="49.36945" lon="4.00953">
        <ele>115</ele>
        <time>2019-04-07T11:14:43Z</time>
      </trkpt>
      <trkpt lat="49.36941" lon="4.00947">
        <ele>115</ele>
        <time>2019-04-07T11:14:44Z</time>
      </trkpt>
      <trkpt lat="49.36937" lon="4.00943">
        <ele>115</ele>
        <time>2019-04-07T11:14:45Z</time>
      </trkpt>
      <trkpt lat="49.36932" lon="4.00938">
        <ele>115</ele>
        <time>2019-04-07T11:14:46Z</time>
      </trkpt>
      <trkpt lat="49.36928" lon="4.00933">
        <ele>115</ele>
        <time>2019-04-07T11:14:47Z</time>
      </trkpt>
      <trkpt lat="49.36923" lon="4.00928">
        <ele>115</ele>
        <time>2019-04-07T11:14:48Z</time>
      </trkpt>
      <trkpt lat="49.36918" lon="4.00924">
        <ele>115</ele>
        <time>2019-04-07T11:14:49Z</time>
      </trkpt>
      <trkpt lat="49.36913" lon="4.00919">
        <ele>115</ele>
        <time>2019-04-07T11:14:50Z</time>
      </trkpt>
      <trkpt lat="49.36909" lon="4.00914">
        <ele>115</ele>
        <time>2019-04-07T11:14:51Z</time>
      </trkpt>
      <trkpt lat="49.36904" lon="4.0091">
        <ele>115</ele>
        <time>2019-04-07T11:14:52Z</time>
      </trkpt>
      <trkpt lat="49.369" lon="4.00905">
        <ele>115</ele>
        <time>2019-04-07T11:14:53Z</time>
      </trkpt>
      <trkpt lat="49.36895" lon="4.009">
        <ele>114</ele>
        <time>2019-04-07T11:14:54Z</time>
      </trkpt>
      <trkpt lat="49.36891" lon="4.00895">
        <ele>114</ele>
        <time>2019-04-07T11:14:55Z</time>
      </trkpt>
      <trkpt lat="49.36887" lon="4.00891">
        <ele>115</ele>
        <time>2019-04-07T11:14:56Z</time>
      </trkpt>
      <trkpt lat="49.36883" lon="4.00886">
        <ele>115</ele>
        <time>2019-04-07T11:14:57Z</time>
      </trkpt>
      <trkpt lat="49.36878" lon="4.00881">
        <ele>115</ele>
        <time>2019-04-07T11:14:58Z</time>
      </trkpt>
      <trkpt lat="49.36874" lon="4.00877">
        <ele>115</ele>
        <time>2019-04-07T11:14:59Z</time>
      </trkpt>
      <trkpt lat="49.3687" lon="4.00872">
        <ele>115</ele>
        <time>2019-04-07T11:15:00Z</time>
      </trkpt>
      <trkpt lat="49.36866" lon="4.00867">
        <ele>115</ele>
        <time>2019-04-07T11:15:01Z</time>
      </trkpt>
      <trkpt lat="49.36862" lon="4.00863">
        <ele>115</ele>
        <time>2019-04-07T11:15:02Z</time>
      </trkpt>
      <trkpt lat="49.36858" lon="4.00858">
        <ele>115</ele>
        <time>2019-04-07T11:15:03Z</time>
      </trkpt>
      <trkpt lat="49.36854" lon="4.00853">
        <ele>115</ele>
        <time>2019-04-07T11:15:04Z</time>
      </trkpt>
      <trkpt lat="49.36849" lon="4.00849">
        <ele>115</ele>
        <time>2019-04-07T11:15:05Z</time>
      </trkpt>
      <trkpt lat="49.36845" lon="4.00844">
        <ele>115</ele>
        <time>2019-04-07T11:15:06Z</time>
      </trkpt>
      <trkpt lat="49.3684" lon="4.00841">
        <ele>115</ele>
        <time>2019-04-07T11:15:07Z</time>
      </trkpt>
      <trkpt lat="49.36836" lon="4.00837">
        <ele>116</ele>
        <time>2019-04-07T11:15:08Z</time>
      </trkpt>
      <trkpt lat="49.36832" lon="4.00833">
        <ele>116</ele>
        <time>2019-04-07T11:15:09Z</time>
      </trkpt>
      <trkpt lat="49.36828" lon="4.00829">
        <ele>116</ele>
        <time>2019-04-07T11:15:10Z</time>
      </trkpt>
      <trkpt lat="49.36824" lon="4.00825">
        <ele>116</ele>
        <time>2019-04-07T11:15:11Z</time>
      </trkpt>
      <trkpt lat="49.3682" lon="4.00821">
        <ele>116</ele>
        <time>2019-04-07T11:15:12Z</time>
      </trkpt>
      <trkpt lat="49.36816" lon="4.00816">
        <ele>116</ele>
        <time>2019-04-07T11:15:13Z</time>
      </trkpt>
      <trkpt lat="49.36812" lon="4.00812">
        <ele>116</ele>
        <time>2019-04-07T11:15:14Z</time>
      </trkpt>
      <trkpt lat="49.36808" lon="4.00808">
        <ele>116</ele>
        <time>2019-04-07T11:15:15Z</time>
      </trkpt>
      <trkpt lat="49.36804" lon="4.00804">
        <ele>116</ele>
        <time>2019-04-07T11:15:16Z</time>
      </trkpt>
      <trkpt lat="49.368" lon="4.008">
        <ele>117</ele>
        <time>2019-04-07T11:15:17Z</time>
      </trkpt>
      <trkpt lat="49.36796" lon="4.00796">
        <ele>117</ele>
        <time>2019-04-07T11:15:18Z</time>
      </trkpt>
      <trkpt lat="49.36792" lon="4.00792">
        <ele>117</ele>
        <time>2019-04-07T11:15:19Z</time>
      </trkpt>
      <trkpt lat="49.36789" lon="4.00788">
        <ele>117</ele>
        <time>2019-04-07T11:15:20Z</time>
      </trkpt>
      <trkpt lat="49.36785" lon="4.00784">
        <ele>117</ele>
        <time>2019-04-07T11:15:21Z</time>
      </trkpt>
      <trkpt lat="49.36781" lon="4.0078">
        <ele>117</ele>
        <time>2019-04-07T11:15:22Z</time>
      </trkpt>
      <trkpt lat="49.36777" lon="4.00776">
        <ele>118</ele>
        <time>2019-04-07T11:15:23Z</time>
      </trkpt>
      <trkpt lat="49.36773" lon="4.00772">
        <ele>118</ele>
        <time>2019-04-07T11:15:24Z</time>
      </trkpt>
      <trkpt lat="49.3677" lon="4.00768">
        <ele>118</ele>
        <time>2019-04-07T11:15:25Z</time>
      </trkpt>
      <trkpt lat="49.36766" lon="4.00764">
        <ele>118</ele>
        <time>2019-04-07T11:15:26Z</time>
      </trkpt>
      <trkpt lat="49.36763" lon="4.00759">
        <ele>118</ele>
        <time>2019-04-07T11:15:27Z</time>
      </trkpt>
      <trkpt lat="49.36759" lon="4.00755">
        <ele>119</ele>
        <time>2019-04-07T11:15:28Z</time>
      </trkpt>
      <trkpt lat="49.36756" lon="4.00752">
        <ele>119</ele>
        <time>2019-04-07T11:15:29Z</time>
      </trkpt>
      <trkpt lat="49.36753" lon="4.00748">
        <ele>118</ele>
        <time>2019-04-07T11:15:30Z</time>
      </trkpt>
      <trkpt lat="49.36749" lon="4.00744">
        <ele>118</ele>
        <time>2019-04-07T11:15:31Z</time>
      </trkpt>
      <trkpt lat="49.36746" lon="4.0074">
        <ele>119</ele>
        <time>2019-04-07T11:15:32Z</time>
      </trkpt>
      <trkpt lat="49.36742" lon="4.00737">
        <ele>119</ele>
        <time>2019-04-07T11:15:33Z</time>
      </trkpt>
      <trkpt lat="49.36739" lon="4.00734">
        <ele>119</ele>
        <time>2019-04-07T11:15:34Z</time>
      </trkpt>
      <trkpt lat="49.36736" lon="4.0073">
        <ele>119</ele>
        <time>2019-04-07T11:15:35Z</time>
      </trkpt>
      <trkpt lat="49.36732" lon="4.00726">
        <ele>119</ele>
        <time>2019-04-07T11:15:36Z</time>
      </trkpt>
      <trkpt lat="49.36729" lon="4.00722">
        <ele>120</ele>
        <time>2019-04-07T11:15:37Z</time>
      </trkpt>
      <trkpt lat="49.36726" lon="4.00718">
        <ele>120</ele>
        <time>2019-04-07T11:15:38Z</time>
      </trkpt>
      <trkpt lat="49.36722" lon="4.00715">
        <ele>120</ele>
        <time>2019-04-07T11:15:39Z</time>
      </trkpt>
      <trkpt lat="49.36719" lon="4.00712">
        <ele>120</ele>
        <time>2019-04-07T11:15:40Z</time>
      </trkpt>
      <trkpt lat="49.36715" lon="4.00708">
        <ele>120</ele>
        <time>2019-04-07T11:15:41Z</time>
      </trkpt>
      <trkpt lat="49.36712" lon="4.00705">
        <ele>120</ele>
        <time>2019-04-07T11:15:42Z</time>
      </trkpt>
      <trkpt lat="49.36709" lon="4.00701">
        <ele>120</ele>
        <time>2019-04-07T11:15:43Z</time>
      </trkpt>
      <trkpt lat="49.36705" lon="4.00697">
        <ele>120</ele>
        <time>2019-04-07T11:15:44Z</time>
      </trkpt>
      <trkpt lat="49.36701" lon="4.00693">
        <ele>121</ele>
        <time>2019-04-07T11:15:45Z</time>
      </trkpt>
      <trkpt lat="49.36698" lon="4.00689">
        <ele>121</ele>
        <time>2019-04-07T11:15:46Z</time>
      </trkpt>
      <trkpt lat="49.36694" lon="4.00685">
        <ele>121</ele>
        <time>2019-04-07T11:15:47Z</time>
      </trkpt>
      <trkpt lat="49.3669" lon="4.00681">
        <ele>121</ele>
        <time>2019-04-07T11:15:48Z</time>
      </trkpt>
      <trkpt lat="49.36687" lon="4.00677">
        <ele>121</ele>
        <time>2019-04-07T11:15:49Z</time>
      </trkpt>
      <trkpt lat="49.36684" lon="4.00674">
        <ele>121</ele>
        <time>2019-04-07T11:15:50Z</time>
      </trkpt>
      <trkpt lat="49.3668" lon="4.0067">
        <ele>121</ele>
        <time>2019-04-07T11:15:51Z</time>
      </trkpt>
      <trkpt lat="49.36676" lon="4.00666">
        <ele>121</ele>
        <time>2019-04-07T11:15:52Z</time>
      </trkpt>
      <trkpt lat="49.36673" lon="4.00663">
        <ele>121</ele>
        <time>2019-04-07T11:15:53Z</time>
      </trkpt>
      <trkpt lat="49.3667" lon="4.00659">
        <ele>121</ele>
        <time>2019-04-07T11:15:54Z</time>
      </trkpt>
      <trkpt lat="49.36666" lon="4.00655">
        <ele>121</ele>
        <time>2019-04-07T11:15:55Z</time>
      </trkpt>
      <trkpt lat="49.36663" lon="4.00651">
        <ele>122</ele>
        <time>2019-04-07T11:15:56Z</time>
      </trkpt>
      <trkpt lat="49.36659" lon="4.00647">
        <ele>122</ele>
        <time>2019-04-07T11:15:57Z</time>
      </trkpt>
      <trkpt lat="49.36656" lon="4.00644">
        <ele>122</ele>
        <time>2019-04-07T11:15:58Z</time>
      </trkpt>
      <trkpt lat="49.36652" lon="4.0064">
        <ele>122</ele>
        <time>2019-04-07T11:15:59Z</time>
      </trkpt>
      <trkpt lat="49.36648" lon="4.00636">
        <ele>122</ele>
        <time>2019-04-07T11:16:00Z</time>
      </trkpt>
      <trkpt lat="49.36645" lon="4.00632">
        <ele>122</ele>
        <time>2019-04-07T11:16:01Z</time>
      </trkpt>
      <trkpt lat="49.36641" lon="4.00628">
        <ele>122</ele>
        <time>2019-04-07T11:16:02Z</time>
      </trkpt>
      <trkpt lat="49.36638" lon="4.00625">
        <ele>122</ele>
        <time>2019-04-07T11:16:03Z</time>
      </trkpt>
      <trkpt lat="49.36635" lon="4.00621">
        <ele>123</ele>
        <time>2019-04-07T11:16:04Z</time>
      </trkpt>
      <trkpt lat="49.36631" lon="4.00617">
        <ele>123</ele>
        <time>2019-04-07T11:16:05Z</time>
      </trkpt>
      <trkpt lat="49.36624" lon="4.0061">
        <ele>123</ele>
        <time>2019-04-07T11:16:07Z</time>
      </trkpt>
      <trkpt lat="49.36621" lon="4.00606">
        <ele>123</ele>
        <time>2019-04-07T11:16:08Z</time>
      </trkpt>
      <trkpt lat="49.36617" lon="4.00602">
        <ele>123</ele>
        <time>2019-04-07T11:16:09Z</time>
      </trkpt>
      <trkpt lat="49.36613" lon="4.00598">
        <ele>123</ele>
        <time>2019-04-07T11:16:10Z</time>
      </trkpt>
      <trkpt lat="49.3661" lon="4.00595">
        <ele>123</ele>
        <time>2019-04-07T11:16:11Z</time>
      </trkpt>
      <trkpt lat="49.36606" lon="4.00591">
        <ele>123</ele>
        <time>2019-04-07T11:16:12Z</time>
      </trkpt>
      <trkpt lat="49.36603" lon="4.00587">
        <ele>123</ele>
        <time>2019-04-07T11:16:13Z</time>
      </trkpt>
      <trkpt lat="49.366" lon="4.00583">
        <ele>124</ele>
        <time>2019-04-07T11:16:14Z</time>
      </trkpt>
      <trkpt lat="49.36597" lon="4.0058">
        <ele>124</ele>
        <time>2019-04-07T11:16:15Z</time>
      </trkpt>
      <trkpt lat="49.36593" lon="4.00576">
        <ele>124</ele>
        <time>2019-04-07T11:16:16Z</time>
      </trkpt>
      <trkpt lat="49.3659" lon="4.00572">
        <ele>124</ele>
        <time>2019-04-07T11:16:17Z</time>
      </trkpt>
      <trkpt lat="49.36587" lon="4.00569">
        <ele>124</ele>
        <time>2019-04-07T11:16:18Z</time>
      </trkpt>
      <trkpt lat="49.36583" lon="4.00566">
        <ele>124</ele>
        <time>2019-04-07T11:16:19Z</time>
      </trkpt>
      <trkpt lat="49.3658" lon="4.00562">
        <ele>124</ele>
        <time>2019-04-07T11:16:20Z</time>
      </trkpt>
      <trkpt lat="49.36577" lon="4.00558">
        <ele>124</ele>
        <time>2019-04-07T11:16:21Z</time>
      </trkpt>
      <trkpt lat="49.36574" lon="4.00555">
        <ele>124</ele>
        <time>2019-04-07T11:16:22Z</time>
      </trkpt>
      <trkpt lat="49.3657" lon="4.00551">
        <ele>124</ele>
        <time>2019-04-07T11:16:23Z</time>
      </trkpt>
      <trkpt lat="49.36567" lon="4.00547">
        <ele>124</ele>
        <time>2019-04-07T11:16:24Z</time>
      </trkpt>
      <trkpt lat="49.36563" lon="4.00543">
        <ele>124</ele>
        <time>2019-04-07T11:16:25Z</time>
      </trkpt>
      <trkpt lat="49.36559" lon="4.00539">
        <ele>124</ele>
        <time>2019-04-07T11:16:26Z</time>
      </trkpt>
      <trkpt lat="49.36555" lon="4.00535">
        <ele>124</ele>
        <time>2019-04-07T11:16:27Z</time>
      </trkpt>
      <trkpt lat="49.36551" lon="4.00531">
        <ele>124</ele>
        <time>2019-04-07T11:16:28Z</time>
      </trkpt>
      <trkpt lat="49.36548" lon="4.00527">
        <ele>124</ele>
        <time>2019-04-07T11:16:29Z</time>
      </trkpt>
      <trkpt lat="49.36544" lon="4.00523">
        <ele>124</ele>
        <time>2019-04-07T11:16:30Z</time>
      </trkpt>
      <trkpt lat="49.36541" lon="4.00519">
        <ele>124</ele>
        <time>2019-04-07T11:16:31Z</time>
      </trkpt>
      <trkpt lat="49.36537" lon="4.00516">
        <ele>124</ele>
        <time>2019-04-07T11:16:32Z</time>
      </trkpt>
      <trkpt lat="49.36534" lon="4.00512">
        <ele>124</ele>
        <time>2019-04-07T11:16:33Z</time>
      </trkpt>
      <trkpt lat="49.3653" lon="4.00509">
        <ele>124</ele>
        <time>2019-04-07T11:16:34Z</time>
      </trkpt>
      <trkpt lat="49.36527" lon="4.00505">
        <ele>124</ele>
        <time>2019-04-07T11:16:35Z</time>
      </trkpt>
      <trkpt lat="49.36524" lon="4.00502">
        <ele>124</ele>
        <time>2019-04-07T11:16:36Z</time>
      </trkpt>
      <trkpt lat="49.3652" lon="4.00498">
        <ele>124</ele>
        <time>2019-04-07T11:16:37Z</time>
      </trkpt>
      <trkpt lat="49.36517" lon="4.00494">
        <ele>124</ele>
        <time>2019-04-07T11:16:38Z</time>
      </trkpt>
      <trkpt lat="49.36513" lon="4.00491">
        <ele>124</ele>
        <time>2019-04-07T11:16:39Z</time>
      </trkpt>
      <trkpt lat="49.3651" lon="4.00487">
        <ele>124</ele>
        <time>2019-04-07T11:16:40Z</time>
      </trkpt>
      <trkpt lat="49.36506" lon="4.00483">
        <ele>124</ele>
        <time>2019-04-07T11:16:41Z</time>
      </trkpt>
      <trkpt lat="49.36502" lon="4.00479">
        <ele>125</ele>
        <time>2019-04-07T11:16:42Z</time>
      </trkpt>
      <trkpt lat="49.36499" lon="4.00476">
        <ele>125</ele>
        <time>2019-04-07T11:16:43Z</time>
      </trkpt>
      <trkpt lat="49.36495" lon="4.00472">
        <ele>125</ele>
        <time>2019-04-07T11:16:44Z</time>
      </trkpt>
      <trkpt lat="49.36492" lon="4.00468">
        <ele>125</ele>
        <time>2019-04-07T11:16:45Z</time>
      </trkpt>
      <trkpt lat="49.36488" lon="4.00464">
        <ele>125</ele>
        <time>2019-04-07T11:16:46Z</time>
      </trkpt>
      <trkpt lat="49.36485" lon="4.0046">
        <ele>125</ele>
        <time>2019-04-07T11:16:47Z</time>
      </trkpt>
      <trkpt lat="49.36481" lon="4.00456">
        <ele>125</ele>
        <time>2019-04-07T11:16:48Z</time>
      </trkpt>
      <trkpt lat="49.36477" lon="4.00452">
        <ele>125</ele>
        <time>2019-04-07T11:16:49Z</time>
      </trkpt>
      <trkpt lat="49.36474" lon="4.00448">
        <ele>125</ele>
        <time>2019-04-07T11:16:50Z</time>
      </trkpt>
      <trkpt lat="49.3647" lon="4.00444">
        <ele>125</ele>
        <time>2019-04-07T11:16:51Z</time>
      </trkpt>
      <trkpt lat="49.36466" lon="4.0044">
        <ele>125</ele>
        <time>2019-04-07T11:16:52Z</time>
      </trkpt>
      <trkpt lat="49.36463" lon="4.00436">
        <ele>125</ele>
        <time>2019-04-07T11:16:53Z</time>
      </trkpt>
      <trkpt lat="49.36459" lon="4.00432">
        <ele>125</ele>
        <time>2019-04-07T11:16:54Z</time>
      </trkpt>
      <trkpt lat="49.36455" lon="4.00428">
        <ele>125</ele>
        <time>2019-04-07T11:16:55Z</time>
      </trkpt>
      <trkpt lat="49.36451" lon="4.00424">
        <ele>126</ele>
        <time>2019-04-07T11:16:56Z</time>
      </trkpt>
      <trkpt lat="49.36447" lon="4.0042">
        <ele>126</ele>
        <time>2019-04-07T11:16:57Z</time>
      </trkpt>
      <trkpt lat="49.36444" lon="4.00416">
        <ele>126</ele>
        <time>2019-04-07T11:16:58Z</time>
      </trkpt>
      <trkpt lat="49.3644" lon="4.00412">
        <ele>126</ele>
        <time>2019-04-07T11:16:59Z</time>
      </trkpt>
      <trkpt lat="49.36437" lon="4.00408">
        <ele>126</ele>
        <time>2019-04-07T11:17:00Z</time>
      </trkpt>
      <trkpt lat="49.36433" lon="4.00404">
        <ele>126</ele>
        <time>2019-04-07T11:17:01Z</time>
      </trkpt>
      <trkpt lat="49.36429" lon="4.004">
        <ele>126</ele>
        <time>2019-04-07T11:17:02Z</time>
      </trkpt>
      <trkpt lat="49.36425" lon="4.00396">
        <ele>126</ele>
        <time>2019-04-07T11:17:03Z</time>
      </trkpt>
      <trkpt lat="49.36421" lon="4.00392">
        <ele>126</ele>
        <time>2019-04-07T11:17:04Z</time>
      </trkpt>
      <trkpt lat="49.36417" lon="4.00388">
        <ele>126</ele>
        <time>2019-04-07T11:17:05Z</time>
      </trkpt>
      <trkpt lat="49.36414" lon="4.00384">
        <ele>126</ele>
        <time>2019-04-07T11:17:06Z</time>
      </trkpt>
      <trkpt lat="49.3641" lon="4.0038">
        <ele>126</ele>
        <time>2019-04-07T11:17:07Z</time>
      </trkpt>
      <trkpt lat="49.36406" lon="4.00375">
        <ele>126</ele>
        <time>2019-04-07T11:17:08Z</time>
      </trkpt>
      <trkpt lat="49.36402" lon="4.00371">
        <ele>126</ele>
        <time>2019-04-07T11:17:09Z</time>
      </trkpt>
      <trkpt lat="49.36398" lon="4.00367">
        <ele>127</ele>
        <time>2019-04-07T11:17:10Z</time>
      </trkpt>
      <trkpt lat="49.36394" lon="4.00363">
        <ele>127</ele>
        <time>2019-04-07T11:17:11Z</time>
      </trkpt>
      <trkpt lat="49.3639" lon="4.00358">
        <ele>127</ele>
        <time>2019-04-07T11:17:12Z</time>
      </trkpt>
      <trkpt lat="49.36386" lon="4.00354">
        <ele>127</ele>
        <time>2019-04-07T11:17:13Z</time>
      </trkpt>
      <trkpt lat="49.36383" lon="4.0035">
        <ele>127</ele>
        <time>2019-04-07T11:17:14Z</time>
      </trkpt>
      <trkpt lat="49.36379" lon="4.00345">
        <ele>127</ele>
        <time>2019-04-07T11:17:15Z</time>
      </trkpt>
      <trkpt lat="49.36376" lon="4.0034">
        <ele>127</ele>
        <time>2019-04-07T11:17:16Z</time>
      </trkpt>
      <trkpt lat="49.36372" lon="4.00336">
        <ele>127</ele>
        <time>2019-04-07T11:17:17Z</time>
      </trkpt>
      <trkpt lat="49.36369" lon="4.00331">
        <ele>127</ele>
        <time>2019-04-07T11:17:18Z</time>
      </trkpt>
      <trkpt lat="49.36365" lon="4.00326">
        <ele>127</ele>
        <time>2019-04-07T11:17:19Z</time>
      </trkpt>
      <trkpt lat="49.36362" lon="4.00321">
        <ele>127</ele>
        <time>2019-04-07T11:17:20Z</time>
      </trkpt>
      <trkpt lat="49.36358" lon="4.00317">
        <ele>127</ele>
        <time>2019-04-07T11:17:21Z</time>
      </trkpt>
      <trkpt lat="49.36355" lon="4.00312">
        <ele>127</ele>
        <time>2019-04-07T11:17:22Z</time>
      </trkpt>
      <trkpt lat="49.36351" lon="4.00306">
        <ele>127</ele>
        <time>2019-04-07T11:17:23Z</time>
      </trkpt>
      <trkpt lat="49.36348" lon="4.00301">
        <ele>127</ele>
        <time>2019-04-07T11:17:24Z</time>
      </trkpt>
      <trkpt lat="49.36345" lon="4.00295">
        <ele>127</ele>
        <time>2019-04-07T11:17:25Z</time>
      </trkpt>
      <trkpt lat="49.36341" lon="4.00289">
        <ele>127</ele>
        <time>2019-04-07T11:17:26Z</time>
      </trkpt>
      <trkpt lat="49.36338" lon="4.00283">
        <ele>127</ele>
        <time>2019-04-07T11:17:27Z</time>
      </trkpt>
      <trkpt lat="49.36334" lon="4.00278">
        <ele>127</ele>
        <time>2019-04-07T11:17:28Z</time>
      </trkpt>
      <trkpt lat="49.3633" lon="4.00272">
        <ele>127</ele>
        <time>2019-04-07T11:17:29Z</time>
      </trkpt>
      <trkpt lat="49.36327" lon="4.00266">
        <ele>127</ele>
        <time>2019-04-07T11:17:30Z</time>
      </trkpt>
      <trkpt lat="49.36323" lon="4.0026">
        <ele>127</ele>
        <time>2019-04-07T11:17:31Z</time>
      </trkpt>
      <trkpt lat="49.3632" lon="4.00254">
        <ele>127</ele>
        <time>2019-04-07T11:17:32Z</time>
      </trkpt>
      <trkpt lat="49.36316" lon="4.00248">
        <ele>127</ele>
        <time>2019-04-07T11:17:33Z</time>
      </trkpt>
      <trkpt lat="49.36313" lon="4.00242">
        <ele>127</ele>
        <time>2019-04-07T11:17:34Z</time>
      </trkpt>
      <trkpt lat="49.36309" lon="4.00236">
        <ele>127</ele>
        <time>2019-04-07T11:17:35Z</time>
      </trkpt>
      <trkpt lat="49.36305" lon="4.0023">
        <ele>127</ele>
        <time>2019-04-07T11:17:36Z</time>
      </trkpt>
      <trkpt lat="49.36301" lon="4.00224">
        <ele>127</ele>
        <time>2019-04-07T11:17:37Z</time>
      </trkpt>
      <trkpt lat="49.36297" lon="4.00217">
        <ele>127</ele>
        <time>2019-04-07T11:17:38Z</time>
      </trkpt>
      <trkpt lat="49.36293" lon="4.00211">
        <ele>127</ele>
        <time>2019-04-07T11:17:39Z</time>
      </trkpt>
      <trkpt lat="49.36289" lon="4.00205">
        <ele>127</ele>
        <time>2019-04-07T11:17:40Z</time>
      </trkpt>
      <trkpt lat="49.36286" lon="4.00199">
        <ele>127</ele>
        <time>2019-04-07T11:17:41Z</time>
      </trkpt>
      <trkpt lat="49.36282" lon="4.00193">
        <ele>127</ele>
        <time>2019-04-07T11:17:42Z</time>
      </trkpt>
      <trkpt lat="49.36278" lon="4.00187">
        <ele>127</ele>
        <time>2019-04-07T11:17:43Z</time>
      </trkpt>
      <trkpt lat="49.36275" lon="4.0018">
        <ele>127</ele>
        <time>2019-04-07T11:17:44Z</time>
      </trkpt>
      <trkpt lat="49.36271" lon="4.00174">
        <ele>127</ele>
        <time>2019-04-07T11:17:45Z</time>
      </trkpt>
      <trkpt lat="49.36268" lon="4.00168">
        <ele>127</ele>
        <time>2019-04-07T11:17:46Z</time>
      </trkpt>
      <trkpt lat="49.36264" lon="4.00162">
        <ele>127</ele>
        <time>2019-04-07T11:17:47Z</time>
      </trkpt>
      <trkpt lat="49.3626" lon="4.00155">
        <ele>127</ele>
        <time>2019-04-07T11:17:48Z</time>
      </trkpt>
      <trkpt lat="49.36257" lon="4.00149">
        <ele>128</ele>
        <time>2019-04-07T11:17:49Z</time>
      </trkpt>
      <trkpt lat="49.36252" lon="4.00143">
        <ele>127</ele>
        <time>2019-04-07T11:17:50Z</time>
      </trkpt>
      <trkpt lat="49.36248" lon="4.00137">
        <ele>127</ele>
        <time>2019-04-07T11:17:51Z</time>
      </trkpt>
      <trkpt lat="49.36245" lon="4.00131">
        <ele>127</ele>
        <time>2019-04-07T11:17:52Z</time>
      </trkpt>
      <trkpt lat="49.36241" lon="4.00125">
        <ele>127</ele>
        <time>2019-04-07T11:17:53Z</time>
      </trkpt>
      <trkpt lat="49.36238" lon="4.00118">
        <ele>127</ele>
        <time>2019-04-07T11:17:54Z</time>
      </trkpt>
      <trkpt lat="49.36234" lon="4.00113">
        <ele>127</ele>
        <time>2019-04-07T11:17:55Z</time>
      </trkpt>
      <trkpt lat="49.36231" lon="4.00107">
        <ele>127</ele>
        <time>2019-04-07T11:17:56Z</time>
      </trkpt>
      <trkpt lat="49.36227" lon="4.00101">
        <ele>127</ele>
        <time>2019-04-07T11:17:57Z</time>
      </trkpt>
      <trkpt lat="49.36223" lon="4.00095">
        <ele>127</ele>
        <time>2019-04-07T11:17:58Z</time>
      </trkpt>
      <trkpt lat="49.3622" lon="4.0009">
        <ele>127</ele>
        <time>2019-04-07T11:17:59Z</time>
      </trkpt>
      <trkpt lat="49.36217" lon="4.00084">
        <ele>127</ele>
        <time>2019-04-07T11:18:00Z</time>
      </trkpt>
      <trkpt lat="49.36214" lon="4.00079">
        <ele>127</ele>
        <time>2019-04-07T11:18:01Z</time>
      </trkpt>
      <trkpt lat="49.3621" lon="4.00073">
        <ele>127</ele>
        <time>2019-04-07T11:18:02Z</time>
      </trkpt>
      <trkpt lat="49.36207" lon="4.00068">
        <ele>127</ele>
        <time>2019-04-07T11:18:03Z</time>
      </trkpt>
      <trkpt lat="49.36203" lon="4.00062">
        <ele>127</ele>
        <time>2019-04-07T11:18:04Z</time>
      </trkpt>
      <trkpt lat="49.362" lon="4.00057">
        <ele>127</ele>
        <time>2019-04-07T11:18:05Z</time>
      </trkpt>
      <trkpt lat="49.36193" lon="4.00045">
        <ele>127</ele>
        <time>2019-04-07T11:18:07Z</time>
      </trkpt>
      <trkpt lat="49.36189" lon="4.00039">
        <ele>127</ele>
        <time>2019-04-07T11:18:08Z</time>
      </trkpt>
      <trkpt lat="49.36186" lon="4.00033">
        <ele>127</ele>
        <time>2019-04-07T11:18:09Z</time>
      </trkpt>
      <trkpt lat="49.36182" lon="4.00028">
        <ele>128</ele>
        <time>2019-04-07T11:18:10Z</time>
      </trkpt>
      <trkpt lat="49.36178" lon="4.00022">
        <ele>127</ele>
        <time>2019-04-07T11:18:11Z</time>
      </trkpt>
      <trkpt lat="49.36175" lon="4.00016">
        <ele>127</ele>
        <time>2019-04-07T11:18:12Z</time>
      </trkpt>
      <trkpt lat="49.3617" lon="4.0001">
        <ele>127</ele>
        <time>2019-04-07T11:18:13Z</time>
      </trkpt>
      <trkpt lat="49.36167" lon="4.00004">
        <ele>127</ele>
        <time>2019-04-07T11:18:14Z</time>
      </trkpt>
      <trkpt lat="49.36163" lon="3.99998">
        <ele>127</ele>
        <time>2019-04-07T11:18:15Z</time>
      </trkpt>
      <trkpt lat="49.3616" lon="3.99992">
        <ele>127</ele>
        <time>2019-04-07T11:18:16Z</time>
      </trkpt>
      <trkpt lat="49.36156" lon="3.99986">
        <ele>127</ele>
        <time>2019-04-07T11:18:17Z</time>
      </trkpt>
      <trkpt lat="49.36153" lon="3.99981">
        <ele>127</ele>
        <time>2019-04-07T11:18:18Z</time>
      </trkpt>
      <trkpt lat="49.36149" lon="3.99974">
        <ele>127</ele>
        <time>2019-04-07T11:18:19Z</time>
      </trkpt>
      <trkpt lat="49.36146" lon="3.99969">
        <ele>127</ele>
        <time>2019-04-07T11:18:20Z</time>
      </trkpt>
      <trkpt lat="49.36142" lon="3.99963">
        <ele>127</ele>
        <time>2019-04-07T11:18:21Z</time>
      </trkpt>
      <trkpt lat="49.36138" lon="3.99957">
        <ele>127</ele>
        <time>2019-04-07T11:18:22Z</time>
      </trkpt>
      <trkpt lat="49.36135" lon="3.99951">
        <ele>128</ele>
        <time>2019-04-07T11:18:23Z</time>
      </trkpt>
      <trkpt lat="49.36131" lon="3.99945">
        <ele>128</ele>
        <time>2019-04-07T11:18:24Z</time>
      </trkpt>
      <trkpt lat="49.36128" lon="3.9994">
        <ele>128</ele>
        <time>2019-04-07T11:18:25Z</time>
      </trkpt>
      <trkpt lat="49.36125" lon="3.99934">
        <ele>128</ele>
        <time>2019-04-07T11:18:26Z</time>
      </trkpt>
      <trkpt lat="49.36121" lon="3.99928">
        <ele>128</ele>
        <time>2019-04-07T11:18:27Z</time>
      </trkpt>
      <trkpt lat="49.36118" lon="3.99922">
        <ele>128</ele>
        <time>2019-04-07T11:18:28Z</time>
      </trkpt>
      <trkpt lat="49.36114" lon="3.99917">
        <ele>128</ele>
        <time>2019-04-07T11:18:29Z</time>
      </trkpt>
      <trkpt lat="49.36111" lon="3.99911">
        <ele>128</ele>
        <time>2019-04-07T11:18:30Z</time>
      </trkpt>
      <trkpt lat="49.36107" lon="3.99905">
        <ele>128</ele>
        <time>2019-04-07T11:18:31Z</time>
      </trkpt>
      <trkpt lat="49.36103" lon="3.99899">
        <ele>128</ele>
        <time>2019-04-07T11:18:32Z</time>
      </trkpt>
      <trkpt lat="49.361" lon="3.99894">
        <ele>128</ele>
        <time>2019-04-07T11:18:33Z</time>
      </trkpt>
      <trkpt lat="49.36097" lon="3.99887">
        <ele>128</ele>
        <time>2019-04-07T11:18:34Z</time>
      </trkpt>
      <trkpt lat="49.36093" lon="3.99881">
        <ele>128</ele>
        <time>2019-04-07T11:18:35Z</time>
      </trkpt>
      <trkpt lat="49.3609" lon="3.99875">
        <ele>128</ele>
        <time>2019-04-07T11:18:36Z</time>
      </trkpt>
      <trkpt lat="49.36086" lon="3.99869">
        <ele>128</ele>
        <time>2019-04-07T11:18:37Z</time>
      </trkpt>
      <trkpt lat="49.36082" lon="3.99863">
        <ele>128</ele>
        <time>2019-04-07T11:18:38Z</time>
      </trkpt>
      <trkpt lat="49.36079" lon="3.99858">
        <ele>128</ele>
        <time>2019-04-07T11:18:39Z</time>
      </trkpt>
      <trkpt lat="49.36075" lon="3.99852">
        <ele>128</ele>
        <time>2019-04-07T11:18:40Z</time>
      </trkpt>
      <trkpt lat="49.36072" lon="3.99846">
        <ele>128</ele>
        <time>2019-04-07T11:18:41Z</time>
      </trkpt>
      <trkpt lat="49.36069" lon="3.99839">
        <ele>128</ele>
        <time>2019-04-07T11:18:42Z</time>
      </trkpt>
      <trkpt lat="49.36065" lon="3.99833">
        <ele>127</ele>
        <time>2019-04-07T11:18:43Z</time>
      </trkpt>
      <trkpt lat="49.36062" lon="3.99826">
        <ele>127</ele>
        <time>2019-04-07T11:18:44Z</time>
      </trkpt>
      <trkpt lat="49.36059" lon="3.9982">
        <ele>127</ele>
        <time>2019-04-07T11:18:45Z</time>
      </trkpt>
      <trkpt lat="49.36057" lon="3.99813">
        <ele>127</ele>
        <time>2019-04-07T11:18:46Z</time>
      </trkpt>
      <trkpt lat="49.36054" lon="3.99806">
        <ele>127</ele>
        <time>2019-04-07T11:18:47Z</time>
      </trkpt>
      <trkpt lat="49.36052" lon="3.99798">
        <ele>127</ele>
        <time>2019-04-07T11:18:48Z</time>
      </trkpt>
      <trkpt lat="49.3605" lon="3.9979">
        <ele>127</ele>
        <time>2019-04-07T11:18:49Z</time>
      </trkpt>
      <trkpt lat="49.36048" lon="3.99782">
        <ele>127</ele>
        <time>2019-04-07T11:18:50Z</time>
      </trkpt>
      <trkpt lat="49.36046" lon="3.99775">
        <ele>127</ele>
        <time>2019-04-07T11:18:51Z</time>
      </trkpt>
      <trkpt lat="49.36044" lon="3.99767">
        <ele>127</ele>
        <time>2019-04-07T11:18:52Z</time>
      </trkpt>
      <trkpt lat="49.36043" lon="3.99759">
        <ele>127</ele>
        <time>2019-04-07T11:18:53Z</time>
      </trkpt>
      <trkpt lat="49.36041" lon="3.99752">
        <ele>126</ele>
        <time>2019-04-07T11:18:54Z</time>
      </trkpt>
      <trkpt lat="49.36039" lon="3.99745">
        <ele>127</ele>
        <time>2019-04-07T11:18:55Z</time>
      </trkpt>
      <trkpt lat="49.36038" lon="3.99738">
        <ele>126</ele>
        <time>2019-04-07T11:18:56Z</time>
      </trkpt>
      <trkpt lat="49.36036" lon="3.99731">
        <ele>126</ele>
        <time>2019-04-07T11:18:57Z</time>
      </trkpt>
      <trkpt lat="49.36035" lon="3.99723">
        <ele>126</ele>
        <time>2019-04-07T11:18:58Z</time>
      </trkpt>
      <trkpt lat="49.36033" lon="3.99715">
        <ele>126</ele>
        <time>2019-04-07T11:18:59Z</time>
      </trkpt>
      <trkpt lat="49.36031" lon="3.99707">
        <ele>126</ele>
        <time>2019-04-07T11:19:00Z</time>
      </trkpt>
      <trkpt lat="49.36029" lon="3.997">
        <ele>126</ele>
        <time>2019-04-07T11:19:01Z</time>
      </trkpt>
      <trkpt lat="49.36028" lon="3.99692">
        <ele>126</ele>
        <time>2019-04-07T11:19:02Z</time>
      </trkpt>
      <trkpt lat="49.36026" lon="3.99685">
        <ele>126</ele>
        <time>2019-04-07T11:19:03Z</time>
      </trkpt>
      <trkpt lat="49.36025" lon="3.99678">
        <ele>126</ele>
        <time>2019-04-07T11:19:04Z</time>
      </trkpt>
      <trkpt lat="49.36023" lon="3.9967">
        <ele>126</ele>
        <time>2019-04-07T11:19:05Z</time>
      </trkpt>
      <trkpt lat="49.36021" lon="3.99663">
        <ele>126</ele>
        <time>2019-04-07T11:19:06Z</time>
      </trkpt>
      <trkpt lat="49.3602" lon="3.99656">
        <ele>126</ele>
        <time>2019-04-07T11:19:07Z</time>
      </trkpt>
      <trkpt lat="49.36019" lon="3.99649">
        <ele>126</ele>
        <time>2019-04-07T11:19:08Z</time>
      </trkpt>
      <trkpt lat="49.36017" lon="3.99641">
        <ele>126</ele>
        <time>2019-04-07T11:19:09Z</time>
      </trkpt>
      <trkpt lat="49.36016" lon="3.99634">
        <ele>126</ele>
        <time>2019-04-07T11:19:10Z</time>
      </trkpt>
      <trkpt lat="49.36014" lon="3.99627">
        <ele>126</ele>
        <time>2019-04-07T11:19:11Z</time>
      </trkpt>
      <trkpt lat="49.36013" lon="3.99619">
        <ele>126</ele>
        <time>2019-04-07T11:19:12Z</time>
      </trkpt>
      <trkpt lat="49.36011" lon="3.99613">
        <ele>126</ele>
        <time>2019-04-07T11:19:13Z</time>
      </trkpt>
      <trkpt lat="49.3601" lon="3.99605">
        <ele>126</ele>
        <time>2019-04-07T11:19:14Z</time>
      </trkpt>
      <trkpt lat="49.36008" lon="3.99598">
        <ele>126</ele>
        <time>2019-04-07T11:19:15Z</time>
      </trkpt>
      <trkpt lat="49.36007" lon="3.99591">
        <ele>126</ele>
        <time>2019-04-07T11:19:16Z</time>
      </trkpt>
      <trkpt lat="49.36005" lon="3.99584">
        <ele>127</ele>
        <time>2019-04-07T11:19:17Z</time>
      </trkpt>
      <trkpt lat="49.36004" lon="3.99577">
        <ele>127</ele>
        <time>2019-04-07T11:19:18Z</time>
      </trkpt>
      <trkpt lat="49.36003" lon="3.9957">
        <ele>127</ele>
        <time>2019-04-07T11:19:19Z</time>
      </trkpt>
      <trkpt lat="49.36001" lon="3.99563">
        <ele>127</ele>
        <time>2019-04-07T11:19:20Z</time>
      </trkpt>
      <trkpt lat="49.36" lon="3.99556">
        <ele>127</ele>
        <time>2019-04-07T11:19:21Z</time>
      </trkpt>
      <trkpt lat="49.35999" lon="3.9955">
        <ele>127</ele>
        <time>2019-04-07T11:19:22Z</time>
      </trkpt>
      <trkpt lat="49.35997" lon="3.99543">
        <ele>126</ele>
        <time>2019-04-07T11:19:23Z</time>
      </trkpt>
      <trkpt lat="49.35996" lon="3.99536">
        <ele>126</ele>
        <time>2019-04-07T11:19:24Z</time>
      </trkpt>
      <trkpt lat="49.35995" lon="3.99529">
        <ele>126</ele>
        <time>2019-04-07T11:19:25Z</time>
      </trkpt>
      <trkpt lat="49.35993" lon="3.99522">
        <ele>126</ele>
        <time>2019-04-07T11:19:26Z</time>
      </trkpt>
      <trkpt lat="49.35992" lon="3.99514">
        <ele>127</ele>
        <time>2019-04-07T11:19:27Z</time>
      </trkpt>
      <trkpt lat="49.3599" lon="3.99507">
        <ele>127</ele>
        <time>2019-04-07T11:19:28Z</time>
      </trkpt>
      <trkpt lat="49.35989" lon="3.995">
        <ele>127</ele>
        <time>2019-04-07T11:19:29Z</time>
      </trkpt>
      <trkpt lat="49.35987" lon="3.99492">
        <ele>127</ele>
        <time>2019-04-07T11:19:30Z</time>
      </trkpt>
      <trkpt lat="49.35986" lon="3.99485">
        <ele>127</ele>
        <time>2019-04-07T11:19:31Z</time>
      </trkpt>
      <trkpt lat="49.35985" lon="3.99478">
        <ele>127</ele>
        <time>2019-04-07T11:19:32Z</time>
      </trkpt>
      <trkpt lat="49.35984" lon="3.99471">
        <ele>127</ele>
        <time>2019-04-07T11:19:33Z</time>
      </trkpt>
      <trkpt lat="49.35982" lon="3.99464">
        <ele>127</ele>
        <time>2019-04-07T11:19:34Z</time>
      </trkpt>
      <trkpt lat="49.35981" lon="3.99457">
        <ele>127</ele>
        <time>2019-04-07T11:19:35Z</time>
      </trkpt>
      <trkpt lat="49.35979" lon="3.99449">
        <ele>127</ele>
        <time>2019-04-07T11:19:36Z</time>
      </trkpt>
      <trkpt lat="49.35978" lon="3.99442">
        <ele>127</ele>
        <time>2019-04-07T11:19:37Z</time>
      </trkpt>
      <trkpt lat="49.35976" lon="3.99434">
        <ele>127</ele>
        <time>2019-04-07T11:19:38Z</time>
      </trkpt>
      <trkpt lat="49.35975" lon="3.99427">
        <ele>127</ele>
        <time>2019-04-07T11:19:39Z</time>
      </trkpt>
      <trkpt lat="49.35973" lon="3.99421">
        <ele>127</ele>
        <time>2019-04-07T11:19:40Z</time>
      </trkpt>
      <trkpt lat="49.35972" lon="3.99414">
        <ele>127</ele>
        <time>2019-04-07T11:19:41Z</time>
      </trkpt>
      <trkpt lat="49.3597" lon="3.99408">
        <ele>127</ele>
        <time>2019-04-07T11:19:42Z</time>
      </trkpt>
      <trkpt lat="49.35968" lon="3.99401">
        <ele>127</ele>
        <time>2019-04-07T11:19:43Z</time>
      </trkpt>
      <trkpt lat="49.35967" lon="3.99395">
        <ele>127</ele>
        <time>2019-04-07T11:19:44Z</time>
      </trkpt>
      <trkpt lat="49.35964" lon="3.99389">
        <ele>127</ele>
        <time>2019-04-07T11:19:45Z</time>
      </trkpt>
      <trkpt lat="49.35962" lon="3.99383">
        <ele>127</ele>
        <time>2019-04-07T11:19:46Z</time>
      </trkpt>
      <trkpt lat="49.35959" lon="3.99377">
        <ele>127</ele>
        <time>2019-04-07T11:19:47Z</time>
      </trkpt>
      <trkpt lat="49.35956" lon="3.99372">
        <ele>127</ele>
        <time>2019-04-07T11:19:48Z</time>
      </trkpt>
      <trkpt lat="49.35953" lon="3.99367">
        <ele>127</ele>
        <time>2019-04-07T11:19:49Z</time>
      </trkpt>
      <trkpt lat="49.35948" lon="3.99364">
        <ele>127</ele>
        <time>2019-04-07T11:19:50Z</time>
      </trkpt>
      <trkpt lat="49.35943" lon="3.99361">
        <ele>127</ele>
        <time>2019-04-07T11:19:51Z</time>
      </trkpt>
      <trkpt lat="49.35938" lon="3.99359">
        <ele>127</ele>
        <time>2019-04-07T11:19:52Z</time>
      </trkpt>
      <trkpt lat="49.35932" lon="3.99358">
        <ele>127</ele>
        <time>2019-04-07T11:19:53Z</time>
      </trkpt>
      <trkpt lat="49.35926" lon="3.99357">
        <ele>127</ele>
        <time>2019-04-07T11:19:54Z</time>
      </trkpt>
      <trkpt lat="49.3592" lon="3.99356">
        <ele>127</ele>
        <time>2019-04-07T11:19:55Z</time>
      </trkpt>
      <trkpt lat="49.35915" lon="3.99356">
        <ele>127</ele>
        <time>2019-04-07T11:19:56Z</time>
      </trkpt>
      <trkpt lat="49.35908" lon="3.99355">
        <ele>127</ele>
        <time>2019-04-07T11:19:57Z</time>
      </trkpt>
      <trkpt lat="49.35903" lon="3.99353">
        <ele>127</ele>
        <time>2019-04-07T11:19:58Z</time>
      </trkpt>
      <trkpt lat="49.35897" lon="3.99352">
        <ele>127</ele>
        <time>2019-04-07T11:19:59Z</time>
      </trkpt>
      <trkpt lat="49.3589" lon="3.9935">
        <ele>127</ele>
        <time>2019-04-07T11:20:00Z</time>
      </trkpt>
      <trkpt lat="49.35884" lon="3.99348">
        <ele>127</ele>
        <time>2019-04-07T11:20:01Z</time>
      </trkpt>
      <trkpt lat="49.35877" lon="3.99347">
        <ele>127</ele>
        <time>2019-04-07T11:20:02Z</time>
      </trkpt>
      <trkpt lat="49.35871" lon="3.99345">
        <ele>127</ele>
        <time>2019-04-07T11:20:03Z</time>
      </trkpt>
      <trkpt lat="49.35865" lon="3.99343">
        <ele>128</ele>
        <time>2019-04-07T11:20:04Z</time>
      </trkpt>
      <trkpt lat="49.35859" lon="3.99342">
        <ele>128</ele>
        <time>2019-04-07T11:20:05Z</time>
      </trkpt>
      <trkpt lat="49.35853" lon="3.9934">
        <ele>128</ele>
        <time>2019-04-07T11:20:06Z</time>
      </trkpt>
      <trkpt lat="49.35847" lon="3.99339">
        <ele>128</ele>
        <time>2019-04-07T11:20:07Z</time>
      </trkpt>
      <trkpt lat="49.35842" lon="3.99338">
        <ele>128</ele>
        <time>2019-04-07T11:20:08Z</time>
      </trkpt>
      <trkpt lat="49.35836" lon="3.99337">
        <ele>128</ele>
        <time>2019-04-07T11:20:09Z</time>
      </trkpt>
      <trkpt lat="49.3583" lon="3.99337">
        <ele>128</ele>
        <time>2019-04-07T11:20:10Z</time>
      </trkpt>
      <trkpt lat="49.35823" lon="3.99337">
        <ele>129</ele>
        <time>2019-04-07T11:20:11Z</time>
      </trkpt>
      <trkpt lat="49.35818" lon="3.99336">
        <ele>128</ele>
        <time>2019-04-07T11:20:12Z</time>
      </trkpt>
      <trkpt lat="49.35812" lon="3.99333">
        <ele>128</ele>
        <time>2019-04-07T11:20:13Z</time>
      </trkpt>
      <trkpt lat="49.35807" lon="3.99331">
        <ele>128</ele>
        <time>2019-04-07T11:20:14Z</time>
      </trkpt>
      <trkpt lat="49.35803" lon="3.99329">
        <ele>128</ele>
        <time>2019-04-07T11:20:15Z</time>
      </trkpt>
      <trkpt lat="49.35797" lon="3.99328">
        <ele>128</ele>
        <time>2019-04-07T11:20:16Z</time>
      </trkpt>
      <trkpt lat="49.35791" lon="3.99327">
        <ele>128</ele>
        <time>2019-04-07T11:20:17Z</time>
      </trkpt>
      <trkpt lat="49.35786" lon="3.99326">
        <ele>129</ele>
        <time>2019-04-07T11:20:18Z</time>
      </trkpt>
      <trkpt lat="49.35781" lon="3.99324">
        <ele>129</ele>
        <time>2019-04-07T11:20:19Z</time>
      </trkpt>
      <trkpt lat="49.35777" lon="3.99324">
        <ele>129</ele>
        <time>2019-04-07T11:20:20Z</time>
      </trkpt>
      <trkpt lat="49.35772" lon="3.99323">
        <ele>129</ele>
        <time>2019-04-07T11:20:21Z</time>
      </trkpt>
      <trkpt lat="49.35767" lon="3.99322">
        <ele>130</ele>
        <time>2019-04-07T11:20:22Z</time>
      </trkpt>
      <trkpt lat="49.35762" lon="3.99319">
        <ele>130</ele>
        <time>2019-04-07T11:20:23Z</time>
      </trkpt>
      <trkpt lat="49.35757" lon="3.99318">
        <ele>129</ele>
        <time>2019-04-07T11:20:24Z</time>
      </trkpt>
      <trkpt lat="49.35752" lon="3.99317">
        <ele>129</ele>
        <time>2019-04-07T11:20:25Z</time>
      </trkpt>
      <trkpt lat="49.35747" lon="3.99317">
        <ele>129</ele>
        <time>2019-04-07T11:20:26Z</time>
      </trkpt>
      <trkpt lat="49.35743" lon="3.99316">
        <ele>130</ele>
        <time>2019-04-07T11:20:27Z</time>
      </trkpt>
      <trkpt lat="49.35739" lon="3.99316">
        <ele>130</ele>
        <time>2019-04-07T11:20:28Z</time>
      </trkpt>
      <trkpt lat="49.35734" lon="3.99316">
        <ele>130</ele>
        <time>2019-04-07T11:20:29Z</time>
      </trkpt>
      <trkpt lat="49.3573" lon="3.99316">
        <ele>130</ele>
        <time>2019-04-07T11:20:30Z</time>
      </trkpt>
      <trkpt lat="49.35726" lon="3.9932">
        <ele>130</ele>
        <time>2019-04-07T11:20:31Z</time>
      </trkpt>
      <trkpt lat="49.35722" lon="3.99323">
        <ele>130</ele>
        <time>2019-04-07T11:20:32Z</time>
      </trkpt>
      <trkpt lat="49.35719" lon="3.99328">
        <ele>130</ele>
        <time>2019-04-07T11:20:33Z</time>
      </trkpt>
      <trkpt lat="49.35716" lon="3.99334">
        <ele>130</ele>
        <time>2019-04-07T11:20:34Z</time>
      </trkpt>
      <trkpt lat="49.35714" lon="3.99341">
        <ele>130</ele>
        <time>2019-04-07T11:20:35Z</time>
      </trkpt>
      <trkpt lat="49.35711" lon="3.99348">
        <ele>130</ele>
        <time>2019-04-07T11:20:36Z</time>
      </trkpt>
      <trkpt lat="49.35707" lon="3.99355">
        <ele>130</ele>
        <time>2019-04-07T11:20:37Z</time>
      </trkpt>
      <trkpt lat="49.35704" lon="3.99363">
        <ele>129</ele>
        <time>2019-04-07T11:20:38Z</time>
      </trkpt>
      <trkpt lat="49.357" lon="3.99372">
        <ele>129</ele>
        <time>2019-04-07T11:20:39Z</time>
      </trkpt>
      <trkpt lat="49.35697" lon="3.99379">
        <ele>128</ele>
        <time>2019-04-07T11:20:40Z</time>
      </trkpt>
      <trkpt lat="49.35695" lon="3.99386">
        <ele>128</ele>
        <time>2019-04-07T11:20:41Z</time>
      </trkpt>
      <trkpt lat="49.35691" lon="3.99392">
        <ele>127</ele>
        <time>2019-04-07T11:20:42Z</time>
      </trkpt>
      <trkpt lat="49.35688" lon="3.99399">
        <ele>127</ele>
        <time>2019-04-07T11:20:43Z</time>
      </trkpt>
      <trkpt lat="49.35685" lon="3.99406">
        <ele>127</ele>
        <time>2019-04-07T11:20:44Z</time>
      </trkpt>
      <trkpt lat="49.35682" lon="3.99412">
        <ele>126</ele>
        <time>2019-04-07T11:20:45Z</time>
      </trkpt>
      <trkpt lat="49.35678" lon="3.9942">
        <ele>127</ele>
        <time>2019-04-07T11:20:46Z</time>
      </trkpt>
      <trkpt lat="49.35675" lon="3.99427">
        <ele>127</ele>
        <time>2019-04-07T11:20:47Z</time>
      </trkpt>
      <trkpt lat="49.35672" lon="3.99434">
        <ele>127</ele>
        <time>2019-04-07T11:20:48Z</time>
      </trkpt>
      <trkpt lat="49.35669" lon="3.99441">
        <ele>127</ele>
        <time>2019-04-07T11:20:49Z</time>
      </trkpt>
      <trkpt lat="49.35666" lon="3.99449">
        <ele>126</ele>
        <time>2019-04-07T11:20:50Z</time>
      </trkpt>
      <trkpt lat="49.35663" lon="3.99456">
        <ele>126</ele>
        <time>2019-04-07T11:20:51Z</time>
      </trkpt>
      <trkpt lat="49.35659" lon="3.99463">
        <ele>127</ele>
        <time>2019-04-07T11:20:52Z</time>
      </trkpt>
      <trkpt lat="49.35657" lon="3.9947">
        <ele>127</ele>
        <time>2019-04-07T11:20:53Z</time>
      </trkpt>
      <trkpt lat="49.35654" lon="3.99477">
        <ele>127</ele>
        <time>2019-04-07T11:20:54Z</time>
      </trkpt>
      <trkpt lat="49.35651" lon="3.99484">
        <ele>127</ele>
        <time>2019-04-07T11:20:55Z</time>
      </trkpt>
      <trkpt lat="49.35648" lon="3.99492">
        <ele>128</ele>
        <time>2019-04-07T11:20:56Z</time>
      </trkpt>
      <trkpt lat="49.35645" lon="3.99499">
        <ele>128</ele>
        <time>2019-04-07T11:20:57Z</time>
      </trkpt>
      <trkpt lat="49.35642" lon="3.99506">
        <ele>128</ele>
        <time>2019-04-07T11:20:58Z</time>
      </trkpt>
      <trkpt lat="49.35639" lon="3.99513">
        <ele>128</ele>
        <time>2019-04-07T11:20:59Z</time>
      </trkpt>
      <trkpt lat="49.35635" lon="3.9952">
        <ele>128</ele>
        <time>2019-04-07T11:21:00Z</time>
      </trkpt>
      <trkpt lat="49.35632" lon="3.99526">
        <ele>128</ele>
        <time>2019-04-07T11:21:01Z</time>
      </trkpt>
      <trkpt lat="49.35629" lon="3.99532">
        <ele>128</ele>
        <time>2019-04-07T11:21:02Z</time>
      </trkpt>
      <trkpt lat="49.35625" lon="3.99539">
        <ele>127</ele>
        <time>2019-04-07T11:21:03Z</time>
      </trkpt>
      <trkpt lat="49.35622" lon="3.99546">
        <ele>128</ele>
        <time>2019-04-07T11:21:04Z</time>
      </trkpt>
      <trkpt lat="49.35619" lon="3.99552">
        <ele>128</ele>
        <time>2019-04-07T11:21:05Z</time>
      </trkpt>
      <trkpt lat="49.35616" lon="3.99561">
        <ele>129</ele>
        <time>2019-04-07T11:21:06Z</time>
      </trkpt>
      <trkpt lat="49.35613" lon="3.99567">
        <ele>129</ele>
        <time>2019-04-07T11:21:07Z</time>
      </trkpt>
      <trkpt lat="49.35609" lon="3.99574">
        <ele>129</ele>
        <time>2019-04-07T11:21:08Z</time>
      </trkpt>
      <trkpt lat="49.35606" lon="3.9958">
        <ele>130</ele>
        <time>2019-04-07T11:21:09Z</time>
      </trkpt>
      <trkpt lat="49.35602" lon="3.99586">
        <ele>130</ele>
        <time>2019-04-07T11:21:10Z</time>
      </trkpt>
      <trkpt lat="49.35598" lon="3.99594">
        <ele>130</ele>
        <time>2019-04-07T11:21:11Z</time>
      </trkpt>
      <trkpt lat="49.35595" lon="3.99602">
        <ele>130</ele>
        <time>2019-04-07T11:21:12Z</time>
      </trkpt>
      <trkpt lat="49.35591" lon="3.9961">
        <ele>130</ele>
        <time>2019-04-07T11:21:13Z</time>
      </trkpt>
      <trkpt lat="49.35588" lon="3.99617">
        <ele>130</ele>
        <time>2019-04-07T11:21:14Z</time>
      </trkpt>
      <trkpt lat="49.35584" lon="3.99625">
        <ele>130</ele>
        <time>2019-04-07T11:21:15Z</time>
      </trkpt>
      <trkpt lat="49.35581" lon="3.99633">
        <ele>130</ele>
        <time>2019-04-07T11:21:16Z</time>
      </trkpt>
      <trkpt lat="49.35577" lon="3.9964">
        <ele>130</ele>
        <time>2019-04-07T11:21:17Z</time>
      </trkpt>
      <trkpt lat="49.35574" lon="3.99649">
        <ele>130</ele>
        <time>2019-04-07T11:21:18Z</time>
      </trkpt>
      <trkpt lat="49.3557" lon="3.99657">
        <ele>130</ele>
        <time>2019-04-07T11:21:19Z</time>
      </trkpt>
      <trkpt lat="49.35566" lon="3.99665">
        <ele>130</ele>
        <time>2019-04-07T11:21:20Z</time>
      </trkpt>
      <trkpt lat="49.35562" lon="3.99673">
        <ele>131</ele>
        <time>2019-04-07T11:21:21Z</time>
      </trkpt>
      <trkpt lat="49.35559" lon="3.99681">
        <ele>130</ele>
        <time>2019-04-07T11:21:22Z</time>
      </trkpt>
      <trkpt lat="49.35555" lon="3.9969">
        <ele>130</ele>
        <time>2019-04-07T11:21:23Z</time>
      </trkpt>
      <trkpt lat="49.35551" lon="3.99698">
        <ele>130</ele>
        <time>2019-04-07T11:21:24Z</time>
      </trkpt>
      <trkpt lat="49.35548" lon="3.99706">
        <ele>130</ele>
        <time>2019-04-07T11:21:25Z</time>
      </trkpt>
      <trkpt lat="49.35544" lon="3.99714">
        <ele>131</ele>
        <time>2019-04-07T11:21:26Z</time>
      </trkpt>
      <trkpt lat="49.35541" lon="3.99722">
        <ele>131</ele>
        <time>2019-04-07T11:21:27Z</time>
      </trkpt>
      <trkpt lat="49.35537" lon="3.9973">
        <ele>131</ele>
        <time>2019-04-07T11:21:28Z</time>
      </trkpt>
      <trkpt lat="49.35534" lon="3.99738">
        <ele>131</ele>
        <time>2019-04-07T11:21:29Z</time>
      </trkpt>
      <trkpt lat="49.3553" lon="3.99746">
        <ele>131</ele>
        <time>2019-04-07T11:21:30Z</time>
      </trkpt>
      <trkpt lat="49.35527" lon="3.99754">
        <ele>131</ele>
        <time>2019-04-07T11:21:31Z</time>
      </trkpt>
      <trkpt lat="49.35523" lon="3.99762">
        <ele>131</ele>
        <time>2019-04-07T11:21:32Z</time>
      </trkpt>
      <trkpt lat="49.3552" lon="3.9977">
        <ele>131</ele>
        <time>2019-04-07T11:21:33Z</time>
      </trkpt>
      <trkpt lat="49.35516" lon="3.99778">
        <ele>131</ele>
        <time>2019-04-07T11:21:34Z</time>
      </trkpt>
      <trkpt lat="49.35512" lon="3.99786">
        <ele>131</ele>
        <time>2019-04-07T11:21:35Z</time>
      </trkpt>
      <trkpt lat="49.35509" lon="3.99793">
        <ele>131</ele>
        <time>2019-04-07T11:21:36Z</time>
      </trkpt>
      <trkpt lat="49.35506" lon="3.99801">
        <ele>131</ele>
        <time>2019-04-07T11:21:37Z</time>
      </trkpt>
      <trkpt lat="49.35502" lon="3.99808">
        <ele>131</ele>
        <time>2019-04-07T11:21:38Z</time>
      </trkpt>
      <trkpt lat="49.35499" lon="3.99816">
        <ele>131</ele>
        <time>2019-04-07T11:21:39Z</time>
      </trkpt>
      <trkpt lat="49.35496" lon="3.99823">
        <ele>131</ele>
        <time>2019-04-07T11:21:40Z</time>
      </trkpt>
      <trkpt lat="49.35493" lon="3.99831">
        <ele>131</ele>
        <time>2019-04-07T11:21:41Z</time>
      </trkpt>
      <trkpt lat="49.35489" lon="3.99839">
        <ele>132</ele>
        <time>2019-04-07T11:21:42Z</time>
      </trkpt>
      <trkpt lat="49.35485" lon="3.99846">
        <ele>132</ele>
        <time>2019-04-07T11:21:43Z</time>
      </trkpt>
      <trkpt lat="49.35482" lon="3.99854">
        <ele>132</ele>
        <time>2019-04-07T11:21:44Z</time>
      </trkpt>
      <trkpt lat="49.35479" lon="3.99862">
        <ele>132</ele>
        <time>2019-04-07T11:21:45Z</time>
      </trkpt>
      <trkpt lat="49.35475" lon="3.9987">
        <ele>132</ele>
        <time>2019-04-07T11:21:46Z</time>
      </trkpt>
      <trkpt lat="49.35472" lon="3.99877">
        <ele>132</ele>
        <time>2019-04-07T11:21:47Z</time>
      </trkpt>
      <trkpt lat="49.35468" lon="3.99885">
        <ele>132</ele>
        <time>2019-04-07T11:21:48Z</time>
      </trkpt>
      <trkpt lat="49.35465" lon="3.99893">
        <ele>132</ele>
        <time>2019-04-07T11:21:49Z</time>
      </trkpt>
      <trkpt lat="49.35462" lon="3.999">
        <ele>133</ele>
        <time>2019-04-07T11:21:50Z</time>
      </trkpt>
      <trkpt lat="49.35459" lon="3.99908">
        <ele>133</ele>
        <time>2019-04-07T11:21:51Z</time>
      </trkpt>
      <trkpt lat="49.35455" lon="3.99915">
        <ele>133</ele>
        <time>2019-04-07T11:21:52Z</time>
      </trkpt>
      <trkpt lat="49.35452" lon="3.99922">
        <ele>133</ele>
        <time>2019-04-07T11:21:53Z</time>
      </trkpt>
      <trkpt lat="49.35449" lon="3.99929">
        <ele>133</ele>
        <time>2019-04-07T11:21:54Z</time>
      </trkpt>
      <trkpt lat="49.35445" lon="3.99936">
        <ele>133</ele>
        <time>2019-04-07T11:21:55Z</time>
      </trkpt>
      <trkpt lat="49.35442" lon="3.99943">
        <ele>134</ele>
        <time>2019-04-07T11:21:56Z</time>
      </trkpt>
      <trkpt lat="49.35438" lon="3.9995">
        <ele>134</ele>
        <time>2019-04-07T11:21:57Z</time>
      </trkpt>
      <trkpt lat="49.35435" lon="3.99957">
        <ele>133</ele>
        <time>2019-04-07T11:21:58Z</time>
      </trkpt>
      <trkpt lat="49.35432" lon="3.99965">
        <ele>134</ele>
        <time>2019-04-07T11:21:59Z</time>
      </trkpt>
      <trkpt lat="49.35429" lon="3.99973">
        <ele>134</ele>
        <time>2019-04-07T11:22:00Z</time>
      </trkpt>
      <trkpt lat="49.35425" lon="3.9998">
        <ele>134</ele>
        <time>2019-04-07T11:22:01Z</time>
      </trkpt>
      <trkpt lat="49.35422" lon="3.99987">
        <ele>134</ele>
        <time>2019-04-07T11:22:02Z</time>
      </trkpt>
      <trkpt lat="49.35419" lon="3.99995">
        <ele>134</ele>
        <time>2019-04-07T11:22:03Z</time>
      </trkpt>
      <trkpt lat="49.35416" lon="4.00002">
        <ele>133</ele>
        <time>2019-04-07T11:22:04Z</time>
      </trkpt>
      <trkpt lat="49.35412" lon="4.00009">
        <ele>134</ele>
        <time>2019-04-07T11:22:05Z</time>
      </trkpt>
      <trkpt lat="49.35409" lon="4.00016">
        <ele>134</ele>
        <time>2019-04-07T11:22:06Z</time>
      </trkpt>
      <trkpt lat="49.35406" lon="4.00023">
        <ele>134</ele>
        <time>2019-04-07T11:22:07Z</time>
      </trkpt>
      <trkpt lat="49.35403" lon="4.0003">
        <ele>134</ele>
        <time>2019-04-07T11:22:08Z</time>
      </trkpt>
      <trkpt lat="49.354" lon="4.00037">
        <ele>134</ele>
        <time>2019-04-07T11:22:09Z</time>
      </trkpt>
      <trkpt lat="49.35397" lon="4.00043">
        <ele>134</ele>
        <time>2019-04-07T11:22:10Z</time>
      </trkpt>
      <trkpt lat="49.35393" lon="4.0005">
        <ele>134</ele>
        <time>2019-04-07T11:22:11Z</time>
      </trkpt>
      <trkpt lat="49.3539" lon="4.00058">
        <ele>135</ele>
        <time>2019-04-07T11:22:12Z</time>
      </trkpt>
      <trkpt lat="49.35387" lon="4.00064">
        <ele>135</ele>
        <time>2019-04-07T11:22:13Z</time>
      </trkpt>
      <trkpt lat="49.35384" lon="4.00071">
        <ele>135</ele>
        <time>2019-04-07T11:22:14Z</time>
      </trkpt>
      <trkpt lat="49.35381" lon="4.00078">
        <ele>135</ele>
        <time>2019-04-07T11:22:15Z</time>
      </trkpt>
      <trkpt lat="49.35378" lon="4.00086">
        <ele>134</ele>
        <time>2019-04-07T11:22:16Z</time>
      </trkpt>
      <trkpt lat="49.35375" lon="4.00093">
        <ele>135</ele>
        <time>2019-04-07T11:22:17Z</time>
      </trkpt>
      <trkpt lat="49.35371" lon="4.00099">
        <ele>135</ele>
        <time>2019-04-07T11:22:18Z</time>
      </trkpt>
      <trkpt lat="49.35368" lon="4.00105">
        <ele>135</ele>
        <time>2019-04-07T11:22:19Z</time>
      </trkpt>
      <trkpt lat="49.35365" lon="4.00112">
        <ele>135</ele>
        <time>2019-04-07T11:22:20Z</time>
      </trkpt>
      <trkpt lat="49.35362" lon="4.00119">
        <ele>135</ele>
        <time>2019-04-07T11:22:21Z</time>
      </trkpt>
      <trkpt lat="49.3536" lon="4.00126">
        <ele>135</ele>
        <time>2019-04-07T11:22:22Z</time>
      </trkpt>
      <trkpt lat="49.35356" lon="4.00133">
        <ele>135</ele>
        <time>2019-04-07T11:22:23Z</time>
      </trkpt>
      <trkpt lat="49.35353" lon="4.00139">
        <ele>136</ele>
        <time>2019-04-07T11:22:24Z</time>
      </trkpt>
      <trkpt lat="49.3535" lon="4.00146">
        <ele>136</ele>
        <time>2019-04-07T11:22:25Z</time>
      </trkpt>
      <trkpt lat="49.35346" lon="4.00153">
        <ele>136</ele>
        <time>2019-04-07T11:22:26Z</time>
      </trkpt>
      <trkpt lat="49.35343" lon="4.0016">
        <ele>136</ele>
        <time>2019-04-07T11:22:27Z</time>
      </trkpt>
      <trkpt lat="49.3534" lon="4.00167">
        <ele>136</ele>
        <time>2019-04-07T11:22:28Z</time>
      </trkpt>
      <trkpt lat="49.35337" lon="4.00174">
        <ele>136</ele>
        <time>2019-04-07T11:22:29Z</time>
      </trkpt>
      <trkpt lat="49.35334" lon="4.00181">
        <ele>136</ele>
        <time>2019-04-07T11:22:30Z</time>
      </trkpt>
      <trkpt lat="49.35331" lon="4.00188">
        <ele>137</ele>
        <time>2019-04-07T11:22:31Z</time>
      </trkpt>
      <trkpt lat="49.35329" lon="4.00194">
        <ele>137</ele>
        <time>2019-04-07T11:22:32Z</time>
      </trkpt>
      <trkpt lat="49.35326" lon="4.00201">
        <ele>137</ele>
        <time>2019-04-07T11:22:33Z</time>
      </trkpt>
      <trkpt lat="49.35322" lon="4.00207">
        <ele>137</ele>
        <time>2019-04-07T11:22:34Z</time>
      </trkpt>
      <trkpt lat="49.35319" lon="4.00213">
        <ele>137</ele>
        <time>2019-04-07T11:22:35Z</time>
      </trkpt>
      <trkpt lat="49.35316" lon="4.0022">
        <ele>137</ele>
        <time>2019-04-07T11:22:36Z</time>
      </trkpt>
      <trkpt lat="49.35313" lon="4.00226">
        <ele>138</ele>
        <time>2019-04-07T11:22:37Z</time>
      </trkpt>
      <trkpt lat="49.3531" lon="4.00232">
        <ele>138</ele>
        <time>2019-04-07T11:22:38Z</time>
      </trkpt>
      <trkpt lat="49.35308" lon="4.00239">
        <ele>138</ele>
        <time>2019-04-07T11:22:39Z</time>
      </trkpt>
      <trkpt lat="49.35305" lon="4.00246">
        <ele>138</ele>
        <time>2019-04-07T11:22:40Z</time>
      </trkpt>
      <trkpt lat="49.35303" lon="4.00253">
        <ele>139</ele>
        <time>2019-04-07T11:22:41Z</time>
      </trkpt>
      <trkpt lat="49.353" lon="4.00262">
        <ele>139</ele>
        <time>2019-04-07T11:22:42Z</time>
      </trkpt>
      <trkpt lat="49.35297" lon="4.0027">
        <ele>139</ele>
        <time>2019-04-07T11:22:43Z</time>
      </trkpt>
      <trkpt lat="49.35294" lon="4.00277">
        <ele>140</ele>
        <time>2019-04-07T11:22:44Z</time>
      </trkpt>
      <trkpt lat="49.3529" lon="4.00284">
        <ele>140</ele>
        <time>2019-04-07T11:22:45Z</time>
      </trkpt>
      <trkpt lat="49.35286" lon="4.00291">
        <ele>140</ele>
        <time>2019-04-07T11:22:46Z</time>
      </trkpt>
      <trkpt lat="49.35283" lon="4.00298">
        <ele>140</ele>
        <time>2019-04-07T11:22:47Z</time>
      </trkpt>
      <trkpt lat="49.35279" lon="4.00305">
        <ele>141</ele>
        <time>2019-04-07T11:22:48Z</time>
      </trkpt>
      <trkpt lat="49.35276" lon="4.00313">
        <ele>141</ele>
        <time>2019-04-07T11:22:49Z</time>
      </trkpt>
      <trkpt lat="49.35273" lon="4.0032">
        <ele>141</ele>
        <time>2019-04-07T11:22:50Z</time>
      </trkpt>
      <trkpt lat="49.35269" lon="4.00328">
        <ele>141</ele>
        <time>2019-04-07T11:22:51Z</time>
      </trkpt>
      <trkpt lat="49.35266" lon="4.00335">
        <ele>141</ele>
        <time>2019-04-07T11:22:52Z</time>
      </trkpt>
      <trkpt lat="49.35263" lon="4.00342">
        <ele>142</ele>
        <time>2019-04-07T11:22:53Z</time>
      </trkpt>
      <trkpt lat="49.3526" lon="4.00349">
        <ele>142</ele>
        <time>2019-04-07T11:22:54Z</time>
      </trkpt>
      <trkpt lat="49.35256" lon="4.00357">
        <ele>142</ele>
        <time>2019-04-07T11:22:55Z</time>
      </trkpt>
      <trkpt lat="49.35252" lon="4.00364">
        <ele>142</ele>
        <time>2019-04-07T11:22:56Z</time>
      </trkpt>
      <trkpt lat="49.35249" lon="4.00371">
        <ele>142</ele>
        <time>2019-04-07T11:22:57Z</time>
      </trkpt>
      <trkpt lat="49.35245" lon="4.00379">
        <ele>141</ele>
        <time>2019-04-07T11:22:58Z</time>
      </trkpt>
      <trkpt lat="49.35242" lon="4.00386">
        <ele>141</ele>
        <time>2019-04-07T11:22:59Z</time>
      </trkpt>
      <trkpt lat="49.35238" lon="4.00394">
        <ele>140</ele>
        <time>2019-04-07T11:23:00Z</time>
      </trkpt>
      <trkpt lat="49.35236" lon="4.00402">
        <ele>140</ele>
        <time>2019-04-07T11:23:01Z</time>
      </trkpt>
      <trkpt lat="49.35232" lon="4.00409">
        <ele>140</ele>
        <time>2019-04-07T11:23:02Z</time>
      </trkpt>
      <trkpt lat="49.35229" lon="4.00415">
        <ele>139</ele>
        <time>2019-04-07T11:23:03Z</time>
      </trkpt>
      <trkpt lat="49.35226" lon="4.00422">
        <ele>139</ele>
        <time>2019-04-07T11:23:04Z</time>
      </trkpt>
      <trkpt lat="49.35223" lon="4.00429">
        <ele>139</ele>
        <time>2019-04-07T11:23:05Z</time>
      </trkpt>
      <trkpt lat="49.35219" lon="4.00436">
        <ele>139</ele>
        <time>2019-04-07T11:23:06Z</time>
      </trkpt>
      <trkpt lat="49.35216" lon="4.00443">
        <ele>139</ele>
        <time>2019-04-07T11:23:07Z</time>
      </trkpt>
      <trkpt lat="49.35212" lon="4.00451">
        <ele>139</ele>
        <time>2019-04-07T11:23:08Z</time>
      </trkpt>
      <trkpt lat="49.3521" lon="4.00458">
        <ele>139</ele>
        <time>2019-04-07T11:23:09Z</time>
      </trkpt>
      <trkpt lat="49.35207" lon="4.00465">
        <ele>139</ele>
        <time>2019-04-07T11:23:10Z</time>
      </trkpt>
      <trkpt lat="49.35204" lon="4.00471">
        <ele>139</ele>
        <time>2019-04-07T11:23:11Z</time>
      </trkpt>
      <trkpt lat="49.35201" lon="4.00478">
        <ele>138</ele>
        <time>2019-04-07T11:23:12Z</time>
      </trkpt>
      <trkpt lat="49.35199" lon="4.00485">
        <ele>138</ele>
        <time>2019-04-07T11:23:13Z</time>
      </trkpt>
      <trkpt lat="49.35196" lon="4.00491">
        <ele>138</ele>
        <time>2019-04-07T11:23:14Z</time>
      </trkpt>
      <trkpt lat="49.35193" lon="4.00498">
        <ele>138</ele>
        <time>2019-04-07T11:23:15Z</time>
      </trkpt>
      <trkpt lat="49.3519" lon="4.00505">
        <ele>138</ele>
        <time>2019-04-07T11:23:16Z</time>
      </trkpt>
      <trkpt lat="49.35186" lon="4.00511">
        <ele>138</ele>
        <time>2019-04-07T11:23:17Z</time>
      </trkpt>
      <trkpt lat="49.35182" lon="4.00517">
        <ele>138</ele>
        <time>2019-04-07T11:23:18Z</time>
      </trkpt>
      <trkpt lat="49.35179" lon="4.00523">
        <ele>138</ele>
        <time>2019-04-07T11:23:19Z</time>
      </trkpt>
      <trkpt lat="49.35176" lon="4.00531">
        <ele>138</ele>
        <time>2019-04-07T11:23:20Z</time>
      </trkpt>
      <trkpt lat="49.35174" lon="4.00539">
        <ele>138</ele>
        <time>2019-04-07T11:23:21Z</time>
      </trkpt>
      <trkpt lat="49.35173" lon="4.00548">
        <ele>138</ele>
        <time>2019-04-07T11:23:22Z</time>
      </trkpt>
      <trkpt lat="49.35174" lon="4.00558">
        <ele>138</ele>
        <time>2019-04-07T11:23:23Z</time>
      </trkpt>
      <trkpt lat="49.35174" lon="4.00568">
        <ele>138</ele>
        <time>2019-04-07T11:23:24Z</time>
      </trkpt>
      <trkpt lat="49.35175" lon="4.00577">
        <ele>138</ele>
        <time>2019-04-07T11:23:25Z</time>
      </trkpt>
      <trkpt lat="49.35175" lon="4.00587">
        <ele>138</ele>
        <time>2019-04-07T11:23:26Z</time>
      </trkpt>
      <trkpt lat="49.35175" lon="4.00597">
        <ele>138</ele>
        <time>2019-04-07T11:23:27Z</time>
      </trkpt>
      <trkpt lat="49.35175" lon="4.00607">
        <ele>138</ele>
        <time>2019-04-07T11:23:28Z</time>
      </trkpt>
      <trkpt lat="49.35174" lon="4.00616">
        <ele>138</ele>
        <time>2019-04-07T11:23:29Z</time>
      </trkpt>
      <trkpt lat="49.35174" lon="4.00626">
        <ele>138</ele>
        <time>2019-04-07T11:23:30Z</time>
      </trkpt>
      <trkpt lat="49.35173" lon="4.00635">
        <ele>138</ele>
        <time>2019-04-07T11:23:31Z</time>
      </trkpt>
      <trkpt lat="49.35173" lon="4.00645">
        <ele>138</ele>
        <time>2019-04-07T11:23:32Z</time>
      </trkpt>
      <trkpt lat="49.35172" lon="4.00654">
        <ele>138</ele>
        <time>2019-04-07T11:23:33Z</time>
      </trkpt>
      <trkpt lat="49.35171" lon="4.00664">
        <ele>138</ele>
        <time>2019-04-07T11:23:34Z</time>
      </trkpt>
      <trkpt lat="49.3517" lon="4.00673">
        <ele>138</ele>
        <time>2019-04-07T11:23:35Z</time>
      </trkpt>
      <trkpt lat="49.35169" lon="4.00682">
        <ele>138</ele>
        <time>2019-04-07T11:23:36Z</time>
      </trkpt>
      <trkpt lat="49.35168" lon="4.00691">
        <ele>138</ele>
        <time>2019-04-07T11:23:37Z</time>
      </trkpt>
      <trkpt lat="49.35166" lon="4.007">
        <ele>138</ele>
        <time>2019-04-07T11:23:38Z</time>
      </trkpt>
      <trkpt lat="49.35165" lon="4.00709">
        <ele>137</ele>
        <time>2019-04-07T11:23:39Z</time>
      </trkpt>
      <trkpt lat="49.35163" lon="4.00718">
        <ele>137</ele>
        <time>2019-04-07T11:23:40Z</time>
      </trkpt>
      <trkpt lat="49.35162" lon="4.00727">
        <ele>137</ele>
        <time>2019-04-07T11:23:41Z</time>
      </trkpt>
      <trkpt lat="49.3516" lon="4.00735">
        <ele>137</ele>
        <time>2019-04-07T11:23:42Z</time>
      </trkpt>
      <trkpt lat="49.35159" lon="4.00744">
        <ele>137</ele>
        <time>2019-04-07T11:23:43Z</time>
      </trkpt>
      <trkpt lat="49.35158" lon="4.00754">
        <ele>137</ele>
        <time>2019-04-07T11:23:44Z</time>
      </trkpt>
      <trkpt lat="49.35156" lon="4.00763">
        <ele>137</ele>
        <time>2019-04-07T11:23:45Z</time>
      </trkpt>
      <trkpt lat="49.35155" lon="4.00772">
        <ele>137</ele>
        <time>2019-04-07T11:23:46Z</time>
      </trkpt>
      <trkpt lat="49.35153" lon="4.0078">
        <ele>137</ele>
        <time>2019-04-07T11:23:47Z</time>
      </trkpt>
      <trkpt lat="49.35152" lon="4.00789">
        <ele>137</ele>
        <time>2019-04-07T11:23:48Z</time>
      </trkpt>
      <trkpt lat="49.3515" lon="4.00797">
        <ele>137</ele>
        <time>2019-04-07T11:23:49Z</time>
      </trkpt>
      <trkpt lat="49.35149" lon="4.00806">
        <ele>137</ele>
        <time>2019-04-07T11:23:50Z</time>
      </trkpt>
      <trkpt lat="49.35147" lon="4.00815">
        <ele>138</ele>
        <time>2019-04-07T11:23:51Z</time>
      </trkpt>
      <trkpt lat="49.35146" lon="4.00824">
        <ele>138</ele>
        <time>2019-04-07T11:23:52Z</time>
      </trkpt>
      <trkpt lat="49.35145" lon="4.00833">
        <ele>138</ele>
        <time>2019-04-07T11:23:53Z</time>
      </trkpt>
      <trkpt lat="49.35143" lon="4.00842">
        <ele>138</ele>
        <time>2019-04-07T11:23:54Z</time>
      </trkpt>
      <trkpt lat="49.35142" lon="4.00851">
        <ele>138</ele>
        <time>2019-04-07T11:23:55Z</time>
      </trkpt>
      <trkpt lat="49.3514" lon="4.00859">
        <ele>138</ele>
        <time>2019-04-07T11:23:56Z</time>
      </trkpt>
      <trkpt lat="49.35138" lon="4.00868">
        <ele>138</ele>
        <time>2019-04-07T11:23:57Z</time>
      </trkpt>
      <trkpt lat="49.35137" lon="4.00876">
        <ele>138</ele>
        <time>2019-04-07T11:23:58Z</time>
      </trkpt>
      <trkpt lat="49.35135" lon="4.00885">
        <ele>138</ele>
        <time>2019-04-07T11:23:59Z</time>
      </trkpt>
      <trkpt lat="49.35134" lon="4.00894">
        <ele>138</ele>
        <time>2019-04-07T11:24:00Z</time>
      </trkpt>
      <trkpt lat="49.35132" lon="4.00903">
        <ele>138</ele>
        <time>2019-04-07T11:24:01Z</time>
      </trkpt>
      <trkpt lat="49.35131" lon="4.00912">
        <ele>137</ele>
        <time>2019-04-07T11:24:02Z</time>
      </trkpt>
      <trkpt lat="49.35129" lon="4.00922">
        <ele>137</ele>
        <time>2019-04-07T11:24:03Z</time>
      </trkpt>
      <trkpt lat="49.35128" lon="4.00932">
        <ele>137</ele>
        <time>2019-04-07T11:24:04Z</time>
      </trkpt>
      <trkpt lat="49.35126" lon="4.00942">
        <ele>137</ele>
        <time>2019-04-07T11:24:05Z</time>
      </trkpt>
      <trkpt lat="49.35125" lon="4.00952">
        <ele>137</ele>
        <time>2019-04-07T11:24:06Z</time>
      </trkpt>
      <trkpt lat="49.35123" lon="4.00962">
        <ele>137</ele>
        <time>2019-04-07T11:24:07Z</time>
      </trkpt>
      <trkpt lat="49.35121" lon="4.00972">
        <ele>136</ele>
        <time>2019-04-07T11:24:08Z</time>
      </trkpt>
      <trkpt lat="49.3512" lon="4.00981">
        <ele>136</ele>
        <time>2019-04-07T11:24:09Z</time>
      </trkpt>
      <trkpt lat="49.35118" lon="4.00991">
        <ele>136</ele>
        <time>2019-04-07T11:24:10Z</time>
      </trkpt>
      <trkpt lat="49.35117" lon="4.01001">
        <ele>136</ele>
        <time>2019-04-07T11:24:11Z</time>
      </trkpt>
      <trkpt lat="49.35115" lon="4.01012">
        <ele>136</ele>
        <time>2019-04-07T11:24:12Z</time>
      </trkpt>
      <trkpt lat="49.35113" lon="4.01022">
        <ele>136</ele>
        <time>2019-04-07T11:24:13Z</time>
      </trkpt>
      <trkpt lat="49.35111" lon="4.01032">
        <ele>136</ele>
        <time>2019-04-07T11:24:14Z</time>
      </trkpt>
      <trkpt lat="49.35109" lon="4.01043">
        <ele>136</ele>
        <time>2019-04-07T11:24:15Z</time>
      </trkpt>
      <trkpt lat="49.35108" lon="4.01053">
        <ele>136</ele>
        <time>2019-04-07T11:24:16Z</time>
      </trkpt>
      <trkpt lat="49.35106" lon="4.01064">
        <ele>136</ele>
        <time>2019-04-07T11:24:17Z</time>
      </trkpt>
      <trkpt lat="49.35105" lon="4.01074">
        <ele>136</ele>
        <time>2019-04-07T11:24:18Z</time>
      </trkpt>
      <trkpt lat="49.35103" lon="4.01084">
        <ele>136</ele>
        <time>2019-04-07T11:24:19Z</time>
      </trkpt>
      <trkpt lat="49.35101" lon="4.01094">
        <ele>136</ele>
        <time>2019-04-07T11:24:20Z</time>
      </trkpt>
      <trkpt lat="49.351" lon="4.01104">
        <ele>136</ele>
        <time>2019-04-07T11:24:21Z</time>
      </trkpt>
      <trkpt lat="49.35099" lon="4.01114">
        <ele>136</ele>
        <time>2019-04-07T11:24:22Z</time>
      </trkpt>
      <trkpt lat="49.35097" lon="4.01125">
        <ele>136</ele>
        <time>2019-04-07T11:24:23Z</time>
      </trkpt>
      <trkpt lat="49.35095" lon="4.01135">
        <ele>136</ele>
        <time>2019-04-07T11:24:24Z</time>
      </trkpt>
      <trkpt lat="49.35093" lon="4.01146">
        <ele>136</ele>
        <time>2019-04-07T11:24:25Z</time>
      </trkpt>
      <trkpt lat="49.35091" lon="4.01157">
        <ele>135</ele>
        <time>2019-04-07T11:24:26Z</time>
      </trkpt>
      <trkpt lat="49.3509" lon="4.01168">
        <ele>135</ele>
        <time>2019-04-07T11:24:27Z</time>
      </trkpt>
      <trkpt lat="49.35088" lon="4.01179">
        <ele>135</ele>
        <time>2019-04-07T11:24:28Z</time>
      </trkpt>
      <trkpt lat="49.35085" lon="4.0119">
        <ele>135</ele>
        <time>2019-04-07T11:24:29Z</time>
      </trkpt>
      <trkpt lat="49.35084" lon="4.01202">
        <ele>135</ele>
        <time>2019-04-07T11:24:30Z</time>
      </trkpt>
      <trkpt lat="49.35082" lon="4.01214">
        <ele>135</ele>
        <time>2019-04-07T11:24:31Z</time>
      </trkpt>
      <trkpt lat="49.3508" lon="4.01225">
        <ele>134</ele>
        <time>2019-04-07T11:24:32Z</time>
      </trkpt>
      <trkpt lat="49.35078" lon="4.01237">
        <ele>134</ele>
        <time>2019-04-07T11:24:33Z</time>
      </trkpt>
      <trkpt lat="49.35076" lon="4.01249">
        <ele>135</ele>
        <time>2019-04-07T11:24:34Z</time>
      </trkpt>
      <trkpt lat="49.35074" lon="4.01261">
        <ele>134</ele>
        <time>2019-04-07T11:24:35Z</time>
      </trkpt>
      <trkpt lat="49.35072" lon="4.01272">
        <ele>134</ele>
        <time>2019-04-07T11:24:36Z</time>
      </trkpt>
      <trkpt lat="49.3507" lon="4.01284">
        <ele>135</ele>
        <time>2019-04-07T11:24:37Z</time>
      </trkpt>
      <trkpt lat="49.35068" lon="4.01296">
        <ele>135</ele>
        <time>2019-04-07T11:24:38Z</time>
      </trkpt>
      <trkpt lat="49.35066" lon="4.01309">
        <ele>134</ele>
        <time>2019-04-07T11:24:39Z</time>
      </trkpt>
      <trkpt lat="49.35064" lon="4.01321">
        <ele>134</ele>
        <time>2019-04-07T11:24:40Z</time>
      </trkpt>
      <trkpt lat="49.35062" lon="4.01333">
        <ele>134</ele>
        <time>2019-04-07T11:24:41Z</time>
      </trkpt>
      <trkpt lat="49.3506" lon="4.01345">
        <ele>134</ele>
        <time>2019-04-07T11:24:42Z</time>
      </trkpt>
      <trkpt lat="49.35059" lon="4.01357">
        <ele>134</ele>
        <time>2019-04-07T11:24:43Z</time>
      </trkpt>
      <trkpt lat="49.35057" lon="4.01369">
        <ele>134</ele>
        <time>2019-04-07T11:24:44Z</time>
      </trkpt>
      <trkpt lat="49.35053" lon="4.01393">
        <ele>134</ele>
        <time>2019-04-07T11:24:46Z</time>
      </trkpt>
      <trkpt lat="49.35051" lon="4.01405">
        <ele>135</ele>
        <time>2019-04-07T11:24:47Z</time>
      </trkpt>
      <trkpt lat="49.35049" lon="4.01417">
        <ele>135</ele>
        <time>2019-04-07T11:24:48Z</time>
      </trkpt>
      <trkpt lat="49.35047" lon="4.01429">
        <ele>135</ele>
        <time>2019-04-07T11:24:49Z</time>
      </trkpt>
      <trkpt lat="49.35045" lon="4.01441">
        <ele>135</ele>
        <time>2019-04-07T11:24:50Z</time>
      </trkpt>
      <trkpt lat="49.35044" lon="4.01452">
        <ele>134</ele>
        <time>2019-04-07T11:24:51Z</time>
      </trkpt>
      <trkpt lat="49.35042" lon="4.01464">
        <ele>134</ele>
        <time>2019-04-07T11:24:52Z</time>
      </trkpt>
      <trkpt lat="49.3504" lon="4.01476">
        <ele>135</ele>
        <time>2019-04-07T11:24:53Z</time>
      </trkpt>
      <trkpt lat="49.35038" lon="4.01488">
        <ele>135</ele>
        <time>2019-04-07T11:24:54Z</time>
      </trkpt>
      <trkpt lat="49.35036" lon="4.01499">
        <ele>135</ele>
        <time>2019-04-07T11:24:55Z</time>
      </trkpt>
      <trkpt lat="49.35034" lon="4.0151">
        <ele>135</ele>
        <time>2019-04-07T11:24:56Z</time>
      </trkpt>
      <trkpt lat="49.35032" lon="4.01522">
        <ele>135</ele>
        <time>2019-04-07T11:24:57Z</time>
      </trkpt>
      <trkpt lat="49.3503" lon="4.01533">
        <ele>135</ele>
        <time>2019-04-07T11:24:58Z</time>
      </trkpt>
      <trkpt lat="49.35028" lon="4.01544">
        <ele>135</ele>
        <time>2019-04-07T11:24:59Z</time>
      </trkpt>
      <trkpt lat="49.35026" lon="4.01555">
        <ele>135</ele>
        <time>2019-04-07T11:25:00Z</time>
      </trkpt>
      <trkpt lat="49.35025" lon="4.01567">
        <ele>135</ele>
        <time>2019-04-07T11:25:01Z</time>
      </trkpt>
      <trkpt lat="49.35023" lon="4.01578">
        <ele>135</ele>
        <time>2019-04-07T11:25:02Z</time>
      </trkpt>
      <trkpt lat="49.35021" lon="4.0159">
        <ele>135</ele>
        <time>2019-04-07T11:25:03Z</time>
      </trkpt>
      <trkpt lat="49.3502" lon="4.01601">
        <ele>135</ele>
        <time>2019-04-07T11:25:04Z</time>
      </trkpt>
      <trkpt lat="49.35018" lon="4.01612">
        <ele>135</ele>
        <time>2019-04-07T11:25:05Z</time>
      </trkpt>
      <trkpt lat="49.35016" lon="4.01623">
        <ele>135</ele>
        <time>2019-04-07T11:25:06Z</time>
      </trkpt>
      <trkpt lat="49.35014" lon="4.01634">
        <ele>135</ele>
        <time>2019-04-07T11:25:07Z</time>
      </trkpt>
      <trkpt lat="49.35013" lon="4.01645">
        <ele>135</ele>
        <time>2019-04-07T11:25:08Z</time>
      </trkpt>
      <trkpt lat="49.35011" lon="4.01656">
        <ele>135</ele>
        <time>2019-04-07T11:25:09Z</time>
      </trkpt>
      <trkpt lat="49.35009" lon="4.01666">
        <ele>135</ele>
        <time>2019-04-07T11:25:10Z</time>
      </trkpt>
      <trkpt lat="49.35007" lon="4.01676">
        <ele>135</ele>
        <time>2019-04-07T11:25:11Z</time>
      </trkpt>
      <trkpt lat="49.35005" lon="4.01687">
        <ele>136</ele>
        <time>2019-04-07T11:25:12Z</time>
      </trkpt>
      <trkpt lat="49.35003" lon="4.01698">
        <ele>136</ele>
        <time>2019-04-07T11:25:13Z</time>
      </trkpt>
      <trkpt lat="49.35002" lon="4.01709">
        <ele>136</ele>
        <time>2019-04-07T11:25:14Z</time>
      </trkpt>
      <trkpt lat="49.35" lon="4.0172">
        <ele>136</ele>
        <time>2019-04-07T11:25:15Z</time>
      </trkpt>
      <trkpt lat="49.34998" lon="4.01731">
        <ele>136</ele>
        <time>2019-04-07T11:25:16Z</time>
      </trkpt>
      <trkpt lat="49.34997" lon="4.01741">
        <ele>136</ele>
        <time>2019-04-07T11:25:17Z</time>
      </trkpt>
      <trkpt lat="49.34995" lon="4.01752">
        <ele>136</ele>
        <time>2019-04-07T11:25:18Z</time>
      </trkpt>
      <trkpt lat="49.34993" lon="4.01763">
        <ele>136</ele>
        <time>2019-04-07T11:25:19Z</time>
      </trkpt>
      <trkpt lat="49.34991" lon="4.01773">
        <ele>136</ele>
        <time>2019-04-07T11:25:20Z</time>
      </trkpt>
      <trkpt lat="49.3499" lon="4.01783">
        <ele>136</ele>
        <time>2019-04-07T11:25:21Z</time>
      </trkpt>
      <trkpt lat="49.34988" lon="4.01794">
        <ele>136</ele>
        <time>2019-04-07T11:25:22Z</time>
      </trkpt>
      <trkpt lat="49.34986" lon="4.01804">
        <ele>136</ele>
        <time>2019-04-07T11:25:23Z</time>
      </trkpt>
      <trkpt lat="49.34985" lon="4.01815">
        <ele>136</ele>
        <time>2019-04-07T11:25:24Z</time>
      </trkpt>
      <trkpt lat="49.34983" lon="4.01825">
        <ele>136</ele>
        <time>2019-04-07T11:25:25Z</time>
      </trkpt>
      <trkpt lat="49.34981" lon="4.01835">
        <ele>136</ele>
        <time>2019-04-07T11:25:26Z</time>
      </trkpt>
      <trkpt lat="49.34979" lon="4.01846">
        <ele>136</ele>
        <time>2019-04-07T11:25:27Z</time>
      </trkpt>
      <trkpt lat="49.34977" lon="4.01856">
        <ele>136</ele>
        <time>2019-04-07T11:25:28Z</time>
      </trkpt>
      <trkpt lat="49.34976" lon="4.01867">
        <ele>136</ele>
        <time>2019-04-07T11:25:29Z</time>
      </trkpt>
      <trkpt lat="49.34974" lon="4.01877">
        <ele>136</ele>
        <time>2019-04-07T11:25:30Z</time>
      </trkpt>
      <trkpt lat="49.34973" lon="4.01888">
        <ele>136</ele>
        <time>2019-04-07T11:25:31Z</time>
      </trkpt>
      <trkpt lat="49.34971" lon="4.01899">
        <ele>136</ele>
        <time>2019-04-07T11:25:32Z</time>
      </trkpt>
      <trkpt lat="49.34969" lon="4.0191">
        <ele>136</ele>
        <time>2019-04-07T11:25:33Z</time>
      </trkpt>
      <trkpt lat="49.34968" lon="4.0192">
        <ele>136</ele>
        <time>2019-04-07T11:25:34Z</time>
      </trkpt>
      <trkpt lat="49.34966" lon="4.01931">
        <ele>136</ele>
        <time>2019-04-07T11:25:35Z</time>
      </trkpt>
      <trkpt lat="49.34964" lon="4.01942">
        <ele>136</ele>
        <time>2019-04-07T11:25:36Z</time>
      </trkpt>
      <trkpt lat="49.34962" lon="4.01953">
        <ele>137</ele>
        <time>2019-04-07T11:25:37Z</time>
      </trkpt>
      <trkpt lat="49.34961" lon="4.01963">
        <ele>137</ele>
        <time>2019-04-07T11:25:38Z</time>
      </trkpt>
      <trkpt lat="49.34959" lon="4.01974">
        <ele>137</ele>
        <time>2019-04-07T11:25:39Z</time>
      </trkpt>
      <trkpt lat="49.34957" lon="4.01985">
        <ele>137</ele>
        <time>2019-04-07T11:25:40Z</time>
      </trkpt>
      <trkpt lat="49.34955" lon="4.01996">
        <ele>137</ele>
        <time>2019-04-07T11:25:41Z</time>
      </trkpt>
      <trkpt lat="49.34953" lon="4.02006">
        <ele>137</ele>
        <time>2019-04-07T11:25:42Z</time>
      </trkpt>
      <trkpt lat="49.34951" lon="4.02017">
        <ele>137</ele>
        <time>2019-04-07T11:25:43Z</time>
      </trkpt>
      <trkpt lat="49.34949" lon="4.02027">
        <ele>137</ele>
        <time>2019-04-07T11:25:44Z</time>
      </trkpt>
      <trkpt lat="49.34948" lon="4.02038">
        <ele>138</ele>
        <time>2019-04-07T11:25:45Z</time>
      </trkpt>
      <trkpt lat="49.34946" lon="4.02048">
        <ele>138</ele>
        <time>2019-04-07T11:25:46Z</time>
      </trkpt>
      <trkpt lat="49.34945" lon="4.02059">
        <ele>137</ele>
        <time>2019-04-07T11:25:47Z</time>
      </trkpt>
      <trkpt lat="49.34943" lon="4.02069">
        <ele>138</ele>
        <time>2019-04-07T11:25:48Z</time>
      </trkpt>
      <trkpt lat="49.34942" lon="4.02079">
        <ele>138</ele>
        <time>2019-04-07T11:25:49Z</time>
      </trkpt>
      <trkpt lat="49.3494" lon="4.02089">
        <ele>138</ele>
        <time>2019-04-07T11:25:50Z</time>
      </trkpt>
      <trkpt lat="49.34938" lon="4.02099">
        <ele>138</ele>
        <time>2019-04-07T11:25:51Z</time>
      </trkpt>
      <trkpt lat="49.34937" lon="4.02108">
        <ele>138</ele>
        <time>2019-04-07T11:25:52Z</time>
      </trkpt>
      <trkpt lat="49.34935" lon="4.02118">
        <ele>138</ele>
        <time>2019-04-07T11:25:53Z</time>
      </trkpt>
      <trkpt lat="49.34934" lon="4.02127">
        <ele>138</ele>
        <time>2019-04-07T11:25:54Z</time>
      </trkpt>
      <trkpt lat="49.34932" lon="4.02137">
        <ele>139</ele>
        <time>2019-04-07T11:25:55Z</time>
      </trkpt>
      <trkpt lat="49.34931" lon="4.02146">
        <ele>139</ele>
        <time>2019-04-07T11:25:56Z</time>
      </trkpt>
      <trkpt lat="49.34929" lon="4.02156">
        <ele>139</ele>
        <time>2019-04-07T11:25:57Z</time>
      </trkpt>
      <trkpt lat="49.34928" lon="4.02165">
        <ele>139</ele>
        <time>2019-04-07T11:25:58Z</time>
      </trkpt>
      <trkpt lat="49.34926" lon="4.02175">
        <ele>140</ele>
        <time>2019-04-07T11:25:59Z</time>
      </trkpt>
      <trkpt lat="49.34924" lon="4.02184">
        <ele>140</ele>
        <time>2019-04-07T11:26:00Z</time>
      </trkpt>
      <trkpt lat="49.34923" lon="4.02193">
        <ele>140</ele>
        <time>2019-04-07T11:26:01Z</time>
      </trkpt>
      <trkpt lat="49.34922" lon="4.02203">
        <ele>140</ele>
        <time>2019-04-07T11:26:02Z</time>
      </trkpt>
      <trkpt lat="49.34921" lon="4.02212">
        <ele>140</ele>
        <time>2019-04-07T11:26:03Z</time>
      </trkpt>
      <trkpt lat="49.34919" lon="4.02221">
        <ele>140</ele>
        <time>2019-04-07T11:26:04Z</time>
      </trkpt>
      <trkpt lat="49.34918" lon="4.0223">
        <ele>141</ele>
        <time>2019-04-07T11:26:05Z</time>
      </trkpt>
      <trkpt lat="49.34916" lon="4.02239">
        <ele>141</ele>
        <time>2019-04-07T11:26:06Z</time>
      </trkpt>
      <trkpt lat="49.34914" lon="4.02249">
        <ele>141</ele>
        <time>2019-04-07T11:26:07Z</time>
      </trkpt>
      <trkpt lat="49.34913" lon="4.02258">
        <ele>141</ele>
        <time>2019-04-07T11:26:08Z</time>
      </trkpt>
      <trkpt lat="49.34912" lon="4.02267">
        <ele>142</ele>
        <time>2019-04-07T11:26:09Z</time>
      </trkpt>
      <trkpt lat="49.3491" lon="4.02276">
        <ele>142</ele>
        <time>2019-04-07T11:26:10Z</time>
      </trkpt>
      <trkpt lat="49.34909" lon="4.02284">
        <ele>142</ele>
        <time>2019-04-07T11:26:11Z</time>
      </trkpt>
      <trkpt lat="49.34907" lon="4.02293">
        <ele>142</ele>
        <time>2019-04-07T11:26:12Z</time>
      </trkpt>
      <trkpt lat="49.34906" lon="4.02301">
        <ele>142</ele>
        <time>2019-04-07T11:26:13Z</time>
      </trkpt>
      <trkpt lat="49.34905" lon="4.0231">
        <ele>142</ele>
        <time>2019-04-07T11:26:14Z</time>
      </trkpt>
      <trkpt lat="49.34904" lon="4.02318">
        <ele>142</ele>
        <time>2019-04-07T11:26:15Z</time>
      </trkpt>
      <trkpt lat="49.34902" lon="4.02326">
        <ele>142</ele>
        <time>2019-04-07T11:26:16Z</time>
      </trkpt>
      <trkpt lat="49.34901" lon="4.02335">
        <ele>142</ele>
        <time>2019-04-07T11:26:17Z</time>
      </trkpt>
      <trkpt lat="49.34899" lon="4.02344">
        <ele>143</ele>
        <time>2019-04-07T11:26:18Z</time>
      </trkpt>
      <trkpt lat="49.34897" lon="4.02352">
        <ele>143</ele>
        <time>2019-04-07T11:26:19Z</time>
      </trkpt>
      <trkpt lat="49.34896" lon="4.0236">
        <ele>143</ele>
        <time>2019-04-07T11:26:20Z</time>
      </trkpt>
      <trkpt lat="49.34895" lon="4.02369">
        <ele>143</ele>
        <time>2019-04-07T11:26:21Z</time>
      </trkpt>
      <trkpt lat="49.34894" lon="4.02377">
        <ele>143</ele>
        <time>2019-04-07T11:26:22Z</time>
      </trkpt>
      <trkpt lat="49.34892" lon="4.02385">
        <ele>143</ele>
        <time>2019-04-07T11:26:23Z</time>
      </trkpt>
      <trkpt lat="49.34891" lon="4.02393">
        <ele>143</ele>
        <time>2019-04-07T11:26:24Z</time>
      </trkpt>
      <trkpt lat="49.3489" lon="4.02401">
        <ele>143</ele>
        <time>2019-04-07T11:26:25Z</time>
      </trkpt>
      <trkpt lat="49.34888" lon="4.02408">
        <ele>143</ele>
        <time>2019-04-07T11:26:26Z</time>
      </trkpt>
      <trkpt lat="49.34887" lon="4.02416">
        <ele>143</ele>
        <time>2019-04-07T11:26:27Z</time>
      </trkpt>
      <trkpt lat="49.34886" lon="4.02424">
        <ele>143</ele>
        <time>2019-04-07T11:26:28Z</time>
      </trkpt>
      <trkpt lat="49.34885" lon="4.02432">
        <ele>143</ele>
        <time>2019-04-07T11:26:29Z</time>
      </trkpt>
      <trkpt lat="49.34883" lon="4.0244">
        <ele>143</ele>
        <time>2019-04-07T11:26:30Z</time>
      </trkpt>
      <trkpt lat="49.34882" lon="4.02447">
        <ele>144</ele>
        <time>2019-04-07T11:26:31Z</time>
      </trkpt>
      <trkpt lat="49.3488" lon="4.02455">
        <ele>144</ele>
        <time>2019-04-07T11:26:32Z</time>
      </trkpt>
      <trkpt lat="49.34879" lon="4.02462">
        <ele>144</ele>
        <time>2019-04-07T11:26:33Z</time>
      </trkpt>
      <trkpt lat="49.34878" lon="4.0247">
        <ele>144</ele>
        <time>2019-04-07T11:26:34Z</time>
      </trkpt>
      <trkpt lat="49.34877" lon="4.02478">
        <ele>144</ele>
        <time>2019-04-07T11:26:35Z</time>
      </trkpt>
      <trkpt lat="49.34876" lon="4.02485">
        <ele>144</ele>
        <time>2019-04-07T11:26:36Z</time>
      </trkpt>
      <trkpt lat="49.34875" lon="4.02493">
        <ele>144</ele>
        <time>2019-04-07T11:26:37Z</time>
      </trkpt>
      <trkpt lat="49.34874" lon="4.025">
        <ele>145</ele>
        <time>2019-04-07T11:26:38Z</time>
      </trkpt>
      <trkpt lat="49.34873" lon="4.02507">
        <ele>145</ele>
        <time>2019-04-07T11:26:39Z</time>
      </trkpt>
      <trkpt lat="49.34871" lon="4.02515">
        <ele>145</ele>
        <time>2019-04-07T11:26:40Z</time>
      </trkpt>
      <trkpt lat="49.3487" lon="4.02522">
        <ele>145</ele>
        <time>2019-04-07T11:26:41Z</time>
      </trkpt>
      <trkpt lat="49.34869" lon="4.02528">
        <ele>145</ele>
        <time>2019-04-07T11:26:42Z</time>
      </trkpt>
      <trkpt lat="49.34868" lon="4.02535">
        <ele>145</ele>
        <time>2019-04-07T11:26:43Z</time>
      </trkpt>
      <trkpt lat="49.34867" lon="4.02542">
        <ele>145</ele>
        <time>2019-04-07T11:26:44Z</time>
      </trkpt>
      <trkpt lat="49.34866" lon="4.02548">
        <ele>145</ele>
        <time>2019-04-07T11:26:45Z</time>
      </trkpt>
      <trkpt lat="49.34864" lon="4.02555">
        <ele>145</ele>
        <time>2019-04-07T11:26:46Z</time>
      </trkpt>
      <trkpt lat="49.34864" lon="4.02562">
        <ele>145</ele>
        <time>2019-04-07T11:26:47Z</time>
      </trkpt>
      <trkpt lat="49.34863" lon="4.02568">
        <ele>145</ele>
        <time>2019-04-07T11:26:48Z</time>
      </trkpt>
      <trkpt lat="49.34862" lon="4.02574">
        <ele>145</ele>
        <time>2019-04-07T11:26:49Z</time>
      </trkpt>
      <trkpt lat="49.34861" lon="4.02581">
        <ele>145</ele>
        <time>2019-04-07T11:26:50Z</time>
      </trkpt>
      <trkpt lat="49.3486" lon="4.02587">
        <ele>146</ele>
        <time>2019-04-07T11:26:51Z</time>
      </trkpt>
      <trkpt lat="49.34859" lon="4.02594">
        <ele>146</ele>
        <time>2019-04-07T11:26:52Z</time>
      </trkpt>
      <trkpt lat="49.34857" lon="4.026">
        <ele>146</ele>
        <time>2019-04-07T11:26:53Z</time>
      </trkpt>
      <trkpt lat="49.34856" lon="4.02607">
        <ele>146</ele>
        <time>2019-04-07T11:26:54Z</time>
      </trkpt>
      <trkpt lat="49.34855" lon="4.02613">
        <ele>146</ele>
        <time>2019-04-07T11:26:55Z</time>
      </trkpt>
      <trkpt lat="49.34854" lon="4.02619">
        <ele>146</ele>
        <time>2019-04-07T11:26:56Z</time>
      </trkpt>
      <trkpt lat="49.34853" lon="4.02625">
        <ele>146</ele>
        <time>2019-04-07T11:26:57Z</time>
      </trkpt>
      <trkpt lat="49.34852" lon="4.02632">
        <ele>146</ele>
        <time>2019-04-07T11:26:58Z</time>
      </trkpt>
      <trkpt lat="49.34851" lon="4.02638">
        <ele>146</ele>
        <time>2019-04-07T11:26:59Z</time>
      </trkpt>
      <trkpt lat="49.3485" lon="4.02644">
        <ele>147</ele>
        <time>2019-04-07T11:27:00Z</time>
      </trkpt>
      <trkpt lat="49.34849" lon="4.02649">
        <ele>147</ele>
        <time>2019-04-07T11:27:01Z</time>
      </trkpt>
      <trkpt lat="49.34848" lon="4.02655">
        <ele>147</ele>
        <time>2019-04-07T11:27:02Z</time>
      </trkpt>
      <trkpt lat="49.34847" lon="4.0266">
        <ele>147</ele>
        <time>2019-04-07T11:27:03Z</time>
      </trkpt>
      <trkpt lat="49.34846" lon="4.02666">
        <ele>147</ele>
        <time>2019-04-07T11:27:04Z</time>
      </trkpt>
      <trkpt lat="49.34845" lon="4.02672">
        <ele>147</ele>
        <time>2019-04-07T11:27:05Z</time>
      </trkpt>
      <trkpt lat="49.34844" lon="4.02678">
        <ele>147</ele>
        <time>2019-04-07T11:27:06Z</time>
      </trkpt>
      <trkpt lat="49.34843" lon="4.02683">
        <ele>147</ele>
        <time>2019-04-07T11:27:07Z</time>
      </trkpt>
      <trkpt lat="49.34842" lon="4.02689">
        <ele>147</ele>
        <time>2019-04-07T11:27:08Z</time>
      </trkpt>
      <trkpt lat="49.34841" lon="4.02695">
        <ele>147</ele>
        <time>2019-04-07T11:27:09Z</time>
      </trkpt>
      <trkpt lat="49.3484" lon="4.027">
        <ele>147</ele>
        <time>2019-04-07T11:27:10Z</time>
      </trkpt>
      <trkpt lat="49.34839" lon="4.02706">
        <ele>147</ele>
        <time>2019-04-07T11:27:11Z</time>
      </trkpt>
      <trkpt lat="49.34838" lon="4.02711">
        <ele>147</ele>
        <time>2019-04-07T11:27:12Z</time>
      </trkpt>
      <trkpt lat="49.34837" lon="4.02717">
        <ele>147</ele>
        <time>2019-04-07T11:27:13Z</time>
      </trkpt>
      <trkpt lat="49.34836" lon="4.02723">
        <ele>147</ele>
        <time>2019-04-07T11:27:14Z</time>
      </trkpt>
      <trkpt lat="49.34836" lon="4.02728">
        <ele>148</ele>
        <time>2019-04-07T11:27:15Z</time>
      </trkpt>
      <trkpt lat="49.34835" lon="4.02733">
        <ele>148</ele>
        <time>2019-04-07T11:27:16Z</time>
      </trkpt>
      <trkpt lat="49.34834" lon="4.02739">
        <ele>148</ele>
        <time>2019-04-07T11:27:17Z</time>
      </trkpt>
      <trkpt lat="49.34833" lon="4.02745">
        <ele>148</ele>
        <time>2019-04-07T11:27:18Z</time>
      </trkpt>
      <trkpt lat="49.34832" lon="4.0275">
        <ele>149</ele>
        <time>2019-04-07T11:27:19Z</time>
      </trkpt>
      <trkpt lat="49.34831" lon="4.02756">
        <ele>149</ele>
        <time>2019-04-07T11:27:20Z</time>
      </trkpt>
      <trkpt lat="49.3483" lon="4.02762">
        <ele>149</ele>
        <time>2019-04-07T11:27:21Z</time>
      </trkpt>
      <trkpt lat="49.34829" lon="4.02768">
        <ele>149</ele>
        <time>2019-04-07T11:27:22Z</time>
      </trkpt>
      <trkpt lat="49.34828" lon="4.02774">
        <ele>149</ele>
        <time>2019-04-07T11:27:23Z</time>
      </trkpt>
      <trkpt lat="49.34827" lon="4.02781">
        <ele>150</ele>
        <time>2019-04-07T11:27:24Z</time>
      </trkpt>
      <trkpt lat="49.34826" lon="4.02786">
        <ele>150</ele>
        <time>2019-04-07T11:27:25Z</time>
      </trkpt>
      <trkpt lat="49.34824" lon="4.02792">
        <ele>150</ele>
        <time>2019-04-07T11:27:26Z</time>
      </trkpt>
      <trkpt lat="49.34823" lon="4.02798">
        <ele>150</ele>
        <time>2019-04-07T11:27:27Z</time>
      </trkpt>
      <trkpt lat="49.34822" lon="4.02804">
        <ele>150</ele>
        <time>2019-04-07T11:27:28Z</time>
      </trkpt>
      <trkpt lat="49.34821" lon="4.0281">
        <ele>150</ele>
        <time>2019-04-07T11:27:29Z</time>
      </trkpt>
      <trkpt lat="49.3482" lon="4.02816">
        <ele>150</ele>
        <time>2019-04-07T11:27:30Z</time>
      </trkpt>
      <trkpt lat="49.34819" lon="4.02822">
        <ele>150</ele>
        <time>2019-04-07T11:27:31Z</time>
      </trkpt>
      <trkpt lat="49.34818" lon="4.02828">
        <ele>150</ele>
        <time>2019-04-07T11:27:32Z</time>
      </trkpt>
      <trkpt lat="49.34818" lon="4.02833">
        <ele>150</ele>
        <time>2019-04-07T11:27:33Z</time>
      </trkpt>
      <trkpt lat="49.34817" lon="4.02839">
        <ele>150</ele>
        <time>2019-04-07T11:27:34Z</time>
      </trkpt>
      <trkpt lat="49.34816" lon="4.02845">
        <ele>150</ele>
        <time>2019-04-07T11:27:35Z</time>
      </trkpt>
      <trkpt lat="49.34815" lon="4.02851">
        <ele>150</ele>
        <time>2019-04-07T11:27:36Z</time>
      </trkpt>
      <trkpt lat="49.34814" lon="4.02857">
        <ele>151</ele>
        <time>2019-04-07T11:27:37Z</time>
      </trkpt>
      <trkpt lat="49.34813" lon="4.02862">
        <ele>151</ele>
        <time>2019-04-07T11:27:38Z</time>
      </trkpt>
      <trkpt lat="49.34812" lon="4.02868">
        <ele>151</ele>
        <time>2019-04-07T11:27:39Z</time>
      </trkpt>
      <trkpt lat="49.34811" lon="4.02874">
        <ele>151</ele>
        <time>2019-04-07T11:27:40Z</time>
      </trkpt>
      <trkpt lat="49.3481" lon="4.0288">
        <ele>151</ele>
        <time>2019-04-07T11:27:41Z</time>
      </trkpt>
      <trkpt lat="49.34809" lon="4.02885">
        <ele>151</ele>
        <time>2019-04-07T11:27:42Z</time>
      </trkpt>
      <trkpt lat="49.34808" lon="4.02891">
        <ele>151</ele>
        <time>2019-04-07T11:27:43Z</time>
      </trkpt>
      <trkpt lat="49.34808" lon="4.02896">
        <ele>151</ele>
        <time>2019-04-07T11:27:44Z</time>
      </trkpt>
      <trkpt lat="49.34807" lon="4.02902">
        <ele>152</ele>
        <time>2019-04-07T11:27:45Z</time>
      </trkpt>
      <trkpt lat="49.34806" lon="4.02908">
        <ele>152</ele>
        <time>2019-04-07T11:27:46Z</time>
      </trkpt>
      <trkpt lat="49.34805" lon="4.02913">
        <ele>152</ele>
        <time>2019-04-07T11:27:47Z</time>
      </trkpt>
      <trkpt lat="49.34803" lon="4.02919">
        <ele>152</ele>
        <time>2019-04-07T11:27:48Z</time>
      </trkpt>
      <trkpt lat="49.34802" lon="4.02924">
        <ele>152</ele>
        <time>2019-04-07T11:27:49Z</time>
      </trkpt>
      <trkpt lat="49.34802" lon="4.02929">
        <ele>153</ele>
        <time>2019-04-07T11:27:50Z</time>
      </trkpt>
      <trkpt lat="49.34801" lon="4.02935">
        <ele>153</ele>
        <time>2019-04-07T11:27:51Z</time>
      </trkpt>
      <trkpt lat="49.34801" lon="4.0294">
        <ele>153</ele>
        <time>2019-04-07T11:27:52Z</time>
      </trkpt>
      <trkpt lat="49.348" lon="4.02945">
        <ele>153</ele>
        <time>2019-04-07T11:27:53Z</time>
      </trkpt>
      <trkpt lat="49.34799" lon="4.02951">
        <ele>154</ele>
        <time>2019-04-07T11:27:54Z</time>
      </trkpt>
      <trkpt lat="49.34798" lon="4.02956">
        <ele>154</ele>
        <time>2019-04-07T11:27:55Z</time>
      </trkpt>
      <trkpt lat="49.34797" lon="4.02962">
        <ele>154</ele>
        <time>2019-04-07T11:27:56Z</time>
      </trkpt>
      <trkpt lat="49.34796" lon="4.02968">
        <ele>154</ele>
        <time>2019-04-07T11:27:57Z</time>
      </trkpt>
      <trkpt lat="49.34796" lon="4.02974">
        <ele>154</ele>
        <time>2019-04-07T11:27:58Z</time>
      </trkpt>
      <trkpt lat="49.34795" lon="4.02979">
        <ele>154</ele>
        <time>2019-04-07T11:27:59Z</time>
      </trkpt>
      <trkpt lat="49.34794" lon="4.02985">
        <ele>154</ele>
        <time>2019-04-07T11:28:00Z</time>
      </trkpt>
      <trkpt lat="49.34793" lon="4.0299">
        <ele>155</ele>
        <time>2019-04-07T11:28:01Z</time>
      </trkpt>
      <trkpt lat="49.34792" lon="4.02996">
        <ele>155</ele>
        <time>2019-04-07T11:28:02Z</time>
      </trkpt>
      <trkpt lat="49.34791" lon="4.03002">
        <ele>155</ele>
        <time>2019-04-07T11:28:03Z</time>
      </trkpt>
      <trkpt lat="49.3479" lon="4.03008">
        <ele>155</ele>
        <time>2019-04-07T11:28:04Z</time>
      </trkpt>
      <trkpt lat="49.34789" lon="4.03014">
        <ele>155</ele>
        <time>2019-04-07T11:28:05Z</time>
      </trkpt>
      <trkpt lat="49.34788" lon="4.0302">
        <ele>155</ele>
        <time>2019-04-07T11:28:06Z</time>
      </trkpt>
      <trkpt lat="49.34787" lon="4.03026">
        <ele>155</ele>
        <time>2019-04-07T11:28:07Z</time>
      </trkpt>
      <trkpt lat="49.34786" lon="4.03031">
        <ele>156</ele>
        <time>2019-04-07T11:28:08Z</time>
      </trkpt>
      <trkpt lat="49.34786" lon="4.03037">
        <ele>156</ele>
        <time>2019-04-07T11:28:09Z</time>
      </trkpt>
      <trkpt lat="49.34784" lon="4.03042">
        <ele>156</ele>
        <time>2019-04-07T11:28:10Z</time>
      </trkpt>
      <trkpt lat="49.34783" lon="4.03048">
        <ele>156</ele>
        <time>2019-04-07T11:28:11Z</time>
      </trkpt>
      <trkpt lat="49.34782" lon="4.03053">
        <ele>156</ele>
        <time>2019-04-07T11:28:12Z</time>
      </trkpt>
      <trkpt lat="49.34782" lon="4.03059">
        <ele>156</ele>
        <time>2019-04-07T11:28:13Z</time>
      </trkpt>
      <trkpt lat="49.34781" lon="4.03065">
        <ele>156</ele>
        <time>2019-04-07T11:28:14Z</time>
      </trkpt>
      <trkpt lat="49.3478" lon="4.03071">
        <ele>156</ele>
        <time>2019-04-07T11:28:15Z</time>
      </trkpt>
      <trkpt lat="49.34779" lon="4.03076">
        <ele>156</ele>
        <time>2019-04-07T11:28:16Z</time>
      </trkpt>
      <trkpt lat="49.34778" lon="4.03081">
        <ele>157</ele>
        <time>2019-04-07T11:28:17Z</time>
      </trkpt>
      <trkpt lat="49.34777" lon="4.03086">
        <ele>157</ele>
        <time>2019-04-07T11:28:18Z</time>
      </trkpt>
      <trkpt lat="49.34776" lon="4.03093">
        <ele>157</ele>
        <time>2019-04-07T11:28:19Z</time>
      </trkpt>
      <trkpt lat="49.34775" lon="4.03099">
        <ele>157</ele>
        <time>2019-04-07T11:28:20Z</time>
      </trkpt>
      <trkpt lat="49.34774" lon="4.03105">
        <ele>156</ele>
        <time>2019-04-07T11:28:21Z</time>
      </trkpt>
      <trkpt lat="49.34773" lon="4.03111">
        <ele>156</ele>
        <time>2019-04-07T11:28:22Z</time>
      </trkpt>
      <trkpt lat="49.34772" lon="4.03118">
        <ele>157</ele>
        <time>2019-04-07T11:28:23Z</time>
      </trkpt>
      <trkpt lat="49.34772" lon="4.03124">
        <ele>157</ele>
        <time>2019-04-07T11:28:24Z</time>
      </trkpt>
      <trkpt lat="49.34771" lon="4.03132">
        <ele>156</ele>
        <time>2019-04-07T11:28:25Z</time>
      </trkpt>
      <trkpt lat="49.34769" lon="4.03139">
        <ele>156</ele>
        <time>2019-04-07T11:28:26Z</time>
      </trkpt>
      <trkpt lat="49.34768" lon="4.03147">
        <ele>156</ele>
        <time>2019-04-07T11:28:27Z</time>
      </trkpt>
      <trkpt lat="49.34767" lon="4.03154">
        <ele>156</ele>
        <time>2019-04-07T11:28:28Z</time>
      </trkpt>
      <trkpt lat="49.34766" lon="4.03162">
        <ele>156</ele>
        <time>2019-04-07T11:28:29Z</time>
      </trkpt>
      <trkpt lat="49.34765" lon="4.0317">
        <ele>155</ele>
        <time>2019-04-07T11:28:30Z</time>
      </trkpt>
      <trkpt lat="49.34765" lon="4.03178">
        <ele>155</ele>
        <time>2019-04-07T11:28:31Z</time>
      </trkpt>
      <trkpt lat="49.34764" lon="4.03186">
        <ele>155</ele>
        <time>2019-04-07T11:28:32Z</time>
      </trkpt>
      <trkpt lat="49.34764" lon="4.03194">
        <ele>155</ele>
        <time>2019-04-07T11:28:33Z</time>
      </trkpt>
      <trkpt lat="49.34764" lon="4.03203">
        <ele>155</ele>
        <time>2019-04-07T11:28:34Z</time>
      </trkpt>
      <trkpt lat="49.34764" lon="4.03212">
        <ele>154</ele>
        <time>2019-04-07T11:28:35Z</time>
      </trkpt>
      <trkpt lat="49.34763" lon="4.03222">
        <ele>154</ele>
        <time>2019-04-07T11:28:36Z</time>
      </trkpt>
      <trkpt lat="49.34763" lon="4.03231">
        <ele>154</ele>
        <time>2019-04-07T11:28:37Z</time>
      </trkpt>
      <trkpt lat="49.34763" lon="4.03242">
        <ele>154</ele>
        <time>2019-04-07T11:28:38Z</time>
      </trkpt>
      <trkpt lat="49.34764" lon="4.03252">
        <ele>153</ele>
        <time>2019-04-07T11:28:39Z</time>
      </trkpt>
      <trkpt lat="49.34764" lon="4.03263">
        <ele>153</ele>
        <time>2019-04-07T11:28:40Z</time>
      </trkpt>
      <trkpt lat="49.34764" lon="4.03274">
        <ele>153</ele>
        <time>2019-04-07T11:28:41Z</time>
      </trkpt>
      <trkpt lat="49.34764" lon="4.03296">
        <ele>152</ele>
        <time>2019-04-07T11:28:43Z</time>
      </trkpt>
      <trkpt lat="49.34764" lon="4.03308">
        <ele>152</ele>
        <time>2019-04-07T11:28:44Z</time>
      </trkpt>
      <trkpt lat="49.34765" lon="4.0332">
        <ele>151</ele>
        <time>2019-04-07T11:28:45Z</time>
      </trkpt>
      <trkpt lat="49.34765" lon="4.03333">
        <ele>151</ele>
        <time>2019-04-07T11:28:46Z</time>
      </trkpt>
      <trkpt lat="49.34766" lon="4.03345">
        <ele>150</ele>
        <time>2019-04-07T11:28:47Z</time>
      </trkpt>
      <trkpt lat="49.34766" lon="4.03358">
        <ele>150</ele>
        <time>2019-04-07T11:28:48Z</time>
      </trkpt>
      <trkpt lat="49.34766" lon="4.03371">
        <ele>150</ele>
        <time>2019-04-07T11:28:49Z</time>
      </trkpt>
      <trkpt lat="49.34765" lon="4.03384">
        <ele>149</ele>
        <time>2019-04-07T11:28:50Z</time>
      </trkpt>
      <trkpt lat="49.34764" lon="4.03398">
        <ele>149</ele>
        <time>2019-04-07T11:28:51Z</time>
      </trkpt>
      <trkpt lat="49.34761" lon="4.0341">
        <ele>149</ele>
        <time>2019-04-07T11:28:52Z</time>
      </trkpt>
      <trkpt lat="49.34757" lon="4.03422">
        <ele>149</ele>
        <time>2019-04-07T11:28:53Z</time>
      </trkpt>
      <trkpt lat="49.34754" lon="4.03436">
        <ele>148</ele>
        <time>2019-04-07T11:28:54Z</time>
      </trkpt>
      <trkpt lat="49.34754" lon="4.03449">
        <ele>148</ele>
        <time>2019-04-07T11:28:55Z</time>
      </trkpt>
      <trkpt lat="49.34757" lon="4.03461">
        <ele>149</ele>
        <time>2019-04-07T11:28:56Z</time>
      </trkpt>
      <trkpt lat="49.34762" lon="4.03472">
        <ele>148</ele>
        <time>2019-04-07T11:28:57Z</time>
      </trkpt>
      <trkpt lat="49.34766" lon="4.03485">
        <ele>148</ele>
        <time>2019-04-07T11:28:58Z</time>
      </trkpt>
      <trkpt lat="49.34768" lon="4.03499">
        <ele>147</ele>
        <time>2019-04-07T11:28:59Z</time>
      </trkpt>
      <trkpt lat="49.34769" lon="4.03514">
        <ele>147</ele>
        <time>2019-04-07T11:29:00Z</time>
      </trkpt>
      <trkpt lat="49.3477" lon="4.03529">
        <ele>146</ele>
        <time>2019-04-07T11:29:01Z</time>
      </trkpt>
      <trkpt lat="49.3477" lon="4.03544">
        <ele>146</ele>
        <time>2019-04-07T11:29:02Z</time>
      </trkpt>
      <trkpt lat="49.34771" lon="4.03559">
        <ele>146</ele>
        <time>2019-04-07T11:29:03Z</time>
      </trkpt>
      <trkpt lat="49.34771" lon="4.03575">
        <ele>145</ele>
        <time>2019-04-07T11:29:04Z</time>
      </trkpt>
      <trkpt lat="49.34771" lon="4.03591">
        <ele>145</ele>
        <time>2019-04-07T11:29:05Z</time>
      </trkpt>
      <trkpt lat="49.34772" lon="4.03607">
        <ele>145</ele>
        <time>2019-04-07T11:29:06Z</time>
      </trkpt>
      <trkpt lat="49.34772" lon="4.03623">
        <ele>145</ele>
        <time>2019-04-07T11:29:07Z</time>
      </trkpt>
      <trkpt lat="49.34772" lon="4.03638">
        <ele>144</ele>
        <time>2019-04-07T11:29:08Z</time>
      </trkpt>
      <trkpt lat="49.34773" lon="4.03655">
        <ele>144</ele>
        <time>2019-04-07T11:29:09Z</time>
      </trkpt>
      <trkpt lat="49.34773" lon="4.03671">
        <ele>144</ele>
        <time>2019-04-07T11:29:10Z</time>
      </trkpt>
      <trkpt lat="49.34774" lon="4.03686">
        <ele>144</ele>
        <time>2019-04-07T11:29:11Z</time>
      </trkpt>
      <trkpt lat="49.34774" lon="4.03702">
        <ele>144</ele>
        <time>2019-04-07T11:29:12Z</time>
      </trkpt>
      <trkpt lat="49.34775" lon="4.03719">
        <ele>144</ele>
        <time>2019-04-07T11:29:13Z</time>
      </trkpt>
      <trkpt lat="49.34775" lon="4.03735">
        <ele>144</ele>
        <time>2019-04-07T11:29:14Z</time>
      </trkpt>
      <trkpt lat="49.34776" lon="4.03752">
        <ele>144</ele>
        <time>2019-04-07T11:29:15Z</time>
      </trkpt>
      <trkpt lat="49.34776" lon="4.03769">
        <ele>143</ele>
        <time>2019-04-07T11:29:16Z</time>
      </trkpt>
      <trkpt lat="49.34776" lon="4.03785">
        <ele>143</ele>
        <time>2019-04-07T11:29:17Z</time>
      </trkpt>
      <trkpt lat="49.34777" lon="4.03801">
        <ele>144</ele>
        <time>2019-04-07T11:29:18Z</time>
      </trkpt>
      <trkpt lat="49.34778" lon="4.03818">
        <ele>144</ele>
        <time>2019-04-07T11:29:19Z</time>
      </trkpt>
      <trkpt lat="49.34778" lon="4.03834">
        <ele>143</ele>
        <time>2019-04-07T11:29:20Z</time>
      </trkpt>
      <trkpt lat="49.34779" lon="4.03851">
        <ele>143</ele>
        <time>2019-04-07T11:29:21Z</time>
      </trkpt>
      <trkpt lat="49.34779" lon="4.03867">
        <ele>143</ele>
        <time>2019-04-07T11:29:22Z</time>
      </trkpt>
      <trkpt lat="49.34779" lon="4.03884">
        <ele>143</ele>
        <time>2019-04-07T11:29:23Z</time>
      </trkpt>
      <trkpt lat="49.3478" lon="4.039">
        <ele>143</ele>
        <time>2019-04-07T11:29:24Z</time>
      </trkpt>
      <trkpt lat="49.3478" lon="4.03916">
        <ele>143</ele>
        <time>2019-04-07T11:29:25Z</time>
      </trkpt>
      <trkpt lat="49.3478" lon="4.03931">
        <ele>143</ele>
        <time>2019-04-07T11:29:26Z</time>
      </trkpt>
      <trkpt lat="49.34781" lon="4.03946">
        <ele>143</ele>
        <time>2019-04-07T11:29:27Z</time>
      </trkpt>
      <trkpt lat="49.34781" lon="4.03961">
        <ele>143</ele>
        <time>2019-04-07T11:29:28Z</time>
      </trkpt>
      <trkpt lat="49.34782" lon="4.03976">
        <ele>143</ele>
        <time>2019-04-07T11:29:29Z</time>
      </trkpt>
      <trkpt lat="49.34782" lon="4.0399">
        <ele>144</ele>
        <time>2019-04-07T11:29:30Z</time>
      </trkpt>
      <trkpt lat="49.34782" lon="4.04003">
        <ele>144</ele>
        <time>2019-04-07T11:29:31Z</time>
      </trkpt>
      <trkpt lat="49.34782" lon="4.04017">
        <ele>144</ele>
        <time>2019-04-07T11:29:32Z</time>
      </trkpt>
      <trkpt lat="49.34782" lon="4.0403">
        <ele>144</ele>
        <time>2019-04-07T11:29:33Z</time>
      </trkpt>
      <trkpt lat="49.34783" lon="4.04043">
        <ele>144</ele>
        <time>2019-04-07T11:29:34Z</time>
      </trkpt>
      <trkpt lat="49.34783" lon="4.04056">
        <ele>144</ele>
        <time>2019-04-07T11:29:35Z</time>
      </trkpt>
      <trkpt lat="49.34784" lon="4.04069">
        <ele>144</ele>
        <time>2019-04-07T11:29:36Z</time>
      </trkpt>
      <trkpt lat="49.34784" lon="4.04081">
        <ele>144</ele>
        <time>2019-04-07T11:29:37Z</time>
      </trkpt>
      <trkpt lat="49.34785" lon="4.04093">
        <ele>144</ele>
        <time>2019-04-07T11:29:38Z</time>
      </trkpt>
      <trkpt lat="49.34785" lon="4.04106">
        <ele>144</ele>
        <time>2019-04-07T11:29:39Z</time>
      </trkpt>
      <trkpt lat="49.34786" lon="4.04118">
        <ele>144</ele>
        <time>2019-04-07T11:29:40Z</time>
      </trkpt>
      <trkpt lat="49.34786" lon="4.04129">
        <ele>144</ele>
        <time>2019-04-07T11:29:41Z</time>
      </trkpt>
      <trkpt lat="49.34786" lon="4.04141">
        <ele>144</ele>
        <time>2019-04-07T11:29:42Z</time>
      </trkpt>
      <trkpt lat="49.34787" lon="4.04153">
        <ele>144</ele>
        <time>2019-04-07T11:29:43Z</time>
      </trkpt>
      <trkpt lat="49.34787" lon="4.04166">
        <ele>144</ele>
        <time>2019-04-07T11:29:44Z</time>
      </trkpt>
      <trkpt lat="49.34787" lon="4.04178">
        <ele>144</ele>
        <time>2019-04-07T11:29:45Z</time>
      </trkpt>
      <trkpt lat="49.34787" lon="4.04191">
        <ele>144</ele>
        <time>2019-04-07T11:29:46Z</time>
      </trkpt>
      <trkpt lat="49.34788" lon="4.04204">
        <ele>144</ele>
        <time>2019-04-07T11:29:47Z</time>
      </trkpt>
      <trkpt lat="49.34789" lon="4.04217">
        <ele>143</ele>
        <time>2019-04-07T11:29:48Z</time>
      </trkpt>
      <trkpt lat="49.34789" lon="4.0423">
        <ele>143</ele>
        <time>2019-04-07T11:29:49Z</time>
      </trkpt>
      <trkpt lat="49.34789" lon="4.04243">
        <ele>143</ele>
        <time>2019-04-07T11:29:50Z</time>
      </trkpt>
      <trkpt lat="49.3479" lon="4.04256">
        <ele>143</ele>
        <time>2019-04-07T11:29:51Z</time>
      </trkpt>
      <trkpt lat="49.3479" lon="4.04269">
        <ele>143</ele>
        <time>2019-04-07T11:29:52Z</time>
      </trkpt>
      <trkpt lat="49.3479" lon="4.04283">
        <ele>143</ele>
        <time>2019-04-07T11:29:53Z</time>
      </trkpt>
      <trkpt lat="49.34791" lon="4.04297">
        <ele>143</ele>
        <time>2019-04-07T11:29:54Z</time>
      </trkpt>
      <trkpt lat="49.34791" lon="4.04311">
        <ele>143</ele>
        <time>2019-04-07T11:29:55Z</time>
      </trkpt>
      <trkpt lat="49.34791" lon="4.04325">
        <ele>142</ele>
        <time>2019-04-07T11:29:56Z</time>
      </trkpt>
      <trkpt lat="49.34792" lon="4.0434">
        <ele>142</ele>
        <time>2019-04-07T11:29:57Z</time>
      </trkpt>
      <trkpt lat="49.34792" lon="4.04354">
        <ele>142</ele>
        <time>2019-04-07T11:29:58Z</time>
      </trkpt>
      <trkpt lat="49.34793" lon="4.04368">
        <ele>142</ele>
        <time>2019-04-07T11:29:59Z</time>
      </trkpt>
      <trkpt lat="49.34793" lon="4.04383">
        <ele>142</ele>
        <time>2019-04-07T11:30:00Z</time>
      </trkpt>
      <trkpt lat="49.34794" lon="4.04398">
        <ele>142</ele>
        <time>2019-04-07T11:30:01Z</time>
      </trkpt>
      <trkpt lat="49.34794" lon="4.04412">
        <ele>142</ele>
        <time>2019-04-07T11:30:02Z</time>
      </trkpt>
      <trkpt lat="49.34794" lon="4.04427">
        <ele>142</ele>
        <time>2019-04-07T11:30:03Z</time>
      </trkpt>
      <trkpt lat="49.34794" lon="4.04442">
        <ele>142</ele>
        <time>2019-04-07T11:30:04Z</time>
      </trkpt>
      <trkpt lat="49.34795" lon="4.04456">
        <ele>142</ele>
        <time>2019-04-07T11:30:05Z</time>
      </trkpt>
      <trkpt lat="49.34795" lon="4.04471">
        <ele>142</ele>
        <time>2019-04-07T11:30:06Z</time>
      </trkpt>
      <trkpt lat="49.34795" lon="4.04485">
        <ele>142</ele>
        <time>2019-04-07T11:30:07Z</time>
      </trkpt>
      <trkpt lat="49.34796" lon="4.04499">
        <ele>142</ele>
        <time>2019-04-07T11:30:08Z</time>
      </trkpt>
      <trkpt lat="49.34797" lon="4.04513">
        <ele>142</ele>
        <time>2019-04-07T11:30:09Z</time>
      </trkpt>
      <trkpt lat="49.34797" lon="4.04527">
        <ele>142</ele>
        <time>2019-04-07T11:30:10Z</time>
      </trkpt>
      <trkpt lat="49.34797" lon="4.04541">
        <ele>141</ele>
        <time>2019-04-07T11:30:11Z</time>
      </trkpt>
      <trkpt lat="49.34797" lon="4.04556">
        <ele>141</ele>
        <time>2019-04-07T11:30:12Z</time>
      </trkpt>
      <trkpt lat="49.34797" lon="4.0457">
        <ele>141</ele>
        <time>2019-04-07T11:30:13Z</time>
      </trkpt>
      <trkpt lat="49.34798" lon="4.04584">
        <ele>141</ele>
        <time>2019-04-07T11:30:14Z</time>
      </trkpt>
      <trkpt lat="49.34798" lon="4.04598">
        <ele>141</ele>
        <time>2019-04-07T11:30:15Z</time>
      </trkpt>
      <trkpt lat="49.34799" lon="4.04612">
        <ele>140</ele>
        <time>2019-04-07T11:30:16Z</time>
      </trkpt>
      <trkpt lat="49.34799" lon="4.04625">
        <ele>140</ele>
        <time>2019-04-07T11:30:17Z</time>
      </trkpt>
      <trkpt lat="49.348" lon="4.0464">
        <ele>140</ele>
        <time>2019-04-07T11:30:18Z</time>
      </trkpt>
      <trkpt lat="49.348" lon="4.04655">
        <ele>140</ele>
        <time>2019-04-07T11:30:19Z</time>
      </trkpt>
      <trkpt lat="49.34801" lon="4.0467">
        <ele>140</ele>
        <time>2019-04-07T11:30:20Z</time>
      </trkpt>
      <trkpt lat="49.34801" lon="4.04685">
        <ele>139</ele>
        <time>2019-04-07T11:30:21Z</time>
      </trkpt>
      <trkpt lat="49.34801" lon="4.047">
        <ele>139</ele>
        <time>2019-04-07T11:30:22Z</time>
      </trkpt>
      <trkpt lat="49.34801" lon="4.04715">
        <ele>139</ele>
        <time>2019-04-07T11:30:23Z</time>
      </trkpt>
      <trkpt lat="49.34802" lon="4.0473">
        <ele>139</ele>
        <time>2019-04-07T11:30:24Z</time>
      </trkpt>
      <trkpt lat="49.34803" lon="4.04746">
        <ele>139</ele>
        <time>2019-04-07T11:30:25Z</time>
      </trkpt>
      <trkpt lat="49.34803" lon="4.04761">
        <ele>138</ele>
        <time>2019-04-07T11:30:26Z</time>
      </trkpt>
      <trkpt lat="49.34804" lon="4.04777">
        <ele>138</ele>
        <time>2019-04-07T11:30:27Z</time>
      </trkpt>
      <trkpt lat="49.34804" lon="4.04792">
        <ele>138</ele>
        <time>2019-04-07T11:30:28Z</time>
      </trkpt>
      <trkpt lat="49.34805" lon="4.04808">
        <ele>138</ele>
        <time>2019-04-07T11:30:29Z</time>
      </trkpt>
      <trkpt lat="49.34805" lon="4.04824">
        <ele>138</ele>
        <time>2019-04-07T11:30:30Z</time>
      </trkpt>
      <trkpt lat="49.34805" lon="4.0484">
        <ele>137</ele>
        <time>2019-04-07T11:30:31Z</time>
      </trkpt>
      <trkpt lat="49.34805" lon="4.04856">
        <ele>137</ele>
        <time>2019-04-07T11:30:32Z</time>
      </trkpt>
      <trkpt lat="49.34806" lon="4.04871">
        <ele>137</ele>
        <time>2019-04-07T11:30:33Z</time>
      </trkpt>
      <trkpt lat="49.34806" lon="4.04887">
        <ele>137</ele>
        <time>2019-04-07T11:30:34Z</time>
      </trkpt>
      <trkpt lat="49.34807" lon="4.04903">
        <ele>137</ele>
        <time>2019-04-07T11:30:35Z</time>
      </trkpt>
      <trkpt lat="49.34807" lon="4.04918">
        <ele>137</ele>
        <time>2019-04-07T11:30:36Z</time>
      </trkpt>
      <trkpt lat="49.34808" lon="4.04933">
        <ele>137</ele>
        <time>2019-04-07T11:30:37Z</time>
      </trkpt>
      <trkpt lat="49.34808" lon="4.04948">
        <ele>137</ele>
        <time>2019-04-07T11:30:38Z</time>
      </trkpt>
      <trkpt lat="49.34808" lon="4.04963">
        <ele>137</ele>
        <time>2019-04-07T11:30:39Z</time>
      </trkpt>
      <trkpt lat="49.34809" lon="4.04977">
        <ele>137</ele>
        <time>2019-04-07T11:30:40Z</time>
      </trkpt>
      <trkpt lat="49.34809" lon="4.04991">
        <ele>137</ele>
        <time>2019-04-07T11:30:41Z</time>
      </trkpt>
      <trkpt lat="49.34809" lon="4.05005">
        <ele>137</ele>
        <time>2019-04-07T11:30:42Z</time>
      </trkpt>
      <trkpt lat="49.3481" lon="4.05019">
        <ele>137</ele>
        <time>2019-04-07T11:30:43Z</time>
      </trkpt>
      <trkpt lat="49.3481" lon="4.05032">
        <ele>137</ele>
        <time>2019-04-07T11:30:44Z</time>
      </trkpt>
      <trkpt lat="49.3481" lon="4.05046">
        <ele>137</ele>
        <time>2019-04-07T11:30:45Z</time>
      </trkpt>
      <trkpt lat="49.34811" lon="4.05059">
        <ele>137</ele>
        <time>2019-04-07T11:30:46Z</time>
      </trkpt>
      <trkpt lat="49.34811" lon="4.05072">
        <ele>137</ele>
        <time>2019-04-07T11:30:47Z</time>
      </trkpt>
      <trkpt lat="49.34812" lon="4.05084">
        <ele>137</ele>
        <time>2019-04-07T11:30:48Z</time>
      </trkpt>
      <trkpt lat="49.34812" lon="4.05097">
        <ele>137</ele>
        <time>2019-04-07T11:30:49Z</time>
      </trkpt>
      <trkpt lat="49.34812" lon="4.05109">
        <ele>137</ele>
        <time>2019-04-07T11:30:50Z</time>
      </trkpt>
      <trkpt lat="49.34812" lon="4.05121">
        <ele>138</ele>
        <time>2019-04-07T11:30:51Z</time>
      </trkpt>
      <trkpt lat="49.34813" lon="4.05133">
        <ele>138</ele>
        <time>2019-04-07T11:30:52Z</time>
      </trkpt>
      <trkpt lat="49.34813" lon="4.05144">
        <ele>138</ele>
        <time>2019-04-07T11:30:53Z</time>
      </trkpt>
      <trkpt lat="49.34813" lon="4.05155">
        <ele>138</ele>
        <time>2019-04-07T11:30:54Z</time>
      </trkpt>
      <trkpt lat="49.34814" lon="4.05167">
        <ele>138</ele>
        <time>2019-04-07T11:30:55Z</time>
      </trkpt>
      <trkpt lat="49.34814" lon="4.05178">
        <ele>138</ele>
        <time>2019-04-07T11:30:56Z</time>
      </trkpt>
      <trkpt lat="49.34814" lon="4.05189">
        <ele>138</ele>
        <time>2019-04-07T11:30:57Z</time>
      </trkpt>
      <trkpt lat="49.34815" lon="4.052">
        <ele>138</ele>
        <time>2019-04-07T11:30:58Z</time>
      </trkpt>
      <trkpt lat="49.34815" lon="4.05211">
        <ele>138</ele>
        <time>2019-04-07T11:30:59Z</time>
      </trkpt>
      <trkpt lat="49.34816" lon="4.05222">
        <ele>138</ele>
        <time>2019-04-07T11:31:00Z</time>
      </trkpt>
      <trkpt lat="49.34816" lon="4.05233">
        <ele>138</ele>
        <time>2019-04-07T11:31:01Z</time>
      </trkpt>
      <trkpt lat="49.34816" lon="4.05243">
        <ele>139</ele>
        <time>2019-04-07T11:31:02Z</time>
      </trkpt>
      <trkpt lat="49.34816" lon="4.05253">
        <ele>139</ele>
        <time>2019-04-07T11:31:03Z</time>
      </trkpt>
      <trkpt lat="49.34816" lon="4.05263">
        <ele>139</ele>
        <time>2019-04-07T11:31:04Z</time>
      </trkpt>
      <trkpt lat="49.34816" lon="4.05273">
        <ele>139</ele>
        <time>2019-04-07T11:31:05Z</time>
      </trkpt>
      <trkpt lat="49.34816" lon="4.05282">
        <ele>139</ele>
        <time>2019-04-07T11:31:06Z</time>
      </trkpt>
      <trkpt lat="49.34817" lon="4.05292">
        <ele>139</ele>
        <time>2019-04-07T11:31:07Z</time>
      </trkpt>
      <trkpt lat="49.34817" lon="4.05301">
        <ele>139</ele>
        <time>2019-04-07T11:31:08Z</time>
      </trkpt>
      <trkpt lat="49.34818" lon="4.0531">
        <ele>139</ele>
        <time>2019-04-07T11:31:09Z</time>
      </trkpt>
      <trkpt lat="49.34818" lon="4.0532">
        <ele>139</ele>
        <time>2019-04-07T11:31:10Z</time>
      </trkpt>
      <trkpt lat="49.34818" lon="4.0533">
        <ele>140</ele>
        <time>2019-04-07T11:31:11Z</time>
      </trkpt>
      <trkpt lat="49.34819" lon="4.0534">
        <ele>140</ele>
        <time>2019-04-07T11:31:12Z</time>
      </trkpt>
      <trkpt lat="49.34819" lon="4.05349">
        <ele>140</ele>
        <time>2019-04-07T11:31:13Z</time>
      </trkpt>
      <trkpt lat="49.34819" lon="4.05359">
        <ele>140</ele>
        <time>2019-04-07T11:31:14Z</time>
      </trkpt>
      <trkpt lat="49.34819" lon="4.05367">
        <ele>140</ele>
        <time>2019-04-07T11:31:15Z</time>
      </trkpt>
      <trkpt lat="49.34819" lon="4.05376">
        <ele>140</ele>
        <time>2019-04-07T11:31:16Z</time>
      </trkpt>
      <trkpt lat="49.34819" lon="4.05385">
        <ele>140</ele>
        <time>2019-04-07T11:31:17Z</time>
      </trkpt>
      <trkpt lat="49.3482" lon="4.05394">
        <ele>140</ele>
        <time>2019-04-07T11:31:18Z</time>
      </trkpt>
      <trkpt lat="49.3482" lon="4.05402">
        <ele>140</ele>
        <time>2019-04-07T11:31:19Z</time>
      </trkpt>
      <trkpt lat="49.3482" lon="4.0541">
        <ele>141</ele>
        <time>2019-04-07T11:31:20Z</time>
      </trkpt>
      <trkpt lat="49.3482" lon="4.05418">
        <ele>141</ele>
        <time>2019-04-07T11:31:21Z</time>
      </trkpt>
      <trkpt lat="49.34821" lon="4.05426">
        <ele>141</ele>
        <time>2019-04-07T11:31:22Z</time>
      </trkpt>
      <trkpt lat="49.34821" lon="4.05434">
        <ele>141</ele>
        <time>2019-04-07T11:31:23Z</time>
      </trkpt>
      <trkpt lat="49.34821" lon="4.05442">
        <ele>141</ele>
        <time>2019-04-07T11:31:24Z</time>
      </trkpt>
      <trkpt lat="49.34821" lon="4.0545">
        <ele>141</ele>
        <time>2019-04-07T11:31:25Z</time>
      </trkpt>
      <trkpt lat="49.34822" lon="4.05458">
        <ele>141</ele>
        <time>2019-04-07T11:31:26Z</time>
      </trkpt>
      <trkpt lat="49.34822" lon="4.05466">
        <ele>141</ele>
        <time>2019-04-07T11:31:27Z</time>
      </trkpt>
      <trkpt lat="49.34822" lon="4.05473">
        <ele>141</ele>
        <time>2019-04-07T11:31:28Z</time>
      </trkpt>
      <trkpt lat="49.34822" lon="4.05481">
        <ele>141</ele>
        <time>2019-04-07T11:31:29Z</time>
      </trkpt>
      <trkpt lat="49.34822" lon="4.05488">
        <ele>141</ele>
        <time>2019-04-07T11:31:30Z</time>
      </trkpt>
      <trkpt lat="49.34823" lon="4.05496">
        <ele>141</ele>
        <time>2019-04-07T11:31:31Z</time>
      </trkpt>
      <trkpt lat="49.34823" lon="4.05503">
        <ele>141</ele>
        <time>2019-04-07T11:31:32Z</time>
      </trkpt>
      <trkpt lat="49.34823" lon="4.05511">
        <ele>141</ele>
        <time>2019-04-07T11:31:33Z</time>
      </trkpt>
      <trkpt lat="49.34824" lon="4.05519">
        <ele>142</ele>
        <time>2019-04-07T11:31:34Z</time>
      </trkpt>
      <trkpt lat="49.34824" lon="4.05527">
        <ele>142</ele>
        <time>2019-04-07T11:31:35Z</time>
      </trkpt>
      <trkpt lat="49.34825" lon="4.05535">
        <ele>142</ele>
        <time>2019-04-07T11:31:36Z</time>
      </trkpt>
      <trkpt lat="49.34825" lon="4.05543">
        <ele>142</ele>
        <time>2019-04-07T11:31:37Z</time>
      </trkpt>
      <trkpt lat="49.34825" lon="4.05551">
        <ele>142</ele>
        <time>2019-04-07T11:31:38Z</time>
      </trkpt>
      <trkpt lat="49.34826" lon="4.0556">
        <ele>142</ele>
        <time>2019-04-07T11:31:39Z</time>
      </trkpt>
      <trkpt lat="49.34827" lon="4.05569">
        <ele>142</ele>
        <time>2019-04-07T11:31:40Z</time>
      </trkpt>
      <trkpt lat="49.34827" lon="4.05578">
        <ele>142</ele>
        <time>2019-04-07T11:31:41Z</time>
      </trkpt>
      <trkpt lat="49.34828" lon="4.05587">
        <ele>142</ele>
        <time>2019-04-07T11:31:42Z</time>
      </trkpt>
      <trkpt lat="49.34828" lon="4.05597">
        <ele>142</ele>
        <time>2019-04-07T11:31:43Z</time>
      </trkpt>
      <trkpt lat="49.34829" lon="4.05607">
        <ele>142</ele>
        <time>2019-04-07T11:31:44Z</time>
      </trkpt>
      <trkpt lat="49.3483" lon="4.05617">
        <ele>142</ele>
        <time>2019-04-07T11:31:45Z</time>
      </trkpt>
      <trkpt lat="49.34831" lon="4.05627">
        <ele>142</ele>
        <time>2019-04-07T11:31:46Z</time>
      </trkpt>
      <trkpt lat="49.34831" lon="4.05638">
        <ele>142</ele>
        <time>2019-04-07T11:31:47Z</time>
      </trkpt>
      <trkpt lat="49.34832" lon="4.05648">
        <ele>142</ele>
        <time>2019-04-07T11:31:48Z</time>
      </trkpt>
      <trkpt lat="49.34833" lon="4.05659">
        <ele>142</ele>
        <time>2019-04-07T11:31:49Z</time>
      </trkpt>
      <trkpt lat="49.34834" lon="4.0567">
        <ele>142</ele>
        <time>2019-04-07T11:31:50Z</time>
      </trkpt>
      <trkpt lat="49.34835" lon="4.05691">
        <ele>142</ele>
        <time>2019-04-07T11:31:52Z</time>
      </trkpt>
      <trkpt lat="49.34836" lon="4.05702">
        <ele>141</ele>
        <time>2019-04-07T11:31:53Z</time>
      </trkpt>
      <trkpt lat="49.34837" lon="4.05712">
        <ele>141</ele>
        <time>2019-04-07T11:31:54Z</time>
      </trkpt>
      <trkpt lat="49.34838" lon="4.05723">
        <ele>141</ele>
        <time>2019-04-07T11:31:55Z</time>
      </trkpt>
      <trkpt lat="49.34839" lon="4.05734">
        <ele>141</ele>
        <time>2019-04-07T11:31:56Z</time>
      </trkpt>
      <trkpt lat="49.34839" lon="4.05744">
        <ele>141</ele>
        <time>2019-04-07T11:31:57Z</time>
      </trkpt>
      <trkpt lat="49.3484" lon="4.05755">
        <ele>141</ele>
        <time>2019-04-07T11:31:58Z</time>
      </trkpt>
      <trkpt lat="49.34841" lon="4.05765">
        <ele>141</ele>
        <time>2019-04-07T11:31:59Z</time>
      </trkpt>
      <trkpt lat="49.34842" lon="4.05776">
        <ele>141</ele>
        <time>2019-04-07T11:32:00Z</time>
      </trkpt>
      <trkpt lat="49.34842" lon="4.05787">
        <ele>140</ele>
        <time>2019-04-07T11:32:01Z</time>
      </trkpt>
      <trkpt lat="49.34843" lon="4.05798">
        <ele>140</ele>
        <time>2019-04-07T11:32:02Z</time>
      </trkpt>
      <trkpt lat="49.34843" lon="4.05808">
        <ele>140</ele>
        <time>2019-04-07T11:32:03Z</time>
      </trkpt>
      <trkpt lat="49.34844" lon="4.05819">
        <ele>139</ele>
        <time>2019-04-07T11:32:04Z</time>
      </trkpt>
      <trkpt lat="49.34845" lon="4.05831">
        <ele>139</ele>
        <time>2019-04-07T11:32:05Z</time>
      </trkpt>
      <trkpt lat="49.34846" lon="4.05842">
        <ele>139</ele>
        <time>2019-04-07T11:32:06Z</time>
      </trkpt>
      <trkpt lat="49.34847" lon="4.05854">
        <ele>139</ele>
        <time>2019-04-07T11:32:07Z</time>
      </trkpt>
      <trkpt lat="49.34848" lon="4.05867">
        <ele>139</ele>
        <time>2019-04-07T11:32:08Z</time>
      </trkpt>
      <trkpt lat="49.34848" lon="4.05879">
        <ele>139</ele>
        <time>2019-04-07T11:32:09Z</time>
      </trkpt>
      <trkpt lat="49.34849" lon="4.05891">
        <ele>139</ele>
        <time>2019-04-07T11:32:10Z</time>
      </trkpt>
      <trkpt lat="49.3485" lon="4.05904">
        <ele>139</ele>
        <time>2019-04-07T11:32:11Z</time>
      </trkpt>
      <trkpt lat="49.34851" lon="4.05916">
        <ele>139</ele>
        <time>2019-04-07T11:32:12Z</time>
      </trkpt>
      <trkpt lat="49.34852" lon="4.05929">
        <ele>138</ele>
        <time>2019-04-07T11:32:13Z</time>
      </trkpt>
      <trkpt lat="49.34853" lon="4.05942">
        <ele>138</ele>
        <time>2019-04-07T11:32:14Z</time>
      </trkpt>
      <trkpt lat="49.34854" lon="4.05954">
        <ele>139</ele>
        <time>2019-04-07T11:32:15Z</time>
      </trkpt>
      <trkpt lat="49.34855" lon="4.05967">
        <ele>139</ele>
        <time>2019-04-07T11:32:16Z</time>
      </trkpt>
      <trkpt lat="49.34856" lon="4.0598">
        <ele>139</ele>
        <time>2019-04-07T11:32:17Z</time>
      </trkpt>
      <trkpt lat="49.34857" lon="4.05993">
        <ele>139</ele>
        <time>2019-04-07T11:32:18Z</time>
      </trkpt>
      <trkpt lat="49.34858" lon="4.06006">
        <ele>139</ele>
        <time>2019-04-07T11:32:19Z</time>
      </trkpt>
      <trkpt lat="49.34859" lon="4.06019">
        <ele>139</ele>
        <time>2019-04-07T11:32:20Z</time>
      </trkpt>
      <trkpt lat="49.3486" lon="4.06032">
        <ele>139</ele>
        <time>2019-04-07T11:32:21Z</time>
      </trkpt>
      <trkpt lat="49.34861" lon="4.06044">
        <ele>139</ele>
        <time>2019-04-07T11:32:22Z</time>
      </trkpt>
      <trkpt lat="49.34861" lon="4.06056">
        <ele>139</ele>
        <time>2019-04-07T11:32:23Z</time>
      </trkpt>
      <trkpt lat="49.34862" lon="4.06068">
        <ele>139</ele>
        <time>2019-04-07T11:32:24Z</time>
      </trkpt>
      <trkpt lat="49.34863" lon="4.06079">
        <ele>139</ele>
        <time>2019-04-07T11:32:25Z</time>
      </trkpt>
      <trkpt lat="49.34864" lon="4.06091">
        <ele>139</ele>
        <time>2019-04-07T11:32:26Z</time>
      </trkpt>
      <trkpt lat="49.34865" lon="4.06103">
        <ele>139</ele>
        <time>2019-04-07T11:32:27Z</time>
      </trkpt>
      <trkpt lat="49.34865" lon="4.06114">
        <ele>139</ele>
        <time>2019-04-07T11:32:28Z</time>
      </trkpt>
      <trkpt lat="49.34866" lon="4.06126">
        <ele>139</ele>
        <time>2019-04-07T11:32:29Z</time>
      </trkpt>
      <trkpt lat="49.34867" lon="4.06137">
        <ele>139</ele>
        <time>2019-04-07T11:32:30Z</time>
      </trkpt>
      <trkpt lat="49.34868" lon="4.06149">
        <ele>139</ele>
        <time>2019-04-07T11:32:31Z</time>
      </trkpt>
      <trkpt lat="49.34869" lon="4.0616">
        <ele>139</ele>
        <time>2019-04-07T11:32:32Z</time>
      </trkpt>
      <trkpt lat="49.3487" lon="4.06171">
        <ele>139</ele>
        <time>2019-04-07T11:32:33Z</time>
      </trkpt>
      <trkpt lat="49.34871" lon="4.06182">
        <ele>138</ele>
        <time>2019-04-07T11:32:34Z</time>
      </trkpt>
      <trkpt lat="49.34871" lon="4.06193">
        <ele>138</ele>
        <time>2019-04-07T11:32:35Z</time>
      </trkpt>
      <trkpt lat="49.34872" lon="4.06203">
        <ele>138</ele>
        <time>2019-04-07T11:32:36Z</time>
      </trkpt>
      <trkpt lat="49.34873" lon="4.06213">
        <ele>138</ele>
        <time>2019-04-07T11:32:37Z</time>
      </trkpt>
      <trkpt lat="49.34873" lon="4.06222">
        <ele>138</ele>
        <time>2019-04-07T11:32:38Z</time>
      </trkpt>
      <trkpt lat="49.34874" lon="4.06231">
        <ele>138</ele>
        <time>2019-04-07T11:32:39Z</time>
      </trkpt>
      <trkpt lat="49.34874" lon="4.0624">
        <ele>138</ele>
        <time>2019-04-07T11:32:40Z</time>
      </trkpt>
      <trkpt lat="49.34875" lon="4.06249">
        <ele>138</ele>
        <time>2019-04-07T11:32:41Z</time>
      </trkpt>
      <trkpt lat="49.34876" lon="4.06258">
        <ele>138</ele>
        <time>2019-04-07T11:32:42Z</time>
      </trkpt>
      <trkpt lat="49.34877" lon="4.06266">
        <ele>138</ele>
        <time>2019-04-07T11:32:43Z</time>
      </trkpt>
      <trkpt lat="49.34878" lon="4.06275">
        <ele>138</ele>
        <time>2019-04-07T11:32:44Z</time>
      </trkpt>
      <trkpt lat="49.34878" lon="4.06284">
        <ele>138</ele>
        <time>2019-04-07T11:32:45Z</time>
      </trkpt>
      <trkpt lat="49.34879" lon="4.06293">
        <ele>138</ele>
        <time>2019-04-07T11:32:46Z</time>
      </trkpt>
      <trkpt lat="49.34879" lon="4.06302">
        <ele>138</ele>
        <time>2019-04-07T11:32:47Z</time>
      </trkpt>
      <trkpt lat="49.3488" lon="4.06312">
        <ele>138</ele>
        <time>2019-04-07T11:32:48Z</time>
      </trkpt>
      <trkpt lat="49.34881" lon="4.06321">
        <ele>138</ele>
        <time>2019-04-07T11:32:49Z</time>
      </trkpt>
      <trkpt lat="49.34882" lon="4.0633">
        <ele>138</ele>
        <time>2019-04-07T11:32:50Z</time>
      </trkpt>
      <trkpt lat="49.34882" lon="4.0634">
        <ele>138</ele>
        <time>2019-04-07T11:32:51Z</time>
      </trkpt>
      <trkpt lat="49.34883" lon="4.06349">
        <ele>139</ele>
        <time>2019-04-07T11:32:52Z</time>
      </trkpt>
      <trkpt lat="49.34884" lon="4.06359">
        <ele>139</ele>
        <time>2019-04-07T11:32:53Z</time>
      </trkpt>
      <trkpt lat="49.34884" lon="4.06368">
        <ele>139</ele>
        <time>2019-04-07T11:32:54Z</time>
      </trkpt>
      <trkpt lat="49.34885" lon="4.06377">
        <ele>139</ele>
        <time>2019-04-07T11:32:55Z</time>
      </trkpt>
      <trkpt lat="49.34886" lon="4.06387">
        <ele>139</ele>
        <time>2019-04-07T11:32:56Z</time>
      </trkpt>
      <trkpt lat="49.34886" lon="4.06396">
        <ele>139</ele>
        <time>2019-04-07T11:32:57Z</time>
      </trkpt>
      <trkpt lat="49.34887" lon="4.06405">
        <ele>139</ele>
        <time>2019-04-07T11:32:58Z</time>
      </trkpt>
      <trkpt lat="49.34888" lon="4.06414">
        <ele>139</ele>
        <time>2019-04-07T11:32:59Z</time>
      </trkpt>
      <trkpt lat="49.34889" lon="4.06424">
        <ele>139</ele>
        <time>2019-04-07T11:33:00Z</time>
      </trkpt>
      <trkpt lat="49.34889" lon="4.06433">
        <ele>139</ele>
        <time>2019-04-07T11:33:01Z</time>
      </trkpt>
      <trkpt lat="49.34889" lon="4.06441">
        <ele>139</ele>
        <time>2019-04-07T11:33:02Z</time>
      </trkpt>
      <trkpt lat="49.3489" lon="4.06449">
        <ele>139</ele>
        <time>2019-04-07T11:33:03Z</time>
      </trkpt>
      <trkpt lat="49.3489" lon="4.06458">
        <ele>138</ele>
        <time>2019-04-07T11:33:04Z</time>
      </trkpt>
      <trkpt lat="49.34891" lon="4.06466">
        <ele>138</ele>
        <time>2019-04-07T11:33:05Z</time>
      </trkpt>
      <trkpt lat="49.34892" lon="4.06474">
        <ele>138</ele>
        <time>2019-04-07T11:33:06Z</time>
      </trkpt>
      <trkpt lat="49.34892" lon="4.06482">
        <ele>138</ele>
        <time>2019-04-07T11:33:07Z</time>
      </trkpt>
      <trkpt lat="49.34893" lon="4.0649">
        <ele>137</ele>
        <time>2019-04-07T11:33:08Z</time>
      </trkpt>
      <trkpt lat="49.34894" lon="4.06499">
        <ele>137</ele>
        <time>2019-04-07T11:33:09Z</time>
      </trkpt>
      <trkpt lat="49.34894" lon="4.06507">
        <ele>137</ele>
        <time>2019-04-07T11:33:10Z</time>
      </trkpt>
      <trkpt lat="49.34895" lon="4.06515">
        <ele>137</ele>
        <time>2019-04-07T11:33:11Z</time>
      </trkpt>
      <trkpt lat="49.34895" lon="4.06524">
        <ele>137</ele>
        <time>2019-04-07T11:33:12Z</time>
      </trkpt>
      <trkpt lat="49.34893" lon="4.06532">
        <ele>137</ele>
        <time>2019-04-07T11:33:13Z</time>
      </trkpt>
      <trkpt lat="49.3489" lon="4.06539">
        <ele>137</ele>
        <time>2019-04-07T11:33:14Z</time>
      </trkpt>
      <trkpt lat="49.34886" lon="4.06546">
        <ele>137</ele>
        <time>2019-04-07T11:33:15Z</time>
      </trkpt>
      <trkpt lat="49.34881" lon="4.06552">
        <ele>138</ele>
        <time>2019-04-07T11:33:16Z</time>
      </trkpt>
      <trkpt lat="49.34878" lon="4.06558">
        <ele>138</ele>
        <time>2019-04-07T11:33:17Z</time>
      </trkpt>
      <trkpt lat="49.34874" lon="4.06566">
        <ele>138</ele>
        <time>2019-04-07T11:33:18Z</time>
      </trkpt>
      <trkpt lat="49.3487" lon="4.06572">
        <ele>138</ele>
        <time>2019-04-07T11:33:19Z</time>
      </trkpt>
      <trkpt lat="49.34866" lon="4.06578">
        <ele>139</ele>
        <time>2019-04-07T11:33:20Z</time>
      </trkpt>
      <trkpt lat="49.34863" lon="4.06584">
        <ele>139</ele>
        <time>2019-04-07T11:33:21Z</time>
      </trkpt>
      <trkpt lat="49.3486" lon="4.06591">
        <ele>139</ele>
        <time>2019-04-07T11:33:22Z</time>
      </trkpt>
      <trkpt lat="49.34857" lon="4.06598">
        <ele>139</ele>
        <time>2019-04-07T11:33:23Z</time>
      </trkpt>
      <trkpt lat="49.34854" lon="4.06605">
        <ele>139</ele>
        <time>2019-04-07T11:33:24Z</time>
      </trkpt>
      <trkpt lat="49.34851" lon="4.06611">
        <ele>139</ele>
        <time>2019-04-07T11:33:25Z</time>
      </trkpt>
      <trkpt lat="49.34848" lon="4.06616">
        <ele>139</ele>
        <time>2019-04-07T11:33:26Z</time>
      </trkpt>
      <trkpt lat="49.34845" lon="4.06623">
        <ele>139</ele>
        <time>2019-04-07T11:33:27Z</time>
      </trkpt>
      <trkpt lat="49.34843" lon="4.06628">
        <ele>139</ele>
        <time>2019-04-07T11:33:28Z</time>
      </trkpt>
      <trkpt lat="49.3484" lon="4.06634">
        <ele>140</ele>
        <time>2019-04-07T11:33:29Z</time>
      </trkpt>
      <trkpt lat="49.34836" lon="4.06641">
        <ele>140</ele>
        <time>2019-04-07T11:33:30Z</time>
      </trkpt>
      <trkpt lat="49.34833" lon="4.06648">
        <ele>140</ele>
        <time>2019-04-07T11:33:31Z</time>
      </trkpt>
      <trkpt lat="49.34831" lon="4.06655">
        <ele>141</ele>
        <time>2019-04-07T11:33:32Z</time>
      </trkpt>
      <trkpt lat="49.34829" lon="4.06663">
        <ele>141</ele>
        <time>2019-04-07T11:33:33Z</time>
      </trkpt>
      <trkpt lat="49.34827" lon="4.06671">
        <ele>141</ele>
        <time>2019-04-07T11:33:34Z</time>
      </trkpt>
      <trkpt lat="49.34825" lon="4.0668">
        <ele>140</ele>
        <time>2019-04-07T11:33:35Z</time>
      </trkpt>
      <trkpt lat="49.34824" lon="4.06689">
        <ele>140</ele>
        <time>2019-04-07T11:33:36Z</time>
      </trkpt>
      <trkpt lat="49.34822" lon="4.06698">
        <ele>140</ele>
        <time>2019-04-07T11:33:37Z</time>
      </trkpt>
      <trkpt lat="49.34821" lon="4.06707">
        <ele>139</ele>
        <time>2019-04-07T11:33:38Z</time>
      </trkpt>
      <trkpt lat="49.34819" lon="4.06715">
        <ele>138</ele>
        <time>2019-04-07T11:33:39Z</time>
      </trkpt>
      <trkpt lat="49.34817" lon="4.06722">
        <ele>138</ele>
        <time>2019-04-07T11:33:40Z</time>
      </trkpt>
      <trkpt lat="49.34816" lon="4.06729">
        <ele>138</ele>
        <time>2019-04-07T11:33:41Z</time>
      </trkpt>
      <trkpt lat="49.34815" lon="4.06737">
        <ele>138</ele>
        <time>2019-04-07T11:33:42Z</time>
      </trkpt>
      <trkpt lat="49.34814" lon="4.06745">
        <ele>138</ele>
        <time>2019-04-07T11:33:43Z</time>
      </trkpt>
      <trkpt lat="49.34812" lon="4.06754">
        <ele>137</ele>
        <time>2019-04-07T11:33:44Z</time>
      </trkpt>
      <trkpt lat="49.3481" lon="4.06763">
        <ele>137</ele>
        <time>2019-04-07T11:33:45Z</time>
      </trkpt>
      <trkpt lat="49.34808" lon="4.06772">
        <ele>137</ele>
        <time>2019-04-07T11:33:46Z</time>
      </trkpt>
      <trkpt lat="49.34807" lon="4.06781">
        <ele>137</ele>
        <time>2019-04-07T11:33:47Z</time>
      </trkpt>
      <trkpt lat="49.34805" lon="4.06791">
        <ele>136</ele>
        <time>2019-04-07T11:33:48Z</time>
      </trkpt>
      <trkpt lat="49.34803" lon="4.068">
        <ele>136</ele>
        <time>2019-04-07T11:33:49Z</time>
      </trkpt>
      <trkpt lat="49.34801" lon="4.06809">
        <ele>136</ele>
        <time>2019-04-07T11:33:50Z</time>
      </trkpt>
      <trkpt lat="49.34798" lon="4.06818">
        <ele>135</ele>
        <time>2019-04-07T11:33:51Z</time>
      </trkpt>
      <trkpt lat="49.34796" lon="4.06827">
        <ele>135</ele>
        <time>2019-04-07T11:33:52Z</time>
      </trkpt>
      <trkpt lat="49.34794" lon="4.06836">
        <ele>135</ele>
        <time>2019-04-07T11:33:53Z</time>
      </trkpt>
      <trkpt lat="49.34792" lon="4.06846">
        <ele>135</ele>
        <time>2019-04-07T11:33:54Z</time>
      </trkpt>
      <trkpt lat="49.3479" lon="4.06856">
        <ele>134</ele>
        <time>2019-04-07T11:33:55Z</time>
      </trkpt>
      <trkpt lat="49.34788" lon="4.06866">
        <ele>134</ele>
        <time>2019-04-07T11:33:56Z</time>
      </trkpt>
      <trkpt lat="49.34786" lon="4.06876">
        <ele>134</ele>
        <time>2019-04-07T11:33:57Z</time>
      </trkpt>
      <trkpt lat="49.34785" lon="4.06886">
        <ele>133</ele>
        <time>2019-04-07T11:33:58Z</time>
      </trkpt>
      <trkpt lat="49.34783" lon="4.06896">
        <ele>133</ele>
        <time>2019-04-07T11:33:59Z</time>
      </trkpt>
      <trkpt lat="49.34781" lon="4.06906">
        <ele>132</ele>
        <time>2019-04-07T11:34:00Z</time>
      </trkpt>
      <trkpt lat="49.34778" lon="4.06916">
        <ele>132</ele>
        <time>2019-04-07T11:34:01Z</time>
      </trkpt>
      <trkpt lat="49.34776" lon="4.06926">
        <ele>132</ele>
        <time>2019-04-07T11:34:02Z</time>
      </trkpt>
      <trkpt lat="49.34774" lon="4.06936">
        <ele>132</ele>
        <time>2019-04-07T11:34:03Z</time>
      </trkpt>
      <trkpt lat="49.34771" lon="4.06947">
        <ele>132</ele>
        <time>2019-04-07T11:34:04Z</time>
      </trkpt>
      <trkpt lat="49.34769" lon="4.06958">
        <ele>132</ele>
        <time>2019-04-07T11:34:05Z</time>
      </trkpt>
      <trkpt lat="49.34767" lon="4.06969">
        <ele>131</ele>
        <time>2019-04-07T11:34:06Z</time>
      </trkpt>
      <trkpt lat="49.34765" lon="4.0698">
        <ele>131</ele>
        <time>2019-04-07T11:34:07Z</time>
      </trkpt>
      <trkpt lat="49.34763" lon="4.06991">
        <ele>131</ele>
        <time>2019-04-07T11:34:08Z</time>
      </trkpt>
      <trkpt lat="49.3476" lon="4.07003">
        <ele>131</ele>
        <time>2019-04-07T11:34:09Z</time>
      </trkpt>
      <trkpt lat="49.34758" lon="4.07014">
        <ele>130</ele>
        <time>2019-04-07T11:34:10Z</time>
      </trkpt>
      <trkpt lat="49.34755" lon="4.07026">
        <ele>130</ele>
        <time>2019-04-07T11:34:11Z</time>
      </trkpt>
      <trkpt lat="49.34752" lon="4.07036">
        <ele>130</ele>
        <time>2019-04-07T11:34:12Z</time>
      </trkpt>
      <trkpt lat="49.34749" lon="4.07044">
        <ele>130</ele>
        <time>2019-04-07T11:34:13Z</time>
      </trkpt>
      <trkpt lat="49.34747" lon="4.07051">
        <ele>130</ele>
        <time>2019-04-07T11:34:14Z</time>
      </trkpt>
      <trkpt lat="49.34745" lon="4.07058">
        <ele>130</ele>
        <time>2019-04-07T11:34:15Z</time>
      </trkpt>
      <trkpt lat="49.34742" lon="4.07067">
        <ele>130</ele>
        <time>2019-04-07T11:34:16Z</time>
      </trkpt>
      <trkpt lat="49.3474" lon="4.07074">
        <ele>130</ele>
        <time>2019-04-07T11:34:17Z</time>
      </trkpt>
      <trkpt lat="49.34736" lon="4.07081">
        <ele>130</ele>
        <time>2019-04-07T11:34:18Z</time>
      </trkpt>
      <trkpt lat="49.34732" lon="4.07086">
        <ele>130</ele>
        <time>2019-04-07T11:34:19Z</time>
      </trkpt>
      <trkpt lat="49.34728" lon="4.0709">
        <ele>130</ele>
        <time>2019-04-07T11:34:20Z</time>
      </trkpt>
      <trkpt lat="49.34723" lon="4.07093">
        <ele>130</ele>
        <time>2019-04-07T11:34:21Z</time>
      </trkpt>
      <trkpt lat="49.34718" lon="4.07095">
        <ele>130</ele>
        <time>2019-04-07T11:34:22Z</time>
      </trkpt>
      <trkpt lat="49.34713" lon="4.07098">
        <ele>130</ele>
        <time>2019-04-07T11:34:23Z</time>
      </trkpt>
      <trkpt lat="49.34707" lon="4.071">
        <ele>130</ele>
        <time>2019-04-07T11:34:24Z</time>
      </trkpt>
      <trkpt lat="49.34701" lon="4.07103">
        <ele>131</ele>
        <time>2019-04-07T11:34:25Z</time>
      </trkpt>
      <trkpt lat="49.34695" lon="4.07107">
        <ele>131</ele>
        <time>2019-04-07T11:34:26Z</time>
      </trkpt>
      <trkpt lat="49.34688" lon="4.0711">
        <ele>131</ele>
        <time>2019-04-07T11:34:27Z</time>
      </trkpt>
      <trkpt lat="49.34682" lon="4.07113">
        <ele>131</ele>
        <time>2019-04-07T11:34:28Z</time>
      </trkpt>
      <trkpt lat="49.34676" lon="4.07116">
        <ele>131</ele>
        <time>2019-04-07T11:34:29Z</time>
      </trkpt>
      <trkpt lat="49.34669" lon="4.07119">
        <ele>131</ele>
        <time>2019-04-07T11:34:30Z</time>
      </trkpt>
      <trkpt lat="49.34662" lon="4.07122">
        <ele>131</ele>
        <time>2019-04-07T11:34:31Z</time>
      </trkpt>
      <trkpt lat="49.34655" lon="4.07124">
        <ele>130</ele>
        <time>2019-04-07T11:34:32Z</time>
      </trkpt>
      <trkpt lat="49.34648" lon="4.07128">
        <ele>130</ele>
        <time>2019-04-07T11:34:33Z</time>
      </trkpt>
      <trkpt lat="49.34642" lon="4.07132">
        <ele>130</ele>
        <time>2019-04-07T11:34:34Z</time>
      </trkpt>
      <trkpt lat="49.34636" lon="4.07135">
        <ele>130</ele>
        <time>2019-04-07T11:34:35Z</time>
      </trkpt>
      <trkpt lat="49.3463" lon="4.07139">
        <ele>130</ele>
        <time>2019-04-07T11:34:36Z</time>
      </trkpt>
      <trkpt lat="49.34624" lon="4.07142">
        <ele>130</ele>
        <time>2019-04-07T11:34:37Z</time>
      </trkpt>
      <trkpt lat="49.34617" lon="4.07145">
        <ele>130</ele>
        <time>2019-04-07T11:34:38Z</time>
      </trkpt>
      <trkpt lat="49.3461" lon="4.07149">
        <ele>131</ele>
        <time>2019-04-07T11:34:39Z</time>
      </trkpt>
      <trkpt lat="49.34604" lon="4.07152">
        <ele>131</ele>
        <time>2019-04-07T11:34:40Z</time>
      </trkpt>
      <trkpt lat="49.34599" lon="4.07156">
        <ele>130</ele>
        <time>2019-04-07T11:34:41Z</time>
      </trkpt>
      <trkpt lat="49.34593" lon="4.0716">
        <ele>130</ele>
        <time>2019-04-07T11:34:42Z</time>
      </trkpt>
      <trkpt lat="49.34587" lon="4.07163">
        <ele>130</ele>
        <time>2019-04-07T11:34:43Z</time>
      </trkpt>
      <trkpt lat="49.34581" lon="4.07167">
        <ele>130</ele>
        <time>2019-04-07T11:34:44Z</time>
      </trkpt>
      <trkpt lat="49.34575" lon="4.07171">
        <ele>130</ele>
        <time>2019-04-07T11:34:45Z</time>
      </trkpt>
      <trkpt lat="49.34568" lon="4.07175">
        <ele>130</ele>
        <time>2019-04-07T11:34:46Z</time>
      </trkpt>
      <trkpt lat="49.34562" lon="4.07178">
        <ele>129</ele>
        <time>2019-04-07T11:34:47Z</time>
      </trkpt>
      <trkpt lat="49.34556" lon="4.07181">
        <ele>129</ele>
        <time>2019-04-07T11:34:48Z</time>
      </trkpt>
      <trkpt lat="49.3455" lon="4.07184">
        <ele>129</ele>
        <time>2019-04-07T11:34:49Z</time>
      </trkpt>
      <trkpt lat="49.34543" lon="4.07187">
        <ele>130</ele>
        <time>2019-04-07T11:34:50Z</time>
      </trkpt>
      <trkpt lat="49.34536" lon="4.07191">
        <ele>130</ele>
        <time>2019-04-07T11:34:51Z</time>
      </trkpt>
      <trkpt lat="49.3453" lon="4.07194">
        <ele>130</ele>
        <time>2019-04-07T11:34:52Z</time>
      </trkpt>
      <trkpt lat="49.34524" lon="4.07198">
        <ele>130</ele>
        <time>2019-04-07T11:34:53Z</time>
      </trkpt>
      <trkpt lat="49.34518" lon="4.07201">
        <ele>130</ele>
        <time>2019-04-07T11:34:54Z</time>
      </trkpt>
      <trkpt lat="49.34511" lon="4.07204">
        <ele>129</ele>
        <time>2019-04-07T11:34:55Z</time>
      </trkpt>
      <trkpt lat="49.34505" lon="4.07208">
        <ele>129</ele>
        <time>2019-04-07T11:34:56Z</time>
      </trkpt>
      <trkpt lat="49.345" lon="4.07211">
        <ele>129</ele>
        <time>2019-04-07T11:34:57Z</time>
      </trkpt>
      <trkpt lat="49.34494" lon="4.07215">
        <ele>129</ele>
        <time>2019-04-07T11:34:58Z</time>
      </trkpt>
      <trkpt lat="49.34489" lon="4.07218">
        <ele>129</ele>
        <time>2019-04-07T11:34:59Z</time>
      </trkpt>
      <trkpt lat="49.34484" lon="4.07221">
        <ele>129</ele>
        <time>2019-04-07T11:35:00Z</time>
      </trkpt>
      <trkpt lat="49.34479" lon="4.07223">
        <ele>129</ele>
        <time>2019-04-07T11:35:01Z</time>
      </trkpt>
      <trkpt lat="49.34474" lon="4.07225">
        <ele>129</ele>
        <time>2019-04-07T11:35:02Z</time>
      </trkpt>
      <trkpt lat="49.34469" lon="4.07227">
        <ele>129</ele>
        <time>2019-04-07T11:35:03Z</time>
      </trkpt>
      <trkpt lat="49.34464" lon="4.07227">
        <ele>128</ele>
        <time>2019-04-07T11:35:04Z</time>
      </trkpt>
      <trkpt lat="49.3446" lon="4.07223">
        <ele>128</ele>
        <time>2019-04-07T11:35:05Z</time>
      </trkpt>
      <trkpt lat="49.34456" lon="4.07219">
        <ele>128</ele>
        <time>2019-04-07T11:35:06Z</time>
      </trkpt>
      <trkpt lat="49.34454" lon="4.07213">
        <ele>128</ele>
        <time>2019-04-07T11:35:07Z</time>
      </trkpt>
      <trkpt lat="49.34452" lon="4.07206">
        <ele>128</ele>
        <time>2019-04-07T11:35:08Z</time>
      </trkpt>
      <trkpt lat="49.34451" lon="4.072">
        <ele>128</ele>
        <time>2019-04-07T11:35:09Z</time>
      </trkpt>
      <trkpt lat="49.3445" lon="4.07194">
        <ele>128</ele>
        <time>2019-04-07T11:35:10Z</time>
      </trkpt>
      <trkpt lat="49.3445" lon="4.07187">
        <ele>128</ele>
        <time>2019-04-07T11:35:11Z</time>
      </trkpt>
      <trkpt lat="49.3445" lon="4.07182">
        <ele>128</ele>
        <time>2019-04-07T11:35:12Z</time>
      </trkpt>
      <trkpt lat="49.34452" lon="4.07176">
        <ele>128</ele>
        <time>2019-04-07T11:35:13Z</time>
      </trkpt>
      <trkpt lat="49.34455" lon="4.07174">
        <ele>128</ele>
        <time>2019-04-07T11:35:14Z</time>
      </trkpt>
      <trkpt lat="49.3446" lon="4.07173">
        <ele>129</ele>
        <time>2019-04-07T11:35:15Z</time>
      </trkpt>
      <trkpt lat="49.34464" lon="4.07171">
        <ele>129</ele>
        <time>2019-04-07T11:35:16Z</time>
      </trkpt>
      <trkpt lat="49.34468" lon="4.07169">
        <ele>130</ele>
        <time>2019-04-07T11:35:17Z</time>
      </trkpt>
      <trkpt lat="49.34472" lon="4.07168">
        <ele>130</ele>
        <time>2019-04-07T11:35:18Z</time>
      </trkpt>
      <trkpt lat="49.34476" lon="4.07167">
        <ele>131</ele>
        <time>2019-04-07T11:35:19Z</time>
      </trkpt>
      <trkpt lat="49.3448" lon="4.07165">
        <ele>131</ele>
        <time>2019-04-07T11:35:20Z</time>
      </trkpt>
      <trkpt lat="49.34483" lon="4.07164">
        <ele>131</ele>
        <time>2019-04-07T11:35:21Z</time>
      </trkpt>
      <trkpt lat="49.34485" lon="4.07162">
        <ele>131</ele>
        <time>2019-04-07T11:35:22Z</time>
      </trkpt>
      <trkpt lat="49.34487" lon="4.07161">
        <ele>131</ele>
        <time>2019-04-07T11:35:23Z</time>
      </trkpt>
      <trkpt lat="49.3449" lon="4.0716">
        <ele>131</ele>
        <time>2019-04-07T11:35:24Z</time>
      </trkpt>
      <trkpt lat="49.34492" lon="4.07159">
        <ele>131</ele>
        <time>2019-04-07T11:35:25Z</time>
      </trkpt>
      <trkpt lat="49.34495" lon="4.07159">
        <ele>131</ele>
        <time>2019-04-07T11:35:26Z</time>
      </trkpt>
      <trkpt lat="49.34498" lon="4.07158">
        <ele>131</ele>
        <time>2019-04-07T11:35:27Z</time>
      </trkpt>
      <trkpt lat="49.34501" lon="4.07157">
        <ele>131</ele>
        <time>2019-04-07T11:35:28Z</time>
      </trkpt>
      <trkpt lat="49.34504" lon="4.07155">
        <ele>131</ele>
        <time>2019-04-07T11:35:29Z</time>
      </trkpt>
      <trkpt lat="49.34506" lon="4.07153">
        <ele>131</ele>
        <time>2019-04-07T11:35:30Z</time>
      </trkpt>
      <trkpt lat="49.34509" lon="4.07152">
        <ele>132</ele>
        <time>2019-04-07T11:35:31Z</time>
      </trkpt>
      <trkpt lat="49.34511" lon="4.07151">
        <ele>132</ele>
        <time>2019-04-07T11:35:32Z</time>
      </trkpt>
      <trkpt lat="49.34512" lon="4.0715">
        <ele>132</ele>
        <time>2019-04-07T11:35:33Z</time>
      </trkpt>
      <trkpt lat="49.34512" lon="4.07149">
        <ele>132</ele>
        <time>2019-04-07T11:35:34Z</time>
      </trkpt>
      <trkpt lat="49.34513" lon="4.07148">
        <ele>132</ele>
        <time>2019-04-07T11:35:35Z</time>
      </trkpt>
      <trkpt lat="49.34513" lon="4.07147">
        <ele>132</ele>
        <time>2019-04-07T11:35:36Z</time>
      </trkpt>
      <trkpt lat="49.34514" lon="4.07147">
        <ele>131</ele>
        <time>2019-04-07T11:35:37Z</time>
      </trkpt>
      <trkpt lat="49.34514" lon="4.07147">
        <ele>130</ele>
        <time>2019-04-07T11:35:38Z</time>
      </trkpt>
      <trkpt lat="49.34514" lon="4.07147">
        <ele>130</ele>
        <time>2019-04-07T11:35:39Z</time>
      </trkpt>
      <trkpt lat="49.34514" lon="4.07147">
        <ele>130</ele>
        <time>2019-04-07T11:35:40Z</time>
      </trkpt>
      <trkpt lat="49.34514" lon="4.07147">
        <ele>130</ele>
        <time>2019-04-07T11:35:41Z</time>
      </trkpt>
      <trkpt lat="49.34514" lon="4.07147">
        <ele>130</ele>
        <time>2019-04-07T11:35:42Z</time>
      </trkpt>
      <trkpt lat="49.34514" lon="4.07147">
        <ele>130</ele>
        <time>2019-04-07T11:35:43Z</time>
      </trkpt>
      <trkpt lat="49.34514" lon="4.07147">
        <ele>130</ele>
        <time>2019-04-07T11:35:44Z</time>
      </trkpt>
      <trkpt lat="49.34514" lon="4.07147">
        <ele>130</ele>
        <time>2019-04-07T11:35:45Z</time>
      </trkpt>
      <trkpt lat="49.34514" lon="4.07147">
        <ele>130</ele>
        <time>2019-04-07T11:35:46Z</time>
      </trkpt>
      <trkpt lat="49.34514" lon="4.07147">
        <ele>130</ele>
        <time>2019-04-07T11:35:47Z</time>
      </trkpt>
      <trkpt lat="49.34514" lon="4.07147">
        <ele>130</ele>
        <time>2019-04-07T11:35:48Z</time>
      </trkpt>
      <trkpt lat="49.34514" lon="4.07147">
        <ele>130</ele>
        <time>2019-04-07T11:35:49Z</time>
      </trkpt>
      <trkpt lat="49.34514" lon="4.07147">
        <ele>130</ele>
        <time>2019-04-07T11:35:50Z</time>
      </trkpt>
      <trkpt lat="49.34514" lon="4.07147">
        <ele>130</ele>
        <time>2019-04-07T11:35:51Z</time>
      </trkpt>
      <trkpt lat="49.34514" lon="4.07147">
        <ele>130</ele>
        <time>2019-04-07T11:35:52Z</time>
      </trkpt>
      <trkpt lat="49.34514" lon="4.07147">
        <ele>130</ele>
        <time>2019-04-07T11:35:53Z</time>
      </trkpt>
      <trkpt lat="49.34514" lon="4.07147">
        <ele>130</ele>
        <time>2019-04-07T11:35:54Z</time>
      </trkpt>
      <trkpt lat="49.34514" lon="4.07147">
        <ele>130</ele>
        <time>2019-04-07T11:35:55Z</time>
      </trkpt>
      <trkpt lat="49.34514" lon="4.07147">
        <ele>130</ele>
        <time>2019-04-07T11:35:56Z</time>
      </trkpt>
      <trkpt lat="49.34514" lon="4.07147">
        <ele>130</ele>
        <time>2019-04-07T11:35:57Z</time>
      </trkpt>
      <trkpt lat="49.34513" lon="4.07147">
        <ele>130</ele>
        <time>2019-04-07T11:35:58Z</time>
      </trkpt>
      <trkpt lat="49.34513" lon="4.07147">
        <ele>130</ele>
        <time>2019-04-07T11:35:59Z</time>
      </trkpt>
      <trkpt lat="49.34512" lon="4.07147">
        <ele>130</ele>
        <time>2019-04-07T11:36:00Z</time>
      </trkpt>
      <trkpt lat="49.34512" lon="4.07147">
        <ele>130</ele>
        <time>2019-04-07T11:36:01Z</time>
      </trkpt>
      <trkpt lat="49.34512" lon="4.07147">
        <ele>130</ele>
        <time>2019-04-07T11:36:02Z</time>
      </trkpt>
      <trkpt lat="49.34512" lon="4.07147">
        <ele>130</ele>
        <time>2019-04-07T11:36:03Z</time>
      </trkpt>
      <trkpt lat="49.34512" lon="4.07147">
        <ele>130</ele>
        <time>2019-04-07T11:36:04Z</time>
      </trkpt>
      <trkpt lat="49.34512" lon="4.07147">
        <ele>130</ele>
        <time>2019-04-07T11:36:05Z</time>
      </trkpt>
      <trkpt lat="49.34512" lon="4.07147">
        <ele>130</ele>
        <time>2019-04-07T11:36:06Z</time>
      </trkpt>
      <trkpt lat="49.34512" lon="4.07147">
        <ele>130</ele>
        <time>2019-04-07T11:36:07Z</time>
      </trkpt>
      <trkpt lat="49.34512" lon="4.07147">
        <ele>130</ele>
        <time>2019-04-07T11:36:08Z</time>
      </trkpt>
      <trkpt lat="49.34512" lon="4.07147">
        <ele>130</ele>
        <time>2019-04-07T11:36:09Z</time>
      </trkpt>
      <trkpt lat="49.34512" lon="4.07147">
        <ele>130</ele>
        <time>2019-04-07T11:36:10Z</time>
      </trkpt>
      <trkpt lat="49.34512" lon="4.07147">
        <ele>130</ele>
        <time>2019-04-07T11:36:11Z</time>
      </trkpt>
      <trkpt lat="49.34512" lon="4.07147">
        <ele>130</ele>
        <time>2019-04-07T11:36:12Z</time>
      </trkpt>
      <trkpt lat="49.34512" lon="4.07147">
        <ele>130</ele>
        <time>2019-04-07T11:36:13Z</time>
      </trkpt>
      <trkpt lat="49.34512" lon="4.07147">
        <ele>130</ele>
        <time>2019-04-07T11:36:14Z</time>
      </trkpt>
      <trkpt lat="49.34512" lon="4.07147">
        <ele>130</ele>
        <time>2019-04-07T11:36:15Z</time>
      </trkpt>
      <trkpt lat="49.34512" lon="4.07147">
        <ele>130</ele>
        <time>2019-04-07T11:36:16Z</time>
      </trkpt>
      <trkpt lat="49.34512" lon="4.07147">
        <ele>130</ele>
        <time>2019-04-07T11:36:17Z</time>
      </trkpt>
      <trkpt lat="49.34512" lon="4.07147">
        <ele>130</ele>
        <time>2019-04-07T11:36:18Z</time>
      </trkpt>
      <trkpt lat="49.34512" lon="4.07147">
        <ele>130</ele>
        <time>2019-04-07T11:36:19Z</time>
      </trkpt>
      <trkpt lat="49.34512" lon="4.07147">
        <ele>130</ele>
        <time>2019-04-07T11:36:20Z</time>
      </trkpt>
      <trkpt lat="49.34512" lon="4.07147">
        <ele>130</ele>
        <time>2019-04-07T11:36:21Z</time>
      </trkpt>
      <trkpt lat="49.34512" lon="4.07147">
        <ele>130</ele>
        <time>2019-04-07T11:36:22Z</time>
      </trkpt>
      <trkpt lat="49.34512" lon="4.07147">
        <ele>130</ele>
        <time>2019-04-07T11:36:23Z</time>
      </trkpt>
      <trkpt lat="49.34512" lon="4.07147">
        <ele>130</ele>
        <time>2019-04-07T11:36:24Z</time>
      </trkpt>
      <trkpt lat="49.34512" lon="4.07147">
        <ele>130</ele>
        <time>2019-04-07T11:36:25Z</time>
      </trkpt>
      <trkpt lat="49.34512" lon="4.07147">
        <ele>130</ele>
        <time>2019-04-07T11:36:26Z</time>
      </trkpt>
      <trkpt lat="49.34512" lon="4.07147">
        <ele>130</ele>
        <time>2019-04-07T11:36:27Z</time>
      </trkpt>
      <trkpt lat="49.34512" lon="4.07147">
        <ele>130</ele>
        <time>2019-04-07T11:36:28Z</time>
      </trkpt>
      <trkpt lat="49.34512" lon="4.07147">
        <ele>130</ele>
        <time>2019-04-07T11:36:29Z</time>
      </trkpt>
      <trkpt lat="49.34512" lon="4.07147">
        <ele>130</ele>
        <time>2019-04-07T11:36:30Z</time>
      </trkpt>
      <trkpt lat="49.34512" lon="4.07147">
        <ele>130</ele>
        <time>2019-04-07T11:36:31Z</time>
      </trkpt>
      <trkpt lat="49.34512" lon="4.07147">
        <ele>130</ele>
        <time>2019-04-07T11:36:32Z</time>
      </trkpt>
      <trkpt lat="49.34512" lon="4.07147">
        <ele>130</ele>
        <time>2019-04-07T11:36:33Z</time>
      </trkpt>
      <trkpt lat="49.34512" lon="4.07147">
        <ele>130</ele>
        <time>2019-04-07T11:36:34Z</time>
      </trkpt>
      <trkpt lat="49.34512" lon="4.07147">
        <ele>130</ele>
        <time>2019-04-07T11:36:35Z</time>
      </trkpt>
      <trkpt lat="49.34512" lon="4.07147">
        <ele>130</ele>
        <time>2019-04-07T11:36:36Z</time>
      </trkpt>
      <trkpt lat="49.34512" lon="4.07147">
        <ele>130</ele>
        <time>2019-04-07T11:36:37Z</time>
      </trkpt>
      <trkpt lat="49.34512" lon="4.07147">
        <ele>130</ele>
        <time>2019-04-07T11:36:38Z</time>
      </trkpt>
      <trkpt lat="49.34512" lon="4.07147">
        <ele>130</ele>
        <time>2019-04-07T11:36:39Z</time>
      </trkpt>
      <trkpt lat="49.34512" lon="4.07147">
        <ele>130</ele>
        <time>2019-04-07T11:36:40Z</time>
      </trkpt>
      <trkpt lat="49.34512" lon="4.07147">
        <ele>130</ele>
        <time>2019-04-07T11:36:41Z</time>
      </trkpt>
      <trkpt lat="49.34512" lon="4.07147">
        <ele>130</ele>
        <time>2019-04-07T11:36:42Z</time>
      </trkpt>
      <trkpt lat="49.34512" lon="4.07147">
        <ele>130</ele>
        <time>2019-04-07T11:36:43Z</time>
      </trkpt>
      <trkpt lat="49.34512" lon="4.07147">
        <ele>130</ele>
        <time>2019-04-07T11:36:44Z</time>
      </trkpt>
      <trkpt lat="49.34512" lon="4.07147">
        <ele>130</ele>
        <time>2019-04-07T11:36:45Z</time>
      </trkpt>
      <trkpt lat="49.34512" lon="4.07147">
        <ele>130</ele>
        <time>2019-04-07T11:36:46Z</time>
      </trkpt>
      <trkpt lat="49.34512" lon="4.07147">
        <ele>130</ele>
        <time>2019-04-07T11:36:47Z</time>
      </trkpt>
      <trkpt lat="49.34512" lon="4.07147">
        <ele>130</ele>
        <time>2019-04-07T11:36:48Z</time>
      </trkpt>
      <trkpt lat="49.34512" lon="4.07147">
        <ele>130</ele>
        <time>2019-04-07T11:36:49Z</time>
      </trkpt>
      <trkpt lat="49.34512" lon="4.07147">
        <ele>130</ele>
        <time>2019-04-07T11:36:50Z</time>
      </trkpt>
      <trkpt lat="49.34512" lon="4.07147">
        <ele>130</ele>
        <time>2019-04-07T11:36:51Z</time>
      </trkpt>
      <trkpt lat="49.34512" lon="4.07147">
        <ele>130</ele>
        <time>2019-04-07T11:36:52Z</time>
      </trkpt>
      <trkpt lat="49.34512" lon="4.07147">
        <ele>130</ele>
        <time>2019-04-07T11:36:53Z</time>
      </trkpt>
      <trkpt lat="49.34512" lon="4.07147">
        <ele>130</ele>
        <time>2019-04-07T11:36:54Z</time>
      </trkpt>
      <trkpt lat="49.34512" lon="4.07147">
        <ele>130</ele>
        <time>2019-04-07T11:36:55Z</time>
      </trkpt>
      <trkpt lat="49.34512" lon="4.07147">
        <ele>130</ele>
        <time>2019-04-07T11:36:56Z</time>
      </trkpt>
      <trkpt lat="49.34512" lon="4.07147">
        <ele>130</ele>
        <time>2019-04-07T11:36:57Z</time>
      </trkpt>
      <trkpt lat="49.34512" lon="4.07147">
        <ele>130</ele>
        <time>2019-04-07T11:36:58Z</time>
      </trkpt>
      <trkpt lat="49.34512" lon="4.07147">
        <ele>130</ele>
        <time>2019-04-07T11:36:59Z</time>
      </trkpt>
      <trkpt lat="49.34512" lon="4.07147">
        <ele>130</ele>
        <time>2019-04-07T11:37:00Z</time>
      </trkpt>
      <trkpt lat="49.34512" lon="4.07147">
        <ele>130</ele>
        <time>2019-04-07T11:37:01Z</time>
      </trkpt>
      <trkpt lat="49.34512" lon="4.07147">
        <ele>130</ele>
        <time>2019-04-07T11:37:02Z</time>
      </trkpt>
      <trkpt lat="49.34512" lon="4.07147">
        <ele>130</ele>
        <time>2019-04-07T11:37:03Z</time>
      </trkpt>
      <trkpt lat="49.34512" lon="4.07147">
        <ele>130</ele>
        <time>2019-04-07T11:37:04Z</time>
      </trkpt>
      <trkpt lat="49.34512" lon="4.07147">
        <ele>130</ele>
        <time>2019-04-07T11:37:06Z</time>
      </trkpt>
      <trkpt lat="49.34512" lon="4.07147">
        <ele>130</ele>
        <time>2019-04-07T11:37:07Z</time>
      </trkpt>
      <trkpt lat="49.34512" lon="4.07147">
        <ele>130</ele>
        <time>2019-04-07T11:37:08Z</time>
      </trkpt>
      <trkpt lat="49.34512" lon="4.07147">
        <ele>130</ele>
        <time>2019-04-07T11:37:09Z</time>
      </trkpt>
      <trkpt lat="49.34512" lon="4.07147">
        <ele>130</ele>
        <time>2019-04-07T11:37:10Z</time>
      </trkpt>
      <trkpt lat="49.34512" lon="4.07147">
        <ele>130</ele>
        <time>2019-04-07T11:37:11Z</time>
      </trkpt>
      <trkpt lat="49.34512" lon="4.07147">
        <ele>130</ele>
        <time>2019-04-07T11:37:12Z</time>
      </trkpt>
      <trkpt lat="49.34512" lon="4.07147">
        <ele>130</ele>
        <time>2019-04-07T11:37:13Z</time>
      </trkpt>
      <trkpt lat="49.34512" lon="4.07147">
        <ele>130</ele>
        <time>2019-04-07T11:37:14Z</time>
      </trkpt>
      <trkpt lat="49.34512" lon="4.07147">
        <ele>130</ele>
        <time>2019-04-07T11:37:15Z</time>
      </trkpt>
      <trkpt lat="49.34512" lon="4.07147">
        <ele>130</ele>
        <time>2019-04-07T11:37:16Z</time>
      </trkpt>
      <trkpt lat="49.34512" lon="4.07147">
        <ele>130</ele>
        <time>2019-04-07T11:37:17Z</time>
      </trkpt>
      <trkpt lat="49.34512" lon="4.07147">
        <ele>130</ele>
        <time>2019-04-07T11:37:18Z</time>
      </trkpt>
      <trkpt lat="49.34512" lon="4.07147">
        <ele>130</ele>
        <time>2019-04-07T11:37:19Z</time>
      </trkpt>
      <trkpt lat="49.34512" lon="4.07147">
        <ele>130</ele>
        <time>2019-04-07T11:37:20Z</time>
      </trkpt>
      <trkpt lat="49.34512" lon="4.07147">
        <ele>130</ele>
        <time>2019-04-07T11:37:21Z</time>
      </trkpt>
      <trkpt lat="49.34512" lon="4.07147">
        <ele>130</ele>
        <time>2019-04-07T11:37:22Z</time>
      </trkpt>
      <trkpt lat="49.34512" lon="4.07147">
        <ele>130</ele>
        <time>2019-04-07T11:37:23Z</time>
      </trkpt>
      <trkpt lat="49.34512" lon="4.07147">
        <ele>130</ele>
        <time>2019-04-07T11:37:24Z</time>
      </trkpt>
      <trkpt lat="49.34512" lon="4.07147">
        <ele>130</ele>
        <time>2019-04-07T11:37:25Z</time>
      </trkpt>
      <trkpt lat="49.34512" lon="4.07147">
        <ele>130</ele>
        <time>2019-04-07T11:37:26Z</time>
      </trkpt>
      <trkpt lat="49.34512" lon="4.07147">
        <ele>130</ele>
        <time>2019-04-07T11:37:27Z</time>
      </trkpt>
      <trkpt lat="49.34512" lon="4.07147">
        <ele>130</ele>
        <time>2019-04-07T11:37:28Z</time>
      </trkpt>
      <trkpt lat="49.34512" lon="4.07147">
        <ele>130</ele>
        <time>2019-04-07T11:37:29Z</time>
      </trkpt>
      <trkpt lat="49.34512" lon="4.07147">
        <ele>130</ele>
        <time>2019-04-07T11:37:30Z</time>
      </trkpt>
      <trkpt lat="49.34512" lon="4.07147">
        <ele>130</ele>
        <time>2019-04-07T11:37:31Z</time>
      </trkpt>
      <trkpt lat="49.34512" lon="4.07147">
        <ele>130</ele>
        <time>2019-04-07T11:37:32Z</time>
      </trkpt>
      <trkpt lat="49.34512" lon="4.07147">
        <ele>130</ele>
        <time>2019-04-07T11:37:33Z</time>
      </trkpt>
      <trkpt lat="49.34512" lon="4.07147">
        <ele>130</ele>
        <time>2019-04-07T11:37:34Z</time>
      </trkpt>
      <trkpt lat="49.34512" lon="4.07147">
        <ele>130</ele>
        <time>2019-04-07T11:37:35Z</time>
      </trkpt>
      <trkpt lat="49.34512" lon="4.07147">
        <ele>130</ele>
        <time>2019-04-07T11:37:36Z</time>
      </trkpt>
      <trkpt lat="49.34512" lon="4.07147">
        <ele>130</ele>
        <time>2019-04-07T11:37:37Z</time>
      </trkpt>
      <trkpt lat="49.34512" lon="4.07147">
        <ele>130</ele>
        <time>2019-04-07T11:37:38Z</time>
      </trkpt>
      <trkpt lat="49.34512" lon="4.07147">
        <ele>130</ele>
        <time>2019-04-07T11:37:39Z</time>
      </trkpt>
      <trkpt lat="49.34512" lon="4.07147">
        <ele>130</ele>
        <time>2019-04-07T11:37:40Z</time>
      </trkpt>
      <trkpt lat="49.34512" lon="4.07147">
        <ele>130</ele>
        <time>2019-04-07T11:37:41Z</time>
      </trkpt>
      <trkpt lat="49.34512" lon="4.07147">
        <ele>130</ele>
        <time>2019-04-07T11:37:42Z</time>
      </trkpt>
      <trkpt lat="49.34512" lon="4.07147">
        <ele>130</ele>
        <time>2019-04-07T11:37:43Z</time>
      </trkpt>
      <trkpt lat="49.34512" lon="4.07147">
        <ele>130</ele>
        <time>2019-04-07T11:37:44Z</time>
      </trkpt>
      <trkpt lat="49.34512" lon="4.07147">
        <ele>130</ele>
        <time>2019-04-07T11:37:45Z</time>
      </trkpt>
      <trkpt lat="49.34512" lon="4.07147">
        <ele>130</ele>
        <time>2019-04-07T11:37:46Z</time>
      </trkpt>
      <trkpt lat="49.34512" lon="4.07147">
        <ele>130</ele>
        <time>2019-04-07T11:37:47Z</time>
      </trkpt>
      <trkpt lat="49.34512" lon="4.07147">
        <ele>130</ele>
        <time>2019-04-07T11:37:48Z</time>
      </trkpt>
      <trkpt lat="49.34512" lon="4.07147">
        <ele>130</ele>
        <time>2019-04-07T11:37:49Z</time>
      </trkpt>
      <trkpt lat="49.34512" lon="4.07147">
        <ele>130</ele>
        <time>2019-04-07T11:37:50Z</time>
      </trkpt>
      <trkpt lat="49.34512" lon="4.07147">
        <ele>130</ele>
        <time>2019-04-07T11:37:51Z</time>
      </trkpt>
      <trkpt lat="49.34512" lon="4.07147">
        <ele>130</ele>
        <time>2019-04-07T11:37:52Z</time>
      </trkpt>
      <trkpt lat="49.34512" lon="4.07147">
        <ele>130</ele>
        <time>2019-04-07T11:37:53Z</time>
      </trkpt>
      <trkpt lat="49.34512" lon="4.07147">
        <ele>130</ele>
        <time>2019-04-07T11:37:54Z</time>
      </trkpt>
      <trkpt lat="49.34512" lon="4.07147">
        <ele>130</ele>
        <time>2019-04-07T11:37:55Z</time>
      </trkpt>
      <trkpt lat="49.34512" lon="4.07147">
        <ele>130</ele>
        <time>2019-04-07T11:37:56Z</time>
      </trkpt>
      <trkpt lat="49.34512" lon="4.07147">
        <ele>130</ele>
        <time>2019-04-07T11:37:57Z</time>
      </trkpt>
      <trkpt lat="49.34512" lon="4.07147">
        <ele>130</ele>
        <time>2019-04-07T11:37:58Z</time>
      </trkpt>
      <trkpt lat="49.34512" lon="4.07147">
        <ele>130</ele>
        <time>2019-04-07T11:37:59Z</time>
      </trkpt>
      <trkpt lat="49.34512" lon="4.07147">
        <ele>130</ele>
        <time>2019-04-07T11:38:00Z</time>
      </trkpt>
      <trkpt lat="49.34512" lon="4.07147">
        <ele>130</ele>
        <time>2019-04-07T11:38:01Z</time>
      </trkpt>
      <trkpt lat="49.34512" lon="4.07147">
        <ele>130</ele>
        <time>2019-04-07T11:38:02Z</time>
      </trkpt>
      <trkpt lat="49.34512" lon="4.07147">
        <ele>130</ele>
        <time>2019-04-07T11:38:03Z</time>
      </trkpt>
      <trkpt lat="49.34512" lon="4.07148">
        <ele>130</ele>
        <time>2019-04-07T11:38:04Z</time>
      </trkpt>
      <trkpt lat="49.34512" lon="4.07148">
        <ele>131</ele>
        <time>2019-04-07T11:38:05Z</time>
      </trkpt>
      <trkpt lat="49.34512" lon="4.07149">
        <ele>131</ele>
        <time>2019-04-07T11:38:06Z</time>
      </trkpt>
      <trkpt lat="49.3451" lon="4.0715">
        <ele>131</ele>
        <time>2019-04-07T11:38:07Z</time>
      </trkpt>
      <trkpt lat="49.34509" lon="4.0715">
        <ele>131</ele>
        <time>2019-04-07T11:38:08Z</time>
      </trkpt>
      <trkpt lat="49.34508" lon="4.07149">
        <ele>132</ele>
        <time>2019-04-07T11:38:09Z</time>
      </trkpt>
      <trkpt lat="49.34507" lon="4.07148">
        <ele>132</ele>
        <time>2019-04-07T11:38:10Z</time>
      </trkpt>
      <trkpt lat="49.34506" lon="4.07148">
        <ele>132</ele>
        <time>2019-04-07T11:38:11Z</time>
      </trkpt>
      <trkpt lat="49.34506" lon="4.07148">
        <ele>132</ele>
        <time>2019-04-07T11:38:12Z</time>
      </trkpt>
      <trkpt lat="49.34506" lon="4.07148">
        <ele>132</ele>
        <time>2019-04-07T11:38:13Z</time>
      </trkpt>
      <trkpt lat="49.34506" lon="4.07147">
        <ele>132</ele>
        <time>2019-04-07T11:38:14Z</time>
      </trkpt>
      <trkpt lat="49.34505" lon="4.07148">
        <ele>132</ele>
        <time>2019-04-07T11:38:15Z</time>
      </trkpt>
      <trkpt lat="49.34505" lon="4.07148">
        <ele>132</ele>
        <time>2019-04-07T11:38:16Z</time>
      </trkpt>
      <trkpt lat="49.34504" lon="4.07147">
        <ele>132</ele>
        <time>2019-04-07T11:38:17Z</time>
      </trkpt>
      <trkpt lat="49.34504" lon="4.07146">
        <ele>132</ele>
        <time>2019-04-07T11:38:18Z</time>
      </trkpt>
      <trkpt lat="49.34504" lon="4.07146">
        <ele>132</ele>
        <time>2019-04-07T11:38:19Z</time>
      </trkpt>
      <trkpt lat="49.34504" lon="4.07146">
        <ele>132</ele>
        <time>2019-04-07T11:38:20Z</time>
      </trkpt>
      <trkpt lat="49.34504" lon="4.07146">
        <ele>132</ele>
        <time>2019-04-07T11:38:21Z</time>
      </trkpt>
      <trkpt lat="49.34505" lon="4.07146">
        <ele>132</ele>
        <time>2019-04-07T11:38:22Z</time>
      </trkpt>
      <trkpt lat="49.34505" lon="4.07146">
        <ele>132</ele>
        <time>2019-04-07T11:38:23Z</time>
      </trkpt>
      <trkpt lat="49.34505" lon="4.07147">
        <ele>131</ele>
        <time>2019-04-07T11:38:24Z</time>
      </trkpt>
      <trkpt lat="49.34505" lon="4.07146">
        <ele>131</ele>
        <time>2019-04-07T11:38:25Z</time>
      </trkpt>
      <trkpt lat="49.34505" lon="4.07146">
        <ele>131</ele>
        <time>2019-04-07T11:38:26Z</time>
      </trkpt>
      <trkpt lat="49.34505" lon="4.07146">
        <ele>131</ele>
        <time>2019-04-07T11:38:27Z</time>
      </trkpt>
      <trkpt lat="49.34505" lon="4.07145">
        <ele>131</ele>
        <time>2019-04-07T11:38:28Z</time>
      </trkpt>
      <trkpt lat="49.34505" lon="4.07145">
        <ele>131</ele>
        <time>2019-04-07T11:38:29Z</time>
      </trkpt>
      <trkpt lat="49.34505" lon="4.07145">
        <ele>131</ele>
        <time>2019-04-07T11:38:30Z</time>
      </trkpt>
      <trkpt lat="49.34505" lon="4.07145">
        <ele>130</ele>
        <time>2019-04-07T11:38:31Z</time>
      </trkpt>
      <trkpt lat="49.34505" lon="4.07145">
        <ele>130</ele>
        <time>2019-04-07T11:38:32Z</time>
      </trkpt>
      <trkpt lat="49.34505" lon="4.07144">
        <ele>130</ele>
        <time>2019-04-07T11:38:33Z</time>
      </trkpt>
      <trkpt lat="49.34505" lon="4.07143">
        <ele>130</ele>
        <time>2019-04-07T11:38:34Z</time>
      </trkpt>
      <trkpt lat="49.34505" lon="4.07142">
        <ele>129</ele>
        <time>2019-04-07T11:38:35Z</time>
      </trkpt>
      <trkpt lat="49.34505" lon="4.07142">
        <ele>129</ele>
        <time>2019-04-07T11:38:36Z</time>
      </trkpt>
      <trkpt lat="49.34505" lon="4.07142">
        <ele>129</ele>
        <time>2019-04-07T11:38:37Z</time>
      </trkpt>
      <trkpt lat="49.34505" lon="4.07142">
        <ele>129</ele>
        <time>2019-04-07T11:38:38Z</time>
      </trkpt>
      <trkpt lat="49.34505" lon="4.07141">
        <ele>130</ele>
        <time>2019-04-07T11:38:39Z</time>
      </trkpt>
      <trkpt lat="49.34505" lon="4.07141">
        <ele>130</ele>
        <time>2019-04-07T11:38:40Z</time>
      </trkpt>
      <trkpt lat="49.34505" lon="4.07141">
        <ele>130</ele>
        <time>2019-04-07T11:38:41Z</time>
      </trkpt>
      <trkpt lat="49.34505" lon="4.07141">
        <ele>130</ele>
        <time>2019-04-07T11:38:42Z</time>
      </trkpt>
      <trkpt lat="49.34505" lon="4.07141">
        <ele>130</ele>
        <time>2019-04-07T11:38:43Z</time>
      </trkpt>
      <trkpt lat="49.34505" lon="4.07141">
        <ele>130</ele>
        <time>2019-04-07T11:38:44Z</time>
      </trkpt>
      <trkpt lat="49.34505" lon="4.07141">
        <ele>130</ele>
        <time>2019-04-07T11:38:45Z</time>
      </trkpt>
      <trkpt lat="49.34505" lon="4.07141">
        <ele>130</ele>
        <time>2019-04-07T11:38:46Z</time>
      </trkpt>
      <trkpt lat="49.34505" lon="4.07141">
        <ele>130</ele>
        <time>2019-04-07T11:38:47Z</time>
      </trkpt>
      <trkpt lat="49.34505" lon="4.07141">
        <ele>130</ele>
        <time>2019-04-07T11:38:48Z</time>
      </trkpt>
      <trkpt lat="49.34505" lon="4.07141">
        <ele>130</ele>
        <time>2019-04-07T11:38:49Z</time>
      </trkpt>
      <trkpt lat="49.34505" lon="4.07141">
        <ele>130</ele>
        <time>2019-04-07T11:38:50Z</time>
      </trkpt>
      <trkpt lat="49.34505" lon="4.07141">
        <ele>130</ele>
        <time>2019-04-07T11:38:51Z</time>
      </trkpt>
      <trkpt lat="49.34505" lon="4.07141">
        <ele>130</ele>
        <time>2019-04-07T11:38:52Z</time>
      </trkpt>
      <trkpt lat="49.34505" lon="4.07141">
        <ele>130</ele>
        <time>2019-04-07T11:38:53Z</time>
      </trkpt>
      <trkpt lat="49.34505" lon="4.07141">
        <ele>130</ele>
        <time>2019-04-07T11:38:54Z</time>
      </trkpt>
      <trkpt lat="49.34505" lon="4.07141">
        <ele>130</ele>
        <time>2019-04-07T11:38:55Z</time>
      </trkpt>
      <trkpt lat="49.34505" lon="4.07141">
        <ele>130</ele>
        <time>2019-04-07T11:38:56Z</time>
      </trkpt>
      <trkpt lat="49.34505" lon="4.07141">
        <ele>130</ele>
        <time>2019-04-07T11:38:57Z</time>
      </trkpt>
      <trkpt lat="49.34505" lon="4.07141">
        <ele>130</ele>
        <time>2019-04-07T11:38:58Z</time>
      </trkpt>
      <trkpt lat="49.34505" lon="4.07141">
        <ele>130</ele>
        <time>2019-04-07T11:38:59Z</time>
      </trkpt>
      <trkpt lat="49.34505" lon="4.07141">
        <ele>130</ele>
        <time>2019-04-07T11:39:00Z</time>
      </trkpt>
    </trkseg>
  </trk>
</gpx>